<?xml version='1.0' encoding='UTF-8'?><gpx version="1.1" creator="JPX - https://github.com/jenetics/jpx" xmlns="http://www.topografix.com/GPX/1/1"><trk><trkseg><trkpt lat="40.6140983" lon="14.969835"><ele>59.00000000000001</ele><time>2026-05-02T08:20:52.88Z</time></trkpt><trkpt lat="40.6140267" lon="14.9698517"><ele>59.0</ele><time>2026-05-02T08:20:53.879Z</time></trkpt><trkpt lat="40.6139417" lon="14.9698733"><ele>59.0</ele><time>2026-05-02T08:20:54.879Z</time></trkpt><trkpt lat="40.6138567" lon="14.969905"><ele>59.0</ele><time>2026-05-02T08:20:55.879Z</time></trkpt><trkpt lat="40.6137717" lon="14.96995"><ele>59.00000000000001</ele><time>2026-05-02T08:20:56.879Z</time></trkpt><trkpt lat="40.6136933" lon="14.9700183"><ele>59.0</ele><time>2026-05-02T08:20:57.88Z</time></trkpt><trkpt lat="40.6135983" lon="14.970105"><ele>59.25</ele><time>2026-05-02T08:20:58.879Z</time></trkpt><trkpt lat="40.6135217" lon="14.9702183"><ele>59.5</ele><time>2026-05-02T08:20:59.879Z</time></trkpt><trkpt lat="40.6134533" lon="14.9703517"><ele>59.75</ele><time>2026-05-02T08:21:00.879Z</time></trkpt><trkpt lat="40.6133917" lon="14.9704867"><ele>60.0</ele><time>2026-05-02T08:21:01.88Z</time></trkpt><trkpt lat="40.6133333" lon="14.9706183"><ele>60.0</ele><time>2026-05-02T08:21:02.88Z</time></trkpt><trkpt lat="40.6132717" lon="14.9707517"><ele>60.0</ele><time>2026-05-02T08:21:03.879Z</time></trkpt><trkpt lat="40.6132033" lon="14.97089"><ele>60.0</ele><time>2026-05-02T08:21:04.88Z</time></trkpt><trkpt lat="40.6131283" lon="14.9710617"><ele>60.0</ele><time>2026-05-02T08:21:05.879Z</time></trkpt><trkpt lat="40.6130617" lon="14.9712367"><ele>60.25</ele><time>2026-05-02T08:21:06.88Z</time></trkpt><trkpt lat="40.6130033" lon="14.9714"><ele>60.5</ele><time>2026-05-02T08:21:07.879Z</time></trkpt><trkpt lat="40.61295" lon="14.9715517"><ele>60.75</ele><time>2026-05-02T08:21:08.879Z</time></trkpt><trkpt lat="40.61291" lon="14.971695"><ele>61.0</ele><time>2026-05-02T08:21:09.88Z</time></trkpt><trkpt lat="40.6128717" lon="14.9718433"><ele>60.8</ele><time>2026-05-02T08:21:10.879Z</time></trkpt><trkpt lat="40.6128417" lon="14.9719867"><ele>60.599999999999994</ele><time>2026-05-02T08:21:11.879Z</time></trkpt><trkpt lat="40.6128167" lon="14.9721267"><ele>60.4</ele><time>2026-05-02T08:21:12.88Z</time></trkpt><trkpt lat="40.6127983" lon="14.9722683"><ele>60.2</ele><time>2026-05-02T08:21:13.88Z</time></trkpt><trkpt lat="40.61278" lon="14.9724"><ele>60.0</ele><time>2026-05-02T08:21:14.879Z</time></trkpt><trkpt lat="40.6127733" lon="14.9725117"><ele>60.6</ele><time>2026-05-02T08:21:15.88Z</time></trkpt><trkpt lat="40.612785" lon="14.9726433"><ele>61.2</ele><time>2026-05-02T08:21:16.88Z</time></trkpt><trkpt lat="40.6128217" lon="14.9727767"><ele>61.8</ele><time>2026-05-02T08:21:17.88Z</time></trkpt><trkpt lat="40.6128733" lon="14.97289"><ele>62.4</ele><time>2026-05-02T08:21:18.88Z</time></trkpt><trkpt lat="40.6129367" lon="14.9729817"><ele>63.0</ele><time>2026-05-02T08:21:19.88Z</time></trkpt><trkpt lat="40.6130033" lon="14.9730583"><ele>63.333333333333336</ele><time>2026-05-02T08:21:20.879Z</time></trkpt><trkpt lat="40.6130633" lon="14.97313"><ele>63.66666666666667</ele><time>2026-05-02T08:21:21.88Z</time></trkpt><trkpt lat="40.6131083" lon="14.9732033"><ele>64.0</ele><time>2026-05-02T08:21:22.879Z</time></trkpt><trkpt lat="40.613145" lon="14.9732917"><ele>64.33333333333334</ele><time>2026-05-02T08:21:23.88Z</time></trkpt><trkpt lat="40.6131783" lon="14.9733883"><ele>64.66666666666667</ele><time>2026-05-02T08:21:24.879Z</time></trkpt><trkpt lat="40.6131867" lon="14.9734883"><ele>65.0</ele><time>2026-05-02T08:21:25.879Z</time></trkpt><trkpt lat="40.6131833" lon="14.9735933"><ele>65.5</ele><time>2026-05-02T08:21:26.88Z</time></trkpt><trkpt lat="40.6131617" lon="14.9736917"><ele>66.0</ele><time>2026-05-02T08:21:27.879Z</time></trkpt><trkpt lat="40.6131433" lon="14.9737917"><ele>66.5</ele><time>2026-05-02T08:21:28.879Z</time></trkpt><trkpt lat="40.61312" lon="14.9738883"><ele>67.0</ele><time>2026-05-02T08:21:29.879Z</time></trkpt><trkpt lat="40.6130983" lon="14.9739867"><ele>67.5</ele><time>2026-05-02T08:21:30.879Z</time></trkpt><trkpt lat="40.6130817" lon="14.97408"><ele>68.0</ele><time>2026-05-02T08:21:31.879Z</time></trkpt><trkpt lat="40.6130617" lon="14.97417"><ele>67.6</ele><time>2026-05-02T08:21:32.879Z</time></trkpt><trkpt lat="40.61304" lon="14.9742517"><ele>67.19999999999999</ele><time>2026-05-02T08:21:33.879Z</time></trkpt><trkpt lat="40.6130017" lon="14.9743983"><ele>66.8</ele><time>2026-05-02T08:21:35.88Z</time></trkpt><trkpt lat="40.612965" lon="14.9745383"><ele>66.39999999999999</ele><time>2026-05-02T08:21:37.879Z</time></trkpt><trkpt lat="40.612925" lon="14.97466"><ele>66.0</ele><time>2026-05-02T08:21:39.88Z</time></trkpt><trkpt lat="40.6128867" lon="14.9747667"><ele>66.0</ele><time>2026-05-02T08:21:41.879Z</time></trkpt><trkpt lat="40.612845" lon="14.97488"><ele>66.0</ele><time>2026-05-02T08:21:43.88Z</time></trkpt><trkpt lat="40.6128017" lon="14.9749867"><ele>66.0</ele><time>2026-05-02T08:21:45.879Z</time></trkpt><trkpt lat="40.6127667" lon="14.9750817"><ele>66.0</ele><time>2026-05-02T08:21:47.879Z</time></trkpt><trkpt lat="40.612735" lon="14.9751767"><ele>66.0</ele><time>2026-05-02T08:21:49.879Z</time></trkpt><trkpt lat="40.6127083" lon="14.975285"><ele>66.0</ele><time>2026-05-02T08:21:51.88Z</time></trkpt><trkpt lat="40.612675" lon="14.97542"><ele>66.33333333333333</ele><time>2026-05-02T08:21:53.879Z</time></trkpt><trkpt lat="40.6126383" lon="14.9755667"><ele>66.66666666666667</ele><time>2026-05-02T08:21:55.88Z</time></trkpt><trkpt lat="40.6126117" lon="14.9756867"><ele>67.0</ele><time>2026-05-02T08:21:57.879Z</time></trkpt><trkpt lat="40.6125817" lon="14.97577"><ele>67.33333333333334</ele><time>2026-05-02T08:22:00.879Z</time></trkpt><trkpt lat="40.6126467" lon="14.9758383"><ele>67.66666666666667</ele><time>2026-05-02T08:22:04.88Z</time></trkpt><trkpt lat="40.6126983" lon="14.9759017"><ele>68.0</ele><time>2026-05-02T08:22:07.879Z</time></trkpt><trkpt lat="40.6127383" lon="14.9760367"><ele>68.16666666666667</ele><time>2026-05-02T08:25:14.879Z</time></trkpt><trkpt lat="40.6126667" lon="14.9760317"><ele>68.33333333333334</ele><time>2026-05-02T08:25:17.879Z</time></trkpt><trkpt lat="40.6126183" lon="14.9759467"><ele>68.5</ele><time>2026-05-02T08:25:19.878Z</time></trkpt><trkpt lat="40.612515" lon="14.9759717"><ele>68.66666666666667</ele><time>2026-05-02T08:25:29.879Z</time></trkpt><trkpt lat="40.6124417" lon="14.97607"><ele>68.83333333333333</ele><time>2026-05-02T08:25:31.878Z</time></trkpt><trkpt lat="40.61239" lon="14.9761517"><ele>69.0</ele><time>2026-05-02T08:25:33.878Z</time></trkpt><trkpt lat="40.6123717" lon="14.976245"><ele>69.0</ele><time>2026-05-02T08:25:35.879Z</time></trkpt><trkpt lat="40.6123783" lon="14.9763317"><ele>69.0</ele><time>2026-05-02T08:25:37.878Z</time></trkpt><trkpt lat="40.6123833" lon="14.9764367"><ele>69.0</ele><time>2026-05-02T08:25:39.879Z</time></trkpt><trkpt lat="40.6123717" lon="14.976545"><ele>69.0</ele><time>2026-05-02T08:25:41.879Z</time></trkpt><trkpt lat="40.6123433" lon="14.9766533"><ele>69.0</ele><time>2026-05-02T08:25:43.878Z</time></trkpt><trkpt lat="40.612305" lon="14.9767633"><ele>69.0</ele><time>2026-05-02T08:25:45.879Z</time></trkpt><trkpt lat="40.6122783" lon="14.97689"><ele>68.83333333333333</ele><time>2026-05-02T08:25:47.879Z</time></trkpt><trkpt lat="40.6122433" lon="14.977005"><ele>68.66666666666667</ele><time>2026-05-02T08:25:49.878Z</time></trkpt><trkpt lat="40.6122167" lon="14.9770817"><ele>68.5</ele><time>2026-05-02T08:25:51.879Z</time></trkpt><trkpt lat="40.6121983" lon="14.97718"><ele>68.33333333333334</ele><time>2026-05-02T08:25:54.878Z</time></trkpt><trkpt lat="40.61218" lon="14.97726"><ele>68.16666666666667</ele><time>2026-05-02T08:26:25.879Z</time></trkpt><trkpt lat="40.61217" lon="14.9773717"><ele>68.0</ele><time>2026-05-02T08:26:41.879Z</time></trkpt><trkpt lat="40.6121483" lon="14.9774567"><ele>68.0</ele><time>2026-05-02T08:26:42.878Z</time></trkpt><trkpt lat="40.61212" lon="14.9775467"><ele>68.0</ele><time>2026-05-02T08:26:43.878Z</time></trkpt><trkpt lat="40.612095" lon="14.9776283"><ele>68.0</ele><time>2026-05-02T08:26:44.878Z</time></trkpt><trkpt lat="40.6120733" lon="14.9777133"><ele>68.0</ele><time>2026-05-02T08:26:45.879Z</time></trkpt><trkpt lat="40.6120533" lon="14.9777933"><ele>68.0</ele><time>2026-05-02T08:26:46.879Z</time></trkpt><trkpt lat="40.6120283" lon="14.977875"><ele>68.0</ele><time>2026-05-02T08:26:47.879Z</time></trkpt><trkpt lat="40.6119933" lon="14.9780283"><ele>68.0</ele><time>2026-05-02T08:26:49.879Z</time></trkpt><trkpt lat="40.6119717" lon="14.978145"><ele>68.0</ele><time>2026-05-02T08:26:51.879Z</time></trkpt><trkpt lat="40.6119667" lon="14.9782783"><ele>68.0</ele><time>2026-05-02T08:26:53.878Z</time></trkpt><trkpt lat="40.6119333" lon="14.9784383"><ele>68.0</ele><time>2026-05-02T08:26:55.879Z</time></trkpt><trkpt lat="40.6119117" lon="14.9785283"><ele>68.0</ele><time>2026-05-02T08:26:56.879Z</time></trkpt><trkpt lat="40.6118883" lon="14.9786283"><ele>68.66666666666667</ele><time>2026-05-02T08:26:57.878Z</time></trkpt><trkpt lat="40.6118783" lon="14.978715"><ele>69.33333333333334</ele><time>2026-05-02T08:26:58.878Z</time></trkpt><trkpt lat="40.61185" lon="14.9788533"><ele>70.0</ele><time>2026-05-02T08:27:00.878Z</time></trkpt><trkpt lat="40.6118083" lon="14.978925"><ele>70.66666666666667</ele><time>2026-05-02T08:27:01.878Z</time></trkpt><trkpt lat="40.6117717" lon="14.9790767"><ele>71.33333333333333</ele><time>2026-05-02T08:27:03.878Z</time></trkpt><trkpt lat="40.6117483" lon="14.9791583"><ele>72.0</ele><time>2026-05-02T08:27:04.879Z</time></trkpt><trkpt lat="40.6117167" lon="14.9793083"><ele>72.0</ele><time>2026-05-02T08:27:06.878Z</time></trkpt><trkpt lat="40.6116683" lon="14.9794417"><ele>72.0</ele><time>2026-05-02T08:27:08.879Z</time></trkpt><trkpt lat="40.611595" lon="14.979565"><ele>72.0</ele><time>2026-05-02T08:27:10.879Z</time></trkpt><trkpt lat="40.611515" lon="14.9796667"><ele>72.0</ele><time>2026-05-02T08:27:12.878Z</time></trkpt><trkpt lat="40.61142" lon="14.9797733"><ele>72.00000000000001</ele><time>2026-05-02T08:27:14.878Z</time></trkpt><trkpt lat="40.6113683" lon="14.9798317"><ele>72.0</ele><time>2026-05-02T08:27:15.879Z</time></trkpt><trkpt lat="40.6113167" lon="14.9798917"><ele>72.0</ele><time>2026-05-02T08:27:16.878Z</time></trkpt><trkpt lat="40.6112667" lon="14.9799667"><ele>72.0</ele><time>2026-05-02T08:27:17.878Z</time></trkpt><trkpt lat="40.61121" lon="14.9800267"><ele>72.0</ele><time>2026-05-02T08:27:18.878Z</time></trkpt><trkpt lat="40.6111633" lon="14.9801"><ele>72.00000000000001</ele><time>2026-05-02T08:27:19.879Z</time></trkpt><trkpt lat="40.611115" lon="14.980155"><ele>72.0</ele><time>2026-05-02T08:27:20.878Z</time></trkpt><trkpt lat="40.6110367" lon="14.9802617"><ele>72.5</ele><time>2026-05-02T08:27:22.878Z</time></trkpt><trkpt lat="40.61098" lon="14.9803133"><ele>73.0</ele><time>2026-05-02T08:27:24.879Z</time></trkpt><trkpt lat="40.6109067" lon="14.980365"><ele>73.5</ele><time>2026-05-02T08:27:26.878Z</time></trkpt><trkpt lat="40.6108533" lon="14.9804367"><ele>74.0</ele><time>2026-05-02T08:27:30.878Z</time></trkpt><trkpt lat="40.6107917" lon="14.980485"><ele>74.5</ele><time>2026-05-02T08:27:32.879Z</time></trkpt><trkpt lat="40.6107133" lon="14.9805567"><ele>75.0</ele><time>2026-05-02T08:27:40.878Z</time></trkpt><trkpt lat="40.6107167" lon="14.9806833"><ele>75.0</ele><time>2026-05-02T08:27:43.879Z</time></trkpt><trkpt lat="40.6107433" lon="14.980825"><ele>75.0</ele><time>2026-05-02T08:27:45.878Z</time></trkpt><trkpt lat="40.6107767" lon="14.9809917"><ele>75.0</ele><time>2026-05-02T08:27:47.878Z</time></trkpt><trkpt lat="40.6107983" lon="14.9810817"><ele>75.0</ele><time>2026-05-02T08:27:48.879Z</time></trkpt><trkpt lat="40.6108167" lon="14.981165"><ele>75.0</ele><time>2026-05-02T08:27:49.878Z</time></trkpt><trkpt lat="40.610835" lon="14.981305"><ele>75.16666666666667</ele><time>2026-05-02T08:27:51.879Z</time></trkpt><trkpt lat="40.6108667" lon="14.981395"><ele>75.33333333333333</ele><time>2026-05-02T08:27:53.879Z</time></trkpt><trkpt lat="40.6108967" lon="14.98148"><ele>75.5</ele><time>2026-05-02T08:27:56.879Z</time></trkpt><trkpt lat="40.61092" lon="14.98157"><ele>75.66666666666666</ele><time>2026-05-02T08:27:59.879Z</time></trkpt><trkpt lat="40.6109367" lon="14.9816717"><ele>75.83333333333333</ele><time>2026-05-02T08:28:01.878Z</time></trkpt><trkpt lat="40.61094" lon="14.9817817"><ele>76.0</ele><time>2026-05-02T08:28:03.878Z</time></trkpt><trkpt lat="40.6109467" lon="14.981895"><ele>76.0</ele><time>2026-05-02T08:28:05.879Z</time></trkpt><trkpt lat="40.61097" lon="14.982015"><ele>76.0</ele><time>2026-05-02T08:28:07.879Z</time></trkpt><trkpt lat="40.6109817" lon="14.9821367"><ele>76.0</ele><time>2026-05-02T08:28:09.879Z</time></trkpt><trkpt lat="40.61099" lon="14.9822633"><ele>76.0</ele><time>2026-05-02T08:28:11.878Z</time></trkpt><trkpt lat="40.6110333" lon="14.9823783"><ele>76.0</ele><time>2026-05-02T08:28:13.879Z</time></trkpt><trkpt lat="40.61108" lon="14.9824917"><ele>76.2</ele><time>2026-05-02T08:28:15.878Z</time></trkpt><trkpt lat="40.6111433" lon="14.982605"><ele>76.39999999999999</ele><time>2026-05-02T08:28:17.878Z</time></trkpt><trkpt lat="40.6112083" lon="14.982735"><ele>76.6</ele><time>2026-05-02T08:28:19.878Z</time></trkpt><trkpt lat="40.611255" lon="14.98286"><ele>76.8</ele><time>2026-05-02T08:28:21.879Z</time></trkpt><trkpt lat="40.6113017" lon="14.9829633"><ele>77.0</ele><time>2026-05-02T08:28:23.878Z</time></trkpt><trkpt lat="40.611345" lon="14.9830467"><ele>77.4</ele><time>2026-05-02T08:28:25.879Z</time></trkpt><trkpt lat="40.6114017" lon="14.9831467"><ele>77.80000000000001</ele><time>2026-05-02T08:28:27.879Z</time></trkpt><trkpt lat="40.6114467" lon="14.983275"><ele>78.2</ele><time>2026-05-02T08:28:29.878Z</time></trkpt><trkpt lat="40.611485" lon="14.9833683"><ele>78.60000000000001</ele><time>2026-05-02T08:28:31.879Z</time></trkpt><trkpt lat="40.6115283" lon="14.98346"><ele>79.0</ele><time>2026-05-02T08:28:33.879Z</time></trkpt><trkpt lat="40.6115967" lon="14.983585"><ele>79.33333333333333</ele><time>2026-05-02T08:28:35.879Z</time></trkpt><trkpt lat="40.611635" lon="14.983665"><ele>79.66666666666666</ele><time>2026-05-02T08:28:36.879Z</time></trkpt><trkpt lat="40.6116717" lon="14.9837517"><ele>80.0</ele><time>2026-05-02T08:28:37.879Z</time></trkpt><trkpt lat="40.6117117" lon="14.983835"><ele>80.33333333333333</ele><time>2026-05-02T08:28:38.878Z</time></trkpt><trkpt lat="40.6117533" lon="14.9839217"><ele>80.66666666666667</ele><time>2026-05-02T08:28:39.879Z</time></trkpt><trkpt lat="40.6117967" lon="14.9839933"><ele>81.0</ele><time>2026-05-02T08:28:40.878Z</time></trkpt><trkpt lat="40.6118633" lon="14.9840933"><ele>81.0</ele><time>2026-05-02T08:28:42.879Z</time></trkpt><trkpt lat="40.61188" lon="14.9841767"><ele>81.0</ele><time>2026-05-02T08:28:44.878Z</time></trkpt><trkpt lat="40.611905" lon="14.98426"><ele>81.0</ele><time>2026-05-02T08:28:48.878Z</time></trkpt><trkpt lat="40.61193" lon="14.9843617"><ele>81.0</ele><time>2026-05-02T08:28:51.879Z</time></trkpt><trkpt lat="40.611965" lon="14.9844417"><ele>81.0</ele><time>2026-05-02T08:28:52.879Z</time></trkpt><trkpt lat="40.6120183" lon="14.984535"><ele>81.0</ele><time>2026-05-02T08:28:53.878Z</time></trkpt><trkpt lat="40.6120667" lon="14.98463"><ele>80.83333333333333</ele><time>2026-05-02T08:28:54.879Z</time></trkpt><trkpt lat="40.61212" lon="14.9847233"><ele>80.66666666666667</ele><time>2026-05-02T08:28:55.879Z</time></trkpt><trkpt lat="40.61216" lon="14.984815"><ele>80.5</ele><time>2026-05-02T08:28:56.879Z</time></trkpt><trkpt lat="40.6122133" lon="14.9849083"><ele>80.33333333333334</ele><time>2026-05-02T08:28:57.879Z</time></trkpt><trkpt lat="40.6122733" lon="14.9850133"><ele>80.16666666666667</ele><time>2026-05-02T08:28:58.878Z</time></trkpt><trkpt lat="40.612335" lon="14.9851"><ele>80.0</ele><time>2026-05-02T08:28:59.879Z</time></trkpt><trkpt lat="40.6123817" lon="14.9851883"><ele>80.0</ele><time>2026-05-02T08:29:00.878Z</time></trkpt><trkpt lat="40.6124167" lon="14.9852617"><ele>80.0</ele><time>2026-05-02T08:29:01.878Z</time></trkpt><trkpt lat="40.6124567" lon="14.9853667"><ele>80.0</ele><time>2026-05-02T08:29:03.879Z</time></trkpt><trkpt lat="40.612495" lon="14.9854717"><ele>80.0</ele><time>2026-05-02T08:29:06.878Z</time></trkpt><trkpt lat="40.6125633" lon="14.9856017"><ele>80.0</ele><time>2026-05-02T08:29:08.878Z</time></trkpt><trkpt lat="40.6126133" lon="14.98568"><ele>80.0</ele><time>2026-05-02T08:29:09.878Z</time></trkpt><trkpt lat="40.6126533" lon="14.9857733"><ele>80.0</ele><time>2026-05-02T08:29:10.879Z</time></trkpt><trkpt lat="40.61271" lon="14.98585"><ele>80.0</ele><time>2026-05-02T08:29:11.878Z</time></trkpt><trkpt lat="40.6127667" lon="14.9859367"><ele>80.0</ele><time>2026-05-02T08:29:12.878Z</time></trkpt><trkpt lat="40.6128367" lon="14.9860283"><ele>80.0</ele><time>2026-05-02T08:29:13.878Z</time></trkpt><trkpt lat="40.6129067" lon="14.9861367"><ele>80.0</ele><time>2026-05-02T08:29:14.879Z</time></trkpt><trkpt lat="40.61298" lon="14.9862433"><ele>80.0</ele><time>2026-05-02T08:29:15.878Z</time></trkpt><trkpt lat="40.613055" lon="14.9863517"><ele>80.0</ele><time>2026-05-02T08:29:16.878Z</time></trkpt><trkpt lat="40.6131117" lon="14.9864683"><ele>80.0</ele><time>2026-05-02T08:29:17.878Z</time></trkpt><trkpt lat="40.6131933" lon="14.9865733"><ele>80.0</ele><time>2026-05-02T08:29:18.878Z</time></trkpt><trkpt lat="40.6132633" lon="14.986675"><ele>80.0</ele><time>2026-05-02T08:29:19.879Z</time></trkpt><trkpt lat="40.6133417" lon="14.98678"><ele>79.25</ele><time>2026-05-02T08:29:20.878Z</time></trkpt><trkpt lat="40.6134183" lon="14.9868867"><ele>78.5</ele><time>2026-05-02T08:29:21.878Z</time></trkpt><trkpt lat="40.613495" lon="14.986995"><ele>77.75</ele><time>2026-05-02T08:29:22.878Z</time></trkpt><trkpt lat="40.6135733" lon="14.987105"><ele>77.0</ele><time>2026-05-02T08:29:23.879Z</time></trkpt><trkpt lat="40.6136467" lon="14.9872267"><ele>77.0</ele><time>2026-05-02T08:29:24.878Z</time></trkpt><trkpt lat="40.613725" lon="14.9873333"><ele>77.0</ele><time>2026-05-02T08:29:25.878Z</time></trkpt><trkpt lat="40.6138033" lon="14.9874433"><ele>77.0</ele><time>2026-05-02T08:29:26.879Z</time></trkpt><trkpt lat="40.6138683" lon="14.9875533"><ele>77.0</ele><time>2026-05-02T08:29:27.879Z</time></trkpt><trkpt lat="40.613925" lon="14.9876483"><ele>77.0</ele><time>2026-05-02T08:29:28.878Z</time></trkpt><trkpt lat="40.613985" lon="14.98773"><ele>77.4</ele><time>2026-05-02T08:29:29.878Z</time></trkpt><trkpt lat="40.6140317" lon="14.98781"><ele>77.80000000000001</ele><time>2026-05-02T08:29:30.879Z</time></trkpt><trkpt lat="40.6140883" lon="14.987945"><ele>78.2</ele><time>2026-05-02T08:29:32.878Z</time></trkpt><trkpt lat="40.6141217" lon="14.9880333"><ele>78.60000000000001</ele><time>2026-05-02T08:29:34.879Z</time></trkpt><trkpt lat="40.614125" lon="14.9881467"><ele>79.0</ele><time>2026-05-02T08:29:37.879Z</time></trkpt><trkpt lat="40.6142033" lon="14.9882867"><ele>80.0</ele><time>2026-05-02T08:29:39.879Z</time></trkpt><trkpt lat="40.6142533" lon="14.9883667"><ele>81.0</ele><time>2026-05-02T08:29:40.878Z</time></trkpt><trkpt lat="40.6143133" lon="14.9884533"><ele>82.0</ele><time>2026-05-02T08:29:41.878Z</time></trkpt><trkpt lat="40.61438" lon="14.98855"><ele>83.0</ele><time>2026-05-02T08:29:42.879Z</time></trkpt><trkpt lat="40.6144483" lon="14.9886533"><ele>84.0</ele><time>2026-05-02T08:29:43.879Z</time></trkpt><trkpt lat="40.614515" lon="14.9887667"><ele>84.0</ele><time>2026-05-02T08:29:44.878Z</time></trkpt><trkpt lat="40.6145783" lon="14.988875"><ele>84.0</ele><time>2026-05-02T08:29:45.878Z</time></trkpt><trkpt lat="40.6146467" lon="14.9889783"><ele>84.0</ele><time>2026-05-02T08:29:46.878Z</time></trkpt><trkpt lat="40.614715" lon="14.9890867"><ele>84.0</ele><time>2026-05-02T08:29:47.878Z</time></trkpt><trkpt lat="40.614785" lon="14.9891883"><ele>84.0</ele><time>2026-05-02T08:29:48.878Z</time></trkpt><trkpt lat="40.6148533" lon="14.9893"><ele>84.6</ele><time>2026-05-02T08:29:49.877Z</time></trkpt><trkpt lat="40.6149233" lon="14.9894033"><ele>85.2</ele><time>2026-05-02T08:29:50.877Z</time></trkpt><trkpt lat="40.6150017" lon="14.989505"><ele>85.8</ele><time>2026-05-02T08:29:51.877Z</time></trkpt><trkpt lat="40.615075" lon="14.9896017"><ele>86.39999999999999</ele><time>2026-05-02T08:29:52.877Z</time></trkpt><trkpt lat="40.6151433" lon="14.9897033"><ele>87.0</ele><time>2026-05-02T08:29:53.878Z</time></trkpt><trkpt lat="40.6152133" lon="14.9898083"><ele>87.0</ele><time>2026-05-02T08:29:54.878Z</time></trkpt><trkpt lat="40.6152817" lon="14.989915"><ele>87.0</ele><time>2026-05-02T08:29:55.877Z</time></trkpt><trkpt lat="40.61535" lon="14.99002"><ele>87.0</ele><time>2026-05-02T08:29:56.877Z</time></trkpt><trkpt lat="40.6154167" lon="14.990115"><ele>87.0</ele><time>2026-05-02T08:29:57.878Z</time></trkpt><trkpt lat="40.6154783" lon="14.9902"><ele>87.0</ele><time>2026-05-02T08:29:58.877Z</time></trkpt><trkpt lat="40.6155483" lon="14.99027"><ele>91.5</ele><time>2026-05-02T08:29:59.877Z</time></trkpt><trkpt lat="40.6156317" lon="14.990325"><ele>96.0</ele><time>2026-05-02T08:30:00.878Z</time></trkpt><trkpt lat="40.615735" lon="14.9903767"><ele>100.5</ele><time>2026-05-02T08:30:01.878Z</time></trkpt><trkpt lat="40.6158483" lon="14.9904267"><ele>105.0</ele><time>2026-05-02T08:30:02.878Z</time></trkpt><trkpt lat="40.6159633" lon="14.9905017"><ele>105.0</ele><time>2026-05-02T08:30:03.878Z</time></trkpt><trkpt lat="40.616055" lon="14.9905933"><ele>105.0</ele><time>2026-05-02T08:30:04.877Z</time></trkpt><trkpt lat="40.6161367" lon="14.9906733"><ele>105.0</ele><time>2026-05-02T08:30:05.877Z</time></trkpt><trkpt lat="40.6162117" lon="14.9907233"><ele>105.0</ele><time>2026-05-02T08:30:06.877Z</time></trkpt><trkpt lat="40.6162817" lon="14.9907167"><ele>105.0</ele><time>2026-05-02T08:30:07.877Z</time></trkpt><trkpt lat="40.6163433" lon="14.9906633"><ele>105.0</ele><time>2026-05-02T08:30:08.877Z</time></trkpt><trkpt lat="40.6164033" lon="14.9905867"><ele>107.6</ele><time>2026-05-02T08:30:09.878Z</time></trkpt><trkpt lat="40.6164733" lon="14.9904983"><ele>110.2</ele><time>2026-05-02T08:30:10.878Z</time></trkpt><trkpt lat="40.6165483" lon="14.9904383"><ele>112.80000000000001</ele><time>2026-05-02T08:30:11.878Z</time></trkpt><trkpt lat="40.6166417" lon="14.9904133"><ele>115.4</ele><time>2026-05-02T08:30:12.878Z</time></trkpt><trkpt lat="40.6167417" lon="14.9904067"><ele>118.0</ele><time>2026-05-02T08:30:13.878Z</time></trkpt><trkpt lat="40.6168383" lon="14.99041"><ele>118.0</ele><time>2026-05-02T08:30:14.877Z</time></trkpt><trkpt lat="40.6169333" lon="14.9904267"><ele>118.00000000000001</ele><time>2026-05-02T08:30:15.878Z</time></trkpt><trkpt lat="40.617035" lon="14.99043"><ele>118.00000000000001</ele><time>2026-05-02T08:30:16.877Z</time></trkpt><trkpt lat="40.6171333" lon="14.99039"><ele>118.0</ele><time>2026-05-02T08:30:17.877Z</time></trkpt><trkpt lat="40.617235" lon="14.9903283"><ele>118.0</ele><time>2026-05-02T08:30:18.877Z</time></trkpt><trkpt lat="40.61733" lon="14.990275"><ele>120.83333333333334</ele><time>2026-05-02T08:30:19.877Z</time></trkpt><trkpt lat="40.6174217" lon="14.99023"><ele>123.66666666666667</ele><time>2026-05-02T08:30:20.878Z</time></trkpt><trkpt lat="40.6175067" lon="14.9901967"><ele>126.5</ele><time>2026-05-02T08:30:21.878Z</time></trkpt><trkpt lat="40.6175817" lon="14.99019"><ele>129.33333333333334</ele><time>2026-05-02T08:30:22.877Z</time></trkpt><trkpt lat="40.6176617" lon="14.990215"><ele>132.16666666666666</ele><time>2026-05-02T08:30:23.877Z</time></trkpt><trkpt lat="40.617715" lon="14.9902717"><ele>135.0</ele><time>2026-05-02T08:30:24.877Z</time></trkpt><trkpt lat="40.6177667" lon="14.9903383"><ele>135.0</ele><time>2026-05-02T08:30:25.877Z</time></trkpt><trkpt lat="40.617815" lon="14.9904167"><ele>135.0</ele><time>2026-05-02T08:30:26.877Z</time></trkpt><trkpt lat="40.6178517" lon="14.9904917"><ele>135.0</ele><time>2026-05-02T08:30:27.877Z</time></trkpt><trkpt lat="40.6178533" lon="14.99063"><ele>135.0</ele><time>2026-05-02T08:30:29.877Z</time></trkpt><trkpt lat="40.6178117" lon="14.9907567"><ele>135.0</ele><time>2026-05-02T08:30:31.877Z</time></trkpt><trkpt lat="40.6177617" lon="14.9909"><ele>137.5</ele><time>2026-05-02T08:30:33.878Z</time></trkpt><trkpt lat="40.6177417" lon="14.99106"><ele>140.0</ele><time>2026-05-02T08:30:35.878Z</time></trkpt><trkpt lat="40.6177333" lon="14.991145"><ele>142.5</ele><time>2026-05-02T08:30:36.878Z</time></trkpt><trkpt lat="40.6177233" lon="14.991235"><ele>145.0</ele><time>2026-05-02T08:30:37.877Z</time></trkpt><trkpt lat="40.6177183" lon="14.99133"><ele>147.5</ele><time>2026-05-02T08:30:38.878Z</time></trkpt><trkpt lat="40.617715" lon="14.9914183"><ele>150.0</ele><time>2026-05-02T08:30:39.878Z</time></trkpt><trkpt lat="40.617695" lon="14.9915483"><ele>150.0</ele><time>2026-05-02T08:30:41.878Z</time></trkpt><trkpt lat="40.6176383" lon="14.9916567"><ele>150.0</ele><time>2026-05-02T08:30:43.878Z</time></trkpt><trkpt lat="40.617535" lon="14.9917033"><ele>150.0</ele><time>2026-05-02T08:30:45.877Z</time></trkpt><trkpt lat="40.6174367" lon="14.9917867"><ele>150.0</ele><time>2026-05-02T08:30:47.877Z</time></trkpt><trkpt lat="40.6173633" lon="14.9919017"><ele>150.0</ele><time>2026-05-02T08:30:49.878Z</time></trkpt><trkpt lat="40.617305" lon="14.9919917"><ele>151.4</ele><time>2026-05-02T08:30:51.878Z</time></trkpt><trkpt lat="40.6172533" lon="14.992075"><ele>152.8</ele><time>2026-05-02T08:30:54.877Z</time></trkpt><trkpt lat="40.617195" lon="14.9921167"><ele>154.2</ele><time>2026-05-02T08:30:57.877Z</time></trkpt><trkpt lat="40.617115" lon="14.9921817"><ele>155.6</ele><time>2026-05-02T08:31:00.877Z</time></trkpt><trkpt lat="40.617025" lon="14.992255"><ele>157.0</ele><time>2026-05-02T08:31:02.878Z</time></trkpt><trkpt lat="40.6169217" lon="14.9923367"><ele>157.0</ele><time>2026-05-02T08:31:04.878Z</time></trkpt><trkpt lat="40.6168617" lon="14.9923783"><ele>157.0</ele><time>2026-05-02T08:31:05.877Z</time></trkpt><trkpt lat="40.6167967" lon="14.9924167"><ele>157.0</ele><time>2026-05-02T08:31:06.878Z</time></trkpt><trkpt lat="40.6167167" lon="14.9924433"><ele>157.0</ele><time>2026-05-02T08:31:07.877Z</time></trkpt><trkpt lat="40.6166383" lon="14.992465"><ele>157.0</ele><time>2026-05-02T08:31:08.878Z</time></trkpt><trkpt lat="40.6165633" lon="14.99249"><ele>157.0</ele><time>2026-05-02T08:31:09.877Z</time></trkpt><trkpt lat="40.6164867" lon="14.9925233"><ele>159.39999999999998</ele><time>2026-05-02T08:31:10.877Z</time></trkpt><trkpt lat="40.616405" lon="14.992555"><ele>161.79999999999998</ele><time>2026-05-02T08:31:11.877Z</time></trkpt><trkpt lat="40.6163283" lon="14.9925933"><ele>164.2</ele><time>2026-05-02T08:31:12.878Z</time></trkpt><trkpt lat="40.6162433" lon="14.99264"><ele>166.6</ele><time>2026-05-02T08:31:13.878Z</time></trkpt><trkpt lat="40.616155" lon="14.992695"><ele>169.0</ele><time>2026-05-02T08:31:14.877Z</time></trkpt><trkpt lat="40.6160583" lon="14.9927583"><ele>169.0</ele><time>2026-05-02T08:31:15.878Z</time></trkpt><trkpt lat="40.615965" lon="14.99283"><ele>169.0</ele><time>2026-05-02T08:31:16.878Z</time></trkpt><trkpt lat="40.615865" lon="14.9928967"><ele>169.0</ele><time>2026-05-02T08:31:17.877Z</time></trkpt><trkpt lat="40.6157767" lon="14.9929717"><ele>169.0</ele><time>2026-05-02T08:31:18.878Z</time></trkpt><trkpt lat="40.6156867" lon="14.9930383"><ele>169.0</ele><time>2026-05-02T08:31:19.877Z</time></trkpt><trkpt lat="40.615605" lon="14.9931083"><ele>169.0</ele><time>2026-05-02T08:31:20.877Z</time></trkpt><trkpt lat="40.6155333" lon="14.993185"><ele>169.0</ele><time>2026-05-02T08:31:21.877Z</time></trkpt><trkpt lat="40.6154717" lon="14.9932667"><ele>169.0</ele><time>2026-05-02T08:31:22.877Z</time></trkpt><trkpt lat="40.6154117" lon="14.993345"><ele>169.0</ele><time>2026-05-02T08:31:23.877Z</time></trkpt><trkpt lat="40.6153467" lon="14.99341"><ele>169.0</ele><time>2026-05-02T08:31:24.877Z</time></trkpt><trkpt lat="40.6152917" lon="14.993475"><ele>169.0</ele><time>2026-05-02T08:31:25.878Z</time></trkpt><trkpt lat="40.6152117" lon="14.99357"><ele>169.33333333333334</ele><time>2026-05-02T08:31:27.877Z</time></trkpt><trkpt lat="40.61517" lon="14.99365"><ele>169.66666666666669</ele><time>2026-05-02T08:31:29.877Z</time></trkpt><trkpt lat="40.6151217" lon="14.9937567"><ele>170.0</ele><time>2026-05-02T08:31:31.877Z</time></trkpt><trkpt lat="40.6150717" lon="14.9938833"><ele>170.33333333333334</ele><time>2026-05-02T08:31:33.877Z</time></trkpt><trkpt lat="40.6150233" lon="14.9939833"><ele>170.66666666666666</ele><time>2026-05-02T08:31:35.878Z</time></trkpt><trkpt lat="40.6149867" lon="14.9940633"><ele>171.0</ele><time>2026-05-02T08:31:38.878Z</time></trkpt><trkpt lat="40.6149367" lon="14.9941633"><ele>172.16666666666666</ele><time>2026-05-02T08:31:41.877Z</time></trkpt><trkpt lat="40.6149017" lon="14.9942367"><ele>173.33333333333334</ele><time>2026-05-02T08:31:42.878Z</time></trkpt><trkpt lat="40.6148733" lon="14.9943267"><ele>174.5</ele><time>2026-05-02T08:31:43.877Z</time></trkpt><trkpt lat="40.6148417" lon="14.99442"><ele>175.66666666666669</ele><time>2026-05-02T08:31:44.877Z</time></trkpt><trkpt lat="40.6148083" lon="14.9945217"><ele>176.83333333333334</ele><time>2026-05-02T08:31:45.877Z</time></trkpt><trkpt lat="40.614775" lon="14.99462"><ele>178.0</ele><time>2026-05-02T08:31:46.877Z</time></trkpt><trkpt lat="40.6147467" lon="14.9947067"><ele>178.0</ele><time>2026-05-02T08:31:47.878Z</time></trkpt><trkpt lat="40.6147083" lon="14.9948283"><ele>178.0</ele><time>2026-05-02T08:31:49.878Z</time></trkpt><trkpt lat="40.6146767" lon="14.99491"><ele>178.0</ele><time>2026-05-02T08:31:53.878Z</time></trkpt><trkpt lat="40.6146517" lon="14.9950017"><ele>178.0</ele><time>2026-05-02T08:31:55.878Z</time></trkpt><trkpt lat="40.6146117" lon="14.9951233"><ele>178.0</ele><time>2026-05-02T08:31:57.878Z</time></trkpt><trkpt lat="40.6145733" lon="14.99528"><ele>178.83333333333334</ele><time>2026-05-02T08:31:59.877Z</time></trkpt><trkpt lat="40.61455" lon="14.995365"><ele>179.66666666666669</ele><time>2026-05-02T08:32:00.877Z</time></trkpt><trkpt lat="40.6145317" lon="14.9954533"><ele>180.5</ele><time>2026-05-02T08:32:01.877Z</time></trkpt><trkpt lat="40.6145183" lon="14.9955433"><ele>181.33333333333334</ele><time>2026-05-02T08:32:02.877Z</time></trkpt><trkpt lat="40.614505" lon="14.9956317"><ele>182.16666666666666</ele><time>2026-05-02T08:32:03.877Z</time></trkpt><trkpt lat="40.6144983" lon="14.995715"><ele>183.0</ele><time>2026-05-02T08:32:04.878Z</time></trkpt><trkpt lat="40.6144917" lon="14.9958683"><ele>179.60000000000002</ele><time>2026-05-02T08:32:06.877Z</time></trkpt><trkpt lat="40.6144583" lon="14.9960117"><ele>176.20000000000002</ele><time>2026-05-02T08:32:08.878Z</time></trkpt><trkpt lat="40.6144117" lon="14.9961533"><ele>172.8</ele><time>2026-05-02T08:32:10.878Z</time></trkpt><trkpt lat="40.6143567" lon="14.9962967"><ele>169.4</ele><time>2026-05-02T08:32:12.877Z</time></trkpt><trkpt lat="40.614325" lon="14.9963733"><ele>166.0</ele><time>2026-05-02T08:32:13.877Z</time></trkpt><trkpt lat="40.6142917" lon="14.9964633"><ele>166.0</ele><time>2026-05-02T08:32:14.877Z</time></trkpt><trkpt lat="40.6142533" lon="14.9965533"><ele>166.0</ele><time>2026-05-02T08:32:15.878Z</time></trkpt><trkpt lat="40.614215" lon="14.9966383"><ele>166.0</ele><time>2026-05-02T08:32:16.878Z</time></trkpt><trkpt lat="40.6141867" lon="14.9967167"><ele>166.0</ele><time>2026-05-02T08:32:17.877Z</time></trkpt><trkpt lat="40.61415" lon="14.996815"><ele>166.0</ele><time>2026-05-02T08:32:19.877Z</time></trkpt><trkpt lat="40.6141117" lon="14.9968933"><ele>166.0</ele><time>2026-05-02T08:32:27.878Z</time></trkpt><trkpt lat="40.6140683" lon="14.9970083"><ele>167.4</ele><time>2026-05-02T08:32:30.877Z</time></trkpt><trkpt lat="40.6140117" lon="14.9971333"><ele>168.8</ele><time>2026-05-02T08:33:30.877Z</time></trkpt><trkpt lat="40.6139717" lon="14.9972517"><ele>170.20000000000002</ele><time>2026-05-02T08:33:32.878Z</time></trkpt><trkpt lat="40.6139333" lon="14.997365"><ele>171.60000000000002</ele><time>2026-05-02T08:33:34.877Z</time></trkpt><trkpt lat="40.6139267" lon="14.9974633"><ele>173.0</ele><time>2026-05-02T08:38:21.876Z</time></trkpt><trkpt lat="40.613925" lon="14.9975833"><ele>174.33333333333331</ele><time>2026-05-02T08:38:23.877Z</time></trkpt><trkpt lat="40.6139183" lon="14.99769"><ele>175.66666666666666</ele><time>2026-05-02T08:38:25.877Z</time></trkpt><trkpt lat="40.6139033" lon="14.997785"><ele>177.0</ele><time>2026-05-02T08:38:28.876Z</time></trkpt><trkpt lat="40.6138583" lon="14.9978967"><ele>178.33333333333334</ele><time>2026-05-02T08:38:30.876Z</time></trkpt><trkpt lat="40.6138083" lon="14.9980467"><ele>179.66666666666669</ele><time>2026-05-02T08:38:32.876Z</time></trkpt><trkpt lat="40.6137783" lon="14.9981317"><ele>181.0</ele><time>2026-05-02T08:38:33.877Z</time></trkpt><trkpt lat="40.61375" lon="14.9982167"><ele>181.0</ele><time>2026-05-02T08:38:34.877Z</time></trkpt><trkpt lat="40.613725" lon="14.9983033"><ele>181.0</ele><time>2026-05-02T08:38:35.876Z</time></trkpt><trkpt lat="40.6137" lon="14.99839"><ele>181.0</ele><time>2026-05-02T08:38:36.877Z</time></trkpt><trkpt lat="40.6136767" lon="14.9984733"><ele>181.0</ele><time>2026-05-02T08:38:37.877Z</time></trkpt><trkpt lat="40.6136483" lon="14.9985533"><ele>181.0</ele><time>2026-05-02T08:38:38.876Z</time></trkpt><trkpt lat="40.6136233" lon="14.9986333"><ele>181.0</ele><time>2026-05-02T08:38:39.876Z</time></trkpt><trkpt lat="40.6136" lon="14.998715"><ele>181.0</ele><time>2026-05-02T08:38:40.877Z</time></trkpt><trkpt lat="40.6135767" lon="14.998795"><ele>178.0</ele><time>2026-05-02T08:38:41.876Z</time></trkpt><trkpt lat="40.6135317" lon="14.9989517"><ele>175.0</ele><time>2026-05-02T08:38:43.877Z</time></trkpt><trkpt lat="40.6135083" lon="14.99911"><ele>172.0</ele><time>2026-05-02T08:38:45.876Z</time></trkpt><trkpt lat="40.6134867" lon="14.999275"><ele>169.0</ele><time>2026-05-02T08:38:47.877Z</time></trkpt><trkpt lat="40.61347" lon="14.999425"><ele>169.0</ele><time>2026-05-02T08:38:49.876Z</time></trkpt><trkpt lat="40.613435" lon="14.9995783"><ele>169.0</ele><time>2026-05-02T08:38:51.876Z</time></trkpt><trkpt lat="40.6134117" lon="14.99966"><ele>169.0</ele><time>2026-05-02T08:38:52.877Z</time></trkpt><trkpt lat="40.613375" lon="14.9997983"><ele>169.0</ele><time>2026-05-02T08:38:54.877Z</time></trkpt><trkpt lat="40.613365" lon="14.9999083"><ele>169.0</ele><time>2026-05-02T08:38:56.876Z</time></trkpt><trkpt lat="40.6133733" lon="15.0000317"><ele>169.0</ele><time>2026-05-02T08:38:58.877Z</time></trkpt><trkpt lat="40.6133767" lon="15.000155"><ele>169.0</ele><time>2026-05-02T08:39:00.877Z</time></trkpt><trkpt lat="40.61337" lon="15.0002983"><ele>169.0</ele><time>2026-05-02T08:39:02.876Z</time></trkpt><trkpt lat="40.6133483" lon="15.0004483"><ele>169.0</ele><time>2026-05-02T08:39:04.877Z</time></trkpt><trkpt lat="40.6133183" lon="15.0005933"><ele>169.0</ele><time>2026-05-02T08:39:06.877Z</time></trkpt><trkpt lat="40.6132833" lon="15.0007417"><ele>169.75</ele><time>2026-05-02T08:39:08.876Z</time></trkpt><trkpt lat="40.6132467" lon="15.000895"><ele>170.5</ele><time>2026-05-02T08:39:10.877Z</time></trkpt><trkpt lat="40.61321" lon="15.0010483"><ele>171.25</ele><time>2026-05-02T08:39:12.877Z</time></trkpt><trkpt lat="40.6131717" lon="15.0011967"><ele>172.0</ele><time>2026-05-02T08:39:14.877Z</time></trkpt><trkpt lat="40.6131367" lon="15.0013283"><ele>172.0</ele><time>2026-05-02T08:39:16.877Z</time></trkpt><trkpt lat="40.613125" lon="15.0014283"><ele>172.0</ele><time>2026-05-02T08:40:31.877Z</time></trkpt><trkpt lat="40.6130983" lon="15.0015667"><ele>172.0</ele><time>2026-05-02T08:40:33.876Z</time></trkpt><trkpt lat="40.613085" lon="15.0016933"><ele>172.0</ele><time>2026-05-02T08:40:35.877Z</time></trkpt><trkpt lat="40.6130667" lon="15.0018183"><ele>172.0</ele><time>2026-05-02T08:40:37.877Z</time></trkpt><trkpt lat="40.613045" lon="15.0019717"><ele>172.6</ele><time>2026-05-02T08:40:39.876Z</time></trkpt><trkpt lat="40.6130267" lon="15.0021367"><ele>173.2</ele><time>2026-05-02T08:40:41.877Z</time></trkpt><trkpt lat="40.6130033" lon="15.0022767"><ele>173.8</ele><time>2026-05-02T08:40:43.876Z</time></trkpt><trkpt lat="40.612975" lon="15.0023767"><ele>174.4</ele><time>2026-05-02T08:40:45.877Z</time></trkpt><trkpt lat="40.6129383" lon="15.0024933"><ele>175.0</ele><time>2026-05-02T08:40:48.877Z</time></trkpt><trkpt lat="40.6129233" lon="15.0025833"><ele>175.6</ele><time>2026-05-02T08:40:51.877Z</time></trkpt><trkpt lat="40.6128883" lon="15.00277"><ele>176.2</ele><time>2026-05-02T08:41:03.875Z</time></trkpt><trkpt lat="40.61287" lon="15.00286"><ele>176.8</ele><time>2026-05-02T08:41:07.876Z</time></trkpt><trkpt lat="40.6128533" lon="15.0029533"><ele>177.4</ele><time>2026-05-02T08:41:10.875Z</time></trkpt><trkpt lat="40.61283" lon="15.0030633"><ele>178.0</ele><time>2026-05-02T08:41:13.876Z</time></trkpt><trkpt lat="40.6128133" lon="15.003185"><ele>174.33333333333334</ele><time>2026-05-02T08:41:16.875Z</time></trkpt><trkpt lat="40.6128133" lon="15.0032917"><ele>170.66666666666669</ele><time>2026-05-02T08:41:18.876Z</time></trkpt><trkpt lat="40.6128017" lon="15.003395"><ele>167.0</ele><time>2026-05-02T08:41:20.875Z</time></trkpt><trkpt lat="40.6127883" lon="15.0035067"><ele>163.33333333333334</ele><time>2026-05-02T08:41:22.876Z</time></trkpt><trkpt lat="40.612785" lon="15.003625"><ele>159.66666666666666</ele><time>2026-05-02T08:41:24.876Z</time></trkpt><trkpt lat="40.6127867" lon="15.0037617"><ele>156.0</ele><time>2026-05-02T08:41:26.875Z</time></trkpt><trkpt lat="40.6127817" lon="15.0039117"><ele>156.0</ele><time>2026-05-02T08:41:28.875Z</time></trkpt><trkpt lat="40.61277" lon="15.004055"><ele>156.0</ele><time>2026-05-02T08:41:30.876Z</time></trkpt><trkpt lat="40.612755" lon="15.00417"><ele>156.0</ele><time>2026-05-02T08:41:32.875Z</time></trkpt><trkpt lat="40.6127283" lon="15.0043117"><ele>156.0</ele><time>2026-05-02T08:41:34.875Z</time></trkpt><trkpt lat="40.6127017" lon="15.0044617"><ele>156.0</ele><time>2026-05-02T08:41:36.876Z</time></trkpt><trkpt lat="40.61268" lon="15.00459"><ele>156.33333333333334</ele><time>2026-05-02T08:41:38.876Z</time></trkpt><trkpt lat="40.612675" lon="15.0047117"><ele>156.66666666666666</ele><time>2026-05-02T08:41:40.875Z</time></trkpt><trkpt lat="40.61268" lon="15.0048283"><ele>157.0</ele><time>2026-05-02T08:41:42.875Z</time></trkpt><trkpt lat="40.6126983" lon="15.0049183"><ele>157.33333333333331</ele><time>2026-05-02T08:41:44.876Z</time></trkpt><trkpt lat="40.6126933" lon="15.0050233"><ele>157.66666666666666</ele><time>2026-05-02T08:41:47.875Z</time></trkpt><trkpt lat="40.6126983" lon="15.0051433"><ele>158.0</ele><time>2026-05-02T08:41:58.875Z</time></trkpt><trkpt lat="40.6126767" lon="15.0052783"><ele>158.0</ele><time>2026-05-02T08:42:00.875Z</time></trkpt><trkpt lat="40.6126667" lon="15.0053667"><ele>158.0</ele><time>2026-05-02T08:42:01.875Z</time></trkpt><trkpt lat="40.6126567" lon="15.0054633"><ele>158.0</ele><time>2026-05-02T08:42:02.876Z</time></trkpt><trkpt lat="40.6126433" lon="15.00556"><ele>158.0</ele><time>2026-05-02T08:42:03.875Z</time></trkpt><trkpt lat="40.6126317" lon="15.00566"><ele>158.0</ele><time>2026-05-02T08:42:04.875Z</time></trkpt><trkpt lat="40.6126167" lon="15.0057633"><ele>158.0</ele><time>2026-05-02T08:42:05.875Z</time></trkpt><trkpt lat="40.6126" lon="15.005865"><ele>157.71428571428572</ele><time>2026-05-02T08:42:06.875Z</time></trkpt><trkpt lat="40.612585" lon="15.0059617"><ele>157.42857142857144</ele><time>2026-05-02T08:42:07.875Z</time></trkpt><trkpt lat="40.61257" lon="15.006055"><ele>157.14285714285717</ele><time>2026-05-02T08:42:08.875Z</time></trkpt><trkpt lat="40.6125483" lon="15.0061533"><ele>156.85714285714286</ele><time>2026-05-02T08:42:09.876Z</time></trkpt><trkpt lat="40.612525" lon="15.0062467"><ele>156.57142857142856</ele><time>2026-05-02T08:42:10.876Z</time></trkpt><trkpt lat="40.6125067" lon="15.0063367"><ele>156.2857142857143</ele><time>2026-05-02T08:42:11.876Z</time></trkpt><trkpt lat="40.6124933" lon="15.0064217"><ele>156.0</ele><time>2026-05-02T08:42:12.876Z</time></trkpt><trkpt lat="40.6124783" lon="15.0065117"><ele>156.0</ele><time>2026-05-02T08:42:13.875Z</time></trkpt><trkpt lat="40.6124533" lon="15.0065967"><ele>156.0</ele><time>2026-05-02T08:42:14.876Z</time></trkpt><trkpt lat="40.6124283" lon="15.0066783"><ele>156.0</ele><time>2026-05-02T08:42:15.875Z</time></trkpt><trkpt lat="40.6124033" lon="15.00676"><ele>156.0</ele><time>2026-05-02T08:42:16.875Z</time></trkpt><trkpt lat="40.6123833" lon="15.0068417"><ele>156.0</ele><time>2026-05-02T08:42:17.876Z</time></trkpt><trkpt lat="40.6123667" lon="15.00694"><ele>156.0</ele><time>2026-05-02T08:42:18.876Z</time></trkpt><trkpt lat="40.612355" lon="15.007045"><ele>156.0</ele><time>2026-05-02T08:42:19.876Z</time></trkpt><trkpt lat="40.6123333" lon="15.0071517"><ele>156.2</ele><time>2026-05-02T08:42:20.876Z</time></trkpt><trkpt lat="40.6123017" lon="15.0072717"><ele>156.39999999999998</ele><time>2026-05-02T08:42:21.876Z</time></trkpt><trkpt lat="40.6122633" lon="15.0073967"><ele>156.6</ele><time>2026-05-02T08:42:22.876Z</time></trkpt><trkpt lat="40.61223" lon="15.0075283"><ele>156.79999999999998</ele><time>2026-05-02T08:42:23.876Z</time></trkpt><trkpt lat="40.612195" lon="15.00766"><ele>157.0</ele><time>2026-05-02T08:42:24.875Z</time></trkpt><trkpt lat="40.612155" lon="15.0077883"><ele>157.2</ele><time>2026-05-02T08:42:25.875Z</time></trkpt><trkpt lat="40.61212" lon="15.00791"><ele>157.39999999999998</ele><time>2026-05-02T08:42:26.875Z</time></trkpt><trkpt lat="40.612085" lon="15.0080417"><ele>157.60000000000002</ele><time>2026-05-02T08:42:27.876Z</time></trkpt><trkpt lat="40.6120533" lon="15.0081633"><ele>157.8</ele><time>2026-05-02T08:42:28.875Z</time></trkpt><trkpt lat="40.612025" lon="15.008295"><ele>158.0</ele><time>2026-05-02T08:42:29.876Z</time></trkpt><trkpt lat="40.6119967" lon="15.0084133"><ele>154.8</ele><time>2026-05-02T08:42:30.876Z</time></trkpt><trkpt lat="40.6119683" lon="15.0085317"><ele>151.60000000000002</ele><time>2026-05-02T08:42:31.875Z</time></trkpt><trkpt lat="40.611935" lon="15.0086533"><ele>148.39999999999998</ele><time>2026-05-02T08:42:32.876Z</time></trkpt><trkpt lat="40.6119067" lon="15.0087733"><ele>145.2</ele><time>2026-05-02T08:42:33.876Z</time></trkpt><trkpt lat="40.6118817" lon="15.0088917"><ele>142.0</ele><time>2026-05-02T08:42:34.876Z</time></trkpt><trkpt lat="40.6118567" lon="15.0090017"><ele>142.0</ele><time>2026-05-02T08:42:35.875Z</time></trkpt><trkpt lat="40.6118317" lon="15.0091017"><ele>142.0</ele><time>2026-05-02T08:42:36.876Z</time></trkpt><trkpt lat="40.6118067" lon="15.0091967"><ele>142.0</ele><time>2026-05-02T08:42:37.876Z</time></trkpt><trkpt lat="40.6117833" lon="15.0092883"><ele>142.0</ele><time>2026-05-02T08:42:38.875Z</time></trkpt><trkpt lat="40.6117567" lon="15.00938"><ele>142.0</ele><time>2026-05-02T08:42:39.875Z</time></trkpt><trkpt lat="40.611735" lon="15.0094733"><ele>142.0</ele><time>2026-05-02T08:42:40.876Z</time></trkpt><trkpt lat="40.6117117" lon="15.0095683"><ele>141.79999999999998</ele><time>2026-05-02T08:42:41.876Z</time></trkpt><trkpt lat="40.611685" lon="15.0096633"><ele>141.6</ele><time>2026-05-02T08:42:42.876Z</time></trkpt><trkpt lat="40.6116617" lon="15.009745"><ele>141.39999999999998</ele><time>2026-05-02T08:42:43.876Z</time></trkpt><trkpt lat="40.61161" lon="15.009895"><ele>141.2</ele><time>2026-05-02T08:42:45.876Z</time></trkpt><trkpt lat="40.6115733" lon="15.0100383"><ele>141.0</ele><time>2026-05-02T08:42:47.876Z</time></trkpt><trkpt lat="40.6115517" lon="15.01019"><ele>141.6</ele><time>2026-05-02T08:42:49.875Z</time></trkpt><trkpt lat="40.6115333" lon="15.0103467"><ele>142.2</ele><time>2026-05-02T08:42:51.875Z</time></trkpt><trkpt lat="40.61153" lon="15.0104433"><ele>142.8</ele><time>2026-05-02T08:42:52.876Z</time></trkpt><trkpt lat="40.61153" lon="15.0105533"><ele>143.4</ele><time>2026-05-02T08:42:53.876Z</time></trkpt><trkpt lat="40.6115267" lon="15.0106667"><ele>144.0</ele><time>2026-05-02T08:42:54.876Z</time></trkpt><trkpt lat="40.61152" lon="15.0107817"><ele>144.16666666666666</ele><time>2026-05-02T08:42:55.876Z</time></trkpt><trkpt lat="40.611515" lon="15.0108983"><ele>144.33333333333334</ele><time>2026-05-02T08:42:56.875Z</time></trkpt><trkpt lat="40.6115017" lon="15.0110067"><ele>144.5</ele><time>2026-05-02T08:42:57.875Z</time></trkpt><trkpt lat="40.61149" lon="15.0111133"><ele>144.66666666666669</ele><time>2026-05-02T08:42:58.876Z</time></trkpt><trkpt lat="40.6114783" lon="15.01121"><ele>144.83333333333334</ele><time>2026-05-02T08:42:59.875Z</time></trkpt><trkpt lat="40.611465" lon="15.0113083"><ele>145.0</ele><time>2026-05-02T08:43:00.876Z</time></trkpt><trkpt lat="40.6114583" lon="15.0114067"><ele>145.0</ele><time>2026-05-02T08:43:01.875Z</time></trkpt><trkpt lat="40.6114517" lon="15.0114967"><ele>145.0</ele><time>2026-05-02T08:43:02.875Z</time></trkpt><trkpt lat="40.611445" lon="15.0115833"><ele>145.0</ele><time>2026-05-02T08:43:03.876Z</time></trkpt><trkpt lat="40.6114367" lon="15.0116667"><ele>145.0</ele><time>2026-05-02T08:43:04.876Z</time></trkpt><trkpt lat="40.61143" lon="15.0117583"><ele>145.0</ele><time>2026-05-02T08:43:05.875Z</time></trkpt><trkpt lat="40.6114233" lon="15.011845"><ele>145.0</ele><time>2026-05-02T08:43:06.875Z</time></trkpt><trkpt lat="40.6114117" lon="15.0119333"><ele>145.0</ele><time>2026-05-02T08:43:07.875Z</time></trkpt><trkpt lat="40.6113983" lon="15.0120233"><ele>144.85714285714286</ele><time>2026-05-02T08:43:08.875Z</time></trkpt><trkpt lat="40.6113883" lon="15.0121167"><ele>144.71428571428572</ele><time>2026-05-02T08:43:09.876Z</time></trkpt><trkpt lat="40.6113767" lon="15.012215"><ele>144.57142857142858</ele><time>2026-05-02T08:43:10.876Z</time></trkpt><trkpt lat="40.611365" lon="15.0123117"><ele>144.42857142857144</ele><time>2026-05-02T08:43:11.876Z</time></trkpt><trkpt lat="40.6113483" lon="15.0124017"><ele>144.28571428571428</ele><time>2026-05-02T08:43:12.875Z</time></trkpt><trkpt lat="40.6113317" lon="15.0125017"><ele>144.14285714285717</ele><time>2026-05-02T08:43:13.876Z</time></trkpt><trkpt lat="40.611315" lon="15.0126"><ele>144.0</ele><time>2026-05-02T08:43:14.876Z</time></trkpt><trkpt lat="40.6112933" lon="15.0127033"><ele>143.4</ele><time>2026-05-02T08:43:15.876Z</time></trkpt><trkpt lat="40.6112717" lon="15.0128233"><ele>142.8</ele><time>2026-05-02T08:43:16.876Z</time></trkpt><trkpt lat="40.611245" lon="15.0129533"><ele>142.2</ele><time>2026-05-02T08:43:17.875Z</time></trkpt><trkpt lat="40.6112117" lon="15.0131033"><ele>141.6</ele><time>2026-05-02T08:43:18.876Z</time></trkpt><trkpt lat="40.6111783" lon="15.01325"><ele>141.0</ele><time>2026-05-02T08:43:19.876Z</time></trkpt><trkpt lat="40.6111533" lon="15.0133967"><ele>141.0</ele><time>2026-05-02T08:43:20.876Z</time></trkpt><trkpt lat="40.61112" lon="15.0135433"><ele>141.0</ele><time>2026-05-02T08:43:21.875Z</time></trkpt><trkpt lat="40.6110883" lon="15.0136917"><ele>141.0</ele><time>2026-05-02T08:43:22.876Z</time></trkpt><trkpt lat="40.6110533" lon="15.01383"><ele>141.0</ele><time>2026-05-02T08:43:23.875Z</time></trkpt><trkpt lat="40.6110233" lon="15.0139633"><ele>141.0</ele><time>2026-05-02T08:43:24.875Z</time></trkpt><trkpt lat="40.6109933" lon="15.014085"><ele>141.0</ele><time>2026-05-02T08:43:25.875Z</time></trkpt><trkpt lat="40.61096" lon="15.014195"><ele>141.0</ele><time>2026-05-02T08:43:26.875Z</time></trkpt><trkpt lat="40.6109233" lon="15.014305"><ele>141.0</ele><time>2026-05-02T08:43:27.875Z</time></trkpt><trkpt lat="40.6108933" lon="15.0144083"><ele>141.0</ele><time>2026-05-02T08:43:28.875Z</time></trkpt><trkpt lat="40.61086" lon="15.0145167"><ele>141.0</ele><time>2026-05-02T08:43:29.875Z</time></trkpt><trkpt lat="40.6108267" lon="15.0146167"><ele>141.0</ele><time>2026-05-02T08:43:30.875Z</time></trkpt><trkpt lat="40.6107967" lon="15.0147067"><ele>141.0</ele><time>2026-05-02T08:43:31.875Z</time></trkpt><trkpt lat="40.6107683" lon="15.0147917"><ele>141.0</ele><time>2026-05-02T08:43:32.875Z</time></trkpt><trkpt lat="40.61074" lon="15.01488"><ele>141.0</ele><time>2026-05-02T08:43:33.876Z</time></trkpt><trkpt lat="40.6107133" lon="15.0149683"><ele>141.0</ele><time>2026-05-02T08:43:34.875Z</time></trkpt><trkpt lat="40.6106867" lon="15.015065"><ele>141.0</ele><time>2026-05-02T08:43:35.875Z</time></trkpt><trkpt lat="40.610655" lon="15.0151667"><ele>141.0</ele><time>2026-05-02T08:43:36.876Z</time></trkpt><trkpt lat="40.610625" lon="15.01527"><ele>141.0</ele><time>2026-05-02T08:43:37.875Z</time></trkpt><trkpt lat="40.610595" lon="15.0153783"><ele>141.0</ele><time>2026-05-02T08:43:38.876Z</time></trkpt><trkpt lat="40.6105683" lon="15.0154817"><ele>141.0</ele><time>2026-05-02T08:43:39.875Z</time></trkpt><trkpt lat="40.61055" lon="15.0155717"><ele>141.0</ele><time>2026-05-02T08:43:40.876Z</time></trkpt><trkpt lat="40.6105317" lon="15.01566"><ele>141.0</ele><time>2026-05-02T08:43:41.876Z</time></trkpt><trkpt lat="40.6105067" lon="15.0157517"><ele>141.0</ele><time>2026-05-02T08:43:42.875Z</time></trkpt><trkpt lat="40.6104833" lon="15.0158383"><ele>141.16666666666666</ele><time>2026-05-02T08:43:43.876Z</time></trkpt><trkpt lat="40.61046" lon="15.015925"><ele>141.33333333333334</ele><time>2026-05-02T08:43:44.876Z</time></trkpt><trkpt lat="40.6104417" lon="15.0160083"><ele>141.5</ele><time>2026-05-02T08:43:45.876Z</time></trkpt><trkpt lat="40.61041" lon="15.016135"><ele>141.66666666666669</ele><time>2026-05-02T08:43:47.876Z</time></trkpt><trkpt lat="40.6103733" lon="15.0162517"><ele>141.83333333333334</ele><time>2026-05-02T08:43:49.875Z</time></trkpt><trkpt lat="40.6103383" lon="15.0163733"><ele>142.0</ele><time>2026-05-02T08:43:51.876Z</time></trkpt><trkpt lat="40.6103067" lon="15.0164833"><ele>142.0</ele><time>2026-05-02T08:43:53.875Z</time></trkpt><trkpt lat="40.61028" lon="15.01659"><ele>142.0</ele><time>2026-05-02T08:43:55.876Z</time></trkpt><trkpt lat="40.61025" lon="15.0166967"><ele>142.0</ele><time>2026-05-02T08:43:57.875Z</time></trkpt><trkpt lat="40.6102367" lon="15.01681"><ele>142.0</ele><time>2026-05-02T08:43:59.876Z</time></trkpt><trkpt lat="40.6102233" lon="15.0169517"><ele>142.0</ele><time>2026-05-02T08:44:01.875Z</time></trkpt><trkpt lat="40.6102033" lon="15.0171183"><ele>142.85714285714286</ele><time>2026-05-02T08:44:03.876Z</time></trkpt><trkpt lat="40.6101917" lon="15.0172017"><ele>143.7142857142857</ele><time>2026-05-02T08:44:04.876Z</time></trkpt><trkpt lat="40.610185" lon="15.01729"><ele>144.57142857142856</ele><time>2026-05-02T08:44:05.875Z</time></trkpt><trkpt lat="40.6101717" lon="15.0173783"><ele>145.42857142857142</ele><time>2026-05-02T08:44:06.876Z</time></trkpt><trkpt lat="40.610175" lon="15.0174717"><ele>146.28571428571428</ele><time>2026-05-02T08:44:07.875Z</time></trkpt><trkpt lat="40.6101767" lon="15.0175667"><ele>147.14285714285714</ele><time>2026-05-02T08:44:08.876Z</time></trkpt><trkpt lat="40.6101767" lon="15.017665"><ele>148.0</ele><time>2026-05-02T08:44:09.876Z</time></trkpt><trkpt lat="40.6101733" lon="15.0177583"><ele>148.0</ele><time>2026-05-02T08:44:10.876Z</time></trkpt><trkpt lat="40.6101667" lon="15.0178517"><ele>148.0</ele><time>2026-05-02T08:44:11.875Z</time></trkpt><trkpt lat="40.61016" lon="15.01794"><ele>148.0</ele><time>2026-05-02T08:44:12.876Z</time></trkpt><trkpt lat="40.61015" lon="15.0180867"><ele>148.0</ele><time>2026-05-02T08:44:14.876Z</time></trkpt><trkpt lat="40.610135" lon="15.0182383"><ele>148.0</ele><time>2026-05-02T08:44:16.876Z</time></trkpt><trkpt lat="40.61012" lon="15.0183917"><ele>148.0</ele><time>2026-05-02T08:44:18.875Z</time></trkpt><trkpt lat="40.6101117" lon="15.0184783"><ele>148.0</ele><time>2026-05-02T08:44:19.875Z</time></trkpt><trkpt lat="40.6101017" lon="15.0185733"><ele>148.0</ele><time>2026-05-02T08:44:20.876Z</time></trkpt><trkpt lat="40.6100967" lon="15.0186717"><ele>148.0</ele><time>2026-05-02T08:44:21.875Z</time></trkpt><trkpt lat="40.6100883" lon="15.0187817"><ele>148.0</ele><time>2026-05-02T08:44:22.876Z</time></trkpt><trkpt lat="40.6100833" lon="15.0188967"><ele>148.0</ele><time>2026-05-02T08:44:23.875Z</time></trkpt><trkpt lat="40.6100783" lon="15.0190133"><ele>148.0</ele><time>2026-05-02T08:44:24.875Z</time></trkpt><trkpt lat="40.61007" lon="15.0191333"><ele>148.0</ele><time>2026-05-02T08:44:25.875Z</time></trkpt><trkpt lat="40.6100583" lon="15.0192467"><ele>148.0</ele><time>2026-05-02T08:44:26.875Z</time></trkpt><trkpt lat="40.6100533" lon="15.0193533"><ele>148.0</ele><time>2026-05-02T08:44:27.876Z</time></trkpt><trkpt lat="40.6100433" lon="15.0194933"><ele>148.0</ele><time>2026-05-02T08:44:29.876Z</time></trkpt><trkpt lat="40.6100417" lon="15.01958"><ele>148.0</ele><time>2026-05-02T08:44:31.876Z</time></trkpt><trkpt lat="40.61003" lon="15.0196717"><ele>148.5</ele><time>2026-05-02T08:44:33.875Z</time></trkpt><trkpt lat="40.6100183" lon="15.019795"><ele>149.0</ele><time>2026-05-02T08:44:35.876Z</time></trkpt><trkpt lat="40.610005" lon="15.019885"><ele>149.5</ele><time>2026-05-02T08:44:37.876Z</time></trkpt><trkpt lat="40.6099967" lon="15.0199817"><ele>150.0</ele><time>2026-05-02T08:44:39.876Z</time></trkpt><trkpt lat="40.609985" lon="15.0201117"><ele>150.5</ele><time>2026-05-02T08:44:41.875Z</time></trkpt><trkpt lat="40.6099783" lon="15.0201967"><ele>151.0</ele><time>2026-05-02T08:44:42.875Z</time></trkpt><trkpt lat="40.609975" lon="15.0202967"><ele>151.4</ele><time>2026-05-02T08:44:43.876Z</time></trkpt><trkpt lat="40.609965" lon="15.0204133"><ele>151.8</ele><time>2026-05-02T08:44:44.876Z</time></trkpt><trkpt lat="40.6099567" lon="15.0205383"><ele>152.20000000000002</ele><time>2026-05-02T08:44:45.876Z</time></trkpt><trkpt lat="40.6099467" lon="15.0206633"><ele>152.6</ele><time>2026-05-02T08:44:46.876Z</time></trkpt><trkpt lat="40.6099417" lon="15.0207917"><ele>153.0</ele><time>2026-05-02T08:44:47.875Z</time></trkpt><trkpt lat="40.6099317" lon="15.0209217"><ele>153.4</ele><time>2026-05-02T08:44:48.876Z</time></trkpt><trkpt lat="40.6099233" lon="15.02105"><ele>153.8</ele><time>2026-05-02T08:44:49.875Z</time></trkpt><trkpt lat="40.6099167" lon="15.0211767"><ele>154.2</ele><time>2026-05-02T08:44:50.876Z</time></trkpt><trkpt lat="40.6099117" lon="15.0213"><ele>154.6</ele><time>2026-05-02T08:44:51.876Z</time></trkpt><trkpt lat="40.609905" lon="15.02142"><ele>155.0</ele><time>2026-05-02T08:44:52.875Z</time></trkpt><trkpt lat="40.6098967" lon="15.0215367"><ele>155.0</ele><time>2026-05-02T08:44:53.876Z</time></trkpt><trkpt lat="40.60989" lon="15.0216367"><ele>155.0</ele><time>2026-05-02T08:44:54.876Z</time></trkpt><trkpt lat="40.6098683" lon="15.02179"><ele>155.0</ele><time>2026-05-02T08:44:56.876Z</time></trkpt><trkpt lat="40.609865" lon="15.0218967"><ele>155.0</ele><time>2026-05-02T08:44:58.875Z</time></trkpt><trkpt lat="40.6098483" lon="15.0220133"><ele>155.0</ele><time>2026-05-02T08:45:00.876Z</time></trkpt><trkpt lat="40.6098417" lon="15.0221583"><ele>155.33333333333331</ele><time>2026-05-02T08:45:02.876Z</time></trkpt><trkpt lat="40.609845" lon="15.0223267"><ele>155.66666666666666</ele><time>2026-05-02T08:45:04.875Z</time></trkpt><trkpt lat="40.60985" lon="15.0224167"><ele>156.0</ele><time>2026-05-02T08:45:05.875Z</time></trkpt><trkpt lat="40.6098567" lon="15.02251"><ele>156.33333333333334</ele><time>2026-05-02T08:45:06.875Z</time></trkpt><trkpt lat="40.6098633" lon="15.02261"><ele>156.66666666666669</ele><time>2026-05-02T08:45:07.876Z</time></trkpt><trkpt lat="40.6098683" lon="15.0227183"><ele>157.0</ele><time>2026-05-02T08:45:08.875Z</time></trkpt><trkpt lat="40.609875" lon="15.0228267"><ele>157.2</ele><time>2026-05-02T08:45:09.875Z</time></trkpt><trkpt lat="40.6098867" lon="15.02294"><ele>157.39999999999998</ele><time>2026-05-02T08:45:10.876Z</time></trkpt><trkpt lat="40.6098933" lon="15.02306"><ele>157.60000000000002</ele><time>2026-05-02T08:45:11.876Z</time></trkpt><trkpt lat="40.6098983" lon="15.0231817"><ele>157.8</ele><time>2026-05-02T08:45:12.875Z</time></trkpt><trkpt lat="40.6099117" lon="15.023305"><ele>158.0</ele><time>2026-05-02T08:45:13.876Z</time></trkpt><trkpt lat="40.6099217" lon="15.0234383"><ele>158.0</ele><time>2026-05-02T08:45:14.876Z</time></trkpt><trkpt lat="40.60993" lon="15.0235617"><ele>158.0</ele><time>2026-05-02T08:45:15.876Z</time></trkpt><trkpt lat="40.60994" lon="15.0236683"><ele>158.0</ele><time>2026-05-02T08:45:16.876Z</time></trkpt><trkpt lat="40.6099483" lon="15.0237633"><ele>158.0</ele><time>2026-05-02T08:45:17.875Z</time></trkpt><trkpt lat="40.60996" lon="15.0238517"><ele>158.0</ele><time>2026-05-02T08:45:18.876Z</time></trkpt><trkpt lat="40.6099683" lon="15.023935"><ele>158.0</ele><time>2026-05-02T08:45:19.875Z</time></trkpt><trkpt lat="40.609985" lon="15.02408"><ele>158.0</ele><time>2026-05-02T08:45:21.875Z</time></trkpt><trkpt lat="40.6099933" lon="15.024175"><ele>158.0</ele><time>2026-05-02T08:45:23.875Z</time></trkpt><trkpt lat="40.6099883" lon="15.0242883"><ele>158.0</ele><time>2026-05-02T08:45:31.875Z</time></trkpt><trkpt lat="40.6099917" lon="15.0243933"><ele>158.0</ele><time>2026-05-02T08:45:43.876Z</time></trkpt><trkpt lat="40.610015" lon="15.0245"><ele>158.0</ele><time>2026-05-02T08:45:45.876Z</time></trkpt><trkpt lat="40.6100267" lon="15.0246433"><ele>158.0</ele><time>2026-05-02T08:45:47.875Z</time></trkpt><trkpt lat="40.61003" lon="15.02473"><ele>158.0</ele><time>2026-05-02T08:45:48.876Z</time></trkpt><trkpt lat="40.6100333" lon="15.0248183"><ele>158.0</ele><time>2026-05-02T08:45:49.875Z</time></trkpt><trkpt lat="40.6100417" lon="15.0249483"><ele>158.0</ele><time>2026-05-02T08:45:51.875Z</time></trkpt><trkpt lat="40.610085" lon="15.025025"><ele>158.0</ele><time>2026-05-02T08:45:53.876Z</time></trkpt><trkpt lat="40.6101667" lon="15.0250733"><ele>158.0</ele><time>2026-05-02T08:45:55.875Z</time></trkpt><trkpt lat="40.6102667" lon="15.0250817"><ele>158.0</ele><time>2026-05-02T08:45:57.874Z</time></trkpt><trkpt lat="40.610375" lon="15.0250683"><ele>158.71428571428572</ele><time>2026-05-02T08:45:59.874Z</time></trkpt><trkpt lat="40.6104417" lon="15.0250533"><ele>159.42857142857144</ele><time>2026-05-02T08:46:00.875Z</time></trkpt><trkpt lat="40.6105167" lon="15.025045"><ele>160.14285714285717</ele><time>2026-05-02T08:46:01.875Z</time></trkpt><trkpt lat="40.6105867" lon="15.0250267"><ele>160.85714285714286</ele><time>2026-05-02T08:46:02.874Z</time></trkpt><trkpt lat="40.6106517" lon="15.0250117"><ele>161.57142857142856</ele><time>2026-05-02T08:46:03.874Z</time></trkpt><trkpt lat="40.61072" lon="15.0249933"><ele>162.2857142857143</ele><time>2026-05-02T08:46:04.874Z</time></trkpt><trkpt lat="40.6107833" lon="15.024975"><ele>163.0</ele><time>2026-05-02T08:46:05.875Z</time></trkpt><trkpt lat="40.61089" lon="15.0249883"><ele>163.0</ele><time>2026-05-02T08:46:07.875Z</time></trkpt><trkpt lat="40.61098" lon="15.025065"><ele>163.0</ele><time>2026-05-02T08:46:09.874Z</time></trkpt><trkpt lat="40.6110417" lon="15.0251967"><ele>163.0</ele><time>2026-05-02T08:46:11.874Z</time></trkpt><trkpt lat="40.611075" lon="15.025285"><ele>163.0</ele><time>2026-05-02T08:46:12.875Z</time></trkpt><trkpt lat="40.6111017" lon="15.0253817"><ele>163.0</ele><time>2026-05-02T08:46:13.874Z</time></trkpt><trkpt lat="40.6111283" lon="15.025475"><ele>163.0</ele><time>2026-05-02T08:46:14.875Z</time></trkpt><trkpt lat="40.61115" lon="15.025565"><ele>163.0</ele><time>2026-05-02T08:46:15.875Z</time></trkpt><trkpt lat="40.61117" lon="15.0256517"><ele>163.0</ele><time>2026-05-02T08:46:16.874Z</time></trkpt><trkpt lat="40.6111983" lon="15.02579"><ele>163.0</ele><time>2026-05-02T08:46:18.874Z</time></trkpt><trkpt lat="40.6112183" lon="15.0259033"><ele>163.0</ele><time>2026-05-02T08:46:20.874Z</time></trkpt><trkpt lat="40.6112417" lon="15.025995"><ele>163.0</ele><time>2026-05-02T08:46:22.874Z</time></trkpt><trkpt lat="40.6112767" lon="15.0260767"><ele>166.4</ele><time>2026-05-02T08:46:25.875Z</time></trkpt><trkpt lat="40.6113567" lon="15.0261367"><ele>169.8</ele><time>2026-05-02T08:46:33.874Z</time></trkpt><trkpt lat="40.6114533" lon="15.02614"><ele>173.2</ele><time>2026-05-02T08:46:35.875Z</time></trkpt><trkpt lat="40.6115217" lon="15.026045"><ele>176.6</ele><time>2026-05-02T08:46:37.875Z</time></trkpt><trkpt lat="40.6115233" lon="15.02589"><ele>180.0</ele><time>2026-05-02T08:46:39.875Z</time></trkpt><trkpt lat="40.6114983" lon="15.0257217"><ele>181.16666666666666</ele><time>2026-05-02T08:46:41.875Z</time></trkpt><trkpt lat="40.611485" lon="15.0256183"><ele>182.33333333333334</ele><time>2026-05-02T08:46:42.875Z</time></trkpt><trkpt lat="40.61147" lon="15.0255167"><ele>183.5</ele><time>2026-05-02T08:46:43.874Z</time></trkpt><trkpt lat="40.6114567" lon="15.0254117"><ele>184.66666666666669</ele><time>2026-05-02T08:46:44.875Z</time></trkpt><trkpt lat="40.611445" lon="15.0252933"><ele>185.83333333333334</ele><time>2026-05-02T08:46:45.875Z</time></trkpt><trkpt lat="40.6114317" lon="15.02517"><ele>187.0</ele><time>2026-05-02T08:46:46.875Z</time></trkpt><trkpt lat="40.61141" lon="15.0250433"><ele>187.39999999999998</ele><time>2026-05-02T08:46:47.875Z</time></trkpt><trkpt lat="40.6113967" lon="15.0249183"><ele>187.79999999999998</ele><time>2026-05-02T08:46:48.875Z</time></trkpt><trkpt lat="40.6113833" lon="15.024795"><ele>188.2</ele><time>2026-05-02T08:46:49.875Z</time></trkpt><trkpt lat="40.61138" lon="15.0246683"><ele>188.6</ele><time>2026-05-02T08:46:50.875Z</time></trkpt><trkpt lat="40.611385" lon="15.0245517"><ele>189.0</ele><time>2026-05-02T08:46:51.874Z</time></trkpt><trkpt lat="40.6113917" lon="15.0244283"><ele>189.0</ele><time>2026-05-02T08:46:52.874Z</time></trkpt><trkpt lat="40.6114" lon="15.024305"><ele>189.0</ele><time>2026-05-02T08:46:53.875Z</time></trkpt><trkpt lat="40.6114033" lon="15.02418"><ele>189.0</ele><time>2026-05-02T08:46:54.875Z</time></trkpt><trkpt lat="40.611415" lon="15.02406"><ele>189.0</ele><time>2026-05-02T08:46:55.874Z</time></trkpt><trkpt lat="40.6114233" lon="15.0239417"><ele>189.0</ele><time>2026-05-02T08:46:56.874Z</time></trkpt><trkpt lat="40.611435" lon="15.023815"><ele>189.0</ele><time>2026-05-02T08:46:57.875Z</time></trkpt><trkpt lat="40.6114417" lon="15.0236867"><ele>189.0</ele><time>2026-05-02T08:46:58.874Z</time></trkpt><trkpt lat="40.6114533" lon="15.0235517"><ele>189.0</ele><time>2026-05-02T08:46:59.875Z</time></trkpt><trkpt lat="40.6114583" lon="15.0234333"><ele>189.0</ele><time>2026-05-02T08:47:00.875Z</time></trkpt><trkpt lat="40.611465" lon="15.0233133"><ele>189.0</ele><time>2026-05-02T08:47:01.874Z</time></trkpt><trkpt lat="40.611475" lon="15.0231833"><ele>189.2</ele><time>2026-05-02T08:47:02.874Z</time></trkpt><trkpt lat="40.6114917" lon="15.0230533"><ele>189.39999999999998</ele><time>2026-05-02T08:47:03.874Z</time></trkpt><trkpt lat="40.61151" lon="15.0229217"><ele>189.6</ele><time>2026-05-02T08:47:04.874Z</time></trkpt><trkpt lat="40.61152" lon="15.02279"><ele>189.8</ele><time>2026-05-02T08:47:05.875Z</time></trkpt><trkpt lat="40.6115367" lon="15.02266"><ele>190.0</ele><time>2026-05-02T08:47:06.875Z</time></trkpt><trkpt lat="40.61155" lon="15.0225233"><ele>189.8</ele><time>2026-05-02T08:47:07.875Z</time></trkpt><trkpt lat="40.6115583" lon="15.022395"><ele>189.6</ele><time>2026-05-02T08:47:08.875Z</time></trkpt><trkpt lat="40.61157" lon="15.0222633"><ele>189.39999999999998</ele><time>2026-05-02T08:47:09.875Z</time></trkpt><trkpt lat="40.6115833" lon="15.0221333"><ele>189.2</ele><time>2026-05-02T08:47:10.874Z</time></trkpt><trkpt lat="40.6115833" lon="15.0219983"><ele>189.0</ele><time>2026-05-02T08:47:11.875Z</time></trkpt><trkpt lat="40.6115917" lon="15.0218583"><ele>189.0</ele><time>2026-05-02T08:47:12.874Z</time></trkpt><trkpt lat="40.6115917" lon="15.02173"><ele>189.0</ele><time>2026-05-02T08:47:13.875Z</time></trkpt><trkpt lat="40.611595" lon="15.0216117"><ele>189.0</ele><time>2026-05-02T08:47:14.874Z</time></trkpt><trkpt lat="40.6116033" lon="15.0214867"><ele>189.0</ele><time>2026-05-02T08:47:15.874Z</time></trkpt><trkpt lat="40.611605" lon="15.021375"><ele>189.0</ele><time>2026-05-02T08:47:16.874Z</time></trkpt><trkpt lat="40.6116183" lon="15.0212533"><ele>189.2</ele><time>2026-05-02T08:47:17.874Z</time></trkpt><trkpt lat="40.6116267" lon="15.021135"><ele>189.39999999999998</ele><time>2026-05-02T08:47:18.875Z</time></trkpt><trkpt lat="40.61164" lon="15.02101"><ele>189.6</ele><time>2026-05-02T08:47:19.875Z</time></trkpt><trkpt lat="40.611655" lon="15.0208867"><ele>189.8</ele><time>2026-05-02T08:47:20.875Z</time></trkpt><trkpt lat="40.6116767" lon="15.0207567"><ele>190.0</ele><time>2026-05-02T08:47:21.874Z</time></trkpt><trkpt lat="40.6116917" lon="15.02063"><ele>189.4</ele><time>2026-05-02T08:47:22.874Z</time></trkpt><trkpt lat="40.611715" lon="15.0205033"><ele>188.8</ele><time>2026-05-02T08:47:23.874Z</time></trkpt><trkpt lat="40.6117367" lon="15.0203833"><ele>188.2</ele><time>2026-05-02T08:47:24.874Z</time></trkpt><trkpt lat="40.6117617" lon="15.020265"><ele>187.6</ele><time>2026-05-02T08:47:25.875Z</time></trkpt><trkpt lat="40.611785" lon="15.0201383"><ele>187.0</ele><time>2026-05-02T08:47:26.875Z</time></trkpt><trkpt lat="40.6118167" lon="15.0200167"><ele>185.6</ele><time>2026-05-02T08:47:27.874Z</time></trkpt><trkpt lat="40.6118483" lon="15.01989"><ele>184.2</ele><time>2026-05-02T08:47:28.875Z</time></trkpt><trkpt lat="40.611885" lon="15.0197633"><ele>182.8</ele><time>2026-05-02T08:47:29.875Z</time></trkpt><trkpt lat="40.6119333" lon="15.0196517"><ele>181.4</ele><time>2026-05-02T08:47:30.875Z</time></trkpt><trkpt lat="40.61198" lon="15.019555"><ele>180.0</ele><time>2026-05-02T08:47:31.875Z</time></trkpt><trkpt lat="40.6120267" lon="15.019475"><ele>183.8</ele><time>2026-05-02T08:47:32.875Z</time></trkpt><trkpt lat="40.6120733" lon="15.0194083"><ele>187.6</ele><time>2026-05-02T08:47:33.875Z</time></trkpt><trkpt lat="40.61212" lon="15.019345"><ele>191.39999999999998</ele><time>2026-05-02T08:47:34.875Z</time></trkpt><trkpt lat="40.6122133" lon="15.0192633"><ele>195.2</ele><time>2026-05-02T08:47:36.874Z</time></trkpt><trkpt lat="40.612325" lon="15.019225"><ele>199.0</ele><time>2026-05-02T08:47:38.874Z</time></trkpt><trkpt lat="40.612435" lon="15.019215"><ele>199.0</ele><time>2026-05-02T08:47:40.875Z</time></trkpt><trkpt lat="40.612545" lon="15.019265"><ele>199.0</ele><time>2026-05-02T08:47:42.875Z</time></trkpt><trkpt lat="40.6126017" lon="15.019305"><ele>199.0</ele><time>2026-05-02T08:47:43.875Z</time></trkpt><trkpt lat="40.612675" lon="15.0194033"><ele>199.0</ele><time>2026-05-02T08:47:45.874Z</time></trkpt><trkpt lat="40.6127367" lon="15.0195"><ele>199.0</ele><time>2026-05-02T08:47:47.875Z</time></trkpt><trkpt lat="40.6128217" lon="15.0196117"><ele>201.49999999999997</ele><time>2026-05-02T08:47:49.875Z</time></trkpt><trkpt lat="40.61287" lon="15.0196817"><ele>204.0</ele><time>2026-05-02T08:47:50.875Z</time></trkpt><trkpt lat="40.6129183" lon="15.01975"><ele>206.5</ele><time>2026-05-02T08:47:51.874Z</time></trkpt><trkpt lat="40.6129683" lon="15.0198233"><ele>209.0</ele><time>2026-05-02T08:47:52.875Z</time></trkpt><trkpt lat="40.6130217" lon="15.019895"><ele>211.49999999999997</ele><time>2026-05-02T08:47:53.875Z</time></trkpt><trkpt lat="40.613115" lon="15.01998"><ele>214.0</ele><time>2026-05-02T08:47:55.875Z</time></trkpt><trkpt lat="40.6132233" lon="15.0199917"><ele>214.33333333333331</ele><time>2026-05-02T08:47:57.875Z</time></trkpt><trkpt lat="40.6133167" lon="15.01993"><ele>214.66666666666666</ele><time>2026-05-02T08:47:59.874Z</time></trkpt><trkpt lat="40.6133767" lon="15.0197833"><ele>215.0</ele><time>2026-05-02T08:48:01.874Z</time></trkpt><trkpt lat="40.6133883" lon="15.0196967"><ele>215.33333333333331</ele><time>2026-05-02T08:48:02.874Z</time></trkpt><trkpt lat="40.6133983" lon="15.019605"><ele>215.66666666666666</ele><time>2026-05-02T08:48:03.875Z</time></trkpt><trkpt lat="40.6133983" lon="15.01952"><ele>216.0</ele><time>2026-05-02T08:48:04.875Z</time></trkpt><trkpt lat="40.6133967" lon="15.0193883"><ele>216.0</ele><time>2026-05-02T08:48:06.875Z</time></trkpt><trkpt lat="40.613405" lon="15.0192317"><ele>216.0</ele><time>2026-05-02T08:49:07.875Z</time></trkpt><trkpt lat="40.61341" lon="15.0190833"><ele>216.0</ele><time>2026-05-02T08:49:09.875Z</time></trkpt><trkpt lat="40.6134183" lon="15.0189983"><ele>216.0</ele><time>2026-05-02T08:49:10.874Z</time></trkpt><trkpt lat="40.6134233" lon="15.0189133"><ele>216.0</ele><time>2026-05-02T08:49:11.874Z</time></trkpt><trkpt lat="40.6134283" lon="15.018825"><ele>216.0</ele><time>2026-05-02T08:49:12.875Z</time></trkpt><trkpt lat="40.6134383" lon="15.01873"><ele>215.57142857142856</ele><time>2026-05-02T08:49:13.874Z</time></trkpt><trkpt lat="40.61344" lon="15.018635"><ele>215.14285714285714</ele><time>2026-05-02T08:49:14.874Z</time></trkpt><trkpt lat="40.6134467" lon="15.018535"><ele>214.71428571428572</ele><time>2026-05-02T08:49:15.874Z</time></trkpt><trkpt lat="40.6134517" lon="15.018435"><ele>214.28571428571428</ele><time>2026-05-02T08:49:16.875Z</time></trkpt><trkpt lat="40.6134583" lon="15.0183433"><ele>213.85714285714286</ele><time>2026-05-02T08:49:17.875Z</time></trkpt><trkpt lat="40.6134667" lon="15.018255"><ele>213.42857142857142</ele><time>2026-05-02T08:49:18.874Z</time></trkpt><trkpt lat="40.61347" lon="15.0181667"><ele>213.0</ele><time>2026-05-02T08:49:19.874Z</time></trkpt><trkpt lat="40.6134733" lon="15.0180817"><ele>212.5</ele><time>2026-05-02T08:49:20.875Z</time></trkpt><trkpt lat="40.61348" lon="15.01792"><ele>212.0</ele><time>2026-05-02T08:49:22.875Z</time></trkpt><trkpt lat="40.613485" lon="15.0177583"><ele>211.5</ele><time>2026-05-02T08:49:24.874Z</time></trkpt><trkpt lat="40.6134883" lon="15.0176067"><ele>211.0</ele><time>2026-05-02T08:49:26.874Z</time></trkpt><trkpt lat="40.6134917" lon="15.0174583"><ele>212.0</ele><time>2026-05-02T08:49:28.874Z</time></trkpt><trkpt lat="40.6134967" lon="15.0173167"><ele>213.0</ele><time>2026-05-02T08:49:30.875Z</time></trkpt><trkpt lat="40.6135017" lon="15.0172067"><ele>214.00000000000003</ele><time>2026-05-02T08:49:32.874Z</time></trkpt><trkpt lat="40.6135033" lon="15.0170967"><ele>215.0</ele><time>2026-05-02T08:50:51.875Z</time></trkpt><trkpt lat="40.613505" lon="15.0169367"><ele>216.0</ele><time>2026-05-02T08:50:53.874Z</time></trkpt><trkpt lat="40.6135083" lon="15.0168383"><ele>216.0</ele><time>2026-05-02T08:50:54.875Z</time></trkpt><trkpt lat="40.6135117" lon="15.016735"><ele>216.0</ele><time>2026-05-02T08:50:55.874Z</time></trkpt><trkpt lat="40.6135167" lon="15.0166417"><ele>216.0</ele><time>2026-05-02T08:50:56.874Z</time></trkpt><trkpt lat="40.6135283" lon="15.0164933"><ele>216.0</ele><time>2026-05-02T08:50:58.875Z</time></trkpt><trkpt lat="40.6135733" lon="15.0164017"><ele>216.0</ele><time>2026-05-02T08:51:00.875Z</time></trkpt><trkpt lat="40.6136467" lon="15.016385"><ele>216.0</ele><time>2026-05-02T08:51:02.874Z</time></trkpt><trkpt lat="40.6137283" lon="15.0164217"><ele>222.20000000000002</ele><time>2026-05-02T08:51:04.875Z</time></trkpt><trkpt lat="40.6138" lon="15.0165333"><ele>228.40000000000003</ele><time>2026-05-02T08:51:06.874Z</time></trkpt><trkpt lat="40.613835" lon="15.016685"><ele>234.6</ele><time>2026-05-02T08:51:08.875Z</time></trkpt><trkpt lat="40.6138483" lon="15.0167667"><ele>240.8</ele><time>2026-05-02T08:51:09.875Z</time></trkpt><trkpt lat="40.6138883" lon="15.016915"><ele>247.0</ele><time>2026-05-02T08:51:11.875Z</time></trkpt><trkpt lat="40.613935" lon="15.0170733"><ele>246.99999999999997</ele><time>2026-05-02T08:51:13.875Z</time></trkpt><trkpt lat="40.6139583" lon="15.0171533"><ele>247.0</ele><time>2026-05-02T08:51:14.874Z</time></trkpt><trkpt lat="40.613985" lon="15.0172333"><ele>247.0</ele><time>2026-05-02T08:51:15.875Z</time></trkpt><trkpt lat="40.6140083" lon="15.017315"><ele>247.0</ele><time>2026-05-02T08:51:16.874Z</time></trkpt><trkpt lat="40.6140333" lon="15.0173983"><ele>246.99999999999997</ele><time>2026-05-02T08:51:17.875Z</time></trkpt><trkpt lat="40.6140867" lon="15.0175583"><ele>247.0</ele><time>2026-05-02T08:51:19.875Z</time></trkpt><trkpt lat="40.6141133" lon="15.017645"><ele>246.16666666666666</ele><time>2026-05-02T08:51:20.875Z</time></trkpt><trkpt lat="40.6141417" lon="15.0177383"><ele>245.33333333333331</ele><time>2026-05-02T08:51:21.875Z</time></trkpt><trkpt lat="40.614175" lon="15.0178317"><ele>244.5</ele><time>2026-05-02T08:51:22.874Z</time></trkpt><trkpt lat="40.61421" lon="15.0179283"><ele>243.66666666666669</ele><time>2026-05-02T08:51:23.875Z</time></trkpt><trkpt lat="40.614255" lon="15.01802"><ele>242.83333333333334</ele><time>2026-05-02T08:51:24.875Z</time></trkpt><trkpt lat="40.6142967" lon="15.018105"><ele>242.0</ele><time>2026-05-02T08:51:25.875Z</time></trkpt><trkpt lat="40.6143317" lon="15.0181917"><ele>242.0</ele><time>2026-05-02T08:51:26.874Z</time></trkpt><trkpt lat="40.6143567" lon="15.0182817"><ele>241.99999999999997</ele><time>2026-05-02T08:51:27.875Z</time></trkpt><trkpt lat="40.6143783" lon="15.0183633"><ele>242.0</ele><time>2026-05-02T08:51:28.875Z</time></trkpt><trkpt lat="40.6143983" lon="15.0184517"><ele>242.0</ele><time>2026-05-02T08:51:29.875Z</time></trkpt><trkpt lat="40.6144183" lon="15.018545"><ele>241.99999999999997</ele><time>2026-05-02T08:51:30.874Z</time></trkpt><trkpt lat="40.6144417" lon="15.0186433"><ele>242.0</ele><time>2026-05-02T08:51:31.875Z</time></trkpt><trkpt lat="40.6144667" lon="15.0187533"><ele>242.0</ele><time>2026-05-02T08:51:32.875Z</time></trkpt><trkpt lat="40.6145017" lon="15.0188733"><ele>246.0</ele><time>2026-05-02T08:51:33.874Z</time></trkpt><trkpt lat="40.6145417" lon="15.0189967"><ele>250.0</ele><time>2026-05-02T08:51:34.874Z</time></trkpt><trkpt lat="40.61459" lon="15.0191233"><ele>254.0</ele><time>2026-05-02T08:51:35.875Z</time></trkpt><trkpt lat="40.6146367" lon="15.0192617"><ele>258.0</ele><time>2026-05-02T08:51:36.875Z</time></trkpt><trkpt lat="40.6146867" lon="15.0193967"><ele>262.0</ele><time>2026-05-02T08:51:37.874Z</time></trkpt><trkpt lat="40.614735" lon="15.019525"><ele>262.0</ele><time>2026-05-02T08:51:38.875Z</time></trkpt><trkpt lat="40.6147867" lon="15.01964"><ele>262.0</ele><time>2026-05-02T08:51:39.874Z</time></trkpt><trkpt lat="40.6148267" lon="15.0197533"><ele>262.0</ele><time>2026-05-02T08:51:40.874Z</time></trkpt><trkpt lat="40.614865" lon="15.0198617"><ele>262.0</ele><time>2026-05-02T08:51:41.874Z</time></trkpt><trkpt lat="40.6149067" lon="15.0199717"><ele>262.0</ele><time>2026-05-02T08:51:42.875Z</time></trkpt><trkpt lat="40.614945" lon="15.02008"><ele>261.0</ele><time>2026-05-02T08:51:43.875Z</time></trkpt><trkpt lat="40.61498" lon="15.02019"><ele>260.0</ele><time>2026-05-02T08:51:44.874Z</time></trkpt><trkpt lat="40.6150183" lon="15.020305"><ele>259.0</ele><time>2026-05-02T08:51:45.874Z</time></trkpt><trkpt lat="40.6150583" lon="15.02042"><ele>258.0</ele><time>2026-05-02T08:51:46.874Z</time></trkpt><trkpt lat="40.6151" lon="15.020535"><ele>257.0</ele><time>2026-05-02T08:51:47.875Z</time></trkpt><trkpt lat="40.6151383" lon="15.0206517"><ele>257.0</ele><time>2026-05-02T08:51:48.874Z</time></trkpt><trkpt lat="40.61518" lon="15.0207617"><ele>257.0</ele><time>2026-05-02T08:51:49.875Z</time></trkpt><trkpt lat="40.61522" lon="15.02087"><ele>257.0</ele><time>2026-05-02T08:51:50.874Z</time></trkpt><trkpt lat="40.615265" lon="15.0209783"><ele>257.0</ele><time>2026-05-02T08:51:51.874Z</time></trkpt><trkpt lat="40.615305" lon="15.02109"><ele>257.0</ele><time>2026-05-02T08:51:52.873Z</time></trkpt><trkpt lat="40.61535" lon="15.0211983"><ele>260.83333333333337</ele><time>2026-05-02T08:51:53.873Z</time></trkpt><trkpt lat="40.6153967" lon="15.0213"><ele>264.6666666666667</ele><time>2026-05-02T08:51:54.874Z</time></trkpt><trkpt lat="40.615445" lon="15.0213933"><ele>268.5</ele><time>2026-05-02T08:51:55.874Z</time></trkpt><trkpt lat="40.6154833" lon="15.0214817"><ele>272.3333333333333</ele><time>2026-05-02T08:51:56.873Z</time></trkpt><trkpt lat="40.615515" lon="15.021555"><ele>276.16666666666663</ele><time>2026-05-02T08:51:57.874Z</time></trkpt><trkpt lat="40.6155783" lon="15.021645"><ele>280.0</ele><time>2026-05-02T08:51:59.873Z</time></trkpt><trkpt lat="40.6156667" lon="15.021645"><ele>280.0</ele><time>2026-05-02T08:52:01.874Z</time></trkpt><trkpt lat="40.6157167" lon="15.02156"><ele>280.0</ele><time>2026-05-02T08:52:03.873Z</time></trkpt><trkpt lat="40.615715" lon="15.0214417"><ele>280.0</ele><time>2026-05-02T08:52:05.873Z</time></trkpt><trkpt lat="40.6156733" lon="15.0213017"><ele>280.0</ele><time>2026-05-02T08:52:07.873Z</time></trkpt><trkpt lat="40.6156483" lon="15.021225"><ele>280.0</ele><time>2026-05-02T08:52:08.874Z</time></trkpt><trkpt lat="40.6156283" lon="15.0211317"><ele>280.0</ele><time>2026-05-02T08:52:09.873Z</time></trkpt><trkpt lat="40.6156133" lon="15.0210367"><ele>280.0</ele><time>2026-05-02T08:52:10.874Z</time></trkpt><trkpt lat="40.615595" lon="15.0209267"><ele>280.0</ele><time>2026-05-02T08:52:11.873Z</time></trkpt><trkpt lat="40.6155767" lon="15.0208117"><ele>280.0</ele><time>2026-05-02T08:52:12.873Z</time></trkpt><trkpt lat="40.61557" lon="15.0206917"><ele>280.0</ele><time>2026-05-02T08:52:13.874Z</time></trkpt><trkpt lat="40.615565" lon="15.0205733"><ele>280.0</ele><time>2026-05-02T08:52:14.873Z</time></trkpt><trkpt lat="40.6155567" lon="15.02045"><ele>281.6</ele><time>2026-05-02T08:52:15.873Z</time></trkpt><trkpt lat="40.6155417" lon="15.020335"><ele>283.2</ele><time>2026-05-02T08:52:16.874Z</time></trkpt><trkpt lat="40.6155283" lon="15.0202167"><ele>284.8</ele><time>2026-05-02T08:52:17.874Z</time></trkpt><trkpt lat="40.61552" lon="15.0200983"><ele>286.4</ele><time>2026-05-02T08:52:18.873Z</time></trkpt><trkpt lat="40.6155117" lon="15.01998"><ele>288.0</ele><time>2026-05-02T08:52:19.873Z</time></trkpt><trkpt lat="40.6155117" lon="15.0198567"><ele>288.6666666666667</ele><time>2026-05-02T08:52:20.874Z</time></trkpt><trkpt lat="40.6155133" lon="15.0197367"><ele>289.3333333333333</ele><time>2026-05-02T08:52:21.874Z</time></trkpt><trkpt lat="40.61551" lon="15.0196183"><ele>290.0</ele><time>2026-05-02T08:52:22.874Z</time></trkpt><trkpt lat="40.6155117" lon="15.0195"><ele>290.66666666666663</ele><time>2026-05-02T08:52:23.873Z</time></trkpt><trkpt lat="40.615515" lon="15.0193833"><ele>291.3333333333333</ele><time>2026-05-02T08:52:24.873Z</time></trkpt><trkpt lat="40.61552" lon="15.019265"><ele>292.0</ele><time>2026-05-02T08:52:25.873Z</time></trkpt><trkpt lat="40.6155267" lon="15.0191483"><ele>292.5</ele><time>2026-05-02T08:52:26.873Z</time></trkpt><trkpt lat="40.6155367" lon="15.0190367"><ele>293.0</ele><time>2026-05-02T08:52:27.873Z</time></trkpt><trkpt lat="40.61555" lon="15.0189233"><ele>293.5</ele><time>2026-05-02T08:52:28.873Z</time></trkpt><trkpt lat="40.6155633" lon="15.01881"><ele>294.0</ele><time>2026-05-02T08:52:29.873Z</time></trkpt><trkpt lat="40.6155783" lon="15.018695"><ele>294.5</ele><time>2026-05-02T08:52:30.873Z</time></trkpt><trkpt lat="40.6155917" lon="15.018585"><ele>295.0</ele><time>2026-05-02T08:52:31.874Z</time></trkpt><trkpt lat="40.61561" lon="15.0184767"><ele>295.0</ele><time>2026-05-02T08:52:32.874Z</time></trkpt><trkpt lat="40.615625" lon="15.0183733"><ele>295.0</ele><time>2026-05-02T08:52:33.874Z</time></trkpt><trkpt lat="40.61565" lon="15.0182717"><ele>295.0</ele><time>2026-05-02T08:52:34.873Z</time></trkpt><trkpt lat="40.6156867" lon="15.0181817"><ele>295.0</ele><time>2026-05-02T08:52:35.874Z</time></trkpt><trkpt lat="40.6157267" lon="15.0180917"><ele>295.0</ele><time>2026-05-02T08:52:36.873Z</time></trkpt><trkpt lat="40.6157783" lon="15.0180117"><ele>295.0</ele><time>2026-05-02T08:52:37.874Z</time></trkpt><trkpt lat="40.61583" lon="15.0179233"><ele>295.8333333333333</ele><time>2026-05-02T08:52:38.873Z</time></trkpt><trkpt lat="40.615875" lon="15.017835"><ele>296.66666666666663</ele><time>2026-05-02T08:52:39.874Z</time></trkpt><trkpt lat="40.6159083" lon="15.0177467"><ele>297.5</ele><time>2026-05-02T08:52:40.874Z</time></trkpt><trkpt lat="40.6159233" lon="15.0176483"><ele>298.3333333333333</ele><time>2026-05-02T08:52:41.873Z</time></trkpt><trkpt lat="40.6159233" lon="15.01755"><ele>299.1666666666667</ele><time>2026-05-02T08:52:42.873Z</time></trkpt><trkpt lat="40.6159167" lon="15.0174483"><ele>300.0</ele><time>2026-05-02T08:52:43.873Z</time></trkpt><trkpt lat="40.6158983" lon="15.0173483"><ele>300.6666666666667</ele><time>2026-05-02T08:52:44.873Z</time></trkpt><trkpt lat="40.6158833" lon="15.0172417"><ele>301.3333333333333</ele><time>2026-05-02T08:52:45.873Z</time></trkpt><trkpt lat="40.61587" lon="15.0171317"><ele>302.0</ele><time>2026-05-02T08:52:46.874Z</time></trkpt><trkpt lat="40.6158583" lon="15.01702"><ele>302.66666666666663</ele><time>2026-05-02T08:52:47.874Z</time></trkpt><trkpt lat="40.6158433" lon="15.01691"><ele>303.3333333333333</ele><time>2026-05-02T08:52:48.873Z</time></trkpt><trkpt lat="40.61583" lon="15.0167983"><ele>304.0</ele><time>2026-05-02T08:52:49.873Z</time></trkpt><trkpt lat="40.6158217" lon="15.0166833"><ele>304.16666666666663</ele><time>2026-05-02T08:52:50.874Z</time></trkpt><trkpt lat="40.6158133" lon="15.0165717"><ele>304.3333333333333</ele><time>2026-05-02T08:52:51.873Z</time></trkpt><trkpt lat="40.61581" lon="15.0164683"><ele>304.5</ele><time>2026-05-02T08:52:52.873Z</time></trkpt><trkpt lat="40.6158117" lon="15.0163583"><ele>304.6666666666667</ele><time>2026-05-02T08:52:53.874Z</time></trkpt><trkpt lat="40.6158117" lon="15.0162567"><ele>304.83333333333337</ele><time>2026-05-02T08:52:54.873Z</time></trkpt><trkpt lat="40.6158133" lon="15.0161617"><ele>305.0</ele><time>2026-05-02T08:52:55.874Z</time></trkpt><trkpt lat="40.6158183" lon="15.01603"><ele>305.0</ele><time>2026-05-02T08:52:57.874Z</time></trkpt><trkpt lat="40.6158317" lon="15.015945"><ele>305.0</ele><time>2026-05-02T08:52:59.874Z</time></trkpt><trkpt lat="40.61589" lon="15.015905"><ele>305.0</ele><time>2026-05-02T08:53:01.873Z</time></trkpt><trkpt lat="40.615975" lon="15.015905"><ele>305.0</ele><time>2026-05-02T08:53:03.873Z</time></trkpt><trkpt lat="40.616055" lon="15.0159517"><ele>305.0</ele><time>2026-05-02T08:53:05.873Z</time></trkpt><trkpt lat="40.61612" lon="15.0160433"><ele>305.0</ele><time>2026-05-02T08:53:07.874Z</time></trkpt><trkpt lat="40.616165" lon="15.0161567"><ele>308.0</ele><time>2026-05-02T08:53:09.873Z</time></trkpt><trkpt lat="40.6162" lon="15.0162817"><ele>311.0</ele><time>2026-05-02T08:53:11.873Z</time></trkpt><trkpt lat="40.61623" lon="15.0164033"><ele>314.0</ele><time>2026-05-02T08:53:13.873Z</time></trkpt><trkpt lat="40.616265" lon="15.0165317"><ele>317.0</ele><time>2026-05-02T08:53:15.873Z</time></trkpt><trkpt lat="40.6163233" lon="15.0166267"><ele>320.0</ele><time>2026-05-02T08:53:17.874Z</time></trkpt><trkpt lat="40.6163983" lon="15.0166517"><ele>320.0</ele><time>2026-05-02T08:53:19.873Z</time></trkpt><trkpt lat="40.6164933" lon="15.0166433"><ele>320.0</ele><time>2026-05-02T08:53:21.874Z</time></trkpt><trkpt lat="40.6165867" lon="15.0165967"><ele>320.0</ele><time>2026-05-02T08:53:23.874Z</time></trkpt><trkpt lat="40.6166917" lon="15.0165383"><ele>320.0</ele><time>2026-05-02T08:53:25.873Z</time></trkpt><trkpt lat="40.6168017" lon="15.0164967"><ele>320.0</ele><time>2026-05-02T08:53:27.873Z</time></trkpt><trkpt lat="40.6169083" lon="15.0164833"><ele>320.0</ele><time>2026-05-02T08:53:29.873Z</time></trkpt><trkpt lat="40.616995" lon="15.01644"><ele>320.0</ele><time>2026-05-02T08:53:31.874Z</time></trkpt><trkpt lat="40.6170567" lon="15.016345"><ele>320.0</ele><time>2026-05-02T08:53:33.874Z</time></trkpt><trkpt lat="40.6170767" lon="15.0162067"><ele>320.0</ele><time>2026-05-02T08:53:35.874Z</time></trkpt><trkpt lat="40.617065" lon="15.0160467"><ele>320.0</ele><time>2026-05-02T08:53:37.874Z</time></trkpt><trkpt lat="40.61705" lon="15.0159533"><ele>320.0</ele><time>2026-05-02T08:53:38.874Z</time></trkpt><trkpt lat="40.6170283" lon="15.0158517"><ele>320.0</ele><time>2026-05-02T08:53:39.873Z</time></trkpt><trkpt lat="40.6170083" lon="15.0157483"><ele>320.0</ele><time>2026-05-02T08:53:40.874Z</time></trkpt><trkpt lat="40.6169883" lon="15.0156417"><ele>320.0</ele><time>2026-05-02T08:53:41.874Z</time></trkpt><trkpt lat="40.6169717" lon="15.0155367"><ele>320.0</ele><time>2026-05-02T08:53:42.873Z</time></trkpt><trkpt lat="40.61695" lon="15.0154233"><ele>320.0</ele><time>2026-05-02T08:53:43.874Z</time></trkpt><trkpt lat="40.6169283" lon="15.015305"><ele>320.4</ele><time>2026-05-02T08:53:44.873Z</time></trkpt><trkpt lat="40.61691" lon="15.0151833"><ele>320.8</ele><time>2026-05-02T08:53:45.873Z</time></trkpt><trkpt lat="40.616895" lon="15.015055"><ele>321.20000000000005</ele><time>2026-05-02T08:53:46.873Z</time></trkpt><trkpt lat="40.616885" lon="15.0149267"><ele>321.6</ele><time>2026-05-02T08:53:47.873Z</time></trkpt><trkpt lat="40.6168767" lon="15.0148017"><ele>322.0</ele><time>2026-05-02T08:53:48.874Z</time></trkpt><trkpt lat="40.6168683" lon="15.01468"><ele>322.20000000000005</ele><time>2026-05-02T08:53:49.874Z</time></trkpt><trkpt lat="40.6168583" lon="15.0145517"><ele>322.4</ele><time>2026-05-02T08:53:50.874Z</time></trkpt><trkpt lat="40.6168533" lon="15.014435"><ele>322.6</ele><time>2026-05-02T08:53:51.874Z</time></trkpt><trkpt lat="40.6168467" lon="15.0143167"><ele>322.79999999999995</ele><time>2026-05-02T08:53:52.873Z</time></trkpt><trkpt lat="40.61684" lon="15.0142"><ele>323.0</ele><time>2026-05-02T08:53:53.873Z</time></trkpt><trkpt lat="40.6168333" lon="15.0140833"><ele>323.6666666666667</ele><time>2026-05-02T08:53:54.874Z</time></trkpt><trkpt lat="40.6168267" lon="15.01397"><ele>324.33333333333337</ele><time>2026-05-02T08:53:55.874Z</time></trkpt><trkpt lat="40.6168233" lon="15.013855"><ele>325.0</ele><time>2026-05-02T08:53:56.873Z</time></trkpt><trkpt lat="40.6168217" lon="15.0137433"><ele>325.6666666666667</ele><time>2026-05-02T08:53:57.874Z</time></trkpt><trkpt lat="40.6168133" lon="15.0136333"><ele>326.3333333333333</ele><time>2026-05-02T08:53:58.874Z</time></trkpt><trkpt lat="40.6168033" lon="15.0135317"><ele>327.0</ele><time>2026-05-02T08:53:59.873Z</time></trkpt><trkpt lat="40.6167983" lon="15.0134433"><ele>327.5</ele><time>2026-05-02T08:54:00.874Z</time></trkpt><trkpt lat="40.616805" lon="15.013305"><ele>328.0</ele><time>2026-05-02T08:54:02.874Z</time></trkpt><trkpt lat="40.6168633" lon="15.01321"><ele>328.5</ele><time>2026-05-02T08:54:04.873Z</time></trkpt><trkpt lat="40.6169583" lon="15.0131633"><ele>329.0</ele><time>2026-05-02T08:54:06.874Z</time></trkpt><trkpt lat="40.6170233" lon="15.0131483"><ele>329.5</ele><time>2026-05-02T08:54:07.874Z</time></trkpt><trkpt lat="40.6170883" lon="15.0131383"><ele>330.0</ele><time>2026-05-02T08:54:08.874Z</time></trkpt><trkpt lat="40.6171567" lon="15.0131317"><ele>329.0</ele><time>2026-05-02T08:54:09.873Z</time></trkpt><trkpt lat="40.6172233" lon="15.0131217"><ele>328.0</ele><time>2026-05-02T08:54:10.873Z</time></trkpt><trkpt lat="40.6172917" lon="15.01312"><ele>327.0</ele><time>2026-05-02T08:54:11.874Z</time></trkpt><trkpt lat="40.617355" lon="15.0131183"><ele>326.0</ele><time>2026-05-02T08:54:12.874Z</time></trkpt><trkpt lat="40.6174733" lon="15.0131133"><ele>325.0</ele><time>2026-05-02T08:54:14.874Z</time></trkpt><trkpt lat="40.6175917" lon="15.013105"><ele>324.0</ele><time>2026-05-02T08:54:16.873Z</time></trkpt><trkpt lat="40.617655" lon="15.013095"><ele>324.0</ele><time>2026-05-02T08:54:17.874Z</time></trkpt><trkpt lat="40.6177183" lon="15.013095"><ele>324.0</ele><time>2026-05-02T08:54:18.873Z</time></trkpt><trkpt lat="40.6177817" lon="15.013095"><ele>324.0</ele><time>2026-05-02T08:54:19.873Z</time></trkpt><trkpt lat="40.617845" lon="15.0130933"><ele>324.0</ele><time>2026-05-02T08:54:20.873Z</time></trkpt><trkpt lat="40.61791" lon="15.01309"><ele>324.0</ele><time>2026-05-02T08:54:21.874Z</time></trkpt><trkpt lat="40.617975" lon="15.013085"><ele>324.0</ele><time>2026-05-02T08:54:22.873Z</time></trkpt><trkpt lat="40.6180983" lon="15.0130767"><ele>324.0</ele><time>2026-05-02T08:54:24.873Z</time></trkpt><trkpt lat="40.6182117" lon="15.0130633"><ele>324.4</ele><time>2026-05-02T08:54:26.874Z</time></trkpt><trkpt lat="40.6183133" lon="15.0130617"><ele>324.79999999999995</ele><time>2026-05-02T08:54:28.874Z</time></trkpt><trkpt lat="40.6184217" lon="15.013065"><ele>325.20000000000005</ele><time>2026-05-02T08:54:30.874Z</time></trkpt><trkpt lat="40.618545" lon="15.0130583"><ele>325.6</ele><time>2026-05-02T08:54:32.874Z</time></trkpt><trkpt lat="40.6186083" lon="15.0130567"><ele>326.0</ele><time>2026-05-02T08:54:33.873Z</time></trkpt><trkpt lat="40.61873" lon="15.013055"><ele>330.25</ele><time>2026-05-02T08:54:35.873Z</time></trkpt><trkpt lat="40.6188483" lon="15.0130567"><ele>334.5</ele><time>2026-05-02T08:54:37.873Z</time></trkpt><trkpt lat="40.6189633" lon="15.0130733"><ele>338.75</ele><time>2026-05-02T08:54:39.874Z</time></trkpt><trkpt lat="40.6190767" lon="15.0131017"><ele>343.0</ele><time>2026-05-02T08:54:41.873Z</time></trkpt><trkpt lat="40.6191567" lon="15.0131867"><ele>343.0</ele><time>2026-05-02T08:54:43.874Z</time></trkpt><trkpt lat="40.6191967" lon="15.0133333"><ele>343.0</ele><time>2026-05-02T08:54:45.873Z</time></trkpt><trkpt lat="40.619205" lon="15.013425"><ele>343.0</ele><time>2026-05-02T08:54:46.874Z</time></trkpt><trkpt lat="40.61922" lon="15.013555"><ele>343.0</ele><time>2026-05-02T08:54:47.873Z</time></trkpt><trkpt lat="40.619245" lon="15.01369"><ele>343.0</ele><time>2026-05-02T08:54:48.874Z</time></trkpt><trkpt lat="40.6192867" lon="15.013825"><ele>343.0</ele><time>2026-05-02T08:54:49.873Z</time></trkpt><trkpt lat="40.6193367" lon="15.01395"><ele>343.0</ele><time>2026-05-02T08:54:50.873Z</time></trkpt><trkpt lat="40.6193967" lon="15.0140567"><ele>343.0</ele><time>2026-05-02T08:54:51.874Z</time></trkpt><trkpt lat="40.61947" lon="15.0141483"><ele>343.0</ele><time>2026-05-02T08:54:52.874Z</time></trkpt><trkpt lat="40.6195517" lon="15.01424"><ele>343.0</ele><time>2026-05-02T08:54:53.873Z</time></trkpt><trkpt lat="40.619635" lon="15.0143283"><ele>346.79999999999995</ele><time>2026-05-02T08:54:54.874Z</time></trkpt><trkpt lat="40.6197233" lon="15.0144083"><ele>350.6</ele><time>2026-05-02T08:54:55.874Z</time></trkpt><trkpt lat="40.619805" lon="15.0144917"><ele>354.4</ele><time>2026-05-02T08:54:56.874Z</time></trkpt><trkpt lat="40.6198917" lon="15.0145767"><ele>358.20000000000005</ele><time>2026-05-02T08:54:57.874Z</time></trkpt><trkpt lat="40.619975" lon="15.0146617"><ele>362.0</ele><time>2026-05-02T08:54:58.874Z</time></trkpt><trkpt lat="40.6200467" lon="15.0147317"><ele>362.0</ele><time>2026-05-02T08:54:59.873Z</time></trkpt><trkpt lat="40.620105" lon="15.0148033"><ele>362.0</ele><time>2026-05-02T08:55:00.874Z</time></trkpt><trkpt lat="40.6201667" lon="15.0148633"><ele>362.0</ele><time>2026-05-02T08:55:01.873Z</time></trkpt><trkpt lat="40.6202167" lon="15.0149267"><ele>362.0</ele><time>2026-05-02T08:55:02.874Z</time></trkpt><trkpt lat="40.62026" lon="15.0149917"><ele>362.0</ele><time>2026-05-02T08:55:03.874Z</time></trkpt><trkpt lat="40.620295" lon="15.0150683"><ele>362.0</ele><time>2026-05-02T08:55:04.873Z</time></trkpt><trkpt lat="40.6203333" lon="15.01515"><ele>362.0</ele><time>2026-05-02T08:55:05.874Z</time></trkpt><trkpt lat="40.6203717" lon="15.0152467"><ele>366.20000000000005</ele><time>2026-05-02T08:55:06.874Z</time></trkpt><trkpt lat="40.62041" lon="15.01535"><ele>370.4</ele><time>2026-05-02T08:55:07.874Z</time></trkpt><trkpt lat="40.62045" lon="15.0154583"><ele>374.6</ele><time>2026-05-02T08:55:08.874Z</time></trkpt><trkpt lat="40.62049" lon="15.01558"><ele>378.79999999999995</ele><time>2026-05-02T08:55:09.873Z</time></trkpt><trkpt lat="40.62052" lon="15.0157"><ele>383.0</ele><time>2026-05-02T08:55:10.874Z</time></trkpt><trkpt lat="40.6205483" lon="15.0158133"><ele>382.1666666666667</ele><time>2026-05-02T08:55:11.873Z</time></trkpt><trkpt lat="40.62059" lon="15.015905"><ele>381.33333333333337</ele><time>2026-05-02T08:55:12.873Z</time></trkpt><trkpt lat="40.6206383" lon="15.0159883"><ele>380.5</ele><time>2026-05-02T08:55:13.874Z</time></trkpt><trkpt lat="40.620695" lon="15.0160567"><ele>379.6666666666667</ele><time>2026-05-02T08:55:14.874Z</time></trkpt><trkpt lat="40.6207667" lon="15.0161167"><ele>378.8333333333333</ele><time>2026-05-02T08:55:15.874Z</time></trkpt><trkpt lat="40.62084" lon="15.01618"><ele>378.0</ele><time>2026-05-02T08:55:16.873Z</time></trkpt><trkpt lat="40.6209167" lon="15.0162367"><ele>378.0</ele><time>2026-05-02T08:55:17.874Z</time></trkpt><trkpt lat="40.6209883" lon="15.0162883"><ele>378.0</ele><time>2026-05-02T08:55:18.873Z</time></trkpt><trkpt lat="40.6210517" lon="15.0163433"><ele>378.0</ele><time>2026-05-02T08:55:19.874Z</time></trkpt><trkpt lat="40.621105" lon="15.0163983"><ele>378.0</ele><time>2026-05-02T08:55:20.874Z</time></trkpt><trkpt lat="40.6211567" lon="15.0164633"><ele>378.0</ele><time>2026-05-02T08:55:21.874Z</time></trkpt><trkpt lat="40.6212017" lon="15.0165283"><ele>378.0</ele><time>2026-05-02T08:55:22.874Z</time></trkpt><trkpt lat="40.6212667" lon="15.0166517"><ele>379.79999999999995</ele><time>2026-05-02T08:55:24.874Z</time></trkpt><trkpt lat="40.6213383" lon="15.0168017"><ele>381.6</ele><time>2026-05-02T08:55:26.874Z</time></trkpt><trkpt lat="40.6213783" lon="15.0168933"><ele>383.4</ele><time>2026-05-02T08:55:27.873Z</time></trkpt><trkpt lat="40.621425" lon="15.0169833"><ele>385.20000000000005</ele><time>2026-05-02T08:55:28.873Z</time></trkpt><trkpt lat="40.6214667" lon="15.0170733"><ele>387.0</ele><time>2026-05-02T08:55:29.873Z</time></trkpt><trkpt lat="40.6215117" lon="15.0171517"><ele>387.0</ele><time>2026-05-02T08:55:30.874Z</time></trkpt><trkpt lat="40.621565" lon="15.01722"><ele>387.0</ele><time>2026-05-02T08:55:31.873Z</time></trkpt><trkpt lat="40.6216217" lon="15.01728"><ele>387.0</ele><time>2026-05-02T08:55:32.873Z</time></trkpt><trkpt lat="40.6216767" lon="15.0173333"><ele>387.0</ele><time>2026-05-02T08:55:33.874Z</time></trkpt><trkpt lat="40.6217367" lon="15.0173817"><ele>387.0</ele><time>2026-05-02T08:55:34.873Z</time></trkpt><trkpt lat="40.621845" lon="15.0174317"><ele>387.0</ele><time>2026-05-02T08:55:36.874Z</time></trkpt><trkpt lat="40.62195" lon="15.0174267"><ele>388.20000000000005</ele><time>2026-05-02T08:55:38.874Z</time></trkpt><trkpt lat="40.6220267" lon="15.01735"><ele>389.4</ele><time>2026-05-02T08:55:40.874Z</time></trkpt><trkpt lat="40.6220633" lon="15.01722"><ele>390.6</ele><time>2026-05-02T08:55:42.873Z</time></trkpt><trkpt lat="40.62205" lon="15.01706"><ele>391.79999999999995</ele><time>2026-05-02T08:55:44.873Z</time></trkpt><trkpt lat="40.62201" lon="15.0169033"><ele>393.0</ele><time>2026-05-02T08:55:46.874Z</time></trkpt><trkpt lat="40.6219917" lon="15.0168183"><ele>393.3333333333333</ele><time>2026-05-02T08:55:47.874Z</time></trkpt><trkpt lat="40.6219733" lon="15.0167367"><ele>393.66666666666663</ele><time>2026-05-02T08:55:48.874Z</time></trkpt><trkpt lat="40.6219433" lon="15.0166017"><ele>394.0</ele><time>2026-05-02T08:55:50.873Z</time></trkpt><trkpt lat="40.6219167" lon="15.0165067"><ele>394.3333333333333</ele><time>2026-05-02T08:55:52.873Z</time></trkpt><trkpt lat="40.6219283" lon="15.01642"><ele>394.66666666666663</ele><time>2026-05-02T08:55:54.874Z</time></trkpt><trkpt lat="40.62198" lon="15.016355"><ele>395.0</ele><time>2026-05-02T08:55:56.874Z</time></trkpt><trkpt lat="40.6220883" lon="15.016325"><ele>395.0</ele><time>2026-05-02T08:55:58.873Z</time></trkpt><trkpt lat="40.62221" lon="15.01631"><ele>395.0</ele><time>2026-05-02T08:56:00.873Z</time></trkpt><trkpt lat="40.6223433" lon="15.01629"><ele>395.0</ele><time>2026-05-02T08:56:02.874Z</time></trkpt><trkpt lat="40.62241" lon="15.0162783"><ele>395.0</ele><time>2026-05-02T08:56:03.873Z</time></trkpt><trkpt lat="40.6225117" lon="15.01627"><ele>395.0</ele><time>2026-05-02T08:56:05.873Z</time></trkpt><trkpt lat="40.6226067" lon="15.0162483"><ele>394.99999999999994</ele><time>2026-05-02T08:56:07.873Z</time></trkpt><trkpt lat="40.622705" lon="15.0162333"><ele>395.0</ele><time>2026-05-02T08:56:09.874Z</time></trkpt><trkpt lat="40.6227967" lon="15.0162167"><ele>395.0</ele><time>2026-05-02T08:56:11.874Z</time></trkpt><trkpt lat="40.6228733" lon="15.0162033"><ele>395.0</ele><time>2026-05-02T08:56:13.874Z</time></trkpt><trkpt lat="40.6229417" lon="15.0161967"><ele>394.99999999999994</ele><time>2026-05-02T08:56:15.874Z</time></trkpt><trkpt lat="40.6230083" lon="15.0161867"><ele>395.0</ele><time>2026-05-02T08:56:18.874Z</time></trkpt><trkpt lat="40.6230367" lon="15.0161067"><ele>395.16666666666663</ele><time>2026-05-02T08:56:43.874Z</time></trkpt><trkpt lat="40.6230017" lon="15.01602"><ele>395.3333333333333</ele><time>2026-05-02T08:56:47.873Z</time></trkpt><trkpt lat="40.6229533" lon="15.01592"><ele>395.5</ele><time>2026-05-02T08:57:01.874Z</time></trkpt><trkpt lat="40.6229167" lon="15.01585"><ele>395.66666666666663</ele><time>2026-05-02T08:57:04.874Z</time></trkpt><trkpt lat="40.6228683" lon="15.015755"><ele>395.8333333333333</ele><time>2026-05-02T08:57:08.873Z</time></trkpt><trkpt lat="40.6228317" lon="15.01567"><ele>396.0</ele><time>2026-05-02T08:57:11.874Z</time></trkpt><trkpt lat="40.6227767" lon="15.015585"><ele>396.0</ele><time>2026-05-02T09:00:40.873Z</time></trkpt><trkpt lat="40.6227167" lon="15.0155017"><ele>396.0</ele><time>2026-05-02T09:00:43.873Z</time></trkpt><trkpt lat="40.6226717" lon="15.0154367"><ele>396.0</ele><time>2026-05-02T09:00:45.873Z</time></trkpt><trkpt lat="40.6226233" lon="15.0153783"><ele>396.0</ele><time>2026-05-02T09:00:47.872Z</time></trkpt><trkpt lat="40.62257" lon="15.015305"><ele>396.0</ele><time>2026-05-02T09:00:50.872Z</time></trkpt><trkpt lat="40.6225217" lon="15.0152267"><ele>396.0</ele><time>2026-05-02T09:00:53.873Z</time></trkpt><trkpt lat="40.6224617" lon="15.01514"><ele>396.0</ele><time>2026-05-02T09:00:56.873Z</time></trkpt><trkpt lat="40.62239" lon="15.01507"><ele>396.0</ele><time>2026-05-02T09:00:59.872Z</time></trkpt><trkpt lat="40.6223367" lon="15.01502"><ele>396.0</ele><time>2026-05-02T09:01:01.872Z</time></trkpt><trkpt lat="40.6222817" lon="15.0149683"><ele>396.0</ele><time>2026-05-02T09:01:03.872Z</time></trkpt><trkpt lat="40.6222167" lon="15.0149017"><ele>396.0</ele><time>2026-05-02T09:01:06.873Z</time></trkpt><trkpt lat="40.6221417" lon="15.0148467"><ele>396.0</ele><time>2026-05-02T09:01:09.872Z</time></trkpt><trkpt lat="40.622085" lon="15.01481"><ele>396.1666666666667</ele><time>2026-05-02T09:01:11.872Z</time></trkpt><trkpt lat="40.6220283" lon="15.01477"><ele>396.33333333333337</ele><time>2026-05-02T09:01:13.873Z</time></trkpt><trkpt lat="40.6219483" lon="15.0147117"><ele>396.5</ele><time>2026-05-02T09:01:16.872Z</time></trkpt><trkpt lat="40.62189" lon="15.01468"><ele>396.6666666666667</ele><time>2026-05-02T09:01:18.873Z</time></trkpt><trkpt lat="40.6218317" lon="15.014645"><ele>396.83333333333337</ele><time>2026-05-02T09:01:20.873Z</time></trkpt><trkpt lat="40.6217467" lon="15.014595"><ele>397.0</ele><time>2026-05-02T09:01:23.873Z</time></trkpt><trkpt lat="40.6216733" lon="15.01455"><ele>397.1666666666667</ele><time>2026-05-02T09:01:26.873Z</time></trkpt><trkpt lat="40.6215917" lon="15.0145183"><ele>397.33333333333337</ele><time>2026-05-02T09:01:29.872Z</time></trkpt><trkpt lat="40.6215283" lon="15.0145017"><ele>397.5</ele><time>2026-05-02T09:01:31.873Z</time></trkpt><trkpt lat="40.621445" lon="15.0144883"><ele>397.66666666666663</ele><time>2026-05-02T09:01:34.873Z</time></trkpt><trkpt lat="40.6213983" lon="15.0144217"><ele>397.8333333333333</ele><time>2026-05-02T09:01:37.872Z</time></trkpt><trkpt lat="40.6213717" lon="15.0143133"><ele>398.0</ele><time>2026-05-02T09:01:40.873Z</time></trkpt><trkpt lat="40.62134" lon="15.0142233"><ele>397.4</ele><time>2026-05-02T09:01:42.873Z</time></trkpt><trkpt lat="40.6213083" lon="15.0141033"><ele>396.79999999999995</ele><time>2026-05-02T09:01:44.872Z</time></trkpt><trkpt lat="40.62127" lon="15.01394"><ele>396.2</ele><time>2026-05-02T09:01:46.872Z</time></trkpt><trkpt lat="40.6212433" lon="15.0138467"><ele>395.6</ele><time>2026-05-02T09:01:47.873Z</time></trkpt><trkpt lat="40.6212" lon="15.013745"><ele>395.0</ele><time>2026-05-02T09:01:48.873Z</time></trkpt><trkpt lat="40.6211517" lon="15.0136233"><ele>394.6</ele><time>2026-05-02T09:01:49.873Z</time></trkpt><trkpt lat="40.6211" lon="15.0135"><ele>394.2</ele><time>2026-05-02T09:01:50.873Z</time></trkpt><trkpt lat="40.6210467" lon="15.0133783"><ele>393.79999999999995</ele><time>2026-05-02T09:01:51.873Z</time></trkpt><trkpt lat="40.6209967" lon="15.0132633"><ele>393.4</ele><time>2026-05-02T09:01:52.873Z</time></trkpt><trkpt lat="40.620955" lon="15.01316"><ele>393.0</ele><time>2026-05-02T09:01:53.872Z</time></trkpt><trkpt lat="40.620915" lon="15.0130683"><ele>393.0</ele><time>2026-05-02T09:01:54.872Z</time></trkpt><trkpt lat="40.6208767" lon="15.0129833"><ele>393.0</ele><time>2026-05-02T09:01:55.873Z</time></trkpt><trkpt lat="40.620845" lon="15.0129067"><ele>393.0</ele><time>2026-05-02T09:01:56.873Z</time></trkpt><trkpt lat="40.6208067" lon="15.01276"><ele>393.0</ele><time>2026-05-02T09:01:58.872Z</time></trkpt><trkpt lat="40.62077" lon="15.0126033"><ele>393.0</ele><time>2026-05-02T09:02:00.873Z</time></trkpt><trkpt lat="40.620745" lon="15.0124567"><ele>392.2</ele><time>2026-05-02T09:02:02.873Z</time></trkpt><trkpt lat="40.62072" lon="15.012325"><ele>391.4</ele><time>2026-05-02T09:02:04.873Z</time></trkpt><trkpt lat="40.6206983" lon="15.0121983"><ele>390.59999999999997</ele><time>2026-05-02T09:02:06.873Z</time></trkpt><trkpt lat="40.6206833" lon="15.0120733"><ele>389.79999999999995</ele><time>2026-05-02T09:02:08.872Z</time></trkpt><trkpt lat="40.6206667" lon="15.011945"><ele>389.0</ele><time>2026-05-02T09:02:10.873Z</time></trkpt><trkpt lat="40.620635" lon="15.01182"><ele>388.99999999999994</ele><time>2026-05-02T09:02:12.873Z</time></trkpt><trkpt lat="40.6206133" lon="15.011685"><ele>389.0</ele><time>2026-05-02T09:02:14.873Z</time></trkpt><trkpt lat="40.620595" lon="15.0115317"><ele>389.0</ele><time>2026-05-02T09:02:16.872Z</time></trkpt><trkpt lat="40.6205833" lon="15.0114467"><ele>389.0</ele><time>2026-05-02T09:02:17.873Z</time></trkpt><trkpt lat="40.62057" lon="15.0113617"><ele>388.99999999999994</ele><time>2026-05-02T09:02:18.873Z</time></trkpt><trkpt lat="40.6205583" lon="15.0112733"><ele>389.0</ele><time>2026-05-02T09:02:19.873Z</time></trkpt><trkpt lat="40.6205433" lon="15.0111817"><ele>388.49999999999994</ele><time>2026-05-02T09:02:20.873Z</time></trkpt><trkpt lat="40.6205267" lon="15.0110917"><ele>388.0</ele><time>2026-05-02T09:02:21.873Z</time></trkpt><trkpt lat="40.6205133" lon="15.01101"><ele>387.5</ele><time>2026-05-02T09:02:22.873Z</time></trkpt><trkpt lat="40.6204967" lon="15.010925"><ele>387.0</ele><time>2026-05-02T09:02:23.872Z</time></trkpt><trkpt lat="40.6204683" lon="15.01077"><ele>386.49999999999994</ele><time>2026-05-02T09:02:25.873Z</time></trkpt><trkpt lat="40.6204433" lon="15.01062"><ele>386.0</ele><time>2026-05-02T09:02:27.872Z</time></trkpt><trkpt lat="40.62043" lon="15.010485"><ele>385.16666666666663</ele><time>2026-05-02T09:02:29.873Z</time></trkpt><trkpt lat="40.6204333" lon="15.0103817"><ele>384.3333333333333</ele><time>2026-05-02T09:02:31.872Z</time></trkpt><trkpt lat="40.62047" lon="15.010285"><ele>383.5</ele><time>2026-05-02T09:02:34.873Z</time></trkpt><trkpt lat="40.62054" lon="15.0102317"><ele>382.66666666666663</ele><time>2026-05-02T09:02:38.873Z</time></trkpt><trkpt lat="40.6206033" lon="15.0102167"><ele>381.8333333333333</ele><time>2026-05-02T09:02:40.873Z</time></trkpt><trkpt lat="40.6206917" lon="15.010185"><ele>381.0</ele><time>2026-05-02T09:02:43.873Z</time></trkpt><trkpt lat="40.6207683" lon="15.0101683"><ele>381.0</ele><time>2026-05-02T09:02:46.873Z</time></trkpt><trkpt lat="40.620835" lon="15.0101517"><ele>381.0</ele><time>2026-05-02T09:02:49.872Z</time></trkpt><trkpt lat="40.6209083" lon="15.0101317"><ele>381.0</ele><time>2026-05-02T09:02:52.873Z</time></trkpt><trkpt lat="40.6209817" lon="15.0101167"><ele>381.0</ele><time>2026-05-02T09:02:54.872Z</time></trkpt><trkpt lat="40.6210767" lon="15.01011"><ele>381.0</ele><time>2026-05-02T09:02:56.873Z</time></trkpt><trkpt lat="40.6211883" lon="15.0101133"><ele>381.0</ele><time>2026-05-02T09:02:58.873Z</time></trkpt><trkpt lat="40.6212517" lon="15.0101167"><ele>379.6</ele><time>2026-05-02T09:02:59.872Z</time></trkpt><trkpt lat="40.6213783" lon="15.0101133"><ele>378.20000000000005</ele><time>2026-05-02T09:03:01.873Z</time></trkpt><trkpt lat="40.62144" lon="15.010095"><ele>376.79999999999995</ele><time>2026-05-02T09:03:02.872Z</time></trkpt><trkpt lat="40.6215433" lon="15.0100183"><ele>375.4</ele><time>2026-05-02T09:03:04.873Z</time></trkpt><trkpt lat="40.6215917" lon="15.00996"><ele>374.0</ele><time>2026-05-02T09:03:05.873Z</time></trkpt><trkpt lat="40.6216467" lon="15.009885"><ele>373.5</ele><time>2026-05-02T09:03:06.872Z</time></trkpt><trkpt lat="40.6217167" lon="15.0098017"><ele>373.0</ele><time>2026-05-02T09:03:07.873Z</time></trkpt><trkpt lat="40.6217783" lon="15.00972"><ele>372.5</ele><time>2026-05-02T09:03:08.873Z</time></trkpt><trkpt lat="40.62184" lon="15.00965"><ele>372.0</ele><time>2026-05-02T09:03:09.873Z</time></trkpt><trkpt lat="40.621895" lon="15.0095883"><ele>371.5</ele><time>2026-05-02T09:03:10.873Z</time></trkpt><trkpt lat="40.621945" lon="15.009535"><ele>371.0</ele><time>2026-05-02T09:03:11.872Z</time></trkpt><trkpt lat="40.62203" lon="15.009435"><ele>371.0</ele><time>2026-05-02T09:03:13.873Z</time></trkpt><trkpt lat="40.62211" lon="15.0093367"><ele>371.0</ele><time>2026-05-02T09:03:15.872Z</time></trkpt><trkpt lat="40.6221983" lon="15.0092233"><ele>371.0</ele><time>2026-05-02T09:03:17.872Z</time></trkpt><trkpt lat="40.622245" lon="15.00916"><ele>371.0</ele><time>2026-05-02T09:03:18.873Z</time></trkpt><trkpt lat="40.6222967" lon="15.009095"><ele>371.0</ele><time>2026-05-02T09:03:19.872Z</time></trkpt><trkpt lat="40.6223467" lon="15.00902"><ele>371.0</ele><time>2026-05-02T09:03:20.873Z</time></trkpt><trkpt lat="40.6224" lon="15.0089433"><ele>370.33333333333337</ele><time>2026-05-02T09:03:21.873Z</time></trkpt><trkpt lat="40.622455" lon="15.008865"><ele>369.6666666666667</ele><time>2026-05-02T09:03:22.872Z</time></trkpt><trkpt lat="40.6225083" lon="15.0087833"><ele>369.0</ele><time>2026-05-02T09:03:23.873Z</time></trkpt><trkpt lat="40.6225517" lon="15.0086983"><ele>368.3333333333333</ele><time>2026-05-02T09:03:24.872Z</time></trkpt><trkpt lat="40.6225967" lon="15.0086133"><ele>367.66666666666663</ele><time>2026-05-02T09:03:25.873Z</time></trkpt><trkpt lat="40.6226367" lon="15.008535"><ele>367.0</ele><time>2026-05-02T09:03:26.873Z</time></trkpt><trkpt lat="40.6227117" lon="15.0084267"><ele>367.0</ele><time>2026-05-02T09:03:28.872Z</time></trkpt><trkpt lat="40.6227617" lon="15.0083583"><ele>367.0</ele><time>2026-05-02T09:03:31.873Z</time></trkpt><trkpt lat="40.6227683" lon="15.008245"><ele>367.0</ele><time>2026-05-02T09:03:34.872Z</time></trkpt><trkpt lat="40.6227517" lon="15.0080933"><ele>367.0</ele><time>2026-05-02T09:03:36.871Z</time></trkpt><trkpt lat="40.6227433" lon="15.007985"><ele>367.0</ele><time>2026-05-02T09:03:37.871Z</time></trkpt><trkpt lat="40.6227367" lon="15.007865"><ele>367.0</ele><time>2026-05-02T09:03:38.872Z</time></trkpt><trkpt lat="40.622725" lon="15.0077367"><ele>366.3333333333333</ele><time>2026-05-02T09:03:39.871Z</time></trkpt><trkpt lat="40.6227183" lon="15.0076183"><ele>365.66666666666663</ele><time>2026-05-02T09:03:40.872Z</time></trkpt><trkpt lat="40.6227" lon="15.007515"><ele>365.0</ele><time>2026-05-02T09:03:41.871Z</time></trkpt><trkpt lat="40.622695" lon="15.007415"><ele>364.3333333333333</ele><time>2026-05-02T09:03:42.871Z</time></trkpt><trkpt lat="40.62269" lon="15.0073183"><ele>363.6666666666667</ele><time>2026-05-02T09:03:43.871Z</time></trkpt><trkpt lat="40.6226867" lon="15.007225"><ele>363.0</ele><time>2026-05-02T09:03:44.872Z</time></trkpt><trkpt lat="40.62268" lon="15.0071417"><ele>361.79999999999995</ele><time>2026-05-02T09:03:45.872Z</time></trkpt><trkpt lat="40.6226767" lon="15.0070533"><ele>360.6</ele><time>2026-05-02T09:03:46.871Z</time></trkpt><trkpt lat="40.6226633" lon="15.006895"><ele>359.4</ele><time>2026-05-02T09:03:48.872Z</time></trkpt><trkpt lat="40.6226633" lon="15.0067317"><ele>358.20000000000005</ele><time>2026-05-02T09:03:50.872Z</time></trkpt><trkpt lat="40.62267" lon="15.0065817"><ele>357.0</ele><time>2026-05-02T09:03:52.872Z</time></trkpt><trkpt lat="40.6226667" lon="15.0064583"><ele>356.20000000000005</ele><time>2026-05-02T09:03:54.871Z</time></trkpt><trkpt lat="40.62268" lon="15.0063617"><ele>355.4</ele><time>2026-05-02T09:03:56.872Z</time></trkpt><trkpt lat="40.6226917" lon="15.00626"><ele>354.6</ele><time>2026-05-02T09:03:59.872Z</time></trkpt><trkpt lat="40.62271" lon="15.0061267"><ele>353.79999999999995</ele><time>2026-05-02T09:04:09.872Z</time></trkpt><trkpt lat="40.6227233" lon="15.0060017"><ele>353.0</ele><time>2026-05-02T09:04:11.871Z</time></trkpt><trkpt lat="40.6227417" lon="15.0058633"><ele>353.59999999999997</ele><time>2026-05-02T09:04:13.871Z</time></trkpt><trkpt lat="40.6227567" lon="15.0057367"><ele>354.2</ele><time>2026-05-02T09:04:15.871Z</time></trkpt><trkpt lat="40.6227767" lon="15.005605"><ele>354.8</ele><time>2026-05-02T09:04:17.872Z</time></trkpt><trkpt lat="40.6227967" lon="15.0054817"><ele>355.4</ele><time>2026-05-02T09:04:19.871Z</time></trkpt><trkpt lat="40.62281" lon="15.0053633"><ele>356.0</ele><time>2026-05-02T09:04:21.871Z</time></trkpt><trkpt lat="40.6228217" lon="15.00525"><ele>356.0</ele><time>2026-05-02T09:04:23.871Z</time></trkpt><trkpt lat="40.6228317" lon="15.0051483"><ele>356.0</ele><time>2026-05-02T09:04:25.871Z</time></trkpt><trkpt lat="40.62285" lon="15.00505"><ele>356.0</ele><time>2026-05-02T09:04:27.872Z</time></trkpt><trkpt lat="40.6228683" lon="15.0049433"><ele>356.0</ele><time>2026-05-02T09:04:29.872Z</time></trkpt><trkpt lat="40.622895" lon="15.00484"><ele>356.0</ele><time>2026-05-02T09:04:31.872Z</time></trkpt><trkpt lat="40.6229417" lon="15.0047533"><ele>356.0</ele><time>2026-05-02T09:04:33.872Z</time></trkpt><trkpt lat="40.6229867" lon="15.0046767"><ele>355.2857142857143</ele><time>2026-05-02T09:04:35.871Z</time></trkpt><trkpt lat="40.6230383" lon="15.0046117"><ele>354.57142857142856</ele><time>2026-05-02T09:04:37.871Z</time></trkpt><trkpt lat="40.623095" lon="15.0045633"><ele>353.8571428571429</ele><time>2026-05-02T09:04:39.872Z</time></trkpt><trkpt lat="40.6231683" lon="15.00453"><ele>353.1428571428571</ele><time>2026-05-02T09:04:43.872Z</time></trkpt><trkpt lat="40.6232317" lon="15.00454"><ele>352.42857142857144</ele><time>2026-05-02T09:04:46.872Z</time></trkpt><trkpt lat="40.623295" lon="15.0045617"><ele>351.7142857142857</ele><time>2026-05-02T09:04:48.871Z</time></trkpt><trkpt lat="40.6233733" lon="15.004595"><ele>351.0</ele><time>2026-05-02T09:04:50.871Z</time></trkpt><trkpt lat="40.623455" lon="15.0046283"><ele>351.0</ele><time>2026-05-02T09:04:52.871Z</time></trkpt><trkpt lat="40.623525" lon="15.004675"><ele>351.0</ele><time>2026-05-02T09:04:54.871Z</time></trkpt><trkpt lat="40.6235817" lon="15.0047283"><ele>351.0</ele><time>2026-05-02T09:04:56.871Z</time></trkpt><trkpt lat="40.6236383" lon="15.004775"><ele>351.0</ele><time>2026-05-02T09:04:59.871Z</time></trkpt><trkpt lat="40.6236317" lon="15.004685"><ele>351.0</ele><time>2026-05-02T09:05:19.872Z</time></trkpt><trkpt lat="40.6235583" lon="15.0046483"><ele>351.0</ele><time>2026-05-02T09:05:21.872Z</time></trkpt><trkpt lat="40.6234567" lon="15.0046217"><ele>351.0</ele><time>2026-05-02T09:05:23.872Z</time></trkpt><trkpt lat="40.6233617" lon="15.0045883"><ele>351.0</ele><time>2026-05-02T09:05:25.871Z</time></trkpt><trkpt lat="40.62326" lon="15.004555"><ele>351.0</ele><time>2026-05-02T09:05:27.872Z</time></trkpt><trkpt lat="40.6231633" lon="15.0045483"><ele>351.0</ele><time>2026-05-02T09:05:29.872Z</time></trkpt><trkpt lat="40.6230767" lon="15.00458"><ele>351.0</ele><time>2026-05-02T09:05:31.871Z</time></trkpt><trkpt lat="40.62299" lon="15.0046617"><ele>351.0</ele><time>2026-05-02T09:05:33.872Z</time></trkpt><trkpt lat="40.6229117" lon="15.0047667"><ele>351.0</ele><time>2026-05-02T09:05:35.872Z</time></trkpt><trkpt lat="40.6228533" lon="15.004905"><ele>351.0</ele><time>2026-05-02T09:05:37.871Z</time></trkpt><trkpt lat="40.6228233" lon="15.005075"><ele>351.0</ele><time>2026-05-02T09:05:39.871Z</time></trkpt><trkpt lat="40.62281" lon="15.0051767"><ele>351.0</ele><time>2026-05-02T09:05:40.872Z</time></trkpt><trkpt lat="40.622795" lon="15.0052833"><ele>350.7142857142857</ele><time>2026-05-02T09:05:41.871Z</time></trkpt><trkpt lat="40.6227817" lon="15.005385"><ele>350.42857142857144</ele><time>2026-05-02T09:05:42.871Z</time></trkpt><trkpt lat="40.6227733" lon="15.0054833"><ele>350.1428571428571</ele><time>2026-05-02T09:05:43.872Z</time></trkpt><trkpt lat="40.622765" lon="15.0055817"><ele>349.8571428571429</ele><time>2026-05-02T09:05:44.872Z</time></trkpt><trkpt lat="40.6227517" lon="15.0056767"><ele>349.57142857142856</ele><time>2026-05-02T09:05:45.872Z</time></trkpt><trkpt lat="40.6227383" lon="15.0057683"><ele>349.2857142857143</ele><time>2026-05-02T09:05:46.871Z</time></trkpt><trkpt lat="40.622725" lon="15.00586"><ele>349.0</ele><time>2026-05-02T09:05:47.871Z</time></trkpt><trkpt lat="40.622715" lon="15.00595"><ele>349.66666666666663</ele><time>2026-05-02T09:05:48.872Z</time></trkpt><trkpt lat="40.6227067" lon="15.00605"><ele>350.3333333333333</ele><time>2026-05-02T09:05:49.872Z</time></trkpt><trkpt lat="40.62269" lon="15.0061583"><ele>351.0</ele><time>2026-05-02T09:05:50.871Z</time></trkpt><trkpt lat="40.6226733" lon="15.006275"><ele>351.6666666666667</ele><time>2026-05-02T09:05:51.872Z</time></trkpt><trkpt lat="40.6226633" lon="15.0063933"><ele>352.33333333333337</ele><time>2026-05-02T09:05:52.871Z</time></trkpt><trkpt lat="40.6226483" lon="15.0065033"><ele>353.0</ele><time>2026-05-02T09:05:53.872Z</time></trkpt><trkpt lat="40.6226367" lon="15.0066033"><ele>353.6666666666667</ele><time>2026-05-02T09:05:54.872Z</time></trkpt><trkpt lat="40.622625" lon="15.0067017"><ele>354.33333333333337</ele><time>2026-05-02T09:05:55.872Z</time></trkpt><trkpt lat="40.6226283" lon="15.0067983"><ele>355.0</ele><time>2026-05-02T09:05:56.872Z</time></trkpt><trkpt lat="40.6226383" lon="15.0068967"><ele>355.6666666666667</ele><time>2026-05-02T09:05:57.872Z</time></trkpt><trkpt lat="40.62264" lon="15.0069967"><ele>356.3333333333333</ele><time>2026-05-02T09:05:58.871Z</time></trkpt><trkpt lat="40.622645" lon="15.0071117"><ele>357.0</ele><time>2026-05-02T09:05:59.871Z</time></trkpt><trkpt lat="40.6226483" lon="15.0072333"><ele>357.0</ele><time>2026-05-02T09:06:00.872Z</time></trkpt><trkpt lat="40.6226583" lon="15.0073567"><ele>357.0</ele><time>2026-05-02T09:06:01.871Z</time></trkpt><trkpt lat="40.6226733" lon="15.0074833"><ele>357.0</ele><time>2026-05-02T09:06:02.872Z</time></trkpt><trkpt lat="40.6226883" lon="15.00761"><ele>357.0</ele><time>2026-05-02T09:06:03.872Z</time></trkpt><trkpt lat="40.6226933" lon="15.0077267"><ele>357.0</ele><time>2026-05-02T09:06:04.872Z</time></trkpt><trkpt lat="40.6227067" lon="15.0078383"><ele>358.0</ele><time>2026-05-02T09:06:05.871Z</time></trkpt><trkpt lat="40.6227117" lon="15.0079383"><ele>359.0</ele><time>2026-05-02T09:06:06.872Z</time></trkpt><trkpt lat="40.6227217" lon="15.0080333"><ele>360.0</ele><time>2026-05-02T09:06:07.872Z</time></trkpt><trkpt lat="40.62273" lon="15.00812"><ele>361.0</ele><time>2026-05-02T09:06:08.872Z</time></trkpt><trkpt lat="40.6227417" lon="15.0082067"><ele>362.0</ele><time>2026-05-02T09:06:09.871Z</time></trkpt><trkpt lat="40.6227367" lon="15.0083383"><ele>363.0</ele><time>2026-05-02T09:06:11.872Z</time></trkpt><trkpt lat="40.62269" lon="15.0084267"><ele>363.79999999999995</ele><time>2026-05-02T09:06:13.871Z</time></trkpt><trkpt lat="40.6226167" lon="15.0085433"><ele>364.6</ele><time>2026-05-02T09:06:39.872Z</time></trkpt><trkpt lat="40.62257" lon="15.0086317"><ele>365.4</ele><time>2026-05-02T09:06:40.871Z</time></trkpt><trkpt lat="40.62252" lon="15.008725"><ele>366.20000000000005</ele><time>2026-05-02T09:06:41.872Z</time></trkpt><trkpt lat="40.6224667" lon="15.0088233"><ele>367.0</ele><time>2026-05-02T09:06:42.872Z</time></trkpt><trkpt lat="40.622395" lon="15.0089233"><ele>367.0</ele><time>2026-05-02T09:06:43.872Z</time></trkpt><trkpt lat="40.6223217" lon="15.0090167"><ele>367.0</ele><time>2026-05-02T09:06:44.872Z</time></trkpt><trkpt lat="40.6222567" lon="15.00911"><ele>367.0</ele><time>2026-05-02T09:06:45.872Z</time></trkpt><trkpt lat="40.6221933" lon="15.0091967"><ele>367.0</ele><time>2026-05-02T09:06:46.872Z</time></trkpt><trkpt lat="40.62213" lon="15.0092767"><ele>367.0</ele><time>2026-05-02T09:06:47.871Z</time></trkpt><trkpt lat="40.622065" lon="15.0093583"><ele>366.6</ele><time>2026-05-02T09:06:48.872Z</time></trkpt><trkpt lat="40.6219983" lon="15.0094367"><ele>366.20000000000005</ele><time>2026-05-02T09:06:49.871Z</time></trkpt><trkpt lat="40.6219283" lon="15.0095117"><ele>365.8</ele><time>2026-05-02T09:06:50.871Z</time></trkpt><trkpt lat="40.621855" lon="15.0095917"><ele>365.4</ele><time>2026-05-02T09:06:51.872Z</time></trkpt><trkpt lat="40.6217817" lon="15.0096783"><ele>365.0</ele><time>2026-05-02T09:06:52.871Z</time></trkpt><trkpt lat="40.6217133" lon="15.0097667"><ele>365.0</ele><time>2026-05-02T09:06:53.871Z</time></trkpt><trkpt lat="40.6216467" lon="15.0098533"><ele>365.0</ele><time>2026-05-02T09:06:54.872Z</time></trkpt><trkpt lat="40.6215833" lon="15.0099283"><ele>365.0</ele><time>2026-05-02T09:06:55.871Z</time></trkpt><trkpt lat="40.6215167" lon="15.0100017"><ele>365.0</ele><time>2026-05-02T09:06:56.871Z</time></trkpt><trkpt lat="40.62146" lon="15.0100517"><ele>365.0</ele><time>2026-05-02T09:06:57.872Z</time></trkpt><trkpt lat="40.62134" lon="15.0101017"><ele>366.28571428571433</ele><time>2026-05-02T09:06:59.872Z</time></trkpt><trkpt lat="40.6212717" lon="15.0101067"><ele>367.57142857142856</ele><time>2026-05-02T09:07:00.872Z</time></trkpt><trkpt lat="40.6212" lon="15.0101"><ele>368.8571428571429</ele><time>2026-05-02T09:07:01.871Z</time></trkpt><trkpt lat="40.6211267" lon="15.01009"><ele>370.14285714285717</ele><time>2026-05-02T09:07:02.871Z</time></trkpt><trkpt lat="40.6210567" lon="15.01009"><ele>371.42857142857144</ele><time>2026-05-02T09:07:03.871Z</time></trkpt><trkpt lat="40.6209883" lon="15.0101033"><ele>372.7142857142857</ele><time>2026-05-02T09:07:04.871Z</time></trkpt><trkpt lat="40.620925" lon="15.0101167"><ele>374.0</ele><time>2026-05-02T09:07:05.871Z</time></trkpt><trkpt lat="40.6208533" lon="15.010135"><ele>375.1666666666667</ele><time>2026-05-02T09:07:06.872Z</time></trkpt><trkpt lat="40.6207733" lon="15.0101583"><ele>376.33333333333337</ele><time>2026-05-02T09:07:07.872Z</time></trkpt><trkpt lat="40.6207017" lon="15.010185"><ele>377.5</ele><time>2026-05-02T09:07:08.872Z</time></trkpt><trkpt lat="40.6206317" lon="15.0102067"><ele>378.6666666666667</ele><time>2026-05-02T09:07:09.872Z</time></trkpt><trkpt lat="40.620565" lon="15.0102283"><ele>379.8333333333333</ele><time>2026-05-02T09:07:10.871Z</time></trkpt><trkpt lat="40.6204767" lon="15.0102733"><ele>381.0</ele><time>2026-05-02T09:07:12.872Z</time></trkpt><trkpt lat="40.62041" lon="15.0103717"><ele>381.0</ele><time>2026-05-02T09:07:14.871Z</time></trkpt><trkpt lat="40.6203917" lon="15.0105017"><ele>381.0</ele><time>2026-05-02T09:07:16.871Z</time></trkpt><trkpt lat="40.620425" lon="15.0106483"><ele>381.0</ele><time>2026-05-02T09:07:18.871Z</time></trkpt><trkpt lat="40.6204483" lon="15.0107433"><ele>381.0</ele><time>2026-05-02T09:07:19.872Z</time></trkpt><trkpt lat="40.6204733" lon="15.0108667"><ele>381.0</ele><time>2026-05-02T09:07:20.872Z</time></trkpt><trkpt lat="40.6205033" lon="15.0110167"><ele>382.25</ele><time>2026-05-02T09:07:21.871Z</time></trkpt><trkpt lat="40.6205333" lon="15.01118"><ele>383.5</ele><time>2026-05-02T09:07:22.872Z</time></trkpt><trkpt lat="40.6205667" lon="15.01134"><ele>384.75</ele><time>2026-05-02T09:07:23.871Z</time></trkpt><trkpt lat="40.6205933" lon="15.01148"><ele>386.0</ele><time>2026-05-02T09:07:24.872Z</time></trkpt><trkpt lat="40.6206083" lon="15.011605"><ele>386.49999999999994</ele><time>2026-05-02T09:07:25.871Z</time></trkpt><trkpt lat="40.6206233" lon="15.0117167"><ele>387.0</ele><time>2026-05-02T09:07:26.871Z</time></trkpt><trkpt lat="40.6206417" lon="15.0118267"><ele>387.5</ele><time>2026-05-02T09:07:27.872Z</time></trkpt><trkpt lat="40.62066" lon="15.0119367"><ele>388.0</ele><time>2026-05-02T09:07:28.872Z</time></trkpt><trkpt lat="40.620675" lon="15.0120433"><ele>388.49999999999994</ele><time>2026-05-02T09:07:29.872Z</time></trkpt><trkpt lat="40.6206917" lon="15.0121517"><ele>389.0</ele><time>2026-05-02T09:07:30.871Z</time></trkpt><trkpt lat="40.620705" lon="15.0122533"><ele>388.99999999999994</ele><time>2026-05-02T09:07:31.871Z</time></trkpt><trkpt lat="40.6207167" lon="15.01236"><ele>389.0</ele><time>2026-05-02T09:07:32.871Z</time></trkpt><trkpt lat="40.620735" lon="15.0124667"><ele>389.0</ele><time>2026-05-02T09:07:33.871Z</time></trkpt><trkpt lat="40.620755" lon="15.012575"><ele>389.0</ele><time>2026-05-02T09:07:34.871Z</time></trkpt><trkpt lat="40.6207767" lon="15.0126783"><ele>388.99999999999994</ele><time>2026-05-02T09:07:35.872Z</time></trkpt><trkpt lat="40.620805" lon="15.0127867"><ele>389.0</ele><time>2026-05-02T09:07:36.872Z</time></trkpt><trkpt lat="40.6208333" lon="15.01289"><ele>389.3333333333333</ele><time>2026-05-02T09:07:37.872Z</time></trkpt><trkpt lat="40.62087" lon="15.0129883"><ele>389.66666666666663</ele><time>2026-05-02T09:07:38.872Z</time></trkpt><trkpt lat="40.62091" lon="15.0130867"><ele>390.0</ele><time>2026-05-02T09:07:39.872Z</time></trkpt><trkpt lat="40.620955" lon="15.0131883"><ele>390.33333333333337</ele><time>2026-05-02T09:07:40.872Z</time></trkpt><trkpt lat="40.6210017" lon="15.013295"><ele>390.6666666666667</ele><time>2026-05-02T09:07:41.872Z</time></trkpt><trkpt lat="40.62105" lon="15.0134"><ele>391.0</ele><time>2026-05-02T09:07:42.872Z</time></trkpt><trkpt lat="40.6210967" lon="15.01351"><ele>391.00000000000006</ele><time>2026-05-02T09:07:43.871Z</time></trkpt><trkpt lat="40.6211417" lon="15.0136117"><ele>391.0</ele><time>2026-05-02T09:07:44.872Z</time></trkpt><trkpt lat="40.6211817" lon="15.0137133"><ele>391.0</ele><time>2026-05-02T09:07:45.872Z</time></trkpt><trkpt lat="40.6212167" lon="15.0138067"><ele>391.0</ele><time>2026-05-02T09:07:46.872Z</time></trkpt><trkpt lat="40.621255" lon="15.0138967"><ele>391.00000000000006</ele><time>2026-05-02T09:07:47.872Z</time></trkpt><trkpt lat="40.6212833" lon="15.0139833"><ele>391.0</ele><time>2026-05-02T09:07:48.872Z</time></trkpt><trkpt lat="40.6213217" lon="15.0141317"><ele>392.4</ele><time>2026-05-02T09:07:50.872Z</time></trkpt><trkpt lat="40.6213533" lon="15.0142733"><ele>393.8</ele><time>2026-05-02T09:07:52.871Z</time></trkpt><trkpt lat="40.6214117" lon="15.0143817"><ele>395.2</ele><time>2026-05-02T09:07:54.871Z</time></trkpt><trkpt lat="40.621495" lon="15.0144583"><ele>396.59999999999997</ele><time>2026-05-02T09:07:56.871Z</time></trkpt><trkpt lat="40.62159" lon="15.01452"><ele>398.0</ele><time>2026-05-02T09:07:58.871Z</time></trkpt><trkpt lat="40.6216883" lon="15.014595"><ele>398.0</ele><time>2026-05-02T09:08:00.872Z</time></trkpt><trkpt lat="40.6217717" lon="15.01468"><ele>398.0</ele><time>2026-05-02T09:08:02.871Z</time></trkpt><trkpt lat="40.62185" lon="15.0147567"><ele>398.0</ele><time>2026-05-02T09:08:04.872Z</time></trkpt><trkpt lat="40.62194" lon="15.0148067"><ele>398.0</ele><time>2026-05-02T09:08:06.871Z</time></trkpt><trkpt lat="40.62203" lon="15.0148467"><ele>398.0</ele><time>2026-05-02T09:08:08.872Z</time></trkpt><trkpt lat="40.6221167" lon="15.0148933"><ele>397.8333333333333</ele><time>2026-05-02T09:08:10.871Z</time></trkpt><trkpt lat="40.622195" lon="15.0149433"><ele>397.66666666666663</ele><time>2026-05-02T09:08:12.872Z</time></trkpt><trkpt lat="40.6222667" lon="15.0149967"><ele>397.5</ele><time>2026-05-02T09:08:14.872Z</time></trkpt><trkpt lat="40.6223183" lon="15.01505"><ele>397.33333333333337</ele><time>2026-05-02T09:08:16.872Z</time></trkpt><trkpt lat="40.6223883" lon="15.0150617"><ele>397.1666666666667</ele><time>2026-05-02T09:08:19.872Z</time></trkpt><trkpt lat="40.6224717" lon="15.0150533"><ele>397.0</ele><time>2026-05-02T09:08:23.872Z</time></trkpt><trkpt lat="40.622545" lon="15.0150517"><ele>396.83333333333337</ele><time>2026-05-02T09:11:43.871Z</time></trkpt><trkpt lat="40.6226283" lon="15.0150767"><ele>396.6666666666667</ele><time>2026-05-02T09:11:46.871Z</time></trkpt><trkpt lat="40.6226867" lon="15.015135"><ele>396.5</ele><time>2026-05-02T09:11:49.871Z</time></trkpt><trkpt lat="40.6227067" lon="15.0152367"><ele>396.33333333333337</ele><time>2026-05-02T09:11:52.87Z</time></trkpt><trkpt lat="40.6226733" lon="15.0153217"><ele>396.1666666666667</ele><time>2026-05-02T09:11:55.87Z</time></trkpt><trkpt lat="40.6225983" lon="15.0153983"><ele>396.0</ele><time>2026-05-02T09:11:58.87Z</time></trkpt><trkpt lat="40.6225417" lon="15.01546"><ele>396.0</ele><time>2026-05-02T09:12:00.871Z</time></trkpt><trkpt lat="40.6224917" lon="15.0155317"><ele>396.0</ele><time>2026-05-02T09:12:02.871Z</time></trkpt><trkpt lat="40.6224417" lon="15.0156"><ele>396.0</ele><time>2026-05-02T09:12:04.871Z</time></trkpt><trkpt lat="40.62238" lon="15.0156767"><ele>396.0</ele><time>2026-05-02T09:12:06.87Z</time></trkpt><trkpt lat="40.6223333" lon="15.0157833"><ele>396.0</ele><time>2026-05-02T09:12:09.87Z</time></trkpt><trkpt lat="40.6223167" lon="15.015865"><ele>396.0</ele><time>2026-05-02T09:12:11.871Z</time></trkpt><trkpt lat="40.6223083" lon="15.0159583"><ele>395.8333333333333</ele><time>2026-05-02T09:12:13.87Z</time></trkpt><trkpt lat="40.6222883" lon="15.01608"><ele>395.66666666666663</ele><time>2026-05-02T09:12:15.871Z</time></trkpt><trkpt lat="40.622275" lon="15.016195"><ele>395.5</ele><time>2026-05-02T09:12:17.871Z</time></trkpt><trkpt lat="40.622235" lon="15.016295"><ele>395.3333333333333</ele><time>2026-05-02T09:12:20.871Z</time></trkpt><trkpt lat="40.6221583" lon="15.0163467"><ele>395.16666666666663</ele><time>2026-05-02T09:12:23.87Z</time></trkpt><trkpt lat="40.6220917" lon="15.0163517"><ele>395.0</ele><time>2026-05-02T09:12:25.87Z</time></trkpt><trkpt lat="40.62201" lon="15.0163467"><ele>394.66666666666663</ele><time>2026-05-02T09:12:36.87Z</time></trkpt><trkpt lat="40.6219467" lon="15.0163717"><ele>394.3333333333333</ele><time>2026-05-02T09:12:38.87Z</time></trkpt><trkpt lat="40.6218983" lon="15.0164267"><ele>394.0</ele><time>2026-05-02T09:12:41.871Z</time></trkpt><trkpt lat="40.621905" lon="15.016535"><ele>393.66666666666663</ele><time>2026-05-02T09:12:44.871Z</time></trkpt><trkpt lat="40.6219333" lon="15.0166667"><ele>393.3333333333333</ele><time>2026-05-02T09:12:46.871Z</time></trkpt><trkpt lat="40.62197" lon="15.016825"><ele>393.0</ele><time>2026-05-02T09:12:48.87Z</time></trkpt><trkpt lat="40.6219917" lon="15.01691"><ele>393.0</ele><time>2026-05-02T09:12:49.87Z</time></trkpt><trkpt lat="40.6220267" lon="15.0170567"><ele>393.0</ele><time>2026-05-02T09:12:51.871Z</time></trkpt><trkpt lat="40.6220533" lon="15.0171833"><ele>393.0</ele><time>2026-05-02T09:12:53.87Z</time></trkpt><trkpt lat="40.62206" lon="15.0172817"><ele>393.0</ele><time>2026-05-02T09:12:55.87Z</time></trkpt><trkpt lat="40.6220167" lon="15.0173583"><ele>393.0</ele><time>2026-05-02T09:12:58.87Z</time></trkpt><trkpt lat="40.6219567" lon="15.017415"><ele>393.0</ele><time>2026-05-02T09:13:01.871Z</time></trkpt><trkpt lat="40.6218767" lon="15.0174217"><ele>392.0</ele><time>2026-05-02T09:13:03.871Z</time></trkpt><trkpt lat="40.6217683" lon="15.0173833"><ele>391.0</ele><time>2026-05-02T09:13:05.87Z</time></trkpt><trkpt lat="40.621705" lon="15.0173417"><ele>390.0</ele><time>2026-05-02T09:13:06.87Z</time></trkpt><trkpt lat="40.62164" lon="15.0172867"><ele>389.0</ele><time>2026-05-02T09:13:07.87Z</time></trkpt><trkpt lat="40.6215783" lon="15.0172217"><ele>388.0</ele><time>2026-05-02T09:13:08.871Z</time></trkpt><trkpt lat="40.6215217" lon="15.017145"><ele>387.0</ele><time>2026-05-02T09:13:09.871Z</time></trkpt><trkpt lat="40.62147" lon="15.017065"><ele>387.0</ele><time>2026-05-02T09:13:10.871Z</time></trkpt><trkpt lat="40.6214217" lon="15.0169733"><ele>387.0</ele><time>2026-05-02T09:13:11.87Z</time></trkpt><trkpt lat="40.6213633" lon="15.0168583"><ele>387.0</ele><time>2026-05-02T09:13:12.87Z</time></trkpt><trkpt lat="40.6212967" lon="15.0167367"><ele>387.0</ele><time>2026-05-02T09:13:13.87Z</time></trkpt><trkpt lat="40.6212433" lon="15.0166217"><ele>387.0</ele><time>2026-05-02T09:13:14.871Z</time></trkpt><trkpt lat="40.6211883" lon="15.0165233"><ele>385.7142857142857</ele><time>2026-05-02T09:13:15.871Z</time></trkpt><trkpt lat="40.6211433" lon="15.0164317"><ele>384.42857142857144</ele><time>2026-05-02T09:13:16.87Z</time></trkpt><trkpt lat="40.6210883" lon="15.0163683"><ele>383.1428571428571</ele><time>2026-05-02T09:13:17.871Z</time></trkpt><trkpt lat="40.6210333" lon="15.0163167"><ele>381.8571428571429</ele><time>2026-05-02T09:13:18.871Z</time></trkpt><trkpt lat="40.620975" lon="15.0162717"><ele>380.57142857142856</ele><time>2026-05-02T09:13:19.87Z</time></trkpt><trkpt lat="40.6209167" lon="15.01623"><ele>379.2857142857143</ele><time>2026-05-02T09:13:20.871Z</time></trkpt><trkpt lat="40.620855" lon="15.0161967"><ele>378.0</ele><time>2026-05-02T09:13:21.87Z</time></trkpt><trkpt lat="40.620795" lon="15.0161533"><ele>378.0</ele><time>2026-05-02T09:13:22.87Z</time></trkpt><trkpt lat="40.6207383" lon="15.0161083"><ele>378.0</ele><time>2026-05-02T09:13:23.87Z</time></trkpt><trkpt lat="40.6206833" lon="15.016045"><ele>378.0</ele><time>2026-05-02T09:13:24.871Z</time></trkpt><trkpt lat="40.62063" lon="15.015985"><ele>378.0</ele><time>2026-05-02T09:13:25.87Z</time></trkpt><trkpt lat="40.6205917" lon="15.0159167"><ele>378.0</ele><time>2026-05-02T09:13:26.87Z</time></trkpt><trkpt lat="40.6205517" lon="15.015825"><ele>378.0</ele><time>2026-05-02T09:13:27.87Z</time></trkpt><trkpt lat="40.62052" lon="15.01573"><ele>378.0</ele><time>2026-05-02T09:13:28.87Z</time></trkpt><trkpt lat="40.62049" lon="15.0156367"><ele>378.8333333333333</ele><time>2026-05-02T09:13:29.871Z</time></trkpt><trkpt lat="40.6204583" lon="15.0155483"><ele>379.6666666666667</ele><time>2026-05-02T09:13:30.87Z</time></trkpt><trkpt lat="40.6204283" lon="15.0154567"><ele>380.5</ele><time>2026-05-02T09:13:31.87Z</time></trkpt><trkpt lat="40.6204033" lon="15.015375"><ele>381.33333333333337</ele><time>2026-05-02T09:13:32.87Z</time></trkpt><trkpt lat="40.620345" lon="15.0152333"><ele>382.1666666666667</ele><time>2026-05-02T09:13:34.87Z</time></trkpt><trkpt lat="40.6203083" lon="15.015165"><ele>383.0</ele><time>2026-05-02T09:13:35.871Z</time></trkpt><trkpt lat="40.6202683" lon="15.0150967"><ele>379.5</ele><time>2026-05-02T09:13:36.871Z</time></trkpt><trkpt lat="40.62022" lon="15.01502"><ele>376.0</ele><time>2026-05-02T09:13:37.871Z</time></trkpt><trkpt lat="40.6201683" lon="15.0149417"><ele>372.5</ele><time>2026-05-02T09:13:38.87Z</time></trkpt><trkpt lat="40.6201167" lon="15.0148633"><ele>369.0</ele><time>2026-05-02T09:13:39.871Z</time></trkpt><trkpt lat="40.6200567" lon="15.0147883"><ele>365.5</ele><time>2026-05-02T09:13:40.871Z</time></trkpt><trkpt lat="40.6199967" lon="15.0147117"><ele>362.0</ele><time>2026-05-02T09:13:41.87Z</time></trkpt><trkpt lat="40.6199267" lon="15.0146417"><ele>362.0</ele><time>2026-05-02T09:13:42.871Z</time></trkpt><trkpt lat="40.6198567" lon="15.0145717"><ele>362.0</ele><time>2026-05-02T09:13:43.87Z</time></trkpt><trkpt lat="40.6197933" lon="15.0145133"><ele>362.0</ele><time>2026-05-02T09:13:44.87Z</time></trkpt><trkpt lat="40.6197383" lon="15.014455"><ele>362.0</ele><time>2026-05-02T09:13:45.87Z</time></trkpt><trkpt lat="40.61964" lon="15.014355"><ele>362.0</ele><time>2026-05-02T09:13:47.87Z</time></trkpt><trkpt lat="40.6195467" lon="15.01424"><ele>362.0</ele><time>2026-05-02T09:13:49.87Z</time></trkpt><trkpt lat="40.6194933" lon="15.01418"><ele>362.0</ele><time>2026-05-02T09:13:50.87Z</time></trkpt><trkpt lat="40.6194417" lon="15.0141217"><ele>362.0</ele><time>2026-05-02T09:13:51.87Z</time></trkpt><trkpt lat="40.6193883" lon="15.01405"><ele>362.0</ele><time>2026-05-02T09:13:52.87Z</time></trkpt><trkpt lat="40.6193433" lon="15.0139767"><ele>362.0</ele><time>2026-05-02T09:13:53.87Z</time></trkpt><trkpt lat="40.6193033" lon="15.0139033"><ele>362.0</ele><time>2026-05-02T09:13:54.871Z</time></trkpt><trkpt lat="40.6192733" lon="15.0138267"><ele>362.0</ele><time>2026-05-02T09:13:55.87Z</time></trkpt><trkpt lat="40.6192533" lon="15.0137467"><ele>358.20000000000005</ele><time>2026-05-02T09:13:56.871Z</time></trkpt><trkpt lat="40.61924" lon="15.0136633"><ele>354.4</ele><time>2026-05-02T09:13:57.87Z</time></trkpt><trkpt lat="40.619225" lon="15.013575"><ele>350.6</ele><time>2026-05-02T09:13:58.871Z</time></trkpt><trkpt lat="40.619205" lon="15.01341"><ele>346.79999999999995</ele><time>2026-05-02T09:14:00.871Z</time></trkpt><trkpt lat="40.619175" lon="15.0132683"><ele>343.0</ele><time>2026-05-02T09:14:02.871Z</time></trkpt><trkpt lat="40.61914" lon="15.0131733"><ele>343.0</ele><time>2026-05-02T09:14:04.871Z</time></trkpt><trkpt lat="40.6190567" lon="15.0130967"><ele>343.0</ele><time>2026-05-02T09:14:06.87Z</time></trkpt><trkpt lat="40.618995" lon="15.0130717"><ele>343.0</ele><time>2026-05-02T09:14:07.871Z</time></trkpt><trkpt lat="40.61892" lon="15.0130583"><ele>343.0</ele><time>2026-05-02T09:14:08.871Z</time></trkpt><trkpt lat="40.618835" lon="15.013055"><ele>343.0</ele><time>2026-05-02T09:14:09.871Z</time></trkpt><trkpt lat="40.6187433" lon="15.013055"><ele>343.0</ele><time>2026-05-02T09:14:10.87Z</time></trkpt><trkpt lat="40.618645" lon="15.0130567"><ele>339.59999999999997</ele><time>2026-05-02T09:14:11.871Z</time></trkpt><trkpt lat="40.61855" lon="15.013065"><ele>336.2</ele><time>2026-05-02T09:14:12.871Z</time></trkpt><trkpt lat="40.618455" lon="15.0130733"><ele>332.8</ele><time>2026-05-02T09:14:13.87Z</time></trkpt><trkpt lat="40.6183617" lon="15.01308"><ele>329.4</ele><time>2026-05-02T09:14:14.871Z</time></trkpt><trkpt lat="40.6182733" lon="15.013085"><ele>326.0</ele><time>2026-05-02T09:14:15.87Z</time></trkpt><trkpt lat="40.6181933" lon="15.0130883"><ele>326.0</ele><time>2026-05-02T09:14:16.871Z</time></trkpt><trkpt lat="40.6181167" lon="15.01309"><ele>326.0</ele><time>2026-05-02T09:14:17.871Z</time></trkpt><trkpt lat="40.61804" lon="15.0130867"><ele>326.0</ele><time>2026-05-02T09:14:18.87Z</time></trkpt><trkpt lat="40.6179583" lon="15.0130933"><ele>326.0</ele><time>2026-05-02T09:14:19.871Z</time></trkpt><trkpt lat="40.6178767" lon="15.0130983"><ele>326.0</ele><time>2026-05-02T09:14:20.87Z</time></trkpt><trkpt lat="40.6177983" lon="15.0131017"><ele>326.0</ele><time>2026-05-02T09:14:21.871Z</time></trkpt><trkpt lat="40.61772" lon="15.0131"><ele>325.6666666666667</ele><time>2026-05-02T09:14:22.87Z</time></trkpt><trkpt lat="40.61764" lon="15.0131033"><ele>325.33333333333337</ele><time>2026-05-02T09:14:23.87Z</time></trkpt><trkpt lat="40.617555" lon="15.0131033"><ele>325.0</ele><time>2026-05-02T09:14:24.87Z</time></trkpt><trkpt lat="40.6174667" lon="15.0131083"><ele>324.6666666666667</ele><time>2026-05-02T09:14:25.871Z</time></trkpt><trkpt lat="40.6173833" lon="15.0131183"><ele>324.3333333333333</ele><time>2026-05-02T09:14:26.871Z</time></trkpt><trkpt lat="40.6173117" lon="15.0131183"><ele>324.0</ele><time>2026-05-02T09:14:27.871Z</time></trkpt><trkpt lat="40.6172433" lon="15.0131183"><ele>324.0</ele><time>2026-05-02T09:14:28.871Z</time></trkpt><trkpt lat="40.617175" lon="15.0131233"><ele>324.0</ele><time>2026-05-02T09:14:29.871Z</time></trkpt><trkpt lat="40.6171033" lon="15.0131267"><ele>324.0</ele><time>2026-05-02T09:14:30.871Z</time></trkpt><trkpt lat="40.617025" lon="15.0131333"><ele>324.0</ele><time>2026-05-02T09:14:31.871Z</time></trkpt><trkpt lat="40.6169583" lon="15.01315"><ele>324.0</ele><time>2026-05-02T09:14:32.871Z</time></trkpt><trkpt lat="40.6168933" lon="15.013175"><ele>324.0</ele><time>2026-05-02T09:14:33.87Z</time></trkpt><trkpt lat="40.6168067" lon="15.0132767"><ele>324.5</ele><time>2026-05-02T09:14:35.871Z</time></trkpt><trkpt lat="40.6167917" lon="15.0134283"><ele>325.0</ele><time>2026-05-02T09:14:37.871Z</time></trkpt><trkpt lat="40.6168" lon="15.0135167"><ele>325.5</ele><time>2026-05-02T09:14:38.871Z</time></trkpt><trkpt lat="40.616805" lon="15.0136133"><ele>326.0</ele><time>2026-05-02T09:14:39.87Z</time></trkpt><trkpt lat="40.6168083" lon="15.0137167"><ele>326.5</ele><time>2026-05-02T09:14:40.871Z</time></trkpt><trkpt lat="40.6168133" lon="15.0138267"><ele>327.0</ele><time>2026-05-02T09:14:41.871Z</time></trkpt><trkpt lat="40.616815" lon="15.013945"><ele>327.0</ele><time>2026-05-02T09:14:42.871Z</time></trkpt><trkpt lat="40.61682" lon="15.0140717"><ele>327.0</ele><time>2026-05-02T09:14:43.87Z</time></trkpt><trkpt lat="40.61683" lon="15.01421"><ele>327.0</ele><time>2026-05-02T09:14:44.87Z</time></trkpt><trkpt lat="40.6168367" lon="15.0143733"><ele>327.0</ele><time>2026-05-02T09:14:45.87Z</time></trkpt><trkpt lat="40.6168467" lon="15.01456"><ele>326.0</ele><time>2026-05-02T09:14:46.87Z</time></trkpt><trkpt lat="40.616855" lon="15.014745"><ele>325.0</ele><time>2026-05-02T09:14:47.87Z</time></trkpt><trkpt lat="40.6168667" lon="15.014915"><ele>324.0</ele><time>2026-05-02T09:14:48.87Z</time></trkpt><trkpt lat="40.6168833" lon="15.0150783"><ele>323.0</ele><time>2026-05-02T09:14:49.871Z</time></trkpt><trkpt lat="40.6169033" lon="15.0152533"><ele>322.75</ele><time>2026-05-02T09:14:50.871Z</time></trkpt><trkpt lat="40.6169333" lon="15.0154317"><ele>322.5</ele><time>2026-05-02T09:14:51.871Z</time></trkpt><trkpt lat="40.6169617" lon="15.0155967"><ele>322.25</ele><time>2026-05-02T09:14:52.871Z</time></trkpt><trkpt lat="40.6169833" lon="15.01575"><ele>322.0</ele><time>2026-05-02T09:14:53.871Z</time></trkpt><trkpt lat="40.6170067" lon="15.0158833"><ele>321.66666666666663</ele><time>2026-05-02T09:14:54.871Z</time></trkpt><trkpt lat="40.617025" lon="15.0160133"><ele>321.3333333333333</ele><time>2026-05-02T09:14:55.87Z</time></trkpt><trkpt lat="40.6170433" lon="15.01613"><ele>321.0</ele><time>2026-05-02T09:14:56.87Z</time></trkpt><trkpt lat="40.6170517" lon="15.016235"><ele>320.6666666666667</ele><time>2026-05-02T09:14:57.871Z</time></trkpt><trkpt lat="40.6170483" lon="15.0163233"><ele>320.33333333333337</ele><time>2026-05-02T09:14:58.87Z</time></trkpt><trkpt lat="40.6170083" lon="15.0164217"><ele>320.0</ele><time>2026-05-02T09:15:00.871Z</time></trkpt><trkpt lat="40.616935" lon="15.0164583"><ele>320.0</ele><time>2026-05-02T09:15:02.871Z</time></trkpt><trkpt lat="40.6168433" lon="15.0164717"><ele>320.0</ele><time>2026-05-02T09:15:04.871Z</time></trkpt><trkpt lat="40.6167533" lon="15.0164767"><ele>320.0</ele><time>2026-05-02T09:15:06.871Z</time></trkpt><trkpt lat="40.61669" lon="15.0165133"><ele>320.0</ele><time>2026-05-02T09:15:08.871Z</time></trkpt><trkpt lat="40.61663" lon="15.0165583"><ele>320.0</ele><time>2026-05-02T09:15:10.87Z</time></trkpt><trkpt lat="40.6165567" lon="15.0166167"><ele>320.0</ele><time>2026-05-02T09:15:12.87Z</time></trkpt><trkpt lat="40.6164817" lon="15.0167017"><ele>319.4</ele><time>2026-05-02T09:15:14.87Z</time></trkpt><trkpt lat="40.616405" lon="15.016775"><ele>318.8</ele><time>2026-05-02T09:15:16.87Z</time></trkpt><trkpt lat="40.6163683" lon="15.0168617"><ele>318.2</ele><time>2026-05-02T09:15:18.871Z</time></trkpt><trkpt lat="40.6163733" lon="15.0169767"><ele>317.6</ele><time>2026-05-02T09:15:20.871Z</time></trkpt><trkpt lat="40.6164033" lon="15.0171567"><ele>317.0</ele><time>2026-05-02T09:15:22.871Z</time></trkpt><trkpt lat="40.6164133" lon="15.0172817"><ele>317.0</ele><time>2026-05-02T09:15:23.87Z</time></trkpt><trkpt lat="40.616425" lon="15.0174083"><ele>317.0</ele><time>2026-05-02T09:15:24.87Z</time></trkpt><trkpt lat="40.6164383" lon="15.0175167"><ele>317.0</ele><time>2026-05-02T09:15:25.871Z</time></trkpt><trkpt lat="40.6164517" lon="15.01761"><ele>317.0</ele><time>2026-05-02T09:15:26.871Z</time></trkpt><trkpt lat="40.6164783" lon="15.0177367"><ele>317.0</ele><time>2026-05-02T09:15:28.871Z</time></trkpt><trkpt lat="40.616555" lon="15.017795"><ele>317.0</ele><time>2026-05-02T09:15:30.871Z</time></trkpt><trkpt lat="40.6166833" lon="15.0178083"><ele>317.1666666666667</ele><time>2026-05-02T09:15:32.871Z</time></trkpt><trkpt lat="40.6167617" lon="15.0178083"><ele>317.33333333333337</ele><time>2026-05-02T09:15:33.871Z</time></trkpt><trkpt lat="40.61684" lon="15.0177983"><ele>317.5</ele><time>2026-05-02T09:15:34.87Z</time></trkpt><trkpt lat="40.6169117" lon="15.017785"><ele>317.6666666666667</ele><time>2026-05-02T09:15:35.87Z</time></trkpt><trkpt lat="40.6170167" lon="15.0178017"><ele>317.8333333333333</ele><time>2026-05-02T09:15:37.871Z</time></trkpt><trkpt lat="40.61708" lon="15.017895"><ele>318.0</ele><time>2026-05-02T09:15:39.871Z</time></trkpt><trkpt lat="40.6171017" lon="15.018045"><ele>318.0</ele><time>2026-05-02T09:15:41.871Z</time></trkpt><trkpt lat="40.6171083" lon="15.0181383"><ele>318.0</ele><time>2026-05-02T09:15:42.87Z</time></trkpt><trkpt lat="40.6171217" lon="15.018235"><ele>318.0</ele><time>2026-05-02T09:15:43.871Z</time></trkpt><trkpt lat="40.617135" lon="15.0183317"><ele>318.0</ele><time>2026-05-02T09:15:44.871Z</time></trkpt><trkpt lat="40.6171417" lon="15.0184283"><ele>318.0</ele><time>2026-05-02T09:15:45.871Z</time></trkpt><trkpt lat="40.6171367" lon="15.0185133"><ele>318.0</ele><time>2026-05-02T09:15:46.87Z</time></trkpt><trkpt lat="40.6171183" lon="15.0186617"><ele>317.5</ele><time>2026-05-02T09:15:48.869Z</time></trkpt><trkpt lat="40.617065" lon="15.0187667"><ele>317.0</ele><time>2026-05-02T09:15:50.87Z</time></trkpt><trkpt lat="40.6169583" lon="15.0188083"><ele>316.5</ele><time>2026-05-02T09:15:52.87Z</time></trkpt><trkpt lat="40.61688" lon="15.0188183"><ele>316.0</ele><time>2026-05-02T09:15:53.869Z</time></trkpt><trkpt lat="40.616805" lon="15.0188333"><ele>315.5</ele><time>2026-05-02T09:15:54.869Z</time></trkpt><trkpt lat="40.61674" lon="15.0188483"><ele>315.0</ele><time>2026-05-02T09:15:55.87Z</time></trkpt><trkpt lat="40.61663" lon="15.01888"><ele>314.6</ele><time>2026-05-02T09:15:57.87Z</time></trkpt><trkpt lat="40.6165567" lon="15.0189933"><ele>314.2</ele><time>2026-05-02T09:15:59.87Z</time></trkpt><trkpt lat="40.61656" lon="15.0191633"><ele>313.8</ele><time>2026-05-02T09:16:01.87Z</time></trkpt><trkpt lat="40.6165783" lon="15.0192767"><ele>313.4</ele><time>2026-05-02T09:16:02.87Z</time></trkpt><trkpt lat="40.6165983" lon="15.0194017"><ele>313.0</ele><time>2026-05-02T09:16:03.869Z</time></trkpt><trkpt lat="40.6166133" lon="15.0195367"><ele>312.8</ele><time>2026-05-02T09:16:04.87Z</time></trkpt><trkpt lat="40.61663" lon="15.01969"><ele>312.6</ele><time>2026-05-02T09:16:05.87Z</time></trkpt><trkpt lat="40.61665" lon="15.0198367"><ele>312.4</ele><time>2026-05-02T09:16:06.87Z</time></trkpt><trkpt lat="40.6166683" lon="15.0199683"><ele>312.2</ele><time>2026-05-02T09:16:07.87Z</time></trkpt><trkpt lat="40.61668" lon="15.0200867"><ele>312.0</ele><time>2026-05-02T09:16:08.869Z</time></trkpt><trkpt lat="40.6166883" lon="15.020185"><ele>311.8333333333333</ele><time>2026-05-02T09:16:09.869Z</time></trkpt><trkpt lat="40.6166983" lon="15.0202717"><ele>311.6666666666667</ele><time>2026-05-02T09:16:10.87Z</time></trkpt><trkpt lat="40.61671" lon="15.0203567"><ele>311.5</ele><time>2026-05-02T09:16:11.87Z</time></trkpt><trkpt lat="40.6167267" lon="15.0204367"><ele>311.33333333333337</ele><time>2026-05-02T09:16:12.869Z</time></trkpt><trkpt lat="40.6167467" lon="15.0205767"><ele>311.1666666666667</ele><time>2026-05-02T09:16:14.869Z</time></trkpt><trkpt lat="40.6167533" lon="15.02067"><ele>311.0</ele><time>2026-05-02T09:16:16.87Z</time></trkpt><trkpt lat="40.6167567" lon="15.0207967"><ele>310.0</ele><time>2026-05-02T09:16:19.87Z</time></trkpt><trkpt lat="40.6167733" lon="15.0209033"><ele>309.0</ele><time>2026-05-02T09:16:21.869Z</time></trkpt><trkpt lat="40.6167933" lon="15.0210333"><ele>308.0</ele><time>2026-05-02T09:16:23.87Z</time></trkpt><trkpt lat="40.61683" lon="15.0211433"><ele>307.0</ele><time>2026-05-02T09:16:26.87Z</time></trkpt><trkpt lat="40.616855" lon="15.0212567"><ele>306.0</ele><time>2026-05-02T09:16:29.87Z</time></trkpt><trkpt lat="40.6168567" lon="15.0213583"><ele>305.0</ele><time>2026-05-02T09:16:32.87Z</time></trkpt><trkpt lat="40.61684" lon="15.0214767"><ele>305.0</ele><time>2026-05-02T09:16:34.869Z</time></trkpt><trkpt lat="40.61685" lon="15.0216217"><ele>305.0</ele><time>2026-05-02T09:16:36.87Z</time></trkpt><trkpt lat="40.6168633" lon="15.0217117"><ele>305.0</ele><time>2026-05-02T09:16:37.87Z</time></trkpt><trkpt lat="40.61688" lon="15.021825"><ele>305.0</ele><time>2026-05-02T09:16:38.87Z</time></trkpt><trkpt lat="40.6168967" lon="15.0219583"><ele>305.0</ele><time>2026-05-02T09:16:39.87Z</time></trkpt><trkpt lat="40.616915" lon="15.0221117"><ele>304.0</ele><time>2026-05-02T09:16:40.87Z</time></trkpt><trkpt lat="40.6169333" lon="15.0222433"><ele>303.0</ele><time>2026-05-02T09:16:41.869Z</time></trkpt><trkpt lat="40.6169467" lon="15.0223583"><ele>302.0</ele><time>2026-05-02T09:16:42.869Z</time></trkpt><trkpt lat="40.6169617" lon="15.0224667"><ele>301.0</ele><time>2026-05-02T09:16:43.869Z</time></trkpt><trkpt lat="40.6169783" lon="15.0225833"><ele>300.0</ele><time>2026-05-02T09:16:44.869Z</time></trkpt><trkpt lat="40.617" lon="15.0227183"><ele>300.0</ele><time>2026-05-02T09:16:45.87Z</time></trkpt><trkpt lat="40.617025" lon="15.0228717"><ele>300.0</ele><time>2026-05-02T09:16:46.87Z</time></trkpt><trkpt lat="40.617045" lon="15.02301"><ele>300.0</ele><time>2026-05-02T09:16:47.87Z</time></trkpt><trkpt lat="40.6170633" lon="15.023145"><ele>300.0</ele><time>2026-05-02T09:16:48.87Z</time></trkpt><trkpt lat="40.617085" lon="15.0232867"><ele>300.0</ele><time>2026-05-02T09:16:49.869Z</time></trkpt><trkpt lat="40.61711" lon="15.0234333"><ele>299.8</ele><time>2026-05-02T09:16:50.869Z</time></trkpt><trkpt lat="40.6171333" lon="15.0235817"><ele>299.6</ele><time>2026-05-02T09:16:51.869Z</time></trkpt><trkpt lat="40.617155" lon="15.0237267"><ele>299.4</ele><time>2026-05-02T09:16:52.87Z</time></trkpt><trkpt lat="40.6171783" lon="15.0238683"><ele>299.2</ele><time>2026-05-02T09:16:53.87Z</time></trkpt><trkpt lat="40.6172033" lon="15.024005"><ele>299.0</ele><time>2026-05-02T09:16:54.87Z</time></trkpt><trkpt lat="40.6172267" lon="15.0241383"><ele>298.5</ele><time>2026-05-02T09:16:55.87Z</time></trkpt><trkpt lat="40.61725" lon="15.0242733"><ele>298.0</ele><time>2026-05-02T09:16:56.869Z</time></trkpt><trkpt lat="40.6172783" lon="15.0244217"><ele>297.5</ele><time>2026-05-02T09:16:57.87Z</time></trkpt><trkpt lat="40.6173033" lon="15.02457"><ele>297.0</ele><time>2026-05-02T09:16:58.87Z</time></trkpt><trkpt lat="40.617325" lon="15.02472"><ele>297.0</ele><time>2026-05-02T09:16:59.87Z</time></trkpt><trkpt lat="40.61735" lon="15.0248683"><ele>297.0</ele><time>2026-05-02T09:17:00.869Z</time></trkpt><trkpt lat="40.6173717" lon="15.0250217"><ele>297.0</ele><time>2026-05-02T09:17:01.869Z</time></trkpt><trkpt lat="40.6173933" lon="15.0251633"><ele>297.0</ele><time>2026-05-02T09:17:02.869Z</time></trkpt><trkpt lat="40.6174117" lon="15.025285"><ele>297.0</ele><time>2026-05-02T09:17:03.869Z</time></trkpt><trkpt lat="40.61743" lon="15.0254033"><ele>296.2</ele><time>2026-05-02T09:17:04.87Z</time></trkpt><trkpt lat="40.6174483" lon="15.0255283"><ele>295.4</ele><time>2026-05-02T09:17:05.869Z</time></trkpt><trkpt lat="40.6174717" lon="15.02565"><ele>294.6</ele><time>2026-05-02T09:17:06.87Z</time></trkpt><trkpt lat="40.617495" lon="15.025775"><ele>293.8</ele><time>2026-05-02T09:17:07.869Z</time></trkpt><trkpt lat="40.6175133" lon="15.0259"><ele>293.0</ele><time>2026-05-02T09:17:08.869Z</time></trkpt><trkpt lat="40.6175317" lon="15.0260167"><ele>292.1666666666667</ele><time>2026-05-02T09:17:09.87Z</time></trkpt><trkpt lat="40.6175517" lon="15.02613"><ele>291.33333333333337</ele><time>2026-05-02T09:17:10.869Z</time></trkpt><trkpt lat="40.617575" lon="15.0262383"><ele>290.5</ele><time>2026-05-02T09:17:11.869Z</time></trkpt><trkpt lat="40.6176033" lon="15.0263433"><ele>289.6666666666667</ele><time>2026-05-02T09:17:12.869Z</time></trkpt><trkpt lat="40.6176333" lon="15.02645"><ele>288.8333333333333</ele><time>2026-05-02T09:17:13.87Z</time></trkpt><trkpt lat="40.6176567" lon="15.0265467"><ele>288.0</ele><time>2026-05-02T09:17:14.869Z</time></trkpt><trkpt lat="40.6176783" lon="15.0266317"><ele>286.8</ele><time>2026-05-02T09:17:15.869Z</time></trkpt><trkpt lat="40.617715" lon="15.0267883"><ele>285.6</ele><time>2026-05-02T09:17:17.87Z</time></trkpt><trkpt lat="40.617755" lon="15.0269533"><ele>284.4</ele><time>2026-05-02T09:17:19.869Z</time></trkpt><trkpt lat="40.6177817" lon="15.0270483"><ele>283.2</ele><time>2026-05-02T09:17:20.87Z</time></trkpt><trkpt lat="40.6178083" lon="15.0271383"><ele>282.0</ele><time>2026-05-02T09:17:21.87Z</time></trkpt><trkpt lat="40.6178317" lon="15.0272217"><ele>281.6666666666667</ele><time>2026-05-02T09:17:22.869Z</time></trkpt><trkpt lat="40.6178717" lon="15.02737"><ele>281.3333333333333</ele><time>2026-05-02T09:17:24.869Z</time></trkpt><trkpt lat="40.617895" lon="15.0274533"><ele>281.0</ele><time>2026-05-02T09:17:25.87Z</time></trkpt><trkpt lat="40.6179133" lon="15.02754"><ele>280.66666666666663</ele><time>2026-05-02T09:17:26.869Z</time></trkpt><trkpt lat="40.61793" lon="15.02763"><ele>280.3333333333333</ele><time>2026-05-02T09:17:27.87Z</time></trkpt><trkpt lat="40.6179517" lon="15.0277183"><ele>280.0</ele><time>2026-05-02T09:17:28.869Z</time></trkpt><trkpt lat="40.61797" lon="15.0277983"><ele>279.16666666666663</ele><time>2026-05-02T09:17:29.869Z</time></trkpt><trkpt lat="40.6179917" lon="15.0278783"><ele>278.3333333333333</ele><time>2026-05-02T09:17:30.869Z</time></trkpt><trkpt lat="40.6180133" lon="15.02796"><ele>277.5</ele><time>2026-05-02T09:17:31.87Z</time></trkpt><trkpt lat="40.6180483" lon="15.0281183"><ele>276.6666666666667</ele><time>2026-05-02T09:17:33.869Z</time></trkpt><trkpt lat="40.618065" lon="15.0282"><ele>275.83333333333337</ele><time>2026-05-02T09:17:34.869Z</time></trkpt><trkpt lat="40.6180967" lon="15.02836"><ele>275.0</ele><time>2026-05-02T09:17:36.869Z</time></trkpt><trkpt lat="40.6181167" lon="15.0284433"><ele>274.83333333333337</ele><time>2026-05-02T09:17:37.869Z</time></trkpt><trkpt lat="40.6181467" lon="15.028525"><ele>274.6666666666667</ele><time>2026-05-02T09:17:38.87Z</time></trkpt><trkpt lat="40.618175" lon="15.0286133"><ele>274.5</ele><time>2026-05-02T09:17:39.869Z</time></trkpt><trkpt lat="40.6182083" lon="15.0287117"><ele>274.3333333333333</ele><time>2026-05-02T09:17:40.869Z</time></trkpt><trkpt lat="40.6182433" lon="15.028815"><ele>274.16666666666663</ele><time>2026-05-02T09:17:41.869Z</time></trkpt><trkpt lat="40.61828" lon="15.0289267"><ele>274.0</ele><time>2026-05-02T09:17:42.87Z</time></trkpt><trkpt lat="40.618315" lon="15.0290383"><ele>273.0</ele><time>2026-05-02T09:17:43.87Z</time></trkpt><trkpt lat="40.6183483" lon="15.0291433"><ele>272.0</ele><time>2026-05-02T09:17:44.869Z</time></trkpt><trkpt lat="40.6183783" lon="15.0292417"><ele>271.0</ele><time>2026-05-02T09:17:45.869Z</time></trkpt><trkpt lat="40.6184067" lon="15.0293333"><ele>270.0</ele><time>2026-05-02T09:17:46.869Z</time></trkpt><trkpt lat="40.618435" lon="15.0294183"><ele>269.0</ele><time>2026-05-02T09:17:47.869Z</time></trkpt><trkpt lat="40.6184617" lon="15.0295"><ele>268.0</ele><time>2026-05-02T09:17:48.869Z</time></trkpt><trkpt lat="40.6185" lon="15.0296467"><ele>268.0</ele><time>2026-05-02T09:17:50.87Z</time></trkpt><trkpt lat="40.6185433" lon="15.02978"><ele>268.0</ele><time>2026-05-02T09:17:52.87Z</time></trkpt><trkpt lat="40.61858" lon="15.029895"><ele>268.0</ele><time>2026-05-02T09:17:54.869Z</time></trkpt><trkpt lat="40.618615" lon="15.029985"><ele>268.0</ele><time>2026-05-02T09:17:56.869Z</time></trkpt><trkpt lat="40.6186433" lon="15.0300717"><ele>268.0</ele><time>2026-05-02T09:17:58.87Z</time></trkpt><trkpt lat="40.6186717" lon="15.030175"><ele>268.0</ele><time>2026-05-02T09:18:01.869Z</time></trkpt><trkpt lat="40.6186833" lon="15.0302833"><ele>265.5</ele><time>2026-05-02T09:18:04.869Z</time></trkpt><trkpt lat="40.61868" lon="15.030375"><ele>263.0</ele><time>2026-05-02T09:18:07.87Z</time></trkpt><trkpt lat="40.6186883" lon="15.0304967"><ele>260.5</ele><time>2026-05-02T09:18:10.87Z</time></trkpt><trkpt lat="40.618705" lon="15.03061"><ele>258.0</ele><time>2026-05-02T09:18:12.869Z</time></trkpt><trkpt lat="40.618715" lon="15.0307317"><ele>255.49999999999997</ele><time>2026-05-02T09:18:14.869Z</time></trkpt><trkpt lat="40.6187183" lon="15.0308517"><ele>253.0</ele><time>2026-05-02T09:18:16.87Z</time></trkpt><trkpt lat="40.61872" lon="15.0309767"><ele>252.66666666666666</ele><time>2026-05-02T09:18:18.87Z</time></trkpt><trkpt lat="40.618725" lon="15.031115"><ele>252.33333333333331</ele><time>2026-05-02T09:18:20.87Z</time></trkpt><trkpt lat="40.6187417" lon="15.0312867"><ele>252.0</ele><time>2026-05-02T09:18:22.869Z</time></trkpt><trkpt lat="40.6187517" lon="15.0313733"><ele>251.66666666666669</ele><time>2026-05-02T09:18:23.869Z</time></trkpt><trkpt lat="40.61876" lon="15.0314583"><ele>251.33333333333334</ele><time>2026-05-02T09:18:24.87Z</time></trkpt><trkpt lat="40.6187683" lon="15.0315433"><ele>251.0</ele><time>2026-05-02T09:18:25.869Z</time></trkpt><trkpt lat="40.6187783" lon="15.0316933"><ele>249.83333333333334</ele><time>2026-05-02T09:18:27.87Z</time></trkpt><trkpt lat="40.6187917" lon="15.0318383"><ele>248.66666666666669</ele><time>2026-05-02T09:18:29.87Z</time></trkpt><trkpt lat="40.618795" lon="15.0319267"><ele>247.5</ele><time>2026-05-02T09:18:30.87Z</time></trkpt><trkpt lat="40.6188" lon="15.0320217"><ele>246.33333333333331</ele><time>2026-05-02T09:18:31.869Z</time></trkpt><trkpt lat="40.6188083" lon="15.032115"><ele>245.16666666666666</ele><time>2026-05-02T09:18:32.87Z</time></trkpt><trkpt lat="40.618825" lon="15.0322683"><ele>244.0</ele><time>2026-05-02T09:18:34.87Z</time></trkpt><trkpt lat="40.6188367" lon="15.0324233"><ele>242.6</ele><time>2026-05-02T09:18:36.869Z</time></trkpt><trkpt lat="40.6188533" lon="15.0325783"><ele>241.2</ele><time>2026-05-02T09:18:38.87Z</time></trkpt><trkpt lat="40.61887" lon="15.0327317"><ele>239.79999999999998</ele><time>2026-05-02T09:18:40.87Z</time></trkpt><trkpt lat="40.61888" lon="15.0328617"><ele>238.39999999999998</ele><time>2026-05-02T09:18:42.87Z</time></trkpt><trkpt lat="40.6188917" lon="15.03299"><ele>237.0</ele><time>2026-05-02T09:18:44.869Z</time></trkpt><trkpt lat="40.618915" lon="15.0331217"><ele>237.0</ele><time>2026-05-02T09:18:46.869Z</time></trkpt><trkpt lat="40.6189367" lon="15.033245"><ele>237.0</ele><time>2026-05-02T09:18:48.87Z</time></trkpt><trkpt lat="40.6189583" lon="15.0333717"><ele>237.0</ele><time>2026-05-02T09:18:50.87Z</time></trkpt><trkpt lat="40.618975" lon="15.0334933"><ele>237.0</ele><time>2026-05-02T09:18:52.869Z</time></trkpt><trkpt lat="40.6189967" lon="15.0335983"><ele>237.0</ele><time>2026-05-02T09:18:54.87Z</time></trkpt><trkpt lat="40.61901" lon="15.033725"><ele>236.2</ele><time>2026-05-02T09:18:56.869Z</time></trkpt><trkpt lat="40.6190133" lon="15.0338783"><ele>235.39999999999998</ele><time>2026-05-02T09:18:58.869Z</time></trkpt><trkpt lat="40.6190233" lon="15.0339633"><ele>234.60000000000002</ele><time>2026-05-02T09:18:59.87Z</time></trkpt><trkpt lat="40.61904" lon="15.0341167"><ele>233.8</ele><time>2026-05-02T09:19:01.869Z</time></trkpt><trkpt lat="40.61905" lon="15.0342783"><ele>233.0</ele><time>2026-05-02T09:19:03.87Z</time></trkpt><trkpt lat="40.6190433" lon="15.0343633"><ele>232.0</ele><time>2026-05-02T09:19:04.869Z</time></trkpt><trkpt lat="40.61903" lon="15.0345183"><ele>231.0</ele><time>2026-05-02T09:19:06.87Z</time></trkpt><trkpt lat="40.6190217" lon="15.0346167"><ele>230.0</ele><time>2026-05-02T09:19:08.87Z</time></trkpt><trkpt lat="40.61905" lon="15.034745"><ele>229.0</ele><time>2026-05-02T09:19:18.87Z</time></trkpt><trkpt lat="40.61909" lon="15.0348567"><ele>228.0</ele><time>2026-05-02T09:19:20.869Z</time></trkpt><trkpt lat="40.61912" lon="15.0350117"><ele>227.7142857142857</ele><time>2026-05-02T09:19:22.869Z</time></trkpt><trkpt lat="40.6191383" lon="15.0350933"><ele>227.4285714285714</ele><time>2026-05-02T09:19:23.87Z</time></trkpt><trkpt lat="40.6191583" lon="15.03518"><ele>227.14285714285714</ele><time>2026-05-02T09:19:24.869Z</time></trkpt><trkpt lat="40.6191867" lon="15.0352667"><ele>226.85714285714283</ele><time>2026-05-02T09:19:25.869Z</time></trkpt><trkpt lat="40.6192233" lon="15.0353533"><ele>226.57142857142856</ele><time>2026-05-02T09:19:26.869Z</time></trkpt><trkpt lat="40.6192583" lon="15.0354367"><ele>226.28571428571428</ele><time>2026-05-02T09:19:27.87Z</time></trkpt><trkpt lat="40.6192917" lon="15.0355217"><ele>226.0</ele><time>2026-05-02T09:19:28.869Z</time></trkpt><trkpt lat="40.6193383" lon="15.0356683"><ele>225.99999999999997</ele><time>2026-05-02T09:19:30.87Z</time></trkpt><trkpt lat="40.6193617" lon="15.0357533"><ele>226.0</ele><time>2026-05-02T09:19:31.87Z</time></trkpt><trkpt lat="40.6193817" lon="15.035845"><ele>226.0</ele><time>2026-05-02T09:19:32.87Z</time></trkpt><trkpt lat="40.6194" lon="15.0359367"><ele>226.0</ele><time>2026-05-02T09:19:33.869Z</time></trkpt><trkpt lat="40.6194183" lon="15.0360317"><ele>225.99999999999997</ele><time>2026-05-02T09:19:34.87Z</time></trkpt><trkpt lat="40.6194383" lon="15.0361333"><ele>226.0</ele><time>2026-05-02T09:19:35.87Z</time></trkpt><trkpt lat="40.6194617" lon="15.0362467"><ele>224.4</ele><time>2026-05-02T09:19:36.87Z</time></trkpt><trkpt lat="40.619485" lon="15.036365"><ele>222.8</ele><time>2026-05-02T09:19:37.869Z</time></trkpt><trkpt lat="40.6195083" lon="15.0364817"><ele>221.20000000000002</ele><time>2026-05-02T09:19:38.87Z</time></trkpt><trkpt lat="40.619525" lon="15.0365983"><ele>219.60000000000002</ele><time>2026-05-02T09:19:39.869Z</time></trkpt><trkpt lat="40.6195417" lon="15.0367167"><ele>218.0</ele><time>2026-05-02T09:19:40.869Z</time></trkpt><trkpt lat="40.6195567" lon="15.0368417"><ele>218.00000000000003</ele><time>2026-05-02T09:19:41.869Z</time></trkpt><trkpt lat="40.619565" lon="15.03696"><ele>218.0</ele><time>2026-05-02T09:19:42.869Z</time></trkpt><trkpt lat="40.619575" lon="15.0370767"><ele>218.0</ele><time>2026-05-02T09:19:43.87Z</time></trkpt><trkpt lat="40.6195883" lon="15.0372017"><ele>218.0</ele><time>2026-05-02T09:19:44.869Z</time></trkpt><trkpt lat="40.6196" lon="15.03732"><ele>218.00000000000003</ele><time>2026-05-02T09:19:45.87Z</time></trkpt><trkpt lat="40.6196117" lon="15.0374283"><ele>218.0</ele><time>2026-05-02T09:19:46.869Z</time></trkpt><trkpt lat="40.6196167" lon="15.037525"><ele>218.60000000000002</ele><time>2026-05-02T09:19:47.87Z</time></trkpt><trkpt lat="40.6196217" lon="15.0376083"><ele>219.20000000000002</ele><time>2026-05-02T09:19:48.869Z</time></trkpt><trkpt lat="40.61963" lon="15.0377533"><ele>219.8</ele><time>2026-05-02T09:19:50.869Z</time></trkpt><trkpt lat="40.6196367" lon="15.0379067"><ele>220.4</ele><time>2026-05-02T09:19:52.87Z</time></trkpt><trkpt lat="40.6196367" lon="15.03806"><ele>221.0</ele><time>2026-05-02T09:19:54.87Z</time></trkpt><trkpt lat="40.6196417" lon="15.03821"><ele>221.0</ele><time>2026-05-02T09:19:56.87Z</time></trkpt><trkpt lat="40.6196617" lon="15.0383567"><ele>221.00000000000003</ele><time>2026-05-02T09:19:58.869Z</time></trkpt><trkpt lat="40.61967" lon="15.0385167"><ele>221.00000000000003</ele><time>2026-05-02T09:20:00.87Z</time></trkpt><trkpt lat="40.6196683" lon="15.0386017"><ele>221.0</ele><time>2026-05-02T09:20:01.87Z</time></trkpt><trkpt lat="40.6196667" lon="15.0387033"><ele>221.0</ele><time>2026-05-02T09:20:02.869Z</time></trkpt><trkpt lat="40.6196683" lon="15.0388017"><ele>221.00000000000003</ele><time>2026-05-02T09:20:03.87Z</time></trkpt><trkpt lat="40.6196717" lon="15.0389033"><ele>221.0</ele><time>2026-05-02T09:20:04.87Z</time></trkpt><trkpt lat="40.6196767" lon="15.0390067"><ele>221.0</ele><time>2026-05-02T09:20:05.869Z</time></trkpt><trkpt lat="40.6196817" lon="15.0391067"><ele>221.0</ele><time>2026-05-02T09:20:06.869Z</time></trkpt><trkpt lat="40.6196883" lon="15.0392117"><ele>221.00000000000003</ele><time>2026-05-02T09:20:07.869Z</time></trkpt><trkpt lat="40.6196933" lon="15.039325"><ele>221.0</ele><time>2026-05-02T09:20:08.869Z</time></trkpt><trkpt lat="40.6196967" lon="15.0394467"><ele>220.66666666666669</ele><time>2026-05-02T09:20:09.87Z</time></trkpt><trkpt lat="40.6197017" lon="15.0395717"><ele>220.33333333333334</ele><time>2026-05-02T09:20:10.869Z</time></trkpt><trkpt lat="40.6197067" lon="15.039695"><ele>220.0</ele><time>2026-05-02T09:20:11.87Z</time></trkpt><trkpt lat="40.6197167" lon="15.0398133"><ele>219.66666666666669</ele><time>2026-05-02T09:20:12.869Z</time></trkpt><trkpt lat="40.6197333" lon="15.0399267"><ele>219.33333333333334</ele><time>2026-05-02T09:20:13.87Z</time></trkpt><trkpt lat="40.6197483" lon="15.0400267"><ele>219.0</ele><time>2026-05-02T09:20:14.869Z</time></trkpt><trkpt lat="40.6197617" lon="15.0401283"><ele>218.66666666666666</ele><time>2026-05-02T09:20:15.869Z</time></trkpt><trkpt lat="40.6197733" lon="15.0402233"><ele>218.33333333333331</ele><time>2026-05-02T09:20:16.87Z</time></trkpt><trkpt lat="40.6197883" lon="15.0403317"><ele>218.0</ele><time>2026-05-02T09:20:17.87Z</time></trkpt><trkpt lat="40.6197983" lon="15.04044"><ele>217.66666666666666</ele><time>2026-05-02T09:20:18.87Z</time></trkpt><trkpt lat="40.6198067" lon="15.040545"><ele>217.33333333333331</ele><time>2026-05-02T09:20:19.87Z</time></trkpt><trkpt lat="40.619815" lon="15.0406517"><ele>217.0</ele><time>2026-05-02T09:20:20.87Z</time></trkpt><trkpt lat="40.6198233" lon="15.0407633"><ele>216.85714285714286</ele><time>2026-05-02T09:20:21.87Z</time></trkpt><trkpt lat="40.6198333" lon="15.040865"><ele>216.71428571428572</ele><time>2026-05-02T09:20:22.87Z</time></trkpt><trkpt lat="40.6198383" lon="15.0409633"><ele>216.57142857142856</ele><time>2026-05-02T09:20:23.87Z</time></trkpt><trkpt lat="40.6198483" lon="15.04105"><ele>216.42857142857144</ele><time>2026-05-02T09:20:24.87Z</time></trkpt><trkpt lat="40.619855" lon="15.0411433"><ele>216.28571428571428</ele><time>2026-05-02T09:20:25.869Z</time></trkpt><trkpt lat="40.6198683" lon="15.0412317"><ele>216.14285714285714</ele><time>2026-05-02T09:20:26.87Z</time></trkpt><trkpt lat="40.6198783" lon="15.0413333"><ele>216.0</ele><time>2026-05-02T09:20:27.87Z</time></trkpt><trkpt lat="40.6198867" lon="15.0414333"><ele>216.0</ele><time>2026-05-02T09:20:28.87Z</time></trkpt><trkpt lat="40.61989" lon="15.0415333"><ele>216.0</ele><time>2026-05-02T09:20:29.869Z</time></trkpt><trkpt lat="40.61989" lon="15.0416383"><ele>216.0</ele><time>2026-05-02T09:20:30.869Z</time></trkpt><trkpt lat="40.61989" lon="15.041745"><ele>216.0</ele><time>2026-05-02T09:20:31.87Z</time></trkpt><trkpt lat="40.6198883" lon="15.0418483"><ele>216.0</ele><time>2026-05-02T09:20:32.87Z</time></trkpt><trkpt lat="40.6198867" lon="15.0419533"><ele>216.0</ele><time>2026-05-02T09:20:33.869Z</time></trkpt><trkpt lat="40.6198817" lon="15.042055"><ele>214.83333333333334</ele><time>2026-05-02T09:20:34.869Z</time></trkpt><trkpt lat="40.6198717" lon="15.0421517"><ele>213.66666666666669</ele><time>2026-05-02T09:20:35.869Z</time></trkpt><trkpt lat="40.6198567" lon="15.0422517"><ele>212.5</ele><time>2026-05-02T09:20:36.869Z</time></trkpt><trkpt lat="40.61984" lon="15.0423517"><ele>211.33333333333334</ele><time>2026-05-02T09:20:37.87Z</time></trkpt><trkpt lat="40.6198267" lon="15.0424567"><ele>210.16666666666669</ele><time>2026-05-02T09:20:38.869Z</time></trkpt><trkpt lat="40.6198217" lon="15.0425717"><ele>209.0</ele><time>2026-05-02T09:20:39.869Z</time></trkpt><trkpt lat="40.6198167" lon="15.0427017"><ele>208.00000000000003</ele><time>2026-05-02T09:20:40.869Z</time></trkpt><trkpt lat="40.61982" lon="15.0428317"><ele>207.0</ele><time>2026-05-02T09:20:41.87Z</time></trkpt><trkpt lat="40.6198233" lon="15.0429533"><ele>206.0</ele><time>2026-05-02T09:20:42.869Z</time></trkpt><trkpt lat="40.6198233" lon="15.0430683"><ele>205.0</ele><time>2026-05-02T09:20:43.869Z</time></trkpt><trkpt lat="40.6198233" lon="15.0431833"><ele>204.00000000000003</ele><time>2026-05-02T09:20:44.869Z</time></trkpt><trkpt lat="40.6198283" lon="15.04329"><ele>203.0</ele><time>2026-05-02T09:20:45.869Z</time></trkpt><trkpt lat="40.61983" lon="15.043395"><ele>202.28571428571428</ele><time>2026-05-02T09:20:46.87Z</time></trkpt><trkpt lat="40.6198283" lon="15.0434967"><ele>201.57142857142856</ele><time>2026-05-02T09:20:47.87Z</time></trkpt><trkpt lat="40.6198233" lon="15.043595"><ele>200.85714285714286</ele><time>2026-05-02T09:20:48.87Z</time></trkpt><trkpt lat="40.61982" lon="15.0436817"><ele>200.14285714285714</ele><time>2026-05-02T09:20:49.869Z</time></trkpt><trkpt lat="40.61981" lon="15.04377"><ele>199.42857142857142</ele><time>2026-05-02T09:20:50.87Z</time></trkpt><trkpt lat="40.6197917" lon="15.04385"><ele>198.71428571428572</ele><time>2026-05-02T09:20:51.869Z</time></trkpt><trkpt lat="40.6197583" lon="15.043925"><ele>198.0</ele><time>2026-05-02T09:20:52.869Z</time></trkpt><trkpt lat="40.6197133" lon="15.0439883"><ele>198.0</ele><time>2026-05-02T09:20:53.869Z</time></trkpt><trkpt lat="40.619655" lon="15.0440517"><ele>198.0</ele><time>2026-05-02T09:20:54.87Z</time></trkpt><trkpt lat="40.619595" lon="15.0441233"><ele>198.0</ele><time>2026-05-02T09:20:55.87Z</time></trkpt><trkpt lat="40.6195367" lon="15.0442"><ele>198.0</ele><time>2026-05-02T09:20:56.87Z</time></trkpt><trkpt lat="40.6194867" lon="15.0442717"><ele>198.0</ele><time>2026-05-02T09:20:57.87Z</time></trkpt><trkpt lat="40.6194333" lon="15.04434"><ele>198.0</ele><time>2026-05-02T09:20:58.87Z</time></trkpt><trkpt lat="40.6193883" lon="15.0444117"><ele>197.85714285714286</ele><time>2026-05-02T09:20:59.87Z</time></trkpt><trkpt lat="40.61935" lon="15.0444867"><ele>197.7142857142857</ele><time>2026-05-02T09:21:00.87Z</time></trkpt><trkpt lat="40.6193317" lon="15.0445767"><ele>197.57142857142856</ele><time>2026-05-02T09:21:01.87Z</time></trkpt><trkpt lat="40.61933" lon="15.0446733"><ele>197.42857142857144</ele><time>2026-05-02T09:21:02.87Z</time></trkpt><trkpt lat="40.61934" lon="15.04477"><ele>197.28571428571428</ele><time>2026-05-02T09:21:03.87Z</time></trkpt><trkpt lat="40.6193483" lon="15.0448683"><ele>197.14285714285714</ele><time>2026-05-02T09:21:04.87Z</time></trkpt><trkpt lat="40.6193433" lon="15.04497"><ele>197.0</ele><time>2026-05-02T09:21:05.87Z</time></trkpt><trkpt lat="40.6193217" lon="15.0450733"><ele>195.66666666666669</ele><time>2026-05-02T09:21:06.869Z</time></trkpt><trkpt lat="40.6192917" lon="15.04517"><ele>194.33333333333334</ele><time>2026-05-02T09:21:07.87Z</time></trkpt><trkpt lat="40.6192583" lon="15.0452767"><ele>193.0</ele><time>2026-05-02T09:21:08.87Z</time></trkpt><trkpt lat="40.6192283" lon="15.0453867"><ele>191.66666666666669</ele><time>2026-05-02T09:21:09.87Z</time></trkpt><trkpt lat="40.6191983" lon="15.0455017"><ele>190.33333333333334</ele><time>2026-05-02T09:21:10.869Z</time></trkpt><trkpt lat="40.6191617" lon="15.0456117"><ele>189.0</ele><time>2026-05-02T09:21:11.87Z</time></trkpt><trkpt lat="40.6191167" lon="15.0457117"><ele>187.66666666666666</ele><time>2026-05-02T09:21:12.87Z</time></trkpt><trkpt lat="40.619065" lon="15.0457983"><ele>186.33333333333334</ele><time>2026-05-02T09:21:13.87Z</time></trkpt><trkpt lat="40.6190183" lon="15.0458917"><ele>185.0</ele><time>2026-05-02T09:21:14.87Z</time></trkpt><trkpt lat="40.6189683" lon="15.04598"><ele>183.66666666666669</ele><time>2026-05-02T09:21:15.87Z</time></trkpt><trkpt lat="40.6189217" lon="15.046075"><ele>182.33333333333334</ele><time>2026-05-02T09:21:16.869Z</time></trkpt><trkpt lat="40.6188767" lon="15.0461783"><ele>181.0</ele><time>2026-05-02T09:21:17.87Z</time></trkpt><trkpt lat="40.61884" lon="15.046285"><ele>181.0</ele><time>2026-05-02T09:21:18.869Z</time></trkpt><trkpt lat="40.6188167" lon="15.0463967"><ele>181.0</ele><time>2026-05-02T09:21:19.87Z</time></trkpt><trkpt lat="40.6188017" lon="15.0465067"><ele>181.0</ele><time>2026-05-02T09:21:20.869Z</time></trkpt><trkpt lat="40.6187933" lon="15.0466033"><ele>181.0</ele><time>2026-05-02T09:21:21.87Z</time></trkpt><trkpt lat="40.6187433" lon="15.0467517"><ele>181.0</ele><time>2026-05-02T09:21:23.87Z</time></trkpt><trkpt lat="40.618705" lon="15.0468267"><ele>181.0</ele><time>2026-05-02T09:21:24.869Z</time></trkpt><trkpt lat="40.6186767" lon="15.046925"><ele>180.0</ele><time>2026-05-02T09:21:25.869Z</time></trkpt><trkpt lat="40.6186583" lon="15.0470367"><ele>179.0</ele><time>2026-05-02T09:21:26.87Z</time></trkpt><trkpt lat="40.6186417" lon="15.047155"><ele>178.0</ele><time>2026-05-02T09:21:27.87Z</time></trkpt><trkpt lat="40.6186267" lon="15.04728"><ele>177.0</ele><time>2026-05-02T09:21:28.869Z</time></trkpt><trkpt lat="40.6186117" lon="15.0474083"><ele>176.0</ele><time>2026-05-02T09:21:29.87Z</time></trkpt><trkpt lat="40.6186" lon="15.0475367"><ele>169.20000000000002</ele><time>2026-05-02T09:21:30.87Z</time></trkpt><trkpt lat="40.61859" lon="15.047665"><ele>162.4</ele><time>2026-05-02T09:21:31.869Z</time></trkpt><trkpt lat="40.6185767" lon="15.04779"><ele>155.6</ele><time>2026-05-02T09:21:32.869Z</time></trkpt><trkpt lat="40.61857" lon="15.047915"><ele>148.8</ele><time>2026-05-02T09:21:33.87Z</time></trkpt><trkpt lat="40.6185583" lon="15.04804"><ele>142.0</ele><time>2026-05-02T09:21:34.869Z</time></trkpt><trkpt lat="40.6185467" lon="15.0481583"><ele>142.0</ele><time>2026-05-02T09:21:35.87Z</time></trkpt><trkpt lat="40.6185433" lon="15.048275"><ele>142.0</ele><time>2026-05-02T09:21:36.869Z</time></trkpt><trkpt lat="40.6185433" lon="15.048385"><ele>142.0</ele><time>2026-05-02T09:21:37.87Z</time></trkpt><trkpt lat="40.6185417" lon="15.0484933"><ele>142.0</ele><time>2026-05-02T09:21:38.87Z</time></trkpt><trkpt lat="40.618545" lon="15.0485917"><ele>142.0</ele><time>2026-05-02T09:21:39.87Z</time></trkpt><trkpt lat="40.618545" lon="15.0486867"><ele>142.0</ele><time>2026-05-02T09:21:40.87Z</time></trkpt><trkpt lat="40.6185433" lon="15.0487783"><ele>141.71428571428572</ele><time>2026-05-02T09:21:41.87Z</time></trkpt><trkpt lat="40.618545" lon="15.04887"><ele>141.42857142857142</ele><time>2026-05-02T09:21:42.87Z</time></trkpt><trkpt lat="40.6185433" lon="15.048965"><ele>141.14285714285714</ele><time>2026-05-02T09:21:43.869Z</time></trkpt><trkpt lat="40.61854" lon="15.0490633"><ele>140.85714285714286</ele><time>2026-05-02T09:21:44.869Z</time></trkpt><trkpt lat="40.6185333" lon="15.0491617"><ele>140.57142857142856</ele><time>2026-05-02T09:21:45.87Z</time></trkpt><trkpt lat="40.6185233" lon="15.0492617"><ele>140.28571428571428</ele><time>2026-05-02T09:21:46.869Z</time></trkpt><trkpt lat="40.6185167" lon="15.0493567"><ele>140.0</ele><time>2026-05-02T09:21:47.87Z</time></trkpt><trkpt lat="40.618515" lon="15.04945"><ele>139.8</ele><time>2026-05-02T09:21:48.869Z</time></trkpt><trkpt lat="40.6185133" lon="15.0495433"><ele>139.6</ele><time>2026-05-02T09:21:49.87Z</time></trkpt><trkpt lat="40.618505" lon="15.049685"><ele>139.4</ele><time>2026-05-02T09:21:51.87Z</time></trkpt><trkpt lat="40.6185083" lon="15.0498033"><ele>139.2</ele><time>2026-05-02T09:21:53.87Z</time></trkpt><trkpt lat="40.6184733" lon="15.0499683"><ele>139.0</ele><time>2026-05-02T09:21:55.87Z</time></trkpt><trkpt lat="40.618435" lon="15.0500467"><ele>138.83333333333334</ele><time>2026-05-02T09:21:56.87Z</time></trkpt><trkpt lat="40.618395" lon="15.0501267"><ele>138.66666666666669</ele><time>2026-05-02T09:21:57.869Z</time></trkpt><trkpt lat="40.6183583" lon="15.0502083"><ele>138.5</ele><time>2026-05-02T09:21:58.869Z</time></trkpt><trkpt lat="40.61832" lon="15.0502967"><ele>138.33333333333334</ele><time>2026-05-02T09:21:59.869Z</time></trkpt><trkpt lat="40.6182817" lon="15.0503883"><ele>138.16666666666666</ele><time>2026-05-02T09:22:00.869Z</time></trkpt><trkpt lat="40.6182383" lon="15.0504733"><ele>138.0</ele><time>2026-05-02T09:22:01.87Z</time></trkpt><trkpt lat="40.61819" lon="15.0505717"><ele>138.0</ele><time>2026-05-02T09:22:02.87Z</time></trkpt><trkpt lat="40.618135" lon="15.0506617"><ele>138.0</ele><time>2026-05-02T09:22:03.869Z</time></trkpt><trkpt lat="40.6180883" lon="15.050755"><ele>138.0</ele><time>2026-05-02T09:22:04.869Z</time></trkpt><trkpt lat="40.6180367" lon="15.050845"><ele>138.0</ele><time>2026-05-02T09:22:05.87Z</time></trkpt><trkpt lat="40.6179883" lon="15.0509383"><ele>138.0</ele><time>2026-05-02T09:22:06.87Z</time></trkpt><trkpt lat="40.6179433" lon="15.05104"><ele>138.0</ele><time>2026-05-02T09:22:07.87Z</time></trkpt><trkpt lat="40.6179033" lon="15.0511417"><ele>137.0</ele><time>2026-05-02T09:22:08.869Z</time></trkpt><trkpt lat="40.61789" lon="15.0512533"><ele>136.0</ele><time>2026-05-02T09:22:09.87Z</time></trkpt><trkpt lat="40.6178933" lon="15.0513717"><ele>135.0</ele><time>2026-05-02T09:22:10.87Z</time></trkpt><trkpt lat="40.61794" lon="15.0514967"><ele>134.0</ele><time>2026-05-02T09:22:11.869Z</time></trkpt><trkpt lat="40.6179783" lon="15.0516067"><ele>133.0</ele><time>2026-05-02T09:22:12.869Z</time></trkpt><trkpt lat="40.6180167" lon="15.0517117"><ele>130.83333333333334</ele><time>2026-05-02T09:22:13.87Z</time></trkpt><trkpt lat="40.6180533" lon="15.0518167"><ele>128.66666666666669</ele><time>2026-05-02T09:22:14.869Z</time></trkpt><trkpt lat="40.6180883" lon="15.05192"><ele>126.5</ele><time>2026-05-02T09:22:15.87Z</time></trkpt><trkpt lat="40.618115" lon="15.0520217"><ele>124.33333333333334</ele><time>2026-05-02T09:22:16.869Z</time></trkpt><trkpt lat="40.6181483" lon="15.0521233"><ele>122.16666666666667</ele><time>2026-05-02T09:22:17.869Z</time></trkpt><trkpt lat="40.6181767" lon="15.0522133"><ele>120.0</ele><time>2026-05-02T09:22:18.87Z</time></trkpt><trkpt lat="40.6181967" lon="15.0522933"><ele>120.0</ele><time>2026-05-02T09:22:19.87Z</time></trkpt><trkpt lat="40.618225" lon="15.05237"><ele>120.0</ele><time>2026-05-02T09:22:21.87Z</time></trkpt><trkpt lat="40.6182083" lon="15.0525"><ele>120.0</ele><time>2026-05-02T09:22:25.869Z</time></trkpt><trkpt lat="40.6182617" lon="15.052615"><ele>120.0</ele><time>2026-05-02T09:22:27.869Z</time></trkpt><trkpt lat="40.618305" lon="15.052685"><ele>120.0</ele><time>2026-05-02T09:22:28.869Z</time></trkpt><trkpt lat="40.618345" lon="15.0527617"><ele>120.0</ele><time>2026-05-02T09:22:29.869Z</time></trkpt><trkpt lat="40.61838" lon="15.05285"><ele>119.0</ele><time>2026-05-02T09:22:30.868Z</time></trkpt><trkpt lat="40.618415" lon="15.0529417"><ele>118.0</ele><time>2026-05-02T09:22:31.868Z</time></trkpt><trkpt lat="40.61845" lon="15.0530383"><ele>117.0</ele><time>2026-05-02T09:22:32.868Z</time></trkpt><trkpt lat="40.6184833" lon="15.0531433"><ele>116.0</ele><time>2026-05-02T09:22:33.868Z</time></trkpt><trkpt lat="40.6185133" lon="15.0532433"><ele>115.0</ele><time>2026-05-02T09:22:34.868Z</time></trkpt><trkpt lat="40.6185433" lon="15.0533333"><ele>114.0</ele><time>2026-05-02T09:22:35.869Z</time></trkpt><trkpt lat="40.6185583" lon="15.0534667"><ele>114.0</ele><time>2026-05-02T09:22:37.869Z</time></trkpt><trkpt lat="40.6185533" lon="15.0535867"><ele>114.0</ele><time>2026-05-02T09:22:40.868Z</time></trkpt><trkpt lat="40.6185617" lon="15.0536817"><ele>114.0</ele><time>2026-05-02T09:22:42.868Z</time></trkpt><trkpt lat="40.618625" lon="15.0537533"><ele>114.0</ele><time>2026-05-02T09:22:44.869Z</time></trkpt><trkpt lat="40.6187333" lon="15.05377"><ele>114.0</ele><time>2026-05-02T09:22:46.869Z</time></trkpt><trkpt lat="40.6188533" lon="15.0537633"><ele>115.16666666666667</ele><time>2026-05-02T09:22:48.869Z</time></trkpt><trkpt lat="40.6189733" lon="15.05377"><ele>116.33333333333334</ele><time>2026-05-02T09:22:50.868Z</time></trkpt><trkpt lat="40.6190433" lon="15.0537717"><ele>117.5</ele><time>2026-05-02T09:22:51.869Z</time></trkpt><trkpt lat="40.6191167" lon="15.0537817"><ele>118.66666666666667</ele><time>2026-05-02T09:22:52.868Z</time></trkpt><trkpt lat="40.6191833" lon="15.0537933"><ele>119.83333333333334</ele><time>2026-05-02T09:22:53.869Z</time></trkpt><trkpt lat="40.6192483" lon="15.0537883"><ele>121.0</ele><time>2026-05-02T09:22:54.869Z</time></trkpt><trkpt lat="40.6193167" lon="15.0537767"><ele>121.0</ele><time>2026-05-02T09:22:55.868Z</time></trkpt><trkpt lat="40.6193917" lon="15.0537717"><ele>121.0</ele><time>2026-05-02T09:22:56.869Z</time></trkpt><trkpt lat="40.619475" lon="15.053775"><ele>121.0</ele><time>2026-05-02T09:22:57.868Z</time></trkpt><trkpt lat="40.6195833" lon="15.0537583"><ele>121.0</ele><time>2026-05-02T09:22:58.868Z</time></trkpt><trkpt lat="40.6197083" lon="15.0537383"><ele>121.0</ele><time>2026-05-02T09:22:59.868Z</time></trkpt><trkpt lat="40.6198283" lon="15.0537083"><ele>123.19999999999999</ele><time>2026-05-02T09:23:00.868Z</time></trkpt><trkpt lat="40.6199383" lon="15.053705"><ele>125.39999999999999</ele><time>2026-05-02T09:23:01.868Z</time></trkpt><trkpt lat="40.6200483" lon="15.0537017"><ele>127.6</ele><time>2026-05-02T09:23:02.869Z</time></trkpt><trkpt lat="40.6201533" lon="15.0536967"><ele>129.79999999999998</ele><time>2026-05-02T09:23:03.868Z</time></trkpt><trkpt lat="40.6202517" lon="15.053695"><ele>132.0</ele><time>2026-05-02T09:23:04.869Z</time></trkpt><trkpt lat="40.62035" lon="15.0537067"><ele>134.0</ele><time>2026-05-02T09:23:05.868Z</time></trkpt><trkpt lat="40.6204533" lon="15.0537317"><ele>136.0</ele><time>2026-05-02T09:23:06.868Z</time></trkpt><trkpt lat="40.6205483" lon="15.053755"><ele>138.0</ele><time>2026-05-02T09:23:07.869Z</time></trkpt><trkpt lat="40.620645" lon="15.0537783"><ele>140.0</ele><time>2026-05-02T09:23:08.869Z</time></trkpt><trkpt lat="40.6207483" lon="15.0537917"><ele>142.0</ele><time>2026-05-02T09:23:09.869Z</time></trkpt><trkpt lat="40.62084" lon="15.0538033"><ele>142.0</ele><time>2026-05-02T09:23:10.869Z</time></trkpt><trkpt lat="40.6209367" lon="15.05381"><ele>142.0</ele><time>2026-05-02T09:23:11.868Z</time></trkpt><trkpt lat="40.62102" lon="15.0538217"><ele>142.0</ele><time>2026-05-02T09:23:12.868Z</time></trkpt><trkpt lat="40.6211017" lon="15.0538217"><ele>142.0</ele><time>2026-05-02T09:23:13.869Z</time></trkpt><trkpt lat="40.6211817" lon="15.05382"><ele>142.0</ele><time>2026-05-02T09:23:14.869Z</time></trkpt><trkpt lat="40.6212567" lon="15.0538267"><ele>142.0</ele><time>2026-05-02T09:23:15.869Z</time></trkpt><trkpt lat="40.621335" lon="15.0538583"><ele>143.66666666666669</ele><time>2026-05-02T09:23:16.869Z</time></trkpt><trkpt lat="40.6213917" lon="15.053895"><ele>145.33333333333334</ele><time>2026-05-02T09:23:17.869Z</time></trkpt><trkpt lat="40.621455" lon="15.0540017"><ele>147.0</ele><time>2026-05-02T09:23:19.868Z</time></trkpt><trkpt lat="40.6215133" lon="15.054125"><ele>148.66666666666666</ele><time>2026-05-02T09:23:21.869Z</time></trkpt><trkpt lat="40.6215733" lon="15.0542033"><ele>150.33333333333331</ele><time>2026-05-02T09:23:23.869Z</time></trkpt><trkpt lat="40.6216483" lon="15.0541633"><ele>152.0</ele><time>2026-05-02T09:23:25.869Z</time></trkpt><trkpt lat="40.6217083" lon="15.05408"><ele>152.0</ele><time>2026-05-02T09:23:28.868Z</time></trkpt><trkpt lat="40.621775" lon="15.0540417"><ele>152.0</ele><time>2026-05-02T09:23:31.868Z</time></trkpt><trkpt lat="40.621845" lon="15.0540883"><ele>152.0</ele><time>2026-05-02T09:23:34.868Z</time></trkpt><trkpt lat="40.6218767" lon="15.05416"><ele>152.0</ele><time>2026-05-02T09:23:36.868Z</time></trkpt><trkpt lat="40.6219167" lon="15.0542583"><ele>152.0</ele><time>2026-05-02T09:23:38.868Z</time></trkpt><trkpt lat="40.6219667" lon="15.0543767"><ele>152.0</ele><time>2026-05-02T09:23:40.868Z</time></trkpt><trkpt lat="40.6220167" lon="15.0544733"><ele>152.0</ele><time>2026-05-02T09:23:42.868Z</time></trkpt><trkpt lat="40.6220433" lon="15.0545517"><ele>152.0</ele><time>2026-05-02T09:23:45.868Z</time></trkpt><trkpt lat="40.62201" lon="15.05446"><ele>152.0</ele><time>2026-05-02T09:23:55.868Z</time></trkpt><trkpt lat="40.62197" lon="15.05435"><ele>152.0</ele><time>2026-05-02T09:23:57.869Z</time></trkpt><trkpt lat="40.62192" lon="15.0542117"><ele>152.0</ele><time>2026-05-02T09:23:59.868Z</time></trkpt><trkpt lat="40.62186" lon="15.0540983"><ele>152.0</ele><time>2026-05-02T09:24:01.869Z</time></trkpt><trkpt lat="40.6218267" lon="15.0540067"><ele>152.0</ele><time>2026-05-02T09:24:03.868Z</time></trkpt><trkpt lat="40.621845" lon="15.0539083"><ele>152.0</ele><time>2026-05-02T09:24:08.868Z</time></trkpt><trkpt lat="40.6219167" lon="15.0538767"><ele>152.0</ele><time>2026-05-02T09:24:12.868Z</time></trkpt><trkpt lat="40.62198" lon="15.0538683"><ele>152.0</ele><time>2026-05-02T09:24:14.869Z</time></trkpt><trkpt lat="40.62206" lon="15.053865"><ele>152.0</ele><time>2026-05-02T09:24:16.869Z</time></trkpt><trkpt lat="40.6221517" lon="15.0538617"><ele>154.0</ele><time>2026-05-02T09:24:18.868Z</time></trkpt><trkpt lat="40.6222583" lon="15.0538517"><ele>156.0</ele><time>2026-05-02T09:24:20.869Z</time></trkpt><trkpt lat="40.6223667" lon="15.0538267"><ele>158.0</ele><time>2026-05-02T09:24:22.868Z</time></trkpt><trkpt lat="40.6224883" lon="15.05381"><ele>160.0</ele><time>2026-05-02T09:24:24.869Z</time></trkpt><trkpt lat="40.6226117" lon="15.0538133"><ele>160.0</ele><time>2026-05-02T09:24:26.869Z</time></trkpt><trkpt lat="40.622675" lon="15.0538183"><ele>160.0</ele><time>2026-05-02T09:24:27.868Z</time></trkpt><trkpt lat="40.62274" lon="15.05382"><ele>160.0</ele><time>2026-05-02T09:24:28.869Z</time></trkpt><trkpt lat="40.6228467" lon="15.0538217"><ele>160.0</ele><time>2026-05-02T09:24:30.869Z</time></trkpt><trkpt lat="40.6229167" lon="15.05384"><ele>160.0</ele><time>2026-05-02T09:24:32.869Z</time></trkpt><trkpt lat="40.6228083" lon="15.0538233"><ele>160.0</ele><time>2026-05-02T09:24:39.869Z</time></trkpt><trkpt lat="40.6227333" lon="15.0538167"><ele>160.0</ele><time>2026-05-02T09:24:40.869Z</time></trkpt><trkpt lat="40.6226567" lon="15.0538167"><ele>160.0</ele><time>2026-05-02T09:24:41.868Z</time></trkpt><trkpt lat="40.6225817" lon="15.0538167"><ele>160.0</ele><time>2026-05-02T09:24:42.869Z</time></trkpt><trkpt lat="40.6225117" lon="15.053815"><ele>160.0</ele><time>2026-05-02T09:24:43.869Z</time></trkpt><trkpt lat="40.6223933" lon="15.0538233"><ele>160.0</ele><time>2026-05-02T09:24:45.869Z</time></trkpt><trkpt lat="40.6222817" lon="15.0538333"><ele>160.0</ele><time>2026-05-02T09:24:47.869Z</time></trkpt><trkpt lat="40.622215" lon="15.05384"><ele>160.0</ele><time>2026-05-02T09:24:48.869Z</time></trkpt><trkpt lat="40.6221517" lon="15.0538517"><ele>160.0</ele><time>2026-05-02T09:24:49.868Z</time></trkpt><trkpt lat="40.62204" lon="15.0538583"><ele>160.0</ele><time>2026-05-02T09:24:51.869Z</time></trkpt><trkpt lat="40.62194" lon="15.0538617"><ele>160.0</ele><time>2026-05-02T09:24:53.869Z</time></trkpt><trkpt lat="40.6218517" lon="15.05388"><ele>160.0</ele><time>2026-05-02T09:24:55.869Z</time></trkpt><trkpt lat="40.6217733" lon="15.0539117"><ele>160.0</ele><time>2026-05-02T09:24:57.869Z</time></trkpt><trkpt lat="40.62175" lon="15.053995"><ele>160.0</ele><time>2026-05-02T09:25:01.869Z</time></trkpt><trkpt lat="40.6216967" lon="15.0540667"><ele>160.0</ele><time>2026-05-02T09:25:04.869Z</time></trkpt><trkpt lat="40.621645" lon="15.0541217"><ele>160.0</ele><time>2026-05-02T09:25:07.869Z</time></trkpt><trkpt lat="40.6216033" lon="15.0541883"><ele>160.0</ele><time>2026-05-02T09:25:09.868Z</time></trkpt><trkpt lat="40.6215317" lon="15.05425"><ele>160.0</ele><time>2026-05-02T09:25:12.869Z</time></trkpt><trkpt lat="40.6214833" lon="15.0543333"><ele>160.0</ele><time>2026-05-02T09:25:15.868Z</time></trkpt><trkpt lat="40.6215483" lon="15.0543667"><ele>160.0</ele><time>2026-05-02T09:25:31.869Z</time></trkpt><trkpt lat="40.6215867" lon="15.0542867"><ele>160.0</ele><time>2026-05-02T09:25:33.868Z</time></trkpt><trkpt lat="40.6216383" lon="15.0541983"><ele>160.0</ele><time>2026-05-02T09:25:35.869Z</time></trkpt><trkpt lat="40.6216967" lon="15.05413"><ele>160.0</ele><time>2026-05-02T09:25:37.868Z</time></trkpt><trkpt lat="40.621755" lon="15.0540933"><ele>160.0</ele><time>2026-05-02T09:25:39.868Z</time></trkpt><trkpt lat="40.6218433" lon="15.054105"><ele>160.0</ele><time>2026-05-02T09:25:42.868Z</time></trkpt><trkpt lat="40.621895" lon="15.0541967"><ele>160.0</ele><time>2026-05-02T09:25:45.869Z</time></trkpt><trkpt lat="40.621935" lon="15.0543"><ele>160.0</ele><time>2026-05-02T09:25:47.869Z</time></trkpt><trkpt lat="40.6219817" lon="15.0543917"><ele>160.0</ele><time>2026-05-02T09:25:49.869Z</time></trkpt><trkpt lat="40.6220283" lon="15.054475"><ele>160.0</ele><time>2026-05-02T09:25:52.868Z</time></trkpt><trkpt lat="40.6219867" lon="15.0545883"><ele>160.0</ele><time>2026-05-02T09:25:55.869Z</time></trkpt><trkpt lat="40.6219167" lon="15.0546533"><ele>160.0</ele><time>2026-05-02T09:25:57.868Z</time></trkpt><trkpt lat="40.6218433" lon="15.054735"><ele>160.0</ele><time>2026-05-02T09:25:59.868Z</time></trkpt><trkpt lat="40.621775" lon="15.0548283"><ele>160.0</ele><time>2026-05-02T09:26:01.869Z</time></trkpt><trkpt lat="40.6217083" lon="15.0549283"><ele>160.0</ele><time>2026-05-02T09:26:03.869Z</time></trkpt><trkpt lat="40.6216433" lon="15.0550317"><ele>160.0</ele><time>2026-05-02T09:26:05.868Z</time></trkpt><trkpt lat="40.6215867" lon="15.05512"><ele>160.0</ele><time>2026-05-02T09:26:07.868Z</time></trkpt><trkpt lat="40.6215183" lon="15.0552083"><ele>158.4</ele><time>2026-05-02T09:26:09.869Z</time></trkpt><trkpt lat="40.62144" lon="15.0553133"><ele>156.8</ele><time>2026-05-02T09:26:11.869Z</time></trkpt><trkpt lat="40.6213567" lon="15.0554067"><ele>155.2</ele><time>2026-05-02T09:26:13.868Z</time></trkpt><trkpt lat="40.6212867" lon="15.0555017"><ele>153.6</ele><time>2026-05-02T09:26:15.868Z</time></trkpt><trkpt lat="40.62124" lon="15.05558"><ele>152.0</ele><time>2026-05-02T09:26:17.868Z</time></trkpt><trkpt lat="40.6212317" lon="15.0556767"><ele>152.0</ele><time>2026-05-02T09:26:20.869Z</time></trkpt><trkpt lat="40.62122" lon="15.05578"><ele>152.0</ele><time>2026-05-02T09:26:23.869Z</time></trkpt><trkpt lat="40.6211733" lon="15.0558417"><ele>152.0</ele><time>2026-05-02T09:26:26.868Z</time></trkpt><trkpt lat="40.62112" lon="15.0559283"><ele>152.0</ele><time>2026-05-02T09:26:29.868Z</time></trkpt><trkpt lat="40.6210767" lon="15.0560233"><ele>152.0</ele><time>2026-05-02T09:26:31.868Z</time></trkpt><trkpt lat="40.6210367" lon="15.056125"><ele>152.0</ele><time>2026-05-02T09:26:33.869Z</time></trkpt><trkpt lat="40.6209767" lon="15.0562367"><ele>151.16666666666666</ele><time>2026-05-02T09:26:35.869Z</time></trkpt><trkpt lat="40.62093" lon="15.056345"><ele>150.33333333333331</ele><time>2026-05-02T09:26:37.869Z</time></trkpt><trkpt lat="40.6209" lon="15.05644"><ele>149.5</ele><time>2026-05-02T09:26:39.869Z</time></trkpt><trkpt lat="40.6208667" lon="15.0565167"><ele>148.66666666666666</ele><time>2026-05-02T09:26:41.868Z</time></trkpt><trkpt lat="40.6208433" lon="15.0566183"><ele>147.83333333333334</ele><time>2026-05-02T09:26:45.869Z</time></trkpt><trkpt lat="40.6208933" lon="15.05672"><ele>147.0</ele><time>2026-05-02T09:26:48.869Z</time></trkpt><trkpt lat="40.6209183" lon="15.0568"><ele>145.16666666666666</ele><time>2026-05-02T09:26:50.869Z</time></trkpt><trkpt lat="40.620935" lon="15.0569067"><ele>143.33333333333334</ele><time>2026-05-02T09:26:52.868Z</time></trkpt><trkpt lat="40.6209483" lon="15.057025"><ele>141.5</ele><time>2026-05-02T09:26:54.868Z</time></trkpt><trkpt lat="40.6209633" lon="15.0571483"><ele>139.66666666666669</ele><time>2026-05-02T09:26:56.868Z</time></trkpt><trkpt lat="40.6209717" lon="15.0572467"><ele>137.83333333333334</ele><time>2026-05-02T09:26:58.869Z</time></trkpt><trkpt lat="40.621005" lon="15.0573367"><ele>136.0</ele><time>2026-05-02T09:27:01.868Z</time></trkpt><trkpt lat="40.6211017" lon="15.05735"><ele>136.8</ele><time>2026-05-02T09:27:04.869Z</time></trkpt><trkpt lat="40.6212133" lon="15.057285"><ele>137.6</ele><time>2026-05-02T09:27:06.868Z</time></trkpt><trkpt lat="40.621325" lon="15.0572217"><ele>138.4</ele><time>2026-05-02T09:27:08.868Z</time></trkpt><trkpt lat="40.6214217" lon="15.0571533"><ele>139.2</ele><time>2026-05-02T09:27:10.868Z</time></trkpt><trkpt lat="40.6214767" lon="15.0570917"><ele>140.0</ele><time>2026-05-02T09:27:13.868Z</time></trkpt><trkpt lat="40.6215267" lon="15.057035"><ele>140.0</ele><time>2026-05-02T09:27:15.868Z</time></trkpt><trkpt lat="40.6216033" lon="15.0569483"><ele>140.0</ele><time>2026-05-02T09:27:17.868Z</time></trkpt><trkpt lat="40.6217117" lon="15.0568767"><ele>140.0</ele><time>2026-05-02T09:27:19.868Z</time></trkpt><trkpt lat="40.6218033" lon="15.05679"><ele>140.0</ele><time>2026-05-02T09:27:21.868Z</time></trkpt><trkpt lat="40.6219133" lon="15.0567483"><ele>140.0</ele><time>2026-05-02T09:27:23.869Z</time></trkpt><trkpt lat="40.6220333" lon="15.05671"><ele>140.0</ele><time>2026-05-02T09:27:25.869Z</time></trkpt><trkpt lat="40.6221067" lon="15.05669"><ele>140.0</ele><time>2026-05-02T09:27:26.869Z</time></trkpt><trkpt lat="40.622185" lon="15.056665"><ele>140.0</ele><time>2026-05-02T09:27:27.868Z</time></trkpt><trkpt lat="40.62225" lon="15.0566517"><ele>140.0</ele><time>2026-05-02T09:27:28.869Z</time></trkpt><trkpt lat="40.62234" lon="15.0566383"><ele>140.0</ele><time>2026-05-02T09:27:30.868Z</time></trkpt><trkpt lat="40.6224067" lon="15.0566283"><ele>140.0</ele><time>2026-05-02T09:27:32.868Z</time></trkpt><trkpt lat="40.62244" lon="15.0565517"><ele>140.0</ele><time>2026-05-02T09:27:35.869Z</time></trkpt><trkpt lat="40.6223333" lon="15.0565667"><ele>140.0</ele><time>2026-05-02T09:27:38.868Z</time></trkpt><trkpt lat="40.6222183" lon="15.0566133"><ele>140.0</ele><time>2026-05-02T09:27:40.869Z</time></trkpt><trkpt lat="40.6220967" lon="15.05666"><ele>140.0</ele><time>2026-05-02T09:27:42.869Z</time></trkpt><trkpt lat="40.6219783" lon="15.0566883"><ele>140.0</ele><time>2026-05-02T09:27:44.869Z</time></trkpt><trkpt lat="40.621865" lon="15.0567217"><ele>140.0</ele><time>2026-05-02T09:27:46.868Z</time></trkpt><trkpt lat="40.6218067" lon="15.0567567"><ele>140.0</ele><time>2026-05-02T09:27:47.869Z</time></trkpt><trkpt lat="40.6217083" lon="15.056835"><ele>140.0</ele><time>2026-05-02T09:27:49.869Z</time></trkpt><trkpt lat="40.6216217" lon="15.0569333"><ele>140.0</ele><time>2026-05-02T09:27:51.869Z</time></trkpt><trkpt lat="40.6215167" lon="15.0570083"><ele>140.0</ele><time>2026-05-02T09:27:53.869Z</time></trkpt><trkpt lat="40.6214567" lon="15.0570483"><ele>140.0</ele><time>2026-05-02T09:27:54.868Z</time></trkpt><trkpt lat="40.6213667" lon="15.0571167"><ele>140.0</ele><time>2026-05-02T09:27:56.868Z</time></trkpt><trkpt lat="40.6213517" lon="15.057215"><ele>140.0</ele><time>2026-05-02T09:28:02.868Z</time></trkpt><trkpt lat="40.6213967" lon="15.0573033"><ele>140.0</ele><time>2026-05-02T09:28:04.869Z</time></trkpt><trkpt lat="40.62144" lon="15.0574267"><ele>140.0</ele><time>2026-05-02T09:28:06.869Z</time></trkpt><trkpt lat="40.62146" lon="15.0575467"><ele>140.16666666666666</ele><time>2026-05-02T09:28:08.868Z</time></trkpt><trkpt lat="40.62146" lon="15.0576383"><ele>140.33333333333331</ele><time>2026-05-02T09:28:10.869Z</time></trkpt><trkpt lat="40.6214733" lon="15.0577483"><ele>140.5</ele><time>2026-05-02T09:28:12.869Z</time></trkpt><trkpt lat="40.6214833" lon="15.057865"><ele>140.66666666666666</ele><time>2026-05-02T09:28:14.869Z</time></trkpt><trkpt lat="40.6215" lon="15.0579917"><ele>140.83333333333334</ele><time>2026-05-02T09:28:16.868Z</time></trkpt><trkpt lat="40.6215167" lon="15.0581267"><ele>141.0</ele><time>2026-05-02T09:28:18.867Z</time></trkpt><trkpt lat="40.6215417" lon="15.058235"><ele>140.4</ele><time>2026-05-02T09:28:20.867Z</time></trkpt><trkpt lat="40.6216067" lon="15.0583"><ele>139.8</ele><time>2026-05-02T09:28:22.867Z</time></trkpt><trkpt lat="40.6217183" lon="15.058345"><ele>139.20000000000002</ele><time>2026-05-02T09:28:24.868Z</time></trkpt><trkpt lat="40.62181" lon="15.058415"><ele>138.6</ele><time>2026-05-02T09:28:26.868Z</time></trkpt><trkpt lat="40.6218617" lon="15.0585233"><ele>138.0</ele><time>2026-05-02T09:28:28.867Z</time></trkpt><trkpt lat="40.6219233" lon="15.05863"><ele>139.8</ele><time>2026-05-02T09:28:30.868Z</time></trkpt><trkpt lat="40.6220267" lon="15.058735"><ele>141.60000000000002</ele><time>2026-05-02T09:28:32.868Z</time></trkpt><trkpt lat="40.6220867" lon="15.0587917"><ele>143.39999999999998</ele><time>2026-05-02T09:28:33.867Z</time></trkpt><trkpt lat="40.6221533" lon="15.0588567"><ele>145.2</ele><time>2026-05-02T09:28:34.867Z</time></trkpt><trkpt lat="40.6222233" lon="15.05892"><ele>147.0</ele><time>2026-05-02T09:28:35.867Z</time></trkpt><trkpt lat="40.622285" lon="15.0589933"><ele>147.0</ele><time>2026-05-02T09:28:36.868Z</time></trkpt><trkpt lat="40.622345" lon="15.05907"><ele>147.0</ele><time>2026-05-02T09:28:37.867Z</time></trkpt><trkpt lat="40.6224117" lon="15.0591483"><ele>147.0</ele><time>2026-05-02T09:28:38.867Z</time></trkpt><trkpt lat="40.62247" lon="15.0592283"><ele>147.0</ele><time>2026-05-02T09:28:39.868Z</time></trkpt><trkpt lat="40.6225267" lon="15.059295"><ele>147.0</ele><time>2026-05-02T09:28:40.868Z</time></trkpt><trkpt lat="40.6225817" lon="15.0593567"><ele>147.0</ele><time>2026-05-02T09:28:41.868Z</time></trkpt><trkpt lat="40.6226467" lon="15.059415"><ele>147.83333333333334</ele><time>2026-05-02T09:28:42.868Z</time></trkpt><trkpt lat="40.6227067" lon="15.0594683"><ele>148.66666666666666</ele><time>2026-05-02T09:28:43.868Z</time></trkpt><trkpt lat="40.6227533" lon="15.0595383"><ele>149.5</ele><time>2026-05-02T09:28:44.868Z</time></trkpt><trkpt lat="40.62279" lon="15.05962"><ele>150.33333333333331</ele><time>2026-05-02T09:28:45.868Z</time></trkpt><trkpt lat="40.6228133" lon="15.0597067"><ele>151.16666666666666</ele><time>2026-05-02T09:28:46.868Z</time></trkpt><trkpt lat="40.6228717" lon="15.05985"><ele>152.0</ele><time>2026-05-02T09:28:48.867Z</time></trkpt><trkpt lat="40.62293" lon="15.0599033"><ele>154.0</ele><time>2026-05-02T09:28:49.867Z</time></trkpt><trkpt lat="40.623" lon="15.059945"><ele>156.0</ele><time>2026-05-02T09:28:50.867Z</time></trkpt><trkpt lat="40.623085" lon="15.060025"><ele>158.0</ele><time>2026-05-02T09:28:52.868Z</time></trkpt><trkpt lat="40.6230733" lon="15.060115"><ele>160.0</ele><time>2026-05-02T09:28:54.867Z</time></trkpt><trkpt lat="40.622975" lon="15.060145"><ele>162.0</ele><time>2026-05-02T09:28:56.868Z</time></trkpt><trkpt lat="40.622885" lon="15.0601633"><ele>164.0</ele><time>2026-05-02T09:28:58.867Z</time></trkpt><trkpt lat="40.6228183" lon="15.0602417"><ele>165.16666666666666</ele><time>2026-05-02T09:29:00.867Z</time></trkpt><trkpt lat="40.6228383" lon="15.06039"><ele>166.33333333333331</ele><time>2026-05-02T09:29:02.868Z</time></trkpt><trkpt lat="40.6228633" lon="15.06048"><ele>167.5</ele><time>2026-05-02T09:29:03.867Z</time></trkpt><trkpt lat="40.6228867" lon="15.0605767"><ele>168.66666666666666</ele><time>2026-05-02T09:29:04.868Z</time></trkpt><trkpt lat="40.6229133" lon="15.0606783"><ele>169.83333333333334</ele><time>2026-05-02T09:29:05.867Z</time></trkpt><trkpt lat="40.6229433" lon="15.06078"><ele>171.0</ele><time>2026-05-02T09:29:06.867Z</time></trkpt><trkpt lat="40.6229783" lon="15.06089"><ele>174.0</ele><time>2026-05-02T09:29:07.868Z</time></trkpt><trkpt lat="40.6230133" lon="15.061005"><ele>177.0</ele><time>2026-05-02T09:29:08.868Z</time></trkpt><trkpt lat="40.6230267" lon="15.061115"><ele>180.0</ele><time>2026-05-02T09:29:09.868Z</time></trkpt><trkpt lat="40.6230483" lon="15.06123"><ele>183.0</ele><time>2026-05-02T09:29:10.868Z</time></trkpt><trkpt lat="40.6230833" lon="15.0613433"><ele>186.0</ele><time>2026-05-02T09:29:11.868Z</time></trkpt><trkpt lat="40.623115" lon="15.0614533"><ele>186.0</ele><time>2026-05-02T09:29:12.867Z</time></trkpt><trkpt lat="40.62314" lon="15.0615633"><ele>186.0</ele><time>2026-05-02T09:29:13.867Z</time></trkpt><trkpt lat="40.62316" lon="15.0616483"><ele>186.0</ele><time>2026-05-02T09:29:14.868Z</time></trkpt><trkpt lat="40.6231767" lon="15.061735"><ele>186.0</ele><time>2026-05-02T09:29:15.867Z</time></trkpt><trkpt lat="40.6232267" lon="15.0618533"><ele>186.0</ele><time>2026-05-02T09:29:17.868Z</time></trkpt><trkpt lat="40.6233333" lon="15.0618633"><ele>186.0</ele><time>2026-05-02T09:29:19.867Z</time></trkpt><trkpt lat="40.6233983" lon="15.0618433"><ele>186.83333333333334</ele><time>2026-05-02T09:29:20.867Z</time></trkpt><trkpt lat="40.623465" lon="15.0618133"><ele>187.66666666666666</ele><time>2026-05-02T09:29:21.867Z</time></trkpt><trkpt lat="40.6235333" lon="15.0617883"><ele>188.5</ele><time>2026-05-02T09:29:22.867Z</time></trkpt><trkpt lat="40.623605" lon="15.0617667"><ele>189.33333333333331</ele><time>2026-05-02T09:29:23.868Z</time></trkpt><trkpt lat="40.62367" lon="15.0617533"><ele>190.16666666666666</ele><time>2026-05-02T09:29:24.867Z</time></trkpt><trkpt lat="40.6237767" lon="15.0617733"><ele>191.0</ele><time>2026-05-02T09:29:26.868Z</time></trkpt><trkpt lat="40.6238417" lon="15.06188"><ele>193.60000000000002</ele><time>2026-05-02T09:29:28.868Z</time></trkpt><trkpt lat="40.623885" lon="15.0620033"><ele>196.2</ele><time>2026-05-02T09:29:30.867Z</time></trkpt><trkpt lat="40.6239283" lon="15.062135"><ele>198.8</ele><time>2026-05-02T09:29:32.868Z</time></trkpt><trkpt lat="40.6239767" lon="15.062275"><ele>201.39999999999998</ele><time>2026-05-02T09:29:34.867Z</time></trkpt><trkpt lat="40.62404" lon="15.0623783"><ele>204.0</ele><time>2026-05-02T09:29:36.867Z</time></trkpt><trkpt lat="40.62411" lon="15.0624917"><ele>204.0</ele><time>2026-05-02T09:29:38.867Z</time></trkpt><trkpt lat="40.6241683" lon="15.062585"><ele>204.0</ele><time>2026-05-02T09:29:40.868Z</time></trkpt><trkpt lat="40.6242117" lon="15.0626467"><ele>204.0</ele><time>2026-05-02T09:29:47.867Z</time></trkpt><trkpt lat="40.624265" lon="15.062745"><ele>204.0</ele><time>2026-05-02T09:29:49.867Z</time></trkpt><trkpt lat="40.6243333" lon="15.0628683"><ele>204.0</ele><time>2026-05-02T09:29:51.867Z</time></trkpt><trkpt lat="40.6243933" lon="15.0629717"><ele>204.0</ele><time>2026-05-02T09:29:53.868Z</time></trkpt><trkpt lat="40.6244467" lon="15.0630467"><ele>204.0</ele><time>2026-05-02T09:29:55.868Z</time></trkpt><trkpt lat="40.6245033" lon="15.0630917"><ele>204.0</ele><time>2026-05-02T09:29:57.868Z</time></trkpt><trkpt lat="40.6245767" lon="15.0631067"><ele>204.0</ele><time>2026-05-02T09:30:43.868Z</time></trkpt><trkpt lat="40.6246633" lon="15.0630917"><ele>204.0</ele><time>2026-05-02T09:30:55.867Z</time></trkpt><trkpt lat="40.6247283" lon="15.06308"><ele>204.0</ele><time>2026-05-02T09:30:56.868Z</time></trkpt><trkpt lat="40.6248067" lon="15.063065"><ele>206.83333333333334</ele><time>2026-05-02T09:30:57.868Z</time></trkpt><trkpt lat="40.6248917" lon="15.0630583"><ele>209.66666666666669</ele><time>2026-05-02T09:30:58.867Z</time></trkpt><trkpt lat="40.624975" lon="15.06306"><ele>212.5</ele><time>2026-05-02T09:30:59.867Z</time></trkpt><trkpt lat="40.6250533" lon="15.063065"><ele>215.33333333333334</ele><time>2026-05-02T09:31:00.868Z</time></trkpt><trkpt lat="40.625135" lon="15.0630583"><ele>218.16666666666669</ele><time>2026-05-02T09:31:01.868Z</time></trkpt><trkpt lat="40.6252183" lon="15.0630517"><ele>221.0</ele><time>2026-05-02T09:31:02.867Z</time></trkpt><trkpt lat="40.6252967" lon="15.0630383"><ele>224.66666666666669</ele><time>2026-05-02T09:31:03.867Z</time></trkpt><trkpt lat="40.6253683" lon="15.0630267"><ele>228.33333333333334</ele><time>2026-05-02T09:31:04.868Z</time></trkpt><trkpt lat="40.6254417" lon="15.0630167"><ele>232.0</ele><time>2026-05-02T09:31:05.868Z</time></trkpt><trkpt lat="40.62551" lon="15.0630133"><ele>235.66666666666669</ele><time>2026-05-02T09:31:06.868Z</time></trkpt><trkpt lat="40.6256017" lon="15.06306"><ele>239.33333333333334</ele><time>2026-05-02T09:31:08.867Z</time></trkpt><trkpt lat="40.625635" lon="15.0631667"><ele>243.0</ele><time>2026-05-02T09:31:10.867Z</time></trkpt><trkpt lat="40.625625" lon="15.063305"><ele>243.4</ele><time>2026-05-02T09:31:12.868Z</time></trkpt><trkpt lat="40.625625" lon="15.06342"><ele>243.8</ele><time>2026-05-02T09:31:14.868Z</time></trkpt><trkpt lat="40.6256583" lon="15.0635333"><ele>244.2</ele><time>2026-05-02T09:31:16.868Z</time></trkpt><trkpt lat="40.6257167" lon="15.0636483"><ele>244.6</ele><time>2026-05-02T09:31:18.868Z</time></trkpt><trkpt lat="40.6257917" lon="15.0637567"><ele>245.0</ele><time>2026-05-02T09:31:20.868Z</time></trkpt><trkpt lat="40.6258767" lon="15.0638483"><ele>245.00000000000003</ele><time>2026-05-02T09:31:22.868Z</time></trkpt><trkpt lat="40.625975" lon="15.0639217"><ele>245.0</ele><time>2026-05-02T09:31:24.868Z</time></trkpt><trkpt lat="40.6260667" lon="15.0639733"><ele>245.0</ele><time>2026-05-02T09:31:26.868Z</time></trkpt><trkpt lat="40.6261417" lon="15.063975"><ele>245.0</ele><time>2026-05-02T09:31:28.868Z</time></trkpt><trkpt lat="40.62622" lon="15.0639567"><ele>245.00000000000003</ele><time>2026-05-02T09:31:30.867Z</time></trkpt><trkpt lat="40.626295" lon="15.063975"><ele>245.0</ele><time>2026-05-02T09:31:32.867Z</time></trkpt><trkpt lat="40.6263817" lon="15.0640367"><ele>249.00000000000003</ele><time>2026-05-02T09:31:34.867Z</time></trkpt><trkpt lat="40.6264717" lon="15.06412"><ele>253.0</ele><time>2026-05-02T09:31:36.868Z</time></trkpt><trkpt lat="40.6265633" lon="15.064235"><ele>257.0</ele><time>2026-05-02T09:31:38.867Z</time></trkpt><trkpt lat="40.6266067" lon="15.06431"><ele>261.0</ele><time>2026-05-02T09:31:39.867Z</time></trkpt><trkpt lat="40.6266467" lon="15.064385"><ele>265.0</ele><time>2026-05-02T09:31:40.867Z</time></trkpt><trkpt lat="40.6266767" lon="15.0644633"><ele>269.0</ele><time>2026-05-02T09:31:41.868Z</time></trkpt><trkpt lat="40.626695" lon="15.0645433"><ele>269.0</ele><time>2026-05-02T09:31:42.867Z</time></trkpt><trkpt lat="40.626735" lon="15.0646933"><ele>269.0</ele><time>2026-05-02T09:31:44.868Z</time></trkpt><trkpt lat="40.62677" lon="15.06477"><ele>269.0</ele><time>2026-05-02T09:31:45.868Z</time></trkpt><trkpt lat="40.626825" lon="15.064845"><ele>269.0</ele><time>2026-05-02T09:31:46.868Z</time></trkpt><trkpt lat="40.6268783" lon="15.06492"><ele>269.0</ele><time>2026-05-02T09:31:47.867Z</time></trkpt><trkpt lat="40.6269333" lon="15.0649867"><ele>269.0</ele><time>2026-05-02T09:31:48.867Z</time></trkpt><trkpt lat="40.6269883" lon="15.0650483"><ele>271.7142857142857</ele><time>2026-05-02T09:31:49.867Z</time></trkpt><trkpt lat="40.6270433" lon="15.0651083"><ele>274.42857142857144</ele><time>2026-05-02T09:31:50.868Z</time></trkpt><trkpt lat="40.6271" lon="15.065165"><ele>277.14285714285717</ele><time>2026-05-02T09:31:51.868Z</time></trkpt><trkpt lat="40.627165" lon="15.065215"><ele>279.8571428571429</ele><time>2026-05-02T09:31:52.867Z</time></trkpt><trkpt lat="40.6272367" lon="15.0652633"><ele>282.57142857142856</ele><time>2026-05-02T09:31:53.868Z</time></trkpt><trkpt lat="40.627305" lon="15.065305"><ele>285.28571428571433</ele><time>2026-05-02T09:31:54.867Z</time></trkpt><trkpt lat="40.6273683" lon="15.0653317"><ele>288.0</ele><time>2026-05-02T09:31:55.868Z</time></trkpt><trkpt lat="40.6274933" lon="15.065375"><ele>288.0</ele><time>2026-05-02T09:31:57.868Z</time></trkpt><trkpt lat="40.6275617" lon="15.06539"><ele>288.0</ele><time>2026-05-02T09:31:58.868Z</time></trkpt><trkpt lat="40.627635" lon="15.0654"><ele>288.0</ele><time>2026-05-02T09:31:59.867Z</time></trkpt><trkpt lat="40.627705" lon="15.0653933"><ele>288.0</ele><time>2026-05-02T09:32:00.868Z</time></trkpt><trkpt lat="40.6277733" lon="15.065375"><ele>288.0</ele><time>2026-05-02T09:32:01.867Z</time></trkpt><trkpt lat="40.6278383" lon="15.0653517"><ele>288.0</ele><time>2026-05-02T09:32:02.868Z</time></trkpt><trkpt lat="40.627945" lon="15.0653117"><ele>292.4</ele><time>2026-05-02T09:32:04.868Z</time></trkpt><trkpt lat="40.6279917" lon="15.065255"><ele>296.8</ele><time>2026-05-02T09:32:06.868Z</time></trkpt><trkpt lat="40.627975" lon="15.06515"><ele>301.2</ele><time>2026-05-02T09:32:08.868Z</time></trkpt><trkpt lat="40.6279567" lon="15.0650133"><ele>305.6</ele><time>2026-05-02T09:32:10.867Z</time></trkpt><trkpt lat="40.6279733" lon="15.0648467"><ele>310.0</ele><time>2026-05-02T09:32:12.868Z</time></trkpt><trkpt lat="40.62799" lon="15.0647517"><ele>311.8333333333333</ele><time>2026-05-02T09:32:13.867Z</time></trkpt><trkpt lat="40.6280117" lon="15.0646517"><ele>313.66666666666663</ele><time>2026-05-02T09:32:14.867Z</time></trkpt><trkpt lat="40.6280367" lon="15.0645417"><ele>315.5</ele><time>2026-05-02T09:32:15.867Z</time></trkpt><trkpt lat="40.6280683" lon="15.0644267"><ele>317.3333333333333</ele><time>2026-05-02T09:32:16.867Z</time></trkpt><trkpt lat="40.6280983" lon="15.0643133"><ele>319.1666666666667</ele><time>2026-05-02T09:32:17.868Z</time></trkpt><trkpt lat="40.62813" lon="15.0641917"><ele>321.0</ele><time>2026-05-02T09:32:18.867Z</time></trkpt><trkpt lat="40.6281583" lon="15.064075"><ele>322.0</ele><time>2026-05-02T09:32:19.868Z</time></trkpt><trkpt lat="40.628185" lon="15.0639717"><ele>323.0</ele><time>2026-05-02T09:32:20.867Z</time></trkpt><trkpt lat="40.6282167" lon="15.06386"><ele>324.0</ele><time>2026-05-02T09:32:21.868Z</time></trkpt><trkpt lat="40.6282467" lon="15.0637467"><ele>325.0</ele><time>2026-05-02T09:32:22.867Z</time></trkpt><trkpt lat="40.628275" lon="15.0636317"><ele>326.0</ele><time>2026-05-02T09:32:23.868Z</time></trkpt><trkpt lat="40.628295" lon="15.0635133"><ele>327.0</ele><time>2026-05-02T09:32:24.867Z</time></trkpt><trkpt lat="40.6283117" lon="15.0634017"><ele>327.0</ele><time>2026-05-02T09:32:25.868Z</time></trkpt><trkpt lat="40.6283233" lon="15.0633167"><ele>327.0</ele><time>2026-05-02T09:32:26.867Z</time></trkpt><trkpt lat="40.62833" lon="15.0631733"><ele>327.0</ele><time>2026-05-02T09:32:28.868Z</time></trkpt><trkpt lat="40.628355" lon="15.0630483"><ele>327.0</ele><time>2026-05-02T09:32:30.868Z</time></trkpt><trkpt lat="40.628405" lon="15.06293"><ele>327.0</ele><time>2026-05-02T09:32:32.868Z</time></trkpt><trkpt lat="40.62845" lon="15.06285"><ele>326.6666666666667</ele><time>2026-05-02T09:32:34.867Z</time></trkpt><trkpt lat="40.6285083" lon="15.0628067"><ele>326.3333333333333</ele><time>2026-05-02T09:32:36.868Z</time></trkpt><trkpt lat="40.62859" lon="15.0627933"><ele>326.0</ele><time>2026-05-02T09:32:39.868Z</time></trkpt><trkpt lat="40.6286533" lon="15.0628017"><ele>325.66666666666663</ele><time>2026-05-02T09:32:41.868Z</time></trkpt><trkpt lat="40.62873" lon="15.0628467"><ele>325.3333333333333</ele><time>2026-05-02T09:32:43.867Z</time></trkpt><trkpt lat="40.6288067" lon="15.0629183"><ele>325.0</ele><time>2026-05-02T09:32:45.868Z</time></trkpt><trkpt lat="40.6288867" lon="15.0630117"><ele>325.0</ele><time>2026-05-02T09:32:47.868Z</time></trkpt><trkpt lat="40.6289767" lon="15.06309"><ele>325.0</ele><time>2026-05-02T09:32:49.868Z</time></trkpt><trkpt lat="40.6290483" lon="15.0631567"><ele>325.0</ele><time>2026-05-02T09:32:51.868Z</time></trkpt><trkpt lat="40.62911" lon="15.0632217"><ele>325.0</ele><time>2026-05-02T09:32:53.868Z</time></trkpt><trkpt lat="40.6291617" lon="15.063305"><ele>325.0</ele><time>2026-05-02T09:32:55.867Z</time></trkpt><trkpt lat="40.6292233" lon="15.0633883"><ele>325.0</ele><time>2026-05-02T09:32:57.867Z</time></trkpt><trkpt lat="40.6293083" lon="15.0634617"><ele>326.0</ele><time>2026-05-02T09:32:59.867Z</time></trkpt><trkpt lat="40.6293633" lon="15.0635033"><ele>327.0</ele><time>2026-05-02T09:33:00.867Z</time></trkpt><trkpt lat="40.62946" lon="15.0636067"><ele>328.0</ele><time>2026-05-02T09:33:02.868Z</time></trkpt><trkpt lat="40.6295033" lon="15.06367"><ele>329.0</ele><time>2026-05-02T09:33:03.867Z</time></trkpt><trkpt lat="40.6295533" lon="15.0637783"><ele>330.0</ele><time>2026-05-02T09:33:05.867Z</time></trkpt><trkpt lat="40.629605" lon="15.06388"><ele>331.0</ele><time>2026-05-02T09:33:07.867Z</time></trkpt><trkpt lat="40.629655" lon="15.0639717"><ele>331.0</ele><time>2026-05-02T09:33:09.867Z</time></trkpt><trkpt lat="40.629715" lon="15.0640417"><ele>331.0</ele><time>2026-05-02T09:33:11.868Z</time></trkpt><trkpt lat="40.629775" lon="15.064095"><ele>331.0</ele><time>2026-05-02T09:33:13.867Z</time></trkpt><trkpt lat="40.6298117" lon="15.064175"><ele>331.0</ele><time>2026-05-02T09:33:15.868Z</time></trkpt><trkpt lat="40.6298483" lon="15.06429"><ele>331.0</ele><time>2026-05-02T09:33:17.868Z</time></trkpt><trkpt lat="40.629885" lon="15.06441"><ele>331.0</ele><time>2026-05-02T09:33:19.868Z</time></trkpt><trkpt lat="40.6299433" lon="15.0644917"><ele>331.5</ele><time>2026-05-02T09:33:21.868Z</time></trkpt><trkpt lat="40.6300117" lon="15.064545"><ele>332.0</ele><time>2026-05-02T09:33:23.867Z</time></trkpt><trkpt lat="40.6300933" lon="15.0645717"><ele>332.5</ele><time>2026-05-02T09:33:25.868Z</time></trkpt><trkpt lat="40.6301783" lon="15.0645867"><ele>333.0</ele><time>2026-05-02T09:33:27.868Z</time></trkpt><trkpt lat="40.6302367" lon="15.0646417"><ele>333.5</ele><time>2026-05-02T09:33:29.867Z</time></trkpt><trkpt lat="40.63029" lon="15.06473"><ele>334.0</ele><time>2026-05-02T09:33:31.867Z</time></trkpt><trkpt lat="40.630355" lon="15.0648083"><ele>334.0</ele><time>2026-05-02T09:33:33.868Z</time></trkpt><trkpt lat="40.6304283" lon="15.064865"><ele>334.0</ele><time>2026-05-02T09:33:35.868Z</time></trkpt><trkpt lat="40.6305017" lon="15.06492"><ele>334.0</ele><time>2026-05-02T09:33:37.868Z</time></trkpt><trkpt lat="40.6305783" lon="15.0649867"><ele>334.0</ele><time>2026-05-02T09:33:39.867Z</time></trkpt><trkpt lat="40.6306583" lon="15.0650583"><ele>334.0</ele><time>2026-05-02T09:33:41.868Z</time></trkpt><trkpt lat="40.6307217" lon="15.0651217"><ele>334.0</ele><time>2026-05-02T09:33:43.868Z</time></trkpt><trkpt lat="40.630795" lon="15.0651967"><ele>336.2</ele><time>2026-05-02T09:33:45.868Z</time></trkpt><trkpt lat="40.6308667" lon="15.0652633"><ele>338.4</ele><time>2026-05-02T09:33:47.868Z</time></trkpt><trkpt lat="40.6309217" lon="15.0653383"><ele>340.6</ele><time>2026-05-02T09:33:49.868Z</time></trkpt><trkpt lat="40.6309817" lon="15.0654433"><ele>342.8</ele><time>2026-05-02T09:33:51.868Z</time></trkpt><trkpt lat="40.6310467" lon="15.0655367"><ele>345.0</ele><time>2026-05-02T09:33:53.866Z</time></trkpt><trkpt lat="40.631115" lon="15.06561"><ele>345.8333333333333</ele><time>2026-05-02T09:33:55.867Z</time></trkpt><trkpt lat="40.631185" lon="15.06568"><ele>346.6666666666667</ele><time>2026-05-02T09:33:57.866Z</time></trkpt><trkpt lat="40.6312517" lon="15.0657367"><ele>347.5</ele><time>2026-05-02T09:34:00.866Z</time></trkpt><trkpt lat="40.631305" lon="15.065815"><ele>348.33333333333337</ele><time>2026-05-02T09:34:08.866Z</time></trkpt><trkpt lat="40.6313617" lon="15.0658867"><ele>349.1666666666667</ele><time>2026-05-02T09:34:10.866Z</time></trkpt><trkpt lat="40.631435" lon="15.0659683"><ele>350.0</ele><time>2026-05-02T09:34:12.866Z</time></trkpt><trkpt lat="40.63149" lon="15.0660567"><ele>351.6</ele><time>2026-05-02T09:34:14.867Z</time></trkpt><trkpt lat="40.631525" lon="15.0661533"><ele>353.2</ele><time>2026-05-02T09:34:16.866Z</time></trkpt><trkpt lat="40.6315767" lon="15.06628"><ele>354.79999999999995</ele><time>2026-05-02T09:34:18.867Z</time></trkpt><trkpt lat="40.6316367" lon="15.0664017"><ele>356.4</ele><time>2026-05-02T09:34:20.866Z</time></trkpt><trkpt lat="40.63169" lon="15.0665117"><ele>358.0</ele><time>2026-05-02T09:34:22.867Z</time></trkpt><trkpt lat="40.6317633" lon="15.06662"><ele>358.2</ele><time>2026-05-02T09:34:24.867Z</time></trkpt><trkpt lat="40.6318567" lon="15.0667083"><ele>358.4</ele><time>2026-05-02T09:34:26.866Z</time></trkpt><trkpt lat="40.6319083" lon="15.06681"><ele>358.59999999999997</ele><time>2026-05-02T09:34:28.866Z</time></trkpt><trkpt lat="40.6319417" lon="15.0669417"><ele>358.79999999999995</ele><time>2026-05-02T09:34:30.867Z</time></trkpt><trkpt lat="40.63196" lon="15.06709"><ele>359.0</ele><time>2026-05-02T09:34:32.867Z</time></trkpt><trkpt lat="40.63199" lon="15.0672317"><ele>359.0</ele><time>2026-05-02T09:34:34.867Z</time></trkpt><trkpt lat="40.6320167" lon="15.0673583"><ele>359.0</ele><time>2026-05-02T09:34:36.866Z</time></trkpt><trkpt lat="40.63205" lon="15.0674833"><ele>359.0</ele><time>2026-05-02T09:34:38.867Z</time></trkpt><trkpt lat="40.6320967" lon="15.0676233"><ele>359.0</ele><time>2026-05-02T09:34:40.867Z</time></trkpt><trkpt lat="40.63215" lon="15.06776"><ele>359.0</ele><time>2026-05-02T09:34:42.867Z</time></trkpt><trkpt lat="40.6321967" lon="15.0678967"><ele>360.6</ele><time>2026-05-02T09:34:44.867Z</time></trkpt><trkpt lat="40.632235" lon="15.0680267"><ele>362.2</ele><time>2026-05-02T09:34:46.867Z</time></trkpt><trkpt lat="40.6322783" lon="15.068145"><ele>363.8</ele><time>2026-05-02T09:34:48.866Z</time></trkpt><trkpt lat="40.6323083" lon="15.0682483"><ele>365.40000000000003</ele><time>2026-05-02T09:34:50.867Z</time></trkpt><trkpt lat="40.6323317" lon="15.0683633"><ele>367.0</ele><time>2026-05-02T09:34:52.866Z</time></trkpt><trkpt lat="40.6323483" lon="15.06849"><ele>367.40000000000003</ele><time>2026-05-02T09:34:54.867Z</time></trkpt><trkpt lat="40.6323667" lon="15.068605"><ele>367.8</ele><time>2026-05-02T09:34:56.867Z</time></trkpt><trkpt lat="40.63238" lon="15.0686867"><ele>368.2</ele><time>2026-05-02T09:34:58.867Z</time></trkpt><trkpt lat="40.6324633" lon="15.0687567"><ele>368.6</ele><time>2026-05-02T09:35:01.866Z</time></trkpt><trkpt lat="40.6325667" lon="15.0687983"><ele>369.0</ele><time>2026-05-02T09:35:03.867Z</time></trkpt><trkpt lat="40.632675" lon="15.0688383"><ele>369.0</ele><time>2026-05-02T09:35:05.867Z</time></trkpt><trkpt lat="40.6327883" lon="15.0688533"><ele>369.0</ele><time>2026-05-02T09:35:07.866Z</time></trkpt><trkpt lat="40.6329083" lon="15.0688517"><ele>369.0</ele><time>2026-05-02T09:35:09.867Z</time></trkpt><trkpt lat="40.6329733" lon="15.06885"><ele>369.0</ele><time>2026-05-02T09:35:10.866Z</time></trkpt><trkpt lat="40.6330433" lon="15.068845"><ele>369.0</ele><time>2026-05-02T09:35:11.866Z</time></trkpt><trkpt lat="40.6331183" lon="15.0688383"><ele>369.0</ele><time>2026-05-02T09:35:12.867Z</time></trkpt><trkpt lat="40.6331867" lon="15.068835"><ele>369.2857142857143</ele><time>2026-05-02T09:35:13.867Z</time></trkpt><trkpt lat="40.6332517" lon="15.06883"><ele>369.57142857142856</ele><time>2026-05-02T09:35:14.867Z</time></trkpt><trkpt lat="40.6333183" lon="15.0688267"><ele>369.8571428571429</ele><time>2026-05-02T09:35:15.867Z</time></trkpt><trkpt lat="40.6333883" lon="15.068825"><ele>370.1428571428571</ele><time>2026-05-02T09:35:16.866Z</time></trkpt><trkpt lat="40.6334583" lon="15.06883"><ele>370.42857142857144</ele><time>2026-05-02T09:35:17.866Z</time></trkpt><trkpt lat="40.6335317" lon="15.068835"><ele>370.7142857142857</ele><time>2026-05-02T09:35:18.866Z</time></trkpt><trkpt lat="40.633605" lon="15.0688433"><ele>371.0</ele><time>2026-05-02T09:35:19.867Z</time></trkpt><trkpt lat="40.6336783" lon="15.0688483"><ele>372.8</ele><time>2026-05-02T09:35:20.867Z</time></trkpt><trkpt lat="40.6337467" lon="15.0688517"><ele>374.6</ele><time>2026-05-02T09:35:21.866Z</time></trkpt><trkpt lat="40.63387" lon="15.0688567"><ele>376.4</ele><time>2026-05-02T09:35:23.866Z</time></trkpt><trkpt lat="40.6339733" lon="15.0688917"><ele>378.2</ele><time>2026-05-02T09:35:25.867Z</time></trkpt><trkpt lat="40.6340483" lon="15.068965"><ele>380.0</ele><time>2026-05-02T09:35:27.866Z</time></trkpt><trkpt lat="40.6341317" lon="15.0690517"><ele>381.0</ele><time>2026-05-02T09:35:29.866Z</time></trkpt><trkpt lat="40.63421" lon="15.0691633"><ele>382.0</ele><time>2026-05-02T09:35:31.866Z</time></trkpt><trkpt lat="40.634275" lon="15.0692967"><ele>383.0</ele><time>2026-05-02T09:35:33.867Z</time></trkpt><trkpt lat="40.6343533" lon="15.0694083"><ele>384.0</ele><time>2026-05-02T09:35:35.866Z</time></trkpt><trkpt lat="40.6344583" lon="15.0694817"><ele>385.8333333333333</ele><time>2026-05-02T09:35:37.867Z</time></trkpt><trkpt lat="40.6345583" lon="15.06955"><ele>387.66666666666663</ele><time>2026-05-02T09:35:39.867Z</time></trkpt><trkpt lat="40.6346483" lon="15.06961"><ele>389.5</ele><time>2026-05-02T09:35:41.866Z</time></trkpt><trkpt lat="40.6347117" lon="15.0696433"><ele>391.3333333333333</ele><time>2026-05-02T09:35:43.867Z</time></trkpt><trkpt lat="40.634775" lon="15.0696783"><ele>393.16666666666663</ele><time>2026-05-02T09:35:45.867Z</time></trkpt><trkpt lat="40.6348517" lon="15.0697367"><ele>395.0</ele><time>2026-05-02T09:35:47.866Z</time></trkpt><trkpt lat="40.6349367" lon="15.0697983"><ele>395.0</ele><time>2026-05-02T09:35:49.867Z</time></trkpt><trkpt lat="40.6350517" lon="15.069865"><ele>395.0</ele><time>2026-05-02T09:35:51.867Z</time></trkpt><trkpt lat="40.635165" lon="15.0699167"><ele>395.0</ele><time>2026-05-02T09:35:53.867Z</time></trkpt><trkpt lat="40.6352233" lon="15.0699483"><ele>395.0</ele><time>2026-05-02T09:35:54.867Z</time></trkpt><trkpt lat="40.6352983" lon="15.0700383"><ele>395.0</ele><time>2026-05-02T09:35:56.866Z</time></trkpt><trkpt lat="40.6353183" lon="15.0701433"><ele>394.66666666666663</ele><time>2026-05-02T09:35:58.866Z</time></trkpt><trkpt lat="40.6352817" lon="15.0702583"><ele>394.3333333333333</ele><time>2026-05-02T09:36:00.866Z</time></trkpt><trkpt lat="40.6352283" lon="15.07039"><ele>394.0</ele><time>2026-05-02T09:36:02.866Z</time></trkpt><trkpt lat="40.6352083" lon="15.070525"><ele>393.66666666666663</ele><time>2026-05-02T09:36:04.866Z</time></trkpt><trkpt lat="40.6352083" lon="15.07061"><ele>393.3333333333333</ele><time>2026-05-02T09:36:05.866Z</time></trkpt><trkpt lat="40.6352067" lon="15.0707033"><ele>393.0</ele><time>2026-05-02T09:36:06.866Z</time></trkpt><trkpt lat="40.6352017" lon="15.0707967"><ele>392.0</ele><time>2026-05-02T09:36:07.867Z</time></trkpt><trkpt lat="40.6351967" lon="15.0708933"><ele>391.0</ele><time>2026-05-02T09:36:08.866Z</time></trkpt><trkpt lat="40.6351983" lon="15.0709917"><ele>390.0</ele><time>2026-05-02T09:36:09.866Z</time></trkpt><trkpt lat="40.6351967" lon="15.071085"><ele>389.0</ele><time>2026-05-02T09:36:10.866Z</time></trkpt><trkpt lat="40.6351933" lon="15.0711783"><ele>388.0</ele><time>2026-05-02T09:36:11.866Z</time></trkpt><trkpt lat="40.6351867" lon="15.0713317"><ele>387.0</ele><time>2026-05-02T09:36:13.866Z</time></trkpt><trkpt lat="40.6351583" lon="15.0714517"><ele>387.0</ele><time>2026-05-02T09:36:15.866Z</time></trkpt><trkpt lat="40.6350683" lon="15.0715067"><ele>387.0</ele><time>2026-05-02T09:36:17.866Z</time></trkpt><trkpt lat="40.6349967" lon="15.0715167"><ele>387.0</ele><time>2026-05-02T09:36:18.866Z</time></trkpt><trkpt lat="40.63492" lon="15.0715467"><ele>387.0</ele><time>2026-05-02T09:36:19.867Z</time></trkpt><trkpt lat="40.6348483" lon="15.0715833"><ele>387.0</ele><time>2026-05-02T09:36:20.866Z</time></trkpt><trkpt lat="40.6347933" lon="15.0716267"><ele>387.0</ele><time>2026-05-02T09:36:21.866Z</time></trkpt><trkpt lat="40.63475" lon="15.071755"><ele>387.1666666666667</ele><time>2026-05-02T09:36:23.867Z</time></trkpt><trkpt lat="40.6347433" lon="15.0719167"><ele>387.33333333333337</ele><time>2026-05-02T09:36:25.867Z</time></trkpt><trkpt lat="40.634735" lon="15.0720017"><ele>387.5</ele><time>2026-05-02T09:36:26.867Z</time></trkpt><trkpt lat="40.634725" lon="15.0721"><ele>387.6666666666667</ele><time>2026-05-02T09:36:27.866Z</time></trkpt><trkpt lat="40.6347117" lon="15.0722033"><ele>387.83333333333337</ele><time>2026-05-02T09:36:28.867Z</time></trkpt><trkpt lat="40.6347117" lon="15.0723033"><ele>388.0</ele><time>2026-05-02T09:36:29.867Z</time></trkpt><trkpt lat="40.6347167" lon="15.0724033"><ele>387.0</ele><time>2026-05-02T09:36:30.866Z</time></trkpt><trkpt lat="40.6347283" lon="15.0724867"><ele>386.0</ele><time>2026-05-02T09:36:31.867Z</time></trkpt><trkpt lat="40.63473" lon="15.0726033"><ele>385.0</ele><time>2026-05-02T09:36:33.866Z</time></trkpt><trkpt lat="40.6346617" lon="15.0727383"><ele>384.0</ele><time>2026-05-02T09:36:35.866Z</time></trkpt><trkpt lat="40.6346017" lon="15.0728283"><ele>383.0</ele><time>2026-05-02T09:36:36.867Z</time></trkpt><trkpt lat="40.634545" lon="15.07291"><ele>383.0</ele><time>2026-05-02T09:36:37.866Z</time></trkpt><trkpt lat="40.6345033" lon="15.0729767"><ele>383.0</ele><time>2026-05-02T09:36:38.866Z</time></trkpt><trkpt lat="40.6344217" lon="15.07309"><ele>383.0</ele><time>2026-05-02T09:36:40.867Z</time></trkpt><trkpt lat="40.6343533" lon="15.0732233"><ele>383.0</ele><time>2026-05-02T09:36:42.867Z</time></trkpt><trkpt lat="40.6343217" lon="15.0733667"><ele>383.0</ele><time>2026-05-02T09:36:44.867Z</time></trkpt><trkpt lat="40.6343133" lon="15.07351"><ele>383.0</ele><time>2026-05-02T09:36:46.867Z</time></trkpt><trkpt lat="40.6343667" lon="15.0736667"><ele>383.0</ele><time>2026-05-02T09:36:48.866Z</time></trkpt><trkpt lat="40.6343967" lon="15.073745"><ele>383.0</ele><time>2026-05-02T09:36:49.867Z</time></trkpt><trkpt lat="40.63443" lon="15.0738217"><ele>383.0</ele><time>2026-05-02T09:36:50.866Z</time></trkpt><trkpt lat="40.6344733" lon="15.073895"><ele>383.0</ele><time>2026-05-02T09:36:51.867Z</time></trkpt><trkpt lat="40.6345183" lon="15.073965"><ele>383.0</ele><time>2026-05-02T09:36:52.866Z</time></trkpt><trkpt lat="40.634565" lon="15.0740417"><ele>380.6666666666667</ele><time>2026-05-02T09:36:53.867Z</time></trkpt><trkpt lat="40.6346067" lon="15.0741217"><ele>378.33333333333337</ele><time>2026-05-02T09:36:54.867Z</time></trkpt><trkpt lat="40.6346383" lon="15.0742033"><ele>376.0</ele><time>2026-05-02T09:36:55.867Z</time></trkpt><trkpt lat="40.6346667" lon="15.0742783"><ele>373.6666666666667</ele><time>2026-05-02T09:36:56.867Z</time></trkpt><trkpt lat="40.63473" lon="15.0744083"><ele>371.3333333333333</ele><time>2026-05-02T09:36:58.867Z</time></trkpt><trkpt lat="40.6348033" lon="15.0745033"><ele>369.0</ele><time>2026-05-02T09:37:00.867Z</time></trkpt><trkpt lat="40.6348517" lon="15.07461"><ele>369.0</ele><time>2026-05-02T09:37:02.866Z</time></trkpt><trkpt lat="40.6348517" lon="15.0747483"><ele>369.0</ele><time>2026-05-02T09:37:04.867Z</time></trkpt><trkpt lat="40.634815" lon="15.074885"><ele>369.0</ele><time>2026-05-02T09:37:06.866Z</time></trkpt><trkpt lat="40.634775" lon="15.0750083"><ele>369.0</ele><time>2026-05-02T09:37:08.867Z</time></trkpt><trkpt lat="40.6347633" lon="15.0751283"><ele>369.0</ele><time>2026-05-02T09:37:10.866Z</time></trkpt><trkpt lat="40.6347683" lon="15.075265"><ele>366.6</ele><time>2026-05-02T09:37:12.866Z</time></trkpt><trkpt lat="40.6347467" lon="15.0753717"><ele>364.2</ele><time>2026-05-02T09:37:14.867Z</time></trkpt><trkpt lat="40.6346633" lon="15.0753833"><ele>361.8</ele><time>2026-05-02T09:37:16.866Z</time></trkpt><trkpt lat="40.6345467" lon="15.0753767"><ele>359.40000000000003</ele><time>2026-05-02T09:37:18.867Z</time></trkpt><trkpt lat="40.6344417" lon="15.07544"><ele>357.0</ele><time>2026-05-02T09:37:20.867Z</time></trkpt><trkpt lat="40.63436" lon="15.075555"><ele>353.0</ele><time>2026-05-02T09:37:22.866Z</time></trkpt><trkpt lat="40.634285" lon="15.0756633"><ele>349.0</ele><time>2026-05-02T09:37:24.866Z</time></trkpt><trkpt lat="40.6341883" lon="15.075725"><ele>345.0</ele><time>2026-05-02T09:37:26.867Z</time></trkpt><trkpt lat="40.6341233" lon="15.0757317"><ele>341.0</ele><time>2026-05-02T09:37:27.867Z</time></trkpt><trkpt lat="40.63405" lon="15.075725"><ele>337.0</ele><time>2026-05-02T09:37:28.867Z</time></trkpt><trkpt lat="40.6339717" lon="15.0757217"><ele>333.0</ele><time>2026-05-02T09:37:29.867Z</time></trkpt><trkpt lat="40.6338783" lon="15.0757417"><ele>333.0</ele><time>2026-05-02T09:37:30.867Z</time></trkpt><trkpt lat="40.6337883" lon="15.0757833"><ele>333.0</ele><time>2026-05-02T09:37:31.866Z</time></trkpt><trkpt lat="40.6337017" lon="15.0758317"><ele>333.0</ele><time>2026-05-02T09:37:32.866Z</time></trkpt><trkpt lat="40.6336217" lon="15.0758817"><ele>333.0</ele><time>2026-05-02T09:37:33.867Z</time></trkpt><trkpt lat="40.6335367" lon="15.0759283"><ele>333.0</ele><time>2026-05-02T09:37:34.867Z</time></trkpt><trkpt lat="40.6334617" lon="15.075975"><ele>328.8333333333333</ele><time>2026-05-02T09:37:35.867Z</time></trkpt><trkpt lat="40.6333983" lon="15.0760233"><ele>324.6666666666667</ele><time>2026-05-02T09:37:36.867Z</time></trkpt><trkpt lat="40.6333383" lon="15.076075"><ele>320.5</ele><time>2026-05-02T09:37:37.866Z</time></trkpt><trkpt lat="40.6332767" lon="15.0761217"><ele>316.33333333333337</ele><time>2026-05-02T09:37:38.867Z</time></trkpt><trkpt lat="40.633205" lon="15.0761583"><ele>312.1666666666667</ele><time>2026-05-02T09:37:39.867Z</time></trkpt><trkpt lat="40.63313" lon="15.07619"><ele>308.0</ele><time>2026-05-02T09:37:40.867Z</time></trkpt><trkpt lat="40.6330483" lon="15.0762283"><ele>308.0</ele><time>2026-05-02T09:37:41.866Z</time></trkpt><trkpt lat="40.632965" lon="15.0762717"><ele>308.0</ele><time>2026-05-02T09:37:42.866Z</time></trkpt><trkpt lat="40.6328833" lon="15.0763217"><ele>308.0</ele><time>2026-05-02T09:37:43.867Z</time></trkpt><trkpt lat="40.6328117" lon="15.07636"><ele>308.0</ele><time>2026-05-02T09:37:44.866Z</time></trkpt><trkpt lat="40.632755" lon="15.0763967"><ele>308.0</ele><time>2026-05-02T09:37:45.866Z</time></trkpt><trkpt lat="40.6326683" lon="15.0764467"><ele>308.0</ele><time>2026-05-02T09:37:47.866Z</time></trkpt><trkpt lat="40.6326117" lon="15.07639"><ele>305.5</ele><time>2026-05-02T09:37:49.867Z</time></trkpt><trkpt lat="40.6326" lon="15.0763067"><ele>303.0</ele><time>2026-05-02T09:37:50.867Z</time></trkpt><trkpt lat="40.6325933" lon="15.0761933"><ele>300.5</ele><time>2026-05-02T09:37:51.866Z</time></trkpt><trkpt lat="40.6325783" lon="15.0760833"><ele>298.0</ele><time>2026-05-02T09:37:52.866Z</time></trkpt><trkpt lat="40.6325467" lon="15.075995"><ele>295.5</ele><time>2026-05-02T09:37:53.867Z</time></trkpt><trkpt lat="40.6325017" lon="15.07593"><ele>293.0</ele><time>2026-05-02T09:37:54.866Z</time></trkpt><trkpt lat="40.6323933" lon="15.07587"><ele>293.0</ele><time>2026-05-02T09:37:56.866Z</time></trkpt><trkpt lat="40.63232" lon="15.0758733"><ele>293.0</ele><time>2026-05-02T09:37:57.866Z</time></trkpt><trkpt lat="40.632235" lon="15.07591"><ele>293.0</ele><time>2026-05-02T09:37:58.866Z</time></trkpt><trkpt lat="40.6321383" lon="15.0759583"><ele>293.0</ele><time>2026-05-02T09:37:59.866Z</time></trkpt><trkpt lat="40.63205" lon="15.076005"><ele>293.0</ele><time>2026-05-02T09:38:00.867Z</time></trkpt><trkpt lat="40.6319617" lon="15.0760633"><ele>290.6</ele><time>2026-05-02T09:38:01.866Z</time></trkpt><trkpt lat="40.6318717" lon="15.076125"><ele>288.20000000000005</ele><time>2026-05-02T09:38:02.866Z</time></trkpt><trkpt lat="40.63178" lon="15.0761783"><ele>285.8</ele><time>2026-05-02T09:38:03.866Z</time></trkpt><trkpt lat="40.63169" lon="15.07623"><ele>283.40000000000003</ele><time>2026-05-02T09:38:04.866Z</time></trkpt><trkpt lat="40.6316133" lon="15.0762817"><ele>281.0</ele><time>2026-05-02T09:38:05.866Z</time></trkpt><trkpt lat="40.6315517" lon="15.0763117"><ele>281.0</ele><time>2026-05-02T09:38:06.867Z</time></trkpt><trkpt lat="40.6314883" lon="15.0764067"><ele>281.0</ele><time>2026-05-02T09:38:08.866Z</time></trkpt><trkpt lat="40.631495" lon="15.0765583"><ele>281.0</ele><time>2026-05-02T09:38:10.866Z</time></trkpt><trkpt lat="40.6314883" lon="15.0767167"><ele>281.0</ele><time>2026-05-02T09:38:12.866Z</time></trkpt><trkpt lat="40.6314" lon="15.076835"><ele>280.5</ele><time>2026-05-02T09:38:14.866Z</time></trkpt><trkpt lat="40.6313333" lon="15.0768767"><ele>280.0</ele><time>2026-05-02T09:38:15.867Z</time></trkpt><trkpt lat="40.6312567" lon="15.076925"><ele>279.5</ele><time>2026-05-02T09:38:16.866Z</time></trkpt><trkpt lat="40.6311883" lon="15.0769617"><ele>279.0</ele><time>2026-05-02T09:38:17.867Z</time></trkpt><trkpt lat="40.6311383" lon="15.0770167"><ele>278.5</ele><time>2026-05-02T09:38:18.867Z</time></trkpt><trkpt lat="40.631105" lon="15.0771617"><ele>278.0</ele><time>2026-05-02T09:38:20.866Z</time></trkpt><trkpt lat="40.6311333" lon="15.0772533"><ele>278.0</ele><time>2026-05-02T09:38:21.866Z</time></trkpt><trkpt lat="40.6311683" lon="15.07735"><ele>278.0</ele><time>2026-05-02T09:38:22.867Z</time></trkpt><trkpt lat="40.6311967" lon="15.07744"><ele>278.0</ele><time>2026-05-02T09:38:23.866Z</time></trkpt><trkpt lat="40.6312267" lon="15.0775383"><ele>278.0</ele><time>2026-05-02T09:38:24.867Z</time></trkpt><trkpt lat="40.6312617" lon="15.077635"><ele>278.0</ele><time>2026-05-02T09:38:25.866Z</time></trkpt><trkpt lat="40.6313017" lon="15.0777283"><ele>278.0</ele><time>2026-05-02T09:38:26.866Z</time></trkpt><trkpt lat="40.63135" lon="15.07782"><ele>276.5</ele><time>2026-05-02T09:38:27.867Z</time></trkpt><trkpt lat="40.6314233" lon="15.077885"><ele>275.0</ele><time>2026-05-02T09:38:28.866Z</time></trkpt><trkpt lat="40.6315017" lon="15.07794"><ele>273.5</ele><time>2026-05-02T09:38:29.867Z</time></trkpt><trkpt lat="40.6315817" lon="15.0779933"><ele>272.0</ele><time>2026-05-02T09:38:30.866Z</time></trkpt><trkpt lat="40.631645" lon="15.0780767"><ele>270.5</ele><time>2026-05-02T09:38:31.867Z</time></trkpt><trkpt lat="40.6317017" lon="15.078155"><ele>269.0</ele><time>2026-05-02T09:38:32.867Z</time></trkpt><trkpt lat="40.631755" lon="15.0782467"><ele>266.59999999999997</ele><time>2026-05-02T09:38:33.866Z</time></trkpt><trkpt lat="40.6318083" lon="15.0783417"><ele>264.2</ele><time>2026-05-02T09:38:34.866Z</time></trkpt><trkpt lat="40.6318483" lon="15.078465"><ele>261.79999999999995</ele><time>2026-05-02T09:38:35.866Z</time></trkpt><trkpt lat="40.63186" lon="15.0786183"><ele>259.4</ele><time>2026-05-02T09:38:36.866Z</time></trkpt><trkpt lat="40.631865" lon="15.078795"><ele>257.0</ele><time>2026-05-02T09:38:37.867Z</time></trkpt><trkpt lat="40.63187" lon="15.078975"><ele>256.4</ele><time>2026-05-02T09:38:38.866Z</time></trkpt><trkpt lat="40.63188" lon="15.0791317"><ele>255.79999999999998</ele><time>2026-05-02T09:38:39.866Z</time></trkpt><trkpt lat="40.6318683" lon="15.0792817"><ele>255.2</ele><time>2026-05-02T09:38:40.866Z</time></trkpt><trkpt lat="40.6318567" lon="15.079425"><ele>254.6</ele><time>2026-05-02T09:38:41.867Z</time></trkpt><trkpt lat="40.6318467" lon="15.07956"><ele>254.0</ele><time>2026-05-02T09:38:42.866Z</time></trkpt><trkpt lat="40.6318417" lon="15.0796883"><ele>254.00000000000003</ele><time>2026-05-02T09:38:43.866Z</time></trkpt><trkpt lat="40.6318517" lon="15.0798133"><ele>254.0</ele><time>2026-05-02T09:38:44.866Z</time></trkpt><trkpt lat="40.6318667" lon="15.0799167"><ele>254.0</ele><time>2026-05-02T09:38:45.867Z</time></trkpt><trkpt lat="40.63188" lon="15.0799983"><ele>254.0</ele><time>2026-05-02T09:38:46.866Z</time></trkpt><trkpt lat="40.6319117" lon="15.080115"><ele>254.00000000000003</ele><time>2026-05-02T09:38:48.866Z</time></trkpt><trkpt lat="40.6319017" lon="15.0802167"><ele>254.0</ele><time>2026-05-02T09:38:51.867Z</time></trkpt><trkpt lat="40.6318183" lon="15.0801983"><ele>254.00000000000003</ele><time>2026-05-02T09:38:54.867Z</time></trkpt><trkpt lat="40.6317583" lon="15.0801333"><ele>254.0</ele><time>2026-05-02T09:38:56.866Z</time></trkpt><trkpt lat="40.6316967" lon="15.0800683"><ele>254.0</ele><time>2026-05-02T09:38:58.866Z</time></trkpt><trkpt lat="40.6316283" lon="15.0800033"><ele>254.0</ele><time>2026-05-02T09:39:00.866Z</time></trkpt><trkpt lat="40.631565" lon="15.07994"><ele>254.00000000000003</ele><time>2026-05-02T09:39:02.867Z</time></trkpt><trkpt lat="40.6315017" lon="15.079885"><ele>254.0</ele><time>2026-05-02T09:39:04.867Z</time></trkpt><trkpt lat="40.6315417" lon="15.0799583"><ele>252.83333333333334</ele><time>2026-05-02T09:39:11.867Z</time></trkpt><trkpt lat="40.631595" lon="15.0800067"><ele>251.66666666666669</ele><time>2026-05-02T09:39:12.867Z</time></trkpt><trkpt lat="40.6316617" lon="15.08007"><ele>250.5</ele><time>2026-05-02T09:39:13.867Z</time></trkpt><trkpt lat="40.631735" lon="15.0801417"><ele>249.33333333333331</ele><time>2026-05-02T09:39:14.867Z</time></trkpt><trkpt lat="40.6318083" lon="15.0802033"><ele>248.16666666666666</ele><time>2026-05-02T09:39:15.867Z</time></trkpt><trkpt lat="40.6318733" lon="15.0802617"><ele>247.0</ele><time>2026-05-02T09:39:16.866Z</time></trkpt><trkpt lat="40.6319317" lon="15.080315"><ele>246.99999999999997</ele><time>2026-05-02T09:39:17.866Z</time></trkpt><trkpt lat="40.6320117" lon="15.0803867"><ele>247.0</ele><time>2026-05-02T09:39:19.867Z</time></trkpt><trkpt lat="40.6320217" lon="15.0805083"><ele>247.0</ele><time>2026-05-02T09:39:29.867Z</time></trkpt><trkpt lat="40.63196" lon="15.0805367"><ele>247.0</ele><time>2026-05-02T09:39:31.865Z</time></trkpt><trkpt lat="40.6318833" lon="15.08055"><ele>246.99999999999997</ele><time>2026-05-02T09:39:34.865Z</time></trkpt><trkpt lat="40.6318083" lon="15.080565"><ele>247.0</ele><time>2026-05-02T09:39:38.865Z</time></trkpt><trkpt lat="40.6317383" lon="15.0805067"><ele>246.99999999999997</ele><time>2026-05-02T09:39:41.866Z</time></trkpt><trkpt lat="40.6316717" lon="15.08051"><ele>247.0</ele><time>2026-05-02T09:39:46.865Z</time></trkpt><trkpt lat="40.6316133" lon="15.0805433"><ele>247.0</ele><time>2026-05-02T09:39:47.866Z</time></trkpt><trkpt lat="40.6315533" lon="15.0805867"><ele>247.0</ele><time>2026-05-02T09:39:48.866Z</time></trkpt><trkpt lat="40.6314583" lon="15.080665"><ele>246.99999999999997</ele><time>2026-05-02T09:39:50.865Z</time></trkpt><trkpt lat="40.63136" lon="15.0807367"><ele>247.0</ele><time>2026-05-02T09:39:52.865Z</time></trkpt><trkpt lat="40.6312667" lon="15.0808"><ele>245.75</ele><time>2026-05-02T09:39:54.865Z</time></trkpt><trkpt lat="40.6311633" lon="15.0808667"><ele>244.5</ele><time>2026-05-02T09:39:56.866Z</time></trkpt><trkpt lat="40.6310583" lon="15.08093"><ele>243.25</ele><time>2026-05-02T09:39:58.866Z</time></trkpt><trkpt lat="40.63095" lon="15.0809933"><ele>242.0</ele><time>2026-05-02T09:40:00.866Z</time></trkpt><trkpt lat="40.6308367" lon="15.081055"><ele>239.50000000000003</ele><time>2026-05-02T09:40:02.865Z</time></trkpt><trkpt lat="40.6307767" lon="15.0810833"><ele>237.0</ele><time>2026-05-02T09:40:03.866Z</time></trkpt><trkpt lat="40.6306617" lon="15.0811433"><ele>234.5</ele><time>2026-05-02T09:40:05.865Z</time></trkpt><trkpt lat="40.6306" lon="15.0811767"><ele>232.0</ele><time>2026-05-02T09:40:06.866Z</time></trkpt><trkpt lat="40.6304867" lon="15.0812467"><ele>229.50000000000003</ele><time>2026-05-02T09:40:08.866Z</time></trkpt><trkpt lat="40.630425" lon="15.0812833"><ele>227.0</ele><time>2026-05-02T09:40:09.865Z</time></trkpt><trkpt lat="40.6303133" lon="15.0813517"><ele>224.8</ele><time>2026-05-02T09:40:11.865Z</time></trkpt><trkpt lat="40.6302033" lon="15.0814117"><ele>222.6</ele><time>2026-05-02T09:40:13.865Z</time></trkpt><trkpt lat="40.6301017" lon="15.0814733"><ele>220.40000000000003</ele><time>2026-05-02T09:40:15.865Z</time></trkpt><trkpt lat="40.6300033" lon="15.0815317"><ele>218.20000000000002</ele><time>2026-05-02T09:40:17.865Z</time></trkpt><trkpt lat="40.629915" lon="15.0815867"><ele>216.0</ele><time>2026-05-02T09:40:19.866Z</time></trkpt><trkpt lat="40.6298817" lon="15.081665"><ele>215.0</ele><time>2026-05-02T09:40:21.866Z</time></trkpt><trkpt lat="40.6298933" lon="15.0817617"><ele>214.00000000000003</ele><time>2026-05-02T09:40:23.865Z</time></trkpt><trkpt lat="40.6299117" lon="15.0818767"><ele>213.0</ele><time>2026-05-02T09:40:25.866Z</time></trkpt><trkpt lat="40.6299417" lon="15.0820167"><ele>212.0</ele><time>2026-05-02T09:40:27.865Z</time></trkpt><trkpt lat="40.6299567" lon="15.0821383"><ele>211.0</ele><time>2026-05-02T09:40:29.865Z</time></trkpt><trkpt lat="40.629935" lon="15.0822733"><ele>211.0</ele><time>2026-05-02T09:40:31.866Z</time></trkpt><trkpt lat="40.6298667" lon="15.08243"><ele>211.0</ele><time>2026-05-02T09:40:33.866Z</time></trkpt><trkpt lat="40.6298267" lon="15.0825283"><ele>211.0</ele><time>2026-05-02T09:40:34.866Z</time></trkpt><trkpt lat="40.629785" lon="15.0826283"><ele>211.0</ele><time>2026-05-02T09:40:35.866Z</time></trkpt><trkpt lat="40.6297433" lon="15.08273"><ele>211.0</ele><time>2026-05-02T09:40:36.866Z</time></trkpt><trkpt lat="40.6297017" lon="15.0828283"><ele>210.66666666666666</ele><time>2026-05-02T09:40:37.865Z</time></trkpt><trkpt lat="40.629655" lon="15.082925"><ele>210.33333333333331</ele><time>2026-05-02T09:40:38.865Z</time></trkpt><trkpt lat="40.6296083" lon="15.0830133"><ele>210.0</ele><time>2026-05-02T09:40:39.866Z</time></trkpt><trkpt lat="40.629565" lon="15.0830933"><ele>209.66666666666669</ele><time>2026-05-02T09:40:40.866Z</time></trkpt><trkpt lat="40.6295217" lon="15.0831667"><ele>209.33333333333334</ele><time>2026-05-02T09:40:41.866Z</time></trkpt><trkpt lat="40.6294767" lon="15.0832483"><ele>209.0</ele><time>2026-05-02T09:40:42.866Z</time></trkpt><trkpt lat="40.6294067" lon="15.0833717"><ele>207.16666666666669</ele><time>2026-05-02T09:40:44.865Z</time></trkpt><trkpt lat="40.6293517" lon="15.083445"><ele>205.33333333333334</ele><time>2026-05-02T09:40:46.866Z</time></trkpt><trkpt lat="40.6292367" lon="15.08344"><ele>203.5</ele><time>2026-05-02T09:40:49.866Z</time></trkpt><trkpt lat="40.629175" lon="15.083415"><ele>201.66666666666669</ele><time>2026-05-02T09:40:50.866Z</time></trkpt><trkpt lat="40.62911" lon="15.0833933"><ele>199.83333333333334</ele><time>2026-05-02T09:40:51.865Z</time></trkpt><trkpt lat="40.6290417" lon="15.0833767"><ele>198.0</ele><time>2026-05-02T09:40:52.866Z</time></trkpt><trkpt lat="40.6289717" lon="15.083365"><ele>198.0</ele><time>2026-05-02T09:40:53.866Z</time></trkpt><trkpt lat="40.6289033" lon="15.0833517"><ele>198.0</ele><time>2026-05-02T09:40:54.866Z</time></trkpt><trkpt lat="40.628835" lon="15.083335"><ele>198.0</ele><time>2026-05-02T09:40:55.866Z</time></trkpt><trkpt lat="40.6287617" lon="15.0833183"><ele>198.0</ele><time>2026-05-02T09:40:56.865Z</time></trkpt><trkpt lat="40.6286867" lon="15.08331"><ele>198.0</ele><time>2026-05-02T09:40:57.866Z</time></trkpt><trkpt lat="40.6286217" lon="15.0832917"><ele>198.0</ele><time>2026-05-02T09:40:58.866Z</time></trkpt><trkpt lat="40.6285367" lon="15.0832617"><ele>198.0</ele><time>2026-05-02T09:41:00.866Z</time></trkpt><trkpt lat="40.628475" lon="15.0832267"><ele>196.0</ele><time>2026-05-02T09:41:03.865Z</time></trkpt><trkpt lat="40.6284117" lon="15.0832283"><ele>194.0</ele><time>2026-05-02T09:41:06.866Z</time></trkpt><trkpt lat="40.6283133" lon="15.083315"><ele>192.0</ele><time>2026-05-02T09:41:08.865Z</time></trkpt><trkpt lat="40.6282617" lon="15.0833883"><ele>190.0</ele><time>2026-05-02T09:41:09.866Z</time></trkpt><trkpt lat="40.6282" lon="15.0834633"><ele>188.0</ele><time>2026-05-02T09:41:10.866Z</time></trkpt><trkpt lat="40.6281367" lon="15.0835517"><ele>186.0</ele><time>2026-05-02T09:41:11.866Z</time></trkpt><trkpt lat="40.628075" lon="15.083645"><ele>186.0</ele><time>2026-05-02T09:41:12.866Z</time></trkpt><trkpt lat="40.6280183" lon="15.0837433"><ele>186.0</ele><time>2026-05-02T09:41:13.866Z</time></trkpt><trkpt lat="40.62797" lon="15.0838517"><ele>186.0</ele><time>2026-05-02T09:41:14.865Z</time></trkpt><trkpt lat="40.627925" lon="15.083975"><ele>186.0</ele><time>2026-05-02T09:41:15.866Z</time></trkpt><trkpt lat="40.6278817" lon="15.0841033"><ele>186.0</ele><time>2026-05-02T09:41:16.865Z</time></trkpt><trkpt lat="40.6278433" lon="15.0842383"><ele>184.5</ele><time>2026-05-02T09:41:17.866Z</time></trkpt><trkpt lat="40.6278033" lon="15.0843633"><ele>183.0</ele><time>2026-05-02T09:41:18.865Z</time></trkpt><trkpt lat="40.6277583" lon="15.0845033"><ele>181.5</ele><time>2026-05-02T09:41:19.865Z</time></trkpt><trkpt lat="40.6277133" lon="15.0846483"><ele>180.0</ele><time>2026-05-02T09:41:20.866Z</time></trkpt><trkpt lat="40.6276717" lon="15.0847883"><ele>180.25</ele><time>2026-05-02T09:41:21.865Z</time></trkpt><trkpt lat="40.627625" lon="15.08493"><ele>180.5</ele><time>2026-05-02T09:41:22.866Z</time></trkpt><trkpt lat="40.6275767" lon="15.0850767"><ele>180.75</ele><time>2026-05-02T09:41:23.865Z</time></trkpt><trkpt lat="40.6275283" lon="15.0852133"><ele>181.0</ele><time>2026-05-02T09:41:24.866Z</time></trkpt><trkpt lat="40.6274783" lon="15.085355"><ele>181.0</ele><time>2026-05-02T09:41:25.865Z</time></trkpt><trkpt lat="40.6274417" lon="15.0855017"><ele>181.0</ele><time>2026-05-02T09:41:26.865Z</time></trkpt><trkpt lat="40.6274067" lon="15.085655"><ele>181.0</ele><time>2026-05-02T09:41:27.866Z</time></trkpt><trkpt lat="40.62738" lon="15.0858117"><ele>181.0</ele><time>2026-05-02T09:41:28.865Z</time></trkpt><trkpt lat="40.6273567" lon="15.0859667"><ele>181.0</ele><time>2026-05-02T09:41:29.866Z</time></trkpt><trkpt lat="40.6273433" lon="15.0861333"><ele>181.0</ele><time>2026-05-02T09:41:30.866Z</time></trkpt><trkpt lat="40.6273417" lon="15.0862967"><ele>181.0</ele><time>2026-05-02T09:41:31.865Z</time></trkpt><trkpt lat="40.627335" lon="15.0864617"><ele>181.0</ele><time>2026-05-02T09:41:32.865Z</time></trkpt><trkpt lat="40.62733" lon="15.0866317"><ele>181.25</ele><time>2026-05-02T09:41:33.866Z</time></trkpt><trkpt lat="40.6273233" lon="15.0868017"><ele>181.5</ele><time>2026-05-02T09:41:34.866Z</time></trkpt><trkpt lat="40.627315" lon="15.0869667"><ele>181.75</ele><time>2026-05-02T09:41:35.866Z</time></trkpt><trkpt lat="40.627305" lon="15.0871317"><ele>182.0</ele><time>2026-05-02T09:41:36.865Z</time></trkpt><trkpt lat="40.6272983" lon="15.0873017"><ele>182.0</ele><time>2026-05-02T09:41:37.866Z</time></trkpt><trkpt lat="40.6272967" lon="15.087465"><ele>182.0</ele><time>2026-05-02T09:41:38.865Z</time></trkpt><trkpt lat="40.6272967" lon="15.0876283"><ele>182.0</ele><time>2026-05-02T09:41:39.866Z</time></trkpt><trkpt lat="40.6272917" lon="15.0877883"><ele>182.0</ele><time>2026-05-02T09:41:40.866Z</time></trkpt><trkpt lat="40.6272817" lon="15.0879583"><ele>182.0</ele><time>2026-05-02T09:41:41.866Z</time></trkpt><trkpt lat="40.6272767" lon="15.0881067"><ele>182.0</ele><time>2026-05-02T09:41:42.866Z</time></trkpt><trkpt lat="40.6272667" lon="15.08825"><ele>182.0</ele><time>2026-05-02T09:41:43.866Z</time></trkpt><trkpt lat="40.627265" lon="15.0883867"><ele>182.0</ele><time>2026-05-02T09:41:44.865Z</time></trkpt><trkpt lat="40.6272583" lon="15.0885167"><ele>182.0</ele><time>2026-05-02T09:41:45.865Z</time></trkpt><trkpt lat="40.627255" lon="15.0886433"><ele>181.66666666666666</ele><time>2026-05-02T09:41:46.866Z</time></trkpt><trkpt lat="40.6272517" lon="15.088765"><ele>181.33333333333331</ele><time>2026-05-02T09:41:47.866Z</time></trkpt><trkpt lat="40.6272483" lon="15.0888867"><ele>181.0</ele><time>2026-05-02T09:41:48.866Z</time></trkpt><trkpt lat="40.6272383" lon="15.088995"><ele>180.66666666666666</ele><time>2026-05-02T09:41:49.865Z</time></trkpt><trkpt lat="40.62722" lon="15.0891083"><ele>180.33333333333334</ele><time>2026-05-02T09:41:50.865Z</time></trkpt><trkpt lat="40.627185" lon="15.089215"><ele>180.0</ele><time>2026-05-02T09:41:51.865Z</time></trkpt><trkpt lat="40.6271267" lon="15.089305"><ele>180.0</ele><time>2026-05-02T09:41:52.866Z</time></trkpt><trkpt lat="40.6270583" lon="15.0893633"><ele>180.0</ele><time>2026-05-02T09:41:53.865Z</time></trkpt><trkpt lat="40.6269733" lon="15.0894083"><ele>180.0</ele><time>2026-05-02T09:41:54.865Z</time></trkpt><trkpt lat="40.62689" lon="15.0894517"><ele>180.0</ele><time>2026-05-02T09:41:55.866Z</time></trkpt><trkpt lat="40.626805" lon="15.0894933"><ele>180.0</ele><time>2026-05-02T09:41:56.866Z</time></trkpt><trkpt lat="40.6267183" lon="15.0895333"><ele>180.0</ele><time>2026-05-02T09:41:57.866Z</time></trkpt><trkpt lat="40.6266267" lon="15.0895667"><ele>178.0</ele><time>2026-05-02T09:41:58.866Z</time></trkpt><trkpt lat="40.6265383" lon="15.0896017"><ele>176.0</ele><time>2026-05-02T09:41:59.866Z</time></trkpt><trkpt lat="40.6264367" lon="15.0896433"><ele>174.0</ele><time>2026-05-02T09:42:00.865Z</time></trkpt><trkpt lat="40.6263283" lon="15.089675"><ele>172.0</ele><time>2026-05-02T09:42:01.866Z</time></trkpt><trkpt lat="40.626215" lon="15.0897017"><ele>170.0</ele><time>2026-05-02T09:42:02.865Z</time></trkpt><trkpt lat="40.6261" lon="15.0897233"><ele>168.2</ele><time>2026-05-02T09:42:03.866Z</time></trkpt><trkpt lat="40.6259883" lon="15.08975"><ele>166.4</ele><time>2026-05-02T09:42:04.865Z</time></trkpt><trkpt lat="40.62588" lon="15.0897683"><ele>164.60000000000002</ele><time>2026-05-02T09:42:05.865Z</time></trkpt><trkpt lat="40.6257717" lon="15.0897833"><ele>162.8</ele><time>2026-05-02T09:42:06.866Z</time></trkpt><trkpt lat="40.6256667" lon="15.0898133"><ele>161.0</ele><time>2026-05-02T09:42:07.865Z</time></trkpt><trkpt lat="40.6255717" lon="15.0898717"><ele>161.0</ele><time>2026-05-02T09:42:08.865Z</time></trkpt><trkpt lat="40.6254933" lon="15.08997"><ele>161.0</ele><time>2026-05-02T09:42:09.866Z</time></trkpt><trkpt lat="40.6254333" lon="15.0900983"><ele>161.0</ele><time>2026-05-02T09:42:10.865Z</time></trkpt><trkpt lat="40.62539" lon="15.0902533"><ele>161.0</ele><time>2026-05-02T09:42:11.866Z</time></trkpt><trkpt lat="40.6253567" lon="15.0904067"><ele>161.0</ele><time>2026-05-02T09:42:12.866Z</time></trkpt><trkpt lat="40.6253217" lon="15.0905567"><ele>161.0</ele><time>2026-05-02T09:42:13.865Z</time></trkpt><trkpt lat="40.625275" lon="15.09069"><ele>161.0</ele><time>2026-05-02T09:42:14.865Z</time></trkpt><trkpt lat="40.6252033" lon="15.090805"><ele>161.0</ele><time>2026-05-02T09:42:15.865Z</time></trkpt><trkpt lat="40.62511" lon="15.0908933"><ele>158.25</ele><time>2026-05-02T09:42:16.866Z</time></trkpt><trkpt lat="40.625005" lon="15.0909533"><ele>155.5</ele><time>2026-05-02T09:42:17.865Z</time></trkpt><trkpt lat="40.6248867" lon="15.0909967"><ele>152.75</ele><time>2026-05-02T09:42:18.865Z</time></trkpt><trkpt lat="40.6247717" lon="15.0910333"><ele>150.0</ele><time>2026-05-02T09:42:19.865Z</time></trkpt><trkpt lat="40.6246517" lon="15.0910717"><ele>150.0</ele><time>2026-05-02T09:42:20.866Z</time></trkpt><trkpt lat="40.6245283" lon="15.091115"><ele>150.0</ele><time>2026-05-02T09:42:21.865Z</time></trkpt><trkpt lat="40.624405" lon="15.0911617"><ele>150.0</ele><time>2026-05-02T09:42:22.866Z</time></trkpt><trkpt lat="40.6242867" lon="15.0912167"><ele>150.0</ele><time>2026-05-02T09:42:23.866Z</time></trkpt><trkpt lat="40.6241683" lon="15.0912683"><ele>148.75</ele><time>2026-05-02T09:42:24.865Z</time></trkpt><trkpt lat="40.6240567" lon="15.091325"><ele>147.5</ele><time>2026-05-02T09:42:25.866Z</time></trkpt><trkpt lat="40.623945" lon="15.0913917"><ele>146.25</ele><time>2026-05-02T09:42:26.865Z</time></trkpt><trkpt lat="40.6238383" lon="15.091465"><ele>145.0</ele><time>2026-05-02T09:42:27.866Z</time></trkpt><trkpt lat="40.62375" lon="15.0915217"><ele>145.0</ele><time>2026-05-02T09:42:28.866Z</time></trkpt><trkpt lat="40.623685" lon="15.0915683"><ele>145.0</ele><time>2026-05-02T09:42:29.865Z</time></trkpt><trkpt lat="40.62361" lon="15.0916317"><ele>145.0</ele><time>2026-05-02T09:42:31.866Z</time></trkpt><trkpt lat="40.62358" lon="15.09171"><ele>145.0</ele><time>2026-05-02T09:42:35.866Z</time></trkpt><trkpt lat="40.6236217" lon="15.0917967"><ele>145.0</ele><time>2026-05-02T09:42:37.866Z</time></trkpt><trkpt lat="40.6237283" lon="15.0918883"><ele>145.0</ele><time>2026-05-02T09:42:39.866Z</time></trkpt><trkpt lat="40.6237967" lon="15.0919433"><ele>144.2</ele><time>2026-05-02T09:42:40.866Z</time></trkpt><trkpt lat="40.62387" lon="15.0920083"><ele>143.4</ele><time>2026-05-02T09:42:41.865Z</time></trkpt><trkpt lat="40.6239483" lon="15.09209"><ele>142.6</ele><time>2026-05-02T09:42:42.866Z</time></trkpt><trkpt lat="40.6240267" lon="15.0921917"><ele>141.8</ele><time>2026-05-02T09:42:43.865Z</time></trkpt><trkpt lat="40.624095" lon="15.0923033"><ele>141.0</ele><time>2026-05-02T09:42:44.865Z</time></trkpt><trkpt lat="40.6241533" lon="15.0924367"><ele>140.5</ele><time>2026-05-02T09:42:45.866Z</time></trkpt><trkpt lat="40.6242083" lon="15.092585"><ele>140.0</ele><time>2026-05-02T09:42:46.865Z</time></trkpt><trkpt lat="40.624265" lon="15.0927367"><ele>139.5</ele><time>2026-05-02T09:42:47.865Z</time></trkpt><trkpt lat="40.6243267" lon="15.0928933"><ele>139.0</ele><time>2026-05-02T09:42:48.866Z</time></trkpt><trkpt lat="40.62439" lon="15.0930517"><ele>139.0</ele><time>2026-05-02T09:42:49.866Z</time></trkpt><trkpt lat="40.6244583" lon="15.093215"><ele>139.0</ele><time>2026-05-02T09:42:50.866Z</time></trkpt><trkpt lat="40.6245283" lon="15.093385"><ele>139.0</ele><time>2026-05-02T09:42:51.865Z</time></trkpt><trkpt lat="40.6245983" lon="15.093555"><ele>139.0</ele><time>2026-05-02T09:42:52.866Z</time></trkpt><trkpt lat="40.6246683" lon="15.0937283"><ele>140.33333333333334</ele><time>2026-05-02T09:42:53.866Z</time></trkpt><trkpt lat="40.6247383" lon="15.0939167"><ele>141.66666666666666</ele><time>2026-05-02T09:42:54.866Z</time></trkpt><trkpt lat="40.6248217" lon="15.0941033"><ele>143.0</ele><time>2026-05-02T09:42:55.866Z</time></trkpt><trkpt lat="40.6249067" lon="15.094285"><ele>143.0</ele><time>2026-05-02T09:42:56.866Z</time></trkpt><trkpt lat="40.625" lon="15.09447"><ele>143.0</ele><time>2026-05-02T09:42:57.866Z</time></trkpt><trkpt lat="40.6250983" lon="15.09467"><ele>143.0</ele><time>2026-05-02T09:42:58.865Z</time></trkpt><trkpt lat="40.625195" lon="15.0948833"><ele>142.66666666666666</ele><time>2026-05-02T09:42:59.866Z</time></trkpt><trkpt lat="40.6253" lon="15.0950883"><ele>142.33333333333334</ele><time>2026-05-02T09:43:00.866Z</time></trkpt><trkpt lat="40.6254033" lon="15.0952783"><ele>142.0</ele><time>2026-05-02T09:43:01.866Z</time></trkpt><trkpt lat="40.6255167" lon="15.0954467"><ele>144.0</ele><time>2026-05-02T09:43:02.865Z</time></trkpt><trkpt lat="40.625635" lon="15.0955867"><ele>146.0</ele><time>2026-05-02T09:43:03.865Z</time></trkpt><trkpt lat="40.62576" lon="15.0957067"><ele>148.0</ele><time>2026-05-02T09:43:04.865Z</time></trkpt><trkpt lat="40.62587" lon="15.09583"><ele>148.0</ele><time>2026-05-02T09:43:05.865Z</time></trkpt><trkpt lat="40.625985" lon="15.09595"><ele>148.0</ele><time>2026-05-02T09:43:06.865Z</time></trkpt><trkpt lat="40.6260983" lon="15.09606"><ele>148.0</ele><time>2026-05-02T09:43:07.866Z</time></trkpt><trkpt lat="40.6262067" lon="15.0961783"><ele>148.0</ele><time>2026-05-02T09:43:08.865Z</time></trkpt><trkpt lat="40.6263183" lon="15.0963"><ele>149.25</ele><time>2026-05-02T09:43:09.866Z</time></trkpt><trkpt lat="40.6264333" lon="15.0964133"><ele>150.5</ele><time>2026-05-02T09:43:10.865Z</time></trkpt><trkpt lat="40.6265517" lon="15.09653"><ele>151.75</ele><time>2026-05-02T09:43:11.865Z</time></trkpt><trkpt lat="40.6266633" lon="15.0966467"><ele>153.0</ele><time>2026-05-02T09:43:12.866Z</time></trkpt><trkpt lat="40.6267733" lon="15.0967633"><ele>153.0</ele><time>2026-05-02T09:43:13.866Z</time></trkpt><trkpt lat="40.62689" lon="15.096865"><ele>153.0</ele><time>2026-05-02T09:43:14.865Z</time></trkpt><trkpt lat="40.6270133" lon="15.0969667"><ele>153.0</ele><time>2026-05-02T09:43:15.865Z</time></trkpt><trkpt lat="40.627135" lon="15.097065"><ele>153.0</ele><time>2026-05-02T09:43:16.866Z</time></trkpt><trkpt lat="40.6272583" lon="15.0971517"><ele>153.5</ele><time>2026-05-02T09:43:17.866Z</time></trkpt><trkpt lat="40.62738" lon="15.09724"><ele>154.0</ele><time>2026-05-02T09:43:18.865Z</time></trkpt><trkpt lat="40.6275067" lon="15.0973267"><ele>154.5</ele><time>2026-05-02T09:43:19.865Z</time></trkpt><trkpt lat="40.6276283" lon="15.0974083"><ele>155.0</ele><time>2026-05-02T09:43:20.866Z</time></trkpt><trkpt lat="40.6277567" lon="15.0974983"><ele>156.25</ele><time>2026-05-02T09:43:21.866Z</time></trkpt><trkpt lat="40.6278883" lon="15.0975783"><ele>157.5</ele><time>2026-05-02T09:43:22.866Z</time></trkpt><trkpt lat="40.6280133" lon="15.0976633"><ele>158.75</ele><time>2026-05-02T09:43:23.866Z</time></trkpt><trkpt lat="40.6281367" lon="15.0977517"><ele>160.0</ele><time>2026-05-02T09:43:24.866Z</time></trkpt><trkpt lat="40.6282617" lon="15.097835"><ele>160.0</ele><time>2026-05-02T09:43:25.865Z</time></trkpt><trkpt lat="40.62839" lon="15.0979283"><ele>160.0</ele><time>2026-05-02T09:43:26.866Z</time></trkpt><trkpt lat="40.6285167" lon="15.0980167"><ele>160.0</ele><time>2026-05-02T09:43:27.866Z</time></trkpt><trkpt lat="40.6286433" lon="15.09811"><ele>160.0</ele><time>2026-05-02T09:43:28.865Z</time></trkpt><trkpt lat="40.6287717" lon="15.098185"><ele>161.0</ele><time>2026-05-02T09:43:29.865Z</time></trkpt><trkpt lat="40.6288933" lon="15.0982767"><ele>162.0</ele><time>2026-05-02T09:43:30.866Z</time></trkpt><trkpt lat="40.6290067" lon="15.09836"><ele>163.0</ele><time>2026-05-02T09:43:31.866Z</time></trkpt><trkpt lat="40.629125" lon="15.0984367"><ele>164.0</ele><time>2026-05-02T09:43:32.865Z</time></trkpt><trkpt lat="40.6292417" lon="15.098515"><ele>164.0</ele><time>2026-05-02T09:43:33.866Z</time></trkpt><trkpt lat="40.6293567" lon="15.0986033"><ele>164.0</ele><time>2026-05-02T09:43:34.865Z</time></trkpt><trkpt lat="40.6294767" lon="15.09868"><ele>164.0</ele><time>2026-05-02T09:43:35.865Z</time></trkpt><trkpt lat="40.62959" lon="15.09876"><ele>164.0</ele><time>2026-05-02T09:43:36.865Z</time></trkpt><trkpt lat="40.6296983" lon="15.0988317"><ele>164.75</ele><time>2026-05-02T09:43:37.866Z</time></trkpt><trkpt lat="40.629815" lon="15.098915"><ele>165.5</ele><time>2026-05-02T09:43:38.866Z</time></trkpt><trkpt lat="40.6299333" lon="15.0989967"><ele>166.25</ele><time>2026-05-02T09:43:39.866Z</time></trkpt><trkpt lat="40.6300483" lon="15.0990717"><ele>167.0</ele><time>2026-05-02T09:43:40.865Z</time></trkpt><trkpt lat="40.63017" lon="15.0991467"><ele>167.0</ele><time>2026-05-02T09:43:41.866Z</time></trkpt><trkpt lat="40.63029" lon="15.09924"><ele>167.0</ele><time>2026-05-02T09:43:42.866Z</time></trkpt><trkpt lat="40.63041" lon="15.099335"><ele>167.0</ele><time>2026-05-02T09:43:43.866Z</time></trkpt><trkpt lat="40.6305333" lon="15.0994367"><ele>167.0</ele><time>2026-05-02T09:43:44.865Z</time></trkpt><trkpt lat="40.6306567" lon="15.0995383"><ele>167.75</ele><time>2026-05-02T09:43:45.865Z</time></trkpt><trkpt lat="40.63078" lon="15.0996383"><ele>168.5</ele><time>2026-05-02T09:43:46.865Z</time></trkpt><trkpt lat="40.6309" lon="15.0997417"><ele>169.25</ele><time>2026-05-02T09:43:47.866Z</time></trkpt><trkpt lat="40.63101" lon="15.09984"><ele>170.0</ele><time>2026-05-02T09:43:48.866Z</time></trkpt><trkpt lat="40.6311183" lon="15.0999283"><ele>171.0</ele><time>2026-05-02T09:43:49.865Z</time></trkpt><trkpt lat="40.6312283" lon="15.1000233"><ele>172.0</ele><time>2026-05-02T09:43:50.865Z</time></trkpt><trkpt lat="40.631325" lon="15.1001033"><ele>173.0</ele><time>2026-05-02T09:43:51.866Z</time></trkpt><trkpt lat="40.6314167" lon="15.100165"><ele>174.0</ele><time>2026-05-02T09:43:52.866Z</time></trkpt><trkpt lat="40.631505" lon="15.1002283"><ele>175.0</ele><time>2026-05-02T09:43:53.866Z</time></trkpt><trkpt lat="40.6315883" lon="15.100295"><ele>175.0</ele><time>2026-05-02T09:43:54.865Z</time></trkpt><trkpt lat="40.6316683" lon="15.1003633"><ele>175.0</ele><time>2026-05-02T09:43:55.865Z</time></trkpt><trkpt lat="40.6317483" lon="15.1004333"><ele>175.0</ele><time>2026-05-02T09:43:56.866Z</time></trkpt><trkpt lat="40.631825" lon="15.1005033"><ele>175.0</ele><time>2026-05-02T09:43:57.865Z</time></trkpt><trkpt lat="40.631895" lon="15.1005683"><ele>175.0</ele><time>2026-05-02T09:43:58.866Z</time></trkpt><trkpt lat="40.6319683" lon="15.1006467"><ele>175.8</ele><time>2026-05-02T09:43:59.865Z</time></trkpt><trkpt lat="40.6320433" lon="15.10072"><ele>176.6</ele><time>2026-05-02T09:44:00.865Z</time></trkpt><trkpt lat="40.6321217" lon="15.1008017"><ele>177.39999999999998</ele><time>2026-05-02T09:44:01.865Z</time></trkpt><trkpt lat="40.6322017" lon="15.10088"><ele>178.2</ele><time>2026-05-02T09:44:02.866Z</time></trkpt><trkpt lat="40.63227" lon="15.10096"><ele>179.0</ele><time>2026-05-02T09:44:03.865Z</time></trkpt><trkpt lat="40.6323333" lon="15.1010267"><ele>179.00000000000003</ele><time>2026-05-02T09:44:04.866Z</time></trkpt><trkpt lat="40.632385" lon="15.1010883"><ele>179.0</ele><time>2026-05-02T09:44:05.866Z</time></trkpt><trkpt lat="40.632435" lon="15.1011483"><ele>179.0</ele><time>2026-05-02T09:44:06.865Z</time></trkpt><trkpt lat="40.6324833" lon="15.1012067"><ele>179.0</ele><time>2026-05-02T09:44:07.866Z</time></trkpt><trkpt lat="40.6325383" lon="15.10127"><ele>179.0</ele><time>2026-05-02T09:44:08.865Z</time></trkpt><trkpt lat="40.632595" lon="15.1013367"><ele>179.00000000000003</ele><time>2026-05-02T09:44:09.866Z</time></trkpt><trkpt lat="40.6326583" lon="15.101415"><ele>179.0</ele><time>2026-05-02T09:44:10.865Z</time></trkpt><trkpt lat="40.6327217" lon="15.1014933"><ele>179.0</ele><time>2026-05-02T09:44:11.865Z</time></trkpt><trkpt lat="40.632785" lon="15.1015667"><ele>179.0</ele><time>2026-05-02T09:44:12.866Z</time></trkpt><trkpt lat="40.63285" lon="15.1016417"><ele>179.0</ele><time>2026-05-02T09:44:13.866Z</time></trkpt><trkpt lat="40.6329183" lon="15.10172"><ele>179.0</ele><time>2026-05-02T09:44:14.866Z</time></trkpt><trkpt lat="40.6329867" lon="15.1018117"><ele>179.0</ele><time>2026-05-02T09:44:15.865Z</time></trkpt><trkpt lat="40.6330833" lon="15.1018767"><ele>179.79999999999998</ele><time>2026-05-02T09:44:16.865Z</time></trkpt><trkpt lat="40.6331717" lon="15.1019467"><ele>180.6</ele><time>2026-05-02T09:44:17.865Z</time></trkpt><trkpt lat="40.63325" lon="15.10203"><ele>181.4</ele><time>2026-05-02T09:44:18.865Z</time></trkpt><trkpt lat="40.633335" lon="15.1021"><ele>182.2</ele><time>2026-05-02T09:44:19.865Z</time></trkpt><trkpt lat="40.6334217" lon="15.10216"><ele>183.0</ele><time>2026-05-02T09:44:20.865Z</time></trkpt><trkpt lat="40.6335083" lon="15.102225"><ele>183.0</ele><time>2026-05-02T09:44:21.865Z</time></trkpt><trkpt lat="40.63359" lon="15.102295"><ele>183.0</ele><time>2026-05-02T09:44:22.866Z</time></trkpt><trkpt lat="40.63368" lon="15.1023583"><ele>183.0</ele><time>2026-05-02T09:44:23.866Z</time></trkpt><trkpt lat="40.6337667" lon="15.1024367"><ele>183.0</ele><time>2026-05-02T09:44:24.866Z</time></trkpt><trkpt lat="40.6338533" lon="15.1025217"><ele>183.0</ele><time>2026-05-02T09:44:25.865Z</time></trkpt><trkpt lat="40.633935" lon="15.1025983"><ele>183.71428571428572</ele><time>2026-05-02T09:44:26.866Z</time></trkpt><trkpt lat="40.6340117" lon="15.102665"><ele>184.42857142857144</ele><time>2026-05-02T09:44:27.866Z</time></trkpt><trkpt lat="40.634075" lon="15.102725"><ele>185.14285714285714</ele><time>2026-05-02T09:44:28.865Z</time></trkpt><trkpt lat="40.6341317" lon="15.102785"><ele>185.85714285714286</ele><time>2026-05-02T09:44:29.865Z</time></trkpt><trkpt lat="40.6341867" lon="15.1028417"><ele>186.57142857142856</ele><time>2026-05-02T09:44:30.865Z</time></trkpt><trkpt lat="40.6342383" lon="15.1029"><ele>187.28571428571428</ele><time>2026-05-02T09:44:31.866Z</time></trkpt><trkpt lat="40.63429" lon="15.10296"><ele>188.0</ele><time>2026-05-02T09:44:32.866Z</time></trkpt><trkpt lat="40.6343483" lon="15.103025"><ele>188.0</ele><time>2026-05-02T09:44:33.866Z</time></trkpt><trkpt lat="40.6344117" lon="15.1030883"><ele>188.0</ele><time>2026-05-02T09:44:34.866Z</time></trkpt><trkpt lat="40.6344783" lon="15.103155"><ele>188.0</ele><time>2026-05-02T09:44:35.866Z</time></trkpt><trkpt lat="40.6345467" lon="15.1032217"><ele>188.0</ele><time>2026-05-02T09:44:36.865Z</time></trkpt><trkpt lat="40.63461" lon="15.1032883"><ele>188.0</ele><time>2026-05-02T09:44:37.865Z</time></trkpt><trkpt lat="40.634665" lon="15.1033517"><ele>188.0</ele><time>2026-05-02T09:44:38.865Z</time></trkpt><trkpt lat="40.634715" lon="15.10341"><ele>188.33333333333331</ele><time>2026-05-02T09:44:39.866Z</time></trkpt><trkpt lat="40.63477" lon="15.1034733"><ele>188.66666666666666</ele><time>2026-05-02T09:44:42.866Z</time></trkpt><trkpt lat="40.6348283" lon="15.1035317"><ele>189.0</ele><time>2026-05-02T09:44:45.866Z</time></trkpt><trkpt lat="40.6349083" lon="15.1036117"><ele>189.33333333333334</ele><time>2026-05-02T09:44:47.866Z</time></trkpt><trkpt lat="40.63499" lon="15.1036967"><ele>189.66666666666669</ele><time>2026-05-02T09:44:49.866Z</time></trkpt><trkpt lat="40.63506" lon="15.1037367"><ele>190.0</ele><time>2026-05-02T09:44:52.866Z</time></trkpt><trkpt lat="40.635135" lon="15.1038367"><ele>190.0</ele><time>2026-05-02T09:44:55.866Z</time></trkpt><trkpt lat="40.6352183" lon="15.1039367"><ele>190.0</ele><time>2026-05-02T09:44:57.865Z</time></trkpt><trkpt lat="40.6353233" lon="15.1040267"><ele>190.0</ele><time>2026-05-02T09:44:59.865Z</time></trkpt><trkpt lat="40.6353833" lon="15.1040933"><ele>190.0</ele><time>2026-05-02T09:45:00.866Z</time></trkpt><trkpt lat="40.6354417" lon="15.1041567"><ele>190.0</ele><time>2026-05-02T09:45:01.866Z</time></trkpt><trkpt lat="40.6354917" lon="15.1042283"><ele>190.66666666666669</ele><time>2026-05-02T09:45:02.866Z</time></trkpt><trkpt lat="40.6355417" lon="15.1042883"><ele>191.33333333333334</ele><time>2026-05-02T09:45:03.866Z</time></trkpt><trkpt lat="40.63559" lon="15.1043417"><ele>192.0</ele><time>2026-05-02T09:45:04.865Z</time></trkpt><trkpt lat="40.6356733" lon="15.104435"><ele>192.66666666666669</ele><time>2026-05-02T09:45:06.866Z</time></trkpt><trkpt lat="40.6357533" lon="15.1045233"><ele>193.33333333333334</ele><time>2026-05-02T09:45:08.865Z</time></trkpt><trkpt lat="40.6358217" lon="15.10459"><ele>194.0</ele><time>2026-05-02T09:45:10.865Z</time></trkpt><trkpt lat="40.6358683" lon="15.10466"><ele>194.00000000000003</ele><time>2026-05-02T09:45:13.866Z</time></trkpt><trkpt lat="40.6359433" lon="15.10472"><ele>194.0</ele><time>2026-05-02T09:45:15.866Z</time></trkpt><trkpt lat="40.6360217" lon="15.1048083"><ele>194.0</ele><time>2026-05-02T09:45:17.866Z</time></trkpt><trkpt lat="40.6360733" lon="15.10487"><ele>194.0</ele><time>2026-05-02T09:45:19.865Z</time></trkpt><trkpt lat="40.6361283" lon="15.104945"><ele>194.00000000000003</ele><time>2026-05-02T09:45:21.866Z</time></trkpt><trkpt lat="40.6361917" lon="15.1050183"><ele>194.0</ele><time>2026-05-02T09:45:24.865Z</time></trkpt><trkpt lat="40.636245" lon="15.1050883"><ele>194.00000000000003</ele><time>2026-05-02T09:45:26.866Z</time></trkpt><trkpt lat="40.636295" lon="15.105155"><ele>194.0</ele><time>2026-05-02T09:45:28.865Z</time></trkpt><trkpt lat="40.636345" lon="15.1052167"><ele>194.0</ele><time>2026-05-02T09:45:31.866Z</time></trkpt><trkpt lat="40.6363917" lon="15.10528"><ele>194.0</ele><time>2026-05-02T09:45:34.866Z</time></trkpt><trkpt lat="40.6364667" lon="15.1053783"><ele>194.00000000000003</ele><time>2026-05-02T09:45:37.866Z</time></trkpt><trkpt lat="40.636555" lon="15.1054917"><ele>194.0</ele><time>2026-05-02T09:45:39.865Z</time></trkpt><trkpt lat="40.63665" lon="15.1056133"><ele>194.00000000000003</ele><time>2026-05-02T09:45:41.865Z</time></trkpt><trkpt lat="40.6367067" lon="15.1056917"><ele>194.0</ele><time>2026-05-02T09:45:42.866Z</time></trkpt><trkpt lat="40.6367667" lon="15.105765"><ele>194.0</ele><time>2026-05-02T09:45:43.865Z</time></trkpt><trkpt lat="40.63682" lon="15.1058333"><ele>194.0</ele><time>2026-05-02T09:45:44.866Z</time></trkpt><trkpt lat="40.6368567" lon="15.105905"><ele>194.00000000000003</ele><time>2026-05-02T09:45:45.866Z</time></trkpt><trkpt lat="40.6369233" lon="15.10601"><ele>194.0</ele><time>2026-05-02T09:45:47.865Z</time></trkpt><trkpt lat="40.636955" lon="15.1060833"><ele>194.00000000000003</ele><time>2026-05-02T09:45:50.866Z</time></trkpt><trkpt lat="40.636985" lon="15.1061583"><ele>194.0</ele><time>2026-05-02T09:45:53.864Z</time></trkpt><trkpt lat="40.6370283" lon="15.1062333"><ele>194.0</ele><time>2026-05-02T09:45:55.865Z</time></trkpt><trkpt lat="40.6371" lon="15.10632"><ele>194.0</ele><time>2026-05-02T09:45:57.864Z</time></trkpt><trkpt lat="40.637145" lon="15.1063967"><ele>194.00000000000003</ele><time>2026-05-02T09:45:58.865Z</time></trkpt><trkpt lat="40.6371883" lon="15.1064833"><ele>194.0</ele><time>2026-05-02T09:45:59.865Z</time></trkpt><trkpt lat="40.63724" lon="15.1066017"><ele>194.00000000000003</ele><time>2026-05-02T09:46:01.865Z</time></trkpt><trkpt lat="40.637275" lon="15.106735"><ele>194.0</ele><time>2026-05-02T09:46:03.864Z</time></trkpt><trkpt lat="40.6372967" lon="15.1068317"><ele>194.0</ele><time>2026-05-02T09:46:04.864Z</time></trkpt><trkpt lat="40.6373283" lon="15.1069333"><ele>194.0</ele><time>2026-05-02T09:46:05.865Z</time></trkpt><trkpt lat="40.6373617" lon="15.1070383"><ele>194.00000000000003</ele><time>2026-05-02T09:46:06.865Z</time></trkpt><trkpt lat="40.6373883" lon="15.1071383"><ele>194.0</ele><time>2026-05-02T09:46:07.865Z</time></trkpt><trkpt lat="40.63741" lon="15.10724"><ele>194.00000000000003</ele><time>2026-05-02T09:46:08.864Z</time></trkpt><trkpt lat="40.6374317" lon="15.107335"><ele>194.0</ele><time>2026-05-02T09:46:09.864Z</time></trkpt><trkpt lat="40.6374633" lon="15.1074333"><ele>194.0</ele><time>2026-05-02T09:46:10.865Z</time></trkpt><trkpt lat="40.6374983" lon="15.1075283"><ele>194.0</ele><time>2026-05-02T09:46:11.864Z</time></trkpt><trkpt lat="40.6375233" lon="15.1076333"><ele>194.00000000000003</ele><time>2026-05-02T09:46:12.864Z</time></trkpt><trkpt lat="40.63756" lon="15.1077383"><ele>194.0</ele><time>2026-05-02T09:46:13.864Z</time></trkpt><trkpt lat="40.6376" lon="15.1078433"><ele>193.2</ele><time>2026-05-02T09:46:14.864Z</time></trkpt><trkpt lat="40.637635" lon="15.1079533"><ele>192.39999999999998</ele><time>2026-05-02T09:46:15.865Z</time></trkpt><trkpt lat="40.6376633" lon="15.10807"><ele>191.6</ele><time>2026-05-02T09:46:16.865Z</time></trkpt><trkpt lat="40.6376917" lon="15.1081967"><ele>190.8</ele><time>2026-05-02T09:46:17.865Z</time></trkpt><trkpt lat="40.6377117" lon="15.1083283"><ele>190.0</ele><time>2026-05-02T09:46:18.865Z</time></trkpt><trkpt lat="40.63774" lon="15.10845"><ele>189.4</ele><time>2026-05-02T09:46:19.864Z</time></trkpt><trkpt lat="40.6377667" lon="15.10857"><ele>188.8</ele><time>2026-05-02T09:46:20.864Z</time></trkpt><trkpt lat="40.6377933" lon="15.108685"><ele>188.2</ele><time>2026-05-02T09:46:21.864Z</time></trkpt><trkpt lat="40.637825" lon="15.1088083"><ele>187.6</ele><time>2026-05-02T09:46:22.864Z</time></trkpt><trkpt lat="40.6378583" lon="15.108935"><ele>187.0</ele><time>2026-05-02T09:46:23.864Z</time></trkpt><trkpt lat="40.6378983" lon="15.1090767"><ele>186.25</ele><time>2026-05-02T09:46:24.864Z</time></trkpt><trkpt lat="40.6379367" lon="15.1092333"><ele>185.5</ele><time>2026-05-02T09:46:25.865Z</time></trkpt><trkpt lat="40.6379767" lon="15.1093933"><ele>184.75</ele><time>2026-05-02T09:46:26.864Z</time></trkpt><trkpt lat="40.638025" lon="15.1095433"><ele>184.0</ele><time>2026-05-02T09:46:27.865Z</time></trkpt><trkpt lat="40.6380767" lon="15.1097017"><ele>184.0</ele><time>2026-05-02T09:46:28.864Z</time></trkpt><trkpt lat="40.638125" lon="15.1098617"><ele>184.0</ele><time>2026-05-02T09:46:29.865Z</time></trkpt><trkpt lat="40.63817" lon="15.1100117"><ele>184.0</ele><time>2026-05-02T09:46:30.864Z</time></trkpt><trkpt lat="40.6382167" lon="15.1101533"><ele>184.0</ele><time>2026-05-02T09:46:31.865Z</time></trkpt><trkpt lat="40.6382583" lon="15.1102817"><ele>183.6</ele><time>2026-05-02T09:46:32.865Z</time></trkpt><trkpt lat="40.6383" lon="15.110415"><ele>183.2</ele><time>2026-05-02T09:46:33.864Z</time></trkpt><trkpt lat="40.6383417" lon="15.1105467"><ele>182.79999999999998</ele><time>2026-05-02T09:46:34.865Z</time></trkpt><trkpt lat="40.6383767" lon="15.110685"><ele>182.39999999999998</ele><time>2026-05-02T09:46:35.864Z</time></trkpt><trkpt lat="40.6384233" lon="15.11082"><ele>182.0</ele><time>2026-05-02T09:46:36.865Z</time></trkpt><trkpt lat="40.6384667" lon="15.110955"><ele>181.5</ele><time>2026-05-02T09:46:37.865Z</time></trkpt><trkpt lat="40.63852" lon="15.1110917"><ele>181.0</ele><time>2026-05-02T09:46:38.864Z</time></trkpt><trkpt lat="40.6385717" lon="15.1112217"><ele>180.5</ele><time>2026-05-02T09:46:39.865Z</time></trkpt><trkpt lat="40.6386333" lon="15.111355"><ele>180.0</ele><time>2026-05-02T09:46:40.865Z</time></trkpt><trkpt lat="40.6387133" lon="15.111475"><ele>179.0</ele><time>2026-05-02T09:46:41.865Z</time></trkpt><trkpt lat="40.6388167" lon="15.1115767"><ele>178.0</ele><time>2026-05-02T09:46:42.865Z</time></trkpt><trkpt lat="40.638925" lon="15.1116633"><ele>177.0</ele><time>2026-05-02T09:46:43.865Z</time></trkpt><trkpt lat="40.639045" lon="15.111725"><ele>176.0</ele><time>2026-05-02T09:46:44.864Z</time></trkpt><trkpt lat="40.639175" lon="15.111765"><ele>176.0</ele><time>2026-05-02T09:46:45.865Z</time></trkpt><trkpt lat="40.6393183" lon="15.1117767"><ele>176.0</ele><time>2026-05-02T09:46:46.864Z</time></trkpt><trkpt lat="40.639465" lon="15.1117667"><ele>176.0</ele><time>2026-05-02T09:46:47.865Z</time></trkpt><trkpt lat="40.63961" lon="15.11174"><ele>176.0</ele><time>2026-05-02T09:46:48.865Z</time></trkpt><trkpt lat="40.6397483" lon="15.1117117"><ele>176.5</ele><time>2026-05-02T09:46:49.865Z</time></trkpt><trkpt lat="40.6398867" lon="15.1116917"><ele>177.0</ele><time>2026-05-02T09:46:50.864Z</time></trkpt><trkpt lat="40.6400267" lon="15.1116833"><ele>177.5</ele><time>2026-05-02T09:46:51.865Z</time></trkpt><trkpt lat="40.640165" lon="15.1117117"><ele>178.0</ele><time>2026-05-02T09:46:52.865Z</time></trkpt><trkpt lat="40.6402983" lon="15.11178"><ele>178.75</ele><time>2026-05-02T09:46:53.865Z</time></trkpt><trkpt lat="40.6404233" lon="15.111885"><ele>179.5</ele><time>2026-05-02T09:46:54.865Z</time></trkpt><trkpt lat="40.6405417" lon="15.1120117"><ele>180.25</ele><time>2026-05-02T09:46:55.864Z</time></trkpt><trkpt lat="40.6406567" lon="15.11213"><ele>181.0</ele><time>2026-05-02T09:46:56.865Z</time></trkpt><trkpt lat="40.6407683" lon="15.11224"><ele>181.0</ele><time>2026-05-02T09:46:57.865Z</time></trkpt><trkpt lat="40.6408783" lon="15.112355"><ele>181.0</ele><time>2026-05-02T09:46:58.865Z</time></trkpt><trkpt lat="40.6409883" lon="15.112455"><ele>181.0</ele><time>2026-05-02T09:46:59.865Z</time></trkpt><trkpt lat="40.6411" lon="15.1125383"><ele>181.0</ele><time>2026-05-02T09:47:00.865Z</time></trkpt><trkpt lat="40.641225" lon="15.1126067"><ele>180.0</ele><time>2026-05-02T09:47:01.864Z</time></trkpt><trkpt lat="40.6413517" lon="15.1126467"><ele>179.0</ele><time>2026-05-02T09:47:02.864Z</time></trkpt><trkpt lat="40.64149" lon="15.1126917"><ele>178.0</ele><time>2026-05-02T09:47:03.864Z</time></trkpt><trkpt lat="40.641635" lon="15.11272"><ele>177.0</ele><time>2026-05-02T09:47:04.864Z</time></trkpt><trkpt lat="40.6417733" lon="15.1127383"><ele>177.0</ele><time>2026-05-02T09:47:05.864Z</time></trkpt><trkpt lat="40.6419167" lon="15.1127567"><ele>177.0</ele><time>2026-05-02T09:47:06.864Z</time></trkpt><trkpt lat="40.6420483" lon="15.112765"><ele>177.0</ele><time>2026-05-02T09:47:07.864Z</time></trkpt><trkpt lat="40.6421783" lon="15.1127617"><ele>177.0</ele><time>2026-05-02T09:47:08.864Z</time></trkpt><trkpt lat="40.642305" lon="15.1127217"><ele>175.5</ele><time>2026-05-02T09:47:09.865Z</time></trkpt><trkpt lat="40.64243" lon="15.1126633"><ele>174.0</ele><time>2026-05-02T09:47:10.864Z</time></trkpt><trkpt lat="40.64255" lon="15.11259"><ele>172.5</ele><time>2026-05-02T09:47:11.865Z</time></trkpt><trkpt lat="40.6426683" lon="15.112515"><ele>171.0</ele><time>2026-05-02T09:47:12.865Z</time></trkpt><trkpt lat="40.6427983" lon="15.1124633"><ele>172.5</ele><time>2026-05-02T09:47:13.865Z</time></trkpt><trkpt lat="40.6429317" lon="15.1124283"><ele>174.0</ele><time>2026-05-02T09:47:14.864Z</time></trkpt><trkpt lat="40.6430683" lon="15.1124033"><ele>175.5</ele><time>2026-05-02T09:47:15.865Z</time></trkpt><trkpt lat="40.64321" lon="15.1124"><ele>177.0</ele><time>2026-05-02T09:47:16.864Z</time></trkpt><trkpt lat="40.6433417" lon="15.1124033"><ele>174.6</ele><time>2026-05-02T09:47:17.865Z</time></trkpt><trkpt lat="40.64346" lon="15.1124083"><ele>172.2</ele><time>2026-05-02T09:47:18.865Z</time></trkpt><trkpt lat="40.643555" lon="15.1124133"><ele>169.8</ele><time>2026-05-02T09:47:19.864Z</time></trkpt><trkpt lat="40.6436367" lon="15.1124283"><ele>167.4</ele><time>2026-05-02T09:47:20.864Z</time></trkpt><trkpt lat="40.643705" lon="15.1124433"><ele>165.0</ele><time>2026-05-02T09:47:21.865Z</time></trkpt><trkpt lat="40.6437917" lon="15.1125483"><ele>165.0</ele><time>2026-05-02T09:47:23.865Z</time></trkpt><trkpt lat="40.6437817" lon="15.1127"><ele>165.0</ele><time>2026-05-02T09:47:25.864Z</time></trkpt><trkpt lat="40.6437133" lon="15.11274"><ele>165.0</ele><time>2026-05-02T09:47:26.864Z</time></trkpt><trkpt lat="40.643625" lon="15.1127667"><ele>165.0</ele><time>2026-05-02T09:47:27.864Z</time></trkpt><trkpt lat="40.6435217" lon="15.1128"><ele>165.0</ele><time>2026-05-02T09:47:28.865Z</time></trkpt><trkpt lat="40.6434117" lon="15.1128383"><ele>164.5</ele><time>2026-05-02T09:47:29.864Z</time></trkpt><trkpt lat="40.6432917" lon="15.1128817"><ele>164.0</ele><time>2026-05-02T09:47:30.865Z</time></trkpt><trkpt lat="40.6431717" lon="15.1129217"><ele>163.5</ele><time>2026-05-02T09:47:31.864Z</time></trkpt><trkpt lat="40.6430483" lon="15.1129667"><ele>163.0</ele><time>2026-05-02T09:47:32.864Z</time></trkpt><trkpt lat="40.6429217" lon="15.113025"><ele>163.0</ele><time>2026-05-02T09:47:33.864Z</time></trkpt><trkpt lat="40.6428" lon="15.1130967"><ele>163.0</ele><time>2026-05-02T09:47:34.865Z</time></trkpt><trkpt lat="40.6426933" lon="15.1131867"><ele>163.0</ele><time>2026-05-02T09:47:35.864Z</time></trkpt><trkpt lat="40.6425867" lon="15.1132567"><ele>163.0</ele><time>2026-05-02T09:47:36.864Z</time></trkpt><trkpt lat="40.642465" lon="15.1132933"><ele>165.0</ele><time>2026-05-02T09:47:37.865Z</time></trkpt><trkpt lat="40.64234" lon="15.11328"><ele>167.0</ele><time>2026-05-02T09:47:38.864Z</time></trkpt><trkpt lat="40.642215" lon="15.1132333"><ele>169.0</ele><time>2026-05-02T09:47:39.865Z</time></trkpt><trkpt lat="40.6420833" lon="15.113175"><ele>171.0</ele><time>2026-05-02T09:47:40.864Z</time></trkpt><trkpt lat="40.64195" lon="15.113125"><ele>172.5</ele><time>2026-05-02T09:47:41.864Z</time></trkpt><trkpt lat="40.64181" lon="15.1131033"><ele>174.0</ele><time>2026-05-02T09:47:42.865Z</time></trkpt><trkpt lat="40.6416717" lon="15.1131183"><ele>175.5</ele><time>2026-05-02T09:47:43.865Z</time></trkpt><trkpt lat="40.6415333" lon="15.1131733"><ele>177.0</ele><time>2026-05-02T09:47:44.865Z</time></trkpt><trkpt lat="40.6414017" lon="15.113235"><ele>172.75</ele><time>2026-05-02T09:47:45.864Z</time></trkpt><trkpt lat="40.6412767" lon="15.1133367"><ele>168.5</ele><time>2026-05-02T09:47:46.865Z</time></trkpt><trkpt lat="40.6411717" lon="15.11343"><ele>164.25</ele><time>2026-05-02T09:47:47.865Z</time></trkpt><trkpt lat="40.6410783" lon="15.113515"><ele>160.0</ele><time>2026-05-02T09:47:48.865Z</time></trkpt><trkpt lat="40.640975" lon="15.1135833"><ele>160.0</ele><time>2026-05-02T09:47:49.864Z</time></trkpt><trkpt lat="40.6408783" lon="15.1136283"><ele>160.0</ele><time>2026-05-02T09:47:50.865Z</time></trkpt><trkpt lat="40.64079" lon="15.1136583"><ele>160.0</ele><time>2026-05-02T09:47:51.865Z</time></trkpt><trkpt lat="40.6407183" lon="15.1136917"><ele>160.0</ele><time>2026-05-02T09:47:52.865Z</time></trkpt><trkpt lat="40.6406583" lon="15.1137417"><ele>160.0</ele><time>2026-05-02T09:47:53.864Z</time></trkpt><trkpt lat="40.640615" lon="15.1138267"><ele>160.0</ele><time>2026-05-02T09:47:54.865Z</time></trkpt><trkpt lat="40.6406" lon="15.11393"><ele>160.0</ele><time>2026-05-02T09:47:55.865Z</time></trkpt><trkpt lat="40.6406083" lon="15.1140467"><ele>160.0</ele><time>2026-05-02T09:47:56.864Z</time></trkpt><trkpt lat="40.6406417" lon="15.1141767"><ele>160.0</ele><time>2026-05-02T09:47:57.864Z</time></trkpt><trkpt lat="40.6406867" lon="15.1143167"><ele>160.0</ele><time>2026-05-02T09:47:58.865Z</time></trkpt><trkpt lat="40.6407317" lon="15.1144417"><ele>160.0</ele><time>2026-05-02T09:47:59.865Z</time></trkpt><trkpt lat="40.64077" lon="15.1145567"><ele>157.2</ele><time>2026-05-02T09:48:00.864Z</time></trkpt><trkpt lat="40.6407883" lon="15.1146617"><ele>154.4</ele><time>2026-05-02T09:48:01.864Z</time></trkpt><trkpt lat="40.640775" lon="15.1147717"><ele>151.6</ele><time>2026-05-02T09:48:02.864Z</time></trkpt><trkpt lat="40.6407333" lon="15.1148817"><ele>148.8</ele><time>2026-05-02T09:48:03.864Z</time></trkpt><trkpt lat="40.6406617" lon="15.114995"><ele>146.0</ele><time>2026-05-02T09:48:04.865Z</time></trkpt><trkpt lat="40.6405767" lon="15.115115"><ele>146.0</ele><time>2026-05-02T09:48:05.865Z</time></trkpt><trkpt lat="40.6404783" lon="15.1152217"><ele>146.0</ele><time>2026-05-02T09:48:06.864Z</time></trkpt><trkpt lat="40.6403817" lon="15.115315"><ele>146.0</ele><time>2026-05-02T09:48:07.865Z</time></trkpt><trkpt lat="40.640275" lon="15.1153933"><ele>146.0</ele><time>2026-05-02T09:48:08.865Z</time></trkpt><trkpt lat="40.6401583" lon="15.1154533"><ele>143.25</ele><time>2026-05-02T09:48:09.864Z</time></trkpt><trkpt lat="40.64004" lon="15.1155067"><ele>140.5</ele><time>2026-05-02T09:48:10.864Z</time></trkpt><trkpt lat="40.639925" lon="15.115555"><ele>137.75</ele><time>2026-05-02T09:48:11.864Z</time></trkpt><trkpt lat="40.6398083" lon="15.1155783"><ele>135.0</ele><time>2026-05-02T09:48:12.864Z</time></trkpt><trkpt lat="40.6396917" lon="15.115605"><ele>135.0</ele><time>2026-05-02T09:48:13.865Z</time></trkpt><trkpt lat="40.639565" lon="15.11566"><ele>135.0</ele><time>2026-05-02T09:48:14.865Z</time></trkpt><trkpt lat="40.639445" lon="15.1157467"><ele>135.0</ele><time>2026-05-02T09:48:15.865Z</time></trkpt><trkpt lat="40.639345" lon="15.115855"><ele>135.0</ele><time>2026-05-02T09:48:16.865Z</time></trkpt><trkpt lat="40.6392483" lon="15.1159733"><ele>137.75</ele><time>2026-05-02T09:48:17.865Z</time></trkpt><trkpt lat="40.6391567" lon="15.1160933"><ele>140.5</ele><time>2026-05-02T09:48:18.864Z</time></trkpt><trkpt lat="40.6390583" lon="15.116215"><ele>143.25</ele><time>2026-05-02T09:48:19.864Z</time></trkpt><trkpt lat="40.6389533" lon="15.1163233"><ele>146.0</ele><time>2026-05-02T09:48:20.865Z</time></trkpt><trkpt lat="40.6388383" lon="15.11642"><ele>146.0</ele><time>2026-05-02T09:48:21.865Z</time></trkpt><trkpt lat="40.6387183" lon="15.1165017"><ele>146.0</ele><time>2026-05-02T09:48:22.864Z</time></trkpt><trkpt lat="40.63859" lon="15.116585"><ele>146.0</ele><time>2026-05-02T09:48:23.864Z</time></trkpt><trkpt lat="40.63847" lon="15.1166683"><ele>146.0</ele><time>2026-05-02T09:48:24.865Z</time></trkpt><trkpt lat="40.6383567" lon="15.1167683"><ele>147.5</ele><time>2026-05-02T09:48:25.864Z</time></trkpt><trkpt lat="40.638265" lon="15.1168833"><ele>149.0</ele><time>2026-05-02T09:48:26.864Z</time></trkpt><trkpt lat="40.63819" lon="15.11702"><ele>150.5</ele><time>2026-05-02T09:48:27.865Z</time></trkpt><trkpt lat="40.6381333" lon="15.1171683"><ele>152.0</ele><time>2026-05-02T09:48:28.864Z</time></trkpt><trkpt lat="40.6380833" lon="15.117325"><ele>154.25</ele><time>2026-05-02T09:48:29.864Z</time></trkpt><trkpt lat="40.63804" lon="15.11749"><ele>156.5</ele><time>2026-05-02T09:48:30.864Z</time></trkpt><trkpt lat="40.6379967" lon="15.1176483"><ele>158.75</ele><time>2026-05-02T09:48:31.864Z</time></trkpt><trkpt lat="40.6379583" lon="15.1178183"><ele>161.0</ele><time>2026-05-02T09:48:32.864Z</time></trkpt><trkpt lat="40.6379017" lon="15.1179833"><ele>161.0</ele><time>2026-05-02T09:48:33.864Z</time></trkpt><trkpt lat="40.6378517" lon="15.1181483"><ele>161.0</ele><time>2026-05-02T09:48:34.865Z</time></trkpt><trkpt lat="40.637805" lon="15.1183083"><ele>161.0</ele><time>2026-05-02T09:48:35.865Z</time></trkpt><trkpt lat="40.6377567" lon="15.1184683"><ele>161.0</ele><time>2026-05-02T09:48:36.865Z</time></trkpt><trkpt lat="40.63771" lon="15.118615"><ele>160.60000000000002</ele><time>2026-05-02T09:48:37.865Z</time></trkpt><trkpt lat="40.6376633" lon="15.1187533"><ele>160.20000000000002</ele><time>2026-05-02T09:48:38.864Z</time></trkpt><trkpt lat="40.6376283" lon="15.118875"><ele>159.8</ele><time>2026-05-02T09:48:39.865Z</time></trkpt><trkpt lat="40.6376" lon="15.1189883"><ele>159.4</ele><time>2026-05-02T09:48:40.865Z</time></trkpt><trkpt lat="40.63758" lon="15.1190867"><ele>159.0</ele><time>2026-05-02T09:48:41.865Z</time></trkpt><trkpt lat="40.6375633" lon="15.11918"><ele>160.0</ele><time>2026-05-02T09:48:42.865Z</time></trkpt><trkpt lat="40.63755" lon="15.1192767"><ele>161.0</ele><time>2026-05-02T09:48:43.865Z</time></trkpt><trkpt lat="40.6375367" lon="15.1193867"><ele>162.0</ele><time>2026-05-02T09:48:44.864Z</time></trkpt><trkpt lat="40.637525" lon="15.1195133"><ele>163.0</ele><time>2026-05-02T09:48:45.865Z</time></trkpt><trkpt lat="40.6375183" lon="15.1196467"><ele>164.0</ele><time>2026-05-02T09:48:46.865Z</time></trkpt><trkpt lat="40.6375167" lon="15.119795"><ele>164.25</ele><time>2026-05-02T09:48:47.864Z</time></trkpt><trkpt lat="40.637525" lon="15.1199483"><ele>164.5</ele><time>2026-05-02T09:48:48.865Z</time></trkpt><trkpt lat="40.637545" lon="15.1201083"><ele>164.75</ele><time>2026-05-02T09:48:49.865Z</time></trkpt><trkpt lat="40.637575" lon="15.12028"><ele>165.0</ele><time>2026-05-02T09:48:50.864Z</time></trkpt><trkpt lat="40.6376117" lon="15.120455"><ele>165.0</ele><time>2026-05-02T09:48:51.865Z</time></trkpt><trkpt lat="40.6376583" lon="15.1206333"><ele>165.0</ele><time>2026-05-02T09:48:52.865Z</time></trkpt><trkpt lat="40.6377217" lon="15.1208067"><ele>165.0</ele><time>2026-05-02T09:48:53.865Z</time></trkpt><trkpt lat="40.637795" lon="15.1209767"><ele>165.0</ele><time>2026-05-02T09:48:54.864Z</time></trkpt><trkpt lat="40.6378817" lon="15.121125"><ele>164.75</ele><time>2026-05-02T09:48:55.865Z</time></trkpt><trkpt lat="40.637985" lon="15.121255"><ele>164.5</ele><time>2026-05-02T09:48:56.864Z</time></trkpt><trkpt lat="40.63809" lon="15.12138"><ele>164.25</ele><time>2026-05-02T09:48:57.865Z</time></trkpt><trkpt lat="40.638195" lon="15.121485"><ele>164.0</ele><time>2026-05-02T09:48:58.864Z</time></trkpt><trkpt lat="40.6382983" lon="15.1215817"><ele>164.0</ele><time>2026-05-02T09:48:59.865Z</time></trkpt><trkpt lat="40.6384017" lon="15.1216667"><ele>164.0</ele><time>2026-05-02T09:49:00.864Z</time></trkpt><trkpt lat="40.6385083" lon="15.12173"><ele>164.0</ele><time>2026-05-02T09:49:01.864Z</time></trkpt><trkpt lat="40.6386183" lon="15.1217867"><ele>164.0</ele><time>2026-05-02T09:49:02.865Z</time></trkpt><trkpt lat="40.63873" lon="15.1218"><ele>164.39999999999998</ele><time>2026-05-02T09:49:03.864Z</time></trkpt><trkpt lat="40.6388417" lon="15.1217933"><ele>164.8</ele><time>2026-05-02T09:49:04.864Z</time></trkpt><trkpt lat="40.638945" lon="15.1217933"><ele>165.2</ele><time>2026-05-02T09:49:05.864Z</time></trkpt><trkpt lat="40.639045" lon="15.12181"><ele>165.60000000000002</ele><time>2026-05-02T09:49:06.865Z</time></trkpt><trkpt lat="40.6391333" lon="15.1218717"><ele>166.0</ele><time>2026-05-02T09:49:07.865Z</time></trkpt><trkpt lat="40.6392033" lon="15.1219583"><ele>166.0</ele><time>2026-05-02T09:49:08.865Z</time></trkpt><trkpt lat="40.63925" lon="15.12207"><ele>166.0</ele><time>2026-05-02T09:49:09.864Z</time></trkpt><trkpt lat="40.6392717" lon="15.1222117"><ele>166.0</ele><time>2026-05-02T09:49:10.865Z</time></trkpt><trkpt lat="40.6392667" lon="15.1223683"><ele>166.0</ele><time>2026-05-02T09:49:11.865Z</time></trkpt><trkpt lat="40.6392467" lon="15.12252"><ele>166.0</ele><time>2026-05-02T09:49:12.864Z</time></trkpt><trkpt lat="40.6392117" lon="15.1226783"><ele>165.75</ele><time>2026-05-02T09:49:13.865Z</time></trkpt><trkpt lat="40.63916" lon="15.1228417"><ele>165.5</ele><time>2026-05-02T09:49:14.864Z</time></trkpt><trkpt lat="40.6391033" lon="15.1230033"><ele>165.25</ele><time>2026-05-02T09:49:15.864Z</time></trkpt><trkpt lat="40.6390433" lon="15.12316"><ele>165.0</ele><time>2026-05-02T09:49:16.864Z</time></trkpt><trkpt lat="40.6389833" lon="15.1233167"><ele>165.75</ele><time>2026-05-02T09:49:17.864Z</time></trkpt><trkpt lat="40.6389317" lon="15.123465"><ele>166.5</ele><time>2026-05-02T09:49:18.864Z</time></trkpt><trkpt lat="40.6388883" lon="15.1236033"><ele>167.25</ele><time>2026-05-02T09:49:19.864Z</time></trkpt><trkpt lat="40.6388417" lon="15.1237333"><ele>168.0</ele><time>2026-05-02T09:49:20.864Z</time></trkpt><trkpt lat="40.6387967" lon="15.1238633"><ele>168.0</ele><time>2026-05-02T09:49:21.864Z</time></trkpt><trkpt lat="40.638755" lon="15.12399"><ele>168.0</ele><time>2026-05-02T09:49:22.864Z</time></trkpt><trkpt lat="40.63871" lon="15.1241217"><ele>168.0</ele><time>2026-05-02T09:49:23.864Z</time></trkpt><trkpt lat="40.6386633" lon="15.1242583"><ele>168.0</ele><time>2026-05-02T09:49:24.865Z</time></trkpt><trkpt lat="40.6386117" lon="15.1244"><ele>168.0</ele><time>2026-05-02T09:49:25.865Z</time></trkpt><trkpt lat="40.63856" lon="15.1245417"><ele>168.5</ele><time>2026-05-02T09:49:26.864Z</time></trkpt><trkpt lat="40.6385033" lon="15.1246967"><ele>169.0</ele><time>2026-05-02T09:49:27.864Z</time></trkpt><trkpt lat="40.6384483" lon="15.1248417"><ele>169.5</ele><time>2026-05-02T09:49:28.864Z</time></trkpt><trkpt lat="40.6383967" lon="15.1249817"><ele>170.0</ele><time>2026-05-02T09:49:29.865Z</time></trkpt><trkpt lat="40.638355" lon="15.125105"><ele>170.33333333333331</ele><time>2026-05-02T09:49:30.864Z</time></trkpt><trkpt lat="40.6383217" lon="15.12521"><ele>170.66666666666666</ele><time>2026-05-02T09:49:31.864Z</time></trkpt><trkpt lat="40.6382883" lon="15.125305"><ele>171.0</ele><time>2026-05-02T09:49:32.865Z</time></trkpt><trkpt lat="40.6382567" lon="15.1253983"><ele>171.33333333333334</ele><time>2026-05-02T09:49:33.864Z</time></trkpt><trkpt lat="40.6382183" lon="15.1255067"><ele>171.66666666666669</ele><time>2026-05-02T09:49:34.864Z</time></trkpt><trkpt lat="40.6381717" lon="15.1256283"><ele>172.0</ele><time>2026-05-02T09:49:35.864Z</time></trkpt><trkpt lat="40.6381317" lon="15.1257633"><ele>172.25</ele><time>2026-05-02T09:49:36.864Z</time></trkpt><trkpt lat="40.6380833" lon="15.1258967"><ele>172.5</ele><time>2026-05-02T09:49:37.864Z</time></trkpt><trkpt lat="40.638035" lon="15.1260417"><ele>172.75</ele><time>2026-05-02T09:49:38.865Z</time></trkpt><trkpt lat="40.637985" lon="15.1261883"><ele>173.0</ele><time>2026-05-02T09:49:39.864Z</time></trkpt><trkpt lat="40.6379333" lon="15.1263517"><ele>173.0</ele><time>2026-05-02T09:49:40.864Z</time></trkpt><trkpt lat="40.63787" lon="15.1265033"><ele>173.0</ele><time>2026-05-02T09:49:41.864Z</time></trkpt><trkpt lat="40.6378167" lon="15.1266717"><ele>173.0</ele><time>2026-05-02T09:49:42.865Z</time></trkpt><trkpt lat="40.6377633" lon="15.12684"><ele>173.0</ele><time>2026-05-02T09:49:43.864Z</time></trkpt><trkpt lat="40.6377017" lon="15.12701"><ele>173.0</ele><time>2026-05-02T09:49:44.865Z</time></trkpt><trkpt lat="40.637645" lon="15.1271783"><ele>173.0</ele><time>2026-05-02T09:49:45.865Z</time></trkpt><trkpt lat="40.6375817" lon="15.1273283"><ele>173.0</ele><time>2026-05-02T09:49:46.865Z</time></trkpt><trkpt lat="40.637505" lon="15.1274817"><ele>173.0</ele><time>2026-05-02T09:49:47.865Z</time></trkpt><trkpt lat="40.637425" lon="15.1276333"><ele>173.75</ele><time>2026-05-02T09:49:48.864Z</time></trkpt><trkpt lat="40.6373417" lon="15.12778"><ele>174.5</ele><time>2026-05-02T09:49:49.865Z</time></trkpt><trkpt lat="40.6372483" lon="15.1279267"><ele>175.25</ele><time>2026-05-02T09:49:50.864Z</time></trkpt><trkpt lat="40.6371583" lon="15.128065"><ele>176.0</ele><time>2026-05-02T09:49:51.865Z</time></trkpt><trkpt lat="40.63706" lon="15.1282"><ele>176.75</ele><time>2026-05-02T09:49:52.864Z</time></trkpt><trkpt lat="40.6369717" lon="15.1283433"><ele>177.5</ele><time>2026-05-02T09:49:53.865Z</time></trkpt><trkpt lat="40.6368783" lon="15.1284783"><ele>178.25</ele><time>2026-05-02T09:49:54.865Z</time></trkpt><trkpt lat="40.6367833" lon="15.128605"><ele>179.0</ele><time>2026-05-02T09:49:55.865Z</time></trkpt><trkpt lat="40.6366833" lon="15.1287367"><ele>179.0</ele><time>2026-05-02T09:49:56.864Z</time></trkpt><trkpt lat="40.6365883" lon="15.1288733"><ele>179.0</ele><time>2026-05-02T09:49:57.865Z</time></trkpt><trkpt lat="40.6364917" lon="15.1290067"><ele>179.0</ele><time>2026-05-02T09:49:58.865Z</time></trkpt><trkpt lat="40.6363933" lon="15.1291417"><ele>179.0</ele><time>2026-05-02T09:49:59.864Z</time></trkpt><trkpt lat="40.6363" lon="15.1292817"><ele>179.75</ele><time>2026-05-02T09:50:00.864Z</time></trkpt><trkpt lat="40.6362183" lon="15.1294167"><ele>180.5</ele><time>2026-05-02T09:50:01.865Z</time></trkpt><trkpt lat="40.636135" lon="15.1295567"><ele>181.25</ele><time>2026-05-02T09:50:02.864Z</time></trkpt><trkpt lat="40.6360517" lon="15.1296983"><ele>182.0</ele><time>2026-05-02T09:50:03.865Z</time></trkpt><trkpt lat="40.6359767" lon="15.1298367"><ele>182.75</ele><time>2026-05-02T09:50:04.864Z</time></trkpt><trkpt lat="40.6358967" lon="15.1299767"><ele>183.5</ele><time>2026-05-02T09:50:05.864Z</time></trkpt><trkpt lat="40.6358183" lon="15.1301233"><ele>184.25</ele><time>2026-05-02T09:50:06.865Z</time></trkpt><trkpt lat="40.6357467" lon="15.130265"><ele>185.0</ele><time>2026-05-02T09:50:07.864Z</time></trkpt><trkpt lat="40.635675" lon="15.130405"><ele>185.0</ele><time>2026-05-02T09:50:08.864Z</time></trkpt><trkpt lat="40.6356" lon="15.130545"><ele>185.0</ele><time>2026-05-02T09:50:09.864Z</time></trkpt><trkpt lat="40.6355267" lon="15.1306767"><ele>185.0</ele><time>2026-05-02T09:50:10.865Z</time></trkpt><trkpt lat="40.6354567" lon="15.130815"><ele>185.0</ele><time>2026-05-02T09:50:11.865Z</time></trkpt><trkpt lat="40.6353833" lon="15.1309517"><ele>185.75</ele><time>2026-05-02T09:50:12.865Z</time></trkpt><trkpt lat="40.6353133" lon="15.13109"><ele>186.5</ele><time>2026-05-02T09:50:13.865Z</time></trkpt><trkpt lat="40.6352417" lon="15.131225"><ele>187.25</ele><time>2026-05-02T09:50:14.864Z</time></trkpt><trkpt lat="40.6351717" lon="15.1313583"><ele>188.0</ele><time>2026-05-02T09:50:15.865Z</time></trkpt><trkpt lat="40.6351067" lon="15.131485"><ele>189.2</ele><time>2026-05-02T09:50:16.865Z</time></trkpt><trkpt lat="40.635045" lon="15.1316067"><ele>190.4</ele><time>2026-05-02T09:50:17.865Z</time></trkpt><trkpt lat="40.6349817" lon="15.131725"><ele>191.6</ele><time>2026-05-02T09:50:18.864Z</time></trkpt><trkpt lat="40.6349233" lon="15.1318433"><ele>192.79999999999998</ele><time>2026-05-02T09:50:19.865Z</time></trkpt><trkpt lat="40.6348683" lon="15.1319533"><ele>194.0</ele><time>2026-05-02T09:50:20.864Z</time></trkpt><trkpt lat="40.634815" lon="15.1320583"><ele>194.00000000000003</ele><time>2026-05-02T09:50:21.865Z</time></trkpt><trkpt lat="40.6347633" lon="15.132155"><ele>194.0</ele><time>2026-05-02T09:50:22.865Z</time></trkpt><trkpt lat="40.634715" lon="15.1322517"><ele>194.0</ele><time>2026-05-02T09:50:23.865Z</time></trkpt><trkpt lat="40.6346667" lon="15.13234"><ele>194.0</ele><time>2026-05-02T09:50:24.865Z</time></trkpt><trkpt lat="40.634625" lon="15.1324167"><ele>194.00000000000003</ele><time>2026-05-02T09:50:25.865Z</time></trkpt><trkpt lat="40.63459" lon="15.1324917"><ele>194.0</ele><time>2026-05-02T09:50:26.864Z</time></trkpt><trkpt lat="40.6345283" lon="15.1326217"><ele>194.16666666666669</ele><time>2026-05-02T09:50:28.865Z</time></trkpt><trkpt lat="40.63447" lon="15.1327067"><ele>194.33333333333334</ele><time>2026-05-02T09:50:30.865Z</time></trkpt><trkpt lat="40.6343917" lon="15.13264"><ele>194.5</ele><time>2026-05-02T09:50:33.864Z</time></trkpt><trkpt lat="40.634355" lon="15.1325033"><ele>194.66666666666669</ele><time>2026-05-02T09:50:35.865Z</time></trkpt><trkpt lat="40.6343317" lon="15.1324033"><ele>194.83333333333334</ele><time>2026-05-02T09:50:36.864Z</time></trkpt><trkpt lat="40.6343067" lon="15.1323117"><ele>195.0</ele><time>2026-05-02T09:50:37.865Z</time></trkpt><trkpt lat="40.6342783" lon="15.1322283"><ele>194.33333333333334</ele><time>2026-05-02T09:50:38.864Z</time></trkpt><trkpt lat="40.6342517" lon="15.132145"><ele>193.66666666666666</ele><time>2026-05-02T09:50:39.865Z</time></trkpt><trkpt lat="40.63423" lon="15.132055"><ele>193.0</ele><time>2026-05-02T09:50:40.865Z</time></trkpt><trkpt lat="40.6342083" lon="15.1319633"><ele>192.33333333333331</ele><time>2026-05-02T09:50:41.865Z</time></trkpt><trkpt lat="40.6341733" lon="15.1318667"><ele>191.66666666666666</ele><time>2026-05-02T09:50:42.865Z</time></trkpt><trkpt lat="40.6341383" lon="15.13176"><ele>191.0</ele><time>2026-05-02T09:50:43.864Z</time></trkpt><trkpt lat="40.63411" lon="15.1316467"><ele>190.20000000000002</ele><time>2026-05-02T09:50:44.865Z</time></trkpt><trkpt lat="40.6340767" lon="15.13152"><ele>189.4</ele><time>2026-05-02T09:50:45.864Z</time></trkpt><trkpt lat="40.6340317" lon="15.13139"><ele>188.6</ele><time>2026-05-02T09:50:46.865Z</time></trkpt><trkpt lat="40.6339917" lon="15.131275"><ele>187.8</ele><time>2026-05-02T09:50:47.865Z</time></trkpt><trkpt lat="40.633955" lon="15.1311667"><ele>187.0</ele><time>2026-05-02T09:50:48.864Z</time></trkpt><trkpt lat="40.6339183" lon="15.1310683"><ele>187.0</ele><time>2026-05-02T09:50:49.864Z</time></trkpt><trkpt lat="40.6338817" lon="15.130985"><ele>187.0</ele><time>2026-05-02T09:50:50.865Z</time></trkpt><trkpt lat="40.6338383" lon="15.130915"><ele>187.0</ele><time>2026-05-02T09:50:51.864Z</time></trkpt><trkpt lat="40.6338" lon="15.1308383"><ele>187.0</ele><time>2026-05-02T09:50:52.865Z</time></trkpt><trkpt lat="40.6337767" lon="15.1307467"><ele>187.0</ele><time>2026-05-02T09:50:53.865Z</time></trkpt><trkpt lat="40.6337567" lon="15.130635"><ele>187.0</ele><time>2026-05-02T09:50:54.865Z</time></trkpt><trkpt lat="40.6337333" lon="15.1305283"><ele>186.0</ele><time>2026-05-02T09:50:55.864Z</time></trkpt><trkpt lat="40.6337067" lon="15.1304267"><ele>185.0</ele><time>2026-05-02T09:50:56.864Z</time></trkpt><trkpt lat="40.6336817" lon="15.130335"><ele>184.0</ele><time>2026-05-02T09:50:57.864Z</time></trkpt><trkpt lat="40.63366" lon="15.1302517"><ele>183.0</ele><time>2026-05-02T09:50:58.864Z</time></trkpt><trkpt lat="40.6336233" lon="15.1301233"><ele>182.0</ele><time>2026-05-02T09:51:00.864Z</time></trkpt><trkpt lat="40.6336117" lon="15.1300283"><ele>181.0</ele><time>2026-05-02T09:51:02.865Z</time></trkpt><trkpt lat="40.6336133" lon="15.12989"><ele>180.33333333333334</ele><time>2026-05-02T09:51:04.865Z</time></trkpt><trkpt lat="40.6335983" lon="15.1298083"><ele>179.66666666666669</ele><time>2026-05-02T09:51:05.865Z</time></trkpt><trkpt lat="40.633565" lon="15.129715"><ele>179.0</ele><time>2026-05-02T09:51:06.865Z</time></trkpt><trkpt lat="40.6335233" lon="15.1296233"><ele>178.33333333333334</ele><time>2026-05-02T09:51:07.864Z</time></trkpt><trkpt lat="40.6334867" lon="15.1295317"><ele>177.66666666666666</ele><time>2026-05-02T09:51:08.864Z</time></trkpt><trkpt lat="40.633455" lon="15.1294383"><ele>177.0</ele><time>2026-05-02T09:51:09.865Z</time></trkpt><trkpt lat="40.6334233" lon="15.129345"><ele>177.0</ele><time>2026-05-02T09:51:10.864Z</time></trkpt><trkpt lat="40.6333917" lon="15.129245"><ele>177.0</ele><time>2026-05-02T09:51:11.865Z</time></trkpt><trkpt lat="40.633365" lon="15.1291417"><ele>177.0</ele><time>2026-05-02T09:51:12.864Z</time></trkpt><trkpt lat="40.6333417" lon="15.12904"><ele>177.0</ele><time>2026-05-02T09:51:13.864Z</time></trkpt><trkpt lat="40.6333183" lon="15.1289467"><ele>177.0</ele><time>2026-05-02T09:51:14.865Z</time></trkpt><trkpt lat="40.6332883" lon="15.12886"><ele>177.0</ele><time>2026-05-02T09:51:15.864Z</time></trkpt><trkpt lat="40.6332333" lon="15.128705"><ele>176.0</ele><time>2026-05-02T09:51:17.865Z</time></trkpt><trkpt lat="40.6332267" lon="15.12862"><ele>175.0</ele><time>2026-05-02T09:51:18.865Z</time></trkpt><trkpt lat="40.6332" lon="15.1284683"><ele>174.0</ele><time>2026-05-02T09:51:20.864Z</time></trkpt><trkpt lat="40.633155" lon="15.12833"><ele>173.0</ele><time>2026-05-02T09:51:22.864Z</time></trkpt><trkpt lat="40.63312" lon="15.1282183"><ele>172.0</ele><time>2026-05-02T09:51:24.865Z</time></trkpt><trkpt lat="40.63319" lon="15.1281183"><ele>171.6</ele><time>2026-05-02T09:51:32.864Z</time></trkpt><trkpt lat="40.6333317" lon="15.1280283"><ele>171.2</ele><time>2026-05-02T09:51:34.865Z</time></trkpt><trkpt lat="40.6334267" lon="15.12797"><ele>170.8</ele><time>2026-05-02T09:51:35.864Z</time></trkpt><trkpt lat="40.6335183" lon="15.127925"><ele>170.4</ele><time>2026-05-02T09:51:36.864Z</time></trkpt><trkpt lat="40.633595" lon="15.1278817"><ele>170.0</ele><time>2026-05-02T09:51:37.865Z</time></trkpt><trkpt lat="40.6336617" lon="15.1278333"><ele>170.0</ele><time>2026-05-02T09:51:38.864Z</time></trkpt><trkpt lat="40.6337217" lon="15.1277867"><ele>170.0</ele><time>2026-05-02T09:51:39.864Z</time></trkpt><trkpt lat="40.6337783" lon="15.1277367"><ele>170.0</ele><time>2026-05-02T09:51:40.865Z</time></trkpt><trkpt lat="40.6338333" lon="15.127675"><ele>170.0</ele><time>2026-05-02T09:51:41.864Z</time></trkpt><trkpt lat="40.6339" lon="15.1276"><ele>170.0</ele><time>2026-05-02T09:51:42.864Z</time></trkpt><trkpt lat="40.6339667" lon="15.12751"><ele>170.0</ele><time>2026-05-02T09:51:43.864Z</time></trkpt><trkpt lat="40.6340417" lon="15.1274233"><ele>169.0</ele><time>2026-05-02T09:51:44.864Z</time></trkpt><trkpt lat="40.6341117" lon="15.1273333"><ele>168.0</ele><time>2026-05-02T09:51:45.865Z</time></trkpt><trkpt lat="40.6341767" lon="15.12725"><ele>167.0</ele><time>2026-05-02T09:51:46.865Z</time></trkpt><trkpt lat="40.6342333" lon="15.1271833"><ele>166.0</ele><time>2026-05-02T09:51:47.865Z</time></trkpt><trkpt lat="40.6342933" lon="15.1271267"><ele>165.0</ele><time>2026-05-02T09:51:48.864Z</time></trkpt><trkpt lat="40.63435" lon="15.1270717"><ele>164.0</ele><time>2026-05-02T09:51:49.865Z</time></trkpt><trkpt lat="40.634405" lon="15.12702"><ele>164.0</ele><time>2026-05-02T09:51:50.864Z</time></trkpt><trkpt lat="40.634505" lon="15.1269417"><ele>164.0</ele><time>2026-05-02T09:51:52.865Z</time></trkpt><trkpt lat="40.634555" lon="15.126875"><ele>164.0</ele><time>2026-05-02T09:51:54.864Z</time></trkpt><trkpt lat="40.6345267" lon="15.1267917"><ele>164.0</ele><time>2026-05-02T09:51:58.865Z</time></trkpt><trkpt lat="40.6344433" lon="15.1267817"><ele>164.0</ele><time>2026-05-02T09:52:00.864Z</time></trkpt><trkpt lat="40.63431" lon="15.1267917"><ele>164.0</ele><time>2026-05-02T09:52:02.864Z</time></trkpt><trkpt lat="40.634235" lon="15.12678"><ele>164.0</ele><time>2026-05-02T09:52:03.865Z</time></trkpt><trkpt lat="40.6341517" lon="15.12676"><ele>164.0</ele><time>2026-05-02T09:52:04.865Z</time></trkpt><trkpt lat="40.6340617" lon="15.1267333"><ele>164.0</ele><time>2026-05-02T09:52:05.865Z</time></trkpt><trkpt lat="40.63397" lon="15.1267033"><ele>164.0</ele><time>2026-05-02T09:52:06.865Z</time></trkpt><trkpt lat="40.6338817" lon="15.1266733"><ele>164.0</ele><time>2026-05-02T09:52:07.864Z</time></trkpt><trkpt lat="40.6337817" lon="15.1266483"><ele>164.0</ele><time>2026-05-02T09:52:08.864Z</time></trkpt><trkpt lat="40.6336867" lon="15.1266333"><ele>164.0</ele><time>2026-05-02T09:52:09.864Z</time></trkpt><trkpt lat="40.6335817" lon="15.1266283"><ele>164.0</ele><time>2026-05-02T09:52:10.864Z</time></trkpt><trkpt lat="40.6334767" lon="15.1266317"><ele>164.0</ele><time>2026-05-02T09:52:11.864Z</time></trkpt><trkpt lat="40.6333667" lon="15.1266383"><ele>164.0</ele><time>2026-05-02T09:52:12.865Z</time></trkpt><trkpt lat="40.6332617" lon="15.1266533"><ele>163.39999999999998</ele><time>2026-05-02T09:52:13.864Z</time></trkpt><trkpt lat="40.633165" lon="15.1266783"><ele>162.8</ele><time>2026-05-02T09:52:14.865Z</time></trkpt><trkpt lat="40.633065" lon="15.1267033"><ele>162.2</ele><time>2026-05-02T09:52:15.865Z</time></trkpt><trkpt lat="40.6329633" lon="15.1267267"><ele>161.60000000000002</ele><time>2026-05-02T09:52:16.865Z</time></trkpt><trkpt lat="40.6328683" lon="15.1267333"><ele>161.0</ele><time>2026-05-02T09:52:17.865Z</time></trkpt><trkpt lat="40.63277" lon="15.1267483"><ele>160.60000000000002</ele><time>2026-05-02T09:52:18.864Z</time></trkpt><trkpt lat="40.63267" lon="15.1267633"><ele>160.20000000000002</ele><time>2026-05-02T09:52:19.865Z</time></trkpt><trkpt lat="40.6325733" lon="15.12678"><ele>159.8</ele><time>2026-05-02T09:52:20.865Z</time></trkpt><trkpt lat="40.632475" lon="15.1267933"><ele>159.4</ele><time>2026-05-02T09:52:21.864Z</time></trkpt><trkpt lat="40.6323767" lon="15.1268033"><ele>159.0</ele><time>2026-05-02T09:52:22.864Z</time></trkpt><trkpt lat="40.632275" lon="15.1268117"><ele>159.0</ele><time>2026-05-02T09:52:23.865Z</time></trkpt><trkpt lat="40.6321733" lon="15.12682"><ele>159.0</ele><time>2026-05-02T09:52:24.865Z</time></trkpt><trkpt lat="40.6320767" lon="15.1268267"><ele>159.0</ele><time>2026-05-02T09:52:25.864Z</time></trkpt><trkpt lat="40.631985" lon="15.126835"><ele>159.0</ele><time>2026-05-02T09:52:26.863Z</time></trkpt><trkpt lat="40.6318817" lon="15.1268433"><ele>159.0</ele><time>2026-05-02T09:52:27.863Z</time></trkpt><trkpt lat="40.6317817" lon="15.1268383"><ele>158.2</ele><time>2026-05-02T09:52:28.863Z</time></trkpt><trkpt lat="40.6316767" lon="15.1268367"><ele>157.4</ele><time>2026-05-02T09:52:29.864Z</time></trkpt><trkpt lat="40.6315817" lon="15.1268317"><ele>156.6</ele><time>2026-05-02T09:52:30.864Z</time></trkpt><trkpt lat="40.6314883" lon="15.126825"><ele>155.8</ele><time>2026-05-02T09:52:31.863Z</time></trkpt><trkpt lat="40.6313967" lon="15.12682"><ele>155.0</ele><time>2026-05-02T09:52:32.864Z</time></trkpt><trkpt lat="40.63131" lon="15.126815"><ele>155.0</ele><time>2026-05-02T09:52:33.863Z</time></trkpt><trkpt lat="40.6312183" lon="15.1267917"><ele>155.0</ele><time>2026-05-02T09:52:34.864Z</time></trkpt><trkpt lat="40.6311283" lon="15.1267767"><ele>155.0</ele><time>2026-05-02T09:52:35.863Z</time></trkpt><trkpt lat="40.63104" lon="15.1267683"><ele>155.0</ele><time>2026-05-02T09:52:36.863Z</time></trkpt><trkpt lat="40.6309583" lon="15.12676"><ele>155.0</ele><time>2026-05-02T09:52:37.864Z</time></trkpt><trkpt lat="40.6308767" lon="15.1267583"><ele>155.0</ele><time>2026-05-02T09:52:38.864Z</time></trkpt><trkpt lat="40.6307967" lon="15.12676"><ele>155.0</ele><time>2026-05-02T09:52:39.863Z</time></trkpt><trkpt lat="40.6307217" lon="15.1267533"><ele>155.0</ele><time>2026-05-02T09:52:40.863Z</time></trkpt><trkpt lat="40.6306467" lon="15.126745"><ele>155.0</ele><time>2026-05-02T09:52:41.863Z</time></trkpt><trkpt lat="40.6305683" lon="15.1267317"><ele>155.0</ele><time>2026-05-02T09:52:42.863Z</time></trkpt><trkpt lat="40.6304933" lon="15.1267117"><ele>155.0</ele><time>2026-05-02T09:52:43.864Z</time></trkpt><trkpt lat="40.63042" lon="15.1266933"><ele>155.0</ele><time>2026-05-02T09:52:44.864Z</time></trkpt><trkpt lat="40.6303483" lon="15.1266783"><ele>154.71428571428572</ele><time>2026-05-02T09:52:45.864Z</time></trkpt><trkpt lat="40.63028" lon="15.126665"><ele>154.42857142857142</ele><time>2026-05-02T09:52:46.863Z</time></trkpt><trkpt lat="40.6302067" lon="15.126655"><ele>154.14285714285714</ele><time>2026-05-02T09:52:47.864Z</time></trkpt><trkpt lat="40.6301383" lon="15.12665"><ele>153.85714285714286</ele><time>2026-05-02T09:52:48.864Z</time></trkpt><trkpt lat="40.63007" lon="15.1266383"><ele>153.57142857142858</ele><time>2026-05-02T09:52:49.863Z</time></trkpt><trkpt lat="40.630005" lon="15.1266433"><ele>153.28571428571428</ele><time>2026-05-02T09:52:50.864Z</time></trkpt><trkpt lat="40.6299333" lon="15.1266483"><ele>153.0</ele><time>2026-05-02T09:52:51.863Z</time></trkpt><trkpt lat="40.629865" lon="15.1266533"><ele>153.0</ele><time>2026-05-02T09:52:52.864Z</time></trkpt><trkpt lat="40.6297967" lon="15.1266467"><ele>153.0</ele><time>2026-05-02T09:52:53.863Z</time></trkpt><trkpt lat="40.6297283" lon="15.1266333"><ele>153.0</ele><time>2026-05-02T09:52:54.863Z</time></trkpt><trkpt lat="40.62966" lon="15.126615"><ele>153.0</ele><time>2026-05-02T09:52:55.863Z</time></trkpt><trkpt lat="40.6295933" lon="15.126605"><ele>153.0</ele><time>2026-05-02T09:52:56.864Z</time></trkpt><trkpt lat="40.6295283" lon="15.1265917"><ele>153.0</ele><time>2026-05-02T09:52:57.864Z</time></trkpt><trkpt lat="40.62946" lon="15.12658"><ele>153.0</ele><time>2026-05-02T09:52:58.863Z</time></trkpt><trkpt lat="40.629395" lon="15.12656"><ele>151.33333333333334</ele><time>2026-05-02T09:52:59.863Z</time></trkpt><trkpt lat="40.6293317" lon="15.1265383"><ele>149.66666666666666</ele><time>2026-05-02T09:53:00.863Z</time></trkpt><trkpt lat="40.6292117" lon="15.1265017"><ele>148.0</ele><time>2026-05-02T09:53:02.864Z</time></trkpt><trkpt lat="40.62915" lon="15.126485"><ele>146.33333333333331</ele><time>2026-05-02T09:53:03.864Z</time></trkpt><trkpt lat="40.6290867" lon="15.1264717"><ele>144.66666666666666</ele><time>2026-05-02T09:53:04.863Z</time></trkpt><trkpt lat="40.6290117" lon="15.1264533"><ele>143.0</ele><time>2026-05-02T09:53:05.863Z</time></trkpt><trkpt lat="40.628935" lon="15.1264317"><ele>143.0</ele><time>2026-05-02T09:53:06.863Z</time></trkpt><trkpt lat="40.6288583" lon="15.12641"><ele>143.0</ele><time>2026-05-02T09:53:07.863Z</time></trkpt><trkpt lat="40.628785" lon="15.12639"><ele>143.0</ele><time>2026-05-02T09:53:08.864Z</time></trkpt><trkpt lat="40.628705" lon="15.1263617"><ele>143.0</ele><time>2026-05-02T09:53:09.863Z</time></trkpt><trkpt lat="40.6286267" lon="15.1263367"><ele>143.0</ele><time>2026-05-02T09:53:10.864Z</time></trkpt><trkpt lat="40.6285433" lon="15.1263233"><ele>143.0</ele><time>2026-05-02T09:53:11.864Z</time></trkpt><trkpt lat="40.6284617" lon="15.12632"><ele>143.16666666666666</ele><time>2026-05-02T09:53:12.864Z</time></trkpt><trkpt lat="40.62838" lon="15.126335"><ele>143.33333333333331</ele><time>2026-05-02T09:53:13.864Z</time></trkpt><trkpt lat="40.6282933" lon="15.1263683"><ele>143.5</ele><time>2026-05-02T09:53:14.863Z</time></trkpt><trkpt lat="40.62821" lon="15.1264117"><ele>143.66666666666666</ele><time>2026-05-02T09:53:15.863Z</time></trkpt><trkpt lat="40.62813" lon="15.1264633"><ele>143.83333333333334</ele><time>2026-05-02T09:53:16.863Z</time></trkpt><trkpt lat="40.628045" lon="15.1265067"><ele>144.0</ele><time>2026-05-02T09:53:17.864Z</time></trkpt><trkpt lat="40.62796" lon="15.1265517"><ele>144.6</ele><time>2026-05-02T09:53:18.864Z</time></trkpt><trkpt lat="40.6278733" lon="15.1266033"><ele>145.2</ele><time>2026-05-02T09:53:19.864Z</time></trkpt><trkpt lat="40.6277933" lon="15.1266633"><ele>145.79999999999998</ele><time>2026-05-02T09:53:20.863Z</time></trkpt><trkpt lat="40.6277117" lon="15.1267233"><ele>146.4</ele><time>2026-05-02T09:53:21.863Z</time></trkpt><trkpt lat="40.627635" lon="15.12679"><ele>147.0</ele><time>2026-05-02T09:53:22.864Z</time></trkpt><trkpt lat="40.6275583" lon="15.1268517"><ele>147.0</ele><time>2026-05-02T09:53:23.864Z</time></trkpt><trkpt lat="40.6274867" lon="15.126915"><ele>147.0</ele><time>2026-05-02T09:53:24.863Z</time></trkpt><trkpt lat="40.62742" lon="15.1269783"><ele>147.0</ele><time>2026-05-02T09:53:25.863Z</time></trkpt><trkpt lat="40.6273617" lon="15.12704"><ele>147.0</ele><time>2026-05-02T09:53:26.863Z</time></trkpt><trkpt lat="40.6273067" lon="15.1270983"><ele>147.0</ele><time>2026-05-02T09:53:27.863Z</time></trkpt><trkpt lat="40.6272567" lon="15.1271633"><ele>147.0</ele><time>2026-05-02T09:53:28.864Z</time></trkpt><trkpt lat="40.6272117" lon="15.1272267"><ele>147.0</ele><time>2026-05-02T09:53:29.864Z</time></trkpt><trkpt lat="40.627165" lon="15.1272917"><ele>147.0</ele><time>2026-05-02T09:53:30.864Z</time></trkpt><trkpt lat="40.6271167" lon="15.1273533"><ele>147.0</ele><time>2026-05-02T09:53:31.864Z</time></trkpt><trkpt lat="40.6270633" lon="15.127415"><ele>147.0</ele><time>2026-05-02T09:53:32.864Z</time></trkpt><trkpt lat="40.6270083" lon="15.1274617"><ele>147.0</ele><time>2026-05-02T09:53:33.864Z</time></trkpt><trkpt lat="40.626895" lon="15.1275317"><ele>147.0</ele><time>2026-05-02T09:53:35.864Z</time></trkpt><trkpt lat="40.6268283" lon="15.1275567"><ele>146.71428571428572</ele><time>2026-05-02T09:53:36.864Z</time></trkpt><trkpt lat="40.6267517" lon="15.1275767"><ele>146.42857142857144</ele><time>2026-05-02T09:53:37.863Z</time></trkpt><trkpt lat="40.6266767" lon="15.12759"><ele>146.14285714285714</ele><time>2026-05-02T09:53:38.864Z</time></trkpt><trkpt lat="40.6266083" lon="15.127595"><ele>145.85714285714286</ele><time>2026-05-02T09:53:39.863Z</time></trkpt><trkpt lat="40.62654" lon="15.1276017"><ele>145.57142857142858</ele><time>2026-05-02T09:53:40.863Z</time></trkpt><trkpt lat="40.62647" lon="15.1276033"><ele>145.28571428571428</ele><time>2026-05-02T09:53:41.864Z</time></trkpt><trkpt lat="40.6263983" lon="15.127605"><ele>145.0</ele><time>2026-05-02T09:53:42.863Z</time></trkpt><trkpt lat="40.626325" lon="15.1276083"><ele>145.0</ele><time>2026-05-02T09:53:43.863Z</time></trkpt><trkpt lat="40.626255" lon="15.1276167"><ele>145.0</ele><time>2026-05-02T09:53:44.863Z</time></trkpt><trkpt lat="40.6261867" lon="15.1276283"><ele>145.0</ele><time>2026-05-02T09:53:45.864Z</time></trkpt><trkpt lat="40.6261217" lon="15.1276417"><ele>145.0</ele><time>2026-05-02T09:53:46.863Z</time></trkpt><trkpt lat="40.6260017" lon="15.12768"><ele>145.0</ele><time>2026-05-02T09:53:48.864Z</time></trkpt><trkpt lat="40.62594" lon="15.1276983"><ele>145.0</ele><time>2026-05-02T09:53:49.864Z</time></trkpt><trkpt lat="40.62582" lon="15.127735"><ele>144.16666666666669</ele><time>2026-05-02T09:53:51.863Z</time></trkpt><trkpt lat="40.6256967" lon="15.1277883"><ele>143.33333333333334</ele><time>2026-05-02T09:53:53.863Z</time></trkpt><trkpt lat="40.6256333" lon="15.1278183"><ele>142.5</ele><time>2026-05-02T09:53:54.864Z</time></trkpt><trkpt lat="40.62557" lon="15.12785"><ele>141.66666666666666</ele><time>2026-05-02T09:53:55.863Z</time></trkpt><trkpt lat="40.6255067" lon="15.1278883"><ele>140.83333333333331</ele><time>2026-05-02T09:53:56.863Z</time></trkpt><trkpt lat="40.6254383" lon="15.1279233"><ele>140.0</ele><time>2026-05-02T09:53:57.864Z</time></trkpt><trkpt lat="40.625375" lon="15.1279633"><ele>139.66666666666666</ele><time>2026-05-02T09:53:58.863Z</time></trkpt><trkpt lat="40.6253083" lon="15.1280017"><ele>139.33333333333331</ele><time>2026-05-02T09:53:59.863Z</time></trkpt><trkpt lat="40.6252383" lon="15.1280367"><ele>139.0</ele><time>2026-05-02T09:54:00.864Z</time></trkpt><trkpt lat="40.625165" lon="15.1280667"><ele>138.66666666666666</ele><time>2026-05-02T09:54:01.864Z</time></trkpt><trkpt lat="40.6250883" lon="15.1280817"><ele>138.33333333333334</ele><time>2026-05-02T09:54:02.863Z</time></trkpt><trkpt lat="40.6250083" lon="15.1280867"><ele>138.0</ele><time>2026-05-02T09:54:03.863Z</time></trkpt><trkpt lat="40.6249283" lon="15.1280883"><ele>138.0</ele><time>2026-05-02T09:54:04.864Z</time></trkpt><trkpt lat="40.6248417" lon="15.1280933"><ele>138.0</ele><time>2026-05-02T09:54:05.864Z</time></trkpt><trkpt lat="40.6247533" lon="15.1280967"><ele>138.0</ele><time>2026-05-02T09:54:06.863Z</time></trkpt><trkpt lat="40.6246717" lon="15.1281"><ele>138.0</ele><time>2026-05-02T09:54:07.864Z</time></trkpt><trkpt lat="40.6245917" lon="15.1280933"><ele>138.0</ele><time>2026-05-02T09:54:08.863Z</time></trkpt><trkpt lat="40.6245167" lon="15.1280917"><ele>138.0</ele><time>2026-05-02T09:54:09.864Z</time></trkpt><trkpt lat="40.6244433" lon="15.1280933"><ele>137.85714285714286</ele><time>2026-05-02T09:54:10.864Z</time></trkpt><trkpt lat="40.6243733" lon="15.1280967"><ele>137.71428571428572</ele><time>2026-05-02T09:54:11.863Z</time></trkpt><trkpt lat="40.624305" lon="15.1281083"><ele>137.57142857142858</ele><time>2026-05-02T09:54:12.864Z</time></trkpt><trkpt lat="40.6242367" lon="15.1281317"><ele>137.42857142857144</ele><time>2026-05-02T09:54:13.864Z</time></trkpt><trkpt lat="40.6241733" lon="15.12816"><ele>137.28571428571428</ele><time>2026-05-02T09:54:14.864Z</time></trkpt><trkpt lat="40.62411" lon="15.1282067"><ele>137.14285714285717</ele><time>2026-05-02T09:54:15.864Z</time></trkpt><trkpt lat="40.62405" lon="15.12826"><ele>137.0</ele><time>2026-05-02T09:54:16.864Z</time></trkpt><trkpt lat="40.6239867" lon="15.1283117"><ele>137.0</ele><time>2026-05-02T09:54:17.863Z</time></trkpt><trkpt lat="40.62392" lon="15.1283583"><ele>137.0</ele><time>2026-05-02T09:54:18.864Z</time></trkpt><trkpt lat="40.62385" lon="15.12839"><ele>137.0</ele><time>2026-05-02T09:54:19.864Z</time></trkpt><trkpt lat="40.6237717" lon="15.1284183"><ele>137.0</ele><time>2026-05-02T09:54:20.864Z</time></trkpt><trkpt lat="40.6236867" lon="15.1284433"><ele>137.0</ele><time>2026-05-02T09:54:21.864Z</time></trkpt><trkpt lat="40.6236" lon="15.1284617"><ele>137.0</ele><time>2026-05-02T09:54:22.864Z</time></trkpt><trkpt lat="40.6235167" lon="15.128475"><ele>136.33333333333331</ele><time>2026-05-02T09:54:23.863Z</time></trkpt><trkpt lat="40.6234367" lon="15.1284883"><ele>135.66666666666666</ele><time>2026-05-02T09:54:24.864Z</time></trkpt><trkpt lat="40.6233633" lon="15.1284967"><ele>135.0</ele><time>2026-05-02T09:54:25.863Z</time></trkpt><trkpt lat="40.6232967" lon="15.1285067"><ele>134.33333333333334</ele><time>2026-05-02T09:54:26.864Z</time></trkpt><trkpt lat="40.6231983" lon="15.1285183"><ele>133.66666666666669</ele><time>2026-05-02T09:54:28.864Z</time></trkpt><trkpt lat="40.623085" lon="15.1285283"><ele>133.0</ele><time>2026-05-02T09:54:30.863Z</time></trkpt><trkpt lat="40.62298" lon="15.12856"><ele>133.0</ele><time>2026-05-02T09:54:32.863Z</time></trkpt><trkpt lat="40.62287" lon="15.12864"><ele>133.0</ele><time>2026-05-02T09:54:34.863Z</time></trkpt><trkpt lat="40.622805" lon="15.1286883"><ele>133.0</ele><time>2026-05-02T09:54:35.864Z</time></trkpt><trkpt lat="40.6227317" lon="15.1287467"><ele>133.0</ele><time>2026-05-02T09:54:36.864Z</time></trkpt><trkpt lat="40.622665" lon="15.12883"><ele>133.0</ele><time>2026-05-02T09:54:37.864Z</time></trkpt><trkpt lat="40.6225983" lon="15.1289233"><ele>133.16666666666669</ele><time>2026-05-02T09:54:38.863Z</time></trkpt><trkpt lat="40.6225433" lon="15.1290133"><ele>133.33333333333334</ele><time>2026-05-02T09:54:39.863Z</time></trkpt><trkpt lat="40.6224917" lon="15.1291017"><ele>133.5</ele><time>2026-05-02T09:54:40.863Z</time></trkpt><trkpt lat="40.62244" lon="15.12919"><ele>133.66666666666666</ele><time>2026-05-02T09:54:41.863Z</time></trkpt><trkpt lat="40.6223867" lon="15.1292667"><ele>133.83333333333331</ele><time>2026-05-02T09:54:42.864Z</time></trkpt><trkpt lat="40.622325" lon="15.12934"><ele>134.0</ele><time>2026-05-02T09:54:43.864Z</time></trkpt><trkpt lat="40.6222583" lon="15.1294117"><ele>134.0</ele><time>2026-05-02T09:54:44.863Z</time></trkpt><trkpt lat="40.6221867" lon="15.1294683"><ele>134.0</ele><time>2026-05-02T09:54:45.863Z</time></trkpt><trkpt lat="40.6221067" lon="15.1295233"><ele>134.0</ele><time>2026-05-02T09:54:46.864Z</time></trkpt><trkpt lat="40.622015" lon="15.1295767"><ele>134.0</ele><time>2026-05-02T09:54:47.863Z</time></trkpt><trkpt lat="40.6219167" lon="15.1296267"><ele>134.0</ele><time>2026-05-02T09:54:48.864Z</time></trkpt><trkpt lat="40.6218183" lon="15.129675"><ele>133.2</ele><time>2026-05-02T09:54:49.863Z</time></trkpt><trkpt lat="40.6217233" lon="15.12971"><ele>132.4</ele><time>2026-05-02T09:54:50.864Z</time></trkpt><trkpt lat="40.621625" lon="15.12974"><ele>131.6</ele><time>2026-05-02T09:54:51.863Z</time></trkpt><trkpt lat="40.6215317" lon="15.1297733"><ele>130.8</ele><time>2026-05-02T09:54:52.863Z</time></trkpt><trkpt lat="40.6214383" lon="15.1298167"><ele>130.0</ele><time>2026-05-02T09:54:53.864Z</time></trkpt><trkpt lat="40.621345" lon="15.129865"><ele>130.0</ele><time>2026-05-02T09:54:54.863Z</time></trkpt><trkpt lat="40.6212533" lon="15.1299283"><ele>130.0</ele><time>2026-05-02T09:54:55.864Z</time></trkpt><trkpt lat="40.6211683" lon="15.129995"><ele>130.0</ele><time>2026-05-02T09:54:56.864Z</time></trkpt><trkpt lat="40.621085" lon="15.1300633"><ele>130.0</ele><time>2026-05-02T09:54:57.864Z</time></trkpt><trkpt lat="40.6210083" lon="15.1301267"><ele>130.0</ele><time>2026-05-02T09:54:58.864Z</time></trkpt><trkpt lat="40.62093" lon="15.1302133"><ele>130.0</ele><time>2026-05-02T09:54:59.864Z</time></trkpt><trkpt lat="40.6208467" lon="15.130315"><ele>130.0</ele><time>2026-05-02T09:55:00.864Z</time></trkpt><trkpt lat="40.620765" lon="15.1304083"><ele>130.0</ele><time>2026-05-02T09:55:01.863Z</time></trkpt><trkpt lat="40.620695" lon="15.1304967"><ele>130.0</ele><time>2026-05-02T09:55:02.864Z</time></trkpt><trkpt lat="40.620625" lon="15.130585"><ele>130.0</ele><time>2026-05-02T09:55:03.864Z</time></trkpt><trkpt lat="40.62056" lon="15.1306717"><ele>129.6</ele><time>2026-05-02T09:55:04.864Z</time></trkpt><trkpt lat="40.6204967" lon="15.1307633"><ele>129.2</ele><time>2026-05-02T09:55:05.863Z</time></trkpt><trkpt lat="40.6204283" lon="15.1308667"><ele>128.8</ele><time>2026-05-02T09:55:06.863Z</time></trkpt><trkpt lat="40.6203633" lon="15.13096"><ele>128.4</ele><time>2026-05-02T09:55:07.864Z</time></trkpt><trkpt lat="40.62029" lon="15.1310433"><ele>128.0</ele><time>2026-05-02T09:55:08.863Z</time></trkpt><trkpt lat="40.620195" lon="15.1311317"><ele>128.0</ele><time>2026-05-02T09:55:09.864Z</time></trkpt><trkpt lat="40.6201017" lon="15.1312067"><ele>128.0</ele><time>2026-05-02T09:55:10.863Z</time></trkpt><trkpt lat="40.6200217" lon="15.131275"><ele>128.0</ele><time>2026-05-02T09:55:11.863Z</time></trkpt><trkpt lat="40.6199467" lon="15.1313433"><ele>128.0</ele><time>2026-05-02T09:55:12.864Z</time></trkpt><trkpt lat="40.61988" lon="15.13141"><ele>128.0</ele><time>2026-05-02T09:55:13.864Z</time></trkpt><trkpt lat="40.6198267" lon="15.1314833"><ele>127.99999999999999</ele><time>2026-05-02T09:55:14.864Z</time></trkpt><trkpt lat="40.619775" lon="15.1315433"><ele>128.0</ele><time>2026-05-02T09:55:15.863Z</time></trkpt><trkpt lat="40.6197267" lon="15.1315967"><ele>128.0</ele><time>2026-05-02T09:55:16.863Z</time></trkpt><trkpt lat="40.6196333" lon="15.1317183"><ele>128.0</ele><time>2026-05-02T09:55:18.863Z</time></trkpt><trkpt lat="40.619595" lon="15.13179"><ele>127.99999999999999</ele><time>2026-05-02T09:55:19.863Z</time></trkpt><trkpt lat="40.6195583" lon="15.1318683"><ele>128.0</ele><time>2026-05-02T09:55:20.863Z</time></trkpt><trkpt lat="40.61952" lon="15.131955"><ele>128.0</ele><time>2026-05-02T09:55:21.863Z</time></trkpt><trkpt lat="40.6194817" lon="15.13205"><ele>128.0</ele><time>2026-05-02T09:55:22.863Z</time></trkpt><trkpt lat="40.61944" lon="15.1321583"><ele>128.0</ele><time>2026-05-02T09:55:23.863Z</time></trkpt><trkpt lat="40.6194033" lon="15.1322783"><ele>128.0</ele><time>2026-05-02T09:55:24.864Z</time></trkpt><trkpt lat="40.6193683" lon="15.1324217"><ele>128.0</ele><time>2026-05-02T09:55:25.863Z</time></trkpt><trkpt lat="40.6193317" lon="15.13257"><ele>128.0</ele><time>2026-05-02T09:55:26.864Z</time></trkpt><trkpt lat="40.6192967" lon="15.1327083"><ele>128.0</ele><time>2026-05-02T09:55:27.863Z</time></trkpt><trkpt lat="40.6192617" lon="15.132835"><ele>128.0</ele><time>2026-05-02T09:55:28.863Z</time></trkpt><trkpt lat="40.619235" lon="15.1329467"><ele>128.0</ele><time>2026-05-02T09:55:29.864Z</time></trkpt><trkpt lat="40.619205" lon="15.133045"><ele>128.0</ele><time>2026-05-02T09:55:30.864Z</time></trkpt><trkpt lat="40.61918" lon="15.1331417"><ele>128.4</ele><time>2026-05-02T09:55:31.863Z</time></trkpt><trkpt lat="40.619155" lon="15.1332433"><ele>128.8</ele><time>2026-05-02T09:55:32.864Z</time></trkpt><trkpt lat="40.6191367" lon="15.1333633"><ele>129.2</ele><time>2026-05-02T09:55:33.864Z</time></trkpt><trkpt lat="40.619115" lon="15.1335"><ele>129.6</ele><time>2026-05-02T09:55:34.864Z</time></trkpt><trkpt lat="40.6190917" lon="15.1336217"><ele>130.0</ele><time>2026-05-02T09:55:35.864Z</time></trkpt><trkpt lat="40.6190783" lon="15.1337333"><ele>130.00000000000003</ele><time>2026-05-02T09:55:36.864Z</time></trkpt><trkpt lat="40.6190683" lon="15.133835"><ele>130.0</ele><time>2026-05-02T09:55:37.864Z</time></trkpt><trkpt lat="40.6190583" lon="15.1339267"><ele>130.0</ele><time>2026-05-02T09:55:38.864Z</time></trkpt><trkpt lat="40.6190417" lon="15.13401"><ele>130.0</ele><time>2026-05-02T09:55:39.864Z</time></trkpt><trkpt lat="40.61902" lon="15.134095"><ele>130.0</ele><time>2026-05-02T09:55:40.863Z</time></trkpt><trkpt lat="40.6189967" lon="15.1341883"><ele>130.00000000000003</ele><time>2026-05-02T09:55:41.863Z</time></trkpt><trkpt lat="40.618975" lon="15.13429"><ele>130.0</ele><time>2026-05-02T09:55:42.863Z</time></trkpt><trkpt lat="40.6189583" lon="15.1343933"><ele>130.16666666666669</ele><time>2026-05-02T09:55:43.863Z</time></trkpt><trkpt lat="40.61894" lon="15.1344933"><ele>130.33333333333334</ele><time>2026-05-02T09:55:44.863Z</time></trkpt><trkpt lat="40.618925" lon="15.134575"><ele>130.5</ele><time>2026-05-02T09:55:45.863Z</time></trkpt><trkpt lat="40.6189433" lon="15.1347283"><ele>130.66666666666666</ele><time>2026-05-02T09:55:47.863Z</time></trkpt><trkpt lat="40.6189667" lon="15.134815"><ele>130.83333333333331</ele><time>2026-05-02T09:55:48.863Z</time></trkpt><trkpt lat="40.6189783" lon="15.1349"><ele>131.0</ele><time>2026-05-02T09:55:49.863Z</time></trkpt><trkpt lat="40.6189583" lon="15.1350533"><ele>131.2</ele><time>2026-05-02T09:55:51.863Z</time></trkpt><trkpt lat="40.6188783" lon="15.1352067"><ele>131.39999999999998</ele><time>2026-05-02T09:55:53.864Z</time></trkpt><trkpt lat="40.6188183" lon="15.135305"><ele>131.6</ele><time>2026-05-02T09:55:54.864Z</time></trkpt><trkpt lat="40.6187633" lon="15.1354017"><ele>131.79999999999998</ele><time>2026-05-02T09:55:55.864Z</time></trkpt><trkpt lat="40.61872" lon="15.1354867"><ele>132.0</ele><time>2026-05-02T09:55:56.863Z</time></trkpt><trkpt lat="40.61868" lon="15.1355767"><ele>132.0</ele><time>2026-05-02T09:55:57.864Z</time></trkpt><trkpt lat="40.6186567" lon="15.1356867"><ele>132.0</ele><time>2026-05-02T09:55:58.863Z</time></trkpt><trkpt lat="40.6186467" lon="15.1358033"><ele>132.0</ele><time>2026-05-02T09:55:59.864Z</time></trkpt><trkpt lat="40.6186367" lon="15.13593"><ele>132.0</ele><time>2026-05-02T09:56:00.864Z</time></trkpt><trkpt lat="40.6186467" lon="15.1360583"><ele>132.0</ele><time>2026-05-02T09:56:01.864Z</time></trkpt><trkpt lat="40.618665" lon="15.1361917"><ele>132.2</ele><time>2026-05-02T09:56:02.864Z</time></trkpt><trkpt lat="40.61869" lon="15.1363217"><ele>132.39999999999998</ele><time>2026-05-02T09:56:03.863Z</time></trkpt><trkpt lat="40.61872" lon="15.1364567"><ele>132.60000000000002</ele><time>2026-05-02T09:56:04.864Z</time></trkpt><trkpt lat="40.6187633" lon="15.136605"><ele>132.8</ele><time>2026-05-02T09:56:05.863Z</time></trkpt><trkpt lat="40.618805" lon="15.1367417"><ele>133.0</ele><time>2026-05-02T09:56:06.864Z</time></trkpt><trkpt lat="40.618845" lon="15.136865"><ele>133.0</ele><time>2026-05-02T09:56:07.863Z</time></trkpt><trkpt lat="40.618885" lon="15.1369633"><ele>133.0</ele><time>2026-05-02T09:56:08.863Z</time></trkpt><trkpt lat="40.618925" lon="15.1370417"><ele>133.0</ele><time>2026-05-02T09:56:09.864Z</time></trkpt><trkpt lat="40.6189617" lon="15.1371117"><ele>133.0</ele><time>2026-05-02T09:56:10.864Z</time></trkpt><trkpt lat="40.619025" lon="15.137245"><ele>133.0</ele><time>2026-05-02T09:56:12.864Z</time></trkpt><trkpt lat="40.619095" lon="15.1373617"><ele>132.83333333333334</ele><time>2026-05-02T09:56:14.863Z</time></trkpt><trkpt lat="40.619155" lon="15.13746"><ele>132.66666666666669</ele><time>2026-05-02T09:56:16.864Z</time></trkpt><trkpt lat="40.6191917" lon="15.1375283"><ele>132.5</ele><time>2026-05-02T09:56:18.863Z</time></trkpt><trkpt lat="40.6191367" lon="15.1375883"><ele>132.33333333333334</ele><time>2026-05-02T09:56:34.864Z</time></trkpt><trkpt lat="40.619005" lon="15.1376017"><ele>132.16666666666666</ele><time>2026-05-02T09:56:36.864Z</time></trkpt><trkpt lat="40.6189217" lon="15.1376117"><ele>132.0</ele><time>2026-05-02T09:56:37.864Z</time></trkpt><trkpt lat="40.6188433" lon="15.137625"><ele>132.0</ele><time>2026-05-02T09:56:38.863Z</time></trkpt><trkpt lat="40.6187717" lon="15.1376383"><ele>132.0</ele><time>2026-05-02T09:56:39.864Z</time></trkpt><trkpt lat="40.618705" lon="15.1376567"><ele>132.0</ele><time>2026-05-02T09:56:40.864Z</time></trkpt><trkpt lat="40.618585" lon="15.1376667"><ele>132.0</ele><time>2026-05-02T09:56:42.864Z</time></trkpt><trkpt lat="40.618475" lon="15.1376783"><ele>132.0</ele><time>2026-05-02T09:56:44.864Z</time></trkpt><trkpt lat="40.6183833" lon="15.1377217"><ele>131.4</ele><time>2026-05-02T09:56:46.863Z</time></trkpt><trkpt lat="40.6182783" lon="15.1377583"><ele>130.79999999999998</ele><time>2026-05-02T09:56:48.864Z</time></trkpt><trkpt lat="40.6181483" lon="15.1377967"><ele>130.2</ele><time>2026-05-02T09:56:50.864Z</time></trkpt><trkpt lat="40.61808" lon="15.13782"><ele>129.6</ele><time>2026-05-02T09:56:51.863Z</time></trkpt><trkpt lat="40.6180083" lon="15.1378367"><ele>129.0</ele><time>2026-05-02T09:56:52.864Z</time></trkpt><trkpt lat="40.6179333" lon="15.1378617"><ele>129.0</ele><time>2026-05-02T09:56:53.864Z</time></trkpt><trkpt lat="40.6178633" lon="15.137895"><ele>129.0</ele><time>2026-05-02T09:56:54.864Z</time></trkpt><trkpt lat="40.6177967" lon="15.1379283"><ele>129.0</ele><time>2026-05-02T09:56:55.863Z</time></trkpt><trkpt lat="40.6176883" lon="15.1379817"><ele>129.0</ele><time>2026-05-02T09:56:57.864Z</time></trkpt><trkpt lat="40.6175933" lon="15.1380283"><ele>129.0</ele><time>2026-05-02T09:56:59.864Z</time></trkpt><trkpt lat="40.6174933" lon="15.1380867"><ele>128.33333333333334</ele><time>2026-05-02T09:57:01.863Z</time></trkpt><trkpt lat="40.617365" lon="15.1381317"><ele>127.66666666666666</ele><time>2026-05-02T09:57:03.864Z</time></trkpt><trkpt lat="40.617295" lon="15.1381483"><ele>127.0</ele><time>2026-05-02T09:57:04.864Z</time></trkpt><trkpt lat="40.6172283" lon="15.138165"><ele>126.33333333333333</ele><time>2026-05-02T09:57:05.864Z</time></trkpt><trkpt lat="40.6171583" lon="15.1381833"><ele>125.66666666666666</ele><time>2026-05-02T09:57:06.864Z</time></trkpt><trkpt lat="40.61708" lon="15.13821"><ele>125.0</ele><time>2026-05-02T09:57:07.863Z</time></trkpt><trkpt lat="40.6169967" lon="15.1382367"><ele>124.42857142857142</ele><time>2026-05-02T09:57:08.864Z</time></trkpt><trkpt lat="40.6169233" lon="15.1382567"><ele>123.85714285714286</ele><time>2026-05-02T09:57:09.863Z</time></trkpt><trkpt lat="40.6168467" lon="15.1382717"><ele>123.28571428571428</ele><time>2026-05-02T09:57:10.864Z</time></trkpt><trkpt lat="40.6167783" lon="15.1382883"><ele>122.71428571428571</ele><time>2026-05-02T09:57:11.863Z</time></trkpt><trkpt lat="40.616705" lon="15.1383117"><ele>122.14285714285714</ele><time>2026-05-02T09:57:12.864Z</time></trkpt><trkpt lat="40.616635" lon="15.1383267"><ele>121.57142857142857</ele><time>2026-05-02T09:57:13.864Z</time></trkpt><trkpt lat="40.61657" lon="15.1383417"><ele>121.0</ele><time>2026-05-02T09:57:14.864Z</time></trkpt><trkpt lat="40.6164583" lon="15.1383617"><ele>121.0</ele><time>2026-05-02T09:57:16.863Z</time></trkpt><trkpt lat="40.6163517" lon="15.1384067"><ele>121.0</ele><time>2026-05-02T09:57:18.864Z</time></trkpt><trkpt lat="40.61625" lon="15.1384383"><ele>121.0</ele><time>2026-05-02T09:57:20.864Z</time></trkpt><trkpt lat="40.6161633" lon="15.1383967"><ele>121.0</ele><time>2026-05-02T09:57:31.862Z</time></trkpt><trkpt lat="40.6161317" lon="15.1382717"><ele>121.0</ele><time>2026-05-02T09:57:33.864Z</time></trkpt><trkpt lat="40.6161217" lon="15.1381167"><ele>120.16666666666667</ele><time>2026-05-02T09:57:35.864Z</time></trkpt><trkpt lat="40.6161117" lon="15.13803"><ele>119.33333333333334</ele><time>2026-05-02T09:57:36.864Z</time></trkpt><trkpt lat="40.6161033" lon="15.1379283"><ele>118.5</ele><time>2026-05-02T09:57:37.863Z</time></trkpt><trkpt lat="40.6161017" lon="15.1378183"><ele>117.66666666666666</ele><time>2026-05-02T09:57:38.864Z</time></trkpt><trkpt lat="40.6160967" lon="15.1376933"><ele>116.83333333333333</ele><time>2026-05-02T09:57:39.863Z</time></trkpt><trkpt lat="40.6160833" lon="15.1375783"><ele>116.0</ele><time>2026-05-02T09:57:40.863Z</time></trkpt><trkpt lat="40.6160767" lon="15.13747"><ele>116.19999999999999</ele><time>2026-05-02T09:57:41.864Z</time></trkpt><trkpt lat="40.6160633" lon="15.1373783"><ele>116.39999999999999</ele><time>2026-05-02T09:57:42.864Z</time></trkpt><trkpt lat="40.6160467" lon="15.137295"><ele>116.6</ele><time>2026-05-02T09:57:43.863Z</time></trkpt><trkpt lat="40.61602" lon="15.1371667"><ele>116.8</ele><time>2026-05-02T09:57:45.863Z</time></trkpt><trkpt lat="40.6160183" lon="15.13703"><ele>117.0</ele><time>2026-05-02T09:57:47.864Z</time></trkpt><trkpt lat="40.6160217" lon="15.1368683"><ele>117.0</ele><time>2026-05-02T09:57:49.864Z</time></trkpt><trkpt lat="40.61601" lon="15.136705"><ele>117.0</ele><time>2026-05-02T09:57:51.864Z</time></trkpt><trkpt lat="40.6159783" lon="15.136555"><ele>117.0</ele><time>2026-05-02T09:57:53.863Z</time></trkpt><trkpt lat="40.615955" lon="15.1363817"><ele>117.0</ele><time>2026-05-02T09:57:55.864Z</time></trkpt><trkpt lat="40.6159417" lon="15.1362583"><ele>116.39999999999999</ele><time>2026-05-02T09:57:56.864Z</time></trkpt><trkpt lat="40.615935" lon="15.1361183"><ele>115.79999999999998</ele><time>2026-05-02T09:57:57.864Z</time></trkpt><trkpt lat="40.6159283" lon="15.1359767"><ele>115.2</ele><time>2026-05-02T09:57:58.863Z</time></trkpt><trkpt lat="40.615915" lon="15.1358333"><ele>114.6</ele><time>2026-05-02T09:57:59.863Z</time></trkpt><trkpt lat="40.6159067" lon="15.135685"><ele>114.0</ele><time>2026-05-02T09:58:00.863Z</time></trkpt><trkpt lat="40.6158933" lon="15.135535"><ele>113.80000000000001</ele><time>2026-05-02T09:58:01.864Z</time></trkpt><trkpt lat="40.61588" lon="15.1353867"><ele>113.60000000000001</ele><time>2026-05-02T09:58:02.864Z</time></trkpt><trkpt lat="40.6158683" lon="15.1352417"><ele>113.4</ele><time>2026-05-02T09:58:03.863Z</time></trkpt><trkpt lat="40.6158583" lon="15.1351067"><ele>113.2</ele><time>2026-05-02T09:58:04.863Z</time></trkpt><trkpt lat="40.6158533" lon="15.1349783"><ele>113.0</ele><time>2026-05-02T09:58:05.864Z</time></trkpt><trkpt lat="40.6158433" lon="15.1348567"><ele>113.33333333333333</ele><time>2026-05-02T09:58:06.864Z</time></trkpt><trkpt lat="40.6158333" lon="15.1347417"><ele>113.66666666666666</ele><time>2026-05-02T09:58:07.863Z</time></trkpt><trkpt lat="40.6158233" lon="15.1346267"><ele>114.0</ele><time>2026-05-02T09:58:08.864Z</time></trkpt><trkpt lat="40.6158133" lon="15.1345133"><ele>114.33333333333334</ele><time>2026-05-02T09:58:09.864Z</time></trkpt><trkpt lat="40.6158033" lon="15.134405"><ele>114.66666666666667</ele><time>2026-05-02T09:58:10.864Z</time></trkpt><trkpt lat="40.6157967" lon="15.1342933"><ele>115.0</ele><time>2026-05-02T09:58:11.864Z</time></trkpt><trkpt lat="40.615795" lon="15.1341933"><ele>115.00000000000001</ele><time>2026-05-02T09:58:12.863Z</time></trkpt><trkpt lat="40.6157883" lon="15.134105"><ele>115.0</ele><time>2026-05-02T09:58:13.863Z</time></trkpt><trkpt lat="40.6157833" lon="15.1339617"><ele>115.0</ele><time>2026-05-02T09:58:15.863Z</time></trkpt><trkpt lat="40.6157783" lon="15.133875"><ele>115.0</ele><time>2026-05-02T09:58:17.864Z</time></trkpt><trkpt lat="40.6157833" lon="15.13377"><ele>115.00000000000001</ele><time>2026-05-02T09:58:21.863Z</time></trkpt><trkpt lat="40.6158567" lon="15.1337383"><ele>115.0</ele><time>2026-05-02T09:58:30.863Z</time></trkpt><trkpt lat="40.6159817" lon="15.1337217"><ele>114.85714285714283</ele><time>2026-05-02T09:58:32.864Z</time></trkpt><trkpt lat="40.6160583" lon="15.1337133"><ele>114.71428571428571</ele><time>2026-05-02T09:58:33.864Z</time></trkpt><trkpt lat="40.6161367" lon="15.1336967"><ele>114.57142857142856</ele><time>2026-05-02T09:58:34.864Z</time></trkpt><trkpt lat="40.6162133" lon="15.1336817"><ele>114.42857142857142</ele><time>2026-05-02T09:58:35.864Z</time></trkpt><trkpt lat="40.6162883" lon="15.1336733"><ele>114.28571428571428</ele><time>2026-05-02T09:58:36.863Z</time></trkpt><trkpt lat="40.61636" lon="15.1336633"><ele>114.14285714285714</ele><time>2026-05-02T09:58:37.864Z</time></trkpt><trkpt lat="40.6164267" lon="15.1336533"><ele>114.0</ele><time>2026-05-02T09:58:38.863Z</time></trkpt><trkpt lat="40.6164917" lon="15.1336433"><ele>114.66666666666667</ele><time>2026-05-02T09:58:39.864Z</time></trkpt><trkpt lat="40.6165933" lon="15.133625"><ele>115.33333333333334</ele><time>2026-05-02T09:58:41.864Z</time></trkpt><trkpt lat="40.6166633" lon="15.1336367"><ele>116.0</ele><time>2026-05-02T09:58:43.863Z</time></trkpt><trkpt lat="40.616705" lon="15.133715"><ele>116.66666666666667</ele><time>2026-05-02T09:58:45.864Z</time></trkpt><trkpt lat="40.6167217" lon="15.133865"><ele>117.33333333333334</ele><time>2026-05-02T09:58:47.863Z</time></trkpt><trkpt lat="40.616725" lon="15.133965"><ele>118.0</ele><time>2026-05-02T09:58:48.863Z</time></trkpt><trkpt lat="40.6167367" lon="15.13407"><ele>118.16666666666667</ele><time>2026-05-02T09:58:49.863Z</time></trkpt><trkpt lat="40.6167417" lon="15.1341833"><ele>118.33333333333334</ele><time>2026-05-02T09:58:50.864Z</time></trkpt><trkpt lat="40.6167517" lon="15.134295"><ele>118.5</ele><time>2026-05-02T09:58:51.864Z</time></trkpt><trkpt lat="40.6167567" lon="15.134405"><ele>118.66666666666666</ele><time>2026-05-02T09:58:52.863Z</time></trkpt><trkpt lat="40.6167617" lon="15.134505"><ele>118.83333333333333</ele><time>2026-05-02T09:58:53.863Z</time></trkpt><trkpt lat="40.61677" lon="15.1345933"><ele>119.0</ele><time>2026-05-02T09:58:54.863Z</time></trkpt><trkpt lat="40.616775" lon="15.1347467"><ele>119.2</ele><time>2026-05-02T09:58:56.864Z</time></trkpt><trkpt lat="40.6167733" lon="15.1348917"><ele>119.4</ele><time>2026-05-02T09:58:58.863Z</time></trkpt><trkpt lat="40.6167833" lon="15.1349917"><ele>119.6</ele><time>2026-05-02T09:59:00.863Z</time></trkpt><trkpt lat="40.616785" lon="15.1350817"><ele>119.8</ele><time>2026-05-02T09:59:03.863Z</time></trkpt><trkpt lat="40.6167933" lon="15.135195"><ele>120.0</ele><time>2026-05-02T09:59:05.862Z</time></trkpt><trkpt lat="40.6168167" lon="15.1353633"><ele>120.0</ele><time>2026-05-02T09:59:07.863Z</time></trkpt><trkpt lat="40.616825" lon="15.1354717"><ele>120.0</ele><time>2026-05-02T09:59:08.863Z</time></trkpt><trkpt lat="40.6168383" lon="15.1355817"><ele>120.0</ele><time>2026-05-02T09:59:09.863Z</time></trkpt><trkpt lat="40.6168483" lon="15.1356783"><ele>120.0</ele><time>2026-05-02T09:59:10.863Z</time></trkpt><trkpt lat="40.6168583" lon="15.1357717"><ele>120.0</ele><time>2026-05-02T09:59:11.863Z</time></trkpt><trkpt lat="40.616865" lon="15.1358667"><ele>120.0</ele><time>2026-05-02T09:59:12.863Z</time></trkpt><trkpt lat="40.61687" lon="15.135965"><ele>119.83333333333333</ele><time>2026-05-02T09:59:13.863Z</time></trkpt><trkpt lat="40.6168733" lon="15.13606"><ele>119.66666666666666</ele><time>2026-05-02T09:59:14.863Z</time></trkpt><trkpt lat="40.6168783" lon="15.1361667"><ele>119.5</ele><time>2026-05-02T09:59:15.862Z</time></trkpt><trkpt lat="40.616885" lon="15.1362633"><ele>119.33333333333333</ele><time>2026-05-02T09:59:16.863Z</time></trkpt><trkpt lat="40.616895" lon="15.1364"><ele>119.16666666666666</ele><time>2026-05-02T09:59:18.863Z</time></trkpt><trkpt lat="40.6169017" lon="15.1365017"><ele>119.0</ele><time>2026-05-02T09:59:21.863Z</time></trkpt><trkpt lat="40.6169167" lon="15.1366417"><ele>119.6</ele><time>2026-05-02T09:59:24.862Z</time></trkpt><trkpt lat="40.6169333" lon="15.1367867"><ele>120.2</ele><time>2026-05-02T09:59:26.862Z</time></trkpt><trkpt lat="40.61694" lon="15.136875"><ele>120.79999999999998</ele><time>2026-05-02T09:59:27.863Z</time></trkpt><trkpt lat="40.6169467" lon="15.1369667"><ele>121.39999999999999</ele><time>2026-05-02T09:59:28.862Z</time></trkpt><trkpt lat="40.6169617" lon="15.1371217"><ele>122.0</ele><time>2026-05-02T09:59:30.863Z</time></trkpt><trkpt lat="40.61697" lon="15.1372733"><ele>122.25</ele><time>2026-05-02T09:59:32.862Z</time></trkpt><trkpt lat="40.6169767" lon="15.1374383"><ele>122.5</ele><time>2026-05-02T09:59:34.863Z</time></trkpt><trkpt lat="40.6169817" lon="15.1375883"><ele>122.75</ele><time>2026-05-02T09:59:36.863Z</time></trkpt><trkpt lat="40.61699" lon="15.1377283"><ele>123.0</ele><time>2026-05-02T09:59:38.863Z</time></trkpt><trkpt lat="40.6170067" lon="15.1378867"><ele>123.4</ele><time>2026-05-02T09:59:40.863Z</time></trkpt><trkpt lat="40.6170217" lon="15.138025"><ele>123.80000000000001</ele><time>2026-05-02T09:59:42.863Z</time></trkpt><trkpt lat="40.617025" lon="15.1381183"><ele>124.2</ele><time>2026-05-02T09:59:44.863Z</time></trkpt><trkpt lat="40.6170183" lon="15.1382217"><ele>124.6</ele><time>2026-05-02T09:59:48.862Z</time></trkpt><trkpt lat="40.61694" lon="15.1382633"><ele>125.0</ele><time>2026-05-02T09:59:52.862Z</time></trkpt><trkpt lat="40.616815" lon="15.1382867"><ele>124.33333333333333</ele><time>2026-05-02T09:59:54.862Z</time></trkpt><trkpt lat="40.6167283" lon="15.1383117"><ele>123.66666666666666</ele><time>2026-05-02T09:59:55.863Z</time></trkpt><trkpt lat="40.6166417" lon="15.1383367"><ele>123.0</ele><time>2026-05-02T09:59:56.863Z</time></trkpt><trkpt lat="40.6165617" lon="15.1383517"><ele>122.33333333333334</ele><time>2026-05-02T09:59:57.863Z</time></trkpt><trkpt lat="40.6164867" lon="15.13837"><ele>121.66666666666667</ele><time>2026-05-02T09:59:58.863Z</time></trkpt><trkpt lat="40.61642" lon="15.13839"><ele>121.0</ele><time>2026-05-02T09:59:59.863Z</time></trkpt><trkpt lat="40.6163583" lon="15.1384167"><ele>121.0</ele><time>2026-05-02T10:00:00.862Z</time></trkpt><trkpt lat="40.61625" lon="15.1384517"><ele>121.0</ele><time>2026-05-02T10:00:02.863Z</time></trkpt><trkpt lat="40.6161667" lon="15.138475"><ele>121.0</ele><time>2026-05-02T10:00:04.862Z</time></trkpt><trkpt lat="40.6162867" lon="15.1384367"><ele>121.0</ele><time>2026-05-02T10:01:50.862Z</time></trkpt><trkpt lat="40.6163533" lon="15.1384183"><ele>121.0</ele><time>2026-05-02T10:01:51.863Z</time></trkpt><trkpt lat="40.6164283" lon="15.1383917"><ele>121.00000000000001</ele><time>2026-05-02T10:01:52.862Z</time></trkpt><trkpt lat="40.6165133" lon="15.1383617"><ele>121.0</ele><time>2026-05-02T10:01:53.863Z</time></trkpt><trkpt lat="40.6165967" lon="15.13834"><ele>121.0</ele><time>2026-05-02T10:01:54.862Z</time></trkpt><trkpt lat="40.6166817" lon="15.1383183"><ele>121.0</ele><time>2026-05-02T10:01:55.863Z</time></trkpt><trkpt lat="40.61676" lon="15.1382967"><ele>121.00000000000001</ele><time>2026-05-02T10:01:56.862Z</time></trkpt><trkpt lat="40.616835" lon="15.1382783"><ele>121.0</ele><time>2026-05-02T10:01:57.863Z</time></trkpt><trkpt lat="40.6169067" lon="15.1382617"><ele>121.0</ele><time>2026-05-02T10:01:58.863Z</time></trkpt><trkpt lat="40.616985" lon="15.1382433"><ele>120.99999999999999</ele><time>2026-05-02T10:01:59.863Z</time></trkpt><trkpt lat="40.617065" lon="15.1382283"><ele>121.0</ele><time>2026-05-02T10:02:00.862Z</time></trkpt><trkpt lat="40.6171383" lon="15.1381983"><ele>121.0</ele><time>2026-05-02T10:02:01.862Z</time></trkpt><trkpt lat="40.617205" lon="15.1381717"><ele>120.99999999999999</ele><time>2026-05-02T10:02:02.862Z</time></trkpt><trkpt lat="40.6172717" lon="15.13815"><ele>121.0</ele><time>2026-05-02T10:02:03.862Z</time></trkpt><trkpt lat="40.6173417" lon="15.1381317"><ele>121.0</ele><time>2026-05-02T10:02:04.863Z</time></trkpt><trkpt lat="40.6174183" lon="15.13811"><ele>121.66666666666667</ele><time>2026-05-02T10:02:05.862Z</time></trkpt><trkpt lat="40.6174967" lon="15.13808"><ele>122.33333333333334</ele><time>2026-05-02T10:02:06.862Z</time></trkpt><trkpt lat="40.6175767" lon="15.1380433"><ele>123.0</ele><time>2026-05-02T10:02:07.863Z</time></trkpt><trkpt lat="40.6176617" lon="15.1379933"><ele>123.66666666666666</ele><time>2026-05-02T10:02:08.863Z</time></trkpt><trkpt lat="40.6177417" lon="15.1379467"><ele>124.33333333333333</ele><time>2026-05-02T10:02:09.863Z</time></trkpt><trkpt lat="40.6178117" lon="15.137915"><ele>125.0</ele><time>2026-05-02T10:02:10.863Z</time></trkpt><trkpt lat="40.61788" lon="15.1378833"><ele>125.66666666666666</ele><time>2026-05-02T10:02:11.862Z</time></trkpt><trkpt lat="40.61795" lon="15.1378517"><ele>126.33333333333333</ele><time>2026-05-02T10:02:12.862Z</time></trkpt><trkpt lat="40.6180167" lon="15.1378267"><ele>127.0</ele><time>2026-05-02T10:02:13.863Z</time></trkpt><trkpt lat="40.6180867" lon="15.1378117"><ele>127.66666666666666</ele><time>2026-05-02T10:02:14.863Z</time></trkpt><trkpt lat="40.618155" lon="15.1377867"><ele>128.33333333333334</ele><time>2026-05-02T10:02:15.863Z</time></trkpt><trkpt lat="40.6182233" lon="15.137765"><ele>129.0</ele><time>2026-05-02T10:02:16.863Z</time></trkpt><trkpt lat="40.61834" lon="15.137735"><ele>129.0</ele><time>2026-05-02T10:02:18.862Z</time></trkpt><trkpt lat="40.6184" lon="15.1377083"><ele>129.0</ele><time>2026-05-02T10:02:19.863Z</time></trkpt><trkpt lat="40.6184767" lon="15.13768"><ele>129.0</ele><time>2026-05-02T10:02:20.862Z</time></trkpt><trkpt lat="40.6185583" lon="15.1376667"><ele>129.0</ele><time>2026-05-02T10:02:21.863Z</time></trkpt><trkpt lat="40.6186467" lon="15.13766"><ele>129.0</ele><time>2026-05-02T10:02:22.863Z</time></trkpt><trkpt lat="40.6187317" lon="15.137645"><ele>129.0</ele><time>2026-05-02T10:02:23.863Z</time></trkpt><trkpt lat="40.618815" lon="15.13763"><ele>129.5</ele><time>2026-05-02T10:02:24.863Z</time></trkpt><trkpt lat="40.6188967" lon="15.1376133"><ele>130.0</ele><time>2026-05-02T10:02:25.863Z</time></trkpt><trkpt lat="40.61897" lon="15.137595"><ele>130.5</ele><time>2026-05-02T10:02:26.862Z</time></trkpt><trkpt lat="40.619045" lon="15.1375767"><ele>131.0</ele><time>2026-05-02T10:02:27.862Z</time></trkpt><trkpt lat="40.619115" lon="15.1375717"><ele>131.5</ele><time>2026-05-02T10:02:28.863Z</time></trkpt><trkpt lat="40.6191817" lon="15.137575"><ele>132.0</ele><time>2026-05-02T10:02:29.863Z</time></trkpt><trkpt lat="40.61929" lon="15.1376033"><ele>132.0</ele><time>2026-05-02T10:02:31.862Z</time></trkpt><trkpt lat="40.61937" lon="15.1376667"><ele>132.0</ele><time>2026-05-02T10:02:33.862Z</time></trkpt><trkpt lat="40.6194217" lon="15.137715"><ele>132.0</ele><time>2026-05-02T10:02:35.862Z</time></trkpt><trkpt lat="40.619505" lon="15.137745"><ele>132.0</ele><time>2026-05-02T10:02:52.863Z</time></trkpt><trkpt lat="40.6196367" lon="15.13774"><ele>132.0</ele><time>2026-05-02T10:02:54.862Z</time></trkpt><trkpt lat="40.6197217" lon="15.1377567"><ele>132.79999999999998</ele><time>2026-05-02T10:02:55.862Z</time></trkpt><trkpt lat="40.6198167" lon="15.13778"><ele>133.6</ele><time>2026-05-02T10:02:56.863Z</time></trkpt><trkpt lat="40.6199117" lon="15.13781"><ele>134.39999999999998</ele><time>2026-05-02T10:02:57.862Z</time></trkpt><trkpt lat="40.6200067" lon="15.1378383"><ele>135.2</ele><time>2026-05-02T10:02:58.863Z</time></trkpt><trkpt lat="40.620105" lon="15.1378667"><ele>136.0</ele><time>2026-05-02T10:02:59.863Z</time></trkpt><trkpt lat="40.620215" lon="15.1379"><ele>137.25</ele><time>2026-05-02T10:03:00.862Z</time></trkpt><trkpt lat="40.6203283" lon="15.137925"><ele>138.5</ele><time>2026-05-02T10:03:01.862Z</time></trkpt><trkpt lat="40.62044" lon="15.13795"><ele>139.75</ele><time>2026-05-02T10:03:02.863Z</time></trkpt><trkpt lat="40.62055" lon="15.1379617"><ele>141.0</ele><time>2026-05-02T10:03:03.863Z</time></trkpt><trkpt lat="40.620665" lon="15.1379633"><ele>141.0</ele><time>2026-05-02T10:03:04.862Z</time></trkpt><trkpt lat="40.6207783" lon="15.1379517"><ele>141.0</ele><time>2026-05-02T10:03:05.863Z</time></trkpt><trkpt lat="40.62089" lon="15.1379367"><ele>141.0</ele><time>2026-05-02T10:03:06.862Z</time></trkpt><trkpt lat="40.6210017" lon="15.1379183"><ele>141.0</ele><time>2026-05-02T10:03:07.863Z</time></trkpt><trkpt lat="40.6211167" lon="15.1378933"><ele>141.8</ele><time>2026-05-02T10:03:08.863Z</time></trkpt><trkpt lat="40.6212333" lon="15.137875"><ele>142.6</ele><time>2026-05-02T10:03:09.862Z</time></trkpt><trkpt lat="40.6213433" lon="15.13786"><ele>143.4</ele><time>2026-05-02T10:03:10.863Z</time></trkpt><trkpt lat="40.6214417" lon="15.137845"><ele>144.2</ele><time>2026-05-02T10:03:11.863Z</time></trkpt><trkpt lat="40.6215283" lon="15.137835"><ele>145.0</ele><time>2026-05-02T10:03:12.862Z</time></trkpt><trkpt lat="40.6216117" lon="15.137825"><ele>145.0</ele><time>2026-05-02T10:03:13.862Z</time></trkpt><trkpt lat="40.6216983" lon="15.1378117"><ele>145.0</ele><time>2026-05-02T10:03:14.862Z</time></trkpt><trkpt lat="40.6217833" lon="15.1377917"><ele>145.0</ele><time>2026-05-02T10:03:15.863Z</time></trkpt><trkpt lat="40.62187" lon="15.13776"><ele>145.0</ele><time>2026-05-02T10:03:16.862Z</time></trkpt><trkpt lat="40.6219533" lon="15.1377333"><ele>145.0</ele><time>2026-05-02T10:03:17.863Z</time></trkpt><trkpt lat="40.622035" lon="15.1377033"><ele>145.0</ele><time>2026-05-02T10:03:18.863Z</time></trkpt><trkpt lat="40.62211" lon="15.137675"><ele>145.5</ele><time>2026-05-02T10:03:19.862Z</time></trkpt><trkpt lat="40.6221783" lon="15.137655"><ele>146.0</ele><time>2026-05-02T10:03:20.863Z</time></trkpt><trkpt lat="40.62227" lon="15.13764"><ele>146.5</ele><time>2026-05-02T10:03:22.863Z</time></trkpt><trkpt lat="40.6223433" lon="15.13764"><ele>147.0</ele><time>2026-05-02T10:03:25.863Z</time></trkpt><trkpt lat="40.6223933" lon="15.1376933"><ele>147.5</ele><time>2026-05-02T10:03:28.862Z</time></trkpt><trkpt lat="40.6224883" lon="15.137765"><ele>148.0</ele><time>2026-05-02T10:03:30.862Z</time></trkpt><trkpt lat="40.6225483" lon="15.1377933"><ele>148.0</ele><time>2026-05-02T10:03:31.863Z</time></trkpt><trkpt lat="40.6226117" lon="15.13783"><ele>148.0</ele><time>2026-05-02T10:03:32.862Z</time></trkpt><trkpt lat="40.6226733" lon="15.1378667"><ele>148.0</ele><time>2026-05-02T10:03:33.862Z</time></trkpt><trkpt lat="40.622735" lon="15.1379083"><ele>148.0</ele><time>2026-05-02T10:03:34.862Z</time></trkpt><trkpt lat="40.6228033" lon="15.1379367"><ele>148.0</ele><time>2026-05-02T10:03:35.862Z</time></trkpt><trkpt lat="40.6228783" lon="15.137965"><ele>148.0</ele><time>2026-05-02T10:03:36.862Z</time></trkpt><trkpt lat="40.6229567" lon="15.137995"><ele>148.0</ele><time>2026-05-02T10:03:37.863Z</time></trkpt><trkpt lat="40.6230367" lon="15.13802"><ele>148.71428571428572</ele><time>2026-05-02T10:03:38.863Z</time></trkpt><trkpt lat="40.623115" lon="15.1380433"><ele>149.42857142857142</ele><time>2026-05-02T10:03:39.862Z</time></trkpt><trkpt lat="40.6231917" lon="15.1380683"><ele>150.14285714285714</ele><time>2026-05-02T10:03:40.862Z</time></trkpt><trkpt lat="40.6232633" lon="15.1380883"><ele>150.85714285714286</ele><time>2026-05-02T10:03:41.863Z</time></trkpt><trkpt lat="40.6233333" lon="15.138105"><ele>151.57142857142858</ele><time>2026-05-02T10:03:42.862Z</time></trkpt><trkpt lat="40.623405" lon="15.1381283"><ele>152.28571428571428</ele><time>2026-05-02T10:03:43.862Z</time></trkpt><trkpt lat="40.623475" lon="15.138145"><ele>153.0</ele><time>2026-05-02T10:03:44.863Z</time></trkpt><trkpt lat="40.6235383" lon="15.13816"><ele>153.0</ele><time>2026-05-02T10:03:45.863Z</time></trkpt><trkpt lat="40.6236017" lon="15.1381817"><ele>153.0</ele><time>2026-05-02T10:03:47.863Z</time></trkpt><trkpt lat="40.6235717" lon="15.1382983"><ele>153.0</ele><time>2026-05-02T10:03:50.863Z</time></trkpt><trkpt lat="40.6235067" lon="15.1384483"><ele>153.0</ele><time>2026-05-02T10:03:52.862Z</time></trkpt><trkpt lat="40.6234783" lon="15.138565"><ele>153.0</ele><time>2026-05-02T10:03:53.863Z</time></trkpt><trkpt lat="40.6234433" lon="15.1387133"><ele>153.25</ele><time>2026-05-02T10:03:54.863Z</time></trkpt><trkpt lat="40.623415" lon="15.1388583"><ele>153.5</ele><time>2026-05-02T10:03:55.862Z</time></trkpt><trkpt lat="40.62339" lon="15.1390067"><ele>153.75</ele><time>2026-05-02T10:03:56.863Z</time></trkpt><trkpt lat="40.6233683" lon="15.1391533"><ele>154.0</ele><time>2026-05-02T10:03:57.862Z</time></trkpt><trkpt lat="40.62334" lon="15.1393"><ele>154.2</ele><time>2026-05-02T10:03:58.863Z</time></trkpt><trkpt lat="40.62331" lon="15.1394333"><ele>154.4</ele><time>2026-05-02T10:03:59.862Z</time></trkpt><trkpt lat="40.6232833" lon="15.13956"><ele>154.6</ele><time>2026-05-02T10:04:00.863Z</time></trkpt><trkpt lat="40.6232583" lon="15.1396717"><ele>154.8</ele><time>2026-05-02T10:04:01.862Z</time></trkpt><trkpt lat="40.6232317" lon="15.1397717"><ele>155.0</ele><time>2026-05-02T10:04:02.863Z</time></trkpt><trkpt lat="40.6232033" lon="15.1398667"><ele>154.5</ele><time>2026-05-02T10:04:03.862Z</time></trkpt><trkpt lat="40.6231833" lon="15.1399533"><ele>154.0</ele><time>2026-05-02T10:04:04.862Z</time></trkpt><trkpt lat="40.6231667" lon="15.1400367"><ele>153.5</ele><time>2026-05-02T10:04:05.862Z</time></trkpt><trkpt lat="40.6231317" lon="15.1401667"><ele>153.0</ele><time>2026-05-02T10:04:07.863Z</time></trkpt><trkpt lat="40.6230883" lon="15.1402817"><ele>152.5</ele><time>2026-05-02T10:04:09.863Z</time></trkpt><trkpt lat="40.62302" lon="15.1403667"><ele>152.0</ele><time>2026-05-02T10:04:11.861Z</time></trkpt><trkpt lat="40.62293" lon="15.1404767"><ele>152.0</ele><time>2026-05-02T10:04:13.862Z</time></trkpt><trkpt lat="40.6228583" lon="15.1406133"><ele>152.0</ele><time>2026-05-02T10:04:15.861Z</time></trkpt><trkpt lat="40.6228233" lon="15.14077"><ele>152.0</ele><time>2026-05-02T10:04:17.862Z</time></trkpt><trkpt lat="40.6227717" lon="15.1409183"><ele>152.0</ele><time>2026-05-02T10:04:19.862Z</time></trkpt><trkpt lat="40.6227317" lon="15.140995"><ele>152.0</ele><time>2026-05-02T10:04:20.862Z</time></trkpt><trkpt lat="40.6226833" lon="15.1410667"><ele>150.16666666666666</ele><time>2026-05-02T10:04:21.861Z</time></trkpt><trkpt lat="40.6226267" lon="15.1411317"><ele>148.33333333333331</ele><time>2026-05-02T10:04:22.862Z</time></trkpt><trkpt lat="40.62257" lon="15.1411833"><ele>146.5</ele><time>2026-05-02T10:04:23.861Z</time></trkpt><trkpt lat="40.6225117" lon="15.1412417"><ele>144.66666666666666</ele><time>2026-05-02T10:04:24.861Z</time></trkpt><trkpt lat="40.6224417" lon="15.1413017"><ele>142.83333333333334</ele><time>2026-05-02T10:04:25.862Z</time></trkpt><trkpt lat="40.6223783" lon="15.1413517"><ele>141.0</ele><time>2026-05-02T10:04:26.862Z</time></trkpt><trkpt lat="40.6223067" lon="15.141395"><ele>141.0</ele><time>2026-05-02T10:04:28.861Z</time></trkpt><trkpt lat="40.62225" lon="15.1414317"><ele>141.0</ele><time>2026-05-02T10:04:31.862Z</time></trkpt><trkpt lat="40.6221467" lon="15.1414733"><ele>141.0</ele><time>2026-05-02T10:04:33.862Z</time></trkpt><trkpt lat="40.6220683" lon="15.14149"><ele>141.0</ele><time>2026-05-02T10:04:34.862Z</time></trkpt><trkpt lat="40.6219867" lon="15.1415083"><ele>141.0</ele><time>2026-05-02T10:04:35.862Z</time></trkpt><trkpt lat="40.6219167" lon="15.14152"><ele>141.0</ele><time>2026-05-02T10:04:36.862Z</time></trkpt><trkpt lat="40.6218067" lon="15.1415817"><ele>141.66666666666666</ele><time>2026-05-02T10:04:38.861Z</time></trkpt><trkpt lat="40.6217567" lon="15.1416417"><ele>142.33333333333334</ele><time>2026-05-02T10:04:39.861Z</time></trkpt><trkpt lat="40.6217067" lon="15.1417217"><ele>143.0</ele><time>2026-05-02T10:04:40.862Z</time></trkpt><trkpt lat="40.6216517" lon="15.1418167"><ele>143.66666666666669</ele><time>2026-05-02T10:04:41.861Z</time></trkpt><trkpt lat="40.6215833" lon="15.1419167"><ele>144.33333333333334</ele><time>2026-05-02T10:04:42.861Z</time></trkpt><trkpt lat="40.6215033" lon="15.142015"><ele>145.0</ele><time>2026-05-02T10:04:43.861Z</time></trkpt><trkpt lat="40.62143" lon="15.14211"><ele>145.0</ele><time>2026-05-02T10:04:44.862Z</time></trkpt><trkpt lat="40.62136" lon="15.1422"><ele>145.0</ele><time>2026-05-02T10:04:45.861Z</time></trkpt><trkpt lat="40.62129" lon="15.14228"><ele>145.0</ele><time>2026-05-02T10:04:46.862Z</time></trkpt><trkpt lat="40.6212183" lon="15.1423583"><ele>145.0</ele><time>2026-05-02T10:04:47.862Z</time></trkpt><trkpt lat="40.6211483" lon="15.1424367"><ele>145.0</ele><time>2026-05-02T10:04:48.862Z</time></trkpt><trkpt lat="40.621085" lon="15.1425117"><ele>144.83333333333334</ele><time>2026-05-02T10:04:49.862Z</time></trkpt><trkpt lat="40.6210267" lon="15.1425817"><ele>144.66666666666669</ele><time>2026-05-02T10:04:50.862Z</time></trkpt><trkpt lat="40.620965" lon="15.1426517"><ele>144.5</ele><time>2026-05-02T10:04:51.862Z</time></trkpt><trkpt lat="40.620895" lon="15.142725"><ele>144.33333333333334</ele><time>2026-05-02T10:04:52.862Z</time></trkpt><trkpt lat="40.6208217" lon="15.1427883"><ele>144.16666666666666</ele><time>2026-05-02T10:04:53.862Z</time></trkpt><trkpt lat="40.620745" lon="15.1428617"><ele>144.0</ele><time>2026-05-02T10:04:54.862Z</time></trkpt><trkpt lat="40.6206717" lon="15.1429417"><ele>144.0</ele><time>2026-05-02T10:04:55.862Z</time></trkpt><trkpt lat="40.6205933" lon="15.1430267"><ele>144.0</ele><time>2026-05-02T10:04:56.862Z</time></trkpt><trkpt lat="40.6205183" lon="15.1431083"><ele>144.0</ele><time>2026-05-02T10:04:57.861Z</time></trkpt><trkpt lat="40.6204483" lon="15.1431867"><ele>144.0</ele><time>2026-05-02T10:04:58.861Z</time></trkpt><trkpt lat="40.620385" lon="15.14326"><ele>144.0</ele><time>2026-05-02T10:04:59.861Z</time></trkpt><trkpt lat="40.6203367" lon="15.1433167"><ele>144.0</ele><time>2026-05-02T10:05:00.862Z</time></trkpt><trkpt lat="40.6202733" lon="15.1433867"><ele>143.33333333333334</ele><time>2026-05-02T10:05:02.861Z</time></trkpt><trkpt lat="40.62022" lon="15.1434483"><ele>142.66666666666666</ele><time>2026-05-02T10:05:06.861Z</time></trkpt><trkpt lat="40.6201417" lon="15.143555"><ele>142.0</ele><time>2026-05-02T10:05:08.862Z</time></trkpt><trkpt lat="40.620085" lon="15.1436283"><ele>141.33333333333331</ele><time>2026-05-02T10:05:09.861Z</time></trkpt><trkpt lat="40.62002" lon="15.1437067"><ele>140.66666666666666</ele><time>2026-05-02T10:05:10.862Z</time></trkpt><trkpt lat="40.6199517" lon="15.14379"><ele>140.0</ele><time>2026-05-02T10:05:11.862Z</time></trkpt><trkpt lat="40.619885" lon="15.14387"><ele>140.0</ele><time>2026-05-02T10:05:12.861Z</time></trkpt><trkpt lat="40.61983" lon="15.1439417"><ele>140.0</ele><time>2026-05-02T10:05:13.861Z</time></trkpt><trkpt lat="40.6197733" lon="15.1440133"><ele>140.0</ele><time>2026-05-02T10:05:14.861Z</time></trkpt><trkpt lat="40.6197233" lon="15.14408"><ele>140.0</ele><time>2026-05-02T10:05:15.861Z</time></trkpt><trkpt lat="40.61967" lon="15.144145"><ele>140.0</ele><time>2026-05-02T10:05:16.861Z</time></trkpt><trkpt lat="40.619615" lon="15.1442133"><ele>140.0</ele><time>2026-05-02T10:05:17.862Z</time></trkpt><trkpt lat="40.6195633" lon="15.14428"><ele>140.0</ele><time>2026-05-02T10:05:18.862Z</time></trkpt><trkpt lat="40.6195083" lon="15.1443483"><ele>139.5</ele><time>2026-05-02T10:05:19.861Z</time></trkpt><trkpt lat="40.619455" lon="15.1444117"><ele>139.0</ele><time>2026-05-02T10:05:20.862Z</time></trkpt><trkpt lat="40.6194033" lon="15.1444783"><ele>138.5</ele><time>2026-05-02T10:05:21.861Z</time></trkpt><trkpt lat="40.619355" lon="15.14454"><ele>138.0</ele><time>2026-05-02T10:05:22.862Z</time></trkpt><trkpt lat="40.61927" lon="15.1446467"><ele>137.5</ele><time>2026-05-02T10:05:24.861Z</time></trkpt><trkpt lat="40.619195" lon="15.14474"><ele>137.0</ele><time>2026-05-02T10:05:26.862Z</time></trkpt><trkpt lat="40.61914" lon="15.1448167"><ele>137.16666666666666</ele><time>2026-05-02T10:05:28.861Z</time></trkpt><trkpt lat="40.6190867" lon="15.1448967"><ele>137.33333333333331</ele><time>2026-05-02T10:05:31.862Z</time></trkpt><trkpt lat="40.6190383" lon="15.1449583"><ele>137.5</ele><time>2026-05-02T10:05:33.862Z</time></trkpt><trkpt lat="40.6189683" lon="15.1450233"><ele>137.66666666666666</ele><time>2026-05-02T10:05:36.861Z</time></trkpt><trkpt lat="40.618895" lon="15.1451083"><ele>137.83333333333334</ele><time>2026-05-02T10:05:39.861Z</time></trkpt><trkpt lat="40.6188367" lon="15.1451833"><ele>138.0</ele><time>2026-05-02T10:05:41.862Z</time></trkpt><trkpt lat="40.618755" lon="15.1452783"><ele>138.0</ele><time>2026-05-02T10:05:43.861Z</time></trkpt><trkpt lat="40.618675" lon="15.1453833"><ele>138.0</ele><time>2026-05-02T10:05:45.862Z</time></trkpt><trkpt lat="40.6186017" lon="15.1454567"><ele>138.0</ele><time>2026-05-02T10:05:47.862Z</time></trkpt><trkpt lat="40.6185167" lon="15.14553"><ele>138.0</ele><time>2026-05-02T10:05:49.861Z</time></trkpt><trkpt lat="40.6184367" lon="15.14561"><ele>138.0</ele><time>2026-05-02T10:05:51.862Z</time></trkpt><trkpt lat="40.61838" lon="15.1456733"><ele>137.0</ele><time>2026-05-02T10:05:53.861Z</time></trkpt><trkpt lat="40.6183017" lon="15.1457433"><ele>136.0</ele><time>2026-05-02T10:05:56.861Z</time></trkpt><trkpt lat="40.6182383" lon="15.1458083"><ele>135.0</ele><time>2026-05-02T10:05:59.862Z</time></trkpt><trkpt lat="40.6181717" lon="15.1458717"><ele>134.0</ele><time>2026-05-02T10:06:02.861Z</time></trkpt><trkpt lat="40.6181117" lon="15.14594"><ele>133.0</ele><time>2026-05-02T10:06:05.862Z</time></trkpt><trkpt lat="40.618185" lon="15.1458867"><ele>132.0</ele><time>2026-05-02T10:07:32.862Z</time></trkpt><trkpt lat="40.6182433" lon="15.14584"><ele>132.0</ele><time>2026-05-02T10:07:35.862Z</time></trkpt><trkpt lat="40.6182883" lon="15.1457783"><ele>132.0</ele><time>2026-05-02T10:07:37.861Z</time></trkpt><trkpt lat="40.6183483" lon="15.1457217"><ele>132.0</ele><time>2026-05-02T10:07:39.861Z</time></trkpt><trkpt lat="40.618425" lon="15.1456317"><ele>132.0</ele><time>2026-05-02T10:07:41.861Z</time></trkpt><trkpt lat="40.618515" lon="15.1455233"><ele>132.0</ele><time>2026-05-02T10:07:43.861Z</time></trkpt><trkpt lat="40.6185733" lon="15.145475"><ele>132.0</ele><time>2026-05-02T10:07:44.862Z</time></trkpt><trkpt lat="40.6186367" lon="15.145415"><ele>133.0</ele><time>2026-05-02T10:07:45.862Z</time></trkpt><trkpt lat="40.6186983" lon="15.14535"><ele>134.0</ele><time>2026-05-02T10:07:46.862Z</time></trkpt><trkpt lat="40.6187533" lon="15.1452833"><ele>135.0</ele><time>2026-05-02T10:07:47.861Z</time></trkpt><trkpt lat="40.618805" lon="15.1452217"><ele>136.0</ele><time>2026-05-02T10:07:48.862Z</time></trkpt><trkpt lat="40.6188833" lon="15.145125"><ele>137.0</ele><time>2026-05-02T10:07:50.861Z</time></trkpt><trkpt lat="40.61897" lon="15.14503"><ele>138.0</ele><time>2026-05-02T10:07:52.861Z</time></trkpt><trkpt lat="40.619065" lon="15.1449367"><ele>138.0</ele><time>2026-05-02T10:07:54.862Z</time></trkpt><trkpt lat="40.6191117" lon="15.14488"><ele>138.0</ele><time>2026-05-02T10:07:55.862Z</time></trkpt><trkpt lat="40.61917" lon="15.1448033"><ele>138.0</ele><time>2026-05-02T10:07:56.861Z</time></trkpt><trkpt lat="40.6192483" lon="15.1446967"><ele>138.0</ele><time>2026-05-02T10:07:57.861Z</time></trkpt><trkpt lat="40.6193417" lon="15.1445767"><ele>138.0</ele><time>2026-05-02T10:07:58.861Z</time></trkpt><trkpt lat="40.6194317" lon="15.144465"><ele>138.33333333333334</ele><time>2026-05-02T10:07:59.861Z</time></trkpt><trkpt lat="40.6195117" lon="15.1443633"><ele>138.66666666666666</ele><time>2026-05-02T10:08:00.862Z</time></trkpt><trkpt lat="40.6195817" lon="15.1442717"><ele>139.0</ele><time>2026-05-02T10:08:01.862Z</time></trkpt><trkpt lat="40.619645" lon="15.144195"><ele>139.33333333333331</ele><time>2026-05-02T10:08:02.861Z</time></trkpt><trkpt lat="40.6197033" lon="15.144125"><ele>139.66666666666666</ele><time>2026-05-02T10:08:03.862Z</time></trkpt><trkpt lat="40.6197533" lon="15.14406"><ele>140.0</ele><time>2026-05-02T10:08:04.861Z</time></trkpt><trkpt lat="40.619805" lon="15.144"><ele>140.0</ele><time>2026-05-02T10:08:05.861Z</time></trkpt><trkpt lat="40.6198567" lon="15.14393"><ele>140.0</ele><time>2026-05-02T10:08:06.862Z</time></trkpt><trkpt lat="40.6199117" lon="15.143855"><ele>140.0</ele><time>2026-05-02T10:08:07.861Z</time></trkpt><trkpt lat="40.61997" lon="15.1437817"><ele>140.0</ele><time>2026-05-02T10:08:08.862Z</time></trkpt><trkpt lat="40.6200217" lon="15.1437183"><ele>140.0</ele><time>2026-05-02T10:08:09.861Z</time></trkpt><trkpt lat="40.620105" lon="15.1436083"><ele>140.0</ele><time>2026-05-02T10:08:11.861Z</time></trkpt><trkpt lat="40.6201717" lon="15.1435117"><ele>140.0</ele><time>2026-05-02T10:08:13.861Z</time></trkpt><trkpt lat="40.6201683" lon="15.1433983"><ele>140.0</ele><time>2026-05-02T10:08:16.862Z</time></trkpt><trkpt lat="40.62007" lon="15.1433117"><ele>140.0</ele><time>2026-05-02T10:08:18.861Z</time></trkpt><trkpt lat="40.61998" lon="15.14325"><ele>140.0</ele><time>2026-05-02T10:08:19.862Z</time></trkpt><trkpt lat="40.6198833" lon="15.1431817"><ele>140.0</ele><time>2026-05-02T10:08:20.861Z</time></trkpt><trkpt lat="40.6197933" lon="15.1431117"><ele>139.66666666666666</ele><time>2026-05-02T10:08:21.861Z</time></trkpt><trkpt lat="40.6197133" lon="15.1430483"><ele>139.33333333333331</ele><time>2026-05-02T10:08:22.862Z</time></trkpt><trkpt lat="40.6196367" lon="15.1429917"><ele>139.0</ele><time>2026-05-02T10:08:23.862Z</time></trkpt><trkpt lat="40.6195733" lon="15.1429467"><ele>138.66666666666666</ele><time>2026-05-02T10:08:24.861Z</time></trkpt><trkpt lat="40.6194817" lon="15.142895"><ele>138.33333333333334</ele><time>2026-05-02T10:08:26.861Z</time></trkpt><trkpt lat="40.6194067" lon="15.1428367"><ele>138.0</ele><time>2026-05-02T10:08:28.862Z</time></trkpt><trkpt lat="40.6193383" lon="15.1427917"><ele>137.5</ele><time>2026-05-02T10:08:30.862Z</time></trkpt><trkpt lat="40.6192617" lon="15.1427467"><ele>137.0</ele><time>2026-05-02T10:08:32.861Z</time></trkpt><trkpt lat="40.6192083" lon="15.1427017"><ele>136.5</ele><time>2026-05-02T10:08:33.861Z</time></trkpt><trkpt lat="40.61914" lon="15.1426433"><ele>136.0</ele><time>2026-05-02T10:08:34.862Z</time></trkpt><trkpt lat="40.6190667" lon="15.1425833"><ele>135.5</ele><time>2026-05-02T10:08:35.861Z</time></trkpt><trkpt lat="40.6189983" lon="15.1425233"><ele>135.0</ele><time>2026-05-02T10:08:36.861Z</time></trkpt><trkpt lat="40.61893" lon="15.1424633"><ele>135.0</ele><time>2026-05-02T10:08:37.861Z</time></trkpt><trkpt lat="40.6188567" lon="15.1424067"><ele>135.0</ele><time>2026-05-02T10:08:38.862Z</time></trkpt><trkpt lat="40.618785" lon="15.1423483"><ele>135.0</ele><time>2026-05-02T10:08:39.862Z</time></trkpt><trkpt lat="40.6187117" lon="15.14229"><ele>135.0</ele><time>2026-05-02T10:08:40.862Z</time></trkpt><trkpt lat="40.6186367" lon="15.14223"><ele>135.0</ele><time>2026-05-02T10:08:41.862Z</time></trkpt><trkpt lat="40.6185667" lon="15.1421683"><ele>135.0</ele><time>2026-05-02T10:08:42.861Z</time></trkpt><trkpt lat="40.6184967" lon="15.1421117"><ele>133.66666666666666</ele><time>2026-05-02T10:08:43.861Z</time></trkpt><trkpt lat="40.6184217" lon="15.1420533"><ele>132.33333333333334</ele><time>2026-05-02T10:08:44.862Z</time></trkpt><trkpt lat="40.6183483" lon="15.1419917"><ele>131.0</ele><time>2026-05-02T10:08:45.862Z</time></trkpt><trkpt lat="40.6182733" lon="15.1419333"><ele>129.66666666666669</ele><time>2026-05-02T10:08:46.861Z</time></trkpt><trkpt lat="40.6182017" lon="15.14188"><ele>128.33333333333334</ele><time>2026-05-02T10:08:47.862Z</time></trkpt><trkpt lat="40.6181317" lon="15.1418283"><ele>127.0</ele><time>2026-05-02T10:08:48.862Z</time></trkpt><trkpt lat="40.6180633" lon="15.1417717"><ele>127.00000000000001</ele><time>2026-05-02T10:08:49.862Z</time></trkpt><trkpt lat="40.6179983" lon="15.141715"><ele>127.0</ele><time>2026-05-02T10:08:50.862Z</time></trkpt><trkpt lat="40.6179333" lon="15.141665"><ele>127.0</ele><time>2026-05-02T10:08:51.861Z</time></trkpt><trkpt lat="40.6178717" lon="15.141615"><ele>127.0</ele><time>2026-05-02T10:08:52.862Z</time></trkpt><trkpt lat="40.6178183" lon="15.141565"><ele>127.00000000000001</ele><time>2026-05-02T10:08:53.862Z</time></trkpt><trkpt lat="40.6177383" lon="15.1414967"><ele>127.0</ele><time>2026-05-02T10:08:55.862Z</time></trkpt><trkpt lat="40.6176883" lon="15.1414433"><ele>126.66666666666667</ele><time>2026-05-02T10:08:59.861Z</time></trkpt><trkpt lat="40.61769" lon="15.1413533"><ele>126.33333333333334</ele><time>2026-05-02T10:09:28.861Z</time></trkpt><trkpt lat="40.617735" lon="15.1412333"><ele>126.0</ele><time>2026-05-02T10:09:30.861Z</time></trkpt><trkpt lat="40.61776" lon="15.1411283"><ele>125.66666666666666</ele><time>2026-05-02T10:09:31.861Z</time></trkpt><trkpt lat="40.6177883" lon="15.1410117"><ele>125.33333333333333</ele><time>2026-05-02T10:09:32.86Z</time></trkpt><trkpt lat="40.6178233" lon="15.140885"><ele>125.0</ele><time>2026-05-02T10:09:33.861Z</time></trkpt><trkpt lat="40.617855" lon="15.1407667"><ele>124.57142857142857</ele><time>2026-05-02T10:09:34.86Z</time></trkpt><trkpt lat="40.6178817" lon="15.1406567"><ele>124.14285714285714</ele><time>2026-05-02T10:09:35.86Z</time></trkpt><trkpt lat="40.6179017" lon="15.1405567"><ele>123.71428571428571</ele><time>2026-05-02T10:09:36.861Z</time></trkpt><trkpt lat="40.6179283" lon="15.14048"><ele>123.28571428571428</ele><time>2026-05-02T10:09:37.861Z</time></trkpt><trkpt lat="40.61797" lon="15.1404167"><ele>122.85714285714286</ele><time>2026-05-02T10:09:38.86Z</time></trkpt><trkpt lat="40.6180267" lon="15.1403617"><ele>122.42857142857142</ele><time>2026-05-02T10:09:39.861Z</time></trkpt><trkpt lat="40.618095" lon="15.14031"><ele>121.99999999999999</ele><time>2026-05-02T10:09:40.86Z</time></trkpt><trkpt lat="40.6181767" lon="15.1402583"><ele>121.99999999999999</ele><time>2026-05-02T10:09:41.861Z</time></trkpt><trkpt lat="40.61826" lon="15.140205"><ele>122.0</ele><time>2026-05-02T10:09:42.86Z</time></trkpt><trkpt lat="40.6183417" lon="15.1401533"><ele>122.0</ele><time>2026-05-02T10:09:43.861Z</time></trkpt><trkpt lat="40.618415" lon="15.1400983"><ele>122.0</ele><time>2026-05-02T10:09:44.86Z</time></trkpt><trkpt lat="40.61849" lon="15.1400483"><ele>121.99999999999999</ele><time>2026-05-02T10:09:45.86Z</time></trkpt><trkpt lat="40.6185717" lon="15.1399967"><ele>122.0</ele><time>2026-05-02T10:09:46.861Z</time></trkpt><trkpt lat="40.6186517" lon="15.1399433"><ele>122.0</ele><time>2026-05-02T10:09:47.861Z</time></trkpt><trkpt lat="40.6187433" lon="15.13988"><ele>122.0</ele><time>2026-05-02T10:09:48.861Z</time></trkpt><trkpt lat="40.61885" lon="15.1398033"><ele>122.0</ele><time>2026-05-02T10:09:49.86Z</time></trkpt><trkpt lat="40.618975" lon="15.1397233"><ele>122.0</ele><time>2026-05-02T10:09:50.861Z</time></trkpt><trkpt lat="40.6190967" lon="15.1396417"><ele>122.0</ele><time>2026-05-02T10:09:51.86Z</time></trkpt><trkpt lat="40.6192083" lon="15.139565"><ele>122.0</ele><time>2026-05-02T10:09:52.86Z</time></trkpt><trkpt lat="40.6193183" lon="15.1394917"><ele>122.0</ele><time>2026-05-02T10:09:53.861Z</time></trkpt><trkpt lat="40.61943" lon="15.1394183"><ele>122.0</ele><time>2026-05-02T10:09:54.86Z</time></trkpt><trkpt lat="40.6195433" lon="15.1393483"><ele>122.83333333333333</ele><time>2026-05-02T10:09:55.861Z</time></trkpt><trkpt lat="40.6196433" lon="15.1392867"><ele>123.66666666666666</ele><time>2026-05-02T10:09:56.861Z</time></trkpt><trkpt lat="40.61973" lon="15.13923"><ele>124.5</ele><time>2026-05-02T10:09:57.86Z</time></trkpt><trkpt lat="40.6198" lon="15.1391683"><ele>125.33333333333334</ele><time>2026-05-02T10:09:58.86Z</time></trkpt><trkpt lat="40.6198517" lon="15.1391017"><ele>126.16666666666667</ele><time>2026-05-02T10:09:59.861Z</time></trkpt><trkpt lat="40.6198867" lon="15.1390283"><ele>127.0</ele><time>2026-05-02T10:10:00.861Z</time></trkpt><trkpt lat="40.6199117" lon="15.1389433"><ele>127.57142857142858</ele><time>2026-05-02T10:10:01.861Z</time></trkpt><trkpt lat="40.619925" lon="15.138855"><ele>128.14285714285714</ele><time>2026-05-02T10:10:02.86Z</time></trkpt><trkpt lat="40.619925" lon="15.138765"><ele>128.71428571428572</ele><time>2026-05-02T10:10:03.861Z</time></trkpt><trkpt lat="40.6199117" lon="15.1386717"><ele>129.28571428571428</ele><time>2026-05-02T10:10:04.861Z</time></trkpt><trkpt lat="40.61989" lon="15.13858"><ele>129.85714285714286</ele><time>2026-05-02T10:10:05.861Z</time></trkpt><trkpt lat="40.61987" lon="15.1384817"><ele>130.42857142857144</ele><time>2026-05-02T10:10:06.861Z</time></trkpt><trkpt lat="40.6198433" lon="15.1383917"><ele>131.0</ele><time>2026-05-02T10:10:07.86Z</time></trkpt><trkpt lat="40.6198117" lon="15.1383117"><ele>131.0</ele><time>2026-05-02T10:10:08.86Z</time></trkpt><trkpt lat="40.6197683" lon="15.1382467"><ele>131.0</ele><time>2026-05-02T10:10:09.861Z</time></trkpt><trkpt lat="40.6197083" lon="15.138215"><ele>131.0</ele><time>2026-05-02T10:10:10.86Z</time></trkpt><trkpt lat="40.61963" lon="15.13821"><ele>131.0</ele><time>2026-05-02T10:10:11.86Z</time></trkpt><trkpt lat="40.6195583" lon="15.138195"><ele>131.0</ele><time>2026-05-02T10:10:12.86Z</time></trkpt><trkpt lat="40.6194967" lon="15.1381567"><ele>131.0</ele><time>2026-05-02T10:10:13.86Z</time></trkpt><trkpt lat="40.6194483" lon="15.1380867"><ele>131.0</ele><time>2026-05-02T10:10:14.861Z</time></trkpt><trkpt lat="40.6194283" lon="15.137995"><ele>131.16666666666666</ele><time>2026-05-02T10:10:15.86Z</time></trkpt><trkpt lat="40.6194233" lon="15.13791"><ele>131.33333333333331</ele><time>2026-05-02T10:10:16.861Z</time></trkpt><trkpt lat="40.6194417" lon="15.1378017"><ele>131.5</ele><time>2026-05-02T10:10:18.861Z</time></trkpt><trkpt lat="40.619475" lon="15.137715"><ele>131.66666666666666</ele><time>2026-05-02T10:10:23.861Z</time></trkpt><trkpt lat="40.6195783" lon="15.1377367"><ele>131.83333333333334</ele><time>2026-05-02T10:11:06.861Z</time></trkpt><trkpt lat="40.61967" lon="15.1377467"><ele>132.0</ele><time>2026-05-02T10:11:07.86Z</time></trkpt><trkpt lat="40.619785" lon="15.1377717"><ele>133.0</ele><time>2026-05-02T10:11:08.86Z</time></trkpt><trkpt lat="40.6199083" lon="15.1378083"><ele>134.0</ele><time>2026-05-02T10:11:09.861Z</time></trkpt><trkpt lat="40.62004" lon="15.1378417"><ele>135.0</ele><time>2026-05-02T10:11:10.861Z</time></trkpt><trkpt lat="40.62017" lon="15.1378783"><ele>136.0</ele><time>2026-05-02T10:11:11.86Z</time></trkpt><trkpt lat="40.620295" lon="15.1379117"><ele>137.25</ele><time>2026-05-02T10:11:12.861Z</time></trkpt><trkpt lat="40.620415" lon="15.1379367"><ele>138.5</ele><time>2026-05-02T10:11:13.86Z</time></trkpt><trkpt lat="40.6205317" lon="15.1379517"><ele>139.75</ele><time>2026-05-02T10:11:14.86Z</time></trkpt><trkpt lat="40.620655" lon="15.1379583"><ele>141.0</ele><time>2026-05-02T10:11:15.861Z</time></trkpt><trkpt lat="40.6207883" lon="15.1379517"><ele>141.0</ele><time>2026-05-02T10:11:16.861Z</time></trkpt><trkpt lat="40.6209317" lon="15.1379267"><ele>141.0</ele><time>2026-05-02T10:11:17.86Z</time></trkpt><trkpt lat="40.62107" lon="15.1379"><ele>141.0</ele><time>2026-05-02T10:11:18.86Z</time></trkpt><trkpt lat="40.6212067" lon="15.1378783"><ele>141.0</ele><time>2026-05-02T10:11:19.861Z</time></trkpt><trkpt lat="40.62134" lon="15.1378583"><ele>142.0</ele><time>2026-05-02T10:11:20.861Z</time></trkpt><trkpt lat="40.6214683" lon="15.1378367"><ele>143.0</ele><time>2026-05-02T10:11:21.861Z</time></trkpt><trkpt lat="40.6215867" lon="15.1378217"><ele>144.0</ele><time>2026-05-02T10:11:22.861Z</time></trkpt><trkpt lat="40.6217083" lon="15.1378017"><ele>145.0</ele><time>2026-05-02T10:11:23.861Z</time></trkpt><trkpt lat="40.62183" lon="15.1377733"><ele>145.0</ele><time>2026-05-02T10:11:24.86Z</time></trkpt><trkpt lat="40.6219483" lon="15.137735"><ele>145.0</ele><time>2026-05-02T10:11:25.86Z</time></trkpt><trkpt lat="40.6220683" lon="15.1376967"><ele>145.0</ele><time>2026-05-02T10:11:26.861Z</time></trkpt><trkpt lat="40.622185" lon="15.13766"><ele>145.0</ele><time>2026-05-02T10:11:27.86Z</time></trkpt><trkpt lat="40.6222983" lon="15.1376217"><ele>145.75</ele><time>2026-05-02T10:11:28.86Z</time></trkpt><trkpt lat="40.6224167" lon="15.1375767"><ele>146.5</ele><time>2026-05-02T10:11:29.861Z</time></trkpt><trkpt lat="40.622535" lon="15.1375217"><ele>147.25</ele><time>2026-05-02T10:11:30.86Z</time></trkpt><trkpt lat="40.6226483" lon="15.1374633"><ele>148.0</ele><time>2026-05-02T10:11:31.86Z</time></trkpt><trkpt lat="40.6227533" lon="15.137405"><ele>149.0</ele><time>2026-05-02T10:11:32.86Z</time></trkpt><trkpt lat="40.622845" lon="15.137345"><ele>150.0</ele><time>2026-05-02T10:11:33.86Z</time></trkpt><trkpt lat="40.622935" lon="15.1372817"><ele>151.0</ele><time>2026-05-02T10:11:34.86Z</time></trkpt><trkpt lat="40.6230167" lon="15.1372217"><ele>152.0</ele><time>2026-05-02T10:11:35.861Z</time></trkpt><trkpt lat="40.6230983" lon="15.13716"><ele>153.0</ele><time>2026-05-02T10:11:36.86Z</time></trkpt><trkpt lat="40.62317" lon="15.137105"><ele>153.0</ele><time>2026-05-02T10:11:37.861Z</time></trkpt><trkpt lat="40.623235" lon="15.1370567"><ele>153.0</ele><time>2026-05-02T10:11:38.86Z</time></trkpt><trkpt lat="40.6232883" lon="15.1370117"><ele>153.0</ele><time>2026-05-02T10:11:39.86Z</time></trkpt><trkpt lat="40.6233817" lon="15.1369183"><ele>153.0</ele><time>2026-05-02T10:11:41.861Z</time></trkpt><trkpt lat="40.62346" lon="15.1368367"><ele>153.0</ele><time>2026-05-02T10:11:43.86Z</time></trkpt><trkpt lat="40.6235167" lon="15.1367817"><ele>153.0</ele><time>2026-05-02T10:11:46.861Z</time></trkpt><trkpt lat="40.6235817" lon="15.1367383"><ele>153.0</ele><time>2026-05-02T10:11:51.86Z</time></trkpt><trkpt lat="40.6236517" lon="15.1367417"><ele>153.0</ele><time>2026-05-02T10:11:53.86Z</time></trkpt><trkpt lat="40.6236917" lon="15.1366683"><ele>153.0</ele><time>2026-05-02T10:11:56.861Z</time></trkpt><trkpt lat="40.6236133" lon="15.1366683"><ele>153.0</ele><time>2026-05-02T10:11:59.861Z</time></trkpt><trkpt lat="40.623515" lon="15.136775"><ele>153.0</ele><time>2026-05-02T10:12:01.861Z</time></trkpt><trkpt lat="40.6234367" lon="15.136865"><ele>153.0</ele><time>2026-05-02T10:12:02.861Z</time></trkpt><trkpt lat="40.62335" lon="15.1369517"><ele>153.0</ele><time>2026-05-02T10:12:03.86Z</time></trkpt><trkpt lat="40.623265" lon="15.1370283"><ele>153.0</ele><time>2026-05-02T10:12:04.861Z</time></trkpt><trkpt lat="40.623185" lon="15.1370967"><ele>153.0</ele><time>2026-05-02T10:12:05.861Z</time></trkpt><trkpt lat="40.6230933" lon="15.1371633"><ele>153.0</ele><time>2026-05-02T10:12:06.86Z</time></trkpt><trkpt lat="40.6229983" lon="15.13723"><ele>153.0</ele><time>2026-05-02T10:12:07.86Z</time></trkpt><trkpt lat="40.6229017" lon="15.137295"><ele>152.0</ele><time>2026-05-02T10:12:08.861Z</time></trkpt><trkpt lat="40.6228117" lon="15.1373617"><ele>151.0</ele><time>2026-05-02T10:12:09.861Z</time></trkpt><trkpt lat="40.6227167" lon="15.1374183"><ele>150.0</ele><time>2026-05-02T10:12:10.861Z</time></trkpt><trkpt lat="40.6226267" lon="15.13747"><ele>149.0</ele><time>2026-05-02T10:12:11.861Z</time></trkpt><trkpt lat="40.6225417" lon="15.1375083"><ele>148.0</ele><time>2026-05-02T10:12:12.86Z</time></trkpt><trkpt lat="40.6224633" lon="15.137545"><ele>148.0</ele><time>2026-05-02T10:12:13.86Z</time></trkpt><trkpt lat="40.6224033" lon="15.1375767"><ele>148.0</ele><time>2026-05-02T10:12:14.86Z</time></trkpt><trkpt lat="40.6223567" lon="15.1376517"><ele>148.0</ele><time>2026-05-02T10:12:17.86Z</time></trkpt><trkpt lat="40.6224083" lon="15.1377133"><ele>148.0</ele><time>2026-05-02T10:12:19.861Z</time></trkpt><trkpt lat="40.6225283" lon="15.1377833"><ele>148.0</ele><time>2026-05-02T10:12:21.861Z</time></trkpt><trkpt lat="40.6226" lon="15.1378233"><ele>148.0</ele><time>2026-05-02T10:12:22.861Z</time></trkpt><trkpt lat="40.6226783" lon="15.137865"><ele>148.0</ele><time>2026-05-02T10:12:23.861Z</time></trkpt><trkpt lat="40.6227583" lon="15.1379067"><ele>148.0</ele><time>2026-05-02T10:12:24.861Z</time></trkpt><trkpt lat="40.622845" lon="15.1379467"><ele>148.0</ele><time>2026-05-02T10:12:25.861Z</time></trkpt><trkpt lat="40.6229333" lon="15.1379767"><ele>148.0</ele><time>2026-05-02T10:12:26.86Z</time></trkpt><trkpt lat="40.62302" lon="15.1380067"><ele>148.0</ele><time>2026-05-02T10:12:27.861Z</time></trkpt><trkpt lat="40.623105" lon="15.138035"><ele>148.0</ele><time>2026-05-02T10:12:28.86Z</time></trkpt><trkpt lat="40.623195" lon="15.1380633"><ele>149.0</ele><time>2026-05-02T10:12:29.86Z</time></trkpt><trkpt lat="40.623285" lon="15.13809"><ele>150.0</ele><time>2026-05-02T10:12:30.861Z</time></trkpt><trkpt lat="40.6233733" lon="15.1381167"><ele>151.0</ele><time>2026-05-02T10:12:31.86Z</time></trkpt><trkpt lat="40.62346" lon="15.1381483"><ele>152.0</ele><time>2026-05-02T10:12:32.86Z</time></trkpt><trkpt lat="40.6235533" lon="15.1381717"><ele>153.0</ele><time>2026-05-02T10:12:33.86Z</time></trkpt><trkpt lat="40.623645" lon="15.13819"><ele>154.0</ele><time>2026-05-02T10:12:34.861Z</time></trkpt><trkpt lat="40.6237383" lon="15.1382083"><ele>155.0</ele><time>2026-05-02T10:12:35.86Z</time></trkpt><trkpt lat="40.6238317" lon="15.13824"><ele>156.0</ele><time>2026-05-02T10:12:36.86Z</time></trkpt><trkpt lat="40.623925" lon="15.1382733"><ele>157.0</ele><time>2026-05-02T10:12:37.86Z</time></trkpt><trkpt lat="40.6240183" lon="15.1383083"><ele>158.0</ele><time>2026-05-02T10:12:38.861Z</time></trkpt><trkpt lat="40.6241117" lon="15.1383417"><ele>158.0</ele><time>2026-05-02T10:12:39.861Z</time></trkpt><trkpt lat="40.6242067" lon="15.1383717"><ele>158.0</ele><time>2026-05-02T10:12:40.86Z</time></trkpt><trkpt lat="40.6242967" lon="15.1384033"><ele>158.0</ele><time>2026-05-02T10:12:41.86Z</time></trkpt><trkpt lat="40.6243883" lon="15.1384367"><ele>158.0</ele><time>2026-05-02T10:12:42.86Z</time></trkpt><trkpt lat="40.6244733" lon="15.13847"><ele>158.0</ele><time>2026-05-02T10:12:43.86Z</time></trkpt><trkpt lat="40.624565" lon="15.1385"><ele>158.83333333333331</ele><time>2026-05-02T10:12:44.861Z</time></trkpt><trkpt lat="40.6246517" lon="15.1385333"><ele>159.66666666666666</ele><time>2026-05-02T10:12:45.86Z</time></trkpt><trkpt lat="40.6247433" lon="15.1385567"><ele>160.5</ele><time>2026-05-02T10:12:46.861Z</time></trkpt><trkpt lat="40.62483" lon="15.1385817"><ele>161.33333333333334</ele><time>2026-05-02T10:12:47.861Z</time></trkpt><trkpt lat="40.6249183" lon="15.1386033"><ele>162.16666666666669</ele><time>2026-05-02T10:12:48.86Z</time></trkpt><trkpt lat="40.625005" lon="15.138615"><ele>163.0</ele><time>2026-05-02T10:12:49.86Z</time></trkpt><trkpt lat="40.6250933" lon="15.1386167"><ele>163.0</ele><time>2026-05-02T10:12:50.86Z</time></trkpt><trkpt lat="40.62518" lon="15.138615"><ele>163.0</ele><time>2026-05-02T10:12:51.86Z</time></trkpt><trkpt lat="40.6252617" lon="15.1386183"><ele>163.0</ele><time>2026-05-02T10:12:52.86Z</time></trkpt><trkpt lat="40.6253483" lon="15.1386283"><ele>163.0</ele><time>2026-05-02T10:12:53.86Z</time></trkpt><trkpt lat="40.6254317" lon="15.13864"><ele>163.0</ele><time>2026-05-02T10:12:54.861Z</time></trkpt><trkpt lat="40.62552" lon="15.1386433"><ele>163.0</ele><time>2026-05-02T10:12:55.861Z</time></trkpt><trkpt lat="40.6256117" lon="15.1386533"><ele>164.2</ele><time>2026-05-02T10:12:56.86Z</time></trkpt><trkpt lat="40.6257033" lon="15.1386767"><ele>165.4</ele><time>2026-05-02T10:12:57.861Z</time></trkpt><trkpt lat="40.6258" lon="15.138695"><ele>166.6</ele><time>2026-05-02T10:12:58.86Z</time></trkpt><trkpt lat="40.6258967" lon="15.13871"><ele>167.79999999999998</ele><time>2026-05-02T10:12:59.86Z</time></trkpt><trkpt lat="40.6259867" lon="15.1387233"><ele>169.0</ele><time>2026-05-02T10:13:00.86Z</time></trkpt><trkpt lat="40.626075" lon="15.1387333"><ele>170.16666666666669</ele><time>2026-05-02T10:13:01.861Z</time></trkpt><trkpt lat="40.626165" lon="15.1387383"><ele>171.33333333333334</ele><time>2026-05-02T10:13:02.86Z</time></trkpt><trkpt lat="40.6262533" lon="15.138745"><ele>172.5</ele><time>2026-05-02T10:13:03.861Z</time></trkpt><trkpt lat="40.6263433" lon="15.1387517"><ele>173.66666666666666</ele><time>2026-05-02T10:13:04.861Z</time></trkpt><trkpt lat="40.62643" lon="15.1387533"><ele>174.83333333333331</ele><time>2026-05-02T10:13:05.86Z</time></trkpt><trkpt lat="40.62652" lon="15.13875"><ele>176.0</ele><time>2026-05-02T10:13:06.861Z</time></trkpt><trkpt lat="40.62661" lon="15.1387417"><ele>176.0</ele><time>2026-05-02T10:13:07.861Z</time></trkpt><trkpt lat="40.6267" lon="15.1387267"><ele>176.0</ele><time>2026-05-02T10:13:08.861Z</time></trkpt><trkpt lat="40.6267917" lon="15.13871"><ele>176.0</ele><time>2026-05-02T10:13:09.86Z</time></trkpt><trkpt lat="40.6268883" lon="15.138695"><ele>176.0</ele><time>2026-05-02T10:13:10.86Z</time></trkpt><trkpt lat="40.6269833" lon="15.13868"><ele>176.0</ele><time>2026-05-02T10:13:11.86Z</time></trkpt><trkpt lat="40.62708" lon="15.1386683"><ele>177.33333333333331</ele><time>2026-05-02T10:13:12.86Z</time></trkpt><trkpt lat="40.6271683" lon="15.1386617"><ele>178.66666666666666</ele><time>2026-05-02T10:13:13.861Z</time></trkpt><trkpt lat="40.62725" lon="15.138655"><ele>180.0</ele><time>2026-05-02T10:13:14.86Z</time></trkpt><trkpt lat="40.6273283" lon="15.1386517"><ele>181.33333333333334</ele><time>2026-05-02T10:13:15.86Z</time></trkpt><trkpt lat="40.6274083" lon="15.13866"><ele>182.66666666666669</ele><time>2026-05-02T10:13:16.86Z</time></trkpt><trkpt lat="40.6274817" lon="15.1386583"><ele>184.0</ele><time>2026-05-02T10:13:17.86Z</time></trkpt><trkpt lat="40.627555" lon="15.1386633"><ele>184.0</ele><time>2026-05-02T10:13:18.861Z</time></trkpt><trkpt lat="40.6276283" lon="15.138665"><ele>184.0</ele><time>2026-05-02T10:13:19.861Z</time></trkpt><trkpt lat="40.6276983" lon="15.1386667"><ele>184.0</ele><time>2026-05-02T10:13:20.859Z</time></trkpt><trkpt lat="40.6277733" lon="15.1386617"><ele>184.0</ele><time>2026-05-02T10:13:21.86Z</time></trkpt><trkpt lat="40.6278433" lon="15.138655"><ele>184.0</ele><time>2026-05-02T10:13:22.86Z</time></trkpt><trkpt lat="40.62792" lon="15.1386517"><ele>184.0</ele><time>2026-05-02T10:13:23.859Z</time></trkpt><trkpt lat="40.627995" lon="15.138645"><ele>184.0</ele><time>2026-05-02T10:13:24.859Z</time></trkpt><trkpt lat="40.62807" lon="15.13864"><ele>185.0</ele><time>2026-05-02T10:13:25.859Z</time></trkpt><trkpt lat="40.62814" lon="15.1386317"><ele>186.0</ele><time>2026-05-02T10:13:26.86Z</time></trkpt><trkpt lat="40.6282033" lon="15.13863"><ele>187.0</ele><time>2026-05-02T10:13:27.86Z</time></trkpt><trkpt lat="40.6283083" lon="15.1386217"><ele>188.0</ele><time>2026-05-02T10:13:29.859Z</time></trkpt><trkpt lat="40.6284033" lon="15.13863"><ele>189.0</ele><time>2026-05-02T10:13:31.86Z</time></trkpt><trkpt lat="40.6285217" lon="15.13862"><ele>189.0</ele><time>2026-05-02T10:13:33.859Z</time></trkpt><trkpt lat="40.6286283" lon="15.1386083"><ele>189.0</ele><time>2026-05-02T10:13:35.859Z</time></trkpt><trkpt lat="40.628715" lon="15.1386083"><ele>189.0</ele><time>2026-05-02T10:14:07.859Z</time></trkpt><trkpt lat="40.6288233" lon="15.1386"><ele>189.0</ele><time>2026-05-02T10:14:09.859Z</time></trkpt><trkpt lat="40.62891" lon="15.13862"><ele>189.0</ele><time>2026-05-02T10:14:11.86Z</time></trkpt><trkpt lat="40.6288783" lon="15.1387417"><ele>189.0</ele><time>2026-05-02T10:14:14.859Z</time></trkpt><trkpt lat="40.6288183" lon="15.1387983"><ele>189.0</ele><time>2026-05-02T10:14:15.86Z</time></trkpt><trkpt lat="40.6287483" lon="15.1388633"><ele>189.0</ele><time>2026-05-02T10:14:16.86Z</time></trkpt><trkpt lat="40.6286717" lon="15.13893"><ele>189.0</ele><time>2026-05-02T10:14:17.86Z</time></trkpt><trkpt lat="40.6285933" lon="15.1389967"><ele>189.0</ele><time>2026-05-02T10:14:18.859Z</time></trkpt><trkpt lat="40.6285167" lon="15.1390633"><ele>189.0</ele><time>2026-05-02T10:14:19.859Z</time></trkpt><trkpt lat="40.6284433" lon="15.1391433"><ele>189.2</ele><time>2026-05-02T10:14:20.86Z</time></trkpt><trkpt lat="40.6283683" lon="15.1392283"><ele>189.39999999999998</ele><time>2026-05-02T10:14:21.86Z</time></trkpt><trkpt lat="40.6282967" lon="15.1393233"><ele>189.6</ele><time>2026-05-02T10:14:22.859Z</time></trkpt><trkpt lat="40.6282217" lon="15.1394233"><ele>189.8</ele><time>2026-05-02T10:14:23.859Z</time></trkpt><trkpt lat="40.628145" lon="15.1395283"><ele>190.0</ele><time>2026-05-02T10:14:24.86Z</time></trkpt><trkpt lat="40.6280667" lon="15.1396367"><ele>190.0</ele><time>2026-05-02T10:14:25.859Z</time></trkpt><trkpt lat="40.62799" lon="15.1397433"><ele>190.0</ele><time>2026-05-02T10:14:26.86Z</time></trkpt><trkpt lat="40.6279133" lon="15.1398533"><ele>190.0</ele><time>2026-05-02T10:14:27.86Z</time></trkpt><trkpt lat="40.6278483" lon="15.1399617"><ele>190.0</ele><time>2026-05-02T10:14:28.859Z</time></trkpt><trkpt lat="40.6277833" lon="15.1400683"><ele>190.0</ele><time>2026-05-02T10:14:29.859Z</time></trkpt><trkpt lat="40.6277167" lon="15.1401733"><ele>188.6</ele><time>2026-05-02T10:14:30.859Z</time></trkpt><trkpt lat="40.6276533" lon="15.140275"><ele>187.2</ele><time>2026-05-02T10:14:31.86Z</time></trkpt><trkpt lat="40.6275983" lon="15.1403883"><ele>185.8</ele><time>2026-05-02T10:14:32.86Z</time></trkpt><trkpt lat="40.6275433" lon="15.1405083"><ele>184.4</ele><time>2026-05-02T10:14:33.859Z</time></trkpt><trkpt lat="40.6274883" lon="15.14064"><ele>183.0</ele><time>2026-05-02T10:14:34.86Z</time></trkpt><trkpt lat="40.6274233" lon="15.1407617"><ele>182.75</ele><time>2026-05-02T10:14:35.86Z</time></trkpt><trkpt lat="40.6273533" lon="15.140885"><ele>182.5</ele><time>2026-05-02T10:14:36.86Z</time></trkpt><trkpt lat="40.62728" lon="15.14101"><ele>182.25</ele><time>2026-05-02T10:14:37.859Z</time></trkpt><trkpt lat="40.6272067" lon="15.1411217"><ele>182.0</ele><time>2026-05-02T10:14:38.86Z</time></trkpt><trkpt lat="40.6271383" lon="15.1412283"><ele>182.0</ele><time>2026-05-02T10:14:39.859Z</time></trkpt><trkpt lat="40.6270717" lon="15.141335"><ele>182.0</ele><time>2026-05-02T10:14:40.859Z</time></trkpt><trkpt lat="40.6270033" lon="15.141435"><ele>182.0</ele><time>2026-05-02T10:14:41.859Z</time></trkpt><trkpt lat="40.626935" lon="15.1415183"><ele>182.0</ele><time>2026-05-02T10:14:42.859Z</time></trkpt><trkpt lat="40.626855" lon="15.1415933"><ele>182.0</ele><time>2026-05-02T10:14:43.86Z</time></trkpt><trkpt lat="40.626785" lon="15.1416667"><ele>179.8</ele><time>2026-05-02T10:14:44.859Z</time></trkpt><trkpt lat="40.62672" lon="15.1417567"><ele>177.6</ele><time>2026-05-02T10:14:45.859Z</time></trkpt><trkpt lat="40.6266733" lon="15.141855"><ele>175.4</ele><time>2026-05-02T10:14:46.859Z</time></trkpt><trkpt lat="40.626625" lon="15.1419667"><ele>173.20000000000002</ele><time>2026-05-02T10:14:47.86Z</time></trkpt><trkpt lat="40.6265817" lon="15.1420833"><ele>171.0</ele><time>2026-05-02T10:14:48.86Z</time></trkpt><trkpt lat="40.62655" lon="15.1422083"><ele>171.0</ele><time>2026-05-02T10:14:49.86Z</time></trkpt><trkpt lat="40.6265233" lon="15.14234"><ele>171.0</ele><time>2026-05-02T10:14:50.86Z</time></trkpt><trkpt lat="40.6264933" lon="15.1424717"><ele>171.0</ele><time>2026-05-02T10:14:51.86Z</time></trkpt><trkpt lat="40.6264633" lon="15.1426"><ele>171.0</ele><time>2026-05-02T10:14:52.86Z</time></trkpt><trkpt lat="40.626425" lon="15.142715"><ele>171.0</ele><time>2026-05-02T10:14:53.859Z</time></trkpt><trkpt lat="40.6263717" lon="15.1428133"><ele>170.0</ele><time>2026-05-02T10:14:54.859Z</time></trkpt><trkpt lat="40.626305" lon="15.1428817"><ele>169.0</ele><time>2026-05-02T10:14:55.859Z</time></trkpt><trkpt lat="40.6262267" lon="15.142925"><ele>168.0</ele><time>2026-05-02T10:14:56.859Z</time></trkpt><trkpt lat="40.62614" lon="15.1429433"><ele>167.0</ele><time>2026-05-02T10:14:57.859Z</time></trkpt><trkpt lat="40.62606" lon="15.14297"><ele>166.0</ele><time>2026-05-02T10:14:58.859Z</time></trkpt><trkpt lat="40.6259883" lon="15.1430133"><ele>165.0</ele><time>2026-05-02T10:14:59.86Z</time></trkpt><trkpt lat="40.6259283" lon="15.1430783"><ele>164.5</ele><time>2026-05-02T10:15:00.86Z</time></trkpt><trkpt lat="40.62589" lon="15.143165"><ele>164.0</ele><time>2026-05-02T10:15:01.859Z</time></trkpt><trkpt lat="40.6258583" lon="15.1432617"><ele>163.5</ele><time>2026-05-02T10:15:02.86Z</time></trkpt><trkpt lat="40.62583" lon="15.143375"><ele>163.0</ele><time>2026-05-02T10:15:03.859Z</time></trkpt><trkpt lat="40.6258" lon="15.1434883"><ele>162.5</ele><time>2026-05-02T10:15:04.859Z</time></trkpt><trkpt lat="40.62577" lon="15.1436067"><ele>162.0</ele><time>2026-05-02T10:15:05.86Z</time></trkpt><trkpt lat="40.625735" lon="15.1437183"><ele>163.2</ele><time>2026-05-02T10:15:06.859Z</time></trkpt><trkpt lat="40.6257033" lon="15.14383"><ele>164.39999999999998</ele><time>2026-05-02T10:15:07.859Z</time></trkpt><trkpt lat="40.625665" lon="15.1439317"><ele>165.60000000000002</ele><time>2026-05-02T10:15:08.86Z</time></trkpt><trkpt lat="40.6256367" lon="15.1440367"><ele>166.8</ele><time>2026-05-02T10:15:09.86Z</time></trkpt><trkpt lat="40.6256183" lon="15.1441633"><ele>168.0</ele><time>2026-05-02T10:15:10.859Z</time></trkpt><trkpt lat="40.6256" lon="15.1442883"><ele>168.8</ele><time>2026-05-02T10:15:11.86Z</time></trkpt><trkpt lat="40.6255833" lon="15.1444067"><ele>169.60000000000002</ele><time>2026-05-02T10:15:12.86Z</time></trkpt><trkpt lat="40.625565" lon="15.144525"><ele>170.39999999999998</ele><time>2026-05-02T10:15:13.86Z</time></trkpt><trkpt lat="40.6255383" lon="15.1446433"><ele>171.2</ele><time>2026-05-02T10:15:14.859Z</time></trkpt><trkpt lat="40.625505" lon="15.14476"><ele>172.0</ele><time>2026-05-02T10:15:15.86Z</time></trkpt><trkpt lat="40.62547" lon="15.1448733"><ele>172.0</ele><time>2026-05-02T10:15:16.86Z</time></trkpt><trkpt lat="40.6254333" lon="15.1449817"><ele>172.0</ele><time>2026-05-02T10:15:17.86Z</time></trkpt><trkpt lat="40.6253933" lon="15.1450833"><ele>172.0</ele><time>2026-05-02T10:15:18.859Z</time></trkpt><trkpt lat="40.62535" lon="15.1451717"><ele>172.0</ele><time>2026-05-02T10:15:19.86Z</time></trkpt><trkpt lat="40.6253017" lon="15.1452517"><ele>172.0</ele><time>2026-05-02T10:15:20.859Z</time></trkpt><trkpt lat="40.6252533" lon="15.1453317"><ele>172.0</ele><time>2026-05-02T10:15:21.86Z</time></trkpt><trkpt lat="40.6252017" lon="15.1454033"><ele>172.0</ele><time>2026-05-02T10:15:22.86Z</time></trkpt><trkpt lat="40.6251433" lon="15.145475"><ele>172.0</ele><time>2026-05-02T10:15:23.86Z</time></trkpt><trkpt lat="40.62508" lon="15.14554"><ele>172.0</ele><time>2026-05-02T10:15:24.859Z</time></trkpt><trkpt lat="40.6250183" lon="15.145605"><ele>172.0</ele><time>2026-05-02T10:15:25.86Z</time></trkpt><trkpt lat="40.624955" lon="15.1456783"><ele>172.0</ele><time>2026-05-02T10:15:26.859Z</time></trkpt><trkpt lat="40.6248917" lon="15.1457517"><ele>172.0</ele><time>2026-05-02T10:15:27.86Z</time></trkpt><trkpt lat="40.6248267" lon="15.1458217"><ele>172.5</ele><time>2026-05-02T10:15:28.86Z</time></trkpt><trkpt lat="40.6247633" lon="15.1458883"><ele>173.0</ele><time>2026-05-02T10:15:29.859Z</time></trkpt><trkpt lat="40.6247033" lon="15.1459567"><ele>173.5</ele><time>2026-05-02T10:15:30.86Z</time></trkpt><trkpt lat="40.6246483" lon="15.1460217"><ele>174.0</ele><time>2026-05-02T10:15:31.859Z</time></trkpt><trkpt lat="40.62459" lon="15.1460867"><ele>174.5</ele><time>2026-05-02T10:15:32.86Z</time></trkpt><trkpt lat="40.6245383" lon="15.1461533"><ele>175.0</ele><time>2026-05-02T10:15:33.859Z</time></trkpt><trkpt lat="40.624485" lon="15.14622"><ele>174.83333333333334</ele><time>2026-05-02T10:15:34.86Z</time></trkpt><trkpt lat="40.62443" lon="15.1462883"><ele>174.66666666666669</ele><time>2026-05-02T10:15:35.86Z</time></trkpt><trkpt lat="40.6243767" lon="15.1463583"><ele>174.5</ele><time>2026-05-02T10:15:36.86Z</time></trkpt><trkpt lat="40.624325" lon="15.1464317"><ele>174.33333333333334</ele><time>2026-05-02T10:15:37.859Z</time></trkpt><trkpt lat="40.6242683" lon="15.1465"><ele>174.16666666666666</ele><time>2026-05-02T10:15:38.86Z</time></trkpt><trkpt lat="40.6242083" lon="15.146565"><ele>174.0</ele><time>2026-05-02T10:15:39.859Z</time></trkpt><trkpt lat="40.6241467" lon="15.1466283"><ele>174.0</ele><time>2026-05-02T10:15:40.859Z</time></trkpt><trkpt lat="40.6240817" lon="15.1466967"><ele>174.0</ele><time>2026-05-02T10:15:41.859Z</time></trkpt><trkpt lat="40.6240133" lon="15.1467617"><ele>174.0</ele><time>2026-05-02T10:15:42.86Z</time></trkpt><trkpt lat="40.6239467" lon="15.1468333"><ele>174.0</ele><time>2026-05-02T10:15:43.859Z</time></trkpt><trkpt lat="40.6238817" lon="15.1469033"><ele>174.0</ele><time>2026-05-02T10:15:44.86Z</time></trkpt><trkpt lat="40.6238133" lon="15.146975"><ele>174.0</ele><time>2026-05-02T10:15:45.86Z</time></trkpt><trkpt lat="40.6237467" lon="15.1470517"><ele>174.0</ele><time>2026-05-02T10:15:46.859Z</time></trkpt><trkpt lat="40.6236767" lon="15.14713"><ele>174.0</ele><time>2026-05-02T10:15:47.86Z</time></trkpt><trkpt lat="40.6236067" lon="15.1472067"><ele>174.0</ele><time>2026-05-02T10:15:48.859Z</time></trkpt><trkpt lat="40.6235367" lon="15.1472833"><ele>174.0</ele><time>2026-05-02T10:15:49.86Z</time></trkpt><trkpt lat="40.6234683" lon="15.1473667"><ele>174.0</ele><time>2026-05-02T10:15:50.86Z</time></trkpt><trkpt lat="40.6234033" lon="15.1474533"><ele>173.0</ele><time>2026-05-02T10:15:51.859Z</time></trkpt><trkpt lat="40.6233383" lon="15.147545"><ele>172.0</ele><time>2026-05-02T10:15:52.86Z</time></trkpt><trkpt lat="40.623275" lon="15.14764"><ele>171.0</ele><time>2026-05-02T10:15:53.86Z</time></trkpt><trkpt lat="40.6232183" lon="15.1477417"><ele>170.0</ele><time>2026-05-02T10:15:54.859Z</time></trkpt><trkpt lat="40.6231633" lon="15.1478483"><ele>169.0</ele><time>2026-05-02T10:15:55.859Z</time></trkpt><trkpt lat="40.62311" lon="15.1479583"><ele>169.0</ele><time>2026-05-02T10:15:56.859Z</time></trkpt><trkpt lat="40.6230567" lon="15.1480767"><ele>169.0</ele><time>2026-05-02T10:15:57.86Z</time></trkpt><trkpt lat="40.623" lon="15.148185"><ele>169.0</ele><time>2026-05-02T10:15:58.859Z</time></trkpt><trkpt lat="40.6229433" lon="15.1483"><ele>169.0</ele><time>2026-05-02T10:15:59.859Z</time></trkpt><trkpt lat="40.62288" lon="15.148415"><ele>169.0</ele><time>2026-05-02T10:16:00.859Z</time></trkpt><trkpt lat="40.6228233" lon="15.14853"><ele>168.66666666666669</ele><time>2026-05-02T10:16:01.859Z</time></trkpt><trkpt lat="40.62277" lon="15.14864"><ele>168.33333333333334</ele><time>2026-05-02T10:16:02.859Z</time></trkpt><trkpt lat="40.62272" lon="15.1487433"><ele>168.0</ele><time>2026-05-02T10:16:03.859Z</time></trkpt><trkpt lat="40.6226767" lon="15.1488417"><ele>167.66666666666666</ele><time>2026-05-02T10:16:04.859Z</time></trkpt><trkpt lat="40.6226417" lon="15.1489233"><ele>167.33333333333331</ele><time>2026-05-02T10:16:05.859Z</time></trkpt><trkpt lat="40.622585" lon="15.1490167"><ele>167.0</ele><time>2026-05-02T10:16:07.86Z</time></trkpt><trkpt lat="40.6225567" lon="15.1491167"><ele>167.0</ele><time>2026-05-02T10:16:41.86Z</time></trkpt><trkpt lat="40.6225733" lon="15.1492217"><ele>167.0</ele><time>2026-05-02T10:16:43.859Z</time></trkpt><trkpt lat="40.6226283" lon="15.14935"><ele>167.0</ele><time>2026-05-02T10:16:45.86Z</time></trkpt><trkpt lat="40.62269" lon="15.1495017"><ele>167.0</ele><time>2026-05-02T10:16:47.859Z</time></trkpt><trkpt lat="40.622745" lon="15.1496433"><ele>167.0</ele><time>2026-05-02T10:16:49.86Z</time></trkpt><trkpt lat="40.6228017" lon="15.1497867"><ele>168.25</ele><time>2026-05-02T10:16:51.86Z</time></trkpt><trkpt lat="40.6228517" lon="15.1499283"><ele>169.5</ele><time>2026-05-02T10:16:53.859Z</time></trkpt><trkpt lat="40.622905" lon="15.1500717"><ele>170.75</ele><time>2026-05-02T10:16:55.86Z</time></trkpt><trkpt lat="40.6229533" lon="15.1502133"><ele>172.0</ele><time>2026-05-02T10:16:57.859Z</time></trkpt><trkpt lat="40.6230083" lon="15.1503533"><ele>172.0</ele><time>2026-05-02T10:16:59.86Z</time></trkpt><trkpt lat="40.62306" lon="15.1504917"><ele>172.0</ele><time>2026-05-02T10:17:01.86Z</time></trkpt><trkpt lat="40.6231517" lon="15.1505717"><ele>172.0</ele><time>2026-05-02T10:17:03.86Z</time></trkpt><trkpt lat="40.623265" lon="15.1505633"><ele>172.0</ele><time>2026-05-02T10:17:05.86Z</time></trkpt><trkpt lat="40.623375" lon="15.1505317"><ele>172.0</ele><time>2026-05-02T10:17:07.86Z</time></trkpt><trkpt lat="40.62348" lon="15.1505083"><ele>172.0</ele><time>2026-05-02T10:17:09.86Z</time></trkpt><trkpt lat="40.6235967" lon="15.150485"><ele>172.0</ele><time>2026-05-02T10:17:11.86Z</time></trkpt><trkpt lat="40.6236633" lon="15.150475"><ele>172.0</ele><time>2026-05-02T10:17:12.86Z</time></trkpt><trkpt lat="40.62373" lon="15.1504583"><ele>172.0</ele><time>2026-05-02T10:17:13.86Z</time></trkpt><trkpt lat="40.6238067" lon="15.1504433"><ele>172.0</ele><time>2026-05-02T10:17:14.86Z</time></trkpt><trkpt lat="40.6238867" lon="15.15043"><ele>173.2</ele><time>2026-05-02T10:17:15.86Z</time></trkpt><trkpt lat="40.62397" lon="15.15041"><ele>174.39999999999998</ele><time>2026-05-02T10:17:16.859Z</time></trkpt><trkpt lat="40.6240567" lon="15.1503933"><ele>175.60000000000002</ele><time>2026-05-02T10:17:17.86Z</time></trkpt><trkpt lat="40.6241483" lon="15.1503733"><ele>176.8</ele><time>2026-05-02T10:17:18.86Z</time></trkpt><trkpt lat="40.6242417" lon="15.1503517"><ele>178.0</ele><time>2026-05-02T10:17:19.859Z</time></trkpt><trkpt lat="40.6243333" lon="15.1503333"><ele>178.0</ele><time>2026-05-02T10:17:20.86Z</time></trkpt><trkpt lat="40.62443" lon="15.1503117"><ele>178.0</ele><time>2026-05-02T10:17:21.86Z</time></trkpt><trkpt lat="40.6245217" lon="15.150295"><ele>178.0</ele><time>2026-05-02T10:17:22.859Z</time></trkpt><trkpt lat="40.6246117" lon="15.1502767"><ele>178.0</ele><time>2026-05-02T10:17:23.858Z</time></trkpt><trkpt lat="40.624695" lon="15.1502567"><ele>178.0</ele><time>2026-05-02T10:17:24.859Z</time></trkpt><trkpt lat="40.6247783" lon="15.1502317"><ele>178.5</ele><time>2026-05-02T10:17:25.858Z</time></trkpt><trkpt lat="40.6248567" lon="15.1502117"><ele>179.0</ele><time>2026-05-02T10:17:26.858Z</time></trkpt><trkpt lat="40.624935" lon="15.1502"><ele>179.5</ele><time>2026-05-02T10:17:27.859Z</time></trkpt><trkpt lat="40.6250133" lon="15.1501883"><ele>180.0</ele><time>2026-05-02T10:17:28.859Z</time></trkpt><trkpt lat="40.6250883" lon="15.1501733"><ele>180.5</ele><time>2026-05-02T10:17:29.858Z</time></trkpt><trkpt lat="40.62516" lon="15.1501517"><ele>181.0</ele><time>2026-05-02T10:17:30.858Z</time></trkpt><trkpt lat="40.625235" lon="15.1501367"><ele>181.0</ele><time>2026-05-02T10:17:31.858Z</time></trkpt><trkpt lat="40.6253067" lon="15.15012"><ele>181.0</ele><time>2026-05-02T10:17:32.859Z</time></trkpt><trkpt lat="40.6253783" lon="15.1501033"><ele>181.0</ele><time>2026-05-02T10:17:33.858Z</time></trkpt><trkpt lat="40.62545" lon="15.1500867"><ele>181.0</ele><time>2026-05-02T10:17:34.859Z</time></trkpt><trkpt lat="40.6255183" lon="15.1500733"><ele>181.0</ele><time>2026-05-02T10:17:35.859Z</time></trkpt><trkpt lat="40.6256383" lon="15.1500467"><ele>181.0</ele><time>2026-05-02T10:17:37.859Z</time></trkpt><trkpt lat="40.6257017" lon="15.1500333"><ele>181.66666666666669</ele><time>2026-05-02T10:17:38.859Z</time></trkpt><trkpt lat="40.6257717" lon="15.150025"><ele>182.33333333333334</ele><time>2026-05-02T10:17:39.858Z</time></trkpt><trkpt lat="40.6258467" lon="15.1500167"><ele>183.0</ele><time>2026-05-02T10:17:40.858Z</time></trkpt><trkpt lat="40.625925" lon="15.1500083"><ele>183.66666666666666</ele><time>2026-05-02T10:17:41.859Z</time></trkpt><trkpt lat="40.6260067" lon="15.1499967"><ele>184.33333333333331</ele><time>2026-05-02T10:17:42.859Z</time></trkpt><trkpt lat="40.626075" lon="15.1499833"><ele>185.0</ele><time>2026-05-02T10:17:43.859Z</time></trkpt><trkpt lat="40.626165" lon="15.149965"><ele>185.0</ele><time>2026-05-02T10:17:45.858Z</time></trkpt><trkpt lat="40.6262233" lon="15.15001"><ele>185.0</ele><time>2026-05-02T10:17:49.859Z</time></trkpt><trkpt lat="40.6261867" lon="15.1500933"><ele>185.0</ele><time>2026-05-02T10:17:52.858Z</time></trkpt><trkpt lat="40.6261333" lon="15.15018"><ele>185.0</ele><time>2026-05-02T10:17:54.859Z</time></trkpt><trkpt lat="40.6260783" lon="15.1503117"><ele>185.0</ele><time>2026-05-02T10:17:56.859Z</time></trkpt><trkpt lat="40.6260467" lon="15.150385"><ele>185.0</ele><time>2026-05-02T10:17:57.859Z</time></trkpt><trkpt lat="40.6260167" lon="15.1504683"><ele>185.0</ele><time>2026-05-02T10:17:58.859Z</time></trkpt><trkpt lat="40.6259883" lon="15.150565"><ele>185.0</ele><time>2026-05-02T10:17:59.859Z</time></trkpt><trkpt lat="40.6259483" lon="15.1506533"><ele>185.0</ele><time>2026-05-02T10:18:00.858Z</time></trkpt><trkpt lat="40.6259083" lon="15.15074"><ele>185.0</ele><time>2026-05-02T10:18:01.858Z</time></trkpt><trkpt lat="40.62587" lon="15.1508283"><ele>185.0</ele><time>2026-05-02T10:18:02.859Z</time></trkpt><trkpt lat="40.625835" lon="15.150915"><ele>185.0</ele><time>2026-05-02T10:18:03.858Z</time></trkpt><trkpt lat="40.6257967" lon="15.1510033"><ele>184.85714285714283</ele><time>2026-05-02T10:18:04.859Z</time></trkpt><trkpt lat="40.6257583" lon="15.1510867"><ele>184.71428571428572</ele><time>2026-05-02T10:18:05.859Z</time></trkpt><trkpt lat="40.6257217" lon="15.1511667"><ele>184.57142857142856</ele><time>2026-05-02T10:18:06.859Z</time></trkpt><trkpt lat="40.6256883" lon="15.15125"><ele>184.42857142857142</ele><time>2026-05-02T10:18:07.859Z</time></trkpt><trkpt lat="40.62565" lon="15.151335"><ele>184.28571428571428</ele><time>2026-05-02T10:18:08.859Z</time></trkpt><trkpt lat="40.6256133" lon="15.151415"><ele>184.14285714285714</ele><time>2026-05-02T10:18:09.858Z</time></trkpt><trkpt lat="40.6255783" lon="15.1515017"><ele>184.0</ele><time>2026-05-02T10:18:10.858Z</time></trkpt><trkpt lat="40.6255433" lon="15.1515967"><ele>183.6</ele><time>2026-05-02T10:18:11.858Z</time></trkpt><trkpt lat="40.6255067" lon="15.1516967"><ele>183.2</ele><time>2026-05-02T10:18:12.859Z</time></trkpt><trkpt lat="40.6254717" lon="15.1518033"><ele>182.79999999999998</ele><time>2026-05-02T10:18:13.858Z</time></trkpt><trkpt lat="40.62544" lon="15.15192"><ele>182.39999999999998</ele><time>2026-05-02T10:18:14.859Z</time></trkpt><trkpt lat="40.6254067" lon="15.1520367"><ele>182.0</ele><time>2026-05-02T10:18:15.859Z</time></trkpt><trkpt lat="40.625375" lon="15.15215"><ele>182.0</ele><time>2026-05-02T10:18:16.858Z</time></trkpt><trkpt lat="40.6253483" lon="15.152255"><ele>182.0</ele><time>2026-05-02T10:18:17.859Z</time></trkpt><trkpt lat="40.6253233" lon="15.1523583"><ele>182.0</ele><time>2026-05-02T10:18:18.858Z</time></trkpt><trkpt lat="40.6252933" lon="15.1524567"><ele>182.0</ele><time>2026-05-02T10:18:19.859Z</time></trkpt><trkpt lat="40.6252683" lon="15.15255"><ele>182.0</ele><time>2026-05-02T10:18:20.858Z</time></trkpt><trkpt lat="40.625245" lon="15.15264"><ele>182.0</ele><time>2026-05-02T10:18:21.859Z</time></trkpt><trkpt lat="40.625225" lon="15.152725"><ele>180.6</ele><time>2026-05-02T10:18:22.859Z</time></trkpt><trkpt lat="40.6252083" lon="15.152805"><ele>179.2</ele><time>2026-05-02T10:18:23.858Z</time></trkpt><trkpt lat="40.6251717" lon="15.1529567"><ele>177.8</ele><time>2026-05-02T10:18:25.859Z</time></trkpt><trkpt lat="40.62513" lon="15.1530867"><ele>176.4</ele><time>2026-05-02T10:18:27.858Z</time></trkpt><trkpt lat="40.62507" lon="15.1531933"><ele>175.0</ele><time>2026-05-02T10:18:29.859Z</time></trkpt><trkpt lat="40.62501" lon="15.1532917"><ele>173.0</ele><time>2026-05-02T10:18:31.859Z</time></trkpt><trkpt lat="40.6250183" lon="15.15339"><ele>171.0</ele><time>2026-05-02T10:18:33.858Z</time></trkpt><trkpt lat="40.625115" lon="15.1534567"><ele>169.0</ele><time>2026-05-02T10:18:35.858Z</time></trkpt><trkpt lat="40.6251967" lon="15.1534817"><ele>167.0</ele><time>2026-05-02T10:18:36.858Z</time></trkpt><trkpt lat="40.6252917" lon="15.1535067"><ele>165.0</ele><time>2026-05-02T10:18:37.859Z</time></trkpt><trkpt lat="40.6253933" lon="15.1535217"><ele>165.0</ele><time>2026-05-02T10:18:38.859Z</time></trkpt><trkpt lat="40.6254917" lon="15.1535467"><ele>165.0</ele><time>2026-05-02T10:18:39.859Z</time></trkpt><trkpt lat="40.6255883" lon="15.15358"><ele>165.0</ele><time>2026-05-02T10:18:40.859Z</time></trkpt><trkpt lat="40.6256783" lon="15.1536183"><ele>165.0</ele><time>2026-05-02T10:18:41.859Z</time></trkpt><trkpt lat="40.6257567" lon="15.1536567"><ele>165.0</ele><time>2026-05-02T10:18:42.858Z</time></trkpt><trkpt lat="40.6258317" lon="15.1537033"><ele>165.0</ele><time>2026-05-02T10:18:43.858Z</time></trkpt><trkpt lat="40.6259117" lon="15.15375"><ele>165.0</ele><time>2026-05-02T10:18:44.859Z</time></trkpt><trkpt lat="40.6259867" lon="15.153805"><ele>165.0</ele><time>2026-05-02T10:18:45.858Z</time></trkpt><trkpt lat="40.6260517" lon="15.1538767"><ele>165.0</ele><time>2026-05-02T10:18:46.858Z</time></trkpt><trkpt lat="40.6261233" lon="15.1539433"><ele>165.0</ele><time>2026-05-02T10:18:47.858Z</time></trkpt><trkpt lat="40.6261883" lon="15.15401"><ele>165.0</ele><time>2026-05-02T10:18:48.859Z</time></trkpt><trkpt lat="40.6262533" lon="15.15406"><ele>159.2</ele><time>2026-05-02T10:18:49.858Z</time></trkpt><trkpt lat="40.6263483" lon="15.154155"><ele>153.4</ele><time>2026-05-02T10:18:51.858Z</time></trkpt><trkpt lat="40.6263817" lon="15.1542417"><ele>147.6</ele><time>2026-05-02T10:18:52.858Z</time></trkpt><trkpt lat="40.6263983" lon="15.154345"><ele>141.8</ele><time>2026-05-02T10:18:53.858Z</time></trkpt><trkpt lat="40.62641" lon="15.1544583"><ele>136.0</ele><time>2026-05-02T10:18:54.858Z</time></trkpt><trkpt lat="40.626425" lon="15.1545817"><ele>136.0</ele><time>2026-05-02T10:18:55.859Z</time></trkpt><trkpt lat="40.6264417" lon="15.1546983"><ele>136.0</ele><time>2026-05-02T10:18:56.859Z</time></trkpt><trkpt lat="40.6264533" lon="15.154795"><ele>136.0</ele><time>2026-05-02T10:18:57.859Z</time></trkpt><trkpt lat="40.6264617" lon="15.1548867"><ele>136.0</ele><time>2026-05-02T10:18:58.859Z</time></trkpt><trkpt lat="40.6264667" lon="15.1549783"><ele>136.0</ele><time>2026-05-02T10:18:59.859Z</time></trkpt><trkpt lat="40.6264683" lon="15.1550617"><ele>136.0</ele><time>2026-05-02T10:19:00.858Z</time></trkpt><trkpt lat="40.6264733" lon="15.1551933"><ele>135.5</ele><time>2026-05-02T10:19:02.859Z</time></trkpt><trkpt lat="40.6264733" lon="15.1552867"><ele>135.0</ele><time>2026-05-02T10:19:04.858Z</time></trkpt><trkpt lat="40.626475" lon="15.1554133"><ele>134.5</ele><time>2026-05-02T10:19:06.859Z</time></trkpt><trkpt lat="40.6264783" lon="15.1555017"><ele>134.0</ele><time>2026-05-02T10:19:07.859Z</time></trkpt><trkpt lat="40.6264883" lon="15.1556633"><ele>133.5</ele><time>2026-05-02T10:19:09.858Z</time></trkpt><trkpt lat="40.6264933" lon="15.15575"><ele>133.0</ele><time>2026-05-02T10:19:10.858Z</time></trkpt><trkpt lat="40.6265033" lon="15.1558467"><ele>133.0</ele><time>2026-05-02T10:19:11.859Z</time></trkpt><trkpt lat="40.6265183" lon="15.15595"><ele>133.0</ele><time>2026-05-02T10:19:12.859Z</time></trkpt><trkpt lat="40.6265333" lon="15.1560533"><ele>133.0</ele><time>2026-05-02T10:19:13.858Z</time></trkpt><trkpt lat="40.6265483" lon="15.1561633"><ele>133.0</ele><time>2026-05-02T10:19:14.859Z</time></trkpt><trkpt lat="40.6265667" lon="15.1562733"><ele>133.0</ele><time>2026-05-02T10:19:15.859Z</time></trkpt><trkpt lat="40.626585" lon="15.1563867"><ele>133.0</ele><time>2026-05-02T10:19:16.858Z</time></trkpt><trkpt lat="40.6265967" lon="15.1565033"><ele>133.33333333333334</ele><time>2026-05-02T10:19:17.859Z</time></trkpt><trkpt lat="40.6266067" lon="15.156615"><ele>133.66666666666669</ele><time>2026-05-02T10:19:18.858Z</time></trkpt><trkpt lat="40.62662" lon="15.1567133"><ele>134.0</ele><time>2026-05-02T10:19:19.859Z</time></trkpt><trkpt lat="40.6266283" lon="15.1568117"><ele>134.33333333333334</ele><time>2026-05-02T10:19:20.859Z</time></trkpt><trkpt lat="40.6266383" lon="15.1569033"><ele>134.66666666666666</ele><time>2026-05-02T10:19:21.859Z</time></trkpt><trkpt lat="40.6266567" lon="15.157"><ele>135.0</ele><time>2026-05-02T10:19:22.858Z</time></trkpt><trkpt lat="40.6266833" lon="15.1570983"><ele>135.0</ele><time>2026-05-02T10:19:23.858Z</time></trkpt><trkpt lat="40.6267117" lon="15.1572"><ele>135.0</ele><time>2026-05-02T10:19:24.858Z</time></trkpt><trkpt lat="40.626735" lon="15.157295"><ele>135.0</ele><time>2026-05-02T10:19:25.858Z</time></trkpt><trkpt lat="40.6267533" lon="15.1573883"><ele>135.0</ele><time>2026-05-02T10:19:26.858Z</time></trkpt><trkpt lat="40.62677" lon="15.1574817"><ele>135.0</ele><time>2026-05-02T10:19:27.858Z</time></trkpt><trkpt lat="40.626785" lon="15.1575767"><ele>135.0</ele><time>2026-05-02T10:19:28.859Z</time></trkpt><trkpt lat="40.6267967" lon="15.1576683"><ele>135.0</ele><time>2026-05-02T10:19:29.858Z</time></trkpt><trkpt lat="40.626805" lon="15.15776"><ele>135.0</ele><time>2026-05-02T10:19:30.859Z</time></trkpt><trkpt lat="40.6268033" lon="15.1578433"><ele>135.0</ele><time>2026-05-02T10:19:31.859Z</time></trkpt><trkpt lat="40.6267917" lon="15.1579283"><ele>135.0</ele><time>2026-05-02T10:19:32.859Z</time></trkpt><trkpt lat="40.6267783" lon="15.1580183"><ele>135.0</ele><time>2026-05-02T10:19:33.858Z</time></trkpt><trkpt lat="40.6267717" lon="15.1581683"><ele>135.0</ele><time>2026-05-02T10:19:35.859Z</time></trkpt><trkpt lat="40.62681" lon="15.158295"><ele>135.0</ele><time>2026-05-02T10:19:37.859Z</time></trkpt><trkpt lat="40.62687" lon="15.1584383"><ele>135.0</ele><time>2026-05-02T10:19:39.859Z</time></trkpt><trkpt lat="40.6269017" lon="15.1585267"><ele>135.0</ele><time>2026-05-02T10:19:40.859Z</time></trkpt><trkpt lat="40.6269367" lon="15.1586233"><ele>135.0</ele><time>2026-05-02T10:19:41.858Z</time></trkpt><trkpt lat="40.6269717" lon="15.1587183"><ele>135.0</ele><time>2026-05-02T10:19:42.858Z</time></trkpt><trkpt lat="40.627" lon="15.1588017"><ele>135.0</ele><time>2026-05-02T10:19:43.858Z</time></trkpt><trkpt lat="40.62703" lon="15.158925"><ele>135.0</ele><time>2026-05-02T10:19:45.859Z</time></trkpt><trkpt lat="40.6270333" lon="15.1590417"><ele>138.33333333333334</ele><time>2026-05-02T10:20:11.858Z</time></trkpt><trkpt lat="40.6270533" lon="15.1592033"><ele>141.66666666666666</ele><time>2026-05-02T10:20:13.859Z</time></trkpt><trkpt lat="40.6270583" lon="15.15931"><ele>145.0</ele><time>2026-05-02T10:20:14.858Z</time></trkpt><trkpt lat="40.6270717" lon="15.159425"><ele>148.33333333333331</ele><time>2026-05-02T10:20:15.858Z</time></trkpt><trkpt lat="40.6270817" lon="15.15953"><ele>151.66666666666666</ele><time>2026-05-02T10:20:16.859Z</time></trkpt><trkpt lat="40.6270933" lon="15.159625"><ele>155.0</ele><time>2026-05-02T10:20:17.859Z</time></trkpt><trkpt lat="40.6271033" lon="15.1597217"><ele>155.0</ele><time>2026-05-02T10:20:18.859Z</time></trkpt><trkpt lat="40.627115" lon="15.15981"><ele>155.0</ele><time>2026-05-02T10:20:19.858Z</time></trkpt><trkpt lat="40.627095" lon="15.1599483"><ele>155.0</ele><time>2026-05-02T10:20:21.859Z</time></trkpt><trkpt lat="40.6270367" lon="15.16007"><ele>155.0</ele><time>2026-05-02T10:20:23.859Z</time></trkpt><trkpt lat="40.6270317" lon="15.1602033"><ele>155.0</ele><time>2026-05-02T10:20:25.858Z</time></trkpt><trkpt lat="40.6271117" lon="15.1603317"><ele>154.85714285714286</ele><time>2026-05-02T10:20:27.858Z</time></trkpt><trkpt lat="40.627165" lon="15.160395"><ele>154.71428571428572</ele><time>2026-05-02T10:20:28.858Z</time></trkpt><trkpt lat="40.6272217" lon="15.1604633"><ele>154.57142857142856</ele><time>2026-05-02T10:20:29.859Z</time></trkpt><trkpt lat="40.627275" lon="15.1605367"><ele>154.42857142857144</ele><time>2026-05-02T10:20:30.858Z</time></trkpt><trkpt lat="40.6273183" lon="15.1606083"><ele>154.28571428571428</ele><time>2026-05-02T10:20:31.859Z</time></trkpt><trkpt lat="40.6273483" lon="15.16069"><ele>154.14285714285714</ele><time>2026-05-02T10:20:32.858Z</time></trkpt><trkpt lat="40.627365" lon="15.16078"><ele>154.0</ele><time>2026-05-02T10:20:33.858Z</time></trkpt><trkpt lat="40.6273733" lon="15.1608733"><ele>153.83333333333334</ele><time>2026-05-02T10:20:34.858Z</time></trkpt><trkpt lat="40.62738" lon="15.1609733"><ele>153.66666666666669</ele><time>2026-05-02T10:20:35.859Z</time></trkpt><trkpt lat="40.6273867" lon="15.161075"><ele>153.5</ele><time>2026-05-02T10:20:36.858Z</time></trkpt><trkpt lat="40.627395" lon="15.16118"><ele>153.33333333333334</ele><time>2026-05-02T10:20:37.859Z</time></trkpt><trkpt lat="40.627405" lon="15.1612883"><ele>153.16666666666666</ele><time>2026-05-02T10:20:38.858Z</time></trkpt><trkpt lat="40.6274117" lon="15.1614017"><ele>153.0</ele><time>2026-05-02T10:20:39.859Z</time></trkpt><trkpt lat="40.6274183" lon="15.1615267"><ele>153.20000000000002</ele><time>2026-05-02T10:20:40.858Z</time></trkpt><trkpt lat="40.6274217" lon="15.1616517"><ele>153.4</ele><time>2026-05-02T10:20:41.859Z</time></trkpt><trkpt lat="40.6274233" lon="15.1617817"><ele>153.60000000000002</ele><time>2026-05-02T10:20:42.858Z</time></trkpt><trkpt lat="40.6274267" lon="15.161915"><ele>153.8</ele><time>2026-05-02T10:20:43.858Z</time></trkpt><trkpt lat="40.6274317" lon="15.162045"><ele>154.0</ele><time>2026-05-02T10:20:44.859Z</time></trkpt><trkpt lat="40.6274383" lon="15.1621733"><ele>154.0</ele><time>2026-05-02T10:20:45.859Z</time></trkpt><trkpt lat="40.627445" lon="15.1623"><ele>154.0</ele><time>2026-05-02T10:20:46.859Z</time></trkpt><trkpt lat="40.6274533" lon="15.1624333"><ele>154.0</ele><time>2026-05-02T10:20:47.858Z</time></trkpt><trkpt lat="40.6274617" lon="15.16256"><ele>154.0</ele><time>2026-05-02T10:20:48.858Z</time></trkpt><trkpt lat="40.6274717" lon="15.1626883"><ele>154.0</ele><time>2026-05-02T10:20:49.859Z</time></trkpt><trkpt lat="40.6274833" lon="15.16282"><ele>155.2</ele><time>2026-05-02T10:20:50.859Z</time></trkpt><trkpt lat="40.6275017" lon="15.162955"><ele>156.4</ele><time>2026-05-02T10:20:51.859Z</time></trkpt><trkpt lat="40.6275183" lon="15.1630933"><ele>157.6</ele><time>2026-05-02T10:20:52.859Z</time></trkpt><trkpt lat="40.6275383" lon="15.16323"><ele>158.8</ele><time>2026-05-02T10:20:53.859Z</time></trkpt><trkpt lat="40.62756" lon="15.1633717"><ele>160.0</ele><time>2026-05-02T10:20:54.858Z</time></trkpt><trkpt lat="40.6275783" lon="15.1635033"><ele>160.71428571428572</ele><time>2026-05-02T10:20:55.859Z</time></trkpt><trkpt lat="40.627595" lon="15.1636167"><ele>161.42857142857144</ele><time>2026-05-02T10:20:56.858Z</time></trkpt><trkpt lat="40.627615" lon="15.1637183"><ele>162.14285714285717</ele><time>2026-05-02T10:20:57.859Z</time></trkpt><trkpt lat="40.627635" lon="15.1638067"><ele>162.85714285714286</ele><time>2026-05-02T10:20:58.859Z</time></trkpt><trkpt lat="40.6276467" lon="15.1638967"><ele>163.57142857142858</ele><time>2026-05-02T10:20:59.858Z</time></trkpt><trkpt lat="40.6276617" lon="15.1639883"><ele>164.2857142857143</ele><time>2026-05-02T10:21:00.858Z</time></trkpt><trkpt lat="40.627685" lon="15.1640717"><ele>165.0</ele><time>2026-05-02T10:21:01.859Z</time></trkpt><trkpt lat="40.627715" lon="15.1641483"><ele>165.0</ele><time>2026-05-02T10:21:02.858Z</time></trkpt><trkpt lat="40.627755" lon="15.1642133"><ele>165.0</ele><time>2026-05-02T10:21:03.859Z</time></trkpt><trkpt lat="40.6277933" lon="15.16428"><ele>165.0</ele><time>2026-05-02T10:21:04.859Z</time></trkpt><trkpt lat="40.6278783" lon="15.1643983"><ele>165.0</ele><time>2026-05-02T10:21:06.859Z</time></trkpt><trkpt lat="40.6279267" lon="15.164455"><ele>165.0</ele><time>2026-05-02T10:21:07.858Z</time></trkpt><trkpt lat="40.6279783" lon="15.1645083"><ele>165.0</ele><time>2026-05-02T10:21:08.858Z</time></trkpt><trkpt lat="40.628075" lon="15.1645933"><ele>164.5</ele><time>2026-05-02T10:21:10.859Z</time></trkpt><trkpt lat="40.628155" lon="15.16467"><ele>164.0</ele><time>2026-05-02T10:21:12.858Z</time></trkpt><trkpt lat="40.6282333" lon="15.1647833"><ele>163.5</ele><time>2026-05-02T10:21:14.859Z</time></trkpt><trkpt lat="40.6282783" lon="15.1648533"><ele>163.0</ele><time>2026-05-02T10:21:15.859Z</time></trkpt><trkpt lat="40.6283283" lon="15.1649233"><ele>162.5</ele><time>2026-05-02T10:21:16.858Z</time></trkpt><trkpt lat="40.62838" lon="15.1649833"><ele>162.0</ele><time>2026-05-02T10:21:17.859Z</time></trkpt><trkpt lat="40.6284333" lon="15.1650517"><ele>162.0</ele><time>2026-05-02T10:21:18.859Z</time></trkpt><trkpt lat="40.6284817" lon="15.1651183"><ele>162.0</ele><time>2026-05-02T10:21:19.858Z</time></trkpt><trkpt lat="40.62853" lon="15.1651883"><ele>162.0</ele><time>2026-05-02T10:21:20.859Z</time></trkpt><trkpt lat="40.6285767" lon="15.16526"><ele>162.0</ele><time>2026-05-02T10:21:21.858Z</time></trkpt><trkpt lat="40.628625" lon="15.1653367"><ele>162.0</ele><time>2026-05-02T10:21:22.859Z</time></trkpt><trkpt lat="40.6286767" lon="15.1654167"><ele>162.0</ele><time>2026-05-02T10:21:23.859Z</time></trkpt><trkpt lat="40.628725" lon="15.1654933"><ele>162.0</ele><time>2026-05-02T10:21:24.859Z</time></trkpt><trkpt lat="40.6287733" lon="15.1655617"><ele>162.42857142857144</ele><time>2026-05-02T10:21:25.858Z</time></trkpt><trkpt lat="40.628825" lon="15.1656283"><ele>162.85714285714286</ele><time>2026-05-02T10:21:26.858Z</time></trkpt><trkpt lat="40.6288733" lon="15.1656967"><ele>163.28571428571428</ele><time>2026-05-02T10:21:27.858Z</time></trkpt><trkpt lat="40.62892" lon="15.1657683"><ele>163.71428571428572</ele><time>2026-05-02T10:21:28.858Z</time></trkpt><trkpt lat="40.6289633" lon="15.1658383"><ele>164.14285714285714</ele><time>2026-05-02T10:21:29.859Z</time></trkpt><trkpt lat="40.6290067" lon="15.1659083"><ele>164.57142857142858</ele><time>2026-05-02T10:21:30.858Z</time></trkpt><trkpt lat="40.6290483" lon="15.1659717"><ele>165.0</ele><time>2026-05-02T10:21:31.858Z</time></trkpt><trkpt lat="40.6291333" lon="15.1660833"><ele>165.0</ele><time>2026-05-02T10:21:33.858Z</time></trkpt><trkpt lat="40.6292267" lon="15.1661783"><ele>165.0</ele><time>2026-05-02T10:21:35.859Z</time></trkpt><trkpt lat="40.6293167" lon="15.16626"><ele>165.0</ele><time>2026-05-02T10:21:37.858Z</time></trkpt><trkpt lat="40.6293867" lon="15.1663467"><ele>165.0</ele><time>2026-05-02T10:21:39.858Z</time></trkpt><trkpt lat="40.6294233" lon="15.1664683"><ele>165.0</ele><time>2026-05-02T10:21:41.859Z</time></trkpt><trkpt lat="40.629455" lon="15.16661"><ele>166.33333333333334</ele><time>2026-05-02T10:21:43.857Z</time></trkpt><trkpt lat="40.6295267" lon="15.1667333"><ele>167.66666666666666</ele><time>2026-05-02T10:21:45.857Z</time></trkpt><trkpt lat="40.6296267" lon="15.1668317"><ele>169.0</ele><time>2026-05-02T10:21:47.857Z</time></trkpt><trkpt lat="40.6296867" lon="15.1668783"><ele>170.33333333333331</ele><time>2026-05-02T10:21:48.857Z</time></trkpt><trkpt lat="40.6297483" lon="15.1669233"><ele>171.66666666666666</ele><time>2026-05-02T10:21:49.858Z</time></trkpt><trkpt lat="40.6298083" lon="15.16695"><ele>173.0</ele><time>2026-05-02T10:21:50.857Z</time></trkpt><trkpt lat="40.6299183" lon="15.166955"><ele>173.0</ele><time>2026-05-02T10:21:52.857Z</time></trkpt><trkpt lat="40.6300467" lon="15.1669533"><ele>173.0</ele><time>2026-05-02T10:21:54.857Z</time></trkpt><trkpt lat="40.630155" lon="15.1669633"><ele>173.0</ele><time>2026-05-02T10:21:56.857Z</time></trkpt><trkpt lat="40.6302683" lon="15.16699"><ele>173.0</ele><time>2026-05-02T10:21:58.857Z</time></trkpt><trkpt lat="40.6303833" lon="15.1670133"><ele>175.8</ele><time>2026-05-02T10:22:00.858Z</time></trkpt><trkpt lat="40.6305" lon="15.167045"><ele>178.60000000000002</ele><time>2026-05-02T10:22:02.858Z</time></trkpt><trkpt lat="40.630575" lon="15.1670667"><ele>181.39999999999998</ele><time>2026-05-02T10:22:04.857Z</time></trkpt><trkpt lat="40.6306483" lon="15.1671617"><ele>184.2</ele><time>2026-05-02T10:23:21.857Z</time></trkpt><trkpt lat="40.6307" lon="15.1673017"><ele>187.0</ele><time>2026-05-02T10:23:23.857Z</time></trkpt><trkpt lat="40.6307333" lon="15.1674133"><ele>187.0</ele><time>2026-05-02T10:23:25.858Z</time></trkpt><trkpt lat="40.6307533" lon="15.167495"><ele>187.0</ele><time>2026-05-02T10:23:27.858Z</time></trkpt><trkpt lat="40.6307817" lon="15.1676167"><ele>187.0</ele><time>2026-05-02T10:23:30.858Z</time></trkpt><trkpt lat="40.63081" lon="15.1677217"><ele>187.0</ele><time>2026-05-02T10:23:32.858Z</time></trkpt><trkpt lat="40.630845" lon="15.1678533"><ele>187.0</ele><time>2026-05-02T10:23:34.857Z</time></trkpt><trkpt lat="40.6308717" lon="15.1679467"><ele>187.0</ele><time>2026-05-02T10:23:35.857Z</time></trkpt><trkpt lat="40.630905" lon="15.1680583"><ele>187.0</ele><time>2026-05-02T10:23:36.858Z</time></trkpt><trkpt lat="40.6309333" lon="15.16817"><ele>187.0</ele><time>2026-05-02T10:23:37.858Z</time></trkpt><trkpt lat="40.6309567" lon="15.168275"><ele>187.0</ele><time>2026-05-02T10:23:38.858Z</time></trkpt><trkpt lat="40.6309833" lon="15.16839"><ele>187.0</ele><time>2026-05-02T10:23:39.857Z</time></trkpt><trkpt lat="40.6310133" lon="15.1685017"><ele>187.0</ele><time>2026-05-02T10:23:40.857Z</time></trkpt><trkpt lat="40.6310417" lon="15.1686"><ele>187.0</ele><time>2026-05-02T10:23:41.857Z</time></trkpt><trkpt lat="40.6310683" lon="15.1687067"><ele>187.39999999999998</ele><time>2026-05-02T10:23:42.857Z</time></trkpt><trkpt lat="40.6310983" lon="15.16882"><ele>187.79999999999998</ele><time>2026-05-02T10:23:43.858Z</time></trkpt><trkpt lat="40.6311233" lon="15.1689317"><ele>188.2</ele><time>2026-05-02T10:23:44.858Z</time></trkpt><trkpt lat="40.6311533" lon="15.1690517"><ele>188.6</ele><time>2026-05-02T10:23:45.857Z</time></trkpt><trkpt lat="40.63119" lon="15.1691883"><ele>189.0</ele><time>2026-05-02T10:23:46.858Z</time></trkpt><trkpt lat="40.63122" lon="15.1693183"><ele>191.39999999999998</ele><time>2026-05-02T10:23:47.857Z</time></trkpt><trkpt lat="40.6312417" lon="15.16944"><ele>193.8</ele><time>2026-05-02T10:23:48.857Z</time></trkpt><trkpt lat="40.63126" lon="15.1695467"><ele>196.2</ele><time>2026-05-02T10:23:49.857Z</time></trkpt><trkpt lat="40.6312833" lon="15.169645"><ele>198.60000000000002</ele><time>2026-05-02T10:23:50.857Z</time></trkpt><trkpt lat="40.6313267" lon="15.1697733"><ele>201.0</ele><time>2026-05-02T10:23:52.858Z</time></trkpt><trkpt lat="40.6313217" lon="15.1698933"><ele>201.0</ele><time>2026-05-02T10:24:02.858Z</time></trkpt><trkpt lat="40.6312517" lon="15.1699267"><ele>201.0</ele><time>2026-05-02T10:24:04.857Z</time></trkpt><trkpt lat="40.631165" lon="15.1699483"><ele>201.0</ele><time>2026-05-02T10:24:06.858Z</time></trkpt><trkpt lat="40.631055" lon="15.16999"><ele>201.0</ele><time>2026-05-02T10:24:08.858Z</time></trkpt><trkpt lat="40.6309583" lon="15.1700567"><ele>201.0</ele><time>2026-05-02T10:24:10.857Z</time></trkpt><trkpt lat="40.6308667" lon="15.1701133"><ele>200.0</ele><time>2026-05-02T10:24:12.858Z</time></trkpt><trkpt lat="40.63076" lon="15.1701967"><ele>199.0</ele><time>2026-05-02T10:24:14.858Z</time></trkpt><trkpt lat="40.6307067" lon="15.1702417"><ele>198.0</ele><time>2026-05-02T10:24:15.858Z</time></trkpt><trkpt lat="40.63063" lon="15.17031"><ele>197.0</ele><time>2026-05-02T10:24:17.857Z</time></trkpt><trkpt lat="40.6305733" lon="15.17039"><ele>196.0</ele><time>2026-05-02T10:25:15.857Z</time></trkpt><trkpt lat="40.6305317" lon="15.170455"><ele>195.0</ele><time>2026-05-02T10:25:16.858Z</time></trkpt><trkpt lat="40.6304817" lon="15.17053"><ele>195.0</ele><time>2026-05-02T10:25:17.858Z</time></trkpt><trkpt lat="40.6304233" lon="15.1706167"><ele>195.0</ele><time>2026-05-02T10:25:18.858Z</time></trkpt><trkpt lat="40.6303633" lon="15.1707133"><ele>195.0</ele><time>2026-05-02T10:25:19.858Z</time></trkpt><trkpt lat="40.630305" lon="15.170805"><ele>195.0</ele><time>2026-05-02T10:25:20.858Z</time></trkpt><trkpt lat="40.63025" lon="15.1708917"><ele>195.0</ele><time>2026-05-02T10:25:21.857Z</time></trkpt><trkpt lat="40.6301933" lon="15.1709767"><ele>195.0</ele><time>2026-05-02T10:25:22.857Z</time></trkpt><trkpt lat="40.6301383" lon="15.171055"><ele>194.83333333333334</ele><time>2026-05-02T10:25:23.858Z</time></trkpt><trkpt lat="40.6300783" lon="15.1711283"><ele>194.66666666666669</ele><time>2026-05-02T10:25:24.857Z</time></trkpt><trkpt lat="40.6300217" lon="15.171195"><ele>194.5</ele><time>2026-05-02T10:25:25.858Z</time></trkpt><trkpt lat="40.629965" lon="15.1712417"><ele>194.33333333333334</ele><time>2026-05-02T10:25:26.858Z</time></trkpt><trkpt lat="40.6298717" lon="15.1713183"><ele>194.16666666666669</ele><time>2026-05-02T10:25:28.857Z</time></trkpt><trkpt lat="40.62979" lon="15.1714083"><ele>194.0</ele><time>2026-05-02T10:25:30.857Z</time></trkpt><trkpt lat="40.62971" lon="15.17151"><ele>194.0</ele><time>2026-05-02T10:25:32.858Z</time></trkpt><trkpt lat="40.629625" lon="15.1716183"><ele>194.0</ele><time>2026-05-02T10:25:34.858Z</time></trkpt><trkpt lat="40.6295417" lon="15.1717283"><ele>194.0</ele><time>2026-05-02T10:25:36.858Z</time></trkpt><trkpt lat="40.6294683" lon="15.171855"><ele>194.0</ele><time>2026-05-02T10:25:38.858Z</time></trkpt><trkpt lat="40.6294283" lon="15.1719267"><ele>194.0</ele><time>2026-05-02T10:25:39.858Z</time></trkpt><trkpt lat="40.62938" lon="15.17199"><ele>193.16666666666669</ele><time>2026-05-02T10:25:40.858Z</time></trkpt><trkpt lat="40.6293217" lon="15.1720467"><ele>192.33333333333334</ele><time>2026-05-02T10:25:41.858Z</time></trkpt><trkpt lat="40.6292617" lon="15.172105"><ele>191.5</ele><time>2026-05-02T10:25:42.858Z</time></trkpt><trkpt lat="40.629195" lon="15.1721617"><ele>190.66666666666669</ele><time>2026-05-02T10:25:43.858Z</time></trkpt><trkpt lat="40.62913" lon="15.1722233"><ele>189.83333333333334</ele><time>2026-05-02T10:25:44.858Z</time></trkpt><trkpt lat="40.6290633" lon="15.1722883"><ele>189.0</ele><time>2026-05-02T10:25:45.858Z</time></trkpt><trkpt lat="40.6289967" lon="15.1723583"><ele>188.83333333333334</ele><time>2026-05-02T10:25:46.858Z</time></trkpt><trkpt lat="40.6289317" lon="15.172425"><ele>188.66666666666666</ele><time>2026-05-02T10:25:47.857Z</time></trkpt><trkpt lat="40.62887" lon="15.172485"><ele>188.5</ele><time>2026-05-02T10:25:48.857Z</time></trkpt><trkpt lat="40.6288033" lon="15.1725367"><ele>188.33333333333331</ele><time>2026-05-02T10:25:49.858Z</time></trkpt><trkpt lat="40.628725" lon="15.1725817"><ele>188.16666666666666</ele><time>2026-05-02T10:25:50.856Z</time></trkpt><trkpt lat="40.6286383" lon="15.1726233"><ele>188.0</ele><time>2026-05-02T10:25:51.856Z</time></trkpt><trkpt lat="40.6285467" lon="15.172665"><ele>186.4</ele><time>2026-05-02T10:25:52.856Z</time></trkpt><trkpt lat="40.628445" lon="15.172705"><ele>184.8</ele><time>2026-05-02T10:25:53.857Z</time></trkpt><trkpt lat="40.6283467" lon="15.1727467"><ele>183.2</ele><time>2026-05-02T10:25:54.856Z</time></trkpt><trkpt lat="40.6282483" lon="15.1727883"><ele>181.6</ele><time>2026-05-02T10:25:55.856Z</time></trkpt><trkpt lat="40.6281533" lon="15.1728367"><ele>180.0</ele><time>2026-05-02T10:25:56.856Z</time></trkpt><trkpt lat="40.6280667" lon="15.172885"><ele>180.0</ele><time>2026-05-02T10:25:57.857Z</time></trkpt><trkpt lat="40.6279817" lon="15.1729333"><ele>180.0</ele><time>2026-05-02T10:25:58.856Z</time></trkpt><trkpt lat="40.6279067" lon="15.17298"><ele>180.0</ele><time>2026-05-02T10:25:59.857Z</time></trkpt><trkpt lat="40.6278417" lon="15.173025"><ele>180.0</ele><time>2026-05-02T10:26:00.856Z</time></trkpt><trkpt lat="40.627785" lon="15.17307"><ele>180.0</ele><time>2026-05-02T10:26:01.856Z</time></trkpt><trkpt lat="40.6276883" lon="15.17314"><ele>180.0</ele><time>2026-05-02T10:26:03.857Z</time></trkpt><trkpt lat="40.62762" lon="15.17319"><ele>180.33333333333334</ele><time>2026-05-02T10:26:05.856Z</time></trkpt><trkpt lat="40.6275533" lon="15.173215"><ele>180.66666666666666</ele><time>2026-05-02T10:26:07.856Z</time></trkpt><trkpt lat="40.6274517" lon="15.1732517"><ele>181.0</ele><time>2026-05-02T10:26:41.856Z</time></trkpt><trkpt lat="40.62734" lon="15.1732767"><ele>181.33333333333331</ele><time>2026-05-02T10:26:43.856Z</time></trkpt><trkpt lat="40.627265" lon="15.1732717"><ele>181.66666666666666</ele><time>2026-05-02T10:26:44.856Z</time></trkpt><trkpt lat="40.6271883" lon="15.1732533"><ele>182.0</ele><time>2026-05-02T10:26:45.857Z</time></trkpt><trkpt lat="40.62711" lon="15.1732283"><ele>182.0</ele><time>2026-05-02T10:26:46.856Z</time></trkpt><trkpt lat="40.62703" lon="15.1731967"><ele>182.0</ele><time>2026-05-02T10:26:47.857Z</time></trkpt><trkpt lat="40.6269417" lon="15.1731783"><ele>182.0</ele><time>2026-05-02T10:26:48.857Z</time></trkpt><trkpt lat="40.6268517" lon="15.1731733"><ele>182.0</ele><time>2026-05-02T10:26:49.856Z</time></trkpt><trkpt lat="40.6267617" lon="15.1731717"><ele>182.0</ele><time>2026-05-02T10:26:50.856Z</time></trkpt><trkpt lat="40.6266767" lon="15.17318"><ele>182.0</ele><time>2026-05-02T10:26:51.857Z</time></trkpt><trkpt lat="40.62659" lon="15.1731933"><ele>181.16666666666666</ele><time>2026-05-02T10:26:52.857Z</time></trkpt><trkpt lat="40.6265067" lon="15.1732117"><ele>180.33333333333331</ele><time>2026-05-02T10:26:53.856Z</time></trkpt><trkpt lat="40.6264317" lon="15.1732317"><ele>179.5</ele><time>2026-05-02T10:26:54.857Z</time></trkpt><trkpt lat="40.626365" lon="15.173245"><ele>178.66666666666666</ele><time>2026-05-02T10:26:55.857Z</time></trkpt><trkpt lat="40.6262533" lon="15.1732683"><ele>177.83333333333334</ele><time>2026-05-02T10:26:57.856Z</time></trkpt><trkpt lat="40.6261617" lon="15.1732967"><ele>177.0</ele><time>2026-05-02T10:26:59.857Z</time></trkpt><trkpt lat="40.6260717" lon="15.1733317"><ele>177.0</ele><time>2026-05-02T10:27:01.857Z</time></trkpt><trkpt lat="40.625965" lon="15.1733933"><ele>177.0</ele><time>2026-05-02T10:27:03.857Z</time></trkpt><trkpt lat="40.6259067" lon="15.1734383"><ele>177.0</ele><time>2026-05-02T10:27:04.857Z</time></trkpt><trkpt lat="40.6258483" lon="15.173485"><ele>177.0</ele><time>2026-05-02T10:27:05.857Z</time></trkpt><trkpt lat="40.6257933" lon="15.1735317"><ele>177.0</ele><time>2026-05-02T10:27:06.857Z</time></trkpt><trkpt lat="40.6257417" lon="15.1735817"><ele>177.0</ele><time>2026-05-02T10:27:07.857Z</time></trkpt><trkpt lat="40.62569" lon="15.1736333"><ele>177.0</ele><time>2026-05-02T10:27:08.856Z</time></trkpt><trkpt lat="40.6255867" lon="15.173725"><ele>177.0</ele><time>2026-05-02T10:27:10.856Z</time></trkpt><trkpt lat="40.6255333" lon="15.1737717"><ele>177.0</ele><time>2026-05-02T10:27:11.857Z</time></trkpt><trkpt lat="40.6254333" lon="15.1738683"><ele>177.0</ele><time>2026-05-02T10:27:13.856Z</time></trkpt><trkpt lat="40.62538" lon="15.1739233"><ele>177.0</ele><time>2026-05-02T10:27:14.856Z</time></trkpt><trkpt lat="40.62533" lon="15.1739833"><ele>177.0</ele><time>2026-05-02T10:27:15.856Z</time></trkpt><trkpt lat="40.6252783" lon="15.1740367"><ele>177.0</ele><time>2026-05-02T10:27:16.857Z</time></trkpt><trkpt lat="40.625195" lon="15.1741383"><ele>175.14285714285714</ele><time>2026-05-02T10:27:18.857Z</time></trkpt><trkpt lat="40.6251517" lon="15.1742017"><ele>173.28571428571428</ele><time>2026-05-02T10:27:19.857Z</time></trkpt><trkpt lat="40.625105" lon="15.1742617"><ele>171.42857142857142</ele><time>2026-05-02T10:27:20.856Z</time></trkpt><trkpt lat="40.6250567" lon="15.1743233"><ele>169.57142857142856</ele><time>2026-05-02T10:27:21.856Z</time></trkpt><trkpt lat="40.625" lon="15.1743867"><ele>167.71428571428572</ele><time>2026-05-02T10:27:22.857Z</time></trkpt><trkpt lat="40.6249383" lon="15.1744617"><ele>165.85714285714283</ele><time>2026-05-02T10:27:23.857Z</time></trkpt><trkpt lat="40.6248717" lon="15.1745267"><ele>164.0</ele><time>2026-05-02T10:27:24.856Z</time></trkpt><trkpt lat="40.6248017" lon="15.174595"><ele>164.0</ele><time>2026-05-02T10:27:25.857Z</time></trkpt><trkpt lat="40.624735" lon="15.17467"><ele>164.0</ele><time>2026-05-02T10:27:26.857Z</time></trkpt><trkpt lat="40.6246667" lon="15.1747333"><ele>164.0</ele><time>2026-05-02T10:27:27.856Z</time></trkpt><trkpt lat="40.6245967" lon="15.1747933"><ele>164.0</ele><time>2026-05-02T10:27:28.857Z</time></trkpt><trkpt lat="40.6245183" lon="15.1748433"><ele>164.0</ele><time>2026-05-02T10:27:29.856Z</time></trkpt><trkpt lat="40.62444" lon="15.1748833"><ele>164.0</ele><time>2026-05-02T10:27:30.856Z</time></trkpt><trkpt lat="40.6243583" lon="15.1749233"><ele>161.6</ele><time>2026-05-02T10:27:31.856Z</time></trkpt><trkpt lat="40.6242733" lon="15.17497"><ele>159.2</ele><time>2026-05-02T10:27:32.857Z</time></trkpt><trkpt lat="40.6241783" lon="15.175025"><ele>156.79999999999998</ele><time>2026-05-02T10:27:33.856Z</time></trkpt><trkpt lat="40.6240683" lon="15.1750833"><ele>154.39999999999998</ele><time>2026-05-02T10:27:34.857Z</time></trkpt><trkpt lat="40.6239517" lon="15.1751433"><ele>152.0</ele><time>2026-05-02T10:27:35.857Z</time></trkpt><trkpt lat="40.6238383" lon="15.1752033"><ele>152.0</ele><time>2026-05-02T10:27:36.856Z</time></trkpt><trkpt lat="40.6237267" lon="15.175265"><ele>152.0</ele><time>2026-05-02T10:27:37.857Z</time></trkpt><trkpt lat="40.6236133" lon="15.1753233"><ele>152.0</ele><time>2026-05-02T10:27:38.856Z</time></trkpt><trkpt lat="40.6235" lon="15.1753767"><ele>152.0</ele><time>2026-05-02T10:27:39.856Z</time></trkpt><trkpt lat="40.6233883" lon="15.1754317"><ele>149.75</ele><time>2026-05-02T10:27:40.856Z</time></trkpt><trkpt lat="40.6232717" lon="15.175495"><ele>147.5</ele><time>2026-05-02T10:27:41.856Z</time></trkpt><trkpt lat="40.6231567" lon="15.17556"><ele>145.25</ele><time>2026-05-02T10:27:42.857Z</time></trkpt><trkpt lat="40.6230367" lon="15.1756233"><ele>143.0</ele><time>2026-05-02T10:27:43.857Z</time></trkpt><trkpt lat="40.6229133" lon="15.1756933"><ele>142.0</ele><time>2026-05-02T10:27:44.857Z</time></trkpt><trkpt lat="40.62279" lon="15.17576"><ele>141.0</ele><time>2026-05-02T10:27:45.857Z</time></trkpt><trkpt lat="40.6226617" lon="15.1758183"><ele>140.0</ele><time>2026-05-02T10:27:46.857Z</time></trkpt><trkpt lat="40.6225283" lon="15.17588"><ele>139.0</ele><time>2026-05-02T10:27:47.856Z</time></trkpt><trkpt lat="40.6224" lon="15.1759433"><ele>139.0</ele><time>2026-05-02T10:27:48.856Z</time></trkpt><trkpt lat="40.6222783" lon="15.176"><ele>139.0</ele><time>2026-05-02T10:27:49.857Z</time></trkpt><trkpt lat="40.6221633" lon="15.1760567"><ele>139.0</ele><time>2026-05-02T10:27:50.856Z</time></trkpt><trkpt lat="40.622055" lon="15.1761083"><ele>139.0</ele><time>2026-05-02T10:27:51.857Z</time></trkpt><trkpt lat="40.6219517" lon="15.1761617"><ele>137.8</ele><time>2026-05-02T10:27:52.856Z</time></trkpt><trkpt lat="40.6218567" lon="15.1762083"><ele>136.60000000000002</ele><time>2026-05-02T10:27:53.857Z</time></trkpt><trkpt lat="40.62176" lon="15.1762567"><ele>135.4</ele><time>2026-05-02T10:27:54.857Z</time></trkpt><trkpt lat="40.62167" lon="15.1763017"><ele>134.20000000000002</ele><time>2026-05-02T10:27:55.857Z</time></trkpt><trkpt lat="40.62158" lon="15.1763483"><ele>133.0</ele><time>2026-05-02T10:27:56.856Z</time></trkpt><trkpt lat="40.6214967" lon="15.176395"><ele>133.0</ele><time>2026-05-02T10:27:57.856Z</time></trkpt><trkpt lat="40.62141" lon="15.1764367"><ele>133.0</ele><time>2026-05-02T10:27:58.857Z</time></trkpt><trkpt lat="40.62133" lon="15.1764717"><ele>133.0</ele><time>2026-05-02T10:27:59.857Z</time></trkpt><trkpt lat="40.62125" lon="15.1765017"><ele>133.0</ele><time>2026-05-02T10:28:00.856Z</time></trkpt><trkpt lat="40.62117" lon="15.1765333"><ele>133.0</ele><time>2026-05-02T10:28:01.857Z</time></trkpt><trkpt lat="40.62109" lon="15.17656"><ele>133.0</ele><time>2026-05-02T10:28:02.856Z</time></trkpt><trkpt lat="40.6210067" lon="15.176585"><ele>132.20000000000002</ele><time>2026-05-02T10:28:03.857Z</time></trkpt><trkpt lat="40.6209183" lon="15.17662"><ele>131.4</ele><time>2026-05-02T10:28:04.856Z</time></trkpt><trkpt lat="40.620815" lon="15.1766517"><ele>130.60000000000002</ele><time>2026-05-02T10:28:05.856Z</time></trkpt><trkpt lat="40.6207033" lon="15.1766883"><ele>129.8</ele><time>2026-05-02T10:28:06.856Z</time></trkpt><trkpt lat="40.620595" lon="15.1767267"><ele>129.0</ele><time>2026-05-02T10:28:07.857Z</time></trkpt><trkpt lat="40.62049" lon="15.1767567"><ele>129.0</ele><time>2026-05-02T10:28:08.856Z</time></trkpt><trkpt lat="40.6203883" lon="15.1767883"><ele>129.0</ele><time>2026-05-02T10:28:09.856Z</time></trkpt><trkpt lat="40.620285" lon="15.1768233"><ele>129.0</ele><time>2026-05-02T10:28:10.856Z</time></trkpt><trkpt lat="40.620185" lon="15.1768617"><ele>129.0</ele><time>2026-05-02T10:28:11.857Z</time></trkpt><trkpt lat="40.6200867" lon="15.176895"><ele>129.0</ele><time>2026-05-02T10:28:12.856Z</time></trkpt><trkpt lat="40.6199833" lon="15.1769317"><ele>127.0</ele><time>2026-05-02T10:28:13.856Z</time></trkpt><trkpt lat="40.61988" lon="15.1769683"><ele>125.0</ele><time>2026-05-02T10:28:14.856Z</time></trkpt><trkpt lat="40.61978" lon="15.177005"><ele>123.0</ele><time>2026-05-02T10:28:15.857Z</time></trkpt><trkpt lat="40.619675" lon="15.17704"><ele>121.0</ele><time>2026-05-02T10:28:16.856Z</time></trkpt><trkpt lat="40.6195733" lon="15.1770767"><ele>119.0</ele><time>2026-05-02T10:28:17.856Z</time></trkpt><trkpt lat="40.6194683" lon="15.17711"><ele>117.6</ele><time>2026-05-02T10:28:18.856Z</time></trkpt><trkpt lat="40.6193683" lon="15.1771483"><ele>116.2</ele><time>2026-05-02T10:28:19.856Z</time></trkpt><trkpt lat="40.6192683" lon="15.1771833"><ele>114.79999999999998</ele><time>2026-05-02T10:28:20.856Z</time></trkpt><trkpt lat="40.6191683" lon="15.177215"><ele>113.39999999999999</ele><time>2026-05-02T10:28:21.856Z</time></trkpt><trkpt lat="40.6190733" lon="15.1772433"><ele>112.0</ele><time>2026-05-02T10:28:22.856Z</time></trkpt><trkpt lat="40.61898" lon="15.17727"><ele>112.00000000000001</ele><time>2026-05-02T10:28:23.857Z</time></trkpt><trkpt lat="40.6188933" lon="15.1772983"><ele>112.0</ele><time>2026-05-02T10:28:24.856Z</time></trkpt><trkpt lat="40.6188083" lon="15.177325"><ele>112.0</ele><time>2026-05-02T10:28:25.856Z</time></trkpt><trkpt lat="40.6187217" lon="15.1773533"><ele>112.0</ele><time>2026-05-02T10:28:26.857Z</time></trkpt><trkpt lat="40.6186383" lon="15.17738"><ele>112.00000000000001</ele><time>2026-05-02T10:28:27.856Z</time></trkpt><trkpt lat="40.6185583" lon="15.1774117"><ele>112.0</ele><time>2026-05-02T10:28:28.856Z</time></trkpt><trkpt lat="40.6184817" lon="15.177435"><ele>111.85714285714286</ele><time>2026-05-02T10:28:29.856Z</time></trkpt><trkpt lat="40.61841" lon="15.1774517"><ele>111.71428571428572</ele><time>2026-05-02T10:28:30.856Z</time></trkpt><trkpt lat="40.6183433" lon="15.1774667"><ele>111.57142857142857</ele><time>2026-05-02T10:28:31.856Z</time></trkpt><trkpt lat="40.618275" lon="15.177485"><ele>111.42857142857143</ele><time>2026-05-02T10:28:32.856Z</time></trkpt><trkpt lat="40.6182067" lon="15.1774967"><ele>111.28571428571429</ele><time>2026-05-02T10:28:33.856Z</time></trkpt><trkpt lat="40.6181433" lon="15.177515"><ele>111.14285714285714</ele><time>2026-05-02T10:28:34.857Z</time></trkpt><trkpt lat="40.6180717" lon="15.177525"><ele>111.0</ele><time>2026-05-02T10:28:35.857Z</time></trkpt><trkpt lat="40.6179967" lon="15.1775317"><ele>111.0</ele><time>2026-05-02T10:28:36.856Z</time></trkpt><trkpt lat="40.6179183" lon="15.1775333"><ele>111.0</ele><time>2026-05-02T10:28:37.856Z</time></trkpt><trkpt lat="40.6178383" lon="15.177535"><ele>111.0</ele><time>2026-05-02T10:28:38.857Z</time></trkpt><trkpt lat="40.6177533" lon="15.17753"><ele>111.0</ele><time>2026-05-02T10:28:39.857Z</time></trkpt><trkpt lat="40.61767" lon="15.1775217"><ele>111.0</ele><time>2026-05-02T10:28:40.856Z</time></trkpt><trkpt lat="40.6175867" lon="15.1775167"><ele>111.0</ele><time>2026-05-02T10:28:41.857Z</time></trkpt><trkpt lat="40.6175033" lon="15.1775133"><ele>109.71428571428571</ele><time>2026-05-02T10:28:42.857Z</time></trkpt><trkpt lat="40.6174267" lon="15.1775133"><ele>108.42857142857143</ele><time>2026-05-02T10:28:43.857Z</time></trkpt><trkpt lat="40.617355" lon="15.17751"><ele>107.14285714285714</ele><time>2026-05-02T10:28:44.856Z</time></trkpt><trkpt lat="40.6172833" lon="15.1775017"><ele>105.85714285714286</ele><time>2026-05-02T10:28:45.857Z</time></trkpt><trkpt lat="40.6172133" lon="15.177495"><ele>104.57142857142858</ele><time>2026-05-02T10:28:46.856Z</time></trkpt><trkpt lat="40.6171467" lon="15.1774983"><ele>103.28571428571429</ele><time>2026-05-02T10:28:47.856Z</time></trkpt><trkpt lat="40.6170783" lon="15.1774967"><ele>102.0</ele><time>2026-05-02T10:28:48.857Z</time></trkpt><trkpt lat="40.617015" lon="15.1774933"><ele>99.5</ele><time>2026-05-02T10:28:49.857Z</time></trkpt><trkpt lat="40.6169" lon="15.177485"><ele>97.0</ele><time>2026-05-02T10:28:51.856Z</time></trkpt><trkpt lat="40.6168017" lon="15.1774683"><ele>94.5</ele><time>2026-05-02T10:28:53.857Z</time></trkpt><trkpt lat="40.6167283" lon="15.1774567"><ele>92.0</ele><time>2026-05-02T10:28:55.857Z</time></trkpt><trkpt lat="40.6166533" lon="15.17745"><ele>89.5</ele><time>2026-05-02T10:30:36.856Z</time></trkpt><trkpt lat="40.6165733" lon="15.1774317"><ele>87.0</ele><time>2026-05-02T10:30:39.855Z</time></trkpt><trkpt lat="40.6164933" lon="15.177405"><ele>86.33333333333333</ele><time>2026-05-02T10:30:42.855Z</time></trkpt><trkpt lat="40.616435" lon="15.1773317"><ele>85.66666666666667</ele><time>2026-05-02T10:30:44.855Z</time></trkpt><trkpt lat="40.6164083" lon="15.1772283"><ele>85.0</ele><time>2026-05-02T10:30:46.855Z</time></trkpt><trkpt lat="40.6164017" lon="15.1771417"><ele>84.33333333333334</ele><time>2026-05-02T10:30:48.856Z</time></trkpt><trkpt lat="40.61641" lon="15.1770483"><ele>83.66666666666667</ele><time>2026-05-02T10:31:02.856Z</time></trkpt><trkpt lat="40.6164367" lon="15.177145"><ele>83.0</ele><time>2026-05-02T10:31:06.856Z</time></trkpt><trkpt lat="40.6164333" lon="15.177285"><ele>83.66666666666667</ele><time>2026-05-02T10:31:08.855Z</time></trkpt><trkpt lat="40.6164867" lon="15.1774117"><ele>84.33333333333334</ele><time>2026-05-02T10:31:10.856Z</time></trkpt><trkpt lat="40.616525" lon="15.1774783"><ele>85.0</ele><time>2026-05-02T10:31:11.855Z</time></trkpt><trkpt lat="40.6165733" lon="15.1775483"><ele>85.66666666666667</ele><time>2026-05-02T10:31:12.856Z</time></trkpt><trkpt lat="40.6166267" lon="15.177625"><ele>86.33333333333333</ele><time>2026-05-02T10:31:13.855Z</time></trkpt><trkpt lat="40.616685" lon="15.177705"><ele>87.0</ele><time>2026-05-02T10:31:14.856Z</time></trkpt><trkpt lat="40.6167483" lon="15.1777967"><ele>87.0</ele><time>2026-05-02T10:31:15.855Z</time></trkpt><trkpt lat="40.6168133" lon="15.177895"><ele>87.0</ele><time>2026-05-02T10:31:16.856Z</time></trkpt><trkpt lat="40.6168683" lon="15.1779733"><ele>87.0</ele><time>2026-05-02T10:31:17.856Z</time></trkpt><trkpt lat="40.6169167" lon="15.1780417"><ele>87.0</ele><time>2026-05-02T10:31:18.855Z</time></trkpt><trkpt lat="40.616995" lon="15.178145"><ele>87.0</ele><time>2026-05-02T10:31:20.856Z</time></trkpt><trkpt lat="40.61705" lon="15.178205"><ele>87.0</ele><time>2026-05-02T10:31:22.856Z</time></trkpt><trkpt lat="40.6171183" lon="15.1782783"><ele>88.83333333333333</ele><time>2026-05-02T10:31:24.856Z</time></trkpt><trkpt lat="40.6171967" lon="15.1783967"><ele>90.66666666666666</ele><time>2026-05-02T10:31:26.855Z</time></trkpt><trkpt lat="40.6172317" lon="15.1784767"><ele>92.5</ele><time>2026-05-02T10:31:27.856Z</time></trkpt><trkpt lat="40.617265" lon="15.1785667"><ele>94.33333333333333</ele><time>2026-05-02T10:31:28.856Z</time></trkpt><trkpt lat="40.6172933" lon="15.17866"><ele>96.16666666666666</ele><time>2026-05-02T10:31:29.856Z</time></trkpt><trkpt lat="40.6173133" lon="15.1787517"><ele>98.0</ele><time>2026-05-02T10:31:30.855Z</time></trkpt><trkpt lat="40.617335" lon="15.178845"><ele>98.0</ele><time>2026-05-02T10:31:31.856Z</time></trkpt><trkpt lat="40.6173517" lon="15.1789333"><ele>98.0</ele><time>2026-05-02T10:31:32.855Z</time></trkpt><trkpt lat="40.6173717" lon="15.1790217"><ele>98.0</ele><time>2026-05-02T10:31:33.855Z</time></trkpt><trkpt lat="40.617385" lon="15.1791117"><ele>98.0</ele><time>2026-05-02T10:31:34.855Z</time></trkpt><trkpt lat="40.6174017" lon="15.1792033"><ele>98.0</ele><time>2026-05-02T10:31:35.855Z</time></trkpt><trkpt lat="40.61742" lon="15.1792933"><ele>98.0</ele><time>2026-05-02T10:31:36.855Z</time></trkpt><trkpt lat="40.6174433" lon="15.1793817"><ele>98.0</ele><time>2026-05-02T10:31:37.856Z</time></trkpt><trkpt lat="40.617475" lon="15.1794667"><ele>96.83333333333333</ele><time>2026-05-02T10:31:38.856Z</time></trkpt><trkpt lat="40.6175233" lon="15.1795467"><ele>95.66666666666666</ele><time>2026-05-02T10:31:39.856Z</time></trkpt><trkpt lat="40.6175817" lon="15.1796133"><ele>94.5</ele><time>2026-05-02T10:31:40.856Z</time></trkpt><trkpt lat="40.6176467" lon="15.17966"><ele>93.33333333333333</ele><time>2026-05-02T10:31:41.855Z</time></trkpt><trkpt lat="40.6177167" lon="15.1797117"><ele>92.16666666666666</ele><time>2026-05-02T10:31:42.856Z</time></trkpt><trkpt lat="40.6177833" lon="15.1797617"><ele>91.0</ele><time>2026-05-02T10:31:43.856Z</time></trkpt><trkpt lat="40.6178533" lon="15.1798117"><ele>88.66666666666666</ele><time>2026-05-02T10:31:44.855Z</time></trkpt><trkpt lat="40.6179233" lon="15.1798633"><ele>86.33333333333333</ele><time>2026-05-02T10:31:45.855Z</time></trkpt><trkpt lat="40.6179917" lon="15.179915"><ele>84.0</ele><time>2026-05-02T10:31:46.856Z</time></trkpt><trkpt lat="40.6180583" lon="15.17996"><ele>81.66666666666667</ele><time>2026-05-02T10:31:47.855Z</time></trkpt><trkpt lat="40.6181233" lon="15.1799983"><ele>79.33333333333334</ele><time>2026-05-02T10:31:48.856Z</time></trkpt><trkpt lat="40.6181967" lon="15.1800283"><ele>77.0</ele><time>2026-05-02T10:31:49.855Z</time></trkpt><trkpt lat="40.6182717" lon="15.1800533"><ele>77.0</ele><time>2026-05-02T10:31:50.855Z</time></trkpt><trkpt lat="40.61835" lon="15.1800767"><ele>77.0</ele><time>2026-05-02T10:31:51.855Z</time></trkpt><trkpt lat="40.618435" lon="15.1801"><ele>77.0</ele><time>2026-05-02T10:31:52.855Z</time></trkpt><trkpt lat="40.6185183" lon="15.1801267"><ele>77.0</ele><time>2026-05-02T10:31:53.856Z</time></trkpt><trkpt lat="40.618605" lon="15.1801483"><ele>77.0</ele><time>2026-05-02T10:31:54.856Z</time></trkpt><trkpt lat="40.61869" lon="15.1801767"><ele>77.0</ele><time>2026-05-02T10:31:55.855Z</time></trkpt><trkpt lat="40.6187767" lon="15.1802033"><ele>76.83333333333334</ele><time>2026-05-02T10:31:56.856Z</time></trkpt><trkpt lat="40.618865" lon="15.1802317"><ele>76.66666666666667</ele><time>2026-05-02T10:31:57.856Z</time></trkpt><trkpt lat="40.618955" lon="15.18026"><ele>76.5</ele><time>2026-05-02T10:31:58.856Z</time></trkpt><trkpt lat="40.6190383" lon="15.1802867"><ele>76.33333333333333</ele><time>2026-05-02T10:31:59.855Z</time></trkpt><trkpt lat="40.6191183" lon="15.1803133"><ele>76.16666666666666</ele><time>2026-05-02T10:32:00.856Z</time></trkpt><trkpt lat="40.6192" lon="15.1803383"><ele>76.0</ele><time>2026-05-02T10:32:01.856Z</time></trkpt><trkpt lat="40.6192783" lon="15.180365"><ele>76.0</ele><time>2026-05-02T10:32:02.856Z</time></trkpt><trkpt lat="40.6193483" lon="15.18039"><ele>76.0</ele><time>2026-05-02T10:32:03.856Z</time></trkpt><trkpt lat="40.6194217" lon="15.180415"><ele>76.0</ele><time>2026-05-02T10:32:04.856Z</time></trkpt><trkpt lat="40.619495" lon="15.1804333"><ele>76.0</ele><time>2026-05-02T10:32:05.856Z</time></trkpt><trkpt lat="40.6195683" lon="15.18046"><ele>76.0</ele><time>2026-05-02T10:32:06.856Z</time></trkpt><trkpt lat="40.6196367" lon="15.1804933"><ele>76.0</ele><time>2026-05-02T10:32:07.855Z</time></trkpt><trkpt lat="40.6197167" lon="15.180525"><ele>75.83333333333333</ele><time>2026-05-02T10:32:08.855Z</time></trkpt><trkpt lat="40.6197967" lon="15.1805633"><ele>75.66666666666666</ele><time>2026-05-02T10:32:09.855Z</time></trkpt><trkpt lat="40.6198817" lon="15.1805967"><ele>75.5</ele><time>2026-05-02T10:32:10.855Z</time></trkpt><trkpt lat="40.61996" lon="15.1806317"><ele>75.33333333333333</ele><time>2026-05-02T10:32:11.855Z</time></trkpt><trkpt lat="40.6200333" lon="15.1806667"><ele>75.16666666666667</ele><time>2026-05-02T10:32:12.856Z</time></trkpt><trkpt lat="40.6201083" lon="15.1807017"><ele>75.0</ele><time>2026-05-02T10:32:13.856Z</time></trkpt><trkpt lat="40.6201783" lon="15.1807317"><ele>73.33333333333333</ele><time>2026-05-02T10:32:14.856Z</time></trkpt><trkpt lat="40.6202733" lon="15.180775"><ele>71.66666666666667</ele><time>2026-05-02T10:32:16.855Z</time></trkpt><trkpt lat="40.6203367" lon="15.1808117"><ele>70.0</ele><time>2026-05-02T10:32:19.855Z</time></trkpt><trkpt lat="40.6202983" lon="15.180905"><ele>68.33333333333334</ele><time>2026-05-02T10:32:24.856Z</time></trkpt><trkpt lat="40.6202233" lon="15.1809183"><ele>66.66666666666667</ele><time>2026-05-02T10:32:26.855Z</time></trkpt><trkpt lat="40.620125" lon="15.1809333"><ele>65.0</ele><time>2026-05-02T10:32:28.856Z</time></trkpt><trkpt lat="40.62002" lon="15.1809817"><ele>64.83333333333334</ele><time>2026-05-02T10:32:30.855Z</time></trkpt><trkpt lat="40.6199633" lon="15.1810867"><ele>64.66666666666667</ele><time>2026-05-02T10:32:32.856Z</time></trkpt><trkpt lat="40.6199467" lon="15.181195"><ele>64.5</ele><time>2026-05-02T10:32:34.856Z</time></trkpt><trkpt lat="40.61993" lon="15.1812783"><ele>64.33333333333333</ele><time>2026-05-02T10:32:36.856Z</time></trkpt><trkpt lat="40.6199267" lon="15.1813667"><ele>64.16666666666666</ele><time>2026-05-02T10:32:38.856Z</time></trkpt><trkpt lat="40.6199233" lon="15.1814767"><ele>64.0</ele><time>2026-05-02T10:32:39.855Z</time></trkpt><trkpt lat="40.619905" lon="15.1816133"><ele>64.0</ele><time>2026-05-02T10:32:41.855Z</time></trkpt><trkpt lat="40.6199267" lon="15.1817233"><ele>64.0</ele><time>2026-05-02T10:32:44.855Z</time></trkpt><trkpt lat="40.6199983" lon="15.1817983"><ele>64.0</ele><time>2026-05-02T10:32:46.856Z</time></trkpt><trkpt lat="40.6201117" lon="15.181845"><ele>64.0</ele><time>2026-05-02T10:32:48.855Z</time></trkpt><trkpt lat="40.6202217" lon="15.181835"><ele>64.0</ele><time>2026-05-02T10:32:50.856Z</time></trkpt><trkpt lat="40.6203383" lon="15.1818183"><ele>64.0</ele><time>2026-05-02T10:32:52.855Z</time></trkpt><trkpt lat="40.6204383" lon="15.1818033"><ele>64.0</ele><time>2026-05-02T10:32:54.855Z</time></trkpt><trkpt lat="40.62054" lon="15.181805"><ele>64.0</ele><time>2026-05-02T10:32:56.856Z</time></trkpt><trkpt lat="40.6206067" lon="15.1818067"><ele>64.0</ele><time>2026-05-02T10:32:58.855Z</time></trkpt><trkpt lat="40.6206883" lon="15.1818417"><ele>64.0</ele><time>2026-05-02T10:33:21.855Z</time></trkpt><trkpt lat="40.6207933" lon="15.1818483"><ele>64.0</ele><time>2026-05-02T10:33:23.856Z</time></trkpt><trkpt lat="40.620915" lon="15.1818433"><ele>64.0</ele><time>2026-05-02T10:33:25.855Z</time></trkpt><trkpt lat="40.6209783" lon="15.1818417"><ele>64.0</ele><time>2026-05-02T10:33:26.855Z</time></trkpt><trkpt lat="40.6211017" lon="15.18184"><ele>64.0</ele><time>2026-05-02T10:33:28.856Z</time></trkpt><trkpt lat="40.6212117" lon="15.1818433"><ele>64.0</ele><time>2026-05-02T10:33:30.856Z</time></trkpt><trkpt lat="40.6213067" lon="15.1818517"><ele>63.83333333333333</ele><time>2026-05-02T10:33:32.856Z</time></trkpt><trkpt lat="40.6213883" lon="15.1818783"><ele>63.666666666666664</ele><time>2026-05-02T10:33:34.856Z</time></trkpt><trkpt lat="40.6214533" lon="15.1819117"><ele>63.5</ele><time>2026-05-02T10:33:36.856Z</time></trkpt><trkpt lat="40.6215383" lon="15.1819217"><ele>63.33333333333333</ele><time>2026-05-02T10:33:39.855Z</time></trkpt><trkpt lat="40.6215967" lon="15.1819867"><ele>63.166666666666664</ele><time>2026-05-02T10:33:51.856Z</time></trkpt><trkpt lat="40.62163" lon="15.18207"><ele>63.0</ele><time>2026-05-02T10:33:53.856Z</time></trkpt><trkpt lat="40.6217183" lon="15.1821433"><ele>63.0</ele><time>2026-05-02T10:33:55.856Z</time></trkpt><trkpt lat="40.6218183" lon="15.1821783"><ele>63.0</ele><time>2026-05-02T10:33:57.856Z</time></trkpt><trkpt lat="40.6219283" lon="15.1821683"><ele>63.0</ele><time>2026-05-02T10:33:59.855Z</time></trkpt><trkpt lat="40.6220367" lon="15.18216"><ele>63.0</ele><time>2026-05-02T10:34:01.856Z</time></trkpt><trkpt lat="40.6221433" lon="15.1821667"><ele>63.0</ele><time>2026-05-02T10:34:03.856Z</time></trkpt><trkpt lat="40.6222333" lon="15.1821717"><ele>63.4</ele><time>2026-05-02T10:34:05.856Z</time></trkpt><trkpt lat="40.62235" lon="15.1822"><ele>63.8</ele><time>2026-05-02T10:34:07.856Z</time></trkpt><trkpt lat="40.62246" lon="15.1822833"><ele>64.2</ele><time>2026-05-02T10:34:09.856Z</time></trkpt><trkpt lat="40.6225183" lon="15.182335"><ele>64.6</ele><time>2026-05-02T10:34:10.855Z</time></trkpt><trkpt lat="40.6225767" lon="15.18239"><ele>65.0</ele><time>2026-05-02T10:34:11.855Z</time></trkpt><trkpt lat="40.6226367" lon="15.1824533"><ele>64.83333333333334</ele><time>2026-05-02T10:34:12.855Z</time></trkpt><trkpt lat="40.6227" lon="15.18252"><ele>64.66666666666667</ele><time>2026-05-02T10:34:13.855Z</time></trkpt><trkpt lat="40.6227667" lon="15.1825883"><ele>64.5</ele><time>2026-05-02T10:34:14.855Z</time></trkpt><trkpt lat="40.622835" lon="15.1826567"><ele>64.33333333333333</ele><time>2026-05-02T10:34:15.855Z</time></trkpt><trkpt lat="40.6229083" lon="15.1827283"><ele>64.16666666666666</ele><time>2026-05-02T10:34:16.856Z</time></trkpt><trkpt lat="40.6229817" lon="15.182805"><ele>64.0</ele><time>2026-05-02T10:34:17.856Z</time></trkpt><trkpt lat="40.623055" lon="15.1828867"><ele>63.99999999999999</ele><time>2026-05-02T10:34:18.855Z</time></trkpt><trkpt lat="40.6231267" lon="15.182965"><ele>64.0</ele><time>2026-05-02T10:34:19.855Z</time></trkpt><trkpt lat="40.6232017" lon="15.1830483"><ele>64.0</ele><time>2026-05-02T10:34:20.856Z</time></trkpt><trkpt lat="40.6232717" lon="15.1831233"><ele>64.0</ele><time>2026-05-02T10:34:21.855Z</time></trkpt><trkpt lat="40.6233367" lon="15.18319"><ele>63.99999999999999</ele><time>2026-05-02T10:34:22.855Z</time></trkpt><trkpt lat="40.6233967" lon="15.18325"><ele>64.0</ele><time>2026-05-02T10:34:23.856Z</time></trkpt><trkpt lat="40.623455" lon="15.18331"><ele>63.99999999999999</ele><time>2026-05-02T10:34:24.855Z</time></trkpt><trkpt lat="40.6235167" lon="15.1833617"><ele>64.0</ele><time>2026-05-02T10:34:25.856Z</time></trkpt><trkpt lat="40.6235733" lon="15.183415"><ele>64.0</ele><time>2026-05-02T10:34:26.855Z</time></trkpt><trkpt lat="40.62363" lon="15.1834617"><ele>64.0</ele><time>2026-05-02T10:34:27.855Z</time></trkpt><trkpt lat="40.6237283" lon="15.1835383"><ele>63.99999999999999</ele><time>2026-05-02T10:34:29.855Z</time></trkpt><trkpt lat="40.6238317" lon="15.18356"><ele>64.0</ele><time>2026-05-02T10:34:31.856Z</time></trkpt><trkpt lat="40.6239617" lon="15.1835267"><ele>63.99999999999999</ele><time>2026-05-02T10:34:33.855Z</time></trkpt><trkpt lat="40.6240383" lon="15.1834983"><ele>64.0</ele><time>2026-05-02T10:34:34.856Z</time></trkpt><trkpt lat="40.6241183" lon="15.1834733"><ele>64.0</ele><time>2026-05-02T10:34:35.855Z</time></trkpt><trkpt lat="40.6241967" lon="15.1834483"><ele>64.0</ele><time>2026-05-02T10:34:36.856Z</time></trkpt><trkpt lat="40.624275" lon="15.1834217"><ele>63.99999999999999</ele><time>2026-05-02T10:34:37.856Z</time></trkpt><trkpt lat="40.6243517" lon="15.1833933"><ele>64.0</ele><time>2026-05-02T10:34:38.856Z</time></trkpt><trkpt lat="40.6244267" lon="15.1833633"><ele>63.99999999999999</ele><time>2026-05-02T10:34:39.855Z</time></trkpt><trkpt lat="40.6244967" lon="15.1833317"><ele>64.0</ele><time>2026-05-02T10:34:40.856Z</time></trkpt><trkpt lat="40.6245633" lon="15.183305"><ele>64.0</ele><time>2026-05-02T10:34:41.855Z</time></trkpt><trkpt lat="40.6246283" lon="15.1832783"><ele>64.0</ele><time>2026-05-02T10:34:42.856Z</time></trkpt><trkpt lat="40.6246917" lon="15.18325"><ele>63.99999999999999</ele><time>2026-05-02T10:34:43.856Z</time></trkpt><trkpt lat="40.6248067" lon="15.1831883"><ele>64.0</ele><time>2026-05-02T10:34:45.855Z</time></trkpt><trkpt lat="40.62486" lon="15.1831317"><ele>63.99999999999999</ele><time>2026-05-02T10:34:46.856Z</time></trkpt><trkpt lat="40.6249083" lon="15.183065"><ele>64.0</ele><time>2026-05-02T10:34:47.856Z</time></trkpt><trkpt lat="40.624955" lon="15.1829933"><ele>64.0</ele><time>2026-05-02T10:34:48.856Z</time></trkpt><trkpt lat="40.625005" lon="15.1829267"><ele>64.0</ele><time>2026-05-02T10:34:49.855Z</time></trkpt><trkpt lat="40.625085" lon="15.1828317"><ele>63.99999999999999</ele><time>2026-05-02T10:34:51.856Z</time></trkpt><trkpt lat="40.625195" lon="15.18283"><ele>64.0</ele><time>2026-05-02T10:34:53.854Z</time></trkpt><trkpt lat="40.62528" lon="15.182875"><ele>64.0</ele><time>2026-05-02T10:34:55.854Z</time></trkpt><trkpt lat="40.62531" lon="15.1829817"><ele>64.0</ele><time>2026-05-02T10:34:58.855Z</time></trkpt><trkpt lat="40.6252567" lon="15.1830833"><ele>64.0</ele><time>2026-05-02T10:35:00.855Z</time></trkpt><trkpt lat="40.62521" lon="15.18315"><ele>64.0</ele><time>2026-05-02T10:35:01.854Z</time></trkpt><trkpt lat="40.625125" lon="15.1832683"><ele>64.0</ele><time>2026-05-02T10:35:03.855Z</time></trkpt><trkpt lat="40.625055" lon="15.1833983"><ele>63.800000000000004</ele><time>2026-05-02T10:35:05.854Z</time></trkpt><trkpt lat="40.6250267" lon="15.1835367"><ele>63.60000000000001</ele><time>2026-05-02T10:35:07.855Z</time></trkpt><trkpt lat="40.62503" lon="15.1836533"><ele>63.4</ele><time>2026-05-02T10:35:09.855Z</time></trkpt><trkpt lat="40.6250333" lon="15.183745"><ele>63.2</ele><time>2026-05-02T10:35:11.854Z</time></trkpt><trkpt lat="40.6250467" lon="15.1838533"><ele>63.0</ele><time>2026-05-02T10:35:13.854Z</time></trkpt><trkpt lat="40.6250867" lon="15.183975"><ele>63.0</ele><time>2026-05-02T10:35:15.854Z</time></trkpt><trkpt lat="40.625155" lon="15.184095"><ele>63.0</ele><time>2026-05-02T10:35:17.854Z</time></trkpt><trkpt lat="40.6252" lon="15.1841617"><ele>63.0</ele><time>2026-05-02T10:35:18.854Z</time></trkpt><trkpt lat="40.6252467" lon="15.18422"><ele>63.0</ele><time>2026-05-02T10:35:19.855Z</time></trkpt><trkpt lat="40.6253267" lon="15.1843233"><ele>63.0</ele><time>2026-05-02T10:35:21.855Z</time></trkpt><trkpt lat="40.6253867" lon="15.18441"><ele>63.0</ele><time>2026-05-02T10:35:23.855Z</time></trkpt><trkpt lat="40.6254333" lon="15.184475"><ele>63.0</ele><time>2026-05-02T10:35:25.855Z</time></trkpt><trkpt lat="40.6255133" lon="15.18455"><ele>63.0</ele><time>2026-05-02T10:35:35.854Z</time></trkpt><trkpt lat="40.6255417" lon="15.1844417"><ele>63.0</ele><time>2026-05-02T10:38:45.853Z</time></trkpt><trkpt lat="40.6254867" lon="15.18436"><ele>63.0</ele><time>2026-05-02T10:38:47.853Z</time></trkpt><trkpt lat="40.6254167" lon="15.18426"><ele>63.0</ele><time>2026-05-02T10:38:49.854Z</time></trkpt><trkpt lat="40.6253567" lon="15.1841633"><ele>63.0</ele><time>2026-05-02T10:38:51.853Z</time></trkpt><trkpt lat="40.6252983" lon="15.184085"><ele>63.0</ele><time>2026-05-02T10:38:53.854Z</time></trkpt><trkpt lat="40.6251817" lon="15.18408"><ele>63.0</ele><time>2026-05-02T10:39:35.854Z</time></trkpt><trkpt lat="40.625125" lon="15.1840417"><ele>63.0</ele><time>2026-05-02T10:39:54.854Z</time></trkpt><trkpt lat="40.6250667" lon="15.18389"><ele>63.0</ele><time>2026-05-02T10:39:56.854Z</time></trkpt><trkpt lat="40.625035" lon="15.1837267"><ele>63.0</ele><time>2026-05-02T10:39:58.854Z</time></trkpt><trkpt lat="40.6250317" lon="15.1836417"><ele>63.0</ele><time>2026-05-02T10:39:59.854Z</time></trkpt><trkpt lat="40.6250317" lon="15.1834983"><ele>63.0</ele><time>2026-05-02T10:40:01.853Z</time></trkpt><trkpt lat="40.62506" lon="15.18339"><ele>63.0</ele><time>2026-05-02T10:40:03.854Z</time></trkpt><trkpt lat="40.625135" lon="15.183245"><ele>63.0</ele><time>2026-05-02T10:40:05.853Z</time></trkpt><trkpt lat="40.6251883" lon="15.1831583"><ele>63.2</ele><time>2026-05-02T10:40:06.853Z</time></trkpt><trkpt lat="40.62524" lon="15.1830783"><ele>63.4</ele><time>2026-05-02T10:40:07.854Z</time></trkpt><trkpt lat="40.6252867" lon="15.1829517"><ele>63.60000000000001</ele><time>2026-05-02T10:40:09.853Z</time></trkpt><trkpt lat="40.6252783" lon="15.1828483"><ele>63.800000000000004</ele><time>2026-05-02T10:40:11.854Z</time></trkpt><trkpt lat="40.625225" lon="15.1827933"><ele>64.0</ele><time>2026-05-02T10:40:13.854Z</time></trkpt><trkpt lat="40.6251033" lon="15.1828067"><ele>63.99999999999999</ele><time>2026-05-02T10:40:15.854Z</time></trkpt><trkpt lat="40.6250417" lon="15.1828417"><ele>64.0</ele><time>2026-05-02T10:40:16.854Z</time></trkpt><trkpt lat="40.6249633" lon="15.18295"><ele>64.0</ele><time>2026-05-02T10:40:18.854Z</time></trkpt><trkpt lat="40.6248967" lon="15.1830567"><ele>64.0</ele><time>2026-05-02T10:40:20.853Z</time></trkpt><trkpt lat="40.6248483" lon="15.1831183"><ele>63.99999999999999</ele><time>2026-05-02T10:40:21.854Z</time></trkpt><trkpt lat="40.6247817" lon="15.183185"><ele>64.0</ele><time>2026-05-02T10:40:22.854Z</time></trkpt><trkpt lat="40.6246933" lon="15.1832367"><ele>64.0</ele><time>2026-05-02T10:40:23.853Z</time></trkpt><trkpt lat="40.6245933" lon="15.183275"><ele>64.0</ele><time>2026-05-02T10:40:24.854Z</time></trkpt><trkpt lat="40.6244967" lon="15.1833133"><ele>64.0</ele><time>2026-05-02T10:40:25.854Z</time></trkpt><trkpt lat="40.6244067" lon="15.18335"><ele>64.0</ele><time>2026-05-02T10:40:26.854Z</time></trkpt><trkpt lat="40.62432" lon="15.18338"><ele>64.0</ele><time>2026-05-02T10:40:27.853Z</time></trkpt><trkpt lat="40.62423" lon="15.1834167"><ele>63.99999999999999</ele><time>2026-05-02T10:40:28.853Z</time></trkpt><trkpt lat="40.6241367" lon="15.1834533"><ele>64.0</ele><time>2026-05-02T10:40:29.854Z</time></trkpt><trkpt lat="40.6240417" lon="15.1834817"><ele>64.0</ele><time>2026-05-02T10:40:30.853Z</time></trkpt><trkpt lat="40.6239583" lon="15.1835067"><ele>64.0</ele><time>2026-05-02T10:40:31.854Z</time></trkpt><trkpt lat="40.62388" lon="15.1835283"><ele>63.99999999999999</ele><time>2026-05-02T10:40:32.854Z</time></trkpt><trkpt lat="40.6238117" lon="15.1835333"><ele>64.0</ele><time>2026-05-02T10:40:33.853Z</time></trkpt><trkpt lat="40.6237467" lon="15.1835217"><ele>64.0</ele><time>2026-05-02T10:40:34.854Z</time></trkpt><trkpt lat="40.623675" lon="15.1834917"><ele>64.0</ele><time>2026-05-02T10:40:35.854Z</time></trkpt><trkpt lat="40.6235967" lon="15.1834183"><ele>64.0</ele><time>2026-05-02T10:40:36.854Z</time></trkpt><trkpt lat="40.6235133" lon="15.1833367"><ele>64.0</ele><time>2026-05-02T10:40:37.853Z</time></trkpt><trkpt lat="40.6234317" lon="15.1832683"><ele>64.0</ele><time>2026-05-02T10:40:38.853Z</time></trkpt><trkpt lat="40.62336" lon="15.1832033"><ele>64.0</ele><time>2026-05-02T10:40:39.854Z</time></trkpt><trkpt lat="40.6232917" lon="15.183135"><ele>64.0</ele><time>2026-05-02T10:40:40.853Z</time></trkpt><trkpt lat="40.6232233" lon="15.183065"><ele>64.0</ele><time>2026-05-02T10:40:41.853Z</time></trkpt><trkpt lat="40.6231533" lon="15.1829867"><ele>64.0</ele><time>2026-05-02T10:40:42.854Z</time></trkpt><trkpt lat="40.6230767" lon="15.1829033"><ele>64.0</ele><time>2026-05-02T10:40:43.853Z</time></trkpt><trkpt lat="40.622995" lon="15.1828267"><ele>64.0</ele><time>2026-05-02T10:40:44.854Z</time></trkpt><trkpt lat="40.6229133" lon="15.1827367"><ele>64.0</ele><time>2026-05-02T10:40:45.854Z</time></trkpt><trkpt lat="40.6228217" lon="15.1826467"><ele>64.0</ele><time>2026-05-02T10:40:46.854Z</time></trkpt><trkpt lat="40.6227333" lon="15.1825533"><ele>64.0</ele><time>2026-05-02T10:40:47.853Z</time></trkpt><trkpt lat="40.6226483" lon="15.1824667"><ele>64.0</ele><time>2026-05-02T10:40:48.854Z</time></trkpt><trkpt lat="40.6225633" lon="15.1823833"><ele>64.16666666666666</ele><time>2026-05-02T10:40:49.854Z</time></trkpt><trkpt lat="40.62248" lon="15.1823117"><ele>64.33333333333333</ele><time>2026-05-02T10:40:50.854Z</time></trkpt><trkpt lat="40.6224033" lon="15.1822517"><ele>64.5</ele><time>2026-05-02T10:40:51.854Z</time></trkpt><trkpt lat="40.6223333" lon="15.1822067"><ele>64.66666666666667</ele><time>2026-05-02T10:40:52.853Z</time></trkpt><trkpt lat="40.6222633" lon="15.1821883"><ele>64.83333333333334</ele><time>2026-05-02T10:40:53.854Z</time></trkpt><trkpt lat="40.6221667" lon="15.1821717"><ele>65.0</ele><time>2026-05-02T10:40:54.853Z</time></trkpt><trkpt lat="40.6220483" lon="15.1821667"><ele>64.66666666666667</ele><time>2026-05-02T10:40:55.854Z</time></trkpt><trkpt lat="40.62194" lon="15.1821683"><ele>64.33333333333334</ele><time>2026-05-02T10:40:56.854Z</time></trkpt><trkpt lat="40.6218533" lon="15.1821717"><ele>64.0</ele><time>2026-05-02T10:40:57.854Z</time></trkpt><trkpt lat="40.621785" lon="15.1821667"><ele>63.66666666666667</ele><time>2026-05-02T10:40:58.854Z</time></trkpt><trkpt lat="40.62172" lon="15.1821417"><ele>63.333333333333336</ele><time>2026-05-02T10:40:59.853Z</time></trkpt><trkpt lat="40.621655" lon="15.1820983"><ele>63.0</ele><time>2026-05-02T10:41:00.854Z</time></trkpt><trkpt lat="40.621595" lon="15.1820467"><ele>63.0</ele><time>2026-05-02T10:41:01.854Z</time></trkpt><trkpt lat="40.6215333" lon="15.1819867"><ele>63.0</ele><time>2026-05-02T10:41:02.854Z</time></trkpt><trkpt lat="40.6214717" lon="15.181935"><ele>63.0</ele><time>2026-05-02T10:41:03.853Z</time></trkpt><trkpt lat="40.6214083" lon="15.181895"><ele>63.0</ele><time>2026-05-02T10:41:04.853Z</time></trkpt><trkpt lat="40.621335" lon="15.1818617"><ele>63.0</ele><time>2026-05-02T10:41:05.853Z</time></trkpt><trkpt lat="40.6212483" lon="15.1818333"><ele>63.0</ele><time>2026-05-02T10:41:06.853Z</time></trkpt><trkpt lat="40.621145" lon="15.1818167"><ele>63.25</ele><time>2026-05-02T10:41:07.853Z</time></trkpt><trkpt lat="40.6210333" lon="15.181815"><ele>63.5</ele><time>2026-05-02T10:41:08.854Z</time></trkpt><trkpt lat="40.62091" lon="15.1818217"><ele>63.75</ele><time>2026-05-02T10:41:09.853Z</time></trkpt><trkpt lat="40.6207867" lon="15.1818283"><ele>64.0</ele><time>2026-05-02T10:41:10.854Z</time></trkpt><trkpt lat="40.620675" lon="15.181825"><ele>63.99999999999999</ele><time>2026-05-02T10:41:11.853Z</time></trkpt><trkpt lat="40.6205767" lon="15.18181"><ele>64.0</ele><time>2026-05-02T10:41:12.854Z</time></trkpt><trkpt lat="40.6204833" lon="15.1818067"><ele>64.0</ele><time>2026-05-02T10:41:13.853Z</time></trkpt><trkpt lat="40.6203967" lon="15.1818083"><ele>64.0</ele><time>2026-05-02T10:41:14.854Z</time></trkpt><trkpt lat="40.6203217" lon="15.1818167"><ele>63.99999999999999</ele><time>2026-05-02T10:41:15.853Z</time></trkpt><trkpt lat="40.6202483" lon="15.1818267"><ele>64.0</ele><time>2026-05-02T10:41:16.854Z</time></trkpt><trkpt lat="40.6201833" lon="15.181835"><ele>63.99999999999999</ele><time>2026-05-02T10:41:17.854Z</time></trkpt><trkpt lat="40.6201183" lon="15.1818333"><ele>64.0</ele><time>2026-05-02T10:41:18.853Z</time></trkpt><trkpt lat="40.6200083" lon="15.1817983"><ele>64.0</ele><time>2026-05-02T10:41:20.854Z</time></trkpt><trkpt lat="40.6199167" lon="15.1817183"><ele>64.0</ele><time>2026-05-02T10:41:22.853Z</time></trkpt><trkpt lat="40.6198967" lon="15.181635"><ele>63.99999999999999</ele><time>2026-05-02T10:41:24.854Z</time></trkpt><trkpt lat="40.61991" lon="15.18154"><ele>64.0</ele><time>2026-05-02T10:41:26.853Z</time></trkpt><trkpt lat="40.6199217" lon="15.1814033"><ele>63.99999999999999</ele><time>2026-05-02T10:41:28.854Z</time></trkpt><trkpt lat="40.6199317" lon="15.1813067"><ele>64.0</ele><time>2026-05-02T10:41:29.853Z</time></trkpt><trkpt lat="40.6199417" lon="15.1812217"><ele>64.0</ele><time>2026-05-02T10:41:30.854Z</time></trkpt><trkpt lat="40.61998" lon="15.1810983"><ele>64.0</ele><time>2026-05-02T10:41:32.853Z</time></trkpt><trkpt lat="40.62002" lon="15.181025"><ele>63.99999999999999</ele><time>2026-05-02T10:41:34.853Z</time></trkpt><trkpt lat="40.6200967" lon="15.180965"><ele>64.0</ele><time>2026-05-02T10:41:37.854Z</time></trkpt><trkpt lat="40.6201817" lon="15.18093"><ele>63.99999999999999</ele><time>2026-05-02T10:41:40.853Z</time></trkpt><trkpt lat="40.6202717" lon="15.1809033"><ele>64.0</ele><time>2026-05-02T10:41:42.854Z</time></trkpt><trkpt lat="40.62039" lon="15.1808717"><ele>64.0</ele><time>2026-05-02T10:41:44.854Z</time></trkpt><trkpt lat="40.62046" lon="15.1808733"><ele>64.0</ele><time>2026-05-02T10:41:45.853Z</time></trkpt><trkpt lat="40.6205383" lon="15.1808767"><ele>63.99999999999999</ele><time>2026-05-02T10:41:46.853Z</time></trkpt><trkpt lat="40.6206233" lon="15.180875"><ele>64.0</ele><time>2026-05-02T10:41:47.854Z</time></trkpt><trkpt lat="40.620715" lon="15.1808633"><ele>64.2</ele><time>2026-05-02T10:41:48.853Z</time></trkpt><trkpt lat="40.6208133" lon="15.1808483"><ele>64.4</ele><time>2026-05-02T10:41:49.853Z</time></trkpt><trkpt lat="40.6209167" lon="15.1808317"><ele>64.6</ele><time>2026-05-02T10:41:50.853Z</time></trkpt><trkpt lat="40.621025" lon="15.1808183"><ele>64.8</ele><time>2026-05-02T10:41:51.852Z</time></trkpt><trkpt lat="40.62114" lon="15.1808033"><ele>65.0</ele><time>2026-05-02T10:41:52.852Z</time></trkpt><trkpt lat="40.6212483" lon="15.1807883"><ele>65.16666666666667</ele><time>2026-05-02T10:41:53.853Z</time></trkpt><trkpt lat="40.62135" lon="15.180775"><ele>65.33333333333334</ele><time>2026-05-02T10:41:54.852Z</time></trkpt><trkpt lat="40.6214433" lon="15.180765"><ele>65.5</ele><time>2026-05-02T10:41:55.852Z</time></trkpt><trkpt lat="40.6215317" lon="15.1807533"><ele>65.66666666666667</ele><time>2026-05-02T10:41:56.852Z</time></trkpt><trkpt lat="40.62161" lon="15.1807467"><ele>65.83333333333333</ele><time>2026-05-02T10:41:57.853Z</time></trkpt><trkpt lat="40.6216833" lon="15.1807383"><ele>66.0</ele><time>2026-05-02T10:41:58.852Z</time></trkpt><trkpt lat="40.6217517" lon="15.180725"><ele>66.0</ele><time>2026-05-02T10:41:59.852Z</time></trkpt><trkpt lat="40.621815" lon="15.180715"><ele>66.0</ele><time>2026-05-02T10:42:00.853Z</time></trkpt><trkpt lat="40.6218783" lon="15.1807033"><ele>66.0</ele><time>2026-05-02T10:42:01.852Z</time></trkpt><trkpt lat="40.622005" lon="15.18068"><ele>66.0</ele><time>2026-05-02T10:42:03.852Z</time></trkpt><trkpt lat="40.6221233" lon="15.1806583"><ele>66.0</ele><time>2026-05-02T10:42:05.852Z</time></trkpt><trkpt lat="40.6221933" lon="15.1806367"><ele>66.0</ele><time>2026-05-02T10:42:06.852Z</time></trkpt><trkpt lat="40.6222683" lon="15.1806117"><ele>68.2</ele><time>2026-05-02T10:42:07.853Z</time></trkpt><trkpt lat="40.6223483" lon="15.1805767"><ele>70.39999999999999</ele><time>2026-05-02T10:42:08.852Z</time></trkpt><trkpt lat="40.62243" lon="15.1805317"><ele>72.6</ele><time>2026-05-02T10:42:09.853Z</time></trkpt><trkpt lat="40.62252" lon="15.1804783"><ele>74.8</ele><time>2026-05-02T10:42:10.853Z</time></trkpt><trkpt lat="40.62261" lon="15.1804267"><ele>77.0</ele><time>2026-05-02T10:42:11.853Z</time></trkpt><trkpt lat="40.6227017" lon="15.1803633"><ele>77.0</ele><time>2026-05-02T10:42:12.852Z</time></trkpt><trkpt lat="40.6228017" lon="15.1803017"><ele>77.0</ele><time>2026-05-02T10:42:13.853Z</time></trkpt><trkpt lat="40.62291" lon="15.18023"><ele>77.0</ele><time>2026-05-02T10:42:14.852Z</time></trkpt><trkpt lat="40.6230233" lon="15.1801583"><ele>77.0</ele><time>2026-05-02T10:42:15.853Z</time></trkpt><trkpt lat="40.6231417" lon="15.180085"><ele>77.25</ele><time>2026-05-02T10:42:16.852Z</time></trkpt><trkpt lat="40.62327" lon="15.1800183"><ele>77.5</ele><time>2026-05-02T10:42:17.852Z</time></trkpt><trkpt lat="40.6233983" lon="15.179955"><ele>77.75</ele><time>2026-05-02T10:42:18.853Z</time></trkpt><trkpt lat="40.62352" lon="15.1798933"><ele>78.0</ele><time>2026-05-02T10:42:19.853Z</time></trkpt><trkpt lat="40.6236383" lon="15.179835"><ele>80.5</ele><time>2026-05-02T10:42:20.852Z</time></trkpt><trkpt lat="40.6237533" lon="15.1797783"><ele>83.0</ele><time>2026-05-02T10:42:21.852Z</time></trkpt><trkpt lat="40.6238683" lon="15.179725"><ele>85.5</ele><time>2026-05-02T10:42:22.853Z</time></trkpt><trkpt lat="40.6239817" lon="15.1796783"><ele>88.0</ele><time>2026-05-02T10:42:23.852Z</time></trkpt><trkpt lat="40.6240883" lon="15.17965"><ele>88.0</ele><time>2026-05-02T10:42:24.853Z</time></trkpt><trkpt lat="40.6241883" lon="15.179635"><ele>88.0</ele><time>2026-05-02T10:42:25.853Z</time></trkpt><trkpt lat="40.6242917" lon="15.1796417"><ele>88.0</ele><time>2026-05-02T10:42:26.852Z</time></trkpt><trkpt lat="40.6243917" lon="15.1796567"><ele>88.0</ele><time>2026-05-02T10:42:27.852Z</time></trkpt><trkpt lat="40.6244833" lon="15.17968"><ele>88.0</ele><time>2026-05-02T10:42:28.852Z</time></trkpt><trkpt lat="40.6245733" lon="15.1797033"><ele>88.2</ele><time>2026-05-02T10:42:29.853Z</time></trkpt><trkpt lat="40.6246583" lon="15.1797383"><ele>88.4</ele><time>2026-05-02T10:42:30.852Z</time></trkpt><trkpt lat="40.6247433" lon="15.17978"><ele>88.60000000000001</ele><time>2026-05-02T10:42:31.853Z</time></trkpt><trkpt lat="40.624825" lon="15.17983"><ele>88.80000000000001</ele><time>2026-05-02T10:42:32.853Z</time></trkpt><trkpt lat="40.6249067" lon="15.17988"><ele>89.0</ele><time>2026-05-02T10:42:33.852Z</time></trkpt><trkpt lat="40.6249883" lon="15.179935"><ele>86.8</ele><time>2026-05-02T10:42:34.852Z</time></trkpt><trkpt lat="40.6250717" lon="15.1799967"><ele>84.60000000000001</ele><time>2026-05-02T10:42:35.853Z</time></trkpt><trkpt lat="40.6251533" lon="15.180065"><ele>82.4</ele><time>2026-05-02T10:42:36.852Z</time></trkpt><trkpt lat="40.6252367" lon="15.18014"><ele>80.2</ele><time>2026-05-02T10:42:37.852Z</time></trkpt><trkpt lat="40.6253217" lon="15.1802233"><ele>78.0</ele><time>2026-05-02T10:42:38.852Z</time></trkpt><trkpt lat="40.625405" lon="15.1803133"><ele>77.4</ele><time>2026-05-02T10:42:39.853Z</time></trkpt><trkpt lat="40.6254867" lon="15.1804033"><ele>76.8</ele><time>2026-05-02T10:42:40.853Z</time></trkpt><trkpt lat="40.6255683" lon="15.1805"><ele>76.2</ele><time>2026-05-02T10:42:41.853Z</time></trkpt><trkpt lat="40.6256433" lon="15.1805967"><ele>75.6</ele><time>2026-05-02T10:42:42.853Z</time></trkpt><trkpt lat="40.6257117" lon="15.1807"><ele>75.0</ele><time>2026-05-02T10:42:43.852Z</time></trkpt><trkpt lat="40.62578" lon="15.18081"><ele>73.4</ele><time>2026-05-02T10:42:44.853Z</time></trkpt><trkpt lat="40.6258433" lon="15.1809233"><ele>71.8</ele><time>2026-05-02T10:42:45.852Z</time></trkpt><trkpt lat="40.6259033" lon="15.1810333"><ele>70.2</ele><time>2026-05-02T10:42:46.853Z</time></trkpt><trkpt lat="40.625955" lon="15.181145"><ele>68.6</ele><time>2026-05-02T10:42:47.853Z</time></trkpt><trkpt lat="40.6260033" lon="15.18126"><ele>67.0</ele><time>2026-05-02T10:42:48.853Z</time></trkpt><trkpt lat="40.6260417" lon="15.1813683"><ele>67.0</ele><time>2026-05-02T10:42:49.852Z</time></trkpt><trkpt lat="40.626075" lon="15.1814633"><ele>67.0</ele><time>2026-05-02T10:42:50.852Z</time></trkpt><trkpt lat="40.6261083" lon="15.1815533"><ele>67.0</ele><time>2026-05-02T10:42:51.852Z</time></trkpt><trkpt lat="40.6261417" lon="15.1816517"><ele>67.0</ele><time>2026-05-02T10:42:52.852Z</time></trkpt><trkpt lat="40.6261767" lon="15.1817567"><ele>67.0</ele><time>2026-05-02T10:42:53.853Z</time></trkpt><trkpt lat="40.6262083" lon="15.18187"><ele>67.0</ele><time>2026-05-02T10:42:54.853Z</time></trkpt><trkpt lat="40.6262383" lon="15.1819933"><ele>67.25</ele><time>2026-05-02T10:42:55.853Z</time></trkpt><trkpt lat="40.6262683" lon="15.1821267"><ele>67.5</ele><time>2026-05-02T10:42:56.853Z</time></trkpt><trkpt lat="40.62629" lon="15.1822683"><ele>67.75</ele><time>2026-05-02T10:42:57.852Z</time></trkpt><trkpt lat="40.6263133" lon="15.1824217"><ele>68.0</ele><time>2026-05-02T10:42:58.853Z</time></trkpt><trkpt lat="40.62634" lon="15.1825833"><ele>68.75</ele><time>2026-05-02T10:42:59.853Z</time></trkpt><trkpt lat="40.6263667" lon="15.18274"><ele>69.5</ele><time>2026-05-02T10:43:00.852Z</time></trkpt><trkpt lat="40.6263967" lon="15.1828967"><ele>70.25</ele><time>2026-05-02T10:43:01.852Z</time></trkpt><trkpt lat="40.62643" lon="15.18304"><ele>71.0</ele><time>2026-05-02T10:43:02.852Z</time></trkpt><trkpt lat="40.6264667" lon="15.1831617"><ele>71.33333333333334</ele><time>2026-05-02T10:43:03.853Z</time></trkpt><trkpt lat="40.6265067" lon="15.183265"><ele>71.66666666666667</ele><time>2026-05-02T10:43:04.852Z</time></trkpt><trkpt lat="40.62655" lon="15.183355"><ele>72.0</ele><time>2026-05-02T10:43:05.853Z</time></trkpt><trkpt lat="40.6266033" lon="15.1834267"><ele>72.33333333333333</ele><time>2026-05-02T10:43:06.852Z</time></trkpt><trkpt lat="40.6266617" lon="15.1834867"><ele>72.66666666666666</ele><time>2026-05-02T10:43:07.852Z</time></trkpt><trkpt lat="40.62672" lon="15.1835383"><ele>73.0</ele><time>2026-05-02T10:43:08.852Z</time></trkpt><trkpt lat="40.626775" lon="15.1835883"><ele>73.0</ele><time>2026-05-02T10:43:09.852Z</time></trkpt><trkpt lat="40.62683" lon="15.183635"><ele>73.0</ele><time>2026-05-02T10:43:10.852Z</time></trkpt><trkpt lat="40.6268883" lon="15.183685"><ele>73.0</ele><time>2026-05-02T10:43:11.853Z</time></trkpt><trkpt lat="40.6269517" lon="15.183745"><ele>73.0</ele><time>2026-05-02T10:43:12.852Z</time></trkpt><trkpt lat="40.6270167" lon="15.1838133"><ele>73.0</ele><time>2026-05-02T10:43:13.852Z</time></trkpt><trkpt lat="40.6270783" lon="15.1838883"><ele>73.0</ele><time>2026-05-02T10:43:14.853Z</time></trkpt><trkpt lat="40.6271433" lon="15.1839683"><ele>74.2</ele><time>2026-05-02T10:43:15.853Z</time></trkpt><trkpt lat="40.62721" lon="15.184055"><ele>75.4</ele><time>2026-05-02T10:43:16.853Z</time></trkpt><trkpt lat="40.6272767" lon="15.18415"><ele>76.60000000000001</ele><time>2026-05-02T10:43:17.852Z</time></trkpt><trkpt lat="40.627345" lon="15.1842467"><ele>77.8</ele><time>2026-05-02T10:43:18.853Z</time></trkpt><trkpt lat="40.62742" lon="15.184345"><ele>79.0</ele><time>2026-05-02T10:43:19.852Z</time></trkpt><trkpt lat="40.6274883" lon="15.1844483"><ele>79.0</ele><time>2026-05-02T10:43:20.853Z</time></trkpt><trkpt lat="40.6275567" lon="15.1845533"><ele>79.0</ele><time>2026-05-02T10:43:21.852Z</time></trkpt><trkpt lat="40.6276267" lon="15.18465"><ele>79.0</ele><time>2026-05-02T10:43:22.853Z</time></trkpt><trkpt lat="40.6276983" lon="15.1847483"><ele>79.0</ele><time>2026-05-02T10:43:23.853Z</time></trkpt><trkpt lat="40.627765" lon="15.18484"><ele>79.0</ele><time>2026-05-02T10:43:24.853Z</time></trkpt><trkpt lat="40.627825" lon="15.1849367"><ele>79.16666666666666</ele><time>2026-05-02T10:43:25.853Z</time></trkpt><trkpt lat="40.627885" lon="15.185025"><ele>79.33333333333333</ele><time>2026-05-02T10:43:26.853Z</time></trkpt><trkpt lat="40.6279317" lon="15.185115"><ele>79.5</ele><time>2026-05-02T10:43:27.853Z</time></trkpt><trkpt lat="40.627965" lon="15.1852033"><ele>79.66666666666667</ele><time>2026-05-02T10:43:28.852Z</time></trkpt><trkpt lat="40.628" lon="15.185295"><ele>79.83333333333334</ele><time>2026-05-02T10:43:29.852Z</time></trkpt><trkpt lat="40.6280333" lon="15.1853933"><ele>80.0</ele><time>2026-05-02T10:43:30.853Z</time></trkpt><trkpt lat="40.6280633" lon="15.1855017"><ele>80.0</ele><time>2026-05-02T10:43:31.852Z</time></trkpt><trkpt lat="40.628085" lon="15.1856217"><ele>80.0</ele><time>2026-05-02T10:43:32.852Z</time></trkpt><trkpt lat="40.6281017" lon="15.1857533"><ele>80.0</ele><time>2026-05-02T10:43:33.852Z</time></trkpt><trkpt lat="40.628115" lon="15.1858967"><ele>80.0</ele><time>2026-05-02T10:43:34.853Z</time></trkpt><trkpt lat="40.6281367" lon="15.1860467"><ele>80.0</ele><time>2026-05-02T10:43:35.853Z</time></trkpt><trkpt lat="40.628155" lon="15.1862"><ele>79.75</ele><time>2026-05-02T10:43:36.853Z</time></trkpt><trkpt lat="40.628165" lon="15.18635"><ele>79.5</ele><time>2026-05-02T10:43:37.853Z</time></trkpt><trkpt lat="40.62817" lon="15.1865033"><ele>79.25</ele><time>2026-05-02T10:43:38.853Z</time></trkpt><trkpt lat="40.6281683" lon="15.1866667"><ele>79.0</ele><time>2026-05-02T10:43:39.852Z</time></trkpt><trkpt lat="40.6281667" lon="15.1868233"><ele>78.5</ele><time>2026-05-02T10:43:40.852Z</time></trkpt><trkpt lat="40.6281683" lon="15.1869917"><ele>78.0</ele><time>2026-05-02T10:43:41.853Z</time></trkpt><trkpt lat="40.6281717" lon="15.1871667"><ele>77.5</ele><time>2026-05-02T10:43:42.853Z</time></trkpt><trkpt lat="40.6281767" lon="15.187345"><ele>77.0</ele><time>2026-05-02T10:43:43.852Z</time></trkpt><trkpt lat="40.6281817" lon="15.1875333"><ele>75.75</ele><time>2026-05-02T10:43:44.853Z</time></trkpt><trkpt lat="40.6281767" lon="15.187725"><ele>74.5</ele><time>2026-05-02T10:43:45.853Z</time></trkpt><trkpt lat="40.6281667" lon="15.1879217"><ele>73.25</ele><time>2026-05-02T10:43:46.852Z</time></trkpt><trkpt lat="40.6281617" lon="15.1881217"><ele>72.0</ele><time>2026-05-02T10:43:47.852Z</time></trkpt><trkpt lat="40.628155" lon="15.1883267"><ele>71.33333333333333</ele><time>2026-05-02T10:43:48.852Z</time></trkpt><trkpt lat="40.6281383" lon="15.18853"><ele>70.66666666666666</ele><time>2026-05-02T10:43:49.853Z</time></trkpt><trkpt lat="40.62812" lon="15.1887333"><ele>70.0</ele><time>2026-05-02T10:43:50.852Z</time></trkpt><trkpt lat="40.628105" lon="15.188935"><ele>70.5</ele><time>2026-05-02T10:43:51.853Z</time></trkpt><trkpt lat="40.62809" lon="15.189125"><ele>71.0</ele><time>2026-05-02T10:43:52.853Z</time></trkpt><trkpt lat="40.628075" lon="15.1893033"><ele>71.5</ele><time>2026-05-02T10:43:53.852Z</time></trkpt><trkpt lat="40.6280617" lon="15.1894783"><ele>72.0</ele><time>2026-05-02T10:43:54.852Z</time></trkpt><trkpt lat="40.6280483" lon="15.1896383"><ele>72.0</ele><time>2026-05-02T10:43:55.853Z</time></trkpt><trkpt lat="40.6280367" lon="15.1897883"><ele>72.0</ele><time>2026-05-02T10:43:56.852Z</time></trkpt><trkpt lat="40.6280367" lon="15.1899317"><ele>72.0</ele><time>2026-05-02T10:43:57.852Z</time></trkpt><trkpt lat="40.6280483" lon="15.1900767"><ele>72.0</ele><time>2026-05-02T10:43:58.852Z</time></trkpt><trkpt lat="40.6280683" lon="15.1902217"><ele>72.0</ele><time>2026-05-02T10:43:59.853Z</time></trkpt><trkpt lat="40.6280967" lon="15.1903667"><ele>73.0</ele><time>2026-05-02T10:44:00.852Z</time></trkpt><trkpt lat="40.6281283" lon="15.1905117"><ele>74.0</ele><time>2026-05-02T10:44:01.853Z</time></trkpt><trkpt lat="40.6281533" lon="15.1906567"><ele>75.0</ele><time>2026-05-02T10:44:02.853Z</time></trkpt><trkpt lat="40.6281833" lon="15.1908067"><ele>76.0</ele><time>2026-05-02T10:44:03.852Z</time></trkpt><trkpt lat="40.6282083" lon="15.1909483"><ele>76.2</ele><time>2026-05-02T10:44:04.852Z</time></trkpt><trkpt lat="40.6282233" lon="15.19109"><ele>76.39999999999999</ele><time>2026-05-02T10:44:05.852Z</time></trkpt><trkpt lat="40.6282283" lon="15.1912283"><ele>76.6</ele><time>2026-05-02T10:44:06.852Z</time></trkpt><trkpt lat="40.628215" lon="15.1913567"><ele>76.8</ele><time>2026-05-02T10:44:07.853Z</time></trkpt><trkpt lat="40.6281883" lon="15.1914817"><ele>77.0</ele><time>2026-05-02T10:44:08.852Z</time></trkpt><trkpt lat="40.6281533" lon="15.1916117"><ele>77.0</ele><time>2026-05-02T10:44:09.852Z</time></trkpt><trkpt lat="40.6281017" lon="15.1917517"><ele>77.0</ele><time>2026-05-02T10:44:10.852Z</time></trkpt><trkpt lat="40.6280467" lon="15.1918983"><ele>77.0</ele><time>2026-05-02T10:44:11.852Z</time></trkpt><trkpt lat="40.6279717" lon="15.1920517"><ele>77.0</ele><time>2026-05-02T10:44:12.853Z</time></trkpt><trkpt lat="40.6278933" lon="15.1922"><ele>76.75</ele><time>2026-05-02T10:44:13.852Z</time></trkpt><trkpt lat="40.62782" lon="15.1923483"><ele>76.5</ele><time>2026-05-02T10:44:14.853Z</time></trkpt><trkpt lat="40.6277567" lon="15.1924817"><ele>76.25</ele><time>2026-05-02T10:44:15.853Z</time></trkpt><trkpt lat="40.6276967" lon="15.1926167"><ele>76.0</ele><time>2026-05-02T10:44:16.852Z</time></trkpt><trkpt lat="40.62764" lon="15.1927417"><ele>76.39999999999999</ele><time>2026-05-02T10:44:17.853Z</time></trkpt><trkpt lat="40.6275867" lon="15.1928633"><ele>76.8</ele><time>2026-05-02T10:44:18.852Z</time></trkpt><trkpt lat="40.62755" lon="15.1929817"><ele>77.19999999999999</ele><time>2026-05-02T10:44:19.852Z</time></trkpt><trkpt lat="40.627525" lon="15.1931183"><ele>77.6</ele><time>2026-05-02T10:44:20.852Z</time></trkpt><trkpt lat="40.6275183" lon="15.1932633"><ele>78.0</ele><time>2026-05-02T10:44:21.852Z</time></trkpt><trkpt lat="40.6275133" lon="15.1934167"><ele>78.0</ele><time>2026-05-02T10:44:22.852Z</time></trkpt><trkpt lat="40.62751" lon="15.1935767"><ele>78.0</ele><time>2026-05-02T10:44:23.852Z</time></trkpt><trkpt lat="40.627515" lon="15.1937467"><ele>78.0</ele><time>2026-05-02T10:44:24.853Z</time></trkpt><trkpt lat="40.6275133" lon="15.1939133"><ele>78.0</ele><time>2026-05-02T10:44:25.852Z</time></trkpt><trkpt lat="40.62751" lon="15.1940917"><ele>79.0</ele><time>2026-05-02T10:44:26.853Z</time></trkpt><trkpt lat="40.6274967" lon="15.19427"><ele>80.0</ele><time>2026-05-02T10:44:27.852Z</time></trkpt><trkpt lat="40.6274733" lon="15.194455"><ele>81.0</ele><time>2026-05-02T10:44:28.852Z</time></trkpt><trkpt lat="40.6274583" lon="15.194645"><ele>82.0</ele><time>2026-05-02T10:44:29.853Z</time></trkpt><trkpt lat="40.6274417" lon="15.19484"><ele>83.5</ele><time>2026-05-02T10:44:30.853Z</time></trkpt><trkpt lat="40.627425" lon="15.1950367"><ele>85.0</ele><time>2026-05-02T10:44:31.853Z</time></trkpt><trkpt lat="40.6274017" lon="15.1952267"><ele>86.5</ele><time>2026-05-02T10:44:32.853Z</time></trkpt><trkpt lat="40.62738" lon="15.1954167"><ele>88.0</ele><time>2026-05-02T10:44:33.853Z</time></trkpt><trkpt lat="40.6273583" lon="15.1955917"><ele>88.75</ele><time>2026-05-02T10:44:34.852Z</time></trkpt><trkpt lat="40.6273417" lon="15.1957617"><ele>89.5</ele><time>2026-05-02T10:44:35.852Z</time></trkpt><trkpt lat="40.6273233" lon="15.1959383"><ele>90.25</ele><time>2026-05-02T10:44:36.852Z</time></trkpt><trkpt lat="40.627305" lon="15.1961133"><ele>91.0</ele><time>2026-05-02T10:44:37.853Z</time></trkpt><trkpt lat="40.627285" lon="15.1962933"><ele>91.0</ele><time>2026-05-02T10:44:38.853Z</time></trkpt><trkpt lat="40.6272717" lon="15.1964783"><ele>91.0</ele><time>2026-05-02T10:44:39.853Z</time></trkpt><trkpt lat="40.62726" lon="15.1966617"><ele>91.0</ele><time>2026-05-02T10:44:40.853Z</time></trkpt><trkpt lat="40.627245" lon="15.196845"><ele>91.0</ele><time>2026-05-02T10:44:41.852Z</time></trkpt><trkpt lat="40.6272333" lon="15.1970183"><ele>91.0</ele><time>2026-05-02T10:44:42.853Z</time></trkpt><trkpt lat="40.627225" lon="15.1971917"><ele>91.0</ele><time>2026-05-02T10:44:43.852Z</time></trkpt><trkpt lat="40.6272133" lon="15.1973667"><ele>91.0</ele><time>2026-05-02T10:44:44.853Z</time></trkpt><trkpt lat="40.6272017" lon="15.1975417"><ele>91.0</ele><time>2026-05-02T10:44:45.852Z</time></trkpt><trkpt lat="40.6271933" lon="15.19771"><ele>91.0</ele><time>2026-05-02T10:44:46.853Z</time></trkpt><trkpt lat="40.6271867" lon="15.1978733"><ele>91.0</ele><time>2026-05-02T10:44:47.853Z</time></trkpt><trkpt lat="40.6271817" lon="15.1980383"><ele>91.0</ele><time>2026-05-02T10:44:48.853Z</time></trkpt><trkpt lat="40.6271767" lon="15.1982067"><ele>91.0</ele><time>2026-05-02T10:44:49.852Z</time></trkpt><trkpt lat="40.6271683" lon="15.1983817"><ele>91.25</ele><time>2026-05-02T10:44:50.852Z</time></trkpt><trkpt lat="40.6271583" lon="15.1985633"><ele>91.5</ele><time>2026-05-02T10:44:51.852Z</time></trkpt><trkpt lat="40.62715" lon="15.1987417"><ele>91.75</ele><time>2026-05-02T10:44:52.852Z</time></trkpt><trkpt lat="40.6271383" lon="15.19891"><ele>92.0</ele><time>2026-05-02T10:44:53.853Z</time></trkpt><trkpt lat="40.627125" lon="15.1990983"><ele>93.25</ele><time>2026-05-02T10:44:54.853Z</time></trkpt><trkpt lat="40.6271033" lon="15.19929"><ele>94.5</ele><time>2026-05-02T10:44:55.852Z</time></trkpt><trkpt lat="40.62709" lon="15.1994833"><ele>95.75</ele><time>2026-05-02T10:44:56.853Z</time></trkpt><trkpt lat="40.6270833" lon="15.1996667"><ele>97.0</ele><time>2026-05-02T10:44:57.852Z</time></trkpt><trkpt lat="40.6270783" lon="15.1998383"><ele>98.25</ele><time>2026-05-02T10:44:58.852Z</time></trkpt><trkpt lat="40.627065" lon="15.2000117"><ele>99.5</ele><time>2026-05-02T10:44:59.852Z</time></trkpt><trkpt lat="40.62705" lon="15.20019"><ele>100.75</ele><time>2026-05-02T10:45:00.853Z</time></trkpt><trkpt lat="40.627035" lon="15.200375"><ele>102.0</ele><time>2026-05-02T10:45:01.853Z</time></trkpt><trkpt lat="40.6270233" lon="15.20055"><ele>102.33333333333333</ele><time>2026-05-02T10:45:02.852Z</time></trkpt><trkpt lat="40.6270183" lon="15.2007"><ele>102.66666666666666</ele><time>2026-05-02T10:45:03.852Z</time></trkpt><trkpt lat="40.6270083" lon="15.200825"><ele>103.0</ele><time>2026-05-02T10:45:04.853Z</time></trkpt><trkpt lat="40.627" lon="15.20093"><ele>103.33333333333333</ele><time>2026-05-02T10:45:05.852Z</time></trkpt><trkpt lat="40.6269967" lon="15.2010233"><ele>103.66666666666666</ele><time>2026-05-02T10:45:06.852Z</time></trkpt><trkpt lat="40.6269933" lon="15.201125"><ele>104.0</ele><time>2026-05-02T10:45:08.852Z</time></trkpt><trkpt lat="40.6270333" lon="15.2012017"><ele>104.0</ele><time>2026-05-02T10:45:28.852Z</time></trkpt><trkpt lat="40.6271217" lon="15.2012717"><ele>104.0</ele><time>2026-05-02T10:45:30.851Z</time></trkpt><trkpt lat="40.62722" lon="15.2013583"><ele>104.0</ele><time>2026-05-02T10:45:32.852Z</time></trkpt><trkpt lat="40.627295" lon="15.201465"><ele>104.0</ele><time>2026-05-02T10:45:34.851Z</time></trkpt><trkpt lat="40.6273267" lon="15.2016083"><ele>104.0</ele><time>2026-05-02T10:45:36.852Z</time></trkpt><trkpt lat="40.6273367" lon="15.201695"><ele>104.42857142857143</ele><time>2026-05-02T10:45:37.851Z</time></trkpt><trkpt lat="40.6273417" lon="15.2017833"><ele>104.85714285714286</ele><time>2026-05-02T10:45:38.851Z</time></trkpt><trkpt lat="40.627345" lon="15.2018767"><ele>105.28571428571429</ele><time>2026-05-02T10:45:39.852Z</time></trkpt><trkpt lat="40.6273517" lon="15.2019717"><ele>105.71428571428572</ele><time>2026-05-02T10:45:40.851Z</time></trkpt><trkpt lat="40.6273583" lon="15.2020767"><ele>106.14285714285714</ele><time>2026-05-02T10:45:41.851Z</time></trkpt><trkpt lat="40.6273583" lon="15.20218"><ele>106.57142857142858</ele><time>2026-05-02T10:45:42.851Z</time></trkpt><trkpt lat="40.6273583" lon="15.2022717"><ele>107.0</ele><time>2026-05-02T10:45:43.851Z</time></trkpt><trkpt lat="40.627365" lon="15.2024283"><ele>108.0</ele><time>2026-05-02T10:45:45.851Z</time></trkpt><trkpt lat="40.6274033" lon="15.20255"><ele>109.0</ele><time>2026-05-02T10:45:47.851Z</time></trkpt><trkpt lat="40.627535" lon="15.202605"><ele>110.0</ele><time>2026-05-02T10:45:50.852Z</time></trkpt><trkpt lat="40.6276717" lon="15.2026083"><ele>111.0</ele><time>2026-05-02T10:45:52.851Z</time></trkpt><trkpt lat="40.6277517" lon="15.2026117"><ele>113.33333333333333</ele><time>2026-05-02T10:45:53.851Z</time></trkpt><trkpt lat="40.6278283" lon="15.2026183"><ele>115.66666666666666</ele><time>2026-05-02T10:45:54.852Z</time></trkpt><trkpt lat="40.6279083" lon="15.2026183"><ele>118.0</ele><time>2026-05-02T10:45:55.851Z</time></trkpt><trkpt lat="40.6279917" lon="15.2026183"><ele>120.33333333333333</ele><time>2026-05-02T10:45:56.851Z</time></trkpt><trkpt lat="40.6280817" lon="15.2026183"><ele>122.66666666666666</ele><time>2026-05-02T10:45:57.851Z</time></trkpt><trkpt lat="40.6281717" lon="15.2026217"><ele>125.0</ele><time>2026-05-02T10:45:58.852Z</time></trkpt><trkpt lat="40.6282633" lon="15.2026267"><ele>124.99999999999999</ele><time>2026-05-02T10:45:59.852Z</time></trkpt><trkpt lat="40.6283533" lon="15.2026317"><ele>125.0</ele><time>2026-05-02T10:46:00.852Z</time></trkpt><trkpt lat="40.628435" lon="15.202635"><ele>125.0</ele><time>2026-05-02T10:46:01.852Z</time></trkpt><trkpt lat="40.6285133" lon="15.202635"><ele>125.0</ele><time>2026-05-02T10:46:02.851Z</time></trkpt><trkpt lat="40.6285933" lon="15.20264"><ele>124.99999999999999</ele><time>2026-05-02T10:46:03.851Z</time></trkpt><trkpt lat="40.628675" lon="15.2026433"><ele>125.0</ele><time>2026-05-02T10:46:04.852Z</time></trkpt><trkpt lat="40.6287533" lon="15.202645"><ele>126.83333333333333</ele><time>2026-05-02T10:46:05.851Z</time></trkpt><trkpt lat="40.6288333" lon="15.2026433"><ele>128.66666666666666</ele><time>2026-05-02T10:46:06.851Z</time></trkpt><trkpt lat="40.6289133" lon="15.202645"><ele>130.5</ele><time>2026-05-02T10:46:07.851Z</time></trkpt><trkpt lat="40.62899" lon="15.2026467"><ele>132.33333333333334</ele><time>2026-05-02T10:46:08.851Z</time></trkpt><trkpt lat="40.6290683" lon="15.20265"><ele>134.16666666666669</ele><time>2026-05-02T10:46:09.852Z</time></trkpt><trkpt lat="40.629145" lon="15.202655"><ele>136.0</ele><time>2026-05-02T10:46:10.852Z</time></trkpt><trkpt lat="40.6292217" lon="15.2026617"><ele>136.0</ele><time>2026-05-02T10:46:11.852Z</time></trkpt><trkpt lat="40.629295" lon="15.2026683"><ele>136.0</ele><time>2026-05-02T10:46:12.851Z</time></trkpt><trkpt lat="40.6293617" lon="15.2026767"><ele>136.0</ele><time>2026-05-02T10:46:13.851Z</time></trkpt><trkpt lat="40.62943" lon="15.202685"><ele>136.0</ele><time>2026-05-02T10:46:14.851Z</time></trkpt><trkpt lat="40.6295533" lon="15.2027033"><ele>136.0</ele><time>2026-05-02T10:46:16.852Z</time></trkpt><trkpt lat="40.6296167" lon="15.2027167"><ele>136.0</ele><time>2026-05-02T10:46:17.851Z</time></trkpt><trkpt lat="40.6297333" lon="15.2027267"><ele>136.66666666666669</ele><time>2026-05-02T10:46:19.852Z</time></trkpt><trkpt lat="40.629845" lon="15.202735"><ele>137.33333333333334</ele><time>2026-05-02T10:46:21.852Z</time></trkpt><trkpt lat="40.6299083" lon="15.202745"><ele>138.0</ele><time>2026-05-02T10:46:22.852Z</time></trkpt><trkpt lat="40.63003" lon="15.2027467"><ele>138.66666666666666</ele><time>2026-05-02T10:46:24.852Z</time></trkpt><trkpt lat="40.6300983" lon="15.2027383"><ele>139.33333333333331</ele><time>2026-05-02T10:46:25.851Z</time></trkpt><trkpt lat="40.6301717" lon="15.2027317"><ele>140.0</ele><time>2026-05-02T10:46:26.852Z</time></trkpt><trkpt lat="40.630245" lon="15.202715"><ele>140.66666666666666</ele><time>2026-05-02T10:46:27.852Z</time></trkpt><trkpt lat="40.63032" lon="15.202695"><ele>141.33333333333331</ele><time>2026-05-02T10:46:28.852Z</time></trkpt><trkpt lat="40.6303933" lon="15.2026633"><ele>142.0</ele><time>2026-05-02T10:46:29.852Z</time></trkpt><trkpt lat="40.6304717" lon="15.202635"><ele>142.66666666666666</ele><time>2026-05-02T10:46:30.852Z</time></trkpt><trkpt lat="40.6305483" lon="15.2026167"><ele>143.33333333333334</ele><time>2026-05-02T10:46:31.852Z</time></trkpt><trkpt lat="40.630625" lon="15.2026033"><ele>144.0</ele><time>2026-05-02T10:46:32.851Z</time></trkpt><trkpt lat="40.6307067" lon="15.202595"><ele>144.0</ele><time>2026-05-02T10:46:33.851Z</time></trkpt><trkpt lat="40.6307883" lon="15.20258"><ele>144.0</ele><time>2026-05-02T10:46:34.852Z</time></trkpt><trkpt lat="40.6308683" lon="15.2025567"><ele>144.0</ele><time>2026-05-02T10:46:35.852Z</time></trkpt><trkpt lat="40.6309467" lon="15.20253"><ele>144.0</ele><time>2026-05-02T10:46:36.852Z</time></trkpt><trkpt lat="40.6310267" lon="15.2024967"><ele>144.0</ele><time>2026-05-02T10:46:37.852Z</time></trkpt><trkpt lat="40.631105" lon="15.202465"><ele>144.0</ele><time>2026-05-02T10:46:38.852Z</time></trkpt><trkpt lat="40.6311833" lon="15.202425"><ele>144.83333333333334</ele><time>2026-05-02T10:46:39.852Z</time></trkpt><trkpt lat="40.6312583" lon="15.20238"><ele>145.66666666666666</ele><time>2026-05-02T10:46:40.852Z</time></trkpt><trkpt lat="40.6313317" lon="15.2023333"><ele>146.5</ele><time>2026-05-02T10:46:41.852Z</time></trkpt><trkpt lat="40.6314017" lon="15.20228"><ele>147.33333333333331</ele><time>2026-05-02T10:46:42.851Z</time></trkpt><trkpt lat="40.631465" lon="15.202225"><ele>148.16666666666666</ele><time>2026-05-02T10:46:43.852Z</time></trkpt><trkpt lat="40.6315333" lon="15.2021667"><ele>149.0</ele><time>2026-05-02T10:46:44.851Z</time></trkpt><trkpt lat="40.6316017" lon="15.20211"><ele>149.42857142857142</ele><time>2026-05-02T10:46:45.851Z</time></trkpt><trkpt lat="40.631665" lon="15.2020583"><ele>149.85714285714283</ele><time>2026-05-02T10:46:46.852Z</time></trkpt><trkpt lat="40.6317217" lon="15.20202"><ele>150.28571428571428</ele><time>2026-05-02T10:46:47.852Z</time></trkpt><trkpt lat="40.631785" lon="15.2019883"><ele>150.71428571428572</ele><time>2026-05-02T10:46:48.852Z</time></trkpt><trkpt lat="40.6318517" lon="15.2019667"><ele>151.14285714285717</ele><time>2026-05-02T10:46:49.852Z</time></trkpt><trkpt lat="40.6319167" lon="15.2019467"><ele>151.57142857142856</ele><time>2026-05-02T10:46:50.851Z</time></trkpt><trkpt lat="40.6319833" lon="15.2019317"><ele>152.0</ele><time>2026-05-02T10:46:51.851Z</time></trkpt><trkpt lat="40.6320567" lon="15.201925"><ele>154.14285714285714</ele><time>2026-05-02T10:46:52.852Z</time></trkpt><trkpt lat="40.6321267" lon="15.2019233"><ele>156.2857142857143</ele><time>2026-05-02T10:46:53.851Z</time></trkpt><trkpt lat="40.632195" lon="15.201915"><ele>158.42857142857144</ele><time>2026-05-02T10:46:54.852Z</time></trkpt><trkpt lat="40.6322617" lon="15.20191"><ele>160.57142857142856</ele><time>2026-05-02T10:46:55.851Z</time></trkpt><trkpt lat="40.6323267" lon="15.2019033"><ele>162.71428571428572</ele><time>2026-05-02T10:46:56.852Z</time></trkpt><trkpt lat="40.6323933" lon="15.2018983"><ele>164.85714285714286</ele><time>2026-05-02T10:46:57.852Z</time></trkpt><trkpt lat="40.632465" lon="15.2019"><ele>167.0</ele><time>2026-05-02T10:46:58.851Z</time></trkpt><trkpt lat="40.6325367" lon="15.2019017"><ele>167.0</ele><time>2026-05-02T10:46:59.852Z</time></trkpt><trkpt lat="40.6326067" lon="15.2019033"><ele>167.0</ele><time>2026-05-02T10:47:00.852Z</time></trkpt><trkpt lat="40.6326783" lon="15.201905"><ele>167.0</ele><time>2026-05-02T10:47:01.852Z</time></trkpt><trkpt lat="40.6327483" lon="15.201905"><ele>167.0</ele><time>2026-05-02T10:47:02.852Z</time></trkpt><trkpt lat="40.6328217" lon="15.2018967"><ele>167.0</ele><time>2026-05-02T10:47:03.852Z</time></trkpt><trkpt lat="40.632895" lon="15.2018817"><ele>167.0</ele><time>2026-05-02T10:47:04.851Z</time></trkpt><trkpt lat="40.6329667" lon="15.20186"><ele>167.0</ele><time>2026-05-02T10:47:05.851Z</time></trkpt><trkpt lat="40.6330333" lon="15.201825"><ele>168.85714285714286</ele><time>2026-05-02T10:47:06.851Z</time></trkpt><trkpt lat="40.6331017" lon="15.2017867"><ele>170.71428571428572</ele><time>2026-05-02T10:47:07.852Z</time></trkpt><trkpt lat="40.6331633" lon="15.2017433"><ele>172.57142857142856</ele><time>2026-05-02T10:47:08.851Z</time></trkpt><trkpt lat="40.6332283" lon="15.2017083"><ele>174.42857142857144</ele><time>2026-05-02T10:47:09.852Z</time></trkpt><trkpt lat="40.6332933" lon="15.20167"><ele>176.2857142857143</ele><time>2026-05-02T10:47:10.852Z</time></trkpt><trkpt lat="40.6333567" lon="15.2016317"><ele>178.14285714285714</ele><time>2026-05-02T10:47:11.851Z</time></trkpt><trkpt lat="40.633425" lon="15.2015967"><ele>180.0</ele><time>2026-05-02T10:47:12.851Z</time></trkpt><trkpt lat="40.6334933" lon="15.20156"><ele>180.0</ele><time>2026-05-02T10:47:13.851Z</time></trkpt><trkpt lat="40.6335633" lon="15.2015283"><ele>180.0</ele><time>2026-05-02T10:47:14.851Z</time></trkpt><trkpt lat="40.633635" lon="15.2015017"><ele>180.0</ele><time>2026-05-02T10:47:15.851Z</time></trkpt><trkpt lat="40.6337067" lon="15.20148"><ele>180.0</ele><time>2026-05-02T10:47:16.851Z</time></trkpt><trkpt lat="40.6337783" lon="15.2014617"><ele>180.0</ele><time>2026-05-02T10:47:17.852Z</time></trkpt><trkpt lat="40.63385" lon="15.201445"><ele>180.0</ele><time>2026-05-02T10:47:18.852Z</time></trkpt><trkpt lat="40.6339233" lon="15.2014333"><ele>180.0</ele><time>2026-05-02T10:47:19.851Z</time></trkpt><trkpt lat="40.6339967" lon="15.2014317"><ele>181.7142857142857</ele><time>2026-05-02T10:47:20.852Z</time></trkpt><trkpt lat="40.6340733" lon="15.2014317"><ele>183.42857142857144</ele><time>2026-05-02T10:47:21.851Z</time></trkpt><trkpt lat="40.6341483" lon="15.20144"><ele>185.14285714285714</ele><time>2026-05-02T10:47:22.852Z</time></trkpt><trkpt lat="40.634225" lon="15.2014483"><ele>186.85714285714283</ele><time>2026-05-02T10:47:23.852Z</time></trkpt><trkpt lat="40.6343" lon="15.201455"><ele>188.57142857142856</ele><time>2026-05-02T10:47:24.852Z</time></trkpt><trkpt lat="40.634375" lon="15.2014583"><ele>190.28571428571428</ele><time>2026-05-02T10:47:25.852Z</time></trkpt><trkpt lat="40.6344417" lon="15.2014583"><ele>192.0</ele><time>2026-05-02T10:47:26.851Z</time></trkpt><trkpt lat="40.6345067" lon="15.2014517"><ele>193.85714285714283</ele><time>2026-05-02T10:47:27.852Z</time></trkpt><trkpt lat="40.63457" lon="15.20143"><ele>195.71428571428572</ele><time>2026-05-02T10:47:28.851Z</time></trkpt><trkpt lat="40.6346317" lon="15.2014017"><ele>197.57142857142856</ele><time>2026-05-02T10:47:29.852Z</time></trkpt><trkpt lat="40.6346883" lon="15.2013617"><ele>199.42857142857142</ele><time>2026-05-02T10:47:30.852Z</time></trkpt><trkpt lat="40.6347417" lon="15.2013117"><ele>201.28571428571428</ele><time>2026-05-02T10:47:31.851Z</time></trkpt><trkpt lat="40.63479" lon="15.2012533"><ele>203.14285714285714</ele><time>2026-05-02T10:47:32.852Z</time></trkpt><trkpt lat="40.6348333" lon="15.2011883"><ele>205.0</ele><time>2026-05-02T10:47:33.851Z</time></trkpt><trkpt lat="40.6349" lon="15.20105"><ele>205.0</ele><time>2026-05-02T10:47:35.852Z</time></trkpt><trkpt lat="40.63493" lon="15.2009767"><ele>205.0</ele><time>2026-05-02T10:47:36.851Z</time></trkpt><trkpt lat="40.6349833" lon="15.2008333"><ele>205.0</ele><time>2026-05-02T10:47:38.852Z</time></trkpt><trkpt lat="40.6350217" lon="15.200685"><ele>205.0</ele><time>2026-05-02T10:47:40.851Z</time></trkpt><trkpt lat="40.63505" lon="15.200525"><ele>205.0</ele><time>2026-05-02T10:47:42.851Z</time></trkpt><trkpt lat="40.6350633" lon="15.20043"><ele>204.66666666666666</ele><time>2026-05-02T10:47:43.851Z</time></trkpt><trkpt lat="40.63508" lon="15.200325"><ele>204.33333333333331</ele><time>2026-05-02T10:47:44.851Z</time></trkpt><trkpt lat="40.63509" lon="15.200215"><ele>204.0</ele><time>2026-05-02T10:47:45.852Z</time></trkpt><trkpt lat="40.6350983" lon="15.200105"><ele>203.66666666666669</ele><time>2026-05-02T10:47:46.852Z</time></trkpt><trkpt lat="40.6351083" lon="15.1999917"><ele>203.33333333333334</ele><time>2026-05-02T10:47:47.851Z</time></trkpt><trkpt lat="40.6351167" lon="15.1998817"><ele>203.0</ele><time>2026-05-02T10:47:48.851Z</time></trkpt><trkpt lat="40.6351283" lon="15.1997683"><ele>203.8</ele><time>2026-05-02T10:47:49.851Z</time></trkpt><trkpt lat="40.63514" lon="15.1996567"><ele>204.60000000000002</ele><time>2026-05-02T10:47:50.851Z</time></trkpt><trkpt lat="40.635155" lon="15.19954"><ele>205.39999999999998</ele><time>2026-05-02T10:47:51.851Z</time></trkpt><trkpt lat="40.6351717" lon="15.199415"><ele>206.2</ele><time>2026-05-02T10:47:52.852Z</time></trkpt><trkpt lat="40.6351883" lon="15.199295"><ele>207.0</ele><time>2026-05-02T10:47:53.852Z</time></trkpt><trkpt lat="40.635205" lon="15.19918"><ele>207.00000000000003</ele><time>2026-05-02T10:47:54.852Z</time></trkpt><trkpt lat="40.6352167" lon="15.1990717"><ele>207.0</ele><time>2026-05-02T10:47:55.852Z</time></trkpt><trkpt lat="40.6352317" lon="15.198975"><ele>207.0</ele><time>2026-05-02T10:47:56.851Z</time></trkpt><trkpt lat="40.63525" lon="15.1988833"><ele>207.0</ele><time>2026-05-02T10:47:57.852Z</time></trkpt><trkpt lat="40.6352733" lon="15.1987933"><ele>207.0</ele><time>2026-05-02T10:47:58.852Z</time></trkpt><trkpt lat="40.6353017" lon="15.198705"><ele>207.00000000000003</ele><time>2026-05-02T10:47:59.851Z</time></trkpt><trkpt lat="40.6353367" lon="15.1986233"><ele>207.0</ele><time>2026-05-02T10:48:00.852Z</time></trkpt><trkpt lat="40.63538" lon="15.1985483"><ele>209.16666666666666</ele><time>2026-05-02T10:48:01.851Z</time></trkpt><trkpt lat="40.635425" lon="15.1984817"><ele>211.33333333333331</ele><time>2026-05-02T10:48:02.851Z</time></trkpt><trkpt lat="40.6354767" lon="15.1984183"><ele>213.5</ele><time>2026-05-02T10:48:03.852Z</time></trkpt><trkpt lat="40.6355317" lon="15.1983533"><ele>215.66666666666666</ele><time>2026-05-02T10:48:04.852Z</time></trkpt><trkpt lat="40.6355917" lon="15.1982883"><ele>217.83333333333331</ele><time>2026-05-02T10:48:05.852Z</time></trkpt><trkpt lat="40.635655" lon="15.19822"><ele>220.0</ele><time>2026-05-02T10:48:06.852Z</time></trkpt><trkpt lat="40.6357217" lon="15.198145"><ele>219.99999999999997</ele><time>2026-05-02T10:48:07.851Z</time></trkpt><trkpt lat="40.6357867" lon="15.1980667"><ele>220.0</ele><time>2026-05-02T10:48:08.852Z</time></trkpt><trkpt lat="40.6358483" lon="15.1979917"><ele>220.0</ele><time>2026-05-02T10:48:09.852Z</time></trkpt><trkpt lat="40.6359117" lon="15.197925"><ele>220.0</ele><time>2026-05-02T10:48:10.852Z</time></trkpt><trkpt lat="40.6359733" lon="15.19787"><ele>219.99999999999997</ele><time>2026-05-02T10:48:11.852Z</time></trkpt><trkpt lat="40.63604" lon="15.1978233"><ele>220.0</ele><time>2026-05-02T10:48:12.851Z</time></trkpt><trkpt lat="40.6361067" lon="15.1977917"><ele>221.99999999999997</ele><time>2026-05-02T10:48:13.852Z</time></trkpt><trkpt lat="40.6361733" lon="15.1977717"><ele>224.0</ele><time>2026-05-02T10:48:14.852Z</time></trkpt><trkpt lat="40.636245" lon="15.197765"><ele>226.0</ele><time>2026-05-02T10:48:15.852Z</time></trkpt><trkpt lat="40.63631" lon="15.197775"><ele>228.0</ele><time>2026-05-02T10:48:16.852Z</time></trkpt><trkpt lat="40.6364233" lon="15.1978317"><ele>229.99999999999997</ele><time>2026-05-02T10:48:18.852Z</time></trkpt><trkpt lat="40.6364767" lon="15.1978817"><ele>232.0</ele><time>2026-05-02T10:48:19.851Z</time></trkpt><trkpt lat="40.636525" lon="15.1979467"><ele>232.00000000000003</ele><time>2026-05-02T10:48:20.851Z</time></trkpt><trkpt lat="40.6365767" lon="15.1980117"><ele>232.0</ele><time>2026-05-02T10:48:21.851Z</time></trkpt><trkpt lat="40.636625" lon="15.1980717"><ele>232.00000000000003</ele><time>2026-05-02T10:48:22.851Z</time></trkpt><trkpt lat="40.636675" lon="15.1981333"><ele>232.00000000000003</ele><time>2026-05-02T10:48:23.851Z</time></trkpt><trkpt lat="40.63673" lon="15.1981867"><ele>232.0</ele><time>2026-05-02T10:48:24.852Z</time></trkpt><trkpt lat="40.6367883" lon="15.1982367"><ele>232.00000000000003</ele><time>2026-05-02T10:48:25.851Z</time></trkpt><trkpt lat="40.6368517" lon="15.19828"><ele>232.00000000000003</ele><time>2026-05-02T10:48:26.852Z</time></trkpt><trkpt lat="40.6369167" lon="15.1983233"><ele>234.28571428571433</ele><time>2026-05-02T10:48:27.852Z</time></trkpt><trkpt lat="40.636985" lon="15.1983633"><ele>236.57142857142858</ele><time>2026-05-02T10:48:28.852Z</time></trkpt><trkpt lat="40.6370583" lon="15.1983983"><ele>238.8571428571429</ele><time>2026-05-02T10:48:29.851Z</time></trkpt><trkpt lat="40.6371333" lon="15.1984317"><ele>241.14285714285717</ele><time>2026-05-02T10:48:30.851Z</time></trkpt><trkpt lat="40.6372083" lon="15.1984583"><ele>243.42857142857144</ele><time>2026-05-02T10:48:31.852Z</time></trkpt><trkpt lat="40.63728" lon="15.1984817"><ele>245.71428571428572</ele><time>2026-05-02T10:48:32.852Z</time></trkpt><trkpt lat="40.6373433" lon="15.1984967"><ele>248.0</ele><time>2026-05-02T10:48:33.852Z</time></trkpt><trkpt lat="40.63741" lon="15.198515"><ele>248.00000000000003</ele><time>2026-05-02T10:48:34.851Z</time></trkpt><trkpt lat="40.6374767" lon="15.19853"><ele>248.0</ele><time>2026-05-02T10:48:35.851Z</time></trkpt><trkpt lat="40.6375417" lon="15.1985417"><ele>248.0</ele><time>2026-05-02T10:48:36.851Z</time></trkpt><trkpt lat="40.6376267" lon="15.1985517"><ele>248.0</ele><time>2026-05-02T10:48:38.851Z</time></trkpt><trkpt lat="40.63771" lon="15.1985583"><ele>248.00000000000003</ele><time>2026-05-02T10:50:06.85Z</time></trkpt><trkpt lat="40.6378267" lon="15.19858"><ele>248.0</ele><time>2026-05-02T10:50:08.85Z</time></trkpt><trkpt lat="40.63789" lon="15.1985967"><ele>250.2857142857143</ele><time>2026-05-02T10:50:09.85Z</time></trkpt><trkpt lat="40.6379533" lon="15.19861"><ele>252.5714285714286</ele><time>2026-05-02T10:50:10.851Z</time></trkpt><trkpt lat="40.6380183" lon="15.19863"><ele>254.85714285714286</ele><time>2026-05-02T10:50:11.851Z</time></trkpt><trkpt lat="40.6380833" lon="15.1986467"><ele>257.14285714285717</ele><time>2026-05-02T10:50:12.85Z</time></trkpt><trkpt lat="40.63815" lon="15.1986633"><ele>259.42857142857144</ele><time>2026-05-02T10:50:13.85Z</time></trkpt><trkpt lat="40.6382133" lon="15.1986733"><ele>261.7142857142857</ele><time>2026-05-02T10:50:14.851Z</time></trkpt><trkpt lat="40.6382767" lon="15.1986733"><ele>264.0</ele><time>2026-05-02T10:50:15.85Z</time></trkpt><trkpt lat="40.638395" lon="15.1986617"><ele>264.0</ele><time>2026-05-02T10:50:17.851Z</time></trkpt><trkpt lat="40.6384983" lon="15.19863"><ele>264.0</ele><time>2026-05-02T10:50:19.851Z</time></trkpt><trkpt lat="40.6385667" lon="15.1985683"><ele>264.0</ele><time>2026-05-02T10:50:21.85Z</time></trkpt><trkpt lat="40.638615" lon="15.1984617"><ele>264.0</ele><time>2026-05-02T10:50:23.85Z</time></trkpt><trkpt lat="40.63866" lon="15.19832"><ele>264.0</ele><time>2026-05-02T10:50:25.85Z</time></trkpt><trkpt lat="40.638705" lon="15.1981667"><ele>266.59999999999997</ele><time>2026-05-02T10:50:27.85Z</time></trkpt><trkpt lat="40.6387367" lon="15.1980917"><ele>269.2</ele><time>2026-05-02T10:50:28.851Z</time></trkpt><trkpt lat="40.6387917" lon="15.1979433"><ele>271.79999999999995</ele><time>2026-05-02T10:50:30.851Z</time></trkpt><trkpt lat="40.6388583" lon="15.197805"><ele>274.4</ele><time>2026-05-02T10:50:32.851Z</time></trkpt><trkpt lat="40.6389183" lon="15.1976617"><ele>277.0</ele><time>2026-05-02T10:50:34.851Z</time></trkpt><trkpt lat="40.6389517" lon="15.1975867"><ele>277.0</ele><time>2026-05-02T10:50:35.85Z</time></trkpt><trkpt lat="40.6389933" lon="15.1975117"><ele>277.0</ele><time>2026-05-02T10:50:36.851Z</time></trkpt><trkpt lat="40.63904" lon="15.19743"><ele>277.0</ele><time>2026-05-02T10:50:37.85Z</time></trkpt><trkpt lat="40.6390917" lon="15.1973433"><ele>277.0</ele><time>2026-05-02T10:50:38.851Z</time></trkpt><trkpt lat="40.6391433" lon="15.1972617"><ele>277.0</ele><time>2026-05-02T10:50:39.851Z</time></trkpt><trkpt lat="40.6391917" lon="15.197175"><ele>277.0</ele><time>2026-05-02T10:50:40.851Z</time></trkpt><trkpt lat="40.6392383" lon="15.1970883"><ele>276.66666666666663</ele><time>2026-05-02T10:50:41.85Z</time></trkpt><trkpt lat="40.6392883" lon="15.1970117"><ele>276.3333333333333</ele><time>2026-05-02T10:50:42.851Z</time></trkpt><trkpt lat="40.639345" lon="15.1969433"><ele>276.0</ele><time>2026-05-02T10:50:43.85Z</time></trkpt><trkpt lat="40.6394067" lon="15.1968733"><ele>275.6666666666667</ele><time>2026-05-02T10:50:44.851Z</time></trkpt><trkpt lat="40.6394733" lon="15.1968017"><ele>275.33333333333337</ele><time>2026-05-02T10:50:45.851Z</time></trkpt><trkpt lat="40.63954" lon="15.1967367"><ele>275.0</ele><time>2026-05-02T10:50:46.851Z</time></trkpt><trkpt lat="40.6396067" lon="15.1966667"><ele>276.83333333333337</ele><time>2026-05-02T10:50:47.85Z</time></trkpt><trkpt lat="40.6396633" lon="15.196605"><ele>278.6666666666667</ele><time>2026-05-02T10:50:48.851Z</time></trkpt><trkpt lat="40.6397717" lon="15.1965217"><ele>280.5</ele><time>2026-05-02T10:50:50.85Z</time></trkpt><trkpt lat="40.6398317" lon="15.1964933"><ele>282.3333333333333</ele><time>2026-05-02T10:50:51.851Z</time></trkpt><trkpt lat="40.6399" lon="15.1964767"><ele>284.16666666666663</ele><time>2026-05-02T10:50:52.851Z</time></trkpt><trkpt lat="40.6399717" lon="15.196465"><ele>286.0</ele><time>2026-05-02T10:50:53.851Z</time></trkpt><trkpt lat="40.6400433" lon="15.196445"><ele>286.0</ele><time>2026-05-02T10:50:54.85Z</time></trkpt><trkpt lat="40.6401167" lon="15.1964267"><ele>286.0</ele><time>2026-05-02T10:50:55.851Z</time></trkpt><trkpt lat="40.6401983" lon="15.196405"><ele>286.0</ele><time>2026-05-02T10:50:56.85Z</time></trkpt><trkpt lat="40.6402817" lon="15.196385"><ele>286.0</ele><time>2026-05-02T10:50:57.85Z</time></trkpt><trkpt lat="40.6403683" lon="15.1963683"><ele>286.0</ele><time>2026-05-02T10:50:58.851Z</time></trkpt><trkpt lat="40.640455" lon="15.1963617"><ele>286.0</ele><time>2026-05-02T10:50:59.85Z</time></trkpt><trkpt lat="40.6405417" lon="15.1963567"><ele>287.99999999999994</ele><time>2026-05-02T10:51:00.85Z</time></trkpt><trkpt lat="40.6406167" lon="15.1963633"><ele>290.0</ele><time>2026-05-02T10:51:01.85Z</time></trkpt><trkpt lat="40.6406917" lon="15.1963733"><ele>292.0</ele><time>2026-05-02T10:51:02.85Z</time></trkpt><trkpt lat="40.64076" lon="15.1963833"><ele>294.0</ele><time>2026-05-02T10:51:03.85Z</time></trkpt><trkpt lat="40.6408317" lon="15.19639"><ele>296.0</ele><time>2026-05-02T10:51:04.85Z</time></trkpt><trkpt lat="40.6409033" lon="15.19639"><ele>297.99999999999994</ele><time>2026-05-02T10:51:05.851Z</time></trkpt><trkpt lat="40.6409683" lon="15.1963833"><ele>300.0</ele><time>2026-05-02T10:51:06.851Z</time></trkpt><trkpt lat="40.64106" lon="15.1963883"><ele>300.0</ele><time>2026-05-02T10:51:08.851Z</time></trkpt><trkpt lat="40.6411217" lon="15.1964067"><ele>300.0</ele><time>2026-05-02T10:51:10.85Z</time></trkpt><trkpt lat="40.6411817" lon="15.1964383"><ele>300.0</ele><time>2026-05-02T10:51:47.851Z</time></trkpt><trkpt lat="40.641175" lon="15.196565"><ele>300.0</ele><time>2026-05-02T10:51:50.851Z</time></trkpt><trkpt lat="40.64117" lon="15.196695"><ele>300.0</ele><time>2026-05-02T10:51:52.85Z</time></trkpt><trkpt lat="40.6411917" lon="15.19686"><ele>301.3333333333333</ele><time>2026-05-02T10:51:54.85Z</time></trkpt><trkpt lat="40.641215" lon="15.196955"><ele>302.6666666666667</ele><time>2026-05-02T10:51:55.85Z</time></trkpt><trkpt lat="40.6412417" lon="15.1970517"><ele>304.0</ele><time>2026-05-02T10:51:56.85Z</time></trkpt><trkpt lat="40.6412767" lon="15.197145"><ele>305.33333333333337</ele><time>2026-05-02T10:51:57.851Z</time></trkpt><trkpt lat="40.64132" lon="15.197235"><ele>306.6666666666667</ele><time>2026-05-02T10:51:58.851Z</time></trkpt><trkpt lat="40.6413683" lon="15.1973283"><ele>308.0</ele><time>2026-05-02T10:51:59.85Z</time></trkpt><trkpt lat="40.6414167" lon="15.1974217"><ele>308.0</ele><time>2026-05-02T10:52:00.851Z</time></trkpt><trkpt lat="40.6414633" lon="15.1975167"><ele>308.0</ele><time>2026-05-02T10:52:01.851Z</time></trkpt><trkpt lat="40.641505" lon="15.1976217"><ele>308.0</ele><time>2026-05-02T10:52:02.851Z</time></trkpt><trkpt lat="40.6415367" lon="15.19773"><ele>308.0</ele><time>2026-05-02T10:52:03.851Z</time></trkpt><trkpt lat="40.641555" lon="15.1978433"><ele>308.0</ele><time>2026-05-02T10:52:04.85Z</time></trkpt><trkpt lat="40.6415633" lon="15.1979633"><ele>308.0</ele><time>2026-05-02T10:52:05.851Z</time></trkpt><trkpt lat="40.6415683" lon="15.1980883"><ele>306.6</ele><time>2026-05-02T10:52:06.85Z</time></trkpt><trkpt lat="40.6415733" lon="15.19822"><ele>305.20000000000005</ele><time>2026-05-02T10:52:07.85Z</time></trkpt><trkpt lat="40.6415817" lon="15.1983417"><ele>303.8</ele><time>2026-05-02T10:52:08.851Z</time></trkpt><trkpt lat="40.6415833" lon="15.1984683"><ele>302.40000000000003</ele><time>2026-05-02T10:52:09.851Z</time></trkpt><trkpt lat="40.6415767" lon="15.1985917"><ele>301.0</ele><time>2026-05-02T10:52:10.851Z</time></trkpt><trkpt lat="40.6415617" lon="15.19871"><ele>301.0</ele><time>2026-05-02T10:52:11.851Z</time></trkpt><trkpt lat="40.641545" lon="15.198815"><ele>301.0</ele><time>2026-05-02T10:52:12.851Z</time></trkpt><trkpt lat="40.6415317" lon="15.1989183"><ele>301.0</ele><time>2026-05-02T10:52:13.85Z</time></trkpt><trkpt lat="40.6415233" lon="15.199015"><ele>301.0</ele><time>2026-05-02T10:52:14.85Z</time></trkpt><trkpt lat="40.6415233" lon="15.199115"><ele>301.0</ele><time>2026-05-02T10:52:15.85Z</time></trkpt><trkpt lat="40.6415333" lon="15.1992133"><ele>301.0</ele><time>2026-05-02T10:52:16.851Z</time></trkpt><trkpt lat="40.641545" lon="15.1993067"><ele>300.57142857142856</ele><time>2026-05-02T10:52:17.85Z</time></trkpt><trkpt lat="40.64156" lon="15.199395"><ele>300.1428571428571</ele><time>2026-05-02T10:52:18.85Z</time></trkpt><trkpt lat="40.6415783" lon="15.1994817"><ele>299.7142857142857</ele><time>2026-05-02T10:52:19.851Z</time></trkpt><trkpt lat="40.6416017" lon="15.1995667"><ele>299.2857142857143</ele><time>2026-05-02T10:52:20.85Z</time></trkpt><trkpt lat="40.6416233" lon="15.19965"><ele>298.85714285714283</ele><time>2026-05-02T10:52:21.85Z</time></trkpt><trkpt lat="40.6416417" lon="15.199735"><ele>298.42857142857144</ele><time>2026-05-02T10:52:22.851Z</time></trkpt><trkpt lat="40.6416617" lon="15.1998233"><ele>298.0</ele><time>2026-05-02T10:52:23.85Z</time></trkpt><trkpt lat="40.6416883" lon="15.1999183"><ele>297.0</ele><time>2026-05-02T10:52:24.851Z</time></trkpt><trkpt lat="40.6417183" lon="15.200015"><ele>296.0</ele><time>2026-05-02T10:52:25.851Z</time></trkpt><trkpt lat="40.6417517" lon="15.2001067"><ele>295.0</ele><time>2026-05-02T10:52:26.85Z</time></trkpt><trkpt lat="40.6417917" lon="15.2001933"><ele>294.0</ele><time>2026-05-02T10:52:27.85Z</time></trkpt><trkpt lat="40.6418267" lon="15.200285"><ele>293.0</ele><time>2026-05-02T10:52:28.85Z</time></trkpt><trkpt lat="40.6418683" lon="15.200375"><ele>292.0</ele><time>2026-05-02T10:52:29.85Z</time></trkpt><trkpt lat="40.6419133" lon="15.2004617"><ele>292.0</ele><time>2026-05-02T10:52:30.851Z</time></trkpt><trkpt lat="40.6419583" lon="15.2005517"><ele>292.0</ele><time>2026-05-02T10:52:31.851Z</time></trkpt><trkpt lat="40.642005" lon="15.2006483"><ele>292.0</ele><time>2026-05-02T10:52:32.851Z</time></trkpt><trkpt lat="40.6420533" lon="15.2007433"><ele>292.0</ele><time>2026-05-02T10:52:33.85Z</time></trkpt><trkpt lat="40.642105" lon="15.200835"><ele>292.0</ele><time>2026-05-02T10:52:34.851Z</time></trkpt><trkpt lat="40.6421567" lon="15.200925"><ele>292.0</ele><time>2026-05-02T10:52:35.85Z</time></trkpt><trkpt lat="40.6422017" lon="15.2010133"><ele>292.2</ele><time>2026-05-02T10:52:36.851Z</time></trkpt><trkpt lat="40.6422317" lon="15.201115"><ele>292.4</ele><time>2026-05-02T10:52:37.85Z</time></trkpt><trkpt lat="40.6422483" lon="15.2012317"><ele>292.6</ele><time>2026-05-02T10:52:38.851Z</time></trkpt><trkpt lat="40.64225" lon="15.2013717"><ele>292.8</ele><time>2026-05-02T10:52:39.851Z</time></trkpt><trkpt lat="40.6422433" lon="15.2015183"><ele>293.0</ele><time>2026-05-02T10:52:40.85Z</time></trkpt><trkpt lat="40.6422183" lon="15.2016683"><ele>293.0</ele><time>2026-05-02T10:52:41.851Z</time></trkpt><trkpt lat="40.6421783" lon="15.2018167"><ele>293.0</ele><time>2026-05-02T10:52:42.851Z</time></trkpt><trkpt lat="40.6421233" lon="15.201955"><ele>293.0</ele><time>2026-05-02T10:52:43.851Z</time></trkpt><trkpt lat="40.64207" lon="15.2020917"><ele>293.0</ele><time>2026-05-02T10:52:44.851Z</time></trkpt><trkpt lat="40.64201" lon="15.2022283"><ele>289.0</ele><time>2026-05-02T10:52:45.85Z</time></trkpt><trkpt lat="40.6419617" lon="15.2023633"><ele>285.0</ele><time>2026-05-02T10:52:46.851Z</time></trkpt><trkpt lat="40.6419183" lon="15.2024983"><ele>281.0</ele><time>2026-05-02T10:52:47.851Z</time></trkpt><trkpt lat="40.6418817" lon="15.2026317"><ele>277.0</ele><time>2026-05-02T10:52:48.851Z</time></trkpt><trkpt lat="40.64185" lon="15.202765"><ele>273.0</ele><time>2026-05-02T10:52:49.851Z</time></trkpt><trkpt lat="40.6418317" lon="15.20292"><ele>273.0</ele><time>2026-05-02T10:52:50.851Z</time></trkpt><trkpt lat="40.6418167" lon="15.203065"><ele>273.0</ele><time>2026-05-02T10:52:51.851Z</time></trkpt><trkpt lat="40.6418017" lon="15.2032133"><ele>273.0</ele><time>2026-05-02T10:52:52.85Z</time></trkpt><trkpt lat="40.6417833" lon="15.2033667"><ele>273.0</ele><time>2026-05-02T10:52:53.85Z</time></trkpt><trkpt lat="40.64176" lon="15.2035167"><ele>273.5</ele><time>2026-05-02T10:52:54.851Z</time></trkpt><trkpt lat="40.6417317" lon="15.203665"><ele>274.0</ele><time>2026-05-02T10:52:55.85Z</time></trkpt><trkpt lat="40.6416917" lon="15.203815"><ele>274.5</ele><time>2026-05-02T10:52:56.85Z</time></trkpt><trkpt lat="40.6416417" lon="15.2039667"><ele>275.0</ele><time>2026-05-02T10:52:57.85Z</time></trkpt><trkpt lat="40.6415967" lon="15.2041267"><ele>275.0</ele><time>2026-05-02T10:52:58.851Z</time></trkpt><trkpt lat="40.6415567" lon="15.2042917"><ele>275.0</ele><time>2026-05-02T10:52:59.851Z</time></trkpt><trkpt lat="40.641535" lon="15.2044683"><ele>275.0</ele><time>2026-05-02T10:53:00.85Z</time></trkpt><trkpt lat="40.6415217" lon="15.2046433"><ele>275.0</ele><time>2026-05-02T10:53:01.851Z</time></trkpt><trkpt lat="40.64152" lon="15.2048167"><ele>274.25</ele><time>2026-05-02T10:53:02.851Z</time></trkpt><trkpt lat="40.6415217" lon="15.2049967"><ele>273.5</ele><time>2026-05-02T10:53:03.851Z</time></trkpt><trkpt lat="40.6415167" lon="15.20518"><ele>272.75</ele><time>2026-05-02T10:53:04.85Z</time></trkpt><trkpt lat="40.6415083" lon="15.20535"><ele>272.0</ele><time>2026-05-02T10:53:05.85Z</time></trkpt><trkpt lat="40.6414917" lon="15.205515"><ele>272.25</ele><time>2026-05-02T10:53:06.85Z</time></trkpt><trkpt lat="40.64144" lon="15.2056667"><ele>272.5</ele><time>2026-05-02T10:53:07.851Z</time></trkpt><trkpt lat="40.64136" lon="15.2058067"><ele>272.75</ele><time>2026-05-02T10:53:08.85Z</time></trkpt><trkpt lat="40.6412683" lon="15.20594"><ele>273.0</ele><time>2026-05-02T10:53:09.851Z</time></trkpt><trkpt lat="40.6411867" lon="15.206065"><ele>269.0</ele><time>2026-05-02T10:53:10.851Z</time></trkpt><trkpt lat="40.64111" lon="15.2061917"><ele>265.0</ele><time>2026-05-02T10:53:11.851Z</time></trkpt><trkpt lat="40.6410417" lon="15.2063267"><ele>261.0</ele><time>2026-05-02T10:53:12.85Z</time></trkpt><trkpt lat="40.6409833" lon="15.2064717"><ele>257.0</ele><time>2026-05-02T10:53:13.85Z</time></trkpt><trkpt lat="40.6409433" lon="15.2066333"><ele>257.0</ele><time>2026-05-02T10:53:14.85Z</time></trkpt><trkpt lat="40.6409267" lon="15.2068117"><ele>257.0</ele><time>2026-05-02T10:53:15.851Z</time></trkpt><trkpt lat="40.6409333" lon="15.2070017"><ele>257.0</ele><time>2026-05-02T10:53:16.851Z</time></trkpt><trkpt lat="40.64096" lon="15.207205"><ele>257.0</ele><time>2026-05-02T10:53:17.851Z</time></trkpt><trkpt lat="40.6409967" lon="15.20741"><ele>256.0</ele><time>2026-05-02T10:53:18.85Z</time></trkpt><trkpt lat="40.641025" lon="15.2076067"><ele>255.0</ele><time>2026-05-02T10:53:19.851Z</time></trkpt><trkpt lat="40.6410383" lon="15.2078"><ele>254.0</ele><time>2026-05-02T10:53:20.85Z</time></trkpt><trkpt lat="40.6410233" lon="15.2079833"><ele>253.0</ele><time>2026-05-02T10:53:21.851Z</time></trkpt><trkpt lat="40.6409967" lon="15.2081567"><ele>252.25</ele><time>2026-05-02T10:53:22.851Z</time></trkpt><trkpt lat="40.64098" lon="15.20833"><ele>251.5</ele><time>2026-05-02T10:53:23.851Z</time></trkpt><trkpt lat="40.6409867" lon="15.2085"><ele>250.75</ele><time>2026-05-02T10:53:24.85Z</time></trkpt><trkpt lat="40.6410067" lon="15.2086633"><ele>250.0</ele><time>2026-05-02T10:53:25.85Z</time></trkpt><trkpt lat="40.6410183" lon="15.2088183"><ele>250.0</ele><time>2026-05-02T10:53:26.85Z</time></trkpt><trkpt lat="40.6410133" lon="15.2089683"><ele>250.0</ele><time>2026-05-02T10:53:27.851Z</time></trkpt><trkpt lat="40.6409783" lon="15.2091133"><ele>250.0</ele><time>2026-05-02T10:53:28.85Z</time></trkpt><trkpt lat="40.6409317" lon="15.20924"><ele>250.0</ele><time>2026-05-02T10:53:29.851Z</time></trkpt><trkpt lat="40.6408633" lon="15.2093567"><ele>250.0</ele><time>2026-05-02T10:53:30.85Z</time></trkpt><trkpt lat="40.6407817" lon="15.2094533"><ele>250.0</ele><time>2026-05-02T10:53:31.851Z</time></trkpt><trkpt lat="40.6406917" lon="15.20954"><ele>250.0</ele><time>2026-05-02T10:53:32.851Z</time></trkpt><trkpt lat="40.6405917" lon="15.2096183"><ele>250.0</ele><time>2026-05-02T10:53:33.851Z</time></trkpt><trkpt lat="40.64049" lon="15.2096817"><ele>250.0</ele><time>2026-05-02T10:53:34.851Z</time></trkpt><trkpt lat="40.640375" lon="15.2097283"><ele>248.0</ele><time>2026-05-02T10:53:35.85Z</time></trkpt><trkpt lat="40.64026" lon="15.2097633"><ele>246.0</ele><time>2026-05-02T10:53:36.851Z</time></trkpt><trkpt lat="40.6401433" lon="15.2098017"><ele>244.0</ele><time>2026-05-02T10:53:37.85Z</time></trkpt><trkpt lat="40.6400217" lon="15.20984"><ele>242.0</ele><time>2026-05-02T10:53:38.851Z</time></trkpt><trkpt lat="40.6399083" lon="15.2098967"><ele>242.0</ele><time>2026-05-02T10:53:39.85Z</time></trkpt><trkpt lat="40.6398133" lon="15.20999"><ele>242.0</ele><time>2026-05-02T10:53:40.851Z</time></trkpt><trkpt lat="40.639755" lon="15.21013"><ele>242.0</ele><time>2026-05-02T10:53:41.85Z</time></trkpt><trkpt lat="40.6397333" lon="15.21029"><ele>242.0</ele><time>2026-05-02T10:53:42.85Z</time></trkpt><trkpt lat="40.63975" lon="15.21045"><ele>242.0</ele><time>2026-05-02T10:53:43.851Z</time></trkpt><trkpt lat="40.6398017" lon="15.2105933"><ele>242.0</ele><time>2026-05-02T10:53:44.851Z</time></trkpt><trkpt lat="40.6398717" lon="15.2107183"><ele>242.0</ele><time>2026-05-02T10:53:45.851Z</time></trkpt><trkpt lat="40.6399383" lon="15.21084"><ele>242.0</ele><time>2026-05-02T10:53:46.851Z</time></trkpt><trkpt lat="40.6399917" lon="15.2109667"><ele>241.39999999999998</ele><time>2026-05-02T10:53:47.851Z</time></trkpt><trkpt lat="40.640015" lon="15.2110967"><ele>240.79999999999998</ele><time>2026-05-02T10:53:48.851Z</time></trkpt><trkpt lat="40.6400067" lon="15.2112283"><ele>240.2</ele><time>2026-05-02T10:53:49.85Z</time></trkpt><trkpt lat="40.6399617" lon="15.211355"><ele>239.6</ele><time>2026-05-02T10:53:50.851Z</time></trkpt><trkpt lat="40.6398833" lon="15.2114617"><ele>239.0</ele><time>2026-05-02T10:53:51.851Z</time></trkpt><trkpt lat="40.6397883" lon="15.2115333"><ele>237.5</ele><time>2026-05-02T10:53:52.851Z</time></trkpt><trkpt lat="40.6396867" lon="15.2115783"><ele>236.0</ele><time>2026-05-02T10:53:53.85Z</time></trkpt><trkpt lat="40.6395767" lon="15.2116033"><ele>234.5</ele><time>2026-05-02T10:53:54.851Z</time></trkpt><trkpt lat="40.63946" lon="15.2116183"><ele>233.0</ele><time>2026-05-02T10:53:55.851Z</time></trkpt><trkpt lat="40.6393467" lon="15.2116367"><ele>232.8</ele><time>2026-05-02T10:53:56.851Z</time></trkpt><trkpt lat="40.6392333" lon="15.2116433"><ele>232.60000000000002</ele><time>2026-05-02T10:53:57.851Z</time></trkpt><trkpt lat="40.63913" lon="15.2116483"><ele>232.39999999999998</ele><time>2026-05-02T10:53:58.85Z</time></trkpt><trkpt lat="40.639035" lon="15.21165"><ele>232.2</ele><time>2026-05-02T10:53:59.85Z</time></trkpt><trkpt lat="40.6389617" lon="15.2116533"><ele>232.0</ele><time>2026-05-02T10:54:00.851Z</time></trkpt><trkpt lat="40.63887" lon="15.2116517"><ele>232.0</ele><time>2026-05-02T10:54:02.85Z</time></trkpt><trkpt lat="40.63879" lon="15.21167"><ele>232.0</ele><time>2026-05-02T10:54:05.851Z</time></trkpt><trkpt lat="40.6387167" lon="15.2117317"><ele>232.0</ele><time>2026-05-02T10:54:07.851Z</time></trkpt><trkpt lat="40.638615" lon="15.211785"><ele>232.0</ele><time>2026-05-02T10:54:09.851Z</time></trkpt><trkpt lat="40.6385067" lon="15.2118433"><ele>232.0</ele><time>2026-05-02T10:54:11.851Z</time></trkpt><trkpt lat="40.638445" lon="15.2118833"><ele>231.66666666666666</ele><time>2026-05-02T10:54:12.85Z</time></trkpt><trkpt lat="40.6383817" lon="15.21191"><ele>231.33333333333331</ele><time>2026-05-02T10:54:13.851Z</time></trkpt><trkpt lat="40.638315" lon="15.2119333"><ele>231.0</ele><time>2026-05-02T10:54:14.85Z</time></trkpt><trkpt lat="40.6382417" lon="15.2119617"><ele>230.66666666666669</ele><time>2026-05-02T10:54:15.851Z</time></trkpt><trkpt lat="40.6381583" lon="15.21199"><ele>230.33333333333334</ele><time>2026-05-02T10:54:16.85Z</time></trkpt><trkpt lat="40.63808" lon="15.2120167"><ele>230.0</ele><time>2026-05-02T10:54:17.85Z</time></trkpt><trkpt lat="40.638005" lon="15.2120483"><ele>230.0</ele><time>2026-05-02T10:54:18.85Z</time></trkpt><trkpt lat="40.637935" lon="15.2120867"><ele>230.0</ele><time>2026-05-02T10:54:19.851Z</time></trkpt><trkpt lat="40.6378783" lon="15.2121333"><ele>230.0</ele><time>2026-05-02T10:54:20.851Z</time></trkpt><trkpt lat="40.6377883" lon="15.2122183"><ele>230.0</ele><time>2026-05-02T10:54:22.851Z</time></trkpt><trkpt lat="40.6377217" lon="15.212325"><ele>230.0</ele><time>2026-05-02T10:54:24.85Z</time></trkpt><trkpt lat="40.6376667" lon="15.2124433"><ele>229.8</ele><time>2026-05-02T10:54:26.851Z</time></trkpt><trkpt lat="40.6376233" lon="15.212565"><ele>229.6</ele><time>2026-05-02T10:54:28.851Z</time></trkpt><trkpt lat="40.6375867" lon="15.212685"><ele>229.39999999999998</ele><time>2026-05-02T10:54:30.851Z</time></trkpt><trkpt lat="40.6375583" lon="15.2128083"><ele>229.2</ele><time>2026-05-02T10:54:32.851Z</time></trkpt><trkpt lat="40.6375267" lon="15.2129283"><ele>229.0</ele><time>2026-05-02T10:54:34.851Z</time></trkpt><trkpt lat="40.6375" lon="15.2130667"><ele>228.83333333333331</ele><time>2026-05-02T10:54:36.85Z</time></trkpt><trkpt lat="40.6374817" lon="15.2132267"><ele>228.66666666666666</ele><time>2026-05-02T10:54:38.851Z</time></trkpt><trkpt lat="40.63748" lon="15.21332"><ele>228.5</ele><time>2026-05-02T10:54:39.85Z</time></trkpt><trkpt lat="40.6374733" lon="15.2134183"><ele>228.33333333333331</ele><time>2026-05-02T10:54:40.85Z</time></trkpt><trkpt lat="40.637475" lon="15.2135067"><ele>228.16666666666666</ele><time>2026-05-02T10:54:41.85Z</time></trkpt><trkpt lat="40.6374733" lon="15.21359"><ele>228.0</ele><time>2026-05-02T10:54:42.851Z</time></trkpt><trkpt lat="40.6374733" lon="15.2137133"><ele>228.0</ele><time>2026-05-02T10:54:44.849Z</time></trkpt><trkpt lat="40.6374667" lon="15.2138367"><ele>228.0</ele><time>2026-05-02T10:54:46.85Z</time></trkpt><trkpt lat="40.637465" lon="15.2139417"><ele>228.0</ele><time>2026-05-02T10:54:48.85Z</time></trkpt><trkpt lat="40.6374717" lon="15.214055"><ele>228.0</ele><time>2026-05-02T10:54:51.849Z</time></trkpt><trkpt lat="40.6374767" lon="15.2141583"><ele>228.0</ele><time>2026-05-02T10:54:54.85Z</time></trkpt><trkpt lat="40.63748" lon="15.2142767"><ele>228.0</ele><time>2026-05-02T10:54:57.849Z</time></trkpt><trkpt lat="40.6374733" lon="15.2143667"><ele>227.0</ele><time>2026-05-02T10:54:59.849Z</time></trkpt><trkpt lat="40.6374667" lon="15.214475"><ele>226.0</ele><time>2026-05-02T10:55:02.849Z</time></trkpt><trkpt lat="40.6374533" lon="15.2145883"><ele>225.0</ele><time>2026-05-02T10:55:05.849Z</time></trkpt><trkpt lat="40.6374383" lon="15.2147017"><ele>224.0</ele><time>2026-05-02T10:55:08.85Z</time></trkpt><trkpt lat="40.6374333" lon="15.21481"><ele>223.0</ele><time>2026-05-02T10:55:12.85Z</time></trkpt><trkpt lat="40.637425" lon="15.2148967"><ele>222.0</ele><time>2026-05-02T10:55:15.849Z</time></trkpt><trkpt lat="40.6374117" lon="15.21502"><ele>220.83333333333334</ele><time>2026-05-02T10:55:18.849Z</time></trkpt><trkpt lat="40.6373983" lon="15.2151283"><ele>219.66666666666669</ele><time>2026-05-02T10:55:20.849Z</time></trkpt><trkpt lat="40.637385" lon="15.2152183"><ele>218.5</ele><time>2026-05-02T10:55:22.85Z</time></trkpt><trkpt lat="40.6373733" lon="15.2153267"><ele>217.33333333333334</ele><time>2026-05-02T10:55:24.849Z</time></trkpt><trkpt lat="40.637365" lon="15.2154333"><ele>216.16666666666669</ele><time>2026-05-02T10:55:26.85Z</time></trkpt><trkpt lat="40.6373433" lon="15.215525"><ele>215.0</ele><time>2026-05-02T10:55:28.849Z</time></trkpt><trkpt lat="40.637325" lon="15.2156233"><ele>213.83333333333334</ele><time>2026-05-02T10:55:31.849Z</time></trkpt><trkpt lat="40.6373117" lon="15.2157233"><ele>212.66666666666669</ele><time>2026-05-02T10:55:34.849Z</time></trkpt><trkpt lat="40.6373" lon="15.215805"><ele>211.5</ele><time>2026-05-02T10:55:36.849Z</time></trkpt><trkpt lat="40.6372933" lon="15.2158967"><ele>210.33333333333331</ele><time>2026-05-02T10:55:38.85Z</time></trkpt><trkpt lat="40.637295" lon="15.2160083"><ele>209.16666666666666</ele><time>2026-05-02T10:55:40.849Z</time></trkpt><trkpt lat="40.6373033" lon="15.216115"><ele>208.0</ele><time>2026-05-02T10:55:42.85Z</time></trkpt><trkpt lat="40.6373133" lon="15.21622"><ele>207.99999999999997</ele><time>2026-05-02T10:55:44.85Z</time></trkpt><trkpt lat="40.637325" lon="15.2163367"><ele>208.0</ele><time>2026-05-02T10:55:46.85Z</time></trkpt><trkpt lat="40.6373367" lon="15.2164533"><ele>208.0</ele><time>2026-05-02T10:55:48.85Z</time></trkpt><trkpt lat="40.6373467" lon="15.21656"><ele>208.0</ele><time>2026-05-02T10:55:50.849Z</time></trkpt><trkpt lat="40.6373533" lon="15.216655"><ele>207.99999999999997</ele><time>2026-05-02T10:55:53.849Z</time></trkpt><trkpt lat="40.6373583" lon="15.21675"><ele>208.0</ele><time>2026-05-02T10:56:06.849Z</time></trkpt><trkpt lat="40.6373633" lon="15.2169017"><ele>206.0</ele><time>2026-05-02T10:56:08.849Z</time></trkpt><trkpt lat="40.637375" lon="15.21705"><ele>204.0</ele><time>2026-05-02T10:56:10.849Z</time></trkpt><trkpt lat="40.6373983" lon="15.2171867"><ele>202.0</ele><time>2026-05-02T10:56:12.85Z</time></trkpt><trkpt lat="40.6374233" lon="15.2173167"><ele>200.0</ele><time>2026-05-02T10:56:14.849Z</time></trkpt><trkpt lat="40.6374617" lon="15.2174567"><ele>198.0</ele><time>2026-05-02T10:56:16.85Z</time></trkpt><trkpt lat="40.6374833" lon="15.217535"><ele>196.66666666666666</ele><time>2026-05-02T10:56:17.849Z</time></trkpt><trkpt lat="40.6375233" lon="15.2176817"><ele>195.33333333333334</ele><time>2026-05-02T10:56:19.849Z</time></trkpt><trkpt lat="40.63756" lon="15.21784"><ele>194.0</ele><time>2026-05-02T10:56:21.85Z</time></trkpt><trkpt lat="40.637575" lon="15.2179233"><ele>192.66666666666669</ele><time>2026-05-02T10:56:22.85Z</time></trkpt><trkpt lat="40.6375917" lon="15.2180083"><ele>191.33333333333334</ele><time>2026-05-02T10:56:23.849Z</time></trkpt><trkpt lat="40.6376083" lon="15.218095"><ele>190.0</ele><time>2026-05-02T10:56:24.849Z</time></trkpt><trkpt lat="40.637625" lon="15.2181783"><ele>188.66666666666669</ele><time>2026-05-02T10:56:25.849Z</time></trkpt><trkpt lat="40.6376417" lon="15.21826"><ele>187.33333333333334</ele><time>2026-05-02T10:56:26.85Z</time></trkpt><trkpt lat="40.6376683" lon="15.2184183"><ele>186.0</ele><time>2026-05-02T10:56:28.849Z</time></trkpt><trkpt lat="40.637695" lon="15.2185717"><ele>184.66666666666666</ele><time>2026-05-02T10:56:30.849Z</time></trkpt><trkpt lat="40.6377067" lon="15.2186583"><ele>183.33333333333331</ele><time>2026-05-02T10:56:31.849Z</time></trkpt><trkpt lat="40.6377183" lon="15.2187417"><ele>182.0</ele><time>2026-05-02T10:56:32.849Z</time></trkpt><trkpt lat="40.6377317" lon="15.21883"><ele>182.0</ele><time>2026-05-02T10:56:33.849Z</time></trkpt><trkpt lat="40.6377433" lon="15.2189133"><ele>182.0</ele><time>2026-05-02T10:56:34.849Z</time></trkpt><trkpt lat="40.6377583" lon="15.2190017"><ele>182.0</ele><time>2026-05-02T10:56:35.85Z</time></trkpt><trkpt lat="40.637775" lon="15.2190883"><ele>182.0</ele><time>2026-05-02T10:56:36.85Z</time></trkpt><trkpt lat="40.6377867" lon="15.2191917"><ele>182.0</ele><time>2026-05-02T10:56:37.85Z</time></trkpt><trkpt lat="40.637795" lon="15.2192917"><ele>182.0</ele><time>2026-05-02T10:56:38.85Z</time></trkpt><trkpt lat="40.6378" lon="15.21939"><ele>182.0</ele><time>2026-05-02T10:56:39.85Z</time></trkpt><trkpt lat="40.6378033" lon="15.2194783"><ele>180.83333333333331</ele><time>2026-05-02T10:56:40.85Z</time></trkpt><trkpt lat="40.6378033" lon="15.2195633"><ele>179.66666666666666</ele><time>2026-05-02T10:56:41.849Z</time></trkpt><trkpt lat="40.6377917" lon="15.219725"><ele>178.5</ele><time>2026-05-02T10:56:43.849Z</time></trkpt><trkpt lat="40.6377533" lon="15.2198483"><ele>177.33333333333334</ele><time>2026-05-02T10:56:45.85Z</time></trkpt><trkpt lat="40.6377283" lon="15.21993"><ele>176.16666666666669</ele><time>2026-05-02T10:56:47.85Z</time></trkpt><trkpt lat="40.6377833" lon="15.22003"><ele>175.0</ele><time>2026-05-02T10:56:52.85Z</time></trkpt><trkpt lat="40.637905" lon="15.2200783"><ele>173.5</ele><time>2026-05-02T10:56:54.849Z</time></trkpt><trkpt lat="40.6379783" lon="15.22011"><ele>172.0</ele><time>2026-05-02T10:56:55.85Z</time></trkpt><trkpt lat="40.6380517" lon="15.220145"><ele>170.5</ele><time>2026-05-02T10:56:56.85Z</time></trkpt><trkpt lat="40.63813" lon="15.2201783"><ele>169.0</ele><time>2026-05-02T10:56:57.849Z</time></trkpt><trkpt lat="40.6382067" lon="15.2202183"><ele>167.5</ele><time>2026-05-02T10:56:58.849Z</time></trkpt><trkpt lat="40.6382767" lon="15.220255"><ele>166.0</ele><time>2026-05-02T10:56:59.85Z</time></trkpt><trkpt lat="40.6383417" lon="15.2203"><ele>166.0</ele><time>2026-05-02T10:57:00.85Z</time></trkpt><trkpt lat="40.6383983" lon="15.2203583"><ele>166.0</ele><time>2026-05-02T10:57:01.849Z</time></trkpt><trkpt lat="40.6384733" lon="15.22046"><ele>166.0</ele><time>2026-05-02T10:57:03.849Z</time></trkpt><trkpt lat="40.6385517" lon="15.2205833"><ele>166.0</ele><time>2026-05-02T10:57:05.849Z</time></trkpt><trkpt lat="40.6385983" lon="15.2206533"><ele>166.0</ele><time>2026-05-02T10:57:06.85Z</time></trkpt><trkpt lat="40.6386483" lon="15.2207233"><ele>166.0</ele><time>2026-05-02T10:57:07.849Z</time></trkpt><trkpt lat="40.6387017" lon="15.2207967"><ele>164.83333333333334</ele><time>2026-05-02T10:57:08.85Z</time></trkpt><trkpt lat="40.6387583" lon="15.22087"><ele>163.66666666666669</ele><time>2026-05-02T10:57:09.849Z</time></trkpt><trkpt lat="40.63882" lon="15.220945"><ele>162.5</ele><time>2026-05-02T10:57:10.849Z</time></trkpt><trkpt lat="40.63888" lon="15.2210217"><ele>161.33333333333334</ele><time>2026-05-02T10:57:11.85Z</time></trkpt><trkpt lat="40.6389417" lon="15.2211017"><ele>160.16666666666666</ele><time>2026-05-02T10:57:12.85Z</time></trkpt><trkpt lat="40.6390083" lon="15.221185"><ele>159.0</ele><time>2026-05-02T10:57:13.85Z</time></trkpt><trkpt lat="40.6390733" lon="15.2212667"><ele>159.0</ele><time>2026-05-02T10:57:14.85Z</time></trkpt><trkpt lat="40.63914" lon="15.2213483"><ele>159.0</ele><time>2026-05-02T10:57:15.849Z</time></trkpt><trkpt lat="40.6392083" lon="15.22143"><ele>159.0</ele><time>2026-05-02T10:57:16.849Z</time></trkpt><trkpt lat="40.6392817" lon="15.221515"><ele>159.0</ele><time>2026-05-02T10:57:17.849Z</time></trkpt><trkpt lat="40.639355" lon="15.2216067"><ele>159.0</ele><time>2026-05-02T10:57:18.85Z</time></trkpt><trkpt lat="40.6394283" lon="15.2217"><ele>155.6</ele><time>2026-05-02T10:57:19.849Z</time></trkpt><trkpt lat="40.6395" lon="15.22179"><ele>152.2</ele><time>2026-05-02T10:57:20.85Z</time></trkpt><trkpt lat="40.6395667" lon="15.2218783"><ele>148.79999999999998</ele><time>2026-05-02T10:57:21.85Z</time></trkpt><trkpt lat="40.6396333" lon="15.221965"><ele>145.4</ele><time>2026-05-02T10:57:22.849Z</time></trkpt><trkpt lat="40.639695" lon="15.222045"><ele>142.0</ele><time>2026-05-02T10:57:23.85Z</time></trkpt><trkpt lat="40.6397567" lon="15.2221283"><ele>142.0</ele><time>2026-05-02T10:57:24.849Z</time></trkpt><trkpt lat="40.6398183" lon="15.2222117"><ele>142.0</ele><time>2026-05-02T10:57:25.85Z</time></trkpt><trkpt lat="40.63988" lon="15.2222883"><ele>142.0</ele><time>2026-05-02T10:57:26.85Z</time></trkpt><trkpt lat="40.6399433" lon="15.2223683"><ele>142.0</ele><time>2026-05-02T10:57:27.849Z</time></trkpt><trkpt lat="40.6400033" lon="15.2224383"><ele>142.0</ele><time>2026-05-02T10:57:28.85Z</time></trkpt><trkpt lat="40.6400733" lon="15.2225517"><ele>140.16666666666669</ele><time>2026-05-02T10:57:30.849Z</time></trkpt><trkpt lat="40.6400883" lon="15.22267"><ele>138.33333333333334</ele><time>2026-05-02T10:57:32.849Z</time></trkpt><trkpt lat="40.64006" lon="15.2227967"><ele>136.5</ele><time>2026-05-02T10:57:35.849Z</time></trkpt><trkpt lat="40.64002" lon="15.2228683"><ele>134.66666666666666</ele><time>2026-05-02T10:57:36.849Z</time></trkpt><trkpt lat="40.63997" lon="15.2229483"><ele>132.83333333333331</ele><time>2026-05-02T10:57:37.85Z</time></trkpt><trkpt lat="40.6399133" lon="15.2230283"><ele>131.0</ele><time>2026-05-02T10:57:38.849Z</time></trkpt><trkpt lat="40.6398567" lon="15.2231117"><ele>128.6</ele><time>2026-05-02T10:57:39.849Z</time></trkpt><trkpt lat="40.63979" lon="15.2232033"><ele>126.19999999999999</ele><time>2026-05-02T10:57:40.85Z</time></trkpt><trkpt lat="40.6397217" lon="15.223305"><ele>123.80000000000001</ele><time>2026-05-02T10:57:41.85Z</time></trkpt><trkpt lat="40.6396517" lon="15.2234133"><ele>121.4</ele><time>2026-05-02T10:57:42.85Z</time></trkpt><trkpt lat="40.63958" lon="15.2235283"><ele>119.0</ele><time>2026-05-02T10:57:43.849Z</time></trkpt><trkpt lat="40.6395083" lon="15.2236417"><ele>118.75</ele><time>2026-05-02T10:57:44.85Z</time></trkpt><trkpt lat="40.6394283" lon="15.223755"><ele>118.5</ele><time>2026-05-02T10:57:45.85Z</time></trkpt><trkpt lat="40.6393467" lon="15.2238667"><ele>118.25</ele><time>2026-05-02T10:57:46.85Z</time></trkpt><trkpt lat="40.6392567" lon="15.2239917"><ele>118.0</ele><time>2026-05-02T10:57:47.85Z</time></trkpt><trkpt lat="40.63917" lon="15.2241283"><ele>118.0</ele><time>2026-05-02T10:57:48.849Z</time></trkpt><trkpt lat="40.639075" lon="15.2242683"><ele>118.0</ele><time>2026-05-02T10:57:49.85Z</time></trkpt><trkpt lat="40.63898" lon="15.2244083"><ele>118.0</ele><time>2026-05-02T10:57:50.85Z</time></trkpt><trkpt lat="40.6388833" lon="15.2245533"><ele>118.0</ele><time>2026-05-02T10:57:51.849Z</time></trkpt><trkpt lat="40.6387883" lon="15.2247017"><ele>117.75</ele><time>2026-05-02T10:57:52.85Z</time></trkpt><trkpt lat="40.6386917" lon="15.2248517"><ele>117.5</ele><time>2026-05-02T10:57:53.849Z</time></trkpt><trkpt lat="40.6385933" lon="15.2250033"><ele>117.25</ele><time>2026-05-02T10:57:54.849Z</time></trkpt><trkpt lat="40.6385017" lon="15.2251567"><ele>117.0</ele><time>2026-05-02T10:57:55.849Z</time></trkpt><trkpt lat="40.6384017" lon="15.2253067"><ele>117.0</ele><time>2026-05-02T10:57:56.85Z</time></trkpt><trkpt lat="40.6383033" lon="15.225455"><ele>117.0</ele><time>2026-05-02T10:57:57.85Z</time></trkpt><trkpt lat="40.6382067" lon="15.2256083"><ele>117.0</ele><time>2026-05-02T10:57:58.849Z</time></trkpt><trkpt lat="40.63811" lon="15.2257517"><ele>117.0</ele><time>2026-05-02T10:57:59.849Z</time></trkpt><trkpt lat="40.6380167" lon="15.225915"><ele>116.66666666666666</ele><time>2026-05-02T10:58:00.849Z</time></trkpt><trkpt lat="40.63791" lon="15.2260717"><ele>116.33333333333333</ele><time>2026-05-02T10:58:01.85Z</time></trkpt><trkpt lat="40.637805" lon="15.226225"><ele>116.0</ele><time>2026-05-02T10:58:02.85Z</time></trkpt><trkpt lat="40.6376967" lon="15.2263683"><ele>112.0</ele><time>2026-05-02T10:58:03.849Z</time></trkpt><trkpt lat="40.637565" lon="15.2264883"><ele>108.0</ele><time>2026-05-02T10:58:04.849Z</time></trkpt><trkpt lat="40.6374317" lon="15.2265983"><ele>104.0</ele><time>2026-05-02T10:58:05.849Z</time></trkpt><trkpt lat="40.637285" lon="15.2266967"><ele>104.0</ele><time>2026-05-02T10:58:06.85Z</time></trkpt><trkpt lat="40.6371367" lon="15.22678"><ele>104.0</ele><time>2026-05-02T10:58:07.85Z</time></trkpt><trkpt lat="40.6369817" lon="15.2268567"><ele>104.0</ele><time>2026-05-02T10:58:08.85Z</time></trkpt><trkpt lat="40.6368267" lon="15.2269217"><ele>104.33333333333333</ele><time>2026-05-02T10:58:09.849Z</time></trkpt><trkpt lat="40.6366683" lon="15.2269667"><ele>104.66666666666666</ele><time>2026-05-02T10:58:10.85Z</time></trkpt><trkpt lat="40.6365117" lon="15.227"><ele>105.0</ele><time>2026-05-02T10:58:11.849Z</time></trkpt><trkpt lat="40.636355" lon="15.2270233"><ele>105.0</ele><time>2026-05-02T10:58:12.849Z</time></trkpt><trkpt lat="40.636205" lon="15.2270317"><ele>105.0</ele><time>2026-05-02T10:58:13.849Z</time></trkpt><trkpt lat="40.6360567" lon="15.22702"><ele>105.0</ele><time>2026-05-02T10:58:14.849Z</time></trkpt><trkpt lat="40.63591" lon="15.2269933"><ele>105.0</ele><time>2026-05-02T10:58:15.85Z</time></trkpt><trkpt lat="40.6357583" lon="15.22694"><ele>104.25</ele><time>2026-05-02T10:58:16.85Z</time></trkpt><trkpt lat="40.6356133" lon="15.2268783"><ele>103.5</ele><time>2026-05-02T10:58:17.85Z</time></trkpt><trkpt lat="40.6354717" lon="15.226805"><ele>102.75</ele><time>2026-05-02T10:58:18.85Z</time></trkpt><trkpt lat="40.6353383" lon="15.2267383"><ele>102.0</ele><time>2026-05-02T10:58:19.85Z</time></trkpt><trkpt lat="40.63522" lon="15.2266617"><ele>102.39999999999999</ele><time>2026-05-02T10:58:20.849Z</time></trkpt><trkpt lat="40.6351117" lon="15.226575"><ele>102.8</ele><time>2026-05-02T10:58:21.849Z</time></trkpt><trkpt lat="40.6350183" lon="15.2264933"><ele>103.2</ele><time>2026-05-02T10:58:22.849Z</time></trkpt><trkpt lat="40.63496" lon="15.22642"><ele>103.6</ele><time>2026-05-02T10:58:23.849Z</time></trkpt><trkpt lat="40.634895" lon="15.2263483"><ele>104.0</ele><time>2026-05-02T10:58:25.849Z</time></trkpt><trkpt lat="40.6348717" lon="15.22626"><ele>104.0</ele><time>2026-05-02T10:59:09.85Z</time></trkpt><trkpt lat="40.6348267" lon="15.226185"><ele>104.0</ele><time>2026-05-02T10:59:10.85Z</time></trkpt><trkpt lat="40.6347767" lon="15.2260967"><ele>104.0</ele><time>2026-05-02T10:59:11.849Z</time></trkpt><trkpt lat="40.63472" lon="15.225985"><ele>104.0</ele><time>2026-05-02T10:59:12.849Z</time></trkpt><trkpt lat="40.6346567" lon="15.22585"><ele>104.0</ele><time>2026-05-02T10:59:13.849Z</time></trkpt><trkpt lat="40.6346" lon="15.2257133"><ele>102.25</ele><time>2026-05-02T10:59:14.849Z</time></trkpt><trkpt lat="40.6345433" lon="15.2255567"><ele>100.5</ele><time>2026-05-02T10:59:15.849Z</time></trkpt><trkpt lat="40.63449" lon="15.2253817"><ele>98.75</ele><time>2026-05-02T10:59:16.849Z</time></trkpt><trkpt lat="40.6344283" lon="15.2252217"><ele>97.0</ele><time>2026-05-02T10:59:17.849Z</time></trkpt><trkpt lat="40.6343717" lon="15.2250683"><ele>97.0</ele><time>2026-05-02T10:59:18.85Z</time></trkpt><trkpt lat="40.634325" lon="15.224935"><ele>97.0</ele><time>2026-05-02T10:59:19.849Z</time></trkpt><trkpt lat="40.634275" lon="15.2248067"><ele>97.0</ele><time>2026-05-02T10:59:20.849Z</time></trkpt><trkpt lat="40.6342133" lon="15.2246883"><ele>97.0</ele><time>2026-05-02T10:59:21.85Z</time></trkpt><trkpt lat="40.6341267" lon="15.2245917"><ele>97.0</ele><time>2026-05-02T10:59:22.849Z</time></trkpt><trkpt lat="40.63403" lon="15.224515"><ele>97.5</ele><time>2026-05-02T10:59:23.849Z</time></trkpt><trkpt lat="40.6339233" lon="15.2244667"><ele>98.0</ele><time>2026-05-02T10:59:24.849Z</time></trkpt><trkpt lat="40.6338133" lon="15.2244483"><ele>98.5</ele><time>2026-05-02T10:59:25.85Z</time></trkpt><trkpt lat="40.6337" lon="15.2244733"><ele>99.0</ele><time>2026-05-02T10:59:26.849Z</time></trkpt><trkpt lat="40.6335983" lon="15.2245383"><ele>99.0</ele><time>2026-05-02T10:59:27.85Z</time></trkpt><trkpt lat="40.63352" lon="15.2246183"><ele>99.0</ele><time>2026-05-02T10:59:28.849Z</time></trkpt><trkpt lat="40.633465" lon="15.2247083"><ele>99.0</ele><time>2026-05-02T10:59:29.849Z</time></trkpt><trkpt lat="40.6334117" lon="15.2248317"><ele>99.0</ele><time>2026-05-02T10:59:31.85Z</time></trkpt><trkpt lat="40.6333617" lon="15.22497"><ele>99.0</ele><time>2026-05-02T10:59:33.849Z</time></trkpt><trkpt lat="40.6333433" lon="15.22512"><ele>98.0</ele><time>2026-05-02T10:59:35.849Z</time></trkpt><trkpt lat="40.6333333" lon="15.2252217"><ele>97.0</ele><time>2026-05-02T10:59:36.849Z</time></trkpt><trkpt lat="40.6333533" lon="15.2253467"><ele>96.0</ele><time>2026-05-02T10:59:37.85Z</time></trkpt><trkpt lat="40.633365" lon="15.2254667"><ele>95.0</ele><time>2026-05-02T10:59:38.85Z</time></trkpt><trkpt lat="40.63337" lon="15.2255983"><ele>94.0</ele><time>2026-05-02T10:59:39.85Z</time></trkpt><trkpt lat="40.633395" lon="15.2257217"><ele>93.0</ele><time>2026-05-02T10:59:40.85Z</time></trkpt><trkpt lat="40.6334383" lon="15.2258483"><ele>92.0</ele><time>2026-05-02T10:59:41.849Z</time></trkpt><trkpt lat="40.6334833" lon="15.2259633"><ele>91.0</ele><time>2026-05-02T10:59:42.85Z</time></trkpt><trkpt lat="40.6335283" lon="15.2260767"><ele>90.0</ele><time>2026-05-02T10:59:43.849Z</time></trkpt><trkpt lat="40.633575" lon="15.2261917"><ele>89.0</ele><time>2026-05-02T10:59:44.849Z</time></trkpt><trkpt lat="40.633635" lon="15.2263067"><ele>88.80000000000001</ele><time>2026-05-02T10:59:45.85Z</time></trkpt><trkpt lat="40.6337067" lon="15.22641"><ele>88.60000000000001</ele><time>2026-05-02T10:59:46.849Z</time></trkpt><trkpt lat="40.6337833" lon="15.2265117"><ele>88.4</ele><time>2026-05-02T10:59:47.849Z</time></trkpt><trkpt lat="40.6338617" lon="15.2266183"><ele>88.2</ele><time>2026-05-02T10:59:48.849Z</time></trkpt><trkpt lat="40.6339367" lon="15.2267233"><ele>88.0</ele><time>2026-05-02T10:59:49.849Z</time></trkpt><trkpt lat="40.6339933" lon="15.2268117"><ele>88.0</ele><time>2026-05-02T10:59:50.85Z</time></trkpt><trkpt lat="40.6340717" lon="15.226905"><ele>88.0</ele><time>2026-05-02T10:59:52.85Z</time></trkpt><trkpt lat="40.6341033" lon="15.2268317"><ele>88.0</ele><time>2026-05-02T10:59:56.85Z</time></trkpt><trkpt lat="40.6340055" lon="15.2267219"><ele>88.0</ele><time>2026-05-02T10:59:58.85Z</time></trkpt><trkpt lat="40.6338669" lon="15.2265719"><ele>88.25</ele><time>2026-05-02T11:00:00.848Z</time></trkpt><trkpt lat="40.633776" lon="15.2264452"><ele>88.5</ele><time>2026-05-02T11:00:01.849Z</time></trkpt><trkpt lat="40.6336859" lon="15.226333"><ele>88.75</ele><time>2026-05-02T11:00:02.849Z</time></trkpt><trkpt lat="40.6336004" lon="15.2262214"><ele>89.0</ele><time>2026-05-02T11:00:03.849Z</time></trkpt><trkpt lat="40.6335264" lon="15.2260957"><ele>89.0</ele><time>2026-05-02T11:00:04.848Z</time></trkpt><trkpt lat="40.6334626" lon="15.2259535"><ele>89.0</ele><time>2026-05-02T11:00:05.848Z</time></trkpt><trkpt lat="40.6334087" lon="15.225805"><ele>89.0</ele><time>2026-05-02T11:00:06.848Z</time></trkpt><trkpt lat="40.6333604" lon="15.2256647"><ele>89.0</ele><time>2026-05-02T11:00:07.848Z</time></trkpt><trkpt lat="40.6333217" lon="15.225531"><ele>89.83333333333334</ele><time>2026-05-02T11:00:08.848Z</time></trkpt><trkpt lat="40.6332951" lon="15.2254047"><ele>90.66666666666667</ele><time>2026-05-02T11:00:09.848Z</time></trkpt><trkpt lat="40.6332772" lon="15.2252947"><ele>91.5</ele><time>2026-05-02T11:00:10.848Z</time></trkpt><trkpt lat="40.6332713" lon="15.2251889"><ele>92.33333333333333</ele><time>2026-05-02T11:00:11.848Z</time></trkpt><trkpt lat="40.6332795" lon="15.2250931"><ele>93.16666666666666</ele><time>2026-05-02T11:00:12.849Z</time></trkpt><trkpt lat="40.6332931" lon="15.2250068"><ele>94.0</ele><time>2026-05-02T11:00:13.848Z</time></trkpt><trkpt lat="40.6333429" lon="15.2248785"><ele>94.0</ele><time>2026-05-02T11:00:15.849Z</time></trkpt><trkpt lat="40.6334234" lon="15.2249157"><ele>94.0</ele><time>2026-05-02T11:00:18.848Z</time></trkpt><trkpt lat="40.6334498" lon="15.2250627"><ele>94.0</ele><time>2026-05-02T11:00:20.849Z</time></trkpt><trkpt lat="40.6334558" lon="15.225199"><ele>94.0</ele><time>2026-05-02T11:00:21.849Z</time></trkpt><trkpt lat="40.6334749" lon="15.2253156"><ele>94.0</ele><time>2026-05-02T11:00:22.849Z</time></trkpt><trkpt lat="40.6335119" lon="15.2254257"><ele>94.0</ele><time>2026-05-02T11:00:23.848Z</time></trkpt><trkpt lat="40.633568" lon="15.2255404"><ele>94.0</ele><time>2026-05-02T11:00:24.848Z</time></trkpt><trkpt lat="40.6336405" lon="15.2256515"><ele>94.0</ele><time>2026-05-02T11:00:25.849Z</time></trkpt><trkpt lat="40.633724" lon="15.225753"><ele>94.0</ele><time>2026-05-02T11:00:26.849Z</time></trkpt><trkpt lat="40.6338078" lon="15.2258635"><ele>94.0</ele><time>2026-05-02T11:00:27.849Z</time></trkpt><trkpt lat="40.6338887" lon="15.2259656"><ele>94.0</ele><time>2026-05-02T11:00:28.849Z</time></trkpt><trkpt lat="40.6339563" lon="15.2260605"><ele>94.0</ele><time>2026-05-02T11:00:29.849Z</time></trkpt><trkpt lat="40.6340118" lon="15.226151"><ele>94.0</ele><time>2026-05-02T11:00:30.848Z</time></trkpt><trkpt lat="40.6340568" lon="15.2262404"><ele>94.0</ele><time>2026-05-02T11:00:31.848Z</time></trkpt><trkpt lat="40.6340951" lon="15.2263292"><ele>94.0</ele><time>2026-05-02T11:00:32.849Z</time></trkpt><trkpt lat="40.6341314" lon="15.2264263"><ele>94.0</ele><time>2026-05-02T11:00:33.848Z</time></trkpt><trkpt lat="40.6341708" lon="15.2265472"><ele>92.5</ele><time>2026-05-02T11:00:34.849Z</time></trkpt><trkpt lat="40.6342069" lon="15.2267047"><ele>91.0</ele><time>2026-05-02T11:00:35.848Z</time></trkpt><trkpt lat="40.634241" lon="15.2268792"><ele>89.5</ele><time>2026-05-02T11:00:36.848Z</time></trkpt><trkpt lat="40.6342704" lon="15.227063"><ele>88.0</ele><time>2026-05-02T11:00:37.849Z</time></trkpt><trkpt lat="40.6343045" lon="15.2272466"><ele>85.33333333333333</ele><time>2026-05-02T11:00:38.849Z</time></trkpt><trkpt lat="40.6343368" lon="15.227441"><ele>82.66666666666667</ele><time>2026-05-02T11:00:39.848Z</time></trkpt><trkpt lat="40.634369" lon="15.2276408"><ele>80.0</ele><time>2026-05-02T11:00:40.848Z</time></trkpt><trkpt lat="40.6344049" lon="15.2278507"><ele>80.0</ele><time>2026-05-02T11:00:41.849Z</time></trkpt><trkpt lat="40.6344419" lon="15.2280697"><ele>80.0</ele><time>2026-05-02T11:00:42.848Z</time></trkpt><trkpt lat="40.6344815" lon="15.2283016"><ele>80.0</ele><time>2026-05-02T11:00:43.849Z</time></trkpt><trkpt lat="40.6345158" lon="15.2285354"><ele>79.66666666666667</ele><time>2026-05-02T11:00:44.848Z</time></trkpt><trkpt lat="40.6345552" lon="15.2287738"><ele>79.33333333333333</ele><time>2026-05-02T11:00:45.849Z</time></trkpt><trkpt lat="40.6345966" lon="15.2290148"><ele>79.0</ele><time>2026-05-02T11:00:46.849Z</time></trkpt><trkpt lat="40.6346443" lon="15.2292568"><ele>78.66666666666666</ele><time>2026-05-02T11:00:47.848Z</time></trkpt><trkpt lat="40.6346898" lon="15.2294997"><ele>78.33333333333333</ele><time>2026-05-02T11:00:48.849Z</time></trkpt><trkpt lat="40.634725" lon="15.2297381"><ele>78.0</ele><time>2026-05-02T11:00:49.848Z</time></trkpt><trkpt lat="40.6347566" lon="15.2299797"><ele>78.66666666666667</ele><time>2026-05-02T11:00:50.848Z</time></trkpt><trkpt lat="40.6347799" lon="15.2302183"><ele>79.33333333333334</ele><time>2026-05-02T11:00:51.849Z</time></trkpt><trkpt lat="40.6347967" lon="15.2304542"><ele>80.0</ele><time>2026-05-02T11:00:52.849Z</time></trkpt><trkpt lat="40.6348106" lon="15.2306867"><ele>80.0</ele><time>2026-05-02T11:00:53.848Z</time></trkpt><trkpt lat="40.6348274" lon="15.2309144"><ele>80.0</ele><time>2026-05-02T11:00:54.849Z</time></trkpt><trkpt lat="40.6348437" lon="15.2311305"><ele>80.0</ele><time>2026-05-02T11:00:55.849Z</time></trkpt><trkpt lat="40.6348568" lon="15.2313227"><ele>80.0</ele><time>2026-05-02T11:00:56.848Z</time></trkpt><trkpt lat="40.6348552" lon="15.2314963"><ele>80.0</ele><time>2026-05-02T11:00:57.848Z</time></trkpt><trkpt lat="40.6348253" lon="15.2316534"><ele>80.0</ele><time>2026-05-02T11:00:58.849Z</time></trkpt><trkpt lat="40.6347666" lon="15.2317926"><ele>80.0</ele><time>2026-05-02T11:00:59.849Z</time></trkpt><trkpt lat="40.63467" lon="15.2319017"><ele>80.0</ele><time>2026-05-02T11:01:00.849Z</time></trkpt><trkpt lat="40.63455" lon="15.231995"><ele>80.0</ele><time>2026-05-02T11:01:01.848Z</time></trkpt><trkpt lat="40.63441" lon="15.2320833"><ele>80.0</ele><time>2026-05-02T11:01:02.848Z</time></trkpt><trkpt lat="40.634275" lon="15.23218"><ele>80.0</ele><time>2026-05-02T11:01:03.848Z</time></trkpt><trkpt lat="40.6341267" lon="15.2322783"><ele>79.0</ele><time>2026-05-02T11:01:04.848Z</time></trkpt><trkpt lat="40.6339767" lon="15.2323883"><ele>78.0</ele><time>2026-05-02T11:01:05.848Z</time></trkpt><trkpt lat="40.6338183" lon="15.2325033"><ele>77.0</ele><time>2026-05-02T11:01:06.848Z</time></trkpt><trkpt lat="40.6336567" lon="15.2326217"><ele>77.0</ele><time>2026-05-02T11:01:07.848Z</time></trkpt><trkpt lat="40.63349" lon="15.2327417"><ele>77.0</ele><time>2026-05-02T11:01:08.848Z</time></trkpt><trkpt lat="40.6333233" lon="15.2328667"><ele>77.0</ele><time>2026-05-02T11:01:09.849Z</time></trkpt><trkpt lat="40.6331533" lon="15.23299"><ele>77.0</ele><time>2026-05-02T11:01:10.849Z</time></trkpt><trkpt lat="40.6329783" lon="15.2331183"><ele>77.0</ele><time>2026-05-02T11:01:11.849Z</time></trkpt><trkpt lat="40.6328167" lon="15.233255"><ele>77.0</ele><time>2026-05-02T11:01:12.849Z</time></trkpt><trkpt lat="40.6326433" lon="15.2333767"><ele>78.33333333333334</ele><time>2026-05-02T11:01:13.848Z</time></trkpt><trkpt lat="40.6324733" lon="15.233505"><ele>79.66666666666667</ele><time>2026-05-02T11:01:14.849Z</time></trkpt><trkpt lat="40.632305" lon="15.2336233"><ele>81.0</ele><time>2026-05-02T11:01:15.848Z</time></trkpt><trkpt lat="40.6321333" lon="15.2337467"><ele>80.0</ele><time>2026-05-02T11:01:16.848Z</time></trkpt><trkpt lat="40.6319717" lon="15.2338617"><ele>79.0</ele><time>2026-05-02T11:01:17.849Z</time></trkpt><trkpt lat="40.6318083" lon="15.2339767"><ele>78.0</ele><time>2026-05-02T11:01:18.849Z</time></trkpt><trkpt lat="40.631655" lon="15.23409"><ele>80.33333333333333</ele><time>2026-05-02T11:01:19.849Z</time></trkpt><trkpt lat="40.6315117" lon="15.2342017"><ele>82.66666666666666</ele><time>2026-05-02T11:01:20.849Z</time></trkpt><trkpt lat="40.6313833" lon="15.2343217"><ele>85.0</ele><time>2026-05-02T11:01:21.849Z</time></trkpt><trkpt lat="40.6312717" lon="15.23443"><ele>85.0</ele><time>2026-05-02T11:01:22.848Z</time></trkpt><trkpt lat="40.6311733" lon="15.234525"><ele>85.0</ele><time>2026-05-02T11:01:23.848Z</time></trkpt><trkpt lat="40.6310817" lon="15.2346017"><ele>85.0</ele><time>2026-05-02T11:01:24.849Z</time></trkpt><trkpt lat="40.6309967" lon="15.2346433"><ele>85.0</ele><time>2026-05-02T11:01:25.848Z</time></trkpt><trkpt lat="40.6309217" lon="15.2346833"><ele>85.0</ele><time>2026-05-02T11:01:26.849Z</time></trkpt><trkpt lat="40.6308683" lon="15.234745"><ele>85.4</ele><time>2026-05-02T11:01:27.849Z</time></trkpt><trkpt lat="40.6308483" lon="15.2348933"><ele>85.8</ele><time>2026-05-02T11:01:29.848Z</time></trkpt><trkpt lat="40.6308783" lon="15.23498"><ele>86.19999999999999</ele><time>2026-05-02T11:01:30.848Z</time></trkpt><trkpt lat="40.6309367" lon="15.2350617"><ele>86.6</ele><time>2026-05-02T11:01:31.849Z</time></trkpt><trkpt lat="40.6310033" lon="15.2351667"><ele>87.0</ele><time>2026-05-02T11:01:32.849Z</time></trkpt><trkpt lat="40.63107" lon="15.23528"><ele>87.0</ele><time>2026-05-02T11:01:33.848Z</time></trkpt><trkpt lat="40.6311367" lon="15.2354033"><ele>87.0</ele><time>2026-05-02T11:01:34.849Z</time></trkpt><trkpt lat="40.63122" lon="15.2355217"><ele>87.0</ele><time>2026-05-02T11:01:35.849Z</time></trkpt><trkpt lat="40.631325" lon="15.2356283"><ele>87.0</ele><time>2026-05-02T11:01:36.849Z</time></trkpt><trkpt lat="40.6314433" lon="15.2357083"><ele>89.0</ele><time>2026-05-02T11:01:37.848Z</time></trkpt><trkpt lat="40.631575" lon="15.235735"><ele>91.0</ele><time>2026-05-02T11:01:38.849Z</time></trkpt><trkpt lat="40.631715" lon="15.2357217"><ele>93.0</ele><time>2026-05-02T11:01:39.849Z</time></trkpt><trkpt lat="40.6318617" lon="15.2356683"><ele>95.0</ele><time>2026-05-02T11:01:40.849Z</time></trkpt><trkpt lat="40.631985" lon="15.23557"><ele>99.0</ele><time>2026-05-02T11:01:41.848Z</time></trkpt><trkpt lat="40.6320783" lon="15.2354283"><ele>103.0</ele><time>2026-05-02T11:01:42.849Z</time></trkpt><trkpt lat="40.63216" lon="15.235265"><ele>107.0</ele><time>2026-05-02T11:01:43.848Z</time></trkpt><trkpt lat="40.6322317" lon="15.2350767"><ele>107.0</ele><time>2026-05-02T11:01:44.849Z</time></trkpt><trkpt lat="40.632315" lon="15.2348833"><ele>107.0</ele><time>2026-05-02T11:01:45.849Z</time></trkpt><trkpt lat="40.6324067" lon="15.234695"><ele>107.0</ele><time>2026-05-02T11:01:46.849Z</time></trkpt><trkpt lat="40.6324917" lon="15.2345067"><ele>106.33333333333333</ele><time>2026-05-02T11:01:47.848Z</time></trkpt><trkpt lat="40.6325883" lon="15.23434"><ele>105.66666666666666</ele><time>2026-05-02T11:01:48.848Z</time></trkpt><trkpt lat="40.632695" lon="15.2342017"><ele>105.0</ele><time>2026-05-02T11:01:49.849Z</time></trkpt><trkpt lat="40.6328167" lon="15.23408"><ele>105.0</ele><time>2026-05-02T11:01:50.849Z</time></trkpt><trkpt lat="40.6329533" lon="15.233995"><ele>105.0</ele><time>2026-05-02T11:01:51.848Z</time></trkpt><trkpt lat="40.6330967" lon="15.2339383"><ele>105.0</ele><time>2026-05-02T11:01:52.849Z</time></trkpt><trkpt lat="40.63324" lon="15.233915"><ele>105.0</ele><time>2026-05-02T11:01:53.848Z</time></trkpt><trkpt lat="40.6333983" lon="15.2339367"><ele>105.0</ele><time>2026-05-02T11:01:54.849Z</time></trkpt><trkpt lat="40.6335517" lon="15.2339967"><ele>105.0</ele><time>2026-05-02T11:01:55.849Z</time></trkpt><trkpt lat="40.6336983" lon="15.2340867"><ele>105.0</ele><time>2026-05-02T11:01:56.849Z</time></trkpt><trkpt lat="40.6338217" lon="15.2341917"><ele>105.66666666666666</ele><time>2026-05-02T11:01:57.848Z</time></trkpt><trkpt lat="40.6339267" lon="15.23434"><ele>106.33333333333333</ele><time>2026-05-02T11:01:58.849Z</time></trkpt><trkpt lat="40.6340167" lon="15.2345117"><ele>107.0</ele><time>2026-05-02T11:01:59.848Z</time></trkpt><trkpt lat="40.63408" lon="15.2347067"><ele>109.0</ele><time>2026-05-02T11:02:00.848Z</time></trkpt><trkpt lat="40.6341217" lon="15.234915"><ele>111.0</ele><time>2026-05-02T11:02:01.849Z</time></trkpt><trkpt lat="40.6341417" lon="15.23515"><ele>113.0</ele><time>2026-05-02T11:02:02.849Z</time></trkpt><trkpt lat="40.6341567" lon="15.2353967"><ele>114.33333333333333</ele><time>2026-05-02T11:02:03.849Z</time></trkpt><trkpt lat="40.6341717" lon="15.2356533"><ele>115.66666666666666</ele><time>2026-05-02T11:02:04.848Z</time></trkpt><trkpt lat="40.634185" lon="15.235895"><ele>117.0</ele><time>2026-05-02T11:02:05.848Z</time></trkpt><trkpt lat="40.6341933" lon="15.23611"><ele>117.0</ele><time>2026-05-02T11:02:06.848Z</time></trkpt><trkpt lat="40.6341833" lon="15.2363167"><ele>117.0</ele><time>2026-05-02T11:02:07.849Z</time></trkpt><trkpt lat="40.63415" lon="15.2365183"><ele>117.0</ele><time>2026-05-02T11:02:08.849Z</time></trkpt><trkpt lat="40.6340883" lon="15.2367217"><ele>118.66666666666666</ele><time>2026-05-02T11:02:09.848Z</time></trkpt><trkpt lat="40.634" lon="15.2369183"><ele>120.33333333333333</ele><time>2026-05-02T11:02:10.848Z</time></trkpt><trkpt lat="40.6338933" lon="15.237115"><ele>122.0</ele><time>2026-05-02T11:02:11.848Z</time></trkpt><trkpt lat="40.6337783" lon="15.2373083"><ele>122.33333333333333</ele><time>2026-05-02T11:02:12.848Z</time></trkpt><trkpt lat="40.63367" lon="15.2375"><ele>122.66666666666666</ele><time>2026-05-02T11:02:13.848Z</time></trkpt><trkpt lat="40.6335733" lon="15.2376833"><ele>123.0</ele><time>2026-05-02T11:02:14.849Z</time></trkpt><trkpt lat="40.633495" lon="15.23787"><ele>123.0</ele><time>2026-05-02T11:02:15.848Z</time></trkpt><trkpt lat="40.63343" lon="15.238075"><ele>123.0</ele><time>2026-05-02T11:02:16.849Z</time></trkpt><trkpt lat="40.6334083" lon="15.2382817"><ele>123.0</ele><time>2026-05-02T11:02:17.848Z</time></trkpt><trkpt lat="40.63342" lon="15.2384967"><ele>125.66666666666666</ele><time>2026-05-02T11:02:18.849Z</time></trkpt><trkpt lat="40.6334633" lon="15.238705"><ele>128.33333333333331</ele><time>2026-05-02T11:02:19.848Z</time></trkpt><trkpt lat="40.6335467" lon="15.23889"><ele>131.0</ele><time>2026-05-02T11:02:20.849Z</time></trkpt><trkpt lat="40.6336567" lon="15.239045"><ele>136.33333333333331</ele><time>2026-05-02T11:02:21.849Z</time></trkpt><trkpt lat="40.6338" lon="15.2391667"><ele>141.66666666666666</ele><time>2026-05-02T11:02:22.848Z</time></trkpt><trkpt lat="40.6339583" lon="15.2392617"><ele>147.0</ele><time>2026-05-02T11:02:23.848Z</time></trkpt><trkpt lat="40.6341117" lon="15.239315"><ele>147.0</ele><time>2026-05-02T11:02:24.848Z</time></trkpt><trkpt lat="40.6342883" lon="15.2393617"><ele>147.0</ele><time>2026-05-02T11:02:25.848Z</time></trkpt><trkpt lat="40.6344683" lon="15.2394067"><ele>147.0</ele><time>2026-05-02T11:02:26.849Z</time></trkpt><trkpt lat="40.63464" lon="15.2394633"><ele>148.33333333333334</ele><time>2026-05-02T11:02:27.849Z</time></trkpt><trkpt lat="40.6348" lon="15.2395367"><ele>149.66666666666669</ele><time>2026-05-02T11:02:28.849Z</time></trkpt><trkpt lat="40.6349467" lon="15.2396367"><ele>151.0</ele><time>2026-05-02T11:02:29.848Z</time></trkpt><trkpt lat="40.6350817" lon="15.23977"><ele>151.0</ele><time>2026-05-02T11:02:30.848Z</time></trkpt><trkpt lat="40.635195" lon="15.23993"><ele>151.0</ele><time>2026-05-02T11:02:31.848Z</time></trkpt><trkpt lat="40.6352933" lon="15.2401217"><ele>151.0</ele><time>2026-05-02T11:02:32.849Z</time></trkpt><trkpt lat="40.6353667" lon="15.24034"><ele>151.0</ele><time>2026-05-02T11:02:33.849Z</time></trkpt><trkpt lat="40.6354167" lon="15.2405817"><ele>151.0</ele><time>2026-05-02T11:02:34.849Z</time></trkpt><trkpt lat="40.6354683" lon="15.2408267"><ele>151.0</ele><time>2026-05-02T11:02:35.848Z</time></trkpt><trkpt lat="40.6355133" lon="15.241075"><ele>151.66666666666669</ele><time>2026-05-02T11:02:36.849Z</time></trkpt><trkpt lat="40.6355667" lon="15.2413233"><ele>152.33333333333334</ele><time>2026-05-02T11:02:37.849Z</time></trkpt><trkpt lat="40.6356233" lon="15.241575"><ele>153.0</ele><time>2026-05-02T11:02:38.848Z</time></trkpt><trkpt lat="40.635695" lon="15.24183"><ele>153.66666666666666</ele><time>2026-05-02T11:02:39.848Z</time></trkpt><trkpt lat="40.6357783" lon="15.2420783"><ele>154.33333333333331</ele><time>2026-05-02T11:02:40.849Z</time></trkpt><trkpt lat="40.63587" lon="15.24232"><ele>155.0</ele><time>2026-05-02T11:02:41.848Z</time></trkpt><trkpt lat="40.6359667" lon="15.2425767"><ele>155.33333333333331</ele><time>2026-05-02T11:02:42.849Z</time></trkpt><trkpt lat="40.6360717" lon="15.2428367"><ele>155.66666666666666</ele><time>2026-05-02T11:02:43.849Z</time></trkpt><trkpt lat="40.6361783" lon="15.2430933"><ele>156.0</ele><time>2026-05-02T11:02:44.848Z</time></trkpt><trkpt lat="40.6362783" lon="15.243335"><ele>156.66666666666666</ele><time>2026-05-02T11:02:45.848Z</time></trkpt><trkpt lat="40.6363833" lon="15.24356"><ele>157.33333333333331</ele><time>2026-05-02T11:02:46.848Z</time></trkpt><trkpt lat="40.6364833" lon="15.2437767"><ele>158.0</ele><time>2026-05-02T11:02:47.849Z</time></trkpt><trkpt lat="40.6365883" lon="15.243985"><ele>159.0</ele><time>2026-05-02T11:02:48.848Z</time></trkpt><trkpt lat="40.6367067" lon="15.2441817"><ele>160.0</ele><time>2026-05-02T11:02:49.848Z</time></trkpt><trkpt lat="40.6368483" lon="15.2443617"><ele>161.0</ele><time>2026-05-02T11:02:50.848Z</time></trkpt><trkpt lat="40.6370083" lon="15.2445117"><ele>162.66666666666666</ele><time>2026-05-02T11:02:51.849Z</time></trkpt><trkpt lat="40.637175" lon="15.2446467"><ele>164.33333333333334</ele><time>2026-05-02T11:02:52.848Z</time></trkpt><trkpt lat="40.637355" lon="15.2447583"><ele>166.0</ele><time>2026-05-02T11:02:53.848Z</time></trkpt><trkpt lat="40.6375417" lon="15.24487"><ele>166.0</ele><time>2026-05-02T11:02:54.848Z</time></trkpt><trkpt lat="40.637735" lon="15.2449683"><ele>166.0</ele><time>2026-05-02T11:02:55.849Z</time></trkpt><trkpt lat="40.6379333" lon="15.2450683"><ele>166.0</ele><time>2026-05-02T11:02:56.849Z</time></trkpt><trkpt lat="40.6381317" lon="15.2451767"><ele>167.66666666666669</ele><time>2026-05-02T11:02:57.848Z</time></trkpt><trkpt lat="40.6383317" lon="15.2452767"><ele>169.33333333333334</ele><time>2026-05-02T11:02:58.848Z</time></trkpt><trkpt lat="40.6385367" lon="15.2453733"><ele>171.0</ele><time>2026-05-02T11:02:59.849Z</time></trkpt><trkpt lat="40.63875" lon="15.2454767"><ele>171.0</ele><time>2026-05-02T11:03:00.848Z</time></trkpt><trkpt lat="40.6389633" lon="15.2455767"><ele>171.0</ele><time>2026-05-02T11:03:01.849Z</time></trkpt><trkpt lat="40.6391817" lon="15.245685"><ele>173.0</ele><time>2026-05-02T11:03:02.849Z</time></trkpt><trkpt lat="40.6394" lon="15.2458017"><ele>175.0</ele><time>2026-05-02T11:03:03.849Z</time></trkpt><trkpt lat="40.6396167" lon="15.245925"><ele>177.0</ele><time>2026-05-02T11:03:04.849Z</time></trkpt><trkpt lat="40.639835" lon="15.2460483"><ele>179.0</ele><time>2026-05-02T11:03:05.848Z</time></trkpt><trkpt lat="40.6400467" lon="15.2461667"><ele>179.0</ele><time>2026-05-02T11:03:06.848Z</time></trkpt><trkpt lat="40.6402533" lon="15.2462783"><ele>179.0</ele><time>2026-05-02T11:03:07.848Z</time></trkpt><trkpt lat="40.6404667" lon="15.246385"><ele>181.66666666666666</ele><time>2026-05-02T11:03:08.849Z</time></trkpt><trkpt lat="40.6406767" lon="15.2464933"><ele>184.33333333333334</ele><time>2026-05-02T11:03:09.848Z</time></trkpt><trkpt lat="40.6408833" lon="15.2465833"><ele>187.0</ele><time>2026-05-02T11:03:10.848Z</time></trkpt><trkpt lat="40.6410817" lon="15.2466533"><ele>188.33333333333334</ele><time>2026-05-02T11:03:11.849Z</time></trkpt><trkpt lat="40.6412783" lon="15.246705"><ele>189.66666666666666</ele><time>2026-05-02T11:03:12.848Z</time></trkpt><trkpt lat="40.6414817" lon="15.2467283"><ele>191.0</ele><time>2026-05-02T11:03:13.848Z</time></trkpt><trkpt lat="40.6416833" lon="15.2467333"><ele>191.0</ele><time>2026-05-02T11:03:14.849Z</time></trkpt><trkpt lat="40.6418933" lon="15.246735"><ele>191.0</ele><time>2026-05-02T11:03:15.849Z</time></trkpt><trkpt lat="40.6421233" lon="15.24673"><ele>191.0</ele><time>2026-05-02T11:03:16.849Z</time></trkpt><trkpt lat="40.6423567" lon="15.2467167"><ele>193.5</ele><time>2026-05-02T11:03:17.848Z</time></trkpt><trkpt lat="40.6425933" lon="15.2467083"><ele>196.0</ele><time>2026-05-02T11:03:18.848Z</time></trkpt><trkpt lat="40.642835" lon="15.2467"><ele>197.5</ele><time>2026-05-02T11:03:19.848Z</time></trkpt><trkpt lat="40.6430667" lon="15.24669"><ele>199.0</ele><time>2026-05-02T11:03:20.848Z</time></trkpt><trkpt lat="40.6432867" lon="15.24668"><ele>199.0</ele><time>2026-05-02T11:03:21.849Z</time></trkpt><trkpt lat="40.643495" lon="15.24667"><ele>199.0</ele><time>2026-05-02T11:03:22.848Z</time></trkpt><trkpt lat="40.6436967" lon="15.2466633"><ele>199.0</ele><time>2026-05-02T11:03:23.849Z</time></trkpt><trkpt lat="40.643875" lon="15.24665"><ele>201.33333333333331</ele><time>2026-05-02T11:03:24.848Z</time></trkpt><trkpt lat="40.6440383" lon="15.2466383"><ele>203.66666666666669</ele><time>2026-05-02T11:03:25.849Z</time></trkpt><trkpt lat="40.6441933" lon="15.246635"><ele>206.0</ele><time>2026-05-02T11:03:26.849Z</time></trkpt><trkpt lat="40.644335" lon="15.24663"><ele>206.00000000000003</ele><time>2026-05-02T11:03:27.849Z</time></trkpt><trkpt lat="40.6444583" lon="15.2466183"><ele>206.0</ele><time>2026-05-02T11:03:28.849Z</time></trkpt><trkpt lat="40.6445483" lon="15.2466217"><ele>206.0</ele><time>2026-05-02T11:03:29.849Z</time></trkpt><trkpt lat="40.6446233" lon="15.24664"><ele>206.0</ele><time>2026-05-02T11:03:30.848Z</time></trkpt><trkpt lat="40.6446933" lon="15.246675"><ele>206.00000000000003</ele><time>2026-05-02T11:03:31.849Z</time></trkpt><trkpt lat="40.6447617" lon="15.246725"><ele>206.0</ele><time>2026-05-02T11:03:32.849Z</time></trkpt><trkpt lat="40.644835" lon="15.2467817"><ele>207.20000000000002</ele><time>2026-05-02T11:03:33.849Z</time></trkpt><trkpt lat="40.6449133" lon="15.2468417"><ele>208.4</ele><time>2026-05-02T11:03:34.849Z</time></trkpt><trkpt lat="40.645005" lon="15.2468967"><ele>209.6</ele><time>2026-05-02T11:03:35.849Z</time></trkpt><trkpt lat="40.6450933" lon="15.24693"><ele>210.8</ele><time>2026-05-02T11:03:36.848Z</time></trkpt><trkpt lat="40.6451767" lon="15.246945"><ele>212.0</ele><time>2026-05-02T11:03:37.849Z</time></trkpt><trkpt lat="40.6452617" lon="15.2469433"><ele>213.6</ele><time>2026-05-02T11:03:38.848Z</time></trkpt><trkpt lat="40.6453517" lon="15.24692"><ele>215.2</ele><time>2026-05-02T11:03:39.849Z</time></trkpt><trkpt lat="40.6454417" lon="15.2468717"><ele>216.8</ele><time>2026-05-02T11:03:40.848Z</time></trkpt><trkpt lat="40.6455267" lon="15.2468033"><ele>218.4</ele><time>2026-05-02T11:03:41.848Z</time></trkpt><trkpt lat="40.645605" lon="15.2467383"><ele>220.0</ele><time>2026-05-02T11:03:42.849Z</time></trkpt><trkpt lat="40.6456667" lon="15.2466967"><ele>220.0</ele><time>2026-05-02T11:03:43.849Z</time></trkpt><trkpt lat="40.6457367" lon="15.2467383"><ele>220.0</ele><time>2026-05-02T11:03:45.848Z</time></trkpt><trkpt lat="40.645795" lon="15.2469"><ele>220.0</ele><time>2026-05-02T11:03:47.849Z</time></trkpt><trkpt lat="40.6458383" lon="15.2469917"><ele>220.0</ele><time>2026-05-02T11:03:48.848Z</time></trkpt><trkpt lat="40.64588" lon="15.2470883"><ele>220.0</ele><time>2026-05-02T11:03:49.848Z</time></trkpt><trkpt lat="40.6458983" lon="15.2471967"><ele>219.0</ele><time>2026-05-02T11:03:50.848Z</time></trkpt><trkpt lat="40.6458933" lon="15.24731"><ele>218.0</ele><time>2026-05-02T11:03:51.848Z</time></trkpt><trkpt lat="40.6458583" lon="15.2474417"><ele>217.0</ele><time>2026-05-02T11:03:52.848Z</time></trkpt><trkpt lat="40.645815" lon="15.2475883"><ele>216.0</ele><time>2026-05-02T11:03:53.849Z</time></trkpt><trkpt lat="40.64578" lon="15.2477517"><ele>215.0</ele><time>2026-05-02T11:03:54.848Z</time></trkpt><trkpt lat="40.6457667" lon="15.2479383"><ele>215.0</ele><time>2026-05-02T11:03:55.848Z</time></trkpt><trkpt lat="40.6457483" lon="15.248125"><ele>215.0</ele><time>2026-05-02T11:03:56.849Z</time></trkpt><trkpt lat="40.645725" lon="15.248295"><ele>215.0</ele><time>2026-05-02T11:03:57.848Z</time></trkpt><trkpt lat="40.6456967" lon="15.248445"><ele>215.0</ele><time>2026-05-02T11:03:58.848Z</time></trkpt><trkpt lat="40.645665" lon="15.2485767"><ele>214.8</ele><time>2026-05-02T11:03:59.848Z</time></trkpt><trkpt lat="40.6456417" lon="15.2486917"><ele>214.6</ele><time>2026-05-02T11:04:00.848Z</time></trkpt><trkpt lat="40.6456267" lon="15.248815"><ele>214.39999999999998</ele><time>2026-05-02T11:04:01.848Z</time></trkpt><trkpt lat="40.6456217" lon="15.2489517"><ele>214.2</ele><time>2026-05-02T11:04:02.848Z</time></trkpt><trkpt lat="40.6456233" lon="15.2490967"><ele>214.0</ele><time>2026-05-02T11:04:03.848Z</time></trkpt><trkpt lat="40.6456283" lon="15.249245"><ele>213.39999999999998</ele><time>2026-05-02T11:04:04.849Z</time></trkpt><trkpt lat="40.645625" lon="15.2493917"><ele>212.79999999999998</ele><time>2026-05-02T11:04:05.849Z</time></trkpt><trkpt lat="40.6456133" lon="15.249535"><ele>212.2</ele><time>2026-05-02T11:04:06.848Z</time></trkpt><trkpt lat="40.6455733" lon="15.2496467"><ele>211.60000000000002</ele><time>2026-05-02T11:04:07.848Z</time></trkpt><trkpt lat="40.6455183" lon="15.2497333"><ele>211.0</ele><time>2026-05-02T11:04:08.848Z</time></trkpt><trkpt lat="40.6454583" lon="15.249805"><ele>210.33333333333331</ele><time>2026-05-02T11:04:09.848Z</time></trkpt><trkpt lat="40.6454017" lon="15.2498633"><ele>209.66666666666666</ele><time>2026-05-02T11:04:10.849Z</time></trkpt><trkpt lat="40.6453433" lon="15.24991"><ele>209.0</ele><time>2026-05-02T11:04:11.848Z</time></trkpt><trkpt lat="40.645225" lon="15.24992"><ele>208.33333333333331</ele><time>2026-05-02T11:04:13.848Z</time></trkpt><trkpt lat="40.6451483" lon="15.2498967"><ele>207.66666666666666</ele><time>2026-05-02T11:04:14.848Z</time></trkpt><trkpt lat="40.645065" lon="15.2498633"><ele>207.0</ele><time>2026-05-02T11:04:15.849Z</time></trkpt><trkpt lat="40.6449767" lon="15.24983"><ele>205.8</ele><time>2026-05-02T11:04:16.849Z</time></trkpt><trkpt lat="40.6448783" lon="15.2497883"><ele>204.6</ele><time>2026-05-02T11:04:17.849Z</time></trkpt><trkpt lat="40.64478" lon="15.2497333"><ele>203.4</ele><time>2026-05-02T11:04:18.849Z</time></trkpt><trkpt lat="40.644685" lon="15.249665"><ele>202.20000000000002</ele><time>2026-05-02T11:04:19.849Z</time></trkpt><trkpt lat="40.6446033" lon="15.2495883"><ele>201.0</ele><time>2026-05-02T11:04:20.848Z</time></trkpt><trkpt lat="40.64454" lon="15.2495183"><ele>201.0</ele><time>2026-05-02T11:04:21.848Z</time></trkpt><trkpt lat="40.64447" lon="15.2494633"><ele>201.0</ele><time>2026-05-02T11:04:22.848Z</time></trkpt><trkpt lat="40.6443817" lon="15.2494267"><ele>201.0</ele><time>2026-05-02T11:04:23.848Z</time></trkpt><trkpt lat="40.6442867" lon="15.2494067"><ele>201.0</ele><time>2026-05-02T11:04:24.849Z</time></trkpt><trkpt lat="40.644185" lon="15.2494033"><ele>201.0</ele><time>2026-05-02T11:04:25.849Z</time></trkpt><trkpt lat="40.6440767" lon="15.249415"><ele>200.25</ele><time>2026-05-02T11:04:26.848Z</time></trkpt><trkpt lat="40.64396" lon="15.2494233"><ele>199.5</ele><time>2026-05-02T11:04:27.848Z</time></trkpt><trkpt lat="40.6438383" lon="15.2494367"><ele>198.75</ele><time>2026-05-02T11:04:28.848Z</time></trkpt><trkpt lat="40.6437217" lon="15.2494433"><ele>198.0</ele><time>2026-05-02T11:04:29.849Z</time></trkpt><trkpt lat="40.643605" lon="15.24946"><ele>196.5</ele><time>2026-05-02T11:04:30.848Z</time></trkpt><trkpt lat="40.6434867" lon="15.24948"><ele>195.0</ele><time>2026-05-02T11:04:31.848Z</time></trkpt><trkpt lat="40.6433733" lon="15.2494933"><ele>193.5</ele><time>2026-05-02T11:04:32.848Z</time></trkpt><trkpt lat="40.6432583" lon="15.2495067"><ele>192.0</ele><time>2026-05-02T11:04:33.848Z</time></trkpt><trkpt lat="40.6431433" lon="15.24951"><ele>192.0</ele><time>2026-05-02T11:04:34.848Z</time></trkpt><trkpt lat="40.6430283" lon="15.2495033"><ele>192.0</ele><time>2026-05-02T11:04:35.849Z</time></trkpt><trkpt lat="40.6429183" lon="15.2494867"><ele>192.0</ele><time>2026-05-02T11:04:36.848Z</time></trkpt><trkpt lat="40.6428067" lon="15.2494817"><ele>192.0</ele><time>2026-05-02T11:04:37.849Z</time></trkpt><trkpt lat="40.6426917" lon="15.2494733"><ele>190.75</ele><time>2026-05-02T11:04:38.848Z</time></trkpt><trkpt lat="40.6425683" lon="15.24947"><ele>189.5</ele><time>2026-05-02T11:04:39.848Z</time></trkpt><trkpt lat="40.6424417" lon="15.2494617"><ele>188.25</ele><time>2026-05-02T11:04:40.848Z</time></trkpt><trkpt lat="40.64231" lon="15.2494517"><ele>187.0</ele><time>2026-05-02T11:04:41.849Z</time></trkpt><trkpt lat="40.642185" lon="15.24944"><ele>187.0</ele><time>2026-05-02T11:04:42.849Z</time></trkpt><trkpt lat="40.64206" lon="15.2494133"><ele>187.0</ele><time>2026-05-02T11:04:43.848Z</time></trkpt><trkpt lat="40.6419517" lon="15.2493633"><ele>187.0</ele><time>2026-05-02T11:04:44.849Z</time></trkpt><trkpt lat="40.641855" lon="15.2492967"><ele>187.0</ele><time>2026-05-02T11:04:45.848Z</time></trkpt><trkpt lat="40.6417583" lon="15.2492267"><ele>186.39999999999998</ele><time>2026-05-02T11:04:46.848Z</time></trkpt><trkpt lat="40.64166" lon="15.24917"><ele>185.79999999999998</ele><time>2026-05-02T11:04:47.849Z</time></trkpt><trkpt lat="40.6415667" lon="15.2491517"><ele>185.2</ele><time>2026-05-02T11:04:48.848Z</time></trkpt><trkpt lat="40.64147" lon="15.2491583"><ele>184.6</ele><time>2026-05-02T11:04:49.849Z</time></trkpt><trkpt lat="40.6413817" lon="15.2491833"><ele>184.0</ele><time>2026-05-02T11:04:50.848Z</time></trkpt><trkpt lat="40.6412917" lon="15.2492317"><ele>184.0</ele><time>2026-05-02T11:04:51.848Z</time></trkpt><trkpt lat="40.6411967" lon="15.2493"><ele>184.0</ele><time>2026-05-02T11:04:52.849Z</time></trkpt><trkpt lat="40.6411033" lon="15.2493667"><ele>184.0</ele><time>2026-05-02T11:04:53.848Z</time></trkpt><trkpt lat="40.6410083" lon="15.2494217"><ele>184.0</ele><time>2026-05-02T11:04:54.848Z</time></trkpt><trkpt lat="40.6409067" lon="15.2494583"><ele>184.0</ele><time>2026-05-02T11:04:55.849Z</time></trkpt><trkpt lat="40.6408" lon="15.2494783"><ele>183.2</ele><time>2026-05-02T11:04:56.849Z</time></trkpt><trkpt lat="40.6407" lon="15.2494833"><ele>182.39999999999998</ele><time>2026-05-02T11:04:57.849Z</time></trkpt><trkpt lat="40.6405967" lon="15.2495033"><ele>181.6</ele><time>2026-05-02T11:04:58.848Z</time></trkpt><trkpt lat="40.6405017" lon="15.2495367"><ele>180.8</ele><time>2026-05-02T11:04:59.848Z</time></trkpt><trkpt lat="40.640425" lon="15.2495817"><ele>180.0</ele><time>2026-05-02T11:05:00.848Z</time></trkpt><trkpt lat="40.6403517" lon="15.2496217"><ele>179.66666666666666</ele><time>2026-05-02T11:05:01.848Z</time></trkpt><trkpt lat="40.640295" lon="15.2496633"><ele>179.33333333333334</ele><time>2026-05-02T11:05:02.848Z</time></trkpt><trkpt lat="40.6402417" lon="15.2497217"><ele>179.0</ele><time>2026-05-02T11:05:03.849Z</time></trkpt><trkpt lat="40.6402083" lon="15.2498117"><ele>178.66666666666669</ele><time>2026-05-02T11:05:04.849Z</time></trkpt><trkpt lat="40.6401867" lon="15.2499267"><ele>178.33333333333334</ele><time>2026-05-02T11:05:05.848Z</time></trkpt><trkpt lat="40.640175" lon="15.2500583"><ele>178.0</ele><time>2026-05-02T11:05:06.848Z</time></trkpt><trkpt lat="40.6401683" lon="15.250195"><ele>177.4</ele><time>2026-05-02T11:05:07.848Z</time></trkpt><trkpt lat="40.6401733" lon="15.25034"><ele>176.8</ele><time>2026-05-02T11:05:08.848Z</time></trkpt><trkpt lat="40.6402" lon="15.2504717"><ele>176.2</ele><time>2026-05-02T11:05:09.848Z</time></trkpt><trkpt lat="40.64023" lon="15.2505983"><ele>175.6</ele><time>2026-05-02T11:05:10.847Z</time></trkpt><trkpt lat="40.6402433" lon="15.2507233"><ele>175.0</ele><time>2026-05-02T11:05:11.847Z</time></trkpt><trkpt lat="40.6402267" lon="15.2508467"><ele>172.6</ele><time>2026-05-02T11:05:12.847Z</time></trkpt><trkpt lat="40.6401867" lon="15.250965"><ele>170.2</ele><time>2026-05-02T11:05:13.847Z</time></trkpt><trkpt lat="40.6401267" lon="15.2510733"><ele>167.8</ele><time>2026-05-02T11:05:14.848Z</time></trkpt><trkpt lat="40.6400467" lon="15.25117"><ele>165.4</ele><time>2026-05-02T11:05:15.847Z</time></trkpt><trkpt lat="40.6399533" lon="15.2512467"><ele>163.0</ele><time>2026-05-02T11:05:16.848Z</time></trkpt><trkpt lat="40.6398667" lon="15.2513133"><ele>163.0</ele><time>2026-05-02T11:05:17.848Z</time></trkpt><trkpt lat="40.6397867" lon="15.2513833"><ele>163.0</ele><time>2026-05-02T11:05:18.848Z</time></trkpt><trkpt lat="40.6397067" lon="15.2514567"><ele>163.0</ele><time>2026-05-02T11:05:19.848Z</time></trkpt><trkpt lat="40.639635" lon="15.2515467"><ele>163.0</ele><time>2026-05-02T11:05:20.847Z</time></trkpt><trkpt lat="40.63956" lon="15.2516617"><ele>163.0</ele><time>2026-05-02T11:05:21.848Z</time></trkpt><trkpt lat="40.6394917" lon="15.2517967"><ele>161.0</ele><time>2026-05-02T11:05:22.847Z</time></trkpt><trkpt lat="40.6394267" lon="15.2519333"><ele>159.0</ele><time>2026-05-02T11:05:23.848Z</time></trkpt><trkpt lat="40.6393467" lon="15.2520667"><ele>157.0</ele><time>2026-05-02T11:05:24.848Z</time></trkpt><trkpt lat="40.6392717" lon="15.25221"><ele>155.0</ele><time>2026-05-02T11:05:25.848Z</time></trkpt><trkpt lat="40.6391917" lon="15.2523567"><ele>150.5</ele><time>2026-05-02T11:05:26.848Z</time></trkpt><trkpt lat="40.6391067" lon="15.2525117"><ele>146.0</ele><time>2026-05-02T11:05:27.848Z</time></trkpt><trkpt lat="40.6390267" lon="15.2526583"><ele>141.5</ele><time>2026-05-02T11:05:28.848Z</time></trkpt><trkpt lat="40.6389383" lon="15.252805"><ele>137.0</ele><time>2026-05-02T11:05:29.847Z</time></trkpt><trkpt lat="40.6388533" lon="15.252935"><ele>137.0</ele><time>2026-05-02T11:05:30.848Z</time></trkpt><trkpt lat="40.638765" lon="15.2530583"><ele>137.0</ele><time>2026-05-02T11:05:31.848Z</time></trkpt><trkpt lat="40.63867" lon="15.253155"><ele>137.0</ele><time>2026-05-02T11:05:32.847Z</time></trkpt><trkpt lat="40.6385633" lon="15.253225"><ele>137.0</ele><time>2026-05-02T11:05:33.847Z</time></trkpt><trkpt lat="40.6384483" lon="15.2532583"><ele>135.0</ele><time>2026-05-02T11:05:34.848Z</time></trkpt><trkpt lat="40.6383367" lon="15.2532783"><ele>133.0</ele><time>2026-05-02T11:05:35.847Z</time></trkpt><trkpt lat="40.6382233" lon="15.2532883"><ele>131.0</ele><time>2026-05-02T11:05:36.848Z</time></trkpt><trkpt lat="40.638115" lon="15.2533067"><ele>129.0</ele><time>2026-05-02T11:05:37.847Z</time></trkpt><trkpt lat="40.6380067" lon="15.2533367"><ele>127.0</ele><time>2026-05-02T11:05:38.848Z</time></trkpt><trkpt lat="40.6378967" lon="15.253385"><ele>125.5</ele><time>2026-05-02T11:05:39.848Z</time></trkpt><trkpt lat="40.6377883" lon="15.253445"><ele>124.0</ele><time>2026-05-02T11:05:40.848Z</time></trkpt><trkpt lat="40.63768" lon="15.253495"><ele>122.5</ele><time>2026-05-02T11:05:41.847Z</time></trkpt><trkpt lat="40.6375683" lon="15.2535217"><ele>121.0</ele><time>2026-05-02T11:05:42.848Z</time></trkpt><trkpt lat="40.6374467" lon="15.25352"><ele>121.0</ele><time>2026-05-02T11:05:43.848Z</time></trkpt><trkpt lat="40.6373233" lon="15.25351"><ele>121.0</ele><time>2026-05-02T11:05:44.847Z</time></trkpt><trkpt lat="40.6371967" lon="15.253495"><ele>121.0</ele><time>2026-05-02T11:05:45.847Z</time></trkpt><trkpt lat="40.6370783" lon="15.253485"><ele>121.0</ele><time>2026-05-02T11:05:46.847Z</time></trkpt><trkpt lat="40.636975" lon="15.2534783"><ele>119.85714285714285</ele><time>2026-05-02T11:05:47.847Z</time></trkpt><trkpt lat="40.636885" lon="15.2534783"><ele>118.7142857142857</ele><time>2026-05-02T11:05:48.848Z</time></trkpt><trkpt lat="40.63681" lon="15.2534883"><ele>117.57142857142857</ele><time>2026-05-02T11:05:49.848Z</time></trkpt><trkpt lat="40.6367433" lon="15.2535217"><ele>116.42857142857142</ele><time>2026-05-02T11:05:50.847Z</time></trkpt><trkpt lat="40.6366817" lon="15.2535717"><ele>115.28571428571428</ele><time>2026-05-02T11:05:51.848Z</time></trkpt><trkpt lat="40.63663" lon="15.253635"><ele>114.14285714285714</ele><time>2026-05-02T11:05:52.847Z</time></trkpt><trkpt lat="40.6365817" lon="15.2537"><ele>113.0</ele><time>2026-05-02T11:05:53.847Z</time></trkpt><trkpt lat="40.63654" lon="15.253765"><ele>112.99999999999999</ele><time>2026-05-02T11:05:54.847Z</time></trkpt><trkpt lat="40.6364833" lon="15.2539"><ele>113.0</ele><time>2026-05-02T11:05:56.847Z</time></trkpt><trkpt lat="40.636465" lon="15.2539817"><ele>113.0</ele><time>2026-05-02T11:05:57.847Z</time></trkpt><trkpt lat="40.63644" lon="15.2540717"><ele>113.0</ele><time>2026-05-02T11:05:58.848Z</time></trkpt><trkpt lat="40.636415" lon="15.254165"><ele>112.99999999999999</ele><time>2026-05-02T11:05:59.848Z</time></trkpt><trkpt lat="40.6363883" lon="15.2542583"><ele>113.0</ele><time>2026-05-02T11:06:00.847Z</time></trkpt><trkpt lat="40.6363583" lon="15.25436"><ele>112.99999999999999</ele><time>2026-05-02T11:06:01.848Z</time></trkpt><trkpt lat="40.63633" lon="15.2544617"><ele>113.0</ele><time>2026-05-02T11:06:02.848Z</time></trkpt><trkpt lat="40.6362983" lon="15.2545533"><ele>113.0</ele><time>2026-05-02T11:06:03.847Z</time></trkpt><trkpt lat="40.636255" lon="15.2546417"><ele>113.0</ele><time>2026-05-02T11:06:04.847Z</time></trkpt><trkpt lat="40.636205" lon="15.2547133"><ele>112.99999999999999</ele><time>2026-05-02T11:06:05.847Z</time></trkpt><trkpt lat="40.6361517" lon="15.2547833"><ele>113.0</ele><time>2026-05-02T11:06:06.848Z</time></trkpt><trkpt lat="40.6361" lon="15.2548533"><ele>112.42857142857143</ele><time>2026-05-02T11:06:07.847Z</time></trkpt><trkpt lat="40.63605" lon="15.25492"><ele>111.85714285714285</ele><time>2026-05-02T11:06:08.848Z</time></trkpt><trkpt lat="40.636" lon="15.2549833"><ele>111.28571428571428</ele><time>2026-05-02T11:06:09.848Z</time></trkpt><trkpt lat="40.6359517" lon="15.2550417"><ele>110.71428571428572</ele><time>2026-05-02T11:06:10.848Z</time></trkpt><trkpt lat="40.635905" lon="15.255105"><ele>110.14285714285714</ele><time>2026-05-02T11:06:11.847Z</time></trkpt><trkpt lat="40.6358483" lon="15.2551667"><ele>109.57142857142857</ele><time>2026-05-02T11:06:12.847Z</time></trkpt><trkpt lat="40.6357883" lon="15.2552417"><ele>109.0</ele><time>2026-05-02T11:06:13.848Z</time></trkpt><trkpt lat="40.63573" lon="15.2553233"><ele>109.00000000000001</ele><time>2026-05-02T11:06:14.848Z</time></trkpt><trkpt lat="40.6356783" lon="15.25541"><ele>109.0</ele><time>2026-05-02T11:06:15.848Z</time></trkpt><trkpt lat="40.63563" lon="15.2555133"><ele>109.0</ele><time>2026-05-02T11:06:16.847Z</time></trkpt><trkpt lat="40.6355883" lon="15.2556167"><ele>109.0</ele><time>2026-05-02T11:06:17.847Z</time></trkpt><trkpt lat="40.6355533" lon="15.25572"><ele>109.00000000000001</ele><time>2026-05-02T11:06:18.847Z</time></trkpt><trkpt lat="40.6355167" lon="15.2558117"><ele>109.0</ele><time>2026-05-02T11:06:19.848Z</time></trkpt><trkpt lat="40.63547" lon="15.255885"><ele>110.16666666666667</ele><time>2026-05-02T11:06:20.847Z</time></trkpt><trkpt lat="40.6354067" lon="15.2559483"><ele>111.33333333333334</ele><time>2026-05-02T11:06:21.848Z</time></trkpt><trkpt lat="40.6353383" lon="15.2560033"><ele>112.5</ele><time>2026-05-02T11:06:22.847Z</time></trkpt><trkpt lat="40.635265" lon="15.256045"><ele>113.66666666666666</ele><time>2026-05-02T11:06:23.847Z</time></trkpt><trkpt lat="40.6351883" lon="15.2560867"><ele>114.83333333333333</ele><time>2026-05-02T11:06:24.848Z</time></trkpt><trkpt lat="40.63511" lon="15.2561317"><ele>116.0</ele><time>2026-05-02T11:06:25.847Z</time></trkpt><trkpt lat="40.63503" lon="15.25618"><ele>118.83333333333333</ele><time>2026-05-02T11:06:26.847Z</time></trkpt><trkpt lat="40.63495" lon="15.2562217"><ele>121.66666666666666</ele><time>2026-05-02T11:06:27.848Z</time></trkpt><trkpt lat="40.6348683" lon="15.256245"><ele>124.5</ele><time>2026-05-02T11:06:28.847Z</time></trkpt><trkpt lat="40.634785" lon="15.2562433"><ele>127.33333333333334</ele><time>2026-05-02T11:06:29.847Z</time></trkpt><trkpt lat="40.634705" lon="15.2562217"><ele>130.16666666666669</ele><time>2026-05-02T11:06:30.848Z</time></trkpt><trkpt lat="40.6346333" lon="15.2561833"><ele>133.0</ele><time>2026-05-02T11:06:31.847Z</time></trkpt><trkpt lat="40.6345683" lon="15.2561333"><ele>133.0</ele><time>2026-05-02T11:06:32.847Z</time></trkpt><trkpt lat="40.6345067" lon="15.2560683"><ele>133.0</ele><time>2026-05-02T11:06:33.847Z</time></trkpt><trkpt lat="40.6344483" lon="15.255995"><ele>133.0</ele><time>2026-05-02T11:06:34.848Z</time></trkpt><trkpt lat="40.6343983" lon="15.255915"><ele>133.0</ele><time>2026-05-02T11:06:35.847Z</time></trkpt><trkpt lat="40.6343567" lon="15.2558267"><ele>133.0</ele><time>2026-05-02T11:06:36.848Z</time></trkpt><trkpt lat="40.6343233" lon="15.2557467"><ele>133.0</ele><time>2026-05-02T11:06:37.847Z</time></trkpt><trkpt lat="40.634285" lon="15.25568"><ele>135.0</ele><time>2026-05-02T11:06:38.848Z</time></trkpt><trkpt lat="40.6341883" lon="15.2556"><ele>137.0</ele><time>2026-05-02T11:06:40.847Z</time></trkpt><trkpt lat="40.6340883" lon="15.2556617"><ele>139.0</ele><time>2026-05-02T11:06:42.847Z</time></trkpt><trkpt lat="40.6340267" lon="15.2558083"><ele>141.0</ele><time>2026-05-02T11:06:44.847Z</time></trkpt><trkpt lat="40.6340133" lon="15.2559083"><ele>143.0</ele><time>2026-05-02T11:06:45.848Z</time></trkpt><trkpt lat="40.6339983" lon="15.25601"><ele>146.16666666666666</ele><time>2026-05-02T11:06:46.847Z</time></trkpt><trkpt lat="40.6339817" lon="15.2561033"><ele>149.33333333333331</ele><time>2026-05-02T11:06:47.848Z</time></trkpt><trkpt lat="40.6339383" lon="15.256165"><ele>152.5</ele><time>2026-05-02T11:06:48.847Z</time></trkpt><trkpt lat="40.6338383" lon="15.2561967"><ele>155.66666666666666</ele><time>2026-05-02T11:06:50.847Z</time></trkpt><trkpt lat="40.6337617" lon="15.256165"><ele>158.83333333333334</ele><time>2026-05-02T11:06:51.848Z</time></trkpt><trkpt lat="40.6336717" lon="15.2561167"><ele>162.0</ele><time>2026-05-02T11:06:52.848Z</time></trkpt><trkpt lat="40.6335567" lon="15.2560783"><ele>166.0</ele><time>2026-05-02T11:06:53.847Z</time></trkpt><trkpt lat="40.6334483" lon="15.25606"><ele>170.0</ele><time>2026-05-02T11:06:54.848Z</time></trkpt><trkpt lat="40.633325" lon="15.2560583"><ele>174.0</ele><time>2026-05-02T11:06:55.847Z</time></trkpt><trkpt lat="40.633215" lon="15.25606"><ele>178.0</ele><time>2026-05-02T11:06:56.848Z</time></trkpt><trkpt lat="40.6331033" lon="15.2560567"><ele>178.0</ele><time>2026-05-02T11:06:57.848Z</time></trkpt><trkpt lat="40.6329833" lon="15.25606"><ele>178.0</ele><time>2026-05-02T11:06:58.847Z</time></trkpt><trkpt lat="40.6328683" lon="15.2560917"><ele>178.0</ele><time>2026-05-02T11:06:59.848Z</time></trkpt><trkpt lat="40.6327767" lon="15.25616"><ele>178.0</ele><time>2026-05-02T11:07:00.847Z</time></trkpt><trkpt lat="40.6327017" lon="15.256235"><ele>178.0</ele><time>2026-05-02T11:07:01.848Z</time></trkpt><trkpt lat="40.6326217" lon="15.2563117"><ele>179.2</ele><time>2026-05-02T11:07:02.848Z</time></trkpt><trkpt lat="40.63256" lon="15.2563967"><ele>180.4</ele><time>2026-05-02T11:07:03.847Z</time></trkpt><trkpt lat="40.6324967" lon="15.2564717"><ele>181.6</ele><time>2026-05-02T11:07:04.848Z</time></trkpt><trkpt lat="40.63243" lon="15.2565533"><ele>182.79999999999998</ele><time>2026-05-02T11:07:05.848Z</time></trkpt><trkpt lat="40.6323617" lon="15.2566333"><ele>184.0</ele><time>2026-05-02T11:07:06.847Z</time></trkpt><trkpt lat="40.63229" lon="15.2567167"><ele>183.79999999999998</ele><time>2026-05-02T11:07:07.847Z</time></trkpt><trkpt lat="40.632215" lon="15.256795"><ele>183.6</ele><time>2026-05-02T11:07:08.848Z</time></trkpt><trkpt lat="40.6321417" lon="15.256875"><ele>183.4</ele><time>2026-05-02T11:07:09.848Z</time></trkpt><trkpt lat="40.6320667" lon="15.256955"><ele>183.2</ele><time>2026-05-02T11:07:10.847Z</time></trkpt><trkpt lat="40.6319833" lon="15.2570283"><ele>183.0</ele><time>2026-05-02T11:07:11.847Z</time></trkpt><trkpt lat="40.631895" lon="15.2571033"><ele>183.0</ele><time>2026-05-02T11:07:12.848Z</time></trkpt><trkpt lat="40.6317967" lon="15.25718"><ele>183.0</ele><time>2026-05-02T11:07:13.848Z</time></trkpt><trkpt lat="40.6317067" lon="15.2572583"><ele>183.0</ele><time>2026-05-02T11:07:14.847Z</time></trkpt><trkpt lat="40.6316133" lon="15.2573317"><ele>183.0</ele><time>2026-05-02T11:07:15.848Z</time></trkpt><trkpt lat="40.6315217" lon="15.2574033"><ele>183.0</ele><time>2026-05-02T11:07:16.847Z</time></trkpt><trkpt lat="40.6314333" lon="15.2574817"><ele>182.2</ele><time>2026-05-02T11:07:17.847Z</time></trkpt><trkpt lat="40.6313383" lon="15.2575617"><ele>181.4</ele><time>2026-05-02T11:07:18.848Z</time></trkpt><trkpt lat="40.6312517" lon="15.257645"><ele>180.6</ele><time>2026-05-02T11:07:19.847Z</time></trkpt><trkpt lat="40.6311683" lon="15.2577267"><ele>179.79999999999998</ele><time>2026-05-02T11:07:20.848Z</time></trkpt><trkpt lat="40.6310733" lon="15.257815"><ele>179.0</ele><time>2026-05-02T11:07:21.847Z</time></trkpt><trkpt lat="40.6309867" lon="15.2579"><ele>178.39999999999998</ele><time>2026-05-02T11:07:22.847Z</time></trkpt><trkpt lat="40.630905" lon="15.2579783"><ele>177.8</ele><time>2026-05-02T11:07:23.847Z</time></trkpt><trkpt lat="40.630825" lon="15.2580533"><ele>177.2</ele><time>2026-05-02T11:07:24.848Z</time></trkpt><trkpt lat="40.6307533" lon="15.2581317"><ele>176.60000000000002</ele><time>2026-05-02T11:07:25.847Z</time></trkpt><trkpt lat="40.630685" lon="15.258215"><ele>176.0</ele><time>2026-05-02T11:07:26.848Z</time></trkpt><trkpt lat="40.6306217" lon="15.25831"><ele>176.0</ele><time>2026-05-02T11:07:27.848Z</time></trkpt><trkpt lat="40.630565" lon="15.2584217"><ele>176.0</ele><time>2026-05-02T11:07:28.847Z</time></trkpt><trkpt lat="40.630515" lon="15.2585433"><ele>176.0</ele><time>2026-05-02T11:07:29.848Z</time></trkpt><trkpt lat="40.6304767" lon="15.2586583"><ele>176.0</ele><time>2026-05-02T11:07:30.848Z</time></trkpt><trkpt lat="40.630445" lon="15.2587617"><ele>176.0</ele><time>2026-05-02T11:07:31.848Z</time></trkpt><trkpt lat="40.6304133" lon="15.258845"><ele>176.0</ele><time>2026-05-02T11:07:32.848Z</time></trkpt><trkpt lat="40.6303717" lon="15.25891"><ele>176.0</ele><time>2026-05-02T11:07:33.848Z</time></trkpt><trkpt lat="40.630255" lon="15.25895"><ele>176.0</ele><time>2026-05-02T11:07:35.848Z</time></trkpt><trkpt lat="40.6301833" lon="15.2589217"><ele>176.0</ele><time>2026-05-02T11:07:36.848Z</time></trkpt><trkpt lat="40.63011" lon="15.25887"><ele>176.0</ele><time>2026-05-02T11:07:37.847Z</time></trkpt><trkpt lat="40.6300367" lon="15.2588233"><ele>176.0</ele><time>2026-05-02T11:07:38.847Z</time></trkpt><trkpt lat="40.629945" lon="15.2587783"><ele>176.4</ele><time>2026-05-02T11:07:39.847Z</time></trkpt><trkpt lat="40.6298467" lon="15.258745"><ele>176.8</ele><time>2026-05-02T11:07:40.847Z</time></trkpt><trkpt lat="40.62975" lon="15.258715"><ele>177.20000000000002</ele><time>2026-05-02T11:07:41.847Z</time></trkpt><trkpt lat="40.6296583" lon="15.2586917"><ele>177.60000000000002</ele><time>2026-05-02T11:07:42.848Z</time></trkpt><trkpt lat="40.6295617" lon="15.25867"><ele>178.0</ele><time>2026-05-02T11:07:43.848Z</time></trkpt><trkpt lat="40.6294633" lon="15.2586483"><ele>178.0</ele><time>2026-05-02T11:07:44.847Z</time></trkpt><trkpt lat="40.6293683" lon="15.2586267"><ele>178.0</ele><time>2026-05-02T11:07:45.848Z</time></trkpt><trkpt lat="40.6292817" lon="15.2586067"><ele>178.0</ele><time>2026-05-02T11:07:46.848Z</time></trkpt><trkpt lat="40.6291983" lon="15.25859"><ele>178.0</ele><time>2026-05-02T11:07:47.848Z</time></trkpt><trkpt lat="40.6291167" lon="15.25858"><ele>178.0</ele><time>2026-05-02T11:07:48.847Z</time></trkpt><trkpt lat="40.6290417" lon="15.2585717"><ele>178.0</ele><time>2026-05-02T11:07:49.847Z</time></trkpt><trkpt lat="40.6289683" lon="15.2585667"><ele>177.99999999999997</ele><time>2026-05-02T11:07:50.848Z</time></trkpt><trkpt lat="40.6289" lon="15.258565"><ele>178.0</ele><time>2026-05-02T11:07:51.847Z</time></trkpt><trkpt lat="40.6288317" lon="15.2585733"><ele>178.0</ele><time>2026-05-02T11:07:52.848Z</time></trkpt><trkpt lat="40.6287617" lon="15.258595"><ele>178.0</ele><time>2026-05-02T11:07:53.848Z</time></trkpt><trkpt lat="40.6286933" lon="15.2586167"><ele>178.0</ele><time>2026-05-02T11:07:54.848Z</time></trkpt><trkpt lat="40.6286283" lon="15.25865"><ele>177.99999999999997</ele><time>2026-05-02T11:07:55.848Z</time></trkpt><trkpt lat="40.6285633" lon="15.2586883"><ele>178.0</ele><time>2026-05-02T11:07:56.847Z</time></trkpt><trkpt lat="40.6285" lon="15.2587283"><ele>177.57142857142856</ele><time>2026-05-02T11:07:57.847Z</time></trkpt><trkpt lat="40.6284367" lon="15.2587683"><ele>177.14285714285714</ele><time>2026-05-02T11:07:58.847Z</time></trkpt><trkpt lat="40.6283733" lon="15.2588017"><ele>176.71428571428572</ele><time>2026-05-02T11:07:59.848Z</time></trkpt><trkpt lat="40.6283067" lon="15.25884"><ele>176.28571428571428</ele><time>2026-05-02T11:08:00.848Z</time></trkpt><trkpt lat="40.6282367" lon="15.2588767"><ele>175.85714285714286</ele><time>2026-05-02T11:08:01.847Z</time></trkpt><trkpt lat="40.6281667" lon="15.2589133"><ele>175.42857142857142</ele><time>2026-05-02T11:08:02.848Z</time></trkpt><trkpt lat="40.6280917" lon="15.258945"><ele>175.0</ele><time>2026-05-02T11:08:03.848Z</time></trkpt><trkpt lat="40.6280183" lon="15.2589717"><ele>174.6</ele><time>2026-05-02T11:08:04.847Z</time></trkpt><trkpt lat="40.6279417" lon="15.2589917"><ele>174.2</ele><time>2026-05-02T11:08:05.847Z</time></trkpt><trkpt lat="40.6278517" lon="15.2590033"><ele>173.8</ele><time>2026-05-02T11:08:06.847Z</time></trkpt><trkpt lat="40.6277517" lon="15.2590183"><ele>173.4</ele><time>2026-05-02T11:08:07.847Z</time></trkpt><trkpt lat="40.627635" lon="15.2590333"><ele>173.0</ele><time>2026-05-02T11:08:08.848Z</time></trkpt><trkpt lat="40.6275117" lon="15.259045"><ele>171.0</ele><time>2026-05-02T11:08:09.847Z</time></trkpt><trkpt lat="40.6273933" lon="15.2590567"><ele>169.0</ele><time>2026-05-02T11:08:10.848Z</time></trkpt><trkpt lat="40.6272783" lon="15.2590683"><ele>167.0</ele><time>2026-05-02T11:08:11.847Z</time></trkpt><trkpt lat="40.6271633" lon="15.2590817"><ele>165.0</ele><time>2026-05-02T11:08:12.847Z</time></trkpt><trkpt lat="40.6270483" lon="15.2590933"><ele>164.5</ele><time>2026-05-02T11:08:13.848Z</time></trkpt><trkpt lat="40.626935" lon="15.2591133"><ele>164.0</ele><time>2026-05-02T11:08:14.848Z</time></trkpt><trkpt lat="40.6268133" lon="15.2591283"><ele>163.5</ele><time>2026-05-02T11:08:15.847Z</time></trkpt><trkpt lat="40.626695" lon="15.25914"><ele>163.0</ele><time>2026-05-02T11:08:16.848Z</time></trkpt><trkpt lat="40.6265817" lon="15.2591483"><ele>163.0</ele><time>2026-05-02T11:08:17.848Z</time></trkpt><trkpt lat="40.6264817" lon="15.25918"><ele>163.0</ele><time>2026-05-02T11:08:18.848Z</time></trkpt><trkpt lat="40.626385" lon="15.25923"><ele>163.0</ele><time>2026-05-02T11:08:19.848Z</time></trkpt><trkpt lat="40.6262867" lon="15.259295"><ele>163.0</ele><time>2026-05-02T11:08:20.847Z</time></trkpt><trkpt lat="40.6261917" lon="15.2593617"><ele>163.0</ele><time>2026-05-02T11:08:21.847Z</time></trkpt><trkpt lat="40.6260983" lon="15.2594267"><ele>163.8</ele><time>2026-05-02T11:08:22.847Z</time></trkpt><trkpt lat="40.6260083" lon="15.259495"><ele>164.60000000000002</ele><time>2026-05-02T11:08:23.848Z</time></trkpt><trkpt lat="40.6259233" lon="15.2595733"><ele>165.39999999999998</ele><time>2026-05-02T11:08:24.847Z</time></trkpt><trkpt lat="40.62584" lon="15.2596667"><ele>166.2</ele><time>2026-05-02T11:08:25.847Z</time></trkpt><trkpt lat="40.6257733" lon="15.25976"><ele>167.0</ele><time>2026-05-02T11:08:26.848Z</time></trkpt><trkpt lat="40.6257183" lon="15.259845"><ele>167.39999999999998</ele><time>2026-05-02T11:08:27.848Z</time></trkpt><trkpt lat="40.6256717" lon="15.2599183"><ele>167.79999999999998</ele><time>2026-05-02T11:08:28.848Z</time></trkpt><trkpt lat="40.6256333" lon="15.259985"><ele>168.2</ele><time>2026-05-02T11:08:29.847Z</time></trkpt><trkpt lat="40.62556" lon="15.26012"><ele>168.6</ele><time>2026-05-02T11:08:31.847Z</time></trkpt><trkpt lat="40.625495" lon="15.26026"><ele>169.0</ele><time>2026-05-02T11:08:33.847Z</time></trkpt><trkpt lat="40.6254617" lon="15.260355"><ele>169.0</ele><time>2026-05-02T11:08:34.847Z</time></trkpt><trkpt lat="40.625425" lon="15.2604667"><ele>169.0</ele><time>2026-05-02T11:08:35.848Z</time></trkpt><trkpt lat="40.6253833" lon="15.260605"><ele>169.0</ele><time>2026-05-02T11:08:36.848Z</time></trkpt><trkpt lat="40.6253417" lon="15.2607533"><ele>169.0</ele><time>2026-05-02T11:08:37.848Z</time></trkpt><trkpt lat="40.6252833" lon="15.260895"><ele>169.0</ele><time>2026-05-02T11:08:38.847Z</time></trkpt><trkpt lat="40.625225" lon="15.2610383"><ele>167.5</ele><time>2026-05-02T11:08:39.847Z</time></trkpt><trkpt lat="40.6251467" lon="15.2611733"><ele>166.0</ele><time>2026-05-02T11:08:40.847Z</time></trkpt><trkpt lat="40.62506" lon="15.261295"><ele>164.5</ele><time>2026-05-02T11:08:41.847Z</time></trkpt><trkpt lat="40.624975" lon="15.2614067"><ele>163.0</ele><time>2026-05-02T11:08:42.848Z</time></trkpt><trkpt lat="40.6248917" lon="15.2615267"><ele>163.0</ele><time>2026-05-02T11:08:43.847Z</time></trkpt><trkpt lat="40.624805" lon="15.26165"><ele>163.0</ele><time>2026-05-02T11:08:44.847Z</time></trkpt><trkpt lat="40.6247283" lon="15.2617783"><ele>163.0</ele><time>2026-05-02T11:08:45.848Z</time></trkpt><trkpt lat="40.6246433" lon="15.261905"><ele>163.0</ele><time>2026-05-02T11:08:46.847Z</time></trkpt><trkpt lat="40.6245567" lon="15.2620317"><ele>161.75</ele><time>2026-05-02T11:08:47.848Z</time></trkpt><trkpt lat="40.624465" lon="15.2621583"><ele>160.5</ele><time>2026-05-02T11:08:48.848Z</time></trkpt><trkpt lat="40.6243817" lon="15.262285"><ele>159.25</ele><time>2026-05-02T11:08:49.847Z</time></trkpt><trkpt lat="40.6243067" lon="15.2624117"><ele>158.0</ele><time>2026-05-02T11:08:50.847Z</time></trkpt><trkpt lat="40.624235" lon="15.2625333"><ele>160.0</ele><time>2026-05-02T11:08:51.847Z</time></trkpt><trkpt lat="40.6241683" lon="15.2626483"><ele>162.0</ele><time>2026-05-02T11:08:52.847Z</time></trkpt><trkpt lat="40.624105" lon="15.262765"><ele>164.0</ele><time>2026-05-02T11:08:53.847Z</time></trkpt><trkpt lat="40.624045" lon="15.262875"><ele>166.0</ele><time>2026-05-02T11:08:54.847Z</time></trkpt><trkpt lat="40.6239817" lon="15.2629833"><ele>168.0</ele><time>2026-05-02T11:08:55.848Z</time></trkpt><trkpt lat="40.6239183" lon="15.2630917"><ele>168.8</ele><time>2026-05-02T11:08:56.847Z</time></trkpt><trkpt lat="40.6238583" lon="15.26321"><ele>169.60000000000002</ele><time>2026-05-02T11:08:57.848Z</time></trkpt><trkpt lat="40.6238" lon="15.2633367"><ele>170.39999999999998</ele><time>2026-05-02T11:08:58.848Z</time></trkpt><trkpt lat="40.6237483" lon="15.263465"><ele>171.2</ele><time>2026-05-02T11:08:59.848Z</time></trkpt><trkpt lat="40.6236967" lon="15.2635917"><ele>172.0</ele><time>2026-05-02T11:09:00.848Z</time></trkpt><trkpt lat="40.623655" lon="15.2637233"><ele>171.5</ele><time>2026-05-02T11:09:01.847Z</time></trkpt><trkpt lat="40.6236217" lon="15.26386"><ele>171.0</ele><time>2026-05-02T11:09:02.847Z</time></trkpt><trkpt lat="40.6235833" lon="15.2639983"><ele>170.5</ele><time>2026-05-02T11:09:03.847Z</time></trkpt><trkpt lat="40.623545" lon="15.2641467"><ele>170.0</ele><time>2026-05-02T11:09:04.847Z</time></trkpt><trkpt lat="40.6235083" lon="15.264305"><ele>169.75</ele><time>2026-05-02T11:09:05.847Z</time></trkpt><trkpt lat="40.6234717" lon="15.26447"><ele>169.5</ele><time>2026-05-02T11:09:06.848Z</time></trkpt><trkpt lat="40.62343" lon="15.2646233"><ele>169.25</ele><time>2026-05-02T11:09:07.848Z</time></trkpt><trkpt lat="40.62337" lon="15.26475"><ele>169.0</ele><time>2026-05-02T11:09:08.848Z</time></trkpt><trkpt lat="40.6232833" lon="15.2648483"><ele>168.75</ele><time>2026-05-02T11:09:09.847Z</time></trkpt><trkpt lat="40.6231767" lon="15.2649233"><ele>168.5</ele><time>2026-05-02T11:09:10.847Z</time></trkpt><trkpt lat="40.62306" lon="15.2649833"><ele>168.25</ele><time>2026-05-02T11:09:11.847Z</time></trkpt><trkpt lat="40.6229533" lon="15.2650517"><ele>168.0</ele><time>2026-05-02T11:09:12.848Z</time></trkpt><trkpt lat="40.62286" lon="15.26514"><ele>167.0</ele><time>2026-05-02T11:09:13.848Z</time></trkpt><trkpt lat="40.62278" lon="15.26525"><ele>166.0</ele><time>2026-05-02T11:09:14.848Z</time></trkpt><trkpt lat="40.622705" lon="15.2653717"><ele>165.0</ele><time>2026-05-02T11:09:15.847Z</time></trkpt><trkpt lat="40.6226267" lon="15.2655033"><ele>164.0</ele><time>2026-05-02T11:09:16.848Z</time></trkpt><trkpt lat="40.6225383" lon="15.2656333"><ele>164.0</ele><time>2026-05-02T11:09:17.847Z</time></trkpt><trkpt lat="40.622445" lon="15.2657733"><ele>164.0</ele><time>2026-05-02T11:09:18.848Z</time></trkpt><trkpt lat="40.6223483" lon="15.26592"><ele>164.0</ele><time>2026-05-02T11:09:19.848Z</time></trkpt><trkpt lat="40.6222583" lon="15.2660633"><ele>164.0</ele><time>2026-05-02T11:09:20.847Z</time></trkpt><trkpt lat="40.6221717" lon="15.2661967"><ele>164.0</ele><time>2026-05-02T11:09:21.847Z</time></trkpt><trkpt lat="40.6220817" lon="15.266315"><ele>164.0</ele><time>2026-05-02T11:09:22.847Z</time></trkpt><trkpt lat="40.621995" lon="15.26642"><ele>164.0</ele><time>2026-05-02T11:09:23.848Z</time></trkpt><trkpt lat="40.6219117" lon="15.2665183"><ele>164.0</ele><time>2026-05-02T11:09:24.848Z</time></trkpt><trkpt lat="40.6218217" lon="15.266615"><ele>164.75</ele><time>2026-05-02T11:09:25.848Z</time></trkpt><trkpt lat="40.62173" lon="15.2667067"><ele>165.5</ele><time>2026-05-02T11:09:26.848Z</time></trkpt><trkpt lat="40.62164" lon="15.2668083"><ele>166.25</ele><time>2026-05-02T11:09:27.847Z</time></trkpt><trkpt lat="40.621545" lon="15.26691"><ele>167.0</ele><time>2026-05-02T11:09:28.848Z</time></trkpt><trkpt lat="40.6214433" lon="15.2669983"><ele>167.0</ele><time>2026-05-02T11:09:29.848Z</time></trkpt><trkpt lat="40.6213417" lon="15.2670783"><ele>167.0</ele><time>2026-05-02T11:09:30.848Z</time></trkpt><trkpt lat="40.6212417" lon="15.2671633"><ele>167.0</ele><time>2026-05-02T11:09:31.848Z</time></trkpt><trkpt lat="40.6211533" lon="15.2672617"><ele>167.0</ele><time>2026-05-02T11:09:32.847Z</time></trkpt><trkpt lat="40.62108" lon="15.26738"><ele>166.5</ele><time>2026-05-02T11:09:33.847Z</time></trkpt><trkpt lat="40.6210117" lon="15.2675083"><ele>166.0</ele><time>2026-05-02T11:09:34.847Z</time></trkpt><trkpt lat="40.6209483" lon="15.2676467"><ele>165.5</ele><time>2026-05-02T11:09:35.848Z</time></trkpt><trkpt lat="40.6208867" lon="15.2677917"><ele>165.0</ele><time>2026-05-02T11:09:36.847Z</time></trkpt><trkpt lat="40.620835" lon="15.2679433"><ele>165.0</ele><time>2026-05-02T11:09:37.847Z</time></trkpt><trkpt lat="40.6207933" lon="15.2681067"><ele>165.0</ele><time>2026-05-02T11:09:38.847Z</time></trkpt><trkpt lat="40.620765" lon="15.2682733"><ele>165.0</ele><time>2026-05-02T11:09:39.847Z</time></trkpt><trkpt lat="40.6207383" lon="15.268435"><ele>165.0</ele><time>2026-05-02T11:09:40.848Z</time></trkpt><trkpt lat="40.6206933" lon="15.2685767"><ele>165.2</ele><time>2026-05-02T11:09:41.847Z</time></trkpt><trkpt lat="40.62063" lon="15.2686883"><ele>165.4</ele><time>2026-05-02T11:09:42.847Z</time></trkpt><trkpt lat="40.6205467" lon="15.26877"><ele>165.60000000000002</ele><time>2026-05-02T11:09:43.847Z</time></trkpt><trkpt lat="40.6204533" lon="15.2688317"><ele>165.8</ele><time>2026-05-02T11:09:44.847Z</time></trkpt><trkpt lat="40.6203433" lon="15.2688717"><ele>166.0</ele><time>2026-05-02T11:09:45.848Z</time></trkpt><trkpt lat="40.6202267" lon="15.2688917"><ele>167.25</ele><time>2026-05-02T11:09:46.847Z</time></trkpt><trkpt lat="40.6201067" lon="15.2689"><ele>168.5</ele><time>2026-05-02T11:09:47.847Z</time></trkpt><trkpt lat="40.6199867" lon="15.2689083"><ele>169.75</ele><time>2026-05-02T11:09:48.847Z</time></trkpt><trkpt lat="40.619875" lon="15.26892"><ele>171.0</ele><time>2026-05-02T11:09:49.847Z</time></trkpt><trkpt lat="40.6197733" lon="15.2689267"><ele>171.0</ele><time>2026-05-02T11:09:50.848Z</time></trkpt><trkpt lat="40.619695" lon="15.268935"><ele>171.0</ele><time>2026-05-02T11:09:51.848Z</time></trkpt><trkpt lat="40.61962" lon="15.26895"><ele>171.0</ele><time>2026-05-02T11:09:52.847Z</time></trkpt><trkpt lat="40.6195367" lon="15.26897"><ele>171.0</ele><time>2026-05-02T11:09:53.847Z</time></trkpt><trkpt lat="40.6194533" lon="15.2689967"><ele>171.0</ele><time>2026-05-02T11:09:54.847Z</time></trkpt><trkpt lat="40.6193733" lon="15.26903"><ele>171.0</ele><time>2026-05-02T11:09:55.847Z</time></trkpt><trkpt lat="40.61929" lon="15.2690617"><ele>172.0</ele><time>2026-05-02T11:09:56.847Z</time></trkpt><trkpt lat="40.6192133" lon="15.2690983"><ele>173.0</ele><time>2026-05-02T11:09:57.847Z</time></trkpt><trkpt lat="40.6191317" lon="15.2691433"><ele>174.0</ele><time>2026-05-02T11:09:58.848Z</time></trkpt><trkpt lat="40.619045" lon="15.2691833"><ele>175.0</ele><time>2026-05-02T11:09:59.848Z</time></trkpt><trkpt lat="40.61896" lon="15.269225"><ele>176.0</ele><time>2026-05-02T11:10:00.847Z</time></trkpt><trkpt lat="40.6188733" lon="15.2692633"><ele>177.0</ele><time>2026-05-02T11:10:01.848Z</time></trkpt><trkpt lat="40.61879" lon="15.2693067"><ele>177.0</ele><time>2026-05-02T11:10:02.848Z</time></trkpt><trkpt lat="40.6187" lon="15.26936"><ele>177.0</ele><time>2026-05-02T11:10:03.848Z</time></trkpt><trkpt lat="40.6186117" lon="15.2694183"><ele>177.0</ele><time>2026-05-02T11:10:04.848Z</time></trkpt><trkpt lat="40.6185233" lon="15.269475"><ele>177.0</ele><time>2026-05-02T11:10:05.847Z</time></trkpt><trkpt lat="40.61843" lon="15.2695067"><ele>177.0</ele><time>2026-05-02T11:10:06.848Z</time></trkpt><trkpt lat="40.618325" lon="15.2695217"><ele>174.5</ele><time>2026-05-02T11:10:07.848Z</time></trkpt><trkpt lat="40.6182083" lon="15.2695183"><ele>172.0</ele><time>2026-05-02T11:10:08.847Z</time></trkpt><trkpt lat="40.6180817" lon="15.2695067"><ele>169.5</ele><time>2026-05-02T11:10:09.848Z</time></trkpt><trkpt lat="40.6179517" lon="15.2695"><ele>167.0</ele><time>2026-05-02T11:10:10.847Z</time></trkpt><trkpt lat="40.6178283" lon="15.2694833"><ele>161.0</ele><time>2026-05-02T11:10:11.848Z</time></trkpt><trkpt lat="40.6176967" lon="15.2694567"><ele>155.0</ele><time>2026-05-02T11:10:12.847Z</time></trkpt><trkpt lat="40.61757" lon="15.2694283"><ele>149.0</ele><time>2026-05-02T11:10:13.847Z</time></trkpt><trkpt lat="40.61745" lon="15.2693933"><ele>143.0</ele><time>2026-05-02T11:10:14.847Z</time></trkpt><trkpt lat="40.6173383" lon="15.269355"><ele>143.0</ele><time>2026-05-02T11:10:15.847Z</time></trkpt><trkpt lat="40.61723" lon="15.2693267"><ele>143.0</ele><time>2026-05-02T11:10:16.848Z</time></trkpt><trkpt lat="40.6171233" lon="15.269295"><ele>143.0</ele><time>2026-05-02T11:10:17.847Z</time></trkpt><trkpt lat="40.6170283" lon="15.2692633"><ele>143.0</ele><time>2026-05-02T11:10:18.848Z</time></trkpt><trkpt lat="40.6169417" lon="15.2692367"><ele>143.0</ele><time>2026-05-02T11:10:19.848Z</time></trkpt><trkpt lat="40.61686" lon="15.2692117"><ele>141.0</ele><time>2026-05-02T11:10:20.847Z</time></trkpt><trkpt lat="40.6167817" lon="15.2691983"><ele>139.0</ele><time>2026-05-02T11:10:21.847Z</time></trkpt><trkpt lat="40.6167067" lon="15.2692133"><ele>137.0</ele><time>2026-05-02T11:10:22.848Z</time></trkpt><trkpt lat="40.616635" lon="15.2692633"><ele>135.0</ele><time>2026-05-02T11:10:23.847Z</time></trkpt><trkpt lat="40.6165667" lon="15.2693617"><ele>133.0</ele><time>2026-05-02T11:10:24.847Z</time></trkpt><trkpt lat="40.6165017" lon="15.269485"><ele>133.0</ele><time>2026-05-02T11:10:25.847Z</time></trkpt><trkpt lat="40.61643" lon="15.269595"><ele>133.0</ele><time>2026-05-02T11:10:26.847Z</time></trkpt><trkpt lat="40.6163367" lon="15.26967"><ele>133.0</ele><time>2026-05-02T11:10:27.847Z</time></trkpt><trkpt lat="40.6162333" lon="15.26974"><ele>133.0</ele><time>2026-05-02T11:10:28.847Z</time></trkpt><trkpt lat="40.6161383" lon="15.2698417"><ele>135.75</ele><time>2026-05-02T11:10:29.847Z</time></trkpt><trkpt lat="40.61605" lon="15.269965"><ele>138.5</ele><time>2026-05-02T11:10:30.848Z</time></trkpt><trkpt lat="40.6159867" lon="15.2701283"><ele>141.25</ele><time>2026-05-02T11:10:31.848Z</time></trkpt><trkpt lat="40.6159117" lon="15.2702917"><ele>144.0</ele><time>2026-05-02T11:10:32.848Z</time></trkpt><trkpt lat="40.615825" lon="15.2704583"><ele>144.66666666666666</ele><time>2026-05-02T11:10:33.847Z</time></trkpt><trkpt lat="40.6157333" lon="15.2706317"><ele>145.33333333333331</ele><time>2026-05-02T11:10:34.847Z</time></trkpt><trkpt lat="40.6156317" lon="15.2707733"><ele>146.0</ele><time>2026-05-02T11:10:35.847Z</time></trkpt><trkpt lat="40.6155167" lon="15.2708983"><ele>146.0</ele><time>2026-05-02T11:10:36.848Z</time></trkpt><trkpt lat="40.6154117" lon="15.2710267"><ele>146.0</ele><time>2026-05-02T11:10:37.848Z</time></trkpt><trkpt lat="40.6153217" lon="15.2711817"><ele>146.0</ele><time>2026-05-02T11:10:38.847Z</time></trkpt><trkpt lat="40.6152467" lon="15.2713617"><ele>146.0</ele><time>2026-05-02T11:10:39.848Z</time></trkpt><trkpt lat="40.6151833" lon="15.271555"><ele>148.0</ele><time>2026-05-02T11:10:40.847Z</time></trkpt><trkpt lat="40.6151267" lon="15.2717617"><ele>150.0</ele><time>2026-05-02T11:10:41.847Z</time></trkpt><trkpt lat="40.6150783" lon="15.2719883"><ele>152.0</ele><time>2026-05-02T11:10:42.848Z</time></trkpt><trkpt lat="40.6150217" lon="15.2722"><ele>151.75</ele><time>2026-05-02T11:10:43.848Z</time></trkpt><trkpt lat="40.614975" lon="15.2724033"><ele>151.5</ele><time>2026-05-02T11:10:44.847Z</time></trkpt><trkpt lat="40.6149333" lon="15.2725933"><ele>151.25</ele><time>2026-05-02T11:10:45.847Z</time></trkpt><trkpt lat="40.6149067" lon="15.2727683"><ele>151.0</ele><time>2026-05-02T11:10:46.847Z</time></trkpt><trkpt lat="40.6148817" lon="15.27293"><ele>151.0</ele><time>2026-05-02T11:10:47.848Z</time></trkpt><trkpt lat="40.6148517" lon="15.2730733"><ele>151.0</ele><time>2026-05-02T11:10:48.848Z</time></trkpt><trkpt lat="40.61482" lon="15.2732283"><ele>151.0</ele><time>2026-05-02T11:10:49.847Z</time></trkpt><trkpt lat="40.6147983" lon="15.273385"><ele>151.0</ele><time>2026-05-02T11:10:50.847Z</time></trkpt><trkpt lat="40.6147767" lon="15.273545"><ele>150.75</ele><time>2026-05-02T11:10:51.847Z</time></trkpt><trkpt lat="40.6147567" lon="15.273725"><ele>150.5</ele><time>2026-05-02T11:10:52.848Z</time></trkpt><trkpt lat="40.6147333" lon="15.2739183"><ele>150.25</ele><time>2026-05-02T11:10:53.847Z</time></trkpt><trkpt lat="40.61472" lon="15.27413"><ele>150.0</ele><time>2026-05-02T11:10:54.847Z</time></trkpt><trkpt lat="40.6147033" lon="15.27436"><ele>152.0</ele><time>2026-05-02T11:10:55.847Z</time></trkpt><trkpt lat="40.614675" lon="15.2745983"><ele>154.0</ele><time>2026-05-02T11:10:56.846Z</time></trkpt><trkpt lat="40.614675" lon="15.2748167"><ele>156.0</ele><time>2026-05-02T11:10:57.847Z</time></trkpt><trkpt lat="40.614675" lon="15.2750267"><ele>157.5</ele><time>2026-05-02T11:10:58.847Z</time></trkpt><trkpt lat="40.6146817" lon="15.2752267"><ele>159.0</ele><time>2026-05-02T11:10:59.847Z</time></trkpt><trkpt lat="40.6146867" lon="15.2754117"><ele>160.5</ele><time>2026-05-02T11:11:00.847Z</time></trkpt><trkpt lat="40.6146967" lon="15.275575"><ele>162.0</ele><time>2026-05-02T11:11:01.846Z</time></trkpt><trkpt lat="40.614705" lon="15.2757267"><ele>163.2</ele><time>2026-05-02T11:11:02.846Z</time></trkpt><trkpt lat="40.6147117" lon="15.2758683"><ele>164.39999999999998</ele><time>2026-05-02T11:11:03.846Z</time></trkpt><trkpt lat="40.6147133" lon="15.276"><ele>165.60000000000002</ele><time>2026-05-02T11:11:04.846Z</time></trkpt><trkpt lat="40.614715" lon="15.2761133"><ele>166.8</ele><time>2026-05-02T11:11:05.846Z</time></trkpt><trkpt lat="40.6147133" lon="15.27621"><ele>168.0</ele><time>2026-05-02T11:11:06.847Z</time></trkpt><trkpt lat="40.61465" lon="15.2763267"><ele>168.0</ele><time>2026-05-02T11:11:08.846Z</time></trkpt><trkpt lat="40.6145383" lon="15.27633"><ele>168.0</ele><time>2026-05-02T11:11:10.846Z</time></trkpt><trkpt lat="40.6144783" lon="15.2762883"><ele>168.0</ele><time>2026-05-02T11:11:11.846Z</time></trkpt><trkpt lat="40.6144217" lon="15.2762367"><ele>168.0</ele><time>2026-05-02T11:11:12.846Z</time></trkpt><trkpt lat="40.614355" lon="15.2761883"><ele>168.0</ele><time>2026-05-02T11:11:13.847Z</time></trkpt><trkpt lat="40.61429" lon="15.2761467"><ele>168.0</ele><time>2026-05-02T11:11:14.846Z</time></trkpt><trkpt lat="40.61423" lon="15.2761067"><ele>167.85714285714286</ele><time>2026-05-02T11:11:15.846Z</time></trkpt><trkpt lat="40.6141667" lon="15.2760617"><ele>167.71428571428572</ele><time>2026-05-02T11:11:16.847Z</time></trkpt><trkpt lat="40.6141017" lon="15.2760183"><ele>167.57142857142856</ele><time>2026-05-02T11:11:17.847Z</time></trkpt><trkpt lat="40.6140383" lon="15.275975"><ele>167.42857142857144</ele><time>2026-05-02T11:11:18.846Z</time></trkpt><trkpt lat="40.6139817" lon="15.2759183"><ele>167.28571428571428</ele><time>2026-05-02T11:11:19.847Z</time></trkpt><trkpt lat="40.6139433" lon="15.2758483"><ele>167.14285714285714</ele><time>2026-05-02T11:11:20.846Z</time></trkpt><trkpt lat="40.6139267" lon="15.2757667"><ele>167.0</ele><time>2026-05-02T11:11:21.847Z</time></trkpt><trkpt lat="40.613935" lon="15.27568"><ele>167.16666666666666</ele><time>2026-05-02T11:11:22.847Z</time></trkpt><trkpt lat="40.613955" lon="15.275595"><ele>167.33333333333331</ele><time>2026-05-02T11:11:23.846Z</time></trkpt><trkpt lat="40.6139783" lon="15.2755117"><ele>167.5</ele><time>2026-05-02T11:11:24.847Z</time></trkpt><trkpt lat="40.614005" lon="15.2754333"><ele>167.66666666666666</ele><time>2026-05-02T11:11:25.846Z</time></trkpt><trkpt lat="40.6140733" lon="15.27537"><ele>167.83333333333334</ele><time>2026-05-02T11:11:27.847Z</time></trkpt><trkpt lat="40.614105" lon="15.275515"><ele>168.0</ele><time>2026-05-02T11:11:30.847Z</time></trkpt><trkpt lat="40.6141" lon="15.2756033"><ele>167.83333333333334</ele><time>2026-05-02T11:11:31.847Z</time></trkpt><trkpt lat="40.6140967" lon="15.2757"><ele>167.66666666666666</ele><time>2026-05-02T11:11:32.846Z</time></trkpt><trkpt lat="40.6141" lon="15.2758033"><ele>167.5</ele><time>2026-05-02T11:11:33.847Z</time></trkpt><trkpt lat="40.6141033" lon="15.2759133"><ele>167.33333333333331</ele><time>2026-05-02T11:11:34.847Z</time></trkpt><trkpt lat="40.614095" lon="15.276025"><ele>167.16666666666666</ele><time>2026-05-02T11:11:35.847Z</time></trkpt><trkpt lat="40.61408" lon="15.2761333"><ele>167.0</ele><time>2026-05-02T11:11:36.847Z</time></trkpt><trkpt lat="40.61405" lon="15.2762317"><ele>167.0</ele><time>2026-05-02T11:11:37.847Z</time></trkpt><trkpt lat="40.614025" lon="15.276325"><ele>167.0</ele><time>2026-05-02T11:11:38.846Z</time></trkpt><trkpt lat="40.6139983" lon="15.276415"><ele>167.0</ele><time>2026-05-02T11:11:39.847Z</time></trkpt><trkpt lat="40.6139767" lon="15.276505"><ele>167.0</ele><time>2026-05-02T11:11:40.847Z</time></trkpt><trkpt lat="40.61395" lon="15.27659"><ele>167.0</ele><time>2026-05-02T11:11:41.847Z</time></trkpt><trkpt lat="40.61392" lon="15.276675"><ele>167.0</ele><time>2026-05-02T11:11:42.847Z</time></trkpt><trkpt lat="40.61389" lon="15.2767633"><ele>167.0</ele><time>2026-05-02T11:11:43.846Z</time></trkpt><trkpt lat="40.6138617" lon="15.2768617"><ele>166.8</ele><time>2026-05-02T11:11:44.846Z</time></trkpt><trkpt lat="40.6138317" lon="15.2769717"><ele>166.6</ele><time>2026-05-02T11:11:45.847Z</time></trkpt><trkpt lat="40.6138017" lon="15.2770967"><ele>166.4</ele><time>2026-05-02T11:11:46.847Z</time></trkpt><trkpt lat="40.6137717" lon="15.2772383"><ele>166.20000000000002</ele><time>2026-05-02T11:11:47.846Z</time></trkpt><trkpt lat="40.6137383" lon="15.27739"><ele>166.0</ele><time>2026-05-02T11:11:48.847Z</time></trkpt><trkpt lat="40.613705" lon="15.2775467"><ele>166.0</ele><time>2026-05-02T11:11:49.847Z</time></trkpt><trkpt lat="40.61367" lon="15.2777133"><ele>166.0</ele><time>2026-05-02T11:11:50.847Z</time></trkpt><trkpt lat="40.61363" lon="15.2778817"><ele>166.0</ele><time>2026-05-02T11:11:51.846Z</time></trkpt><trkpt lat="40.6135867" lon="15.2780467"><ele>166.0</ele><time>2026-05-02T11:11:52.847Z</time></trkpt><trkpt lat="40.6135383" lon="15.278215"><ele>165.25</ele><time>2026-05-02T11:11:53.846Z</time></trkpt><trkpt lat="40.61349" lon="15.2783817"><ele>164.5</ele><time>2026-05-02T11:11:54.846Z</time></trkpt><trkpt lat="40.613445" lon="15.27854"><ele>163.75</ele><time>2026-05-02T11:11:55.846Z</time></trkpt><trkpt lat="40.613405" lon="15.2786917"><ele>163.0</ele><time>2026-05-02T11:11:56.846Z</time></trkpt><trkpt lat="40.6133617" lon="15.2788383"><ele>164.5</ele><time>2026-05-02T11:11:57.847Z</time></trkpt><trkpt lat="40.6133183" lon="15.2789767"><ele>166.0</ele><time>2026-05-02T11:11:58.847Z</time></trkpt><trkpt lat="40.6132733" lon="15.2791167"><ele>167.5</ele><time>2026-05-02T11:11:59.847Z</time></trkpt><trkpt lat="40.6132283" lon="15.27926"><ele>169.0</ele><time>2026-05-02T11:12:00.847Z</time></trkpt><trkpt lat="40.6131767" lon="15.2793967"><ele>169.0</ele><time>2026-05-02T11:12:01.846Z</time></trkpt><trkpt lat="40.6131233" lon="15.279535"><ele>169.0</ele><time>2026-05-02T11:12:02.847Z</time></trkpt><trkpt lat="40.61307" lon="15.279685"><ele>169.0</ele><time>2026-05-02T11:12:03.846Z</time></trkpt><trkpt lat="40.613015" lon="15.27983"><ele>169.0</ele><time>2026-05-02T11:12:04.846Z</time></trkpt><trkpt lat="40.6129633" lon="15.2799717"><ele>168.6</ele><time>2026-05-02T11:12:05.846Z</time></trkpt><trkpt lat="40.61291" lon="15.2801083"><ele>168.2</ele><time>2026-05-02T11:12:06.847Z</time></trkpt><trkpt lat="40.6128617" lon="15.2802433"><ele>167.79999999999998</ele><time>2026-05-02T11:12:07.847Z</time></trkpt><trkpt lat="40.612815" lon="15.2803733"><ele>167.39999999999998</ele><time>2026-05-02T11:12:08.847Z</time></trkpt><trkpt lat="40.6127683" lon="15.2804967"><ele>167.0</ele><time>2026-05-02T11:12:09.846Z</time></trkpt><trkpt lat="40.6127267" lon="15.2806133"><ele>166.2</ele><time>2026-05-02T11:12:10.846Z</time></trkpt><trkpt lat="40.6126767" lon="15.28072"><ele>165.39999999999998</ele><time>2026-05-02T11:12:11.846Z</time></trkpt><trkpt lat="40.6126317" lon="15.2808167"><ele>164.60000000000002</ele><time>2026-05-02T11:12:12.846Z</time></trkpt><trkpt lat="40.61259" lon="15.28092"><ele>163.8</ele><time>2026-05-02T11:12:13.847Z</time></trkpt><trkpt lat="40.6125483" lon="15.28103"><ele>163.0</ele><time>2026-05-02T11:12:14.846Z</time></trkpt><trkpt lat="40.6124933" lon="15.2811317"><ele>163.0</ele><time>2026-05-02T11:12:15.847Z</time></trkpt><trkpt lat="40.6124433" lon="15.2812383"><ele>163.0</ele><time>2026-05-02T11:12:16.846Z</time></trkpt><trkpt lat="40.6123917" lon="15.2813417"><ele>163.0</ele><time>2026-05-02T11:12:17.846Z</time></trkpt><trkpt lat="40.6123383" lon="15.2814467"><ele>163.0</ele><time>2026-05-02T11:12:18.846Z</time></trkpt><trkpt lat="40.6122883" lon="15.281555"><ele>163.0</ele><time>2026-05-02T11:12:19.846Z</time></trkpt><trkpt lat="40.6122367" lon="15.2816717"><ele>163.0</ele><time>2026-05-02T11:12:20.846Z</time></trkpt><trkpt lat="40.6121867" lon="15.2817983"><ele>163.0</ele><time>2026-05-02T11:12:21.847Z</time></trkpt><trkpt lat="40.6121417" lon="15.28194"><ele>163.0</ele><time>2026-05-02T11:12:22.846Z</time></trkpt><trkpt lat="40.61209" lon="15.2820817"><ele>163.0</ele><time>2026-05-02T11:12:23.847Z</time></trkpt><trkpt lat="40.6120333" lon="15.2822133"><ele>160.20000000000002</ele><time>2026-05-02T11:12:24.846Z</time></trkpt><trkpt lat="40.611975" lon="15.2823367"><ele>157.4</ele><time>2026-05-02T11:12:25.846Z</time></trkpt><trkpt lat="40.6119183" lon="15.282455"><ele>154.60000000000002</ele><time>2026-05-02T11:12:26.846Z</time></trkpt><trkpt lat="40.61186" lon="15.2825633"><ele>151.8</ele><time>2026-05-02T11:12:27.847Z</time></trkpt><trkpt lat="40.6118033" lon="15.2826733"><ele>149.0</ele><time>2026-05-02T11:12:28.847Z</time></trkpt><trkpt lat="40.611755" lon="15.2827983"><ele>149.0</ele><time>2026-05-02T11:12:29.846Z</time></trkpt><trkpt lat="40.6116967" lon="15.2829233"><ele>149.0</ele><time>2026-05-02T11:12:30.846Z</time></trkpt><trkpt lat="40.6116417" lon="15.2830517"><ele>149.0</ele><time>2026-05-02T11:12:31.847Z</time></trkpt><trkpt lat="40.6115817" lon="15.2831767"><ele>149.0</ele><time>2026-05-02T11:12:32.847Z</time></trkpt><trkpt lat="40.6115233" lon="15.283295"><ele>149.0</ele><time>2026-05-02T11:12:33.846Z</time></trkpt><trkpt lat="40.6114633" lon="15.2834117"><ele>151.4</ele><time>2026-05-02T11:12:34.846Z</time></trkpt><trkpt lat="40.6114083" lon="15.2835267"><ele>153.8</ele><time>2026-05-02T11:12:35.846Z</time></trkpt><trkpt lat="40.6113583" lon="15.2836417"><ele>156.20000000000002</ele><time>2026-05-02T11:12:36.846Z</time></trkpt><trkpt lat="40.6113067" lon="15.283755"><ele>158.60000000000002</ele><time>2026-05-02T11:12:37.847Z</time></trkpt><trkpt lat="40.611255" lon="15.283855"><ele>161.0</ele><time>2026-05-02T11:12:38.847Z</time></trkpt><trkpt lat="40.611215" lon="15.2839417"><ele>161.20000000000002</ele><time>2026-05-02T11:12:39.847Z</time></trkpt><trkpt lat="40.61116" lon="15.2840583"><ele>161.4</ele><time>2026-05-02T11:12:41.846Z</time></trkpt><trkpt lat="40.611165" lon="15.2841617"><ele>161.6</ele><time>2026-05-02T11:12:43.846Z</time></trkpt><trkpt lat="40.6112" lon="15.284265"><ele>161.8</ele><time>2026-05-02T11:12:45.846Z</time></trkpt><trkpt lat="40.61125" lon="15.284385"><ele>162.0</ele><time>2026-05-02T11:12:47.846Z</time></trkpt><trkpt lat="40.6112867" lon="15.2845317"><ele>162.0</ele><time>2026-05-02T11:12:49.847Z</time></trkpt><trkpt lat="40.6113217" lon="15.284695"><ele>162.0</ele><time>2026-05-02T11:12:51.846Z</time></trkpt><trkpt lat="40.6113267" lon="15.2848183"><ele>162.0</ele><time>2026-05-02T11:12:52.846Z</time></trkpt><trkpt lat="40.611335" lon="15.2849317"><ele>162.0</ele><time>2026-05-02T11:12:53.847Z</time></trkpt><trkpt lat="40.6113633" lon="15.2850333"><ele>162.0</ele><time>2026-05-02T11:12:54.847Z</time></trkpt><trkpt lat="40.61141" lon="15.2851017"><ele>161.6</ele><time>2026-05-02T11:12:55.846Z</time></trkpt><trkpt lat="40.6114533" lon="15.2851833"><ele>161.2</ele><time>2026-05-02T11:12:56.846Z</time></trkpt><trkpt lat="40.6115233" lon="15.285275"><ele>160.8</ele><time>2026-05-02T11:12:58.846Z</time></trkpt><trkpt lat="40.61157" lon="15.2853817"><ele>160.4</ele><time>2026-05-02T11:13:01.847Z</time></trkpt><trkpt lat="40.61159" lon="15.2854867"><ele>160.0</ele><time>2026-05-02T11:13:03.847Z</time></trkpt><trkpt lat="40.6115883" lon="15.28562"><ele>159.0</ele><time>2026-05-02T11:13:05.847Z</time></trkpt><trkpt lat="40.6115833" lon="15.28576"><ele>158.0</ele><time>2026-05-02T11:13:07.847Z</time></trkpt><trkpt lat="40.6115733" lon="15.285905"><ele>157.0</ele><time>2026-05-02T11:13:09.846Z</time></trkpt><trkpt lat="40.611615" lon="15.2860367"><ele>156.0</ele><time>2026-05-02T11:13:11.846Z</time></trkpt><trkpt lat="40.6116483" lon="15.2861483"><ele>155.0</ele><time>2026-05-02T11:13:13.847Z</time></trkpt><trkpt lat="40.6117117" lon="15.2862883"><ele>155.0</ele><time>2026-05-02T11:13:15.846Z</time></trkpt><trkpt lat="40.6117933" lon="15.28639"><ele>155.0</ele><time>2026-05-02T11:13:17.847Z</time></trkpt><trkpt lat="40.611845" lon="15.2864917"><ele>155.0</ele><time>2026-05-02T11:13:19.847Z</time></trkpt><trkpt lat="40.611845" lon="15.286605"><ele>155.0</ele><time>2026-05-02T11:13:21.847Z</time></trkpt><trkpt lat="40.61181" lon="15.286705"><ele>155.0</ele><time>2026-05-02T11:13:23.847Z</time></trkpt><trkpt lat="40.6117367" lon="15.2867867"><ele>154.0</ele><time>2026-05-02T11:13:25.847Z</time></trkpt><trkpt lat="40.6116667" lon="15.286855"><ele>153.0</ele><time>2026-05-02T11:13:27.846Z</time></trkpt><trkpt lat="40.6115983" lon="15.2869317"><ele>152.0</ele><time>2026-05-02T11:13:29.846Z</time></trkpt><trkpt lat="40.6115667" lon="15.2870267"><ele>151.0</ele><time>2026-05-02T11:13:31.847Z</time></trkpt><trkpt lat="40.611555" lon="15.2871383"><ele>150.0</ele><time>2026-05-02T11:13:33.847Z</time></trkpt><trkpt lat="40.611555" lon="15.2872533"><ele>149.0</ele><time>2026-05-02T11:13:35.846Z</time></trkpt><trkpt lat="40.611535" lon="15.287395"><ele>149.0</ele><time>2026-05-02T11:14:09.847Z</time></trkpt><trkpt lat="40.611485" lon="15.2874933"><ele>149.0</ele><time>2026-05-02T11:14:11.847Z</time></trkpt><trkpt lat="40.6114333" lon="15.28764"><ele>149.0</ele><time>2026-05-02T11:14:13.846Z</time></trkpt><trkpt lat="40.6114167" lon="15.2877267"><ele>149.0</ele><time>2026-05-02T11:14:14.847Z</time></trkpt><trkpt lat="40.6114033" lon="15.2878083"><ele>149.0</ele><time>2026-05-02T11:14:15.846Z</time></trkpt><trkpt lat="40.6113933" lon="15.2878917"><ele>149.0</ele><time>2026-05-02T11:14:16.846Z</time></trkpt><trkpt lat="40.6113717" lon="15.2880217"><ele>149.0</ele><time>2026-05-02T11:14:18.847Z</time></trkpt><trkpt lat="40.61136" lon="15.288105"><ele>149.0</ele><time>2026-05-02T11:14:26.846Z</time></trkpt><trkpt lat="40.6113217" lon="15.288175"><ele>149.0</ele><time>2026-05-02T11:14:29.846Z</time></trkpt><trkpt lat="40.611245" lon="15.2881383"><ele>149.0</ele><time>2026-05-02T11:14:32.847Z</time></trkpt><trkpt lat="40.6111767" lon="15.288085"><ele>149.0</ele><time>2026-05-02T11:14:34.847Z</time></trkpt><trkpt lat="40.61111" lon="15.2880583"><ele>149.0</ele><time>2026-05-02T11:14:36.847Z</time></trkpt><trkpt lat="40.6110383" lon="15.288035"><ele>149.0</ele><time>2026-05-02T11:14:38.846Z</time></trkpt><trkpt lat="40.6109467" lon="15.288005"><ele>148.6</ele><time>2026-05-02T11:14:40.846Z</time></trkpt><trkpt lat="40.61083" lon="15.2879583"><ele>148.2</ele><time>2026-05-02T11:14:42.847Z</time></trkpt><trkpt lat="40.610755" lon="15.2879283"><ele>147.79999999999998</ele><time>2026-05-02T11:14:43.847Z</time></trkpt><trkpt lat="40.6106933" lon="15.2879"><ele>147.4</ele><time>2026-05-02T11:14:44.847Z</time></trkpt><trkpt lat="40.6106133" lon="15.2877867"><ele>147.0</ele><time>2026-05-02T11:14:46.847Z</time></trkpt><trkpt lat="40.6106067" lon="15.2876983"><ele>147.0</ele><time>2026-05-02T11:14:47.847Z</time></trkpt><trkpt lat="40.6106133" lon="15.2876017"><ele>147.0</ele><time>2026-05-02T11:14:48.846Z</time></trkpt><trkpt lat="40.6106417" lon="15.2874867"><ele>147.0</ele><time>2026-05-02T11:14:49.847Z</time></trkpt><trkpt lat="40.6106983" lon="15.2873733"><ele>147.0</ele><time>2026-05-02T11:14:50.847Z</time></trkpt><trkpt lat="40.6107483" lon="15.2872567"><ele>147.0</ele><time>2026-05-02T11:14:51.846Z</time></trkpt><trkpt lat="40.610775" lon="15.2871367"><ele>147.33333333333334</ele><time>2026-05-02T11:14:52.846Z</time></trkpt><trkpt lat="40.6107817" lon="15.2870167"><ele>147.66666666666666</ele><time>2026-05-02T11:14:53.847Z</time></trkpt><trkpt lat="40.6107583" lon="15.2868983"><ele>148.0</ele><time>2026-05-02T11:14:54.847Z</time></trkpt><trkpt lat="40.6107233" lon="15.2867967"><ele>148.33333333333331</ele><time>2026-05-02T11:14:55.846Z</time></trkpt><trkpt lat="40.6106767" lon="15.2867117"><ele>148.66666666666666</ele><time>2026-05-02T11:14:56.846Z</time></trkpt><trkpt lat="40.6106283" lon="15.286645"><ele>149.0</ele><time>2026-05-02T11:14:57.847Z</time></trkpt><trkpt lat="40.6105783" lon="15.28659"><ele>149.0</ele><time>2026-05-02T11:14:58.846Z</time></trkpt><trkpt lat="40.6105117" lon="15.2865433"><ele>149.0</ele><time>2026-05-02T11:14:59.847Z</time></trkpt><trkpt lat="40.61044" lon="15.2865217"><ele>149.0</ele><time>2026-05-02T11:15:00.846Z</time></trkpt><trkpt lat="40.61033" lon="15.2865883"><ele>149.0</ele><time>2026-05-02T11:15:01.847Z</time></trkpt><trkpt lat="40.61022" lon="15.2866467"><ele>149.0</ele><time>2026-05-02T11:15:02.847Z</time></trkpt><trkpt lat="40.61012" lon="15.286715"><ele>152.0</ele><time>2026-05-02T11:15:03.847Z</time></trkpt><trkpt lat="40.6100133" lon="15.2867767"><ele>155.0</ele><time>2026-05-02T11:15:04.846Z</time></trkpt><trkpt lat="40.6099067" lon="15.2868367"><ele>158.0</ele><time>2026-05-02T11:15:05.846Z</time></trkpt><trkpt lat="40.6097933" lon="15.286885"><ele>161.0</ele><time>2026-05-02T11:15:06.846Z</time></trkpt><trkpt lat="40.60967" lon="15.2869433"><ele>161.0</ele><time>2026-05-02T11:15:07.847Z</time></trkpt><trkpt lat="40.60954" lon="15.2869967"><ele>161.0</ele><time>2026-05-02T11:15:08.847Z</time></trkpt><trkpt lat="40.60941" lon="15.287055"><ele>161.0</ele><time>2026-05-02T11:15:09.846Z</time></trkpt><trkpt lat="40.6093017" lon="15.28713"><ele>161.0</ele><time>2026-05-02T11:15:10.846Z</time></trkpt><trkpt lat="40.6091767" lon="15.28722"><ele>162.25</ele><time>2026-05-02T11:15:11.846Z</time></trkpt><trkpt lat="40.6090517" lon="15.2873283"><ele>163.5</ele><time>2026-05-02T11:15:12.846Z</time></trkpt><trkpt lat="40.6089517" lon="15.2874667"><ele>164.75</ele><time>2026-05-02T11:15:13.846Z</time></trkpt><trkpt lat="40.6088733" lon="15.2876333"><ele>166.0</ele><time>2026-05-02T11:15:14.847Z</time></trkpt><trkpt lat="40.6088133" lon="15.2878"><ele>166.0</ele><time>2026-05-02T11:15:15.846Z</time></trkpt><trkpt lat="40.608775" lon="15.2879633"><ele>166.0</ele><time>2026-05-02T11:15:16.847Z</time></trkpt><trkpt lat="40.6087483" lon="15.2881117"><ele>166.0</ele><time>2026-05-02T11:15:17.847Z</time></trkpt><trkpt lat="40.6087283" lon="15.28824"><ele>166.0</ele><time>2026-05-02T11:15:18.847Z</time></trkpt><trkpt lat="40.6087117" lon="15.2883633"><ele>166.0</ele><time>2026-05-02T11:15:19.847Z</time></trkpt><trkpt lat="40.6086933" lon="15.2884833"><ele>166.20000000000002</ele><time>2026-05-02T11:15:20.846Z</time></trkpt><trkpt lat="40.6086633" lon="15.2886067"><ele>166.4</ele><time>2026-05-02T11:15:21.846Z</time></trkpt><trkpt lat="40.6086283" lon="15.2887417"><ele>166.6</ele><time>2026-05-02T11:15:22.846Z</time></trkpt><trkpt lat="40.6086" lon="15.2888867"><ele>166.8</ele><time>2026-05-02T11:15:23.846Z</time></trkpt><trkpt lat="40.608575" lon="15.2890433"><ele>167.0</ele><time>2026-05-02T11:15:24.846Z</time></trkpt><trkpt lat="40.6085433" lon="15.2892017"><ele>168.25</ele><time>2026-05-02T11:15:25.847Z</time></trkpt><trkpt lat="40.608515" lon="15.2893667"><ele>169.5</ele><time>2026-05-02T11:15:26.847Z</time></trkpt><trkpt lat="40.6084867" lon="15.2895367"><ele>170.75</ele><time>2026-05-02T11:15:27.846Z</time></trkpt><trkpt lat="40.60845" lon="15.2897133"><ele>172.0</ele><time>2026-05-02T11:15:28.846Z</time></trkpt><trkpt lat="40.6084067" lon="15.2898883"><ele>172.25</ele><time>2026-05-02T11:15:29.847Z</time></trkpt><trkpt lat="40.6083633" lon="15.2900467"><ele>172.5</ele><time>2026-05-02T11:15:30.847Z</time></trkpt><trkpt lat="40.6083183" lon="15.29019"><ele>172.75</ele><time>2026-05-02T11:15:31.846Z</time></trkpt><trkpt lat="40.60827" lon="15.2903167"><ele>173.0</ele><time>2026-05-02T11:15:32.846Z</time></trkpt><trkpt lat="40.608215" lon="15.2904217"><ele>173.0</ele><time>2026-05-02T11:15:33.847Z</time></trkpt><trkpt lat="40.608155" lon="15.29051"><ele>173.0</ele><time>2026-05-02T11:15:34.847Z</time></trkpt><trkpt lat="40.6080883" lon="15.2905867"><ele>173.0</ele><time>2026-05-02T11:15:35.846Z</time></trkpt><trkpt lat="40.60803" lon="15.2906717"><ele>173.0</ele><time>2026-05-02T11:15:36.846Z</time></trkpt><trkpt lat="40.60798" lon="15.290755"><ele>173.0</ele><time>2026-05-02T11:15:37.847Z</time></trkpt><trkpt lat="40.6079317" lon="15.29083"><ele>173.0</ele><time>2026-05-02T11:15:38.846Z</time></trkpt><trkpt lat="40.6078817" lon="15.2909033"><ele>173.16666666666666</ele><time>2026-05-02T11:15:39.847Z</time></trkpt><trkpt lat="40.6078283" lon="15.2909817"><ele>173.33333333333331</ele><time>2026-05-02T11:15:40.846Z</time></trkpt><trkpt lat="40.607775" lon="15.2910617"><ele>173.5</ele><time>2026-05-02T11:15:41.847Z</time></trkpt><trkpt lat="40.60772" lon="15.291145"><ele>173.66666666666666</ele><time>2026-05-02T11:15:42.847Z</time></trkpt><trkpt lat="40.6076633" lon="15.2912267"><ele>173.83333333333334</ele><time>2026-05-02T11:15:43.846Z</time></trkpt><trkpt lat="40.6076067" lon="15.2913033"><ele>174.0</ele><time>2026-05-02T11:15:44.846Z</time></trkpt><trkpt lat="40.6075467" lon="15.2913867"><ele>174.2</ele><time>2026-05-02T11:15:45.847Z</time></trkpt><trkpt lat="40.607485" lon="15.2914767"><ele>174.39999999999998</ele><time>2026-05-02T11:15:46.846Z</time></trkpt><trkpt lat="40.6074183" lon="15.2915767"><ele>174.6</ele><time>2026-05-02T11:15:47.847Z</time></trkpt><trkpt lat="40.6073417" lon="15.2916917"><ele>174.8</ele><time>2026-05-02T11:15:48.847Z</time></trkpt><trkpt lat="40.6072617" lon="15.2918117"><ele>175.0</ele><time>2026-05-02T11:15:49.846Z</time></trkpt><trkpt lat="40.6071783" lon="15.29194"><ele>175.0</ele><time>2026-05-02T11:15:50.846Z</time></trkpt><trkpt lat="40.6070867" lon="15.29207"><ele>175.0</ele><time>2026-05-02T11:15:51.847Z</time></trkpt><trkpt lat="40.606995" lon="15.2922033"><ele>175.0</ele><time>2026-05-02T11:15:52.847Z</time></trkpt><trkpt lat="40.606905" lon="15.29234"><ele>175.0</ele><time>2026-05-02T11:15:53.847Z</time></trkpt><trkpt lat="40.6068183" lon="15.2924717"><ele>174.5</ele><time>2026-05-02T11:15:54.846Z</time></trkpt><trkpt lat="40.6067333" lon="15.2925983"><ele>174.0</ele><time>2026-05-02T11:15:55.847Z</time></trkpt><trkpt lat="40.6066567" lon="15.2927183"><ele>173.5</ele><time>2026-05-02T11:15:56.846Z</time></trkpt><trkpt lat="40.60658" lon="15.292835"><ele>173.0</ele><time>2026-05-02T11:15:57.847Z</time></trkpt><trkpt lat="40.6065167" lon="15.2929467"><ele>173.0</ele><time>2026-05-02T11:15:58.846Z</time></trkpt><trkpt lat="40.60646" lon="15.2930717"><ele>173.0</ele><time>2026-05-02T11:15:59.847Z</time></trkpt><trkpt lat="40.6064283" lon="15.29322"><ele>173.0</ele><time>2026-05-02T11:16:00.846Z</time></trkpt><trkpt lat="40.60643" lon="15.293385"><ele>173.0</ele><time>2026-05-02T11:16:01.846Z</time></trkpt><trkpt lat="40.6064467" lon="15.2935333"><ele>172.4</ele><time>2026-05-02T11:16:02.847Z</time></trkpt><trkpt lat="40.6064833" lon="15.2936783"><ele>171.8</ele><time>2026-05-02T11:16:03.847Z</time></trkpt><trkpt lat="40.6065267" lon="15.2938083"><ele>171.2</ele><time>2026-05-02T11:16:04.846Z</time></trkpt><trkpt lat="40.6065817" lon="15.2939033"><ele>170.6</ele><time>2026-05-02T11:16:05.846Z</time></trkpt><trkpt lat="40.6066633" lon="15.29397"><ele>170.0</ele><time>2026-05-02T11:16:06.846Z</time></trkpt><trkpt lat="40.6067583" lon="15.2940067"><ele>170.0</ele><time>2026-05-02T11:16:07.846Z</time></trkpt><trkpt lat="40.6068517" lon="15.2940267"><ele>170.0</ele><time>2026-05-02T11:16:08.846Z</time></trkpt><trkpt lat="40.606935" lon="15.2940733"><ele>170.0</ele><time>2026-05-02T11:16:09.847Z</time></trkpt><trkpt lat="40.6070067" lon="15.2941733"><ele>170.0</ele><time>2026-05-02T11:16:10.846Z</time></trkpt><trkpt lat="40.6070633" lon="15.2943067"><ele>170.0</ele><time>2026-05-02T11:16:11.846Z</time></trkpt><trkpt lat="40.6071067" lon="15.294465"><ele>170.0</ele><time>2026-05-02T11:16:12.847Z</time></trkpt><trkpt lat="40.60713" lon="15.294625"><ele>170.0</ele><time>2026-05-02T11:16:13.847Z</time></trkpt><trkpt lat="40.607155" lon="15.29479"><ele>170.0</ele><time>2026-05-02T11:16:14.847Z</time></trkpt><trkpt lat="40.6071833" lon="15.29494"><ele>170.0</ele><time>2026-05-02T11:16:15.846Z</time></trkpt><trkpt lat="40.6072217" lon="15.2950867"><ele>168.5</ele><time>2026-05-02T11:16:16.847Z</time></trkpt><trkpt lat="40.60728" lon="15.2952283"><ele>167.0</ele><time>2026-05-02T11:16:17.847Z</time></trkpt><trkpt lat="40.6073567" lon="15.2953617"><ele>165.5</ele><time>2026-05-02T11:16:18.847Z</time></trkpt><trkpt lat="40.60744" lon="15.29548"><ele>164.0</ele><time>2026-05-02T11:16:19.846Z</time></trkpt><trkpt lat="40.6075233" lon="15.2955783"><ele>164.0</ele><time>2026-05-02T11:16:20.847Z</time></trkpt><trkpt lat="40.6075617" lon="15.295645"><ele>164.0</ele><time>2026-05-02T11:16:21.847Z</time></trkpt><trkpt lat="40.607515" lon="15.29579"><ele>164.0</ele><time>2026-05-02T11:16:23.846Z</time></trkpt><trkpt lat="40.6073867" lon="15.295765"><ele>164.0</ele><time>2026-05-02T11:16:25.847Z</time></trkpt><trkpt lat="40.6073033" lon="15.2956533"><ele>164.0</ele><time>2026-05-02T11:16:26.846Z</time></trkpt><trkpt lat="40.6072217" lon="15.2955367"><ele>164.0</ele><time>2026-05-02T11:16:27.847Z</time></trkpt><trkpt lat="40.6071317" lon="15.29541"><ele>164.0</ele><time>2026-05-02T11:16:28.846Z</time></trkpt><trkpt lat="40.6070317" lon="15.295285"><ele>164.0</ele><time>2026-05-02T11:16:29.846Z</time></trkpt><trkpt lat="40.6069283" lon="15.295155"><ele>164.0</ele><time>2026-05-02T11:16:30.846Z</time></trkpt><trkpt lat="40.6068167" lon="15.295025"><ele>162.66666666666666</ele><time>2026-05-02T11:16:31.847Z</time></trkpt><trkpt lat="40.6066967" lon="15.2948883"><ele>161.33333333333334</ele><time>2026-05-02T11:16:32.847Z</time></trkpt><trkpt lat="40.6065867" lon="15.294745"><ele>160.0</ele><time>2026-05-02T11:16:33.846Z</time></trkpt><trkpt lat="40.6064683" lon="15.2946033"><ele>160.0</ele><time>2026-05-02T11:16:34.847Z</time></trkpt><trkpt lat="40.6063567" lon="15.29446"><ele>160.0</ele><time>2026-05-02T11:16:35.847Z</time></trkpt><trkpt lat="40.6062483" lon="15.29432"><ele>160.0</ele><time>2026-05-02T11:16:36.847Z</time></trkpt><trkpt lat="40.606145" lon="15.2941833"><ele>158.0</ele><time>2026-05-02T11:16:37.847Z</time></trkpt><trkpt lat="40.6060383" lon="15.29405"><ele>156.0</ele><time>2026-05-02T11:16:38.846Z</time></trkpt><trkpt lat="40.6059383" lon="15.2939183"><ele>154.0</ele><time>2026-05-02T11:16:39.846Z</time></trkpt><trkpt lat="40.6058333" lon="15.29379"><ele>152.0</ele><time>2026-05-02T11:16:40.846Z</time></trkpt><trkpt lat="40.6057283" lon="15.2936617"><ele>152.0</ele><time>2026-05-02T11:16:41.847Z</time></trkpt><trkpt lat="40.6056567" lon="15.2935083"><ele>152.0</ele><time>2026-05-02T11:16:42.847Z</time></trkpt><trkpt lat="40.605585" lon="15.2933567"><ele>152.0</ele><time>2026-05-02T11:16:43.847Z</time></trkpt><trkpt lat="40.605525" lon="15.293215"><ele>152.0</ele><time>2026-05-02T11:16:44.846Z</time></trkpt><trkpt lat="40.60549" lon="15.29308"><ele>152.0</ele><time>2026-05-02T11:16:45.846Z</time></trkpt><trkpt lat="40.60547" lon="15.2929333"><ele>152.0</ele><time>2026-05-02T11:16:46.846Z</time></trkpt><trkpt lat="40.6054733" lon="15.29279"><ele>152.0</ele><time>2026-05-02T11:16:47.846Z</time></trkpt><trkpt lat="40.6054867" lon="15.2926683"><ele>152.0</ele><time>2026-05-02T11:16:48.846Z</time></trkpt><trkpt lat="40.605485" lon="15.2925617"><ele>152.0</ele><time>2026-05-02T11:16:49.846Z</time></trkpt><trkpt lat="40.605465" lon="15.292475"><ele>152.0</ele><time>2026-05-02T11:16:50.847Z</time></trkpt><trkpt lat="40.6053383" lon="15.2924567"><ele>152.0</ele><time>2026-05-02T11:16:52.846Z</time></trkpt><trkpt lat="40.6052983" lon="15.292525"><ele>152.0</ele><time>2026-05-02T11:16:53.847Z</time></trkpt><trkpt lat="40.6052733" lon="15.292625"><ele>152.0</ele><time>2026-05-02T11:16:54.847Z</time></trkpt><trkpt lat="40.6052533" lon="15.292725"><ele>152.0</ele><time>2026-05-02T11:16:55.846Z</time></trkpt><trkpt lat="40.6052367" lon="15.2928217"><ele>152.0</ele><time>2026-05-02T11:16:56.847Z</time></trkpt><trkpt lat="40.6052167" lon="15.2929183"><ele>148.57142857142856</ele><time>2026-05-02T11:16:57.847Z</time></trkpt><trkpt lat="40.6051933" lon="15.2930067"><ele>145.14285714285717</ele><time>2026-05-02T11:16:58.845Z</time></trkpt><trkpt lat="40.6051567" lon="15.2930867"><ele>141.71428571428572</ele><time>2026-05-02T11:16:59.845Z</time></trkpt><trkpt lat="40.605115" lon="15.293155"><ele>138.28571428571428</ele><time>2026-05-02T11:17:00.845Z</time></trkpt><trkpt lat="40.6050533" lon="15.2931967"><ele>134.85714285714283</ele><time>2026-05-02T11:17:01.845Z</time></trkpt><trkpt lat="40.6049817" lon="15.2932133"><ele>131.42857142857142</ele><time>2026-05-02T11:17:02.846Z</time></trkpt><trkpt lat="40.6049067" lon="15.2932183"><ele>128.0</ele><time>2026-05-02T11:17:03.845Z</time></trkpt><trkpt lat="40.60484" lon="15.29324"><ele>128.0</ele><time>2026-05-02T11:17:04.846Z</time></trkpt><trkpt lat="40.604775" lon="15.2932867"><ele>128.0</ele><time>2026-05-02T11:17:05.846Z</time></trkpt><trkpt lat="40.6047233" lon="15.2933717"><ele>128.0</ele><time>2026-05-02T11:17:06.846Z</time></trkpt><trkpt lat="40.6046883" lon="15.2934933"><ele>128.0</ele><time>2026-05-02T11:17:07.846Z</time></trkpt><trkpt lat="40.6046783" lon="15.2936233"><ele>128.0</ele><time>2026-05-02T11:17:08.845Z</time></trkpt><trkpt lat="40.6046967" lon="15.2937633"><ele>127.99999999999999</ele><time>2026-05-02T11:17:09.846Z</time></trkpt><trkpt lat="40.6047183" lon="15.2938817"><ele>128.0</ele><time>2026-05-02T11:17:10.846Z</time></trkpt><trkpt lat="40.604725" lon="15.2939717"><ele>128.0</ele><time>2026-05-02T11:17:11.845Z</time></trkpt><trkpt lat="40.6046517" lon="15.2940333"><ele>128.0</ele><time>2026-05-02T11:17:13.845Z</time></trkpt><trkpt lat="40.6045983" lon="15.293975"><ele>127.99999999999999</ele><time>2026-05-02T11:17:14.846Z</time></trkpt><trkpt lat="40.60459" lon="15.2938717"><ele>128.0</ele><time>2026-05-02T11:17:15.845Z</time></trkpt><trkpt lat="40.6045933" lon="15.2937533"><ele>128.0</ele><time>2026-05-02T11:17:16.845Z</time></trkpt><trkpt lat="40.604605" lon="15.2936117"><ele>128.0</ele><time>2026-05-02T11:17:17.846Z</time></trkpt><trkpt lat="40.6046117" lon="15.2934567"><ele>128.0</ele><time>2026-05-02T11:17:18.845Z</time></trkpt><trkpt lat="40.604625" lon="15.2933167"><ele>128.0</ele><time>2026-05-02T11:17:19.846Z</time></trkpt><trkpt lat="40.6046483" lon="15.2931833"><ele>128.0</ele><time>2026-05-02T11:17:20.845Z</time></trkpt><trkpt lat="40.604695" lon="15.2930717"><ele>127.0</ele><time>2026-05-02T11:17:21.845Z</time></trkpt><trkpt lat="40.6047417" lon="15.2929817"><ele>126.00000000000001</ele><time>2026-05-02T11:17:22.846Z</time></trkpt><trkpt lat="40.6048133" lon="15.2928633"><ele>125.00000000000001</ele><time>2026-05-02T11:17:24.846Z</time></trkpt><trkpt lat="40.6048517" lon="15.292735"><ele>124.0</ele><time>2026-05-02T11:17:26.845Z</time></trkpt><trkpt lat="40.6049083" lon="15.2926033"><ele>123.0</ele><time>2026-05-02T11:17:28.846Z</time></trkpt><trkpt lat="40.6049733" lon="15.29247"><ele>123.0</ele><time>2026-05-02T11:17:30.846Z</time></trkpt><trkpt lat="40.6050417" lon="15.2923367"><ele>123.00000000000001</ele><time>2026-05-02T11:17:32.845Z</time></trkpt><trkpt lat="40.60512" lon="15.2922283"><ele>123.00000000000001</ele><time>2026-05-02T11:17:34.845Z</time></trkpt><trkpt lat="40.6052217" lon="15.2921517"><ele>123.0</ele><time>2026-05-02T11:17:36.846Z</time></trkpt><trkpt lat="40.6052817" lon="15.292125"><ele>123.0</ele><time>2026-05-02T11:17:38.845Z</time></trkpt><trkpt lat="40.605355" lon="15.2921033"><ele>126.0</ele><time>2026-05-02T11:17:42.846Z</time></trkpt><trkpt lat="40.6054383" lon="15.2920967"><ele>129.0</ele><time>2026-05-02T11:17:45.845Z</time></trkpt><trkpt lat="40.6055283" lon="15.292075"><ele>132.0</ele><time>2026-05-02T11:17:56.845Z</time></trkpt><trkpt lat="40.60556" lon="15.2919533"><ele>135.0</ele><time>2026-05-02T11:17:59.846Z</time></trkpt><trkpt lat="40.6055567" lon="15.2918117"><ele>138.0</ele><time>2026-05-02T11:18:01.845Z</time></trkpt><trkpt lat="40.60555" lon="15.291665"><ele>138.0</ele><time>2026-05-02T11:18:03.845Z</time></trkpt><trkpt lat="40.60555" lon="15.2915067"><ele>138.0</ele><time>2026-05-02T11:18:05.846Z</time></trkpt><trkpt lat="40.6055817" lon="15.2913517"><ele>138.0</ele><time>2026-05-02T11:18:07.845Z</time></trkpt><trkpt lat="40.6056117" lon="15.2911933"><ele>138.0</ele><time>2026-05-02T11:18:09.845Z</time></trkpt><trkpt lat="40.6056517" lon="15.2910467"><ele>138.16666666666666</ele><time>2026-05-02T11:18:11.846Z</time></trkpt><trkpt lat="40.6056917" lon="15.2909167"><ele>138.33333333333334</ele><time>2026-05-02T11:18:13.846Z</time></trkpt><trkpt lat="40.6057083" lon="15.290795"><ele>138.5</ele><time>2026-05-02T11:18:15.845Z</time></trkpt><trkpt lat="40.6057133" lon="15.2906833"><ele>138.66666666666669</ele><time>2026-05-02T11:18:17.845Z</time></trkpt><trkpt lat="40.6056683" lon="15.2906017"><ele>138.83333333333334</ele><time>2026-05-02T11:18:19.845Z</time></trkpt><trkpt lat="40.6055967" lon="15.2905667"><ele>139.0</ele><time>2026-05-02T11:18:22.846Z</time></trkpt><trkpt lat="40.6055167" lon="15.2906383"><ele>138.0</ele><time>2026-05-02T11:18:48.846Z</time></trkpt><trkpt lat="40.605595" lon="15.290595"><ele>137.0</ele><time>2026-05-02T11:18:59.845Z</time></trkpt><trkpt lat="40.6056683" lon="15.2906283"><ele>136.0</ele><time>2026-05-02T11:19:02.846Z</time></trkpt><trkpt lat="40.6056883" lon="15.2907317"><ele>135.0</ele><time>2026-05-02T11:19:04.846Z</time></trkpt><trkpt lat="40.6056717" lon="15.2908533"><ele>134.0</ele><time>2026-05-02T11:19:06.846Z</time></trkpt><trkpt lat="40.605655" lon="15.2909933"><ele>133.0</ele><time>2026-05-02T11:19:08.845Z</time></trkpt><trkpt lat="40.6056233" lon="15.2911317"><ele>133.0</ele><time>2026-05-02T11:19:10.846Z</time></trkpt><trkpt lat="40.60559" lon="15.2912433"><ele>133.0</ele><time>2026-05-02T11:19:12.845Z</time></trkpt><trkpt lat="40.6055583" lon="15.2913617"><ele>133.0</ele><time>2026-05-02T11:19:14.845Z</time></trkpt><trkpt lat="40.60554" lon="15.2914917"><ele>133.0</ele><time>2026-05-02T11:19:16.846Z</time></trkpt><trkpt lat="40.6055233" lon="15.291625"><ele>133.0</ele><time>2026-05-02T11:19:18.846Z</time></trkpt><trkpt lat="40.6055267" lon="15.2917633"><ele>133.83333333333334</ele><time>2026-05-02T11:19:20.846Z</time></trkpt><trkpt lat="40.60553" lon="15.291885"><ele>134.66666666666669</ele><time>2026-05-02T11:19:22.845Z</time></trkpt><trkpt lat="40.6055233" lon="15.291995"><ele>135.5</ele><time>2026-05-02T11:19:24.846Z</time></trkpt><trkpt lat="40.605485" lon="15.292065"><ele>136.33333333333334</ele><time>2026-05-02T11:19:27.846Z</time></trkpt><trkpt lat="40.6053983" lon="15.29208"><ele>137.16666666666666</ele><time>2026-05-02T11:20:04.846Z</time></trkpt><trkpt lat="40.6052817" lon="15.29211"><ele>138.0</ele><time>2026-05-02T11:20:06.846Z</time></trkpt><trkpt lat="40.60518" lon="15.292155"><ele>135.0</ele><time>2026-05-02T11:20:08.846Z</time></trkpt><trkpt lat="40.60509" lon="15.292225"><ele>132.0</ele><time>2026-05-02T11:20:10.845Z</time></trkpt><trkpt lat="40.60503" lon="15.29233"><ele>129.0</ele><time>2026-05-02T11:20:12.845Z</time></trkpt><trkpt lat="40.6049883" lon="15.2924583"><ele>126.0</ele><time>2026-05-02T11:20:14.846Z</time></trkpt><trkpt lat="40.6049333" lon="15.2925667"><ele>123.0</ele><time>2026-05-02T11:20:16.846Z</time></trkpt><trkpt lat="40.6048683" lon="15.2926483"><ele>123.0</ele><time>2026-05-02T11:20:18.845Z</time></trkpt><trkpt lat="40.6047833" lon="15.2926583"><ele>123.0</ele><time>2026-05-02T11:20:20.846Z</time></trkpt><trkpt lat="40.6047083" lon="15.29264"><ele>123.0</ele><time>2026-05-02T11:20:22.845Z</time></trkpt><trkpt lat="40.6046367" lon="15.29261"><ele>123.0</ele><time>2026-05-02T11:20:24.845Z</time></trkpt><trkpt lat="40.6045633" lon="15.29258"><ele>123.0</ele><time>2026-05-02T11:20:26.845Z</time></trkpt><trkpt lat="40.6044883" lon="15.2925567"><ele>123.0</ele><time>2026-05-02T11:20:28.846Z</time></trkpt><trkpt lat="40.6044233" lon="15.29253"><ele>124.4</ele><time>2026-05-02T11:20:30.845Z</time></trkpt><trkpt lat="40.6043617" lon="15.2925033"><ele>125.80000000000001</ele><time>2026-05-02T11:20:32.846Z</time></trkpt><trkpt lat="40.6043" lon="15.2924833"><ele>127.2</ele><time>2026-05-02T11:20:34.846Z</time></trkpt><trkpt lat="40.6042133" lon="15.2924417"><ele>128.6</ele><time>2026-05-02T11:20:36.846Z</time></trkpt><trkpt lat="40.6041533" lon="15.2923267"><ele>130.0</ele><time>2026-05-02T11:20:38.845Z</time></trkpt><trkpt lat="40.6041767" lon="15.2921667"><ele>131.5</ele><time>2026-05-02T11:20:40.846Z</time></trkpt><trkpt lat="40.6042017" lon="15.2920733"><ele>133.0</ele><time>2026-05-02T11:20:41.845Z</time></trkpt><trkpt lat="40.60423" lon="15.2919767"><ele>134.5</ele><time>2026-05-02T11:20:42.845Z</time></trkpt><trkpt lat="40.604255" lon="15.2918833"><ele>136.0</ele><time>2026-05-02T11:20:43.845Z</time></trkpt><trkpt lat="40.6042817" lon="15.2917883"><ele>137.5</ele><time>2026-05-02T11:20:44.845Z</time></trkpt><trkpt lat="40.6043167" lon="15.2916917"><ele>139.0</ele><time>2026-05-02T11:20:45.846Z</time></trkpt><trkpt lat="40.6043567" lon="15.2915833"><ele>139.0</ele><time>2026-05-02T11:20:46.845Z</time></trkpt><trkpt lat="40.6044" lon="15.29148"><ele>139.0</ele><time>2026-05-02T11:20:47.845Z</time></trkpt><trkpt lat="40.6044333" lon="15.29137"><ele>139.0</ele><time>2026-05-02T11:20:48.846Z</time></trkpt><trkpt lat="40.6044533" lon="15.2912583"><ele>139.0</ele><time>2026-05-02T11:20:49.845Z</time></trkpt><trkpt lat="40.6044533" lon="15.2911383"><ele>139.0</ele><time>2026-05-02T11:20:50.845Z</time></trkpt><trkpt lat="40.6044367" lon="15.2910183"><ele>139.0</ele><time>2026-05-02T11:20:51.846Z</time></trkpt><trkpt lat="40.6044167" lon="15.2908983"><ele>139.0</ele><time>2026-05-02T11:20:52.845Z</time></trkpt><trkpt lat="40.60438" lon="15.290785"><ele>139.0</ele><time>2026-05-02T11:20:53.846Z</time></trkpt><trkpt lat="40.6043483" lon="15.2906667"><ele>139.0</ele><time>2026-05-02T11:20:54.845Z</time></trkpt><trkpt lat="40.6043333" lon="15.2905367"><ele>139.0</ele><time>2026-05-02T11:20:55.846Z</time></trkpt><trkpt lat="40.6043233" lon="15.2904067"><ele>139.0</ele><time>2026-05-02T11:20:56.845Z</time></trkpt><trkpt lat="40.6043183" lon="15.2902833"><ele>139.0</ele><time>2026-05-02T11:20:57.846Z</time></trkpt><trkpt lat="40.60432" lon="15.290165"><ele>139.0</ele><time>2026-05-02T11:20:58.845Z</time></trkpt><trkpt lat="40.6043167" lon="15.29004"><ele>139.0</ele><time>2026-05-02T11:20:59.846Z</time></trkpt><trkpt lat="40.6043233" lon="15.2899167"><ele>139.0</ele><time>2026-05-02T11:21:00.846Z</time></trkpt><trkpt lat="40.6043217" lon="15.28979"><ele>139.2</ele><time>2026-05-02T11:21:01.845Z</time></trkpt><trkpt lat="40.6043133" lon="15.289665"><ele>139.4</ele><time>2026-05-02T11:21:02.846Z</time></trkpt><trkpt lat="40.60429" lon="15.2895367"><ele>139.6</ele><time>2026-05-02T11:21:03.846Z</time></trkpt><trkpt lat="40.6042667" lon="15.2893917"><ele>139.8</ele><time>2026-05-02T11:21:04.845Z</time></trkpt><trkpt lat="40.6042483" lon="15.2892367"><ele>140.0</ele><time>2026-05-02T11:21:05.845Z</time></trkpt><trkpt lat="40.60425" lon="15.2890917"><ele>140.0</ele><time>2026-05-02T11:21:06.845Z</time></trkpt><trkpt lat="40.604245" lon="15.28895"><ele>140.0</ele><time>2026-05-02T11:21:07.845Z</time></trkpt><trkpt lat="40.6042483" lon="15.2888067"><ele>140.0</ele><time>2026-05-02T11:21:08.846Z</time></trkpt><trkpt lat="40.6042533" lon="15.288665"><ele>140.0</ele><time>2026-05-02T11:21:09.845Z</time></trkpt><trkpt lat="40.604265" lon="15.2885117"><ele>140.0</ele><time>2026-05-02T11:21:10.845Z</time></trkpt><trkpt lat="40.6042667" lon="15.2883717"><ele>138.66666666666666</ele><time>2026-05-02T11:21:11.845Z</time></trkpt><trkpt lat="40.604275" lon="15.2882467"><ele>137.33333333333331</ele><time>2026-05-02T11:21:12.845Z</time></trkpt><trkpt lat="40.604275" lon="15.2881383"><ele>136.0</ele><time>2026-05-02T11:21:13.845Z</time></trkpt><trkpt lat="40.60426" lon="15.2880433"><ele>134.66666666666666</ele><time>2026-05-02T11:21:14.846Z</time></trkpt><trkpt lat="40.6042233" lon="15.28792"><ele>133.33333333333334</ele><time>2026-05-02T11:21:16.846Z</time></trkpt><trkpt lat="40.604135" lon="15.2878817"><ele>132.0</ele><time>2026-05-02T11:21:28.846Z</time></trkpt><trkpt lat="40.6040317" lon="15.28797"><ele>132.0</ele><time>2026-05-02T11:21:30.845Z</time></trkpt><trkpt lat="40.6039667" lon="15.28809"><ele>132.0</ele><time>2026-05-02T11:21:31.845Z</time></trkpt><trkpt lat="40.6038917" lon="15.2882433"><ele>132.0</ele><time>2026-05-02T11:21:32.845Z</time></trkpt><trkpt lat="40.6038033" lon="15.2884"><ele>132.0</ele><time>2026-05-02T11:21:33.846Z</time></trkpt><trkpt lat="40.6037133" lon="15.28854"><ele>132.75</ele><time>2026-05-02T11:21:34.845Z</time></trkpt><trkpt lat="40.6036133" lon="15.28865"><ele>133.5</ele><time>2026-05-02T11:21:35.845Z</time></trkpt><trkpt lat="40.6035083" lon="15.28874"><ele>134.25</ele><time>2026-05-02T11:21:36.846Z</time></trkpt><trkpt lat="40.6033883" lon="15.2887967"><ele>135.0</ele><time>2026-05-02T11:21:37.845Z</time></trkpt><trkpt lat="40.60327" lon="15.288845"><ele>135.0</ele><time>2026-05-02T11:21:38.845Z</time></trkpt><trkpt lat="40.6031383" lon="15.2888633"><ele>135.0</ele><time>2026-05-02T11:21:39.846Z</time></trkpt><trkpt lat="40.6030133" lon="15.2888333"><ele>135.0</ele><time>2026-05-02T11:21:40.845Z</time></trkpt><trkpt lat="40.60288" lon="15.28878"><ele>135.0</ele><time>2026-05-02T11:21:41.845Z</time></trkpt><trkpt lat="40.6027317" lon="15.2887083"><ele>139.0</ele><time>2026-05-02T11:21:42.845Z</time></trkpt><trkpt lat="40.6025683" lon="15.2886083"><ele>143.0</ele><time>2026-05-02T11:21:43.846Z</time></trkpt><trkpt lat="40.6024183" lon="15.2884917"><ele>147.0</ele><time>2026-05-02T11:21:44.845Z</time></trkpt><trkpt lat="40.602305" lon="15.2883617"><ele>147.0</ele><time>2026-05-02T11:21:45.845Z</time></trkpt><trkpt lat="40.602215" lon="15.288235"><ele>147.0</ele><time>2026-05-02T11:21:46.846Z</time></trkpt><trkpt lat="40.60213" lon="15.288125"><ele>147.0</ele><time>2026-05-02T11:21:47.845Z</time></trkpt><trkpt lat="40.6020383" lon="15.2880683"><ele>147.0</ele><time>2026-05-02T11:21:48.846Z</time></trkpt><trkpt lat="40.6019467" lon="15.28807"><ele>147.0</ele><time>2026-05-02T11:21:49.846Z</time></trkpt><trkpt lat="40.601855" lon="15.2881317"><ele>150.5</ele><time>2026-05-02T11:21:50.846Z</time></trkpt><trkpt lat="40.601755" lon="15.288225"><ele>154.0</ele><time>2026-05-02T11:21:51.846Z</time></trkpt><trkpt lat="40.6016633" lon="15.28831"><ele>157.5</ele><time>2026-05-02T11:21:52.846Z</time></trkpt><trkpt lat="40.601555" lon="15.2883467"><ele>161.0</ele><time>2026-05-02T11:21:53.845Z</time></trkpt><trkpt lat="40.60144" lon="15.2883233"><ele>161.0</ele><time>2026-05-02T11:21:54.846Z</time></trkpt><trkpt lat="40.601325" lon="15.28826"><ele>161.0</ele><time>2026-05-02T11:21:55.845Z</time></trkpt><trkpt lat="40.6012" lon="15.2881967"><ele>161.0</ele><time>2026-05-02T11:21:56.846Z</time></trkpt><trkpt lat="40.6010633" lon="15.2881733"><ele>161.0</ele><time>2026-05-02T11:21:57.845Z</time></trkpt><trkpt lat="40.6009067" lon="15.2881917"><ele>164.0</ele><time>2026-05-02T11:21:58.846Z</time></trkpt><trkpt lat="40.6007417" lon="15.28822"><ele>167.0</ele><time>2026-05-02T11:21:59.846Z</time></trkpt><trkpt lat="40.6005583" lon="15.2882183"><ele>170.0</ele><time>2026-05-02T11:22:00.845Z</time></trkpt><trkpt lat="40.6003633" lon="15.2882"><ele>171.0</ele><time>2026-05-02T11:22:01.846Z</time></trkpt><trkpt lat="40.6001717" lon="15.288215"><ele>172.0</ele><time>2026-05-02T11:22:02.846Z</time></trkpt><trkpt lat="40.599995" lon="15.2882583"><ele>173.0</ele><time>2026-05-02T11:22:03.846Z</time></trkpt><trkpt lat="40.5998433" lon="15.288315"><ele>173.0</ele><time>2026-05-02T11:22:04.846Z</time></trkpt><trkpt lat="40.5997033" lon="15.2884167"><ele>173.0</ele><time>2026-05-02T11:22:05.846Z</time></trkpt><trkpt lat="40.5995767" lon="15.2885517"><ele>173.0</ele><time>2026-05-02T11:22:06.846Z</time></trkpt><trkpt lat="40.599465" lon="15.2886817"><ele>173.66666666666666</ele><time>2026-05-02T11:22:07.846Z</time></trkpt><trkpt lat="40.59934" lon="15.2887683"><ele>174.33333333333334</ele><time>2026-05-02T11:22:08.845Z</time></trkpt><trkpt lat="40.5991783" lon="15.2888283"><ele>175.0</ele><time>2026-05-02T11:22:09.845Z</time></trkpt><trkpt lat="40.59902" lon="15.288905"><ele>178.33333333333334</ele><time>2026-05-02T11:22:10.846Z</time></trkpt><trkpt lat="40.598865" lon="15.2890183"><ele>181.66666666666666</ele><time>2026-05-02T11:22:11.845Z</time></trkpt><trkpt lat="40.5987233" lon="15.2891383"><ele>185.0</ele><time>2026-05-02T11:22:12.845Z</time></trkpt><trkpt lat="40.598595" lon="15.28924"><ele>185.0</ele><time>2026-05-02T11:22:13.846Z</time></trkpt><trkpt lat="40.598495" lon="15.2893483"><ele>185.0</ele><time>2026-05-02T11:22:14.845Z</time></trkpt><trkpt lat="40.5984217" lon="15.2894833"><ele>185.0</ele><time>2026-05-02T11:22:15.846Z</time></trkpt><trkpt lat="40.59835" lon="15.2896517"><ele>185.0</ele><time>2026-05-02T11:22:16.846Z</time></trkpt><trkpt lat="40.59827" lon="15.2898283"><ele>186.66666666666666</ele><time>2026-05-02T11:22:17.846Z</time></trkpt><trkpt lat="40.59815" lon="15.289985"><ele>188.33333333333334</ele><time>2026-05-02T11:22:18.846Z</time></trkpt><trkpt lat="40.5980383" lon="15.2901733"><ele>190.0</ele><time>2026-05-02T11:22:19.846Z</time></trkpt><trkpt lat="40.59794" lon="15.2903933"><ele>191.33333333333334</ele><time>2026-05-02T11:22:20.845Z</time></trkpt><trkpt lat="40.5978483" lon="15.290625"><ele>192.66666666666669</ele><time>2026-05-02T11:22:21.846Z</time></trkpt><trkpt lat="40.5977633" lon="15.290845"><ele>194.0</ele><time>2026-05-02T11:22:22.846Z</time></trkpt><trkpt lat="40.5976867" lon="15.29105"><ele>194.0</ele><time>2026-05-02T11:22:23.846Z</time></trkpt><trkpt lat="40.5976117" lon="15.29123"><ele>194.0</ele><time>2026-05-02T11:22:24.846Z</time></trkpt><trkpt lat="40.597545" lon="15.2913867"><ele>194.0</ele><time>2026-05-02T11:22:25.845Z</time></trkpt><trkpt lat="40.59748" lon="15.2915133"><ele>194.0</ele><time>2026-05-02T11:22:26.846Z</time></trkpt><trkpt lat="40.5973917" lon="15.2916033"><ele>195.2</ele><time>2026-05-02T11:22:27.846Z</time></trkpt><trkpt lat="40.5972767" lon="15.29165"><ele>196.39999999999998</ele><time>2026-05-02T11:22:28.846Z</time></trkpt><trkpt lat="40.5971467" lon="15.2916833"><ele>197.6</ele><time>2026-05-02T11:22:29.846Z</time></trkpt><trkpt lat="40.5970367" lon="15.2917033"><ele>198.8</ele><time>2026-05-02T11:22:30.846Z</time></trkpt><trkpt lat="40.5969567" lon="15.2916717"><ele>200.0</ele><time>2026-05-02T11:22:31.845Z</time></trkpt><trkpt lat="40.5968983" lon="15.2916017"><ele>200.4</ele><time>2026-05-02T11:22:32.844Z</time></trkpt><trkpt lat="40.59688" lon="15.2915083"><ele>200.8</ele><time>2026-05-02T11:22:33.844Z</time></trkpt><trkpt lat="40.5969117" lon="15.2913833"><ele>201.2</ele><time>2026-05-02T11:22:34.845Z</time></trkpt><trkpt lat="40.59695" lon="15.29123"><ele>201.6</ele><time>2026-05-02T11:22:35.844Z</time></trkpt><trkpt lat="40.59698" lon="15.2910667"><ele>202.0</ele><time>2026-05-02T11:22:36.844Z</time></trkpt><trkpt lat="40.5969933" lon="15.2909083"><ele>202.0</ele><time>2026-05-02T11:22:37.844Z</time></trkpt><trkpt lat="40.5969717" lon="15.2907533"><ele>202.0</ele><time>2026-05-02T11:22:38.844Z</time></trkpt><trkpt lat="40.5969183" lon="15.2906067"><ele>202.0</ele><time>2026-05-02T11:22:39.845Z</time></trkpt><trkpt lat="40.5968367" lon="15.2904717"><ele>202.0</ele><time>2026-05-02T11:22:40.844Z</time></trkpt><trkpt lat="40.5967467" lon="15.290335"><ele>202.0</ele><time>2026-05-02T11:22:41.845Z</time></trkpt><trkpt lat="40.59667" lon="15.29017"><ele>202.0</ele><time>2026-05-02T11:22:42.845Z</time></trkpt><trkpt lat="40.59662" lon="15.2899833"><ele>202.0</ele><time>2026-05-02T11:22:43.844Z</time></trkpt><trkpt lat="40.59659" lon="15.289785"><ele>203.2</ele><time>2026-05-02T11:22:44.845Z</time></trkpt><trkpt lat="40.5965717" lon="15.2896"><ele>204.39999999999998</ele><time>2026-05-02T11:22:45.845Z</time></trkpt><trkpt lat="40.5965483" lon="15.2894533"><ele>205.60000000000002</ele><time>2026-05-02T11:22:46.844Z</time></trkpt><trkpt lat="40.5964917" lon="15.2893533"><ele>206.8</ele><time>2026-05-02T11:22:47.844Z</time></trkpt><trkpt lat="40.596405" lon="15.2893033"><ele>208.0</ele><time>2026-05-02T11:22:48.844Z</time></trkpt><trkpt lat="40.596295" lon="15.28931"><ele>208.5</ele><time>2026-05-02T11:22:49.844Z</time></trkpt><trkpt lat="40.5961617" lon="15.2893433"><ele>209.0</ele><time>2026-05-02T11:22:50.844Z</time></trkpt><trkpt lat="40.5960183" lon="15.2893833"><ele>209.5</ele><time>2026-05-02T11:22:51.844Z</time></trkpt><trkpt lat="40.59587" lon="15.2894267"><ele>210.0</ele><time>2026-05-02T11:22:52.844Z</time></trkpt><trkpt lat="40.5957183" lon="15.28948"><ele>210.0</ele><time>2026-05-02T11:22:53.844Z</time></trkpt><trkpt lat="40.5955633" lon="15.28953"><ele>210.0</ele><time>2026-05-02T11:22:54.845Z</time></trkpt><trkpt lat="40.5953983" lon="15.2895717"><ele>210.0</ele><time>2026-05-02T11:22:55.845Z</time></trkpt><trkpt lat="40.5952317" lon="15.2896133"><ele>211.33333333333331</ele><time>2026-05-02T11:22:56.845Z</time></trkpt><trkpt lat="40.5950667" lon="15.2896433"><ele>212.66666666666666</ele><time>2026-05-02T11:22:57.845Z</time></trkpt><trkpt lat="40.5949" lon="15.28965"><ele>214.0</ele><time>2026-05-02T11:22:58.845Z</time></trkpt><trkpt lat="40.594725" lon="15.2896533"><ele>214.0</ele><time>2026-05-02T11:22:59.844Z</time></trkpt><trkpt lat="40.5945417" lon="15.289655"><ele>214.0</ele><time>2026-05-02T11:23:00.844Z</time></trkpt><trkpt lat="40.59436" lon="15.2896667"><ele>214.0</ele><time>2026-05-02T11:23:01.844Z</time></trkpt><trkpt lat="40.5941967" lon="15.289665"><ele>215.25</ele><time>2026-05-02T11:23:02.845Z</time></trkpt><trkpt lat="40.59405" lon="15.28963"><ele>216.5</ele><time>2026-05-02T11:23:03.845Z</time></trkpt><trkpt lat="40.59392" lon="15.289555"><ele>217.75</ele><time>2026-05-02T11:23:04.845Z</time></trkpt><trkpt lat="40.5938" lon="15.2894567"><ele>219.0</ele><time>2026-05-02T11:23:05.845Z</time></trkpt><trkpt lat="40.5936733" lon="15.2893617"><ele>221.25</ele><time>2026-05-02T11:23:06.845Z</time></trkpt><trkpt lat="40.59353" lon="15.2893117"><ele>223.5</ele><time>2026-05-02T11:23:07.845Z</time></trkpt><trkpt lat="40.5933783" lon="15.2892983"><ele>225.75</ele><time>2026-05-02T11:23:08.844Z</time></trkpt><trkpt lat="40.5932333" lon="15.28931"><ele>228.0</ele><time>2026-05-02T11:23:09.844Z</time></trkpt><trkpt lat="40.5930933" lon="15.2893283"><ele>228.0</ele><time>2026-05-02T11:23:10.844Z</time></trkpt><trkpt lat="40.5929767" lon="15.2893017"><ele>228.0</ele><time>2026-05-02T11:23:11.845Z</time></trkpt><trkpt lat="40.59288" lon="15.2892133"><ele>228.0</ele><time>2026-05-02T11:23:12.844Z</time></trkpt><trkpt lat="40.5927983" lon="15.2890767"><ele>228.0</ele><time>2026-05-02T11:23:13.845Z</time></trkpt><trkpt lat="40.59273" lon="15.2889467"><ele>228.0</ele><time>2026-05-02T11:23:14.845Z</time></trkpt><trkpt lat="40.592635" lon="15.288855"><ele>228.0</ele><time>2026-05-02T11:23:15.844Z</time></trkpt><trkpt lat="40.59252" lon="15.2888183"><ele>228.0</ele><time>2026-05-02T11:23:16.844Z</time></trkpt><trkpt lat="40.5923883" lon="15.28882"><ele>228.0</ele><time>2026-05-02T11:23:17.845Z</time></trkpt><trkpt lat="40.592245" lon="15.2888167"><ele>228.0</ele><time>2026-05-02T11:23:18.845Z</time></trkpt><trkpt lat="40.5920983" lon="15.2887917"><ele>228.0</ele><time>2026-05-02T11:23:19.845Z</time></trkpt><trkpt lat="40.591955" lon="15.288795"><ele>228.0</ele><time>2026-05-02T11:23:20.845Z</time></trkpt><trkpt lat="40.59183" lon="15.2888117"><ele>228.0</ele><time>2026-05-02T11:23:21.844Z</time></trkpt><trkpt lat="40.5917183" lon="15.2888033"><ele>230.4</ele><time>2026-05-02T11:23:22.845Z</time></trkpt><trkpt lat="40.59163" lon="15.2887433"><ele>232.8</ele><time>2026-05-02T11:23:23.845Z</time></trkpt><trkpt lat="40.5915767" lon="15.2886433"><ele>235.2</ele><time>2026-05-02T11:23:24.845Z</time></trkpt><trkpt lat="40.59154" lon="15.288505"><ele>237.6</ele><time>2026-05-02T11:23:25.844Z</time></trkpt><trkpt lat="40.591505" lon="15.2883383"><ele>240.0</ele><time>2026-05-02T11:23:26.845Z</time></trkpt><trkpt lat="40.591465" lon="15.2881433"><ele>239.0</ele><time>2026-05-02T11:23:27.845Z</time></trkpt><trkpt lat="40.5914267" lon="15.28794"><ele>238.0</ele><time>2026-05-02T11:23:28.845Z</time></trkpt><trkpt lat="40.5914083" lon="15.2877567"><ele>237.0</ele><time>2026-05-02T11:23:29.844Z</time></trkpt><trkpt lat="40.5913967" lon="15.2875983"><ele>236.0</ele><time>2026-05-02T11:23:30.844Z</time></trkpt><trkpt lat="40.5913667" lon="15.2874817"><ele>236.0</ele><time>2026-05-02T11:23:31.845Z</time></trkpt><trkpt lat="40.5913067" lon="15.2874083"><ele>236.00000000000003</ele><time>2026-05-02T11:23:32.845Z</time></trkpt><trkpt lat="40.5912233" lon="15.287385"><ele>236.00000000000003</ele><time>2026-05-02T11:23:33.845Z</time></trkpt><trkpt lat="40.59112" lon="15.2874217"><ele>236.0</ele><time>2026-05-02T11:23:34.844Z</time></trkpt><trkpt lat="40.5909917" lon="15.2874933"><ele>236.0</ele><time>2026-05-02T11:23:35.844Z</time></trkpt><trkpt lat="40.5908533" lon="15.28757"><ele>240.33333333333334</ele><time>2026-05-02T11:23:36.845Z</time></trkpt><trkpt lat="40.59069" lon="15.2876533"><ele>244.66666666666669</ele><time>2026-05-02T11:23:37.845Z</time></trkpt><trkpt lat="40.5905233" lon="15.287735"><ele>249.0</ele><time>2026-05-02T11:23:38.845Z</time></trkpt><trkpt lat="40.5903633" lon="15.2878133"><ele>249.75</ele><time>2026-05-02T11:23:39.845Z</time></trkpt><trkpt lat="40.59023" lon="15.28787"><ele>250.5</ele><time>2026-05-02T11:23:40.844Z</time></trkpt><trkpt lat="40.5901033" lon="15.2879"><ele>251.25</ele><time>2026-05-02T11:23:41.845Z</time></trkpt><trkpt lat="40.5899617" lon="15.2878967"><ele>252.0</ele><time>2026-05-02T11:23:42.845Z</time></trkpt><trkpt lat="40.5898183" lon="15.287865"><ele>252.0</ele><time>2026-05-02T11:23:43.844Z</time></trkpt><trkpt lat="40.5896867" lon="15.2878083"><ele>252.0</ele><time>2026-05-02T11:23:44.845Z</time></trkpt><trkpt lat="40.5895717" lon="15.2877017"><ele>252.0</ele><time>2026-05-02T11:23:45.844Z</time></trkpt><trkpt lat="40.5894633" lon="15.28759"><ele>252.0</ele><time>2026-05-02T11:23:46.844Z</time></trkpt><trkpt lat="40.5893417" lon="15.2875317"><ele>253.5</ele><time>2026-05-02T11:23:47.845Z</time></trkpt><trkpt lat="40.5892133" lon="15.28754"><ele>255.0</ele><time>2026-05-02T11:23:48.845Z</time></trkpt><trkpt lat="40.5890917" lon="15.2876033"><ele>256.5</ele><time>2026-05-02T11:23:49.844Z</time></trkpt><trkpt lat="40.5889683" lon="15.2877167"><ele>258.0</ele><time>2026-05-02T11:23:50.845Z</time></trkpt><trkpt lat="40.5888333" lon="15.2878517"><ele>259.6666666666667</ele><time>2026-05-02T11:23:51.845Z</time></trkpt><trkpt lat="40.5886733" lon="15.2879833"><ele>261.33333333333337</ele><time>2026-05-02T11:23:52.844Z</time></trkpt><trkpt lat="40.588495" lon="15.2881067"><ele>263.0</ele><time>2026-05-02T11:23:53.844Z</time></trkpt><trkpt lat="40.588315" lon="15.288235"><ele>266.6666666666667</ele><time>2026-05-02T11:23:54.845Z</time></trkpt><trkpt lat="40.58814" lon="15.28834"><ele>270.3333333333333</ele><time>2026-05-02T11:23:55.845Z</time></trkpt><trkpt lat="40.587975" lon="15.2884383"><ele>274.0</ele><time>2026-05-02T11:23:56.845Z</time></trkpt><trkpt lat="40.5878383" lon="15.288515"><ele>275.0</ele><time>2026-05-02T11:23:57.845Z</time></trkpt><trkpt lat="40.587725" lon="15.288565"><ele>276.0</ele><time>2026-05-02T11:23:58.845Z</time></trkpt><trkpt lat="40.587605" lon="15.28855"><ele>277.0</ele><time>2026-05-02T11:23:59.845Z</time></trkpt><trkpt lat="40.587495" lon="15.2884817"><ele>278.0</ele><time>2026-05-02T11:24:00.844Z</time></trkpt><trkpt lat="40.5873867" lon="15.28838"><ele>278.0</ele><time>2026-05-02T11:24:01.844Z</time></trkpt><trkpt lat="40.587275" lon="15.2882767"><ele>278.0</ele><time>2026-05-02T11:24:02.844Z</time></trkpt><trkpt lat="40.5871417" lon="15.2882033"><ele>278.0</ele><time>2026-05-02T11:24:03.845Z</time></trkpt><trkpt lat="40.5869867" lon="15.28818"><ele>278.0</ele><time>2026-05-02T11:24:04.845Z</time></trkpt><trkpt lat="40.586815" lon="15.28818"><ele>279.0</ele><time>2026-05-02T11:24:05.844Z</time></trkpt><trkpt lat="40.58663" lon="15.2881983"><ele>280.0</ele><time>2026-05-02T11:24:06.845Z</time></trkpt><trkpt lat="40.58645" lon="15.28821"><ele>281.0</ele><time>2026-05-02T11:24:07.844Z</time></trkpt><trkpt lat="40.5862967" lon="15.28822"><ele>281.0</ele><time>2026-05-02T11:24:08.845Z</time></trkpt><trkpt lat="40.586155" lon="15.2882467"><ele>281.0</ele><time>2026-05-02T11:24:09.845Z</time></trkpt><trkpt lat="40.5860183" lon="15.28831"><ele>281.0</ele><time>2026-05-02T11:24:10.845Z</time></trkpt><trkpt lat="40.5858867" lon="15.288405"><ele>281.0</ele><time>2026-05-02T11:24:11.844Z</time></trkpt><trkpt lat="40.5857617" lon="15.2885317"><ele>281.0</ele><time>2026-05-02T11:24:12.844Z</time></trkpt><trkpt lat="40.5856733" lon="15.2886633"><ele>281.0</ele><time>2026-05-02T11:24:13.845Z</time></trkpt><trkpt lat="40.5856083" lon="15.2888317"><ele>281.0</ele><time>2026-05-02T11:24:14.844Z</time></trkpt><trkpt lat="40.5855567" lon="15.289025"><ele>281.0</ele><time>2026-05-02T11:24:15.844Z</time></trkpt><trkpt lat="40.585515" lon="15.289225"><ele>282.75</ele><time>2026-05-02T11:24:16.845Z</time></trkpt><trkpt lat="40.5854833" lon="15.2894033"><ele>284.5</ele><time>2026-05-02T11:24:17.844Z</time></trkpt><trkpt lat="40.5854367" lon="15.2895617"><ele>286.25</ele><time>2026-05-02T11:24:18.844Z</time></trkpt><trkpt lat="40.5853683" lon="15.2897017"><ele>288.0</ele><time>2026-05-02T11:24:19.845Z</time></trkpt><trkpt lat="40.5852667" lon="15.289805"><ele>288.0</ele><time>2026-05-02T11:24:20.845Z</time></trkpt><trkpt lat="40.5851517" lon="15.28989"><ele>288.0</ele><time>2026-05-02T11:24:21.844Z</time></trkpt><trkpt lat="40.5850433" lon="15.289965"><ele>288.0</ele><time>2026-05-02T11:24:22.844Z</time></trkpt><trkpt lat="40.5849467" lon="15.2900333"><ele>288.0</ele><time>2026-05-02T11:24:23.844Z</time></trkpt><trkpt lat="40.5848633" lon="15.2900983"><ele>288.0</ele><time>2026-05-02T11:24:24.844Z</time></trkpt><trkpt lat="40.5847933" lon="15.290155"><ele>288.0</ele><time>2026-05-02T11:24:25.844Z</time></trkpt><trkpt lat="40.5847233" lon="15.2902917"><ele>288.0</ele><time>2026-05-02T11:24:27.844Z</time></trkpt><trkpt lat="40.5847117" lon="15.2904083"><ele>288.0</ele><time>2026-05-02T11:24:28.845Z</time></trkpt><trkpt lat="40.5847" lon="15.2905617"><ele>288.0</ele><time>2026-05-02T11:24:29.844Z</time></trkpt><trkpt lat="40.584675" lon="15.2907517"><ele>289.0</ele><time>2026-05-02T11:24:30.844Z</time></trkpt><trkpt lat="40.58464" lon="15.2909633"><ele>290.0</ele><time>2026-05-02T11:24:31.845Z</time></trkpt><trkpt lat="40.5845967" lon="15.29118"><ele>291.0</ele><time>2026-05-02T11:24:32.845Z</time></trkpt><trkpt lat="40.5845517" lon="15.291395"><ele>290.0</ele><time>2026-05-02T11:24:33.845Z</time></trkpt><trkpt lat="40.5845017" lon="15.2916167"><ele>289.0</ele><time>2026-05-02T11:24:34.844Z</time></trkpt><trkpt lat="40.584445" lon="15.291855"><ele>288.0</ele><time>2026-05-02T11:24:35.845Z</time></trkpt><trkpt lat="40.5843883" lon="15.292095"><ele>289.0</ele><time>2026-05-02T11:24:36.844Z</time></trkpt><trkpt lat="40.5843383" lon="15.292325"><ele>290.0</ele><time>2026-05-02T11:24:37.845Z</time></trkpt><trkpt lat="40.58429" lon="15.2925283"><ele>291.0</ele><time>2026-05-02T11:24:38.844Z</time></trkpt><trkpt lat="40.5842533" lon="15.2927183"><ele>291.0</ele><time>2026-05-02T11:24:39.845Z</time></trkpt><trkpt lat="40.584215" lon="15.2928983"><ele>291.0</ele><time>2026-05-02T11:24:40.844Z</time></trkpt><trkpt lat="40.5841783" lon="15.2930683"><ele>291.0</ele><time>2026-05-02T11:24:41.844Z</time></trkpt><trkpt lat="40.5841483" lon="15.29321"><ele>291.0</ele><time>2026-05-02T11:24:42.844Z</time></trkpt><trkpt lat="40.5841317" lon="15.293325"><ele>290.75</ele><time>2026-05-02T11:24:43.844Z</time></trkpt><trkpt lat="40.5840867" lon="15.29345"><ele>290.5</ele><time>2026-05-02T11:24:45.845Z</time></trkpt><trkpt lat="40.5839533" lon="15.293485"><ele>290.25</ele><time>2026-05-02T11:24:47.844Z</time></trkpt><trkpt lat="40.5838467" lon="15.2934817"><ele>290.0</ele><time>2026-05-02T11:24:48.845Z</time></trkpt><trkpt lat="40.5837283" lon="15.29347"><ele>288.0</ele><time>2026-05-02T11:24:49.845Z</time></trkpt><trkpt lat="40.5836117" lon="15.2934483"><ele>286.0</ele><time>2026-05-02T11:24:50.844Z</time></trkpt><trkpt lat="40.5834917" lon="15.2934217"><ele>284.0</ele><time>2026-05-02T11:24:51.844Z</time></trkpt><trkpt lat="40.58337" lon="15.2933933"><ele>282.0</ele><time>2026-05-02T11:24:52.844Z</time></trkpt><trkpt lat="40.583255" lon="15.2933583"><ele>282.0</ele><time>2026-05-02T11:24:53.844Z</time></trkpt><trkpt lat="40.5831333" lon="15.293325"><ele>282.0</ele><time>2026-05-02T11:24:54.844Z</time></trkpt><trkpt lat="40.5830117" lon="15.2932817"><ele>282.0</ele><time>2026-05-02T11:24:55.845Z</time></trkpt><trkpt lat="40.5828933" lon="15.2932317"><ele>282.0</ele><time>2026-05-02T11:24:56.845Z</time></trkpt><trkpt lat="40.582765" lon="15.293195"><ele>280.75</ele><time>2026-05-02T11:24:57.844Z</time></trkpt><trkpt lat="40.5826433" lon="15.2931733"><ele>279.5</ele><time>2026-05-02T11:24:58.844Z</time></trkpt><trkpt lat="40.58252" lon="15.293175"><ele>278.25</ele><time>2026-05-02T11:24:59.845Z</time></trkpt><trkpt lat="40.582395" lon="15.2931933"><ele>277.0</ele><time>2026-05-02T11:25:00.845Z</time></trkpt><trkpt lat="40.5822583" lon="15.2932117"><ele>277.0</ele><time>2026-05-02T11:25:01.844Z</time></trkpt><trkpt lat="40.5821267" lon="15.2932167"><ele>277.0</ele><time>2026-05-02T11:25:02.844Z</time></trkpt><trkpt lat="40.5820033" lon="15.293225"><ele>277.0</ele><time>2026-05-02T11:25:03.845Z</time></trkpt><trkpt lat="40.5818883" lon="15.293235"><ele>277.0</ele><time>2026-05-02T11:25:04.844Z</time></trkpt><trkpt lat="40.5817567" lon="15.2932433"><ele>277.0</ele><time>2026-05-02T11:25:05.844Z</time></trkpt><trkpt lat="40.5816233" lon="15.2932533"><ele>277.0</ele><time>2026-05-02T11:25:06.845Z</time></trkpt><trkpt lat="40.581495" lon="15.2932633"><ele>277.0</ele><time>2026-05-02T11:25:07.844Z</time></trkpt><trkpt lat="40.5813633" lon="15.2932667"><ele>277.0</ele><time>2026-05-02T11:25:08.845Z</time></trkpt><trkpt lat="40.5812267" lon="15.2932683"><ele>275.3333333333333</ele><time>2026-05-02T11:25:09.844Z</time></trkpt><trkpt lat="40.5810717" lon="15.293265"><ele>273.6666666666667</ele><time>2026-05-02T11:25:10.844Z</time></trkpt><trkpt lat="40.5809167" lon="15.2932533"><ele>272.0</ele><time>2026-05-02T11:25:11.845Z</time></trkpt><trkpt lat="40.5807483" lon="15.2932417"><ele>272.0</ele><time>2026-05-02T11:25:12.844Z</time></trkpt><trkpt lat="40.580575" lon="15.2932267"><ele>272.0</ele><time>2026-05-02T11:25:13.844Z</time></trkpt><trkpt lat="40.5804" lon="15.29322"><ele>272.0</ele><time>2026-05-02T11:25:14.845Z</time></trkpt><trkpt lat="40.5802317" lon="15.293215"><ele>271.33333333333337</ele><time>2026-05-02T11:25:15.845Z</time></trkpt><trkpt lat="40.5800683" lon="15.2932067"><ele>270.6666666666667</ele><time>2026-05-02T11:25:16.844Z</time></trkpt><trkpt lat="40.5799" lon="15.2932067"><ele>270.0</ele><time>2026-05-02T11:25:17.844Z</time></trkpt><trkpt lat="40.5797283" lon="15.293215"><ele>270.0</ele><time>2026-05-02T11:25:18.845Z</time></trkpt><trkpt lat="40.57956" lon="15.2932183"><ele>270.0</ele><time>2026-05-02T11:25:19.845Z</time></trkpt><trkpt lat="40.5793883" lon="15.2932217"><ele>270.0</ele><time>2026-05-02T11:25:20.845Z</time></trkpt><trkpt lat="40.579235" lon="15.2932183"><ele>270.5</ele><time>2026-05-02T11:25:21.844Z</time></trkpt><trkpt lat="40.5790917" lon="15.2932133"><ele>271.0</ele><time>2026-05-02T11:25:22.845Z</time></trkpt><trkpt lat="40.5789533" lon="15.2932033"><ele>271.5</ele><time>2026-05-02T11:25:23.844Z</time></trkpt><trkpt lat="40.5788133" lon="15.2931883"><ele>272.0</ele><time>2026-05-02T11:25:24.845Z</time></trkpt><trkpt lat="40.5786717" lon="15.293165"><ele>272.4</ele><time>2026-05-02T11:25:25.845Z</time></trkpt><trkpt lat="40.57854" lon="15.29314"><ele>272.79999999999995</ele><time>2026-05-02T11:25:26.844Z</time></trkpt><trkpt lat="40.5784233" lon="15.2931217"><ele>273.2</ele><time>2026-05-02T11:25:27.844Z</time></trkpt><trkpt lat="40.5783283" lon="15.2931083"><ele>273.59999999999997</ele><time>2026-05-02T11:25:28.845Z</time></trkpt><trkpt lat="40.5782517" lon="15.29309"><ele>274.0</ele><time>2026-05-02T11:25:29.844Z</time></trkpt><trkpt lat="40.5781883" lon="15.293075"><ele>274.2</ele><time>2026-05-02T11:25:30.845Z</time></trkpt><trkpt lat="40.57808" lon="15.2930367"><ele>274.4</ele><time>2026-05-02T11:25:32.845Z</time></trkpt><trkpt lat="40.5779783" lon="15.29299"><ele>274.6</ele><time>2026-05-02T11:25:34.845Z</time></trkpt><trkpt lat="40.5778983" lon="15.29296"><ele>274.8</ele><time>2026-05-02T11:25:36.844Z</time></trkpt><trkpt lat="40.5778217" lon="15.293035"><ele>275.0</ele><time>2026-05-02T11:25:40.845Z</time></trkpt><trkpt lat="40.5777933" lon="15.29313"><ele>275.0</ele><time>2026-05-02T11:25:41.845Z</time></trkpt><trkpt lat="40.577775" lon="15.2932517"><ele>275.0</ele><time>2026-05-02T11:25:42.844Z</time></trkpt><trkpt lat="40.5777517" lon="15.2933883"><ele>275.0</ele><time>2026-05-02T11:25:43.845Z</time></trkpt><trkpt lat="40.5777333" lon="15.2935383"><ele>275.0</ele><time>2026-05-02T11:25:44.845Z</time></trkpt><trkpt lat="40.5777133" lon="15.2936983"><ele>275.0</ele><time>2026-05-02T11:25:45.845Z</time></trkpt><trkpt lat="40.5776933" lon="15.293875"><ele>274.0</ele><time>2026-05-02T11:25:46.844Z</time></trkpt><trkpt lat="40.57767" lon="15.2940667"><ele>273.0</ele><time>2026-05-02T11:25:47.845Z</time></trkpt><trkpt lat="40.577655" lon="15.2942817"><ele>272.0</ele><time>2026-05-02T11:25:48.844Z</time></trkpt><trkpt lat="40.5776317" lon="15.294525"><ele>270.6666666666667</ele><time>2026-05-02T11:25:49.844Z</time></trkpt><trkpt lat="40.5775983" lon="15.2947983"><ele>269.3333333333333</ele><time>2026-05-02T11:25:50.845Z</time></trkpt><trkpt lat="40.5775617" lon="15.2950917"><ele>268.0</ele><time>2026-05-02T11:25:51.845Z</time></trkpt><trkpt lat="40.57752" lon="15.2953933"><ele>265.5</ele><time>2026-05-02T11:25:52.845Z</time></trkpt><trkpt lat="40.5774833" lon="15.2957017"><ele>263.0</ele><time>2026-05-02T11:25:53.845Z</time></trkpt><trkpt lat="40.57745" lon="15.2960133"><ele>263.0</ele><time>2026-05-02T11:25:54.845Z</time></trkpt><trkpt lat="40.5774217" lon="15.2963117"><ele>263.0</ele><time>2026-05-02T11:25:55.845Z</time></trkpt><trkpt lat="40.57739" lon="15.29659"><ele>263.0</ele><time>2026-05-02T11:25:56.845Z</time></trkpt><trkpt lat="40.5773617" lon="15.2968567"><ele>262.0</ele><time>2026-05-02T11:25:57.845Z</time></trkpt><trkpt lat="40.5773367" lon="15.29712"><ele>261.0</ele><time>2026-05-02T11:25:58.844Z</time></trkpt><trkpt lat="40.5773083" lon="15.29738"><ele>260.0</ele><time>2026-05-02T11:25:59.844Z</time></trkpt><trkpt lat="40.5772633" lon="15.2976433"><ele>259.6666666666667</ele><time>2026-05-02T11:26:00.844Z</time></trkpt><trkpt lat="40.5771983" lon="15.2979117"><ele>259.3333333333333</ele><time>2026-05-02T11:26:01.844Z</time></trkpt><trkpt lat="40.577115" lon="15.2981817"><ele>259.0</ele><time>2026-05-02T11:26:02.845Z</time></trkpt><trkpt lat="40.577015" lon="15.2984533"><ele>258.0</ele><time>2026-05-02T11:26:03.844Z</time></trkpt><trkpt lat="40.5769083" lon="15.29873"><ele>257.0</ele><time>2026-05-02T11:26:04.845Z</time></trkpt><trkpt lat="40.5768067" lon="15.2989967"><ele>256.33333333333337</ele><time>2026-05-02T11:26:05.845Z</time></trkpt><trkpt lat="40.57671" lon="15.29925"><ele>255.66666666666669</ele><time>2026-05-02T11:26:06.845Z</time></trkpt><trkpt lat="40.5766133" lon="15.2994917"><ele>255.0</ele><time>2026-05-02T11:26:07.845Z</time></trkpt><trkpt lat="40.5765117" lon="15.299735"><ele>254.66666666666669</ele><time>2026-05-02T11:26:08.845Z</time></trkpt><trkpt lat="40.5764117" lon="15.2999933"><ele>254.33333333333334</ele><time>2026-05-02T11:26:09.844Z</time></trkpt><trkpt lat="40.5763" lon="15.3002517"><ele>254.0</ele><time>2026-05-02T11:26:10.845Z</time></trkpt><trkpt lat="40.576165" lon="15.3005133"><ele>253.0</ele><time>2026-05-02T11:26:11.844Z</time></trkpt><trkpt lat="40.5760267" lon="15.3007783"><ele>252.0</ele><time>2026-05-02T11:26:12.845Z</time></trkpt><trkpt lat="40.5758867" lon="15.301045"><ele>252.0</ele><time>2026-05-02T11:26:13.845Z</time></trkpt><trkpt lat="40.575755" lon="15.301295"><ele>252.0</ele><time>2026-05-02T11:26:14.845Z</time></trkpt><trkpt lat="40.5756233" lon="15.3015333"><ele>250.5</ele><time>2026-05-02T11:26:15.844Z</time></trkpt><trkpt lat="40.575495" lon="15.3017783"><ele>249.0</ele><time>2026-05-02T11:26:16.845Z</time></trkpt><trkpt lat="40.575355" lon="15.302025"><ele>247.0</ele><time>2026-05-02T11:26:17.845Z</time></trkpt><trkpt lat="40.5752283" lon="15.3022733"><ele>245.0</ele><time>2026-05-02T11:26:18.845Z</time></trkpt><trkpt lat="40.5751" lon="15.302535"><ele>245.0</ele><time>2026-05-02T11:26:19.844Z</time></trkpt><trkpt lat="40.5749833" lon="15.3028167"><ele>245.0</ele><time>2026-05-02T11:26:20.845Z</time></trkpt><trkpt lat="40.5748817" lon="15.3031267"><ele>244.0</ele><time>2026-05-02T11:26:21.844Z</time></trkpt><trkpt lat="40.5747867" lon="15.3034417"><ele>243.0</ele><time>2026-05-02T11:26:22.844Z</time></trkpt><trkpt lat="40.5746967" lon="15.30376"><ele>241.0</ele><time>2026-05-02T11:26:23.845Z</time></trkpt><trkpt lat="40.5746" lon="15.3040717"><ele>239.0</ele><time>2026-05-02T11:26:24.845Z</time></trkpt><trkpt lat="40.5745017" lon="15.3043817"><ele>239.0</ele><time>2026-05-02T11:26:25.845Z</time></trkpt><trkpt lat="40.574405" lon="15.3047133"><ele>239.0</ele><time>2026-05-02T11:26:26.845Z</time></trkpt><trkpt lat="40.574305" lon="15.3050517"><ele>238.0</ele><time>2026-05-02T11:26:27.845Z</time></trkpt><trkpt lat="40.5741983" lon="15.3053817"><ele>237.0</ele><time>2026-05-02T11:26:28.844Z</time></trkpt><trkpt lat="40.5740967" lon="15.30571"><ele>236.0</ele><time>2026-05-02T11:26:29.845Z</time></trkpt><trkpt lat="40.5740017" lon="15.30603"><ele>235.0</ele><time>2026-05-02T11:26:30.844Z</time></trkpt><trkpt lat="40.57391" lon="15.3063383"><ele>234.0</ele><time>2026-05-02T11:26:31.844Z</time></trkpt><trkpt lat="40.57382" lon="15.3066367"><ele>233.0</ele><time>2026-05-02T11:26:32.845Z</time></trkpt><trkpt lat="40.5737267" lon="15.306925"><ele>233.33333333333334</ele><time>2026-05-02T11:26:33.845Z</time></trkpt><trkpt lat="40.5736433" lon="15.3072"><ele>233.66666666666669</ele><time>2026-05-02T11:26:34.844Z</time></trkpt><trkpt lat="40.57356" lon="15.3074617"><ele>234.0</ele><time>2026-05-02T11:26:35.845Z</time></trkpt><trkpt lat="40.5734867" lon="15.3077067"><ele>234.0</ele><time>2026-05-02T11:26:36.844Z</time></trkpt><trkpt lat="40.5734117" lon="15.30795"><ele>234.0</ele><time>2026-05-02T11:26:37.845Z</time></trkpt><trkpt lat="40.5733383" lon="15.3081967"><ele>234.0</ele><time>2026-05-02T11:26:38.845Z</time></trkpt><trkpt lat="40.5732617" lon="15.30846"><ele>233.5</ele><time>2026-05-02T11:26:39.844Z</time></trkpt><trkpt lat="40.57318" lon="15.308735"><ele>233.0</ele><time>2026-05-02T11:26:40.845Z</time></trkpt><trkpt lat="40.5731017" lon="15.3090317"><ele>232.0</ele><time>2026-05-02T11:26:41.844Z</time></trkpt><trkpt lat="40.5730267" lon="15.3093417"><ele>231.0</ele><time>2026-05-02T11:26:42.844Z</time></trkpt><trkpt lat="40.5729533" lon="15.30964"><ele>231.0</ele><time>2026-05-02T11:26:43.845Z</time></trkpt><trkpt lat="40.572885" lon="15.309925"><ele>231.0</ele><time>2026-05-02T11:26:44.845Z</time></trkpt><trkpt lat="40.5728267" lon="15.3102117"><ele>231.33333333333331</ele><time>2026-05-02T11:26:45.844Z</time></trkpt><trkpt lat="40.5727667" lon="15.3104817"><ele>231.66666666666666</ele><time>2026-05-02T11:26:46.844Z</time></trkpt><trkpt lat="40.5727017" lon="15.3107467"><ele>232.0</ele><time>2026-05-02T11:26:47.845Z</time></trkpt><trkpt lat="40.5726433" lon="15.311005"><ele>232.0</ele><time>2026-05-02T11:26:48.845Z</time></trkpt><trkpt lat="40.572595" lon="15.3112433"><ele>232.0</ele><time>2026-05-02T11:26:49.844Z</time></trkpt><trkpt lat="40.5725533" lon="15.3114333"><ele>232.0</ele><time>2026-05-02T11:26:50.844Z</time></trkpt><trkpt lat="40.572525" lon="15.31158"><ele>231.99999999999997</ele><time>2026-05-02T11:26:51.845Z</time></trkpt><trkpt lat="40.5725017" lon="15.311685"><ele>232.0</ele><time>2026-05-02T11:26:52.844Z</time></trkpt><trkpt lat="40.5724917" lon="15.3118183"><ele>232.0</ele><time>2026-05-02T11:26:54.844Z</time></trkpt><trkpt lat="40.57254" lon="15.3118867"><ele>232.0</ele><time>2026-05-02T11:26:56.845Z</time></trkpt><trkpt lat="40.5726017" lon="15.3119067"><ele>231.99999999999997</ele><time>2026-05-02T11:26:57.845Z</time></trkpt><trkpt lat="40.572685" lon="15.3119283"><ele>232.0</ele><time>2026-05-02T11:26:58.844Z</time></trkpt><trkpt lat="40.5727933" lon="15.31195"><ele>231.5</ele><time>2026-05-02T11:26:59.845Z</time></trkpt><trkpt lat="40.5729233" lon="15.311985"><ele>231.0</ele><time>2026-05-02T11:27:00.845Z</time></trkpt><trkpt lat="40.573075" lon="15.3120267"><ele>230.5</ele><time>2026-05-02T11:27:01.845Z</time></trkpt><trkpt lat="40.5732333" lon="15.3120633"><ele>230.0</ele><time>2026-05-02T11:27:02.844Z</time></trkpt><trkpt lat="40.573375" lon="15.31209"><ele>230.0</ele><time>2026-05-02T11:27:03.844Z</time></trkpt><trkpt lat="40.5735017" lon="15.3121283"><ele>230.0</ele><time>2026-05-02T11:27:04.844Z</time></trkpt><trkpt lat="40.573615" lon="15.3121617"><ele>230.0</ele><time>2026-05-02T11:27:05.844Z</time></trkpt><trkpt lat="40.5737117" lon="15.3121967"><ele>230.0</ele><time>2026-05-02T11:27:06.845Z</time></trkpt><trkpt lat="40.5737833" lon="15.312235"><ele>230.0</ele><time>2026-05-02T11:27:07.844Z</time></trkpt><trkpt lat="40.57383" lon="15.3122933"><ele>230.4</ele><time>2026-05-02T11:27:08.844Z</time></trkpt><trkpt lat="40.57385" lon="15.3123817"><ele>230.8</ele><time>2026-05-02T11:27:09.845Z</time></trkpt><trkpt lat="40.57386" lon="15.3125133"><ele>231.2</ele><time>2026-05-02T11:27:10.845Z</time></trkpt><trkpt lat="40.5738617" lon="15.31267"><ele>231.6</ele><time>2026-05-02T11:27:11.845Z</time></trkpt><trkpt lat="40.5738583" lon="15.3128467"><ele>232.0</ele><time>2026-05-02T11:27:12.845Z</time></trkpt><trkpt lat="40.5738533" lon="15.3130167"><ele>231.25</ele><time>2026-05-02T11:27:13.844Z</time></trkpt><trkpt lat="40.573875" lon="15.313175"><ele>230.5</ele><time>2026-05-02T11:27:14.844Z</time></trkpt><trkpt lat="40.5739083" lon="15.3133117"><ele>229.75</ele><time>2026-05-02T11:27:15.845Z</time></trkpt><trkpt lat="40.5739733" lon="15.31344"><ele>229.0</ele><time>2026-05-02T11:27:16.844Z</time></trkpt><trkpt lat="40.5740633" lon="15.3135717"><ele>229.0</ele><time>2026-05-02T11:27:17.845Z</time></trkpt><trkpt lat="40.5741683" lon="15.3136967"><ele>229.0</ele><time>2026-05-02T11:27:18.845Z</time></trkpt><trkpt lat="40.5742783" lon="15.3138217"><ele>229.0</ele><time>2026-05-02T11:27:19.845Z</time></trkpt><trkpt lat="40.5743933" lon="15.31396"><ele>229.0</ele><time>2026-05-02T11:27:20.844Z</time></trkpt><trkpt lat="40.5745233" lon="15.314105"><ele>231.33333333333331</ele><time>2026-05-02T11:27:21.844Z</time></trkpt><trkpt lat="40.57466" lon="15.3142567"><ele>233.66666666666669</ele><time>2026-05-02T11:27:22.844Z</time></trkpt><trkpt lat="40.5747883" lon="15.3143967"><ele>236.0</ele><time>2026-05-02T11:27:23.844Z</time></trkpt><trkpt lat="40.5748933" lon="15.3145217"><ele>236.0</ele><time>2026-05-02T11:27:24.844Z</time></trkpt><trkpt lat="40.5749817" lon="15.3146367"><ele>236.0</ele><time>2026-05-02T11:27:25.845Z</time></trkpt><trkpt lat="40.5750483" lon="15.31476"><ele>236.0</ele><time>2026-05-02T11:27:26.844Z</time></trkpt><trkpt lat="40.5750867" lon="15.3148983"><ele>236.0</ele><time>2026-05-02T11:27:27.845Z</time></trkpt><trkpt lat="40.5750933" lon="15.3150333"><ele>237.0</ele><time>2026-05-02T11:27:28.845Z</time></trkpt><trkpt lat="40.57506" lon="15.3151517"><ele>238.00000000000003</ele><time>2026-05-02T11:27:29.845Z</time></trkpt><trkpt lat="40.575025" lon="15.31527"><ele>239.00000000000003</ele><time>2026-05-02T11:27:30.845Z</time></trkpt><trkpt lat="40.5750117" lon="15.315395"><ele>240.0</ele><time>2026-05-02T11:27:31.845Z</time></trkpt><trkpt lat="40.5750383" lon="15.3154967"><ele>241.0</ele><time>2026-05-02T11:27:32.844Z</time></trkpt><trkpt lat="40.5751133" lon="15.31558"><ele>241.75</ele><time>2026-05-02T11:27:33.845Z</time></trkpt><trkpt lat="40.5752117" lon="15.3156333"><ele>242.5</ele><time>2026-05-02T11:27:34.845Z</time></trkpt><trkpt lat="40.57534" lon="15.3156683"><ele>243.25</ele><time>2026-05-02T11:27:35.845Z</time></trkpt><trkpt lat="40.5754933" lon="15.3156967"><ele>244.0</ele><time>2026-05-02T11:27:36.844Z</time></trkpt><trkpt lat="40.5756583" lon="15.3157167"><ele>245.25</ele><time>2026-05-02T11:27:37.844Z</time></trkpt><trkpt lat="40.5758083" lon="15.31575"><ele>246.5</ele><time>2026-05-02T11:27:38.845Z</time></trkpt><trkpt lat="40.5759417" lon="15.31581"><ele>247.75</ele><time>2026-05-02T11:27:39.845Z</time></trkpt><trkpt lat="40.576055" lon="15.3159017"><ele>249.0</ele><time>2026-05-02T11:27:40.845Z</time></trkpt><trkpt lat="40.5761533" lon="15.31603"><ele>249.0</ele><time>2026-05-02T11:27:41.845Z</time></trkpt><trkpt lat="40.57624" lon="15.3161733"><ele>249.0</ele><time>2026-05-02T11:27:42.844Z</time></trkpt><trkpt lat="40.5763283" lon="15.3163"><ele>249.0</ele><time>2026-05-02T11:27:43.845Z</time></trkpt><trkpt lat="40.5764383" lon="15.3164183"><ele>249.0</ele><time>2026-05-02T11:27:44.845Z</time></trkpt><trkpt lat="40.576565" lon="15.3165117"><ele>250.0</ele><time>2026-05-02T11:27:45.844Z</time></trkpt><trkpt lat="40.5767" lon="15.3165883"><ele>251.0</ele><time>2026-05-02T11:27:46.845Z</time></trkpt><trkpt lat="40.5768433" lon="15.3166467"><ele>252.0</ele><time>2026-05-02T11:27:47.844Z</time></trkpt><trkpt lat="40.5769967" lon="15.3166967"><ele>252.0</ele><time>2026-05-02T11:27:48.844Z</time></trkpt><trkpt lat="40.5771583" lon="15.3167533"><ele>252.0</ele><time>2026-05-02T11:27:49.845Z</time></trkpt><trkpt lat="40.5773333" lon="15.316815"><ele>252.0</ele><time>2026-05-02T11:27:50.844Z</time></trkpt><trkpt lat="40.5775167" lon="15.31689"><ele>252.0</ele><time>2026-05-02T11:27:51.844Z</time></trkpt><trkpt lat="40.5777083" lon="15.3169717"><ele>252.0</ele><time>2026-05-02T11:27:52.844Z</time></trkpt><trkpt lat="40.5779117" lon="15.3170483"><ele>252.0</ele><time>2026-05-02T11:27:53.844Z</time></trkpt><trkpt lat="40.5781167" lon="15.3171267"><ele>252.0</ele><time>2026-05-02T11:27:54.845Z</time></trkpt><trkpt lat="40.5783233" lon="15.3172033"><ele>252.0</ele><time>2026-05-02T11:27:55.844Z</time></trkpt><trkpt lat="40.5785167" lon="15.3172833"><ele>252.0</ele><time>2026-05-02T11:27:56.845Z</time></trkpt><trkpt lat="40.5787017" lon="15.3173517"><ele>255.0</ele><time>2026-05-02T11:27:57.844Z</time></trkpt><trkpt lat="40.5788717" lon="15.31741"><ele>258.0</ele><time>2026-05-02T11:27:58.844Z</time></trkpt><trkpt lat="40.5790283" lon="15.31747"><ele>261.0</ele><time>2026-05-02T11:27:59.844Z</time></trkpt><trkpt lat="40.57917" lon="15.3175233"><ele>261.0</ele><time>2026-05-02T11:28:00.845Z</time></trkpt><trkpt lat="40.5792867" lon="15.3175967"><ele>261.0</ele><time>2026-05-02T11:28:01.845Z</time></trkpt><trkpt lat="40.5793967" lon="15.3176817"><ele>261.0</ele><time>2026-05-02T11:28:02.844Z</time></trkpt><trkpt lat="40.57949" lon="15.31779"><ele>261.0</ele><time>2026-05-02T11:28:03.845Z</time></trkpt><trkpt lat="40.5795767" lon="15.317925"><ele>263.6666666666667</ele><time>2026-05-02T11:28:04.845Z</time></trkpt><trkpt lat="40.5796617" lon="15.3180867"><ele>266.33333333333337</ele><time>2026-05-02T11:28:05.844Z</time></trkpt><trkpt lat="40.5797483" lon="15.3182733"><ele>269.0</ele><time>2026-05-02T11:28:06.844Z</time></trkpt><trkpt lat="40.579835" lon="15.318485"><ele>269.0</ele><time>2026-05-02T11:28:07.844Z</time></trkpt><trkpt lat="40.5799333" lon="15.3187183"><ele>269.0</ele><time>2026-05-02T11:28:08.844Z</time></trkpt><trkpt lat="40.580025" lon="15.31893"><ele>269.0</ele><time>2026-05-02T11:28:09.844Z</time></trkpt><trkpt lat="40.58011" lon="15.3191183"><ele>269.25</ele><time>2026-05-02T11:28:10.844Z</time></trkpt><trkpt lat="40.58018" lon="15.3192883"><ele>269.5</ele><time>2026-05-02T11:28:11.845Z</time></trkpt><trkpt lat="40.5802267" lon="15.319435"><ele>269.75</ele><time>2026-05-02T11:28:12.845Z</time></trkpt><trkpt lat="40.5802433" lon="15.319565"><ele>270.0</ele><time>2026-05-02T11:28:13.845Z</time></trkpt><trkpt lat="40.580225" lon="15.3196933"><ele>271.5</ele><time>2026-05-02T11:28:14.845Z</time></trkpt><trkpt lat="40.5801683" lon="15.3198033"><ele>273.0</ele><time>2026-05-02T11:28:15.844Z</time></trkpt><trkpt lat="40.5800683" lon="15.319895"><ele>274.5</ele><time>2026-05-02T11:28:16.845Z</time></trkpt><trkpt lat="40.579945" lon="15.31999"><ele>276.0</ele><time>2026-05-02T11:28:17.845Z</time></trkpt><trkpt lat="40.579805" lon="15.320105"><ele>276.0</ele><time>2026-05-02T11:28:18.844Z</time></trkpt><trkpt lat="40.5796583" lon="15.320235"><ele>276.0</ele><time>2026-05-02T11:28:19.844Z</time></trkpt><trkpt lat="40.5795167" lon="15.3203583"><ele>276.0</ele><time>2026-05-02T11:28:20.844Z</time></trkpt><trkpt lat="40.57939" lon="15.3204717"><ele>276.8</ele><time>2026-05-02T11:28:21.844Z</time></trkpt><trkpt lat="40.57928" lon="15.3205717"><ele>277.6</ele><time>2026-05-02T11:28:22.845Z</time></trkpt><trkpt lat="40.57919" lon="15.32066"><ele>278.4</ele><time>2026-05-02T11:28:23.844Z</time></trkpt><trkpt lat="40.5791167" lon="15.3207467"><ele>279.2</ele><time>2026-05-02T11:28:24.845Z</time></trkpt><trkpt lat="40.57906" lon="15.3208533"><ele>280.0</ele><time>2026-05-02T11:28:25.845Z</time></trkpt><trkpt lat="40.5790283" lon="15.3209883"><ele>280.0</ele><time>2026-05-02T11:28:26.845Z</time></trkpt><trkpt lat="40.57903" lon="15.32114"><ele>280.0</ele><time>2026-05-02T11:28:27.844Z</time></trkpt><trkpt lat="40.5790683" lon="15.32129"><ele>280.0</ele><time>2026-05-02T11:28:28.844Z</time></trkpt><trkpt lat="40.5791367" lon="15.321425"><ele>280.0</ele><time>2026-05-02T11:28:29.845Z</time></trkpt><trkpt lat="40.5792383" lon="15.321535"><ele>280.66666666666663</ele><time>2026-05-02T11:28:30.844Z</time></trkpt><trkpt lat="40.5793583" lon="15.321625"><ele>281.3333333333333</ele><time>2026-05-02T11:28:31.844Z</time></trkpt><trkpt lat="40.5795033" lon="15.3217117"><ele>282.0</ele><time>2026-05-02T11:28:32.845Z</time></trkpt><trkpt lat="40.57966" lon="15.3218083"><ele>283.6666666666667</ele><time>2026-05-02T11:28:33.844Z</time></trkpt><trkpt lat="40.5798233" lon="15.3219117"><ele>285.33333333333337</ele><time>2026-05-02T11:28:34.845Z</time></trkpt><trkpt lat="40.58" lon="15.3220233"><ele>287.0</ele><time>2026-05-02T11:28:35.844Z</time></trkpt><trkpt lat="40.58019" lon="15.3221517"><ele>290.0</ele><time>2026-05-02T11:28:36.844Z</time></trkpt><trkpt lat="40.5803833" lon="15.3222767"><ele>293.0</ele><time>2026-05-02T11:28:37.845Z</time></trkpt><trkpt lat="40.5805717" lon="15.3223933"><ele>296.0</ele><time>2026-05-02T11:28:38.844Z</time></trkpt><trkpt lat="40.5807583" lon="15.3225183"><ele>296.0</ele><time>2026-05-02T11:28:39.844Z</time></trkpt><trkpt lat="40.5809267" lon="15.3226433"><ele>296.0</ele><time>2026-05-02T11:28:40.845Z</time></trkpt><trkpt lat="40.5810867" lon="15.3227683"><ele>296.0</ele><time>2026-05-02T11:28:41.845Z</time></trkpt><trkpt lat="40.581235" lon="15.322895"><ele>299.0</ele><time>2026-05-02T11:28:42.844Z</time></trkpt><trkpt lat="40.5813767" lon="15.3230183"><ele>302.0</ele><time>2026-05-02T11:28:43.845Z</time></trkpt><trkpt lat="40.5815167" lon="15.323155"><ele>305.0</ele><time>2026-05-02T11:28:44.844Z</time></trkpt><trkpt lat="40.5816567" lon="15.3233067"><ele>305.0</ele><time>2026-05-02T11:28:45.845Z</time></trkpt><trkpt lat="40.581805" lon="15.32348"><ele>305.0</ele><time>2026-05-02T11:28:46.844Z</time></trkpt><trkpt lat="40.5819517" lon="15.3236433"><ele>305.0</ele><time>2026-05-02T11:28:47.845Z</time></trkpt><trkpt lat="40.5820783" lon="15.323805"><ele>307.6666666666667</ele><time>2026-05-02T11:28:48.844Z</time></trkpt><trkpt lat="40.5821917" lon="15.323975"><ele>310.3333333333333</ele><time>2026-05-02T11:28:49.844Z</time></trkpt><trkpt lat="40.582295" lon="15.32416"><ele>313.0</ele><time>2026-05-02T11:28:50.845Z</time></trkpt><trkpt lat="40.5823983" lon="15.3243617"><ele>313.0</ele><time>2026-05-02T11:28:51.844Z</time></trkpt><trkpt lat="40.582495" lon="15.3245667"><ele>313.0</ele><time>2026-05-02T11:28:52.844Z</time></trkpt><trkpt lat="40.5825833" lon="15.3247483"><ele>313.0</ele><time>2026-05-02T11:28:53.844Z</time></trkpt><trkpt lat="40.5826783" lon="15.324895"><ele>311.5</ele><time>2026-05-02T11:28:54.844Z</time></trkpt><trkpt lat="40.58279" lon="15.32501"><ele>310.0</ele><time>2026-05-02T11:28:55.844Z</time></trkpt><trkpt lat="40.5829067" lon="15.325085"><ele>308.5</ele><time>2026-05-02T11:28:56.844Z</time></trkpt><trkpt lat="40.5830117" lon="15.32515"><ele>307.0</ele><time>2026-05-02T11:28:57.844Z</time></trkpt><trkpt lat="40.5830983" lon="15.3252383"><ele>309.0</ele><time>2026-05-02T11:28:58.844Z</time></trkpt><trkpt lat="40.5831533" lon="15.3253517"><ele>311.0</ele><time>2026-05-02T11:28:59.844Z</time></trkpt><trkpt lat="40.5831833" lon="15.3255"><ele>313.0</ele><time>2026-05-02T11:29:00.845Z</time></trkpt><trkpt lat="40.5831933" lon="15.3256717"><ele>315.0</ele><time>2026-05-02T11:29:01.844Z</time></trkpt><trkpt lat="40.58321" lon="15.3258367"><ele>315.0</ele><time>2026-05-02T11:29:02.844Z</time></trkpt><trkpt lat="40.58325" lon="15.3259867"><ele>315.0</ele><time>2026-05-02T11:29:03.844Z</time></trkpt><trkpt lat="40.5833117" lon="15.32612"><ele>315.0</ele><time>2026-05-02T11:29:04.844Z</time></trkpt><trkpt lat="40.5834133" lon="15.32625"><ele>315.0</ele><time>2026-05-02T11:29:05.844Z</time></trkpt><trkpt lat="40.5835433" lon="15.326365"><ele>315.3333333333333</ele><time>2026-05-02T11:29:06.844Z</time></trkpt><trkpt lat="40.583685" lon="15.3264783"><ele>315.66666666666663</ele><time>2026-05-02T11:29:07.844Z</time></trkpt><trkpt lat="40.5838383" lon="15.3266283"><ele>316.0</ele><time>2026-05-02T11:29:08.843Z</time></trkpt><trkpt lat="40.584" lon="15.3267967"><ele>316.0</ele><time>2026-05-02T11:29:09.843Z</time></trkpt><trkpt lat="40.5841717" lon="15.3269683"><ele>316.0</ele><time>2026-05-02T11:29:10.844Z</time></trkpt><trkpt lat="40.5843417" lon="15.3271383"><ele>316.0</ele><time>2026-05-02T11:29:11.844Z</time></trkpt><trkpt lat="40.5845033" lon="15.3273033"><ele>320.3333333333333</ele><time>2026-05-02T11:29:12.844Z</time></trkpt><trkpt lat="40.58465" lon="15.3274567"><ele>324.6666666666667</ele><time>2026-05-02T11:29:13.843Z</time></trkpt><trkpt lat="40.5847783" lon="15.3276067"><ele>329.0</ele><time>2026-05-02T11:29:14.843Z</time></trkpt><trkpt lat="40.5848983" lon="15.3277483"><ele>329.0</ele><time>2026-05-02T11:29:15.844Z</time></trkpt><trkpt lat="40.585005" lon="15.3279"><ele>329.0</ele><time>2026-05-02T11:29:16.844Z</time></trkpt><trkpt lat="40.5851033" lon="15.3280517"><ele>329.0</ele><time>2026-05-02T11:29:17.843Z</time></trkpt><trkpt lat="40.5851933" lon="15.328205"><ele>327.75</ele><time>2026-05-02T11:29:18.843Z</time></trkpt><trkpt lat="40.5852567" lon="15.3283617"><ele>326.5</ele><time>2026-05-02T11:29:19.843Z</time></trkpt><trkpt lat="40.5852967" lon="15.3285283"><ele>325.25</ele><time>2026-05-02T11:29:20.844Z</time></trkpt><trkpt lat="40.5853117" lon="15.3287017"><ele>324.0</ele><time>2026-05-02T11:29:21.843Z</time></trkpt><trkpt lat="40.585305" lon="15.3288983"><ele>324.0</ele><time>2026-05-02T11:29:22.843Z</time></trkpt><trkpt lat="40.5852917" lon="15.3291117"><ele>324.0</ele><time>2026-05-02T11:29:23.844Z</time></trkpt><trkpt lat="40.585265" lon="15.3293333"><ele>324.0</ele><time>2026-05-02T11:29:24.844Z</time></trkpt><trkpt lat="40.5852133" lon="15.3295467"><ele>326.6666666666667</ele><time>2026-05-02T11:29:25.843Z</time></trkpt><trkpt lat="40.5851433" lon="15.3297733"><ele>329.33333333333337</ele><time>2026-05-02T11:29:26.843Z</time></trkpt><trkpt lat="40.5850617" lon="15.3300133"><ele>332.0</ele><time>2026-05-02T11:29:27.844Z</time></trkpt><trkpt lat="40.5849767" lon="15.3302583"><ele>332.0</ele><time>2026-05-02T11:29:28.844Z</time></trkpt><trkpt lat="40.5848967" lon="15.330505"><ele>332.0</ele><time>2026-05-02T11:29:29.844Z</time></trkpt><trkpt lat="40.584815" lon="15.3307483"><ele>332.0</ele><time>2026-05-02T11:29:30.843Z</time></trkpt><trkpt lat="40.5847433" lon="15.3309867"><ele>335.6666666666667</ele><time>2026-05-02T11:29:31.844Z</time></trkpt><trkpt lat="40.5846733" lon="15.3312"><ele>339.3333333333333</ele><time>2026-05-02T11:29:32.843Z</time></trkpt><trkpt lat="40.5846117" lon="15.3313983"><ele>343.0</ele><time>2026-05-02T11:29:33.843Z</time></trkpt><trkpt lat="40.5845517" lon="15.331575"><ele>343.0</ele><time>2026-05-02T11:29:34.844Z</time></trkpt><trkpt lat="40.5844983" lon="15.3317383"><ele>343.0</ele><time>2026-05-02T11:29:35.844Z</time></trkpt><trkpt lat="40.58444" lon="15.331895"><ele>343.0</ele><time>2026-05-02T11:29:36.843Z</time></trkpt><trkpt lat="40.5843667" lon="15.3320317"><ele>343.0</ele><time>2026-05-02T11:29:37.844Z</time></trkpt><trkpt lat="40.58428" lon="15.3321467"><ele>346.75</ele><time>2026-05-02T11:29:38.843Z</time></trkpt><trkpt lat="40.584185" lon="15.3322417"><ele>350.5</ele><time>2026-05-02T11:29:39.843Z</time></trkpt><trkpt lat="40.5840667" lon="15.3323217"><ele>354.25</ele><time>2026-05-02T11:29:40.844Z</time></trkpt><trkpt lat="40.5839367" lon="15.3324017"><ele>358.0</ele><time>2026-05-02T11:29:41.843Z</time></trkpt><trkpt lat="40.5837983" lon="15.3324683"><ele>357.25</ele><time>2026-05-02T11:29:42.843Z</time></trkpt><trkpt lat="40.5836517" lon="15.3324983"><ele>356.5</ele><time>2026-05-02T11:29:43.843Z</time></trkpt><trkpt lat="40.5835083" lon="15.3325017"><ele>355.75</ele><time>2026-05-02T11:29:44.844Z</time></trkpt><trkpt lat="40.58338" lon="15.3324833"><ele>355.0</ele><time>2026-05-02T11:29:45.844Z</time></trkpt><trkpt lat="40.5832533" lon="15.3324633"><ele>355.0</ele><time>2026-05-02T11:29:46.843Z</time></trkpt><trkpt lat="40.5831217" lon="15.33248"><ele>355.0</ele><time>2026-05-02T11:29:47.844Z</time></trkpt><trkpt lat="40.5830033" lon="15.3325467"><ele>355.0</ele><time>2026-05-02T11:29:48.843Z</time></trkpt><trkpt lat="40.58289" lon="15.3326233"><ele>355.0</ele><time>2026-05-02T11:29:49.844Z</time></trkpt><trkpt lat="40.5828" lon="15.332715"><ele>353.8</ele><time>2026-05-02T11:29:50.843Z</time></trkpt><trkpt lat="40.582745" lon="15.332825"><ele>352.6</ele><time>2026-05-02T11:29:51.844Z</time></trkpt><trkpt lat="40.5827233" lon="15.332945"><ele>351.4</ele><time>2026-05-02T11:29:52.844Z</time></trkpt><trkpt lat="40.5827333" lon="15.333065"><ele>350.2</ele><time>2026-05-02T11:29:53.844Z</time></trkpt><trkpt lat="40.5827817" lon="15.33319"><ele>349.0</ele><time>2026-05-02T11:29:54.844Z</time></trkpt><trkpt lat="40.58286" lon="15.3333217"><ele>355.25</ele><time>2026-05-02T11:29:55.844Z</time></trkpt><trkpt lat="40.5829533" lon="15.33347"><ele>361.5</ele><time>2026-05-02T11:29:56.843Z</time></trkpt><trkpt lat="40.5830417" lon="15.3336267"><ele>367.75</ele><time>2026-05-02T11:29:57.843Z</time></trkpt><trkpt lat="40.5831067" lon="15.33378"><ele>374.0</ele><time>2026-05-02T11:29:58.844Z</time></trkpt><trkpt lat="40.58314" lon="15.3339283"><ele>375.0</ele><time>2026-05-02T11:29:59.844Z</time></trkpt><trkpt lat="40.5831367" lon="15.33407"><ele>376.0</ele><time>2026-05-02T11:30:00.844Z</time></trkpt><trkpt lat="40.58309" lon="15.334215"><ele>377.0</ele><time>2026-05-02T11:30:01.843Z</time></trkpt><trkpt lat="40.583025" lon="15.3343767"><ele>378.0</ele><time>2026-05-02T11:30:02.844Z</time></trkpt><trkpt lat="40.5829617" lon="15.33457"><ele>382.0</ele><time>2026-05-02T11:30:03.843Z</time></trkpt><trkpt lat="40.5828967" lon="15.3347833"><ele>386.0</ele><time>2026-05-02T11:30:04.844Z</time></trkpt><trkpt lat="40.58284" lon="15.3350267"><ele>390.0</ele><time>2026-05-02T11:30:05.843Z</time></trkpt><trkpt lat="40.5827967" lon="15.3352617"><ele>385.25</ele><time>2026-05-02T11:30:06.843Z</time></trkpt><trkpt lat="40.5827617" lon="15.3354633"><ele>380.5</ele><time>2026-05-02T11:30:07.843Z</time></trkpt><trkpt lat="40.58273" lon="15.33563"><ele>375.75</ele><time>2026-05-02T11:30:08.844Z</time></trkpt><trkpt lat="40.5826933" lon="15.3357667"><ele>371.0</ele><time>2026-05-02T11:30:09.844Z</time></trkpt><trkpt lat="40.5826333" lon="15.3358817"><ele>371.0</ele><time>2026-05-02T11:30:10.843Z</time></trkpt><trkpt lat="40.5825633" lon="15.3359567"><ele>371.0</ele><time>2026-05-02T11:30:11.843Z</time></trkpt><trkpt lat="40.5824967" lon="15.3359967"><ele>371.0</ele><time>2026-05-02T11:30:12.843Z</time></trkpt><trkpt lat="40.5824283" lon="15.3360233"><ele>371.0</ele><time>2026-05-02T11:30:13.843Z</time></trkpt><trkpt lat="40.5823417" lon="15.3360783"><ele>371.0</ele><time>2026-05-02T11:30:15.843Z</time></trkpt><trkpt lat="40.5823133" lon="15.3361617"><ele>371.0</ele><time>2026-05-02T11:30:17.843Z</time></trkpt><trkpt lat="40.5822533" lon="15.3362333"><ele>371.0</ele><time>2026-05-02T11:30:21.844Z</time></trkpt><trkpt lat="40.58216" lon="15.3362583"><ele>371.0</ele><time>2026-05-02T11:30:23.844Z</time></trkpt><trkpt lat="40.5820367" lon="15.336305"><ele>371.0</ele><time>2026-05-02T11:30:25.844Z</time></trkpt><trkpt lat="40.581975" lon="15.3363433"><ele>371.0</ele><time>2026-05-02T11:30:26.843Z</time></trkpt><trkpt lat="40.5819183" lon="15.3363933"><ele>371.0</ele><time>2026-05-02T11:30:27.843Z</time></trkpt><trkpt lat="40.5818583" lon="15.336445"><ele>371.0</ele><time>2026-05-02T11:30:28.844Z</time></trkpt><trkpt lat="40.5818017" lon="15.336505"><ele>371.5</ele><time>2026-05-02T11:30:29.843Z</time></trkpt><trkpt lat="40.58175" lon="15.3365733"><ele>372.0</ele><time>2026-05-02T11:30:30.844Z</time></trkpt><trkpt lat="40.5817" lon="15.3366433"><ele>372.5</ele><time>2026-05-02T11:30:31.843Z</time></trkpt><trkpt lat="40.58165" lon="15.33672"><ele>373.0</ele><time>2026-05-02T11:30:32.843Z</time></trkpt><trkpt lat="40.581595" lon="15.3367933"><ele>373.5</ele><time>2026-05-02T11:30:33.843Z</time></trkpt><trkpt lat="40.581515" lon="15.336875"><ele>374.0</ele><time>2026-05-02T11:30:35.844Z</time></trkpt><trkpt lat="40.5814617" lon="15.3369317"><ele>374.0</ele><time>2026-05-02T11:30:38.843Z</time></trkpt><trkpt lat="40.58153" lon="15.3369183"><ele>374.0</ele><time>2026-05-02T11:30:41.844Z</time></trkpt><trkpt lat="40.5815717" lon="15.336855"><ele>374.0</ele><time>2026-05-02T11:30:42.843Z</time></trkpt><trkpt lat="40.5816283" lon="15.3367733"><ele>374.0</ele><time>2026-05-02T11:30:43.843Z</time></trkpt><trkpt lat="40.5817083" lon="15.33668"><ele>374.0</ele><time>2026-05-02T11:30:44.844Z</time></trkpt><trkpt lat="40.581805" lon="15.3365733"><ele>374.0</ele><time>2026-05-02T11:30:45.844Z</time></trkpt><trkpt lat="40.581915" lon="15.3364633"><ele>374.0</ele><time>2026-05-02T11:30:46.843Z</time></trkpt><trkpt lat="40.5820283" lon="15.33636"><ele>374.0</ele><time>2026-05-02T11:30:47.843Z</time></trkpt><trkpt lat="40.5821333" lon="15.33629"><ele>374.0</ele><time>2026-05-02T11:30:48.843Z</time></trkpt><trkpt lat="40.58222" lon="15.3362567"><ele>373.4</ele><time>2026-05-02T11:30:49.844Z</time></trkpt><trkpt lat="40.582295" lon="15.3362417"><ele>372.79999999999995</ele><time>2026-05-02T11:30:50.843Z</time></trkpt><trkpt lat="40.5823933" lon="15.3362333"><ele>372.20000000000005</ele><time>2026-05-02T11:30:51.844Z</time></trkpt><trkpt lat="40.58252" lon="15.3362333"><ele>371.6</ele><time>2026-05-02T11:30:52.843Z</time></trkpt><trkpt lat="40.5826417" lon="15.336235"><ele>371.0</ele><time>2026-05-02T11:30:53.844Z</time></trkpt><trkpt lat="40.58274" lon="15.33626"><ele>371.0</ele><time>2026-05-02T11:30:54.843Z</time></trkpt><trkpt lat="40.58282" lon="15.3363167"><ele>371.0</ele><time>2026-05-02T11:30:55.843Z</time></trkpt><trkpt lat="40.5828767" lon="15.3364033"><ele>371.0</ele><time>2026-05-02T11:30:56.844Z</time></trkpt><trkpt lat="40.5829133" lon="15.3364967"><ele>371.0</ele><time>2026-05-02T11:30:57.843Z</time></trkpt><trkpt lat="40.5829433" lon="15.3365983"><ele>371.0</ele><time>2026-05-02T11:30:58.843Z</time></trkpt><trkpt lat="40.5829683" lon="15.33671"><ele>371.0</ele><time>2026-05-02T11:30:59.843Z</time></trkpt><trkpt lat="40.5829983" lon="15.3368283"><ele>372.4</ele><time>2026-05-02T11:31:00.843Z</time></trkpt><trkpt lat="40.5830217" lon="15.33695"><ele>373.8</ele><time>2026-05-02T11:31:01.844Z</time></trkpt><trkpt lat="40.5830383" lon="15.3370783"><ele>375.2</ele><time>2026-05-02T11:31:02.844Z</time></trkpt><trkpt lat="40.5830383" lon="15.3372033"><ele>376.59999999999997</ele><time>2026-05-02T11:31:03.844Z</time></trkpt><trkpt lat="40.5830167" lon="15.33733"><ele>378.0</ele><time>2026-05-02T11:31:04.843Z</time></trkpt><trkpt lat="40.5829817" lon="15.3374467"><ele>378.0</ele><time>2026-05-02T11:31:05.843Z</time></trkpt><trkpt lat="40.5829417" lon="15.3375517"><ele>378.0</ele><time>2026-05-02T11:31:06.844Z</time></trkpt><trkpt lat="40.5829" lon="15.3376483"><ele>378.0</ele><time>2026-05-02T11:31:07.843Z</time></trkpt><trkpt lat="40.58285" lon="15.33774"><ele>378.0</ele><time>2026-05-02T11:31:08.843Z</time></trkpt><trkpt lat="40.5828067" lon="15.337835"><ele>378.0</ele><time>2026-05-02T11:31:09.843Z</time></trkpt><trkpt lat="40.582755" lon="15.3379367"><ele>378.0</ele><time>2026-05-02T11:31:10.843Z</time></trkpt><trkpt lat="40.582695" lon="15.3380383"><ele>381.4</ele><time>2026-05-02T11:31:11.843Z</time></trkpt><trkpt lat="40.5826383" lon="15.3381417"><ele>384.79999999999995</ele><time>2026-05-02T11:31:12.844Z</time></trkpt><trkpt lat="40.58258" lon="15.3382467"><ele>388.2</ele><time>2026-05-02T11:31:13.843Z</time></trkpt><trkpt lat="40.5825233" lon="15.3383533"><ele>391.6</ele><time>2026-05-02T11:31:14.844Z</time></trkpt><trkpt lat="40.5824767" lon="15.33845"><ele>395.0</ele><time>2026-05-02T11:31:15.843Z</time></trkpt><trkpt lat="40.5824317" lon="15.33854"><ele>395.0</ele><time>2026-05-02T11:31:16.844Z</time></trkpt><trkpt lat="40.58239" lon="15.3386217"><ele>395.0</ele><time>2026-05-02T11:31:17.844Z</time></trkpt><trkpt lat="40.5823067" lon="15.3387183"><ele>395.0</ele><time>2026-05-02T11:31:19.844Z</time></trkpt><trkpt lat="40.582225" lon="15.3386483"><ele>395.0</ele><time>2026-05-02T11:31:21.844Z</time></trkpt><trkpt lat="40.5822333" lon="15.3384883"><ele>395.0</ele><time>2026-05-02T11:31:23.844Z</time></trkpt><trkpt lat="40.58227" lon="15.338405"><ele>394.99999999999994</ele><time>2026-05-02T11:31:24.843Z</time></trkpt><trkpt lat="40.58231" lon="15.3383267"><ele>395.0</ele><time>2026-05-02T11:31:25.844Z</time></trkpt><trkpt lat="40.5823467" lon="15.3382417"><ele>395.0</ele><time>2026-05-02T11:31:26.844Z</time></trkpt><trkpt lat="40.5823833" lon="15.3381517"><ele>395.0</ele><time>2026-05-02T11:31:27.843Z</time></trkpt><trkpt lat="40.5824217" lon="15.3380617"><ele>394.99999999999994</ele><time>2026-05-02T11:31:28.844Z</time></trkpt><trkpt lat="40.582465" lon="15.337975"><ele>395.0</ele><time>2026-05-02T11:31:29.843Z</time></trkpt><trkpt lat="40.5825067" lon="15.3378883"><ele>395.8333333333333</ele><time>2026-05-02T11:31:30.843Z</time></trkpt><trkpt lat="40.582545" lon="15.3378033"><ele>396.66666666666663</ele><time>2026-05-02T11:31:31.844Z</time></trkpt><trkpt lat="40.5825833" lon="15.3377233"><ele>397.5</ele><time>2026-05-02T11:31:32.844Z</time></trkpt><trkpt lat="40.5826183" lon="15.33764"><ele>398.33333333333337</ele><time>2026-05-02T11:31:33.844Z</time></trkpt><trkpt lat="40.5826467" lon="15.3375633"><ele>399.1666666666667</ele><time>2026-05-02T11:31:34.844Z</time></trkpt><trkpt lat="40.5826233" lon="15.3374483"><ele>400.0</ele><time>2026-05-02T11:31:36.844Z</time></trkpt><trkpt lat="40.5825433" lon="15.3375"><ele>400.00000000000006</ele><time>2026-05-02T11:31:38.843Z</time></trkpt><trkpt lat="40.5825033" lon="15.33757"><ele>400.0</ele><time>2026-05-02T11:31:39.844Z</time></trkpt><trkpt lat="40.5824617" lon="15.3376433"><ele>400.0</ele><time>2026-05-02T11:31:40.844Z</time></trkpt><trkpt lat="40.5824233" lon="15.3377117"><ele>400.0</ele><time>2026-05-02T11:31:41.843Z</time></trkpt><trkpt lat="40.5823817" lon="15.337785"><ele>400.0</ele><time>2026-05-02T11:31:42.844Z</time></trkpt><trkpt lat="40.5823433" lon="15.33786"><ele>400.00000000000006</ele><time>2026-05-02T11:31:43.844Z</time></trkpt><trkpt lat="40.5823083" lon="15.3379417"><ele>400.0</ele><time>2026-05-02T11:31:44.844Z</time></trkpt><trkpt lat="40.5822767" lon="15.3380183"><ele>399.28571428571433</ele><time>2026-05-02T11:31:45.844Z</time></trkpt><trkpt lat="40.5822433" lon="15.338095"><ele>398.57142857142856</ele><time>2026-05-02T11:31:46.844Z</time></trkpt><trkpt lat="40.5821983" lon="15.3381617"><ele>397.8571428571429</ele><time>2026-05-02T11:31:47.843Z</time></trkpt><trkpt lat="40.5821517" lon="15.338235"><ele>397.14285714285717</ele><time>2026-05-02T11:31:48.844Z</time></trkpt><trkpt lat="40.5821083" lon="15.3383083"><ele>396.42857142857144</ele><time>2026-05-02T11:31:49.844Z</time></trkpt><trkpt lat="40.5820667" lon="15.3383833"><ele>395.7142857142857</ele><time>2026-05-02T11:31:50.844Z</time></trkpt><trkpt lat="40.5820267" lon="15.3384583"><ele>395.0</ele><time>2026-05-02T11:31:51.843Z</time></trkpt><trkpt lat="40.5819933" lon="15.338535"><ele>397.66666666666663</ele><time>2026-05-02T11:31:52.844Z</time></trkpt><trkpt lat="40.58196" lon="15.33861"><ele>400.3333333333333</ele><time>2026-05-02T11:31:53.844Z</time></trkpt><trkpt lat="40.5819317" lon="15.3386933"><ele>403.0</ele><time>2026-05-02T11:31:54.844Z</time></trkpt><trkpt lat="40.5819" lon="15.3387733"><ele>405.66666666666663</ele><time>2026-05-02T11:31:55.843Z</time></trkpt><trkpt lat="40.58184" lon="15.3389217"><ele>408.3333333333333</ele><time>2026-05-02T11:31:57.843Z</time></trkpt><trkpt lat="40.5818083" lon="15.339"><ele>411.0</ele><time>2026-05-02T11:31:58.844Z</time></trkpt><trkpt lat="40.5817783" lon="15.3390783"><ele>411.42857142857144</ele><time>2026-05-02T11:31:59.844Z</time></trkpt><trkpt lat="40.5817517" lon="15.339165"><ele>411.85714285714283</ele><time>2026-05-02T11:32:00.844Z</time></trkpt><trkpt lat="40.5817217" lon="15.3392433"><ele>412.28571428571433</ele><time>2026-05-02T11:32:01.843Z</time></trkpt><trkpt lat="40.5816983" lon="15.3393233"><ele>412.7142857142857</ele><time>2026-05-02T11:32:02.844Z</time></trkpt><trkpt lat="40.5816767" lon="15.3394033"><ele>413.14285714285717</ele><time>2026-05-02T11:32:03.844Z</time></trkpt><trkpt lat="40.5816417" lon="15.339475"><ele>413.5714285714286</ele><time>2026-05-02T11:32:04.843Z</time></trkpt><trkpt lat="40.5816033" lon="15.3395467"><ele>414.0</ele><time>2026-05-02T11:32:05.843Z</time></trkpt><trkpt lat="40.581565" lon="15.3396133"><ele>412.1666666666667</ele><time>2026-05-02T11:32:06.843Z</time></trkpt><trkpt lat="40.5814933" lon="15.3397283"><ele>410.33333333333337</ele><time>2026-05-02T11:32:08.843Z</time></trkpt><trkpt lat="40.5814483" lon="15.3397867"><ele>408.5</ele><time>2026-05-02T11:32:09.844Z</time></trkpt><trkpt lat="40.5814033" lon="15.3398617"><ele>406.6666666666667</ele><time>2026-05-02T11:32:10.844Z</time></trkpt><trkpt lat="40.5813483" lon="15.33993"><ele>404.83333333333337</ele><time>2026-05-02T11:32:11.844Z</time></trkpt><trkpt lat="40.5813" lon="15.340005"><ele>403.0</ele><time>2026-05-02T11:32:12.843Z</time></trkpt><trkpt lat="40.581255" lon="15.34008"><ele>403.0</ele><time>2026-05-02T11:32:13.843Z</time></trkpt><trkpt lat="40.5812133" lon="15.3401583"><ele>403.0</ele><time>2026-05-02T11:32:14.844Z</time></trkpt><trkpt lat="40.58117" lon="15.34024"><ele>403.0</ele><time>2026-05-02T11:32:15.844Z</time></trkpt><trkpt lat="40.581135" lon="15.340315"><ele>403.0</ele><time>2026-05-02T11:32:16.844Z</time></trkpt><trkpt lat="40.5810717" lon="15.3404483"><ele>403.0</ele><time>2026-05-02T11:32:18.844Z</time></trkpt><trkpt lat="40.581" lon="15.3405783"><ele>407.59999999999997</ele><time>2026-05-02T11:32:20.844Z</time></trkpt><trkpt lat="40.5809333" lon="15.3407"><ele>412.2</ele><time>2026-05-02T11:32:22.843Z</time></trkpt><trkpt lat="40.58088" lon="15.340805"><ele>416.8</ele><time>2026-05-02T11:32:24.844Z</time></trkpt><trkpt lat="40.5808333" lon="15.3409033"><ele>421.4</ele><time>2026-05-02T11:32:26.844Z</time></trkpt><trkpt lat="40.5807817" lon="15.341005"><ele>426.0</ele><time>2026-05-02T11:32:28.844Z</time></trkpt><trkpt lat="40.580725" lon="15.34111"><ele>426.0</ele><time>2026-05-02T11:32:30.843Z</time></trkpt><trkpt lat="40.58068" lon="15.3412117"><ele>426.0</ele><time>2026-05-02T11:32:32.843Z</time></trkpt><trkpt lat="40.5806283" lon="15.3413117"><ele>426.0</ele><time>2026-05-02T11:32:34.843Z</time></trkpt><trkpt lat="40.580585" lon="15.341435"><ele>426.0</ele><time>2026-05-02T11:32:36.844Z</time></trkpt><trkpt lat="40.580535" lon="15.3415567"><ele>426.0</ele><time>2026-05-02T11:32:38.844Z</time></trkpt><trkpt lat="40.5805033" lon="15.3416717"><ele>425.8333333333333</ele><time>2026-05-02T11:32:40.843Z</time></trkpt><trkpt lat="40.5804717" lon="15.3417833"><ele>425.66666666666663</ele><time>2026-05-02T11:32:42.844Z</time></trkpt><trkpt lat="40.5804283" lon="15.3418917"><ele>425.5</ele><time>2026-05-02T11:32:44.844Z</time></trkpt><trkpt lat="40.5803933" lon="15.3419983"><ele>425.3333333333333</ele><time>2026-05-02T11:32:46.843Z</time></trkpt><trkpt lat="40.5803767" lon="15.3420983"><ele>425.16666666666663</ele><time>2026-05-02T11:32:48.843Z</time></trkpt><trkpt lat="40.5803383" lon="15.3422083"><ele>425.0</ele><time>2026-05-02T11:32:51.844Z</time></trkpt><trkpt lat="40.5802717" lon="15.3422833"><ele>427.3333333333333</ele><time>2026-05-02T11:32:54.843Z</time></trkpt><trkpt lat="40.5802167" lon="15.3423483"><ele>429.66666666666663</ele><time>2026-05-02T11:32:56.843Z</time></trkpt><trkpt lat="40.5801532" lon="15.3424336"><ele>432.0</ele><time>2026-05-02T11:32:59.962Z</time></trkpt><trkpt lat="40.580111" lon="15.342548"><ele>434.33333333333337</ele><time>2026-05-02T11:33:02.821Z</time></trkpt><trkpt lat="40.5800716" lon="15.3426338"><ele>436.6666666666667</ele><time>2026-05-02T11:33:04.865Z</time></trkpt><trkpt lat="40.5800072" lon="15.3426673"><ele>439.0</ele><time>2026-05-02T11:33:08.935Z</time></trkpt><trkpt lat="40.57994" lon="15.3425867"><ele>439.0</ele><time>2026-05-02T11:33:16.844Z</time></trkpt><trkpt lat="40.5799333" lon="15.3425"><ele>439.0</ele><time>2026-05-02T11:33:18.844Z</time></trkpt><trkpt lat="40.5799317" lon="15.3424133"><ele>439.0</ele><time>2026-05-02T11:33:20.843Z</time></trkpt><trkpt lat="40.5799283" lon="15.3423"><ele>439.0</ele><time>2026-05-02T11:33:48.844Z</time></trkpt><trkpt lat="40.5799617" lon="15.34238"><ele>439.0</ele><time>2026-05-02T11:57:30.837Z</time></trkpt><trkpt lat="40.5799733" lon="15.3424817"><ele>439.0</ele><time>2026-05-02T11:57:33.836Z</time></trkpt><trkpt lat="40.5800283" lon="15.34255"><ele>439.0</ele><time>2026-05-02T11:57:38.836Z</time></trkpt><trkpt lat="40.580075" lon="15.3426083"><ele>439.00000000000006</ele><time>2026-05-02T11:57:42.837Z</time></trkpt><trkpt lat="40.580145" lon="15.342525"><ele>439.0</ele><time>2026-05-02T11:57:47.836Z</time></trkpt><trkpt lat="40.58022" lon="15.3424383"><ele>439.0</ele><time>2026-05-02T11:57:50.837Z</time></trkpt><trkpt lat="40.5802717" lon="15.342375"><ele>439.0</ele><time>2026-05-02T11:57:52.837Z</time></trkpt><trkpt lat="40.58031" lon="15.3422867"><ele>439.00000000000006</ele><time>2026-05-02T11:57:55.836Z</time></trkpt><trkpt lat="40.5803533" lon="15.3422117"><ele>439.0</ele><time>2026-05-02T11:57:58.837Z</time></trkpt><trkpt lat="40.580385" lon="15.3421083"><ele>435.83333333333337</ele><time>2026-05-02T11:58:00.837Z</time></trkpt><trkpt lat="40.58045" lon="15.3419767"><ele>432.6666666666667</ele><time>2026-05-02T11:58:02.836Z</time></trkpt><trkpt lat="40.580505" lon="15.3418267"><ele>429.5</ele><time>2026-05-02T11:58:04.837Z</time></trkpt><trkpt lat="40.580535" lon="15.3417533"><ele>426.33333333333337</ele><time>2026-05-02T11:58:05.837Z</time></trkpt><trkpt lat="40.5805633" lon="15.3416767"><ele>423.1666666666667</ele><time>2026-05-02T11:58:06.836Z</time></trkpt><trkpt lat="40.58059" lon="15.3415983"><ele>420.0</ele><time>2026-05-02T11:58:07.836Z</time></trkpt><trkpt lat="40.58061" lon="15.341515"><ele>421.0</ele><time>2026-05-02T11:58:08.837Z</time></trkpt><trkpt lat="40.5806483" lon="15.3413617"><ele>422.0</ele><time>2026-05-02T11:58:10.837Z</time></trkpt><trkpt lat="40.5806717" lon="15.3412767"><ele>423.0</ele><time>2026-05-02T11:58:11.836Z</time></trkpt><trkpt lat="40.5807017" lon="15.3412033"><ele>424.0</ele><time>2026-05-02T11:58:12.837Z</time></trkpt><trkpt lat="40.58073" lon="15.341125"><ele>425.0</ele><time>2026-05-02T11:58:13.837Z</time></trkpt><trkpt lat="40.5807583" lon="15.34104"><ele>426.0</ele><time>2026-05-02T11:58:14.837Z</time></trkpt><trkpt lat="40.58079" lon="15.3409667"><ele>426.0</ele><time>2026-05-02T11:58:15.837Z</time></trkpt><trkpt lat="40.580875" lon="15.3408333"><ele>426.0</ele><time>2026-05-02T11:58:17.837Z</time></trkpt><trkpt lat="40.5809167" lon="15.3407683"><ele>426.0</ele><time>2026-05-02T11:58:18.836Z</time></trkpt><trkpt lat="40.5809367" lon="15.3406883"><ele>426.0</ele><time>2026-05-02T11:58:19.836Z</time></trkpt><trkpt lat="40.581" lon="15.3405417"><ele>426.0</ele><time>2026-05-02T11:58:21.837Z</time></trkpt><trkpt lat="40.581045" lon="15.3404667"><ele>424.8333333333333</ele><time>2026-05-02T11:58:22.837Z</time></trkpt><trkpt lat="40.5810833" lon="15.3403833"><ele>423.66666666666663</ele><time>2026-05-02T11:58:23.835Z</time></trkpt><trkpt lat="40.5811317" lon="15.3403067"><ele>422.5</ele><time>2026-05-02T11:58:24.836Z</time></trkpt><trkpt lat="40.581175" lon="15.3402283"><ele>421.3333333333333</ele><time>2026-05-02T11:58:25.836Z</time></trkpt><trkpt lat="40.5812217" lon="15.340145"><ele>420.16666666666663</ele><time>2026-05-02T11:58:26.836Z</time></trkpt><trkpt lat="40.5812717" lon="15.3400567"><ele>419.0</ele><time>2026-05-02T11:58:27.836Z</time></trkpt><trkpt lat="40.5813283" lon="15.3399667"><ele>418.16666666666663</ele><time>2026-05-02T11:58:28.835Z</time></trkpt><trkpt lat="40.58139" lon="15.3398733"><ele>417.3333333333333</ele><time>2026-05-02T11:58:29.836Z</time></trkpt><trkpt lat="40.5814517" lon="15.3397817"><ele>416.5</ele><time>2026-05-02T11:58:30.835Z</time></trkpt><trkpt lat="40.5815133" lon="15.339695"><ele>415.66666666666663</ele><time>2026-05-02T11:58:31.836Z</time></trkpt><trkpt lat="40.5815667" lon="15.3396117"><ele>414.8333333333333</ele><time>2026-05-02T11:58:32.835Z</time></trkpt><trkpt lat="40.5816083" lon="15.339515"><ele>414.0</ele><time>2026-05-02T11:58:33.836Z</time></trkpt><trkpt lat="40.5816467" lon="15.3394167"><ele>414.0</ele><time>2026-05-02T11:58:34.836Z</time></trkpt><trkpt lat="40.5816833" lon="15.3393217"><ele>414.0</ele><time>2026-05-02T11:58:35.835Z</time></trkpt><trkpt lat="40.5817217" lon="15.3392267"><ele>414.0</ele><time>2026-05-02T11:58:36.835Z</time></trkpt><trkpt lat="40.5817583" lon="15.339135"><ele>414.0</ele><time>2026-05-02T11:58:37.835Z</time></trkpt><trkpt lat="40.581795" lon="15.339045"><ele>414.0</ele><time>2026-05-02T11:58:38.836Z</time></trkpt><trkpt lat="40.58183" lon="15.3389533"><ele>414.0</ele><time>2026-05-02T11:58:39.836Z</time></trkpt><trkpt lat="40.5818667" lon="15.3388567"><ele>413.5</ele><time>2026-05-02T11:58:40.835Z</time></trkpt><trkpt lat="40.5819083" lon="15.3387617"><ele>413.0</ele><time>2026-05-02T11:58:41.836Z</time></trkpt><trkpt lat="40.581945" lon="15.3386617"><ele>412.5</ele><time>2026-05-02T11:58:42.836Z</time></trkpt><trkpt lat="40.5819917" lon="15.3385583"><ele>412.0</ele><time>2026-05-02T11:58:43.835Z</time></trkpt><trkpt lat="40.5820433" lon="15.3384567"><ele>411.5</ele><time>2026-05-02T11:58:44.835Z</time></trkpt><trkpt lat="40.5820967" lon="15.3383567"><ele>411.0</ele><time>2026-05-02T11:58:45.836Z</time></trkpt><trkpt lat="40.582145" lon="15.338255"><ele>408.8</ele><time>2026-05-02T11:58:46.836Z</time></trkpt><trkpt lat="40.582195" lon="15.338155"><ele>406.6</ele><time>2026-05-02T11:58:47.836Z</time></trkpt><trkpt lat="40.5822483" lon="15.33805"><ele>404.4</ele><time>2026-05-02T11:58:48.836Z</time></trkpt><trkpt lat="40.5822967" lon="15.3379483"><ele>402.2</ele><time>2026-05-02T11:58:49.836Z</time></trkpt><trkpt lat="40.5823383" lon="15.3378467"><ele>400.0</ele><time>2026-05-02T11:58:50.836Z</time></trkpt><trkpt lat="40.5823833" lon="15.3377517"><ele>400.0</ele><time>2026-05-02T11:58:51.836Z</time></trkpt><trkpt lat="40.5824283" lon="15.33765"><ele>400.0</ele><time>2026-05-02T11:58:52.835Z</time></trkpt><trkpt lat="40.5824667" lon="15.337555"><ele>400.0</ele><time>2026-05-02T11:58:53.836Z</time></trkpt><trkpt lat="40.5825117" lon="15.3374833"><ele>400.0</ele><time>2026-05-02T11:58:54.835Z</time></trkpt><trkpt lat="40.582595" lon="15.33747"><ele>400.0</ele><time>2026-05-02T11:58:56.836Z</time></trkpt><trkpt lat="40.5825983" lon="15.3376417"><ele>400.0</ele><time>2026-05-02T11:58:58.835Z</time></trkpt><trkpt lat="40.5825467" lon="15.3377667"><ele>400.0</ele><time>2026-05-02T11:58:59.836Z</time></trkpt><trkpt lat="40.582465" lon="15.33794"><ele>400.0</ele><time>2026-05-02T11:59:00.835Z</time></trkpt><trkpt lat="40.582395" lon="15.33811"><ele>400.0</ele><time>2026-05-02T11:59:01.835Z</time></trkpt><trkpt lat="40.5823233" lon="15.3382567"><ele>399.0</ele><time>2026-05-02T11:59:02.836Z</time></trkpt><trkpt lat="40.5822733" lon="15.33839"><ele>398.0</ele><time>2026-05-02T11:59:03.836Z</time></trkpt><trkpt lat="40.5822267" lon="15.3385017"><ele>397.0</ele><time>2026-05-02T11:59:04.836Z</time></trkpt><trkpt lat="40.5822033" lon="15.3386"><ele>396.0</ele><time>2026-05-02T11:59:05.836Z</time></trkpt><trkpt lat="40.5822467" lon="15.338725"><ele>395.0</ele><time>2026-05-02T11:59:07.835Z</time></trkpt><trkpt lat="40.5823683" lon="15.3386683"><ele>395.0</ele><time>2026-05-02T11:59:09.836Z</time></trkpt><trkpt lat="40.5824283" lon="15.3385667"><ele>395.0</ele><time>2026-05-02T11:59:10.835Z</time></trkpt><trkpt lat="40.5824933" lon="15.3384433"><ele>395.0</ele><time>2026-05-02T11:59:11.836Z</time></trkpt><trkpt lat="40.582565" lon="15.3383017"><ele>395.0</ele><time>2026-05-02T11:59:12.835Z</time></trkpt><trkpt lat="40.5826467" lon="15.33815"><ele>396.25</ele><time>2026-05-02T11:59:13.836Z</time></trkpt><trkpt lat="40.582735" lon="15.338"><ele>397.5</ele><time>2026-05-02T11:59:14.836Z</time></trkpt><trkpt lat="40.5828183" lon="15.3378517"><ele>398.75</ele><time>2026-05-02T11:59:15.836Z</time></trkpt><trkpt lat="40.582895" lon="15.3377083"><ele>400.0</ele><time>2026-05-02T11:59:16.835Z</time></trkpt><trkpt lat="40.5829617" lon="15.3375583"><ele>396.25</ele><time>2026-05-02T11:59:17.836Z</time></trkpt><trkpt lat="40.58302" lon="15.3374083"><ele>392.5</ele><time>2026-05-02T11:59:18.835Z</time></trkpt><trkpt lat="40.58307" lon="15.3372583"><ele>388.75</ele><time>2026-05-02T11:59:19.835Z</time></trkpt><trkpt lat="40.5830917" lon="15.3371017"><ele>385.0</ele><time>2026-05-02T11:59:20.836Z</time></trkpt><trkpt lat="40.58308" lon="15.3369383"><ele>385.0</ele><time>2026-05-02T11:59:21.835Z</time></trkpt><trkpt lat="40.5830433" lon="15.3367683"><ele>385.0</ele><time>2026-05-02T11:59:22.836Z</time></trkpt><trkpt lat="40.583" lon="15.3365983"><ele>385.0</ele><time>2026-05-02T11:59:23.835Z</time></trkpt><trkpt lat="40.5829517" lon="15.33645"><ele>385.0</ele><time>2026-05-02T11:59:24.836Z</time></trkpt><trkpt lat="40.5828983" lon="15.3363367"><ele>382.2</ele><time>2026-05-02T11:59:25.836Z</time></trkpt><trkpt lat="40.582825" lon="15.33625"><ele>379.4</ele><time>2026-05-02T11:59:26.836Z</time></trkpt><trkpt lat="40.5827233" lon="15.3362117"><ele>376.6</ele><time>2026-05-02T11:59:27.835Z</time></trkpt><trkpt lat="40.5826183" lon="15.3362133"><ele>373.8</ele><time>2026-05-02T11:59:28.835Z</time></trkpt><trkpt lat="40.5825283" lon="15.336225"><ele>371.0</ele><time>2026-05-02T11:59:29.836Z</time></trkpt><trkpt lat="40.5824633" lon="15.3362233"><ele>371.0</ele><time>2026-05-02T11:59:30.836Z</time></trkpt><trkpt lat="40.582395" lon="15.3361383"><ele>371.0</ele><time>2026-05-02T11:59:32.835Z</time></trkpt><trkpt lat="40.5824867" lon="15.3360333"><ele>371.0</ele><time>2026-05-02T11:59:34.836Z</time></trkpt><trkpt lat="40.5825867" lon="15.33598"><ele>371.0</ele><time>2026-05-02T11:59:35.835Z</time></trkpt><trkpt lat="40.58268" lon="15.3359167"><ele>371.0</ele><time>2026-05-02T11:59:36.836Z</time></trkpt><trkpt lat="40.5827433" lon="15.3358167"><ele>371.0</ele><time>2026-05-02T11:59:37.835Z</time></trkpt><trkpt lat="40.582785" lon="15.335685"><ele>371.0</ele><time>2026-05-02T11:59:38.836Z</time></trkpt><trkpt lat="40.582815" lon="15.33552"><ele>371.0</ele><time>2026-05-02T11:59:39.836Z</time></trkpt><trkpt lat="40.5828383" lon="15.3353417"><ele>371.0</ele><time>2026-05-02T11:59:40.836Z</time></trkpt><trkpt lat="40.58286" lon="15.335175"><ele>372.75</ele><time>2026-05-02T11:59:41.835Z</time></trkpt><trkpt lat="40.5828867" lon="15.3350167"><ele>374.5</ele><time>2026-05-02T11:59:42.835Z</time></trkpt><trkpt lat="40.5829167" lon="15.3348633"><ele>376.25</ele><time>2026-05-02T11:59:43.836Z</time></trkpt><trkpt lat="40.58296" lon="15.3347283"><ele>378.0</ele><time>2026-05-02T11:59:44.836Z</time></trkpt><trkpt lat="40.5830017" lon="15.33459"><ele>378.0</ele><time>2026-05-02T11:59:45.835Z</time></trkpt><trkpt lat="40.583045" lon="15.3344567"><ele>378.0</ele><time>2026-05-02T11:59:46.835Z</time></trkpt><trkpt lat="40.58309" lon="15.3343283"><ele>378.0</ele><time>2026-05-02T11:59:47.835Z</time></trkpt><trkpt lat="40.5831367" lon="15.33421"><ele>378.0</ele><time>2026-05-02T11:59:48.836Z</time></trkpt><trkpt lat="40.5831783" lon="15.3340917"><ele>378.0</ele><time>2026-05-02T11:59:49.835Z</time></trkpt><trkpt lat="40.583205" lon="15.3339717"><ele>377.2</ele><time>2026-05-02T11:59:50.836Z</time></trkpt><trkpt lat="40.5831917" lon="15.333855"><ele>376.4</ele><time>2026-05-02T11:59:51.835Z</time></trkpt><trkpt lat="40.5831483" lon="15.3337283"><ele>375.59999999999997</ele><time>2026-05-02T11:59:52.836Z</time></trkpt><trkpt lat="40.5830917" lon="15.3336067"><ele>374.79999999999995</ele><time>2026-05-02T11:59:53.836Z</time></trkpt><trkpt lat="40.5830233" lon="15.333485"><ele>374.0</ele><time>2026-05-02T11:59:54.835Z</time></trkpt><trkpt lat="40.5829517" lon="15.333365"><ele>374.0</ele><time>2026-05-02T11:59:55.836Z</time></trkpt><trkpt lat="40.5828717" lon="15.333245"><ele>374.0</ele><time>2026-05-02T11:59:56.835Z</time></trkpt><trkpt lat="40.582805" lon="15.33313"><ele>374.0</ele><time>2026-05-02T11:59:57.836Z</time></trkpt><trkpt lat="40.5827617" lon="15.3330067"><ele>374.0</ele><time>2026-05-02T11:59:58.836Z</time></trkpt><trkpt lat="40.582765" lon="15.33288"><ele>374.0</ele><time>2026-05-02T11:59:59.836Z</time></trkpt><trkpt lat="40.5828067" lon="15.3327533"><ele>369.25</ele><time>2026-05-02T12:00:00.836Z</time></trkpt><trkpt lat="40.5828767" lon="15.3326517"><ele>364.5</ele><time>2026-05-02T12:00:01.836Z</time></trkpt><trkpt lat="40.582985" lon="15.3325767"><ele>359.75</ele><time>2026-05-02T12:00:02.835Z</time></trkpt><trkpt lat="40.5831067" lon="15.3325167"><ele>355.0</ele><time>2026-05-02T12:00:03.835Z</time></trkpt><trkpt lat="40.58323" lon="15.332475"><ele>355.0</ele><time>2026-05-02T12:00:04.836Z</time></trkpt><trkpt lat="40.5833683" lon="15.332475"><ele>355.0</ele><time>2026-05-02T12:00:05.835Z</time></trkpt><trkpt lat="40.583515" lon="15.3324917"><ele>355.0</ele><time>2026-05-02T12:00:06.835Z</time></trkpt><trkpt lat="40.5836567" lon="15.332495"><ele>355.0</ele><time>2026-05-02T12:00:07.835Z</time></trkpt><trkpt lat="40.5837983" lon="15.3324683"><ele>355.75</ele><time>2026-05-02T12:00:08.836Z</time></trkpt><trkpt lat="40.5839233" lon="15.3324167"><ele>356.5</ele><time>2026-05-02T12:00:09.836Z</time></trkpt><trkpt lat="40.5840633" lon="15.3323433"><ele>357.25</ele><time>2026-05-02T12:00:10.835Z</time></trkpt><trkpt lat="40.58419" lon="15.332255"><ele>358.0</ele><time>2026-05-02T12:00:11.836Z</time></trkpt><trkpt lat="40.5843117" lon="15.3321483"><ele>357.0</ele><time>2026-05-02T12:00:12.836Z</time></trkpt><trkpt lat="40.5844117" lon="15.3320117"><ele>356.0</ele><time>2026-05-02T12:00:13.835Z</time></trkpt><trkpt lat="40.5844867" lon="15.331855"><ele>355.0</ele><time>2026-05-02T12:00:14.836Z</time></trkpt><trkpt lat="40.5845517" lon="15.3316783"><ele>354.0</ele><time>2026-05-02T12:00:15.835Z</time></trkpt><trkpt lat="40.5846133" lon="15.3314867"><ele>350.3333333333333</ele><time>2026-05-02T12:00:16.835Z</time></trkpt><trkpt lat="40.5846767" lon="15.3312783"><ele>346.66666666666663</ele><time>2026-05-02T12:00:17.836Z</time></trkpt><trkpt lat="40.5847467" lon="15.3310683"><ele>343.0</ele><time>2026-05-02T12:00:18.836Z</time></trkpt><trkpt lat="40.5848133" lon="15.33085"><ele>343.0</ele><time>2026-05-02T12:00:19.835Z</time></trkpt><trkpt lat="40.5848883" lon="15.3306383"><ele>343.0</ele><time>2026-05-02T12:00:20.836Z</time></trkpt><trkpt lat="40.584965" lon="15.3304333"><ele>343.0</ele><time>2026-05-02T12:00:21.835Z</time></trkpt><trkpt lat="40.585035" lon="15.330235"><ele>339.3333333333333</ele><time>2026-05-02T12:00:22.836Z</time></trkpt><trkpt lat="40.5850967" lon="15.3300433"><ele>335.6666666666667</ele><time>2026-05-02T12:00:23.835Z</time></trkpt><trkpt lat="40.5851567" lon="15.3298617"><ele>332.0</ele><time>2026-05-02T12:00:24.836Z</time></trkpt><trkpt lat="40.58522" lon="15.3296917"><ele>333.75</ele><time>2026-05-02T12:00:25.835Z</time></trkpt><trkpt lat="40.5852733" lon="15.3295117"><ele>335.5</ele><time>2026-05-02T12:00:26.835Z</time></trkpt><trkpt lat="40.58532" lon="15.3293267"><ele>337.25</ele><time>2026-05-02T12:00:27.835Z</time></trkpt><trkpt lat="40.5853417" lon="15.3291267"><ele>339.0</ele><time>2026-05-02T12:00:28.835Z</time></trkpt><trkpt lat="40.5853517" lon="15.3289383"><ele>340.25</ele><time>2026-05-02T12:00:29.836Z</time></trkpt><trkpt lat="40.5853583" lon="15.3287533"><ele>341.5</ele><time>2026-05-02T12:00:30.835Z</time></trkpt><trkpt lat="40.5853583" lon="15.3285733"><ele>342.75</ele><time>2026-05-02T12:00:31.835Z</time></trkpt><trkpt lat="40.5853283" lon="15.3284083"><ele>344.0</ele><time>2026-05-02T12:00:32.835Z</time></trkpt><trkpt lat="40.5852667" lon="15.3282467"><ele>339.0</ele><time>2026-05-02T12:00:33.836Z</time></trkpt><trkpt lat="40.5851783" lon="15.32808"><ele>334.0</ele><time>2026-05-02T12:00:34.836Z</time></trkpt><trkpt lat="40.5850667" lon="15.32791"><ele>329.0</ele><time>2026-05-02T12:00:35.836Z</time></trkpt><trkpt lat="40.58495" lon="15.327735"><ele>329.0</ele><time>2026-05-02T12:00:36.836Z</time></trkpt><trkpt lat="40.5848283" lon="15.32758"><ele>329.0</ele><time>2026-05-02T12:00:37.836Z</time></trkpt><trkpt lat="40.5847083" lon="15.327435"><ele>329.0</ele><time>2026-05-02T12:00:38.835Z</time></trkpt><trkpt lat="40.5845667" lon="15.32729"><ele>324.6666666666667</ele><time>2026-05-02T12:00:39.835Z</time></trkpt><trkpt lat="40.584425" lon="15.3271483"><ele>320.3333333333333</ele><time>2026-05-02T12:00:40.835Z</time></trkpt><trkpt lat="40.58429" lon="15.3270183"><ele>316.0</ele><time>2026-05-02T12:00:41.835Z</time></trkpt><trkpt lat="40.58415" lon="15.3268933"><ele>316.0</ele><time>2026-05-02T12:00:42.835Z</time></trkpt><trkpt lat="40.5840267" lon="15.32677"><ele>316.0</ele><time>2026-05-02T12:00:43.836Z</time></trkpt><trkpt lat="40.5839067" lon="15.3266533"><ele>316.0</ele><time>2026-05-02T12:00:44.836Z</time></trkpt><trkpt lat="40.5837833" lon="15.326525"><ele>315.75</ele><time>2026-05-02T12:00:45.836Z</time></trkpt><trkpt lat="40.58367" lon="15.326415"><ele>315.5</ele><time>2026-05-02T12:00:46.835Z</time></trkpt><trkpt lat="40.5835633" lon="15.3263117"><ele>315.25</ele><time>2026-05-02T12:00:47.835Z</time></trkpt><trkpt lat="40.5834733" lon="15.326215"><ele>315.0</ele><time>2026-05-02T12:00:48.835Z</time></trkpt><trkpt lat="40.5833833" lon="15.3261217"><ele>315.0</ele><time>2026-05-02T12:00:49.835Z</time></trkpt><trkpt lat="40.583315" lon="15.3260167"><ele>315.0</ele><time>2026-05-02T12:00:50.835Z</time></trkpt><trkpt lat="40.5832633" lon="15.3259083"><ele>315.0</ele><time>2026-05-02T12:00:51.836Z</time></trkpt><trkpt lat="40.5832317" lon="15.32579"><ele>315.0</ele><time>2026-05-02T12:00:52.835Z</time></trkpt><trkpt lat="40.58322" lon="15.32568"><ele>315.0</ele><time>2026-05-02T12:00:53.836Z</time></trkpt><trkpt lat="40.5832167" lon="15.325565"><ele>315.8333333333333</ele><time>2026-05-02T12:00:54.835Z</time></trkpt><trkpt lat="40.5832217" lon="15.3254617"><ele>316.6666666666667</ele><time>2026-05-02T12:00:55.836Z</time></trkpt><trkpt lat="40.583215" lon="15.325365"><ele>317.5</ele><time>2026-05-02T12:00:56.836Z</time></trkpt><trkpt lat="40.5831783" lon="15.3252683"><ele>318.33333333333337</ele><time>2026-05-02T12:00:57.835Z</time></trkpt><trkpt lat="40.5831217" lon="15.3251783"><ele>319.1666666666667</ele><time>2026-05-02T12:00:58.836Z</time></trkpt><trkpt lat="40.5830317" lon="15.3251017"><ele>320.0</ele><time>2026-05-02T12:00:59.836Z</time></trkpt><trkpt lat="40.5829183" lon="15.3250283"><ele>318.25</ele><time>2026-05-02T12:01:00.836Z</time></trkpt><trkpt lat="40.582805" lon="15.3249533"><ele>316.5</ele><time>2026-05-02T12:01:01.835Z</time></trkpt><trkpt lat="40.582705" lon="15.3248533"><ele>314.75</ele><time>2026-05-02T12:01:02.835Z</time></trkpt><trkpt lat="40.5826167" lon="15.3247233"><ele>313.0</ele><time>2026-05-02T12:01:03.835Z</time></trkpt><trkpt lat="40.582535" lon="15.3245683"><ele>313.0</ele><time>2026-05-02T12:01:04.835Z</time></trkpt><trkpt lat="40.5824583" lon="15.324415"><ele>313.0</ele><time>2026-05-02T12:01:05.835Z</time></trkpt><trkpt lat="40.5823833" lon="15.3242633"><ele>313.0</ele><time>2026-05-02T12:01:06.836Z</time></trkpt><trkpt lat="40.58231" lon="15.3241083"><ele>313.0</ele><time>2026-05-02T12:01:07.835Z</time></trkpt><trkpt lat="40.5822317" lon="15.3239567"><ele>313.75</ele><time>2026-05-02T12:01:08.835Z</time></trkpt><trkpt lat="40.5821433" lon="15.3238133"><ele>314.5</ele><time>2026-05-02T12:01:09.836Z</time></trkpt><trkpt lat="40.5820433" lon="15.3236883"><ele>315.25</ele><time>2026-05-02T12:01:10.835Z</time></trkpt><trkpt lat="40.5819383" lon="15.323565"><ele>316.0</ele><time>2026-05-02T12:01:11.835Z</time></trkpt><trkpt lat="40.5818267" lon="15.323445"><ele>313.5</ele><time>2026-05-02T12:01:12.836Z</time></trkpt><trkpt lat="40.58172" lon="15.3233217"><ele>311.0</ele><time>2026-05-02T12:01:13.836Z</time></trkpt><trkpt lat="40.5816233" lon="15.323205"><ele>308.5</ele><time>2026-05-02T12:01:14.836Z</time></trkpt><trkpt lat="40.581525" lon="15.323095"><ele>306.0</ele><time>2026-05-02T12:01:15.836Z</time></trkpt><trkpt lat="40.5814217" lon="15.3229917"><ele>306.0</ele><time>2026-05-02T12:01:16.835Z</time></trkpt><trkpt lat="40.5813033" lon="15.3228917"><ele>306.0</ele><time>2026-05-02T12:01:17.836Z</time></trkpt><trkpt lat="40.581175" lon="15.3227817"><ele>306.0</ele><time>2026-05-02T12:01:18.835Z</time></trkpt><trkpt lat="40.5810383" lon="15.3226717"><ele>302.6666666666667</ele><time>2026-05-02T12:01:19.835Z</time></trkpt><trkpt lat="40.580875" lon="15.3225583"><ele>299.33333333333337</ele><time>2026-05-02T12:01:20.836Z</time></trkpt><trkpt lat="40.5806967" lon="15.3224383"><ele>296.0</ele><time>2026-05-02T12:01:21.836Z</time></trkpt><trkpt lat="40.58052" lon="15.3223217"><ele>295.0</ele><time>2026-05-02T12:01:22.836Z</time></trkpt><trkpt lat="40.5803533" lon="15.3222067"><ele>294.0</ele><time>2026-05-02T12:01:23.836Z</time></trkpt><trkpt lat="40.58019" lon="15.3221033"><ele>293.0</ele><time>2026-05-02T12:01:24.835Z</time></trkpt><trkpt lat="40.5800317" lon="15.3220017"><ele>291.0</ele><time>2026-05-02T12:01:25.835Z</time></trkpt><trkpt lat="40.5798817" lon="15.3219067"><ele>289.0</ele><time>2026-05-02T12:01:26.836Z</time></trkpt><trkpt lat="40.5797383" lon="15.3218133"><ele>287.0</ele><time>2026-05-02T12:01:27.836Z</time></trkpt><trkpt lat="40.5795983" lon="15.32172"><ele>285.75</ele><time>2026-05-02T12:01:28.835Z</time></trkpt><trkpt lat="40.5794617" lon="15.32163"><ele>284.5</ele><time>2026-05-02T12:01:29.835Z</time></trkpt><trkpt lat="40.5793333" lon="15.3215467"><ele>283.25</ele><time>2026-05-02T12:01:30.835Z</time></trkpt><trkpt lat="40.579225" lon="15.3214533"><ele>282.0</ele><time>2026-05-02T12:01:31.835Z</time></trkpt><trkpt lat="40.5791367" lon="15.3213383"><ele>281.5</ele><time>2026-05-02T12:01:32.835Z</time></trkpt><trkpt lat="40.57908" lon="15.321195"><ele>281.0</ele><time>2026-05-02T12:01:33.834Z</time></trkpt><trkpt lat="40.579055" lon="15.3210383"><ele>280.5</ele><time>2026-05-02T12:01:34.834Z</time></trkpt><trkpt lat="40.579065" lon="15.3208917"><ele>280.0</ele><time>2026-05-02T12:01:35.835Z</time></trkpt><trkpt lat="40.579105" lon="15.32077"><ele>280.0</ele><time>2026-05-02T12:01:36.834Z</time></trkpt><trkpt lat="40.5791767" lon="15.3206683"><ele>280.0</ele><time>2026-05-02T12:01:37.835Z</time></trkpt><trkpt lat="40.579275" lon="15.3205767"><ele>280.0</ele><time>2026-05-02T12:01:38.835Z</time></trkpt><trkpt lat="40.5793917" lon="15.3204867"><ele>280.0</ele><time>2026-05-02T12:01:39.835Z</time></trkpt><trkpt lat="40.5795167" lon="15.320385"><ele>279.0</ele><time>2026-05-02T12:01:40.835Z</time></trkpt><trkpt lat="40.579645" lon="15.3202883"><ele>278.0</ele><time>2026-05-02T12:01:41.835Z</time></trkpt><trkpt lat="40.5797633" lon="15.3201867"><ele>277.0</ele><time>2026-05-02T12:01:42.835Z</time></trkpt><trkpt lat="40.579885" lon="15.3200867"><ele>276.0</ele><time>2026-05-02T12:01:43.834Z</time></trkpt><trkpt lat="40.5799983" lon="15.319985"><ele>276.0</ele><time>2026-05-02T12:01:44.834Z</time></trkpt><trkpt lat="40.5801067" lon="15.31989"><ele>276.0</ele><time>2026-05-02T12:01:45.835Z</time></trkpt><trkpt lat="40.5802" lon="15.319795"><ele>276.0</ele><time>2026-05-02T12:01:46.835Z</time></trkpt><trkpt lat="40.5802717" lon="15.3196867"><ele>276.0</ele><time>2026-05-02T12:01:47.834Z</time></trkpt><trkpt lat="40.5802967" lon="15.3195633"><ele>274.5</ele><time>2026-05-02T12:01:48.834Z</time></trkpt><trkpt lat="40.580285" lon="15.3194367"><ele>273.0</ele><time>2026-05-02T12:01:49.835Z</time></trkpt><trkpt lat="40.5802467" lon="15.3193067"><ele>271.5</ele><time>2026-05-02T12:01:50.834Z</time></trkpt><trkpt lat="40.5801883" lon="15.3191567"><ele>270.0</ele><time>2026-05-02T12:01:51.834Z</time></trkpt><trkpt lat="40.58012" lon="15.3189867"><ele>269.6666666666667</ele><time>2026-05-02T12:01:52.835Z</time></trkpt><trkpt lat="40.5800367" lon="15.3188017"><ele>269.33333333333337</ele><time>2026-05-02T12:01:53.835Z</time></trkpt><trkpt lat="40.5799533" lon="15.3186167"><ele>269.0</ele><time>2026-05-02T12:01:54.834Z</time></trkpt><trkpt lat="40.5798733" lon="15.3184333"><ele>269.0</ele><time>2026-05-02T12:01:55.835Z</time></trkpt><trkpt lat="40.5797967" lon="15.3182683"><ele>269.0</ele><time>2026-05-02T12:01:56.834Z</time></trkpt><trkpt lat="40.57973" lon="15.318105"><ele>269.0</ele><time>2026-05-02T12:01:57.835Z</time></trkpt><trkpt lat="40.5796567" lon="15.3179417"><ele>269.0</ele><time>2026-05-02T12:01:58.835Z</time></trkpt><trkpt lat="40.579575" lon="15.3177917"><ele>267.0</ele><time>2026-05-02T12:01:59.835Z</time></trkpt><trkpt lat="40.57948" lon="15.31766"><ele>265.0</ele><time>2026-05-02T12:02:00.834Z</time></trkpt><trkpt lat="40.579375" lon="15.3175617"><ele>263.0</ele><time>2026-05-02T12:02:01.834Z</time></trkpt><trkpt lat="40.5792583" lon="15.3174867"><ele>261.0</ele><time>2026-05-02T12:02:02.834Z</time></trkpt><trkpt lat="40.5791167" lon="15.3174333"><ele>261.0</ele><time>2026-05-02T12:02:03.835Z</time></trkpt><trkpt lat="40.57896" lon="15.3173767"><ele>261.0</ele><time>2026-05-02T12:02:04.834Z</time></trkpt><trkpt lat="40.5788017" lon="15.3173117"><ele>261.0</ele><time>2026-05-02T12:02:05.834Z</time></trkpt><trkpt lat="40.5786333" lon="15.3172517"><ele>258.0</ele><time>2026-05-02T12:02:06.834Z</time></trkpt><trkpt lat="40.5784567" lon="15.317205"><ele>255.0</ele><time>2026-05-02T12:02:07.835Z</time></trkpt><trkpt lat="40.5782683" lon="15.3171417"><ele>252.0</ele><time>2026-05-02T12:02:08.834Z</time></trkpt><trkpt lat="40.5780717" lon="15.3170717"><ele>252.0</ele><time>2026-05-02T12:02:09.834Z</time></trkpt><trkpt lat="40.577875" lon="15.3170033"><ele>252.0</ele><time>2026-05-02T12:02:10.834Z</time></trkpt><trkpt lat="40.5776867" lon="15.3169317"><ele>252.0</ele><time>2026-05-02T12:02:11.834Z</time></trkpt><trkpt lat="40.577515" lon="15.3168633"><ele>252.0</ele><time>2026-05-02T12:02:12.834Z</time></trkpt><trkpt lat="40.577355" lon="15.316795"><ele>252.0</ele><time>2026-05-02T12:02:13.834Z</time></trkpt><trkpt lat="40.5772" lon="15.316735"><ele>252.0</ele><time>2026-05-02T12:02:14.835Z</time></trkpt><trkpt lat="40.5770433" lon="15.316675"><ele>252.0</ele><time>2026-05-02T12:02:15.834Z</time></trkpt><trkpt lat="40.5769033" lon="15.316615"><ele>252.0</ele><time>2026-05-02T12:02:16.835Z</time></trkpt><trkpt lat="40.5767683" lon="15.31656"><ele>252.0</ele><time>2026-05-02T12:02:17.835Z</time></trkpt><trkpt lat="40.57664" lon="15.3165067"><ele>252.0</ele><time>2026-05-02T12:02:18.835Z</time></trkpt><trkpt lat="40.5765217" lon="15.31643"><ele>251.25</ele><time>2026-05-02T12:02:19.834Z</time></trkpt><trkpt lat="40.5764183" lon="15.3163317"><ele>250.5</ele><time>2026-05-02T12:02:20.834Z</time></trkpt><trkpt lat="40.57634" lon="15.316215"><ele>249.75</ele><time>2026-05-02T12:02:21.834Z</time></trkpt><trkpt lat="40.5762683" lon="15.3161017"><ele>249.0</ele><time>2026-05-02T12:02:22.834Z</time></trkpt><trkpt lat="40.5762017" lon="15.3159917"><ele>249.0</ele><time>2026-05-02T12:02:23.835Z</time></trkpt><trkpt lat="40.5761333" lon="15.3159"><ele>248.99999999999997</ele><time>2026-05-02T12:02:24.834Z</time></trkpt><trkpt lat="40.5760667" lon="15.3158317"><ele>248.99999999999997</ele><time>2026-05-02T12:02:25.835Z</time></trkpt><trkpt lat="40.5759867" lon="15.315775"><ele>249.0</ele><time>2026-05-02T12:02:26.835Z</time></trkpt><trkpt lat="40.5758967" lon="15.3157333"><ele>249.0</ele><time>2026-05-02T12:02:27.834Z</time></trkpt><trkpt lat="40.5758083" lon="15.31571"><ele>249.0</ele><time>2026-05-02T12:02:28.835Z</time></trkpt><trkpt lat="40.57572" lon="15.3156867"><ele>248.99999999999997</ele><time>2026-05-02T12:02:29.834Z</time></trkpt><trkpt lat="40.57563" lon="15.31567"><ele>248.99999999999997</ele><time>2026-05-02T12:02:30.835Z</time></trkpt><trkpt lat="40.5755383" lon="15.3156583"><ele>249.0</ele><time>2026-05-02T12:02:31.835Z</time></trkpt><trkpt lat="40.5754417" lon="15.3156517"><ele>249.0</ele><time>2026-05-02T12:02:32.835Z</time></trkpt><trkpt lat="40.5753517" lon="15.3156383"><ele>248.0</ele><time>2026-05-02T12:02:33.834Z</time></trkpt><trkpt lat="40.5752617" lon="15.3156083"><ele>246.99999999999997</ele><time>2026-05-02T12:02:34.835Z</time></trkpt><trkpt lat="40.5751783" lon="15.31556"><ele>245.99999999999997</ele><time>2026-05-02T12:02:35.834Z</time></trkpt><trkpt lat="40.5751117" lon="15.315485"><ele>245.0</ele><time>2026-05-02T12:02:36.834Z</time></trkpt><trkpt lat="40.575055" lon="15.315375"><ele>244.0</ele><time>2026-05-02T12:02:37.834Z</time></trkpt><trkpt lat="40.5750417" lon="15.315255"><ele>243.39999999999998</ele><time>2026-05-02T12:02:38.835Z</time></trkpt><trkpt lat="40.5750667" lon="15.3151283"><ele>242.79999999999998</ele><time>2026-05-02T12:02:39.834Z</time></trkpt><trkpt lat="40.5751" lon="15.3149867"><ele>242.20000000000002</ele><time>2026-05-02T12:02:40.835Z</time></trkpt><trkpt lat="40.5751117" lon="15.31486"><ele>241.60000000000002</ele><time>2026-05-02T12:02:41.835Z</time></trkpt><trkpt lat="40.5751017" lon="15.3147483"><ele>241.0</ele><time>2026-05-02T12:02:42.834Z</time></trkpt><trkpt lat="40.575065" lon="15.3146583"><ele>239.75</ele><time>2026-05-02T12:02:43.834Z</time></trkpt><trkpt lat="40.575005" lon="15.3145533"><ele>238.5</ele><time>2026-05-02T12:02:44.835Z</time></trkpt><trkpt lat="40.5749167" lon="15.3144467"><ele>237.25</ele><time>2026-05-02T12:02:45.835Z</time></trkpt><trkpt lat="40.5748083" lon="15.3143267"><ele>236.0</ele><time>2026-05-02T12:02:46.834Z</time></trkpt><trkpt lat="40.5746983" lon="15.3142067"><ele>236.0</ele><time>2026-05-02T12:02:47.834Z</time></trkpt><trkpt lat="40.5745917" lon="15.3140883"><ele>236.0</ele><time>2026-05-02T12:02:48.835Z</time></trkpt><trkpt lat="40.574485" lon="15.3139767"><ele>236.0</ele><time>2026-05-02T12:02:49.835Z</time></trkpt><trkpt lat="40.5743817" lon="15.3138683"><ele>236.0</ele><time>2026-05-02T12:02:50.835Z</time></trkpt><trkpt lat="40.57428" lon="15.31375"><ele>234.25</ele><time>2026-05-02T12:02:51.834Z</time></trkpt><trkpt lat="40.5741783" lon="15.3136317"><ele>232.5</ele><time>2026-05-02T12:02:52.835Z</time></trkpt><trkpt lat="40.5740817" lon="15.313515"><ele>230.75</ele><time>2026-05-02T12:02:53.835Z</time></trkpt><trkpt lat="40.573995" lon="15.3133917"><ele>229.0</ele><time>2026-05-02T12:02:54.835Z</time></trkpt><trkpt lat="40.5739283" lon="15.3132567"><ele>229.0</ele><time>2026-05-02T12:02:55.835Z</time></trkpt><trkpt lat="40.5738917" lon="15.3131133"><ele>229.0</ele><time>2026-05-02T12:02:56.835Z</time></trkpt><trkpt lat="40.573875" lon="15.3129567"><ele>229.0</ele><time>2026-05-02T12:02:57.834Z</time></trkpt><trkpt lat="40.5738833" lon="15.3127933"><ele>229.0</ele><time>2026-05-02T12:02:58.835Z</time></trkpt><trkpt lat="40.5738917" lon="15.3126367"><ele>229.6</ele><time>2026-05-02T12:02:59.835Z</time></trkpt><trkpt lat="40.573895" lon="15.3124933"><ele>230.2</ele><time>2026-05-02T12:03:00.835Z</time></trkpt><trkpt lat="40.5738867" lon="15.3123733"><ele>230.79999999999998</ele><time>2026-05-02T12:03:01.834Z</time></trkpt><trkpt lat="40.5738683" lon="15.3122767"><ele>231.39999999999998</ele><time>2026-05-02T12:03:02.835Z</time></trkpt><trkpt lat="40.5738367" lon="15.3122033"><ele>232.0</ele><time>2026-05-02T12:03:03.835Z</time></trkpt><trkpt lat="40.5737217" lon="15.3121433"><ele>231.66666666666666</ele><time>2026-05-02T12:03:05.834Z</time></trkpt><trkpt lat="40.57365" lon="15.3121317"><ele>231.33333333333331</ele><time>2026-05-02T12:03:06.835Z</time></trkpt><trkpt lat="40.5735667" lon="15.3121167"><ele>231.0</ele><time>2026-05-02T12:03:07.834Z</time></trkpt><trkpt lat="40.5734817" lon="15.3120933"><ele>230.66666666666669</ele><time>2026-05-02T12:03:08.834Z</time></trkpt><trkpt lat="40.57339" lon="15.31207"><ele>230.33333333333334</ele><time>2026-05-02T12:03:09.835Z</time></trkpt><trkpt lat="40.5732983" lon="15.3120467"><ele>230.0</ele><time>2026-05-02T12:03:10.834Z</time></trkpt><trkpt lat="40.5732083" lon="15.3120217"><ele>230.00000000000003</ele><time>2026-05-02T12:03:11.834Z</time></trkpt><trkpt lat="40.57312" lon="15.3119983"><ele>230.0</ele><time>2026-05-02T12:03:12.834Z</time></trkpt><trkpt lat="40.573035" lon="15.311975"><ele>230.0</ele><time>2026-05-02T12:03:13.834Z</time></trkpt><trkpt lat="40.572955" lon="15.3119533"><ele>230.0</ele><time>2026-05-02T12:03:14.834Z</time></trkpt><trkpt lat="40.5728717" lon="15.31193"><ele>230.00000000000003</ele><time>2026-05-02T12:03:15.834Z</time></trkpt><trkpt lat="40.5727883" lon="15.31191"><ele>230.0</ele><time>2026-05-02T12:03:16.834Z</time></trkpt><trkpt lat="40.5727133" lon="15.31189"><ele>230.33333333333334</ele><time>2026-05-02T12:03:17.834Z</time></trkpt><trkpt lat="40.5726483" lon="15.3118717"><ele>230.66666666666669</ele><time>2026-05-02T12:03:18.835Z</time></trkpt><trkpt lat="40.572575" lon="15.3118367"><ele>231.0</ele><time>2026-05-02T12:03:20.835Z</time></trkpt><trkpt lat="40.5725367" lon="15.31175"><ele>231.33333333333331</ele><time>2026-05-02T12:03:27.834Z</time></trkpt><trkpt lat="40.57254" lon="15.3116667"><ele>231.66666666666666</ele><time>2026-05-02T12:03:28.834Z</time></trkpt><trkpt lat="40.5725567" lon="15.3115567"><ele>232.0</ele><time>2026-05-02T12:03:29.835Z</time></trkpt><trkpt lat="40.5725833" lon="15.311425"><ele>232.0</ele><time>2026-05-02T12:03:30.835Z</time></trkpt><trkpt lat="40.5726133" lon="15.3112867"><ele>232.0</ele><time>2026-05-02T12:03:31.834Z</time></trkpt><trkpt lat="40.5726517" lon="15.3111433"><ele>232.0</ele><time>2026-05-02T12:03:32.835Z</time></trkpt><trkpt lat="40.5726833" lon="15.310995"><ele>232.0</ele><time>2026-05-02T12:03:33.834Z</time></trkpt><trkpt lat="40.5727167" lon="15.3108417"><ele>232.0</ele><time>2026-05-02T12:03:34.834Z</time></trkpt><trkpt lat="40.57275" lon="15.3106833"><ele>232.0</ele><time>2026-05-02T12:03:35.834Z</time></trkpt><trkpt lat="40.5727867" lon="15.3105217"><ele>232.0</ele><time>2026-05-02T12:03:36.835Z</time></trkpt><trkpt lat="40.572825" lon="15.3103533"><ele>232.0</ele><time>2026-05-02T12:03:37.834Z</time></trkpt><trkpt lat="40.57286" lon="15.3101883"><ele>231.75</ele><time>2026-05-02T12:03:38.835Z</time></trkpt><trkpt lat="40.5728933" lon="15.3100183"><ele>231.5</ele><time>2026-05-02T12:03:39.835Z</time></trkpt><trkpt lat="40.5729317" lon="15.309845"><ele>231.25</ele><time>2026-05-02T12:03:40.835Z</time></trkpt><trkpt lat="40.57297" lon="15.3096733"><ele>231.0</ele><time>2026-05-02T12:03:41.835Z</time></trkpt><trkpt lat="40.573015" lon="15.309495"><ele>231.0</ele><time>2026-05-02T12:03:42.834Z</time></trkpt><trkpt lat="40.5730617" lon="15.3093133"><ele>231.0</ele><time>2026-05-02T12:03:43.834Z</time></trkpt><trkpt lat="40.573105" lon="15.3091333"><ele>231.0</ele><time>2026-05-02T12:03:44.835Z</time></trkpt><trkpt lat="40.5731467" lon="15.3089583"><ele>231.0</ele><time>2026-05-02T12:03:45.834Z</time></trkpt><trkpt lat="40.573195" lon="15.3087767"><ele>231.5</ele><time>2026-05-02T12:03:46.834Z</time></trkpt><trkpt lat="40.5732467" lon="15.3085967"><ele>232.0</ele><time>2026-05-02T12:03:47.834Z</time></trkpt><trkpt lat="40.5733017" lon="15.30842"><ele>232.5</ele><time>2026-05-02T12:03:48.835Z</time></trkpt><trkpt lat="40.573355" lon="15.3082383"><ele>233.0</ele><time>2026-05-02T12:03:49.835Z</time></trkpt><trkpt lat="40.5734117" lon="15.3080633"><ele>233.25</ele><time>2026-05-02T12:03:50.834Z</time></trkpt><trkpt lat="40.573465" lon="15.3078867"><ele>233.5</ele><time>2026-05-02T12:03:51.834Z</time></trkpt><trkpt lat="40.57352" lon="15.3077067"><ele>233.75</ele><time>2026-05-02T12:03:52.835Z</time></trkpt><trkpt lat="40.5735717" lon="15.3075267"><ele>234.0</ele><time>2026-05-02T12:03:53.835Z</time></trkpt><trkpt lat="40.573625" lon="15.3073433"><ele>234.33333333333331</ele><time>2026-05-02T12:03:54.834Z</time></trkpt><trkpt lat="40.573685" lon="15.3071633"><ele>234.66666666666666</ele><time>2026-05-02T12:03:55.835Z</time></trkpt><trkpt lat="40.57374" lon="15.3069783"><ele>235.0</ele><time>2026-05-02T12:03:56.835Z</time></trkpt><trkpt lat="40.5737917" lon="15.3067917"><ele>235.0</ele><time>2026-05-02T12:03:57.834Z</time></trkpt><trkpt lat="40.5738467" lon="15.3066033"><ele>235.0</ele><time>2026-05-02T12:03:58.835Z</time></trkpt><trkpt lat="40.5739" lon="15.30641"><ele>235.0</ele><time>2026-05-02T12:03:59.834Z</time></trkpt><trkpt lat="40.5739567" lon="15.3062183"><ele>235.0</ele><time>2026-05-02T12:04:00.835Z</time></trkpt><trkpt lat="40.5740183" lon="15.3060267"><ele>235.0</ele><time>2026-05-02T12:04:01.834Z</time></trkpt><trkpt lat="40.5740833" lon="15.3058283"><ele>235.0</ele><time>2026-05-02T12:04:02.834Z</time></trkpt><trkpt lat="40.5741467" lon="15.3056317"><ele>235.66666666666666</ele><time>2026-05-02T12:04:03.835Z</time></trkpt><trkpt lat="40.5742067" lon="15.30543"><ele>236.33333333333331</ele><time>2026-05-02T12:04:04.834Z</time></trkpt><trkpt lat="40.5742733" lon="15.3052283"><ele>237.0</ele><time>2026-05-02T12:04:05.834Z</time></trkpt><trkpt lat="40.574335" lon="15.3050267"><ele>237.0</ele><time>2026-05-02T12:04:06.834Z</time></trkpt><trkpt lat="40.574395" lon="15.3048333"><ele>237.0</ele><time>2026-05-02T12:04:07.835Z</time></trkpt><trkpt lat="40.574455" lon="15.304635"><ele>237.0</ele><time>2026-05-02T12:04:08.835Z</time></trkpt><trkpt lat="40.5745183" lon="15.304435"><ele>237.0</ele><time>2026-05-02T12:04:09.835Z</time></trkpt><trkpt lat="40.574575" lon="15.3042333"><ele>237.0</ele><time>2026-05-02T12:04:10.834Z</time></trkpt><trkpt lat="40.574635" lon="15.3040383"><ele>237.0</ele><time>2026-05-02T12:04:11.834Z</time></trkpt><trkpt lat="40.5746983" lon="15.3038517"><ele>239.0</ele><time>2026-05-02T12:04:12.834Z</time></trkpt><trkpt lat="40.5747517" lon="15.3036617"><ele>241.0</ele><time>2026-05-02T12:04:13.834Z</time></trkpt><trkpt lat="40.5748117" lon="15.3034733"><ele>243.0</ele><time>2026-05-02T12:04:14.834Z</time></trkpt><trkpt lat="40.5748683" lon="15.3032783"><ele>243.0</ele><time>2026-05-02T12:04:15.835Z</time></trkpt><trkpt lat="40.5749167" lon="15.3030867"><ele>243.0</ele><time>2026-05-02T12:04:16.835Z</time></trkpt><trkpt lat="40.57497" lon="15.3029"><ele>243.0</ele><time>2026-05-02T12:04:17.835Z</time></trkpt><trkpt lat="40.5750333" lon="15.3027167"><ele>243.5</ele><time>2026-05-02T12:04:18.835Z</time></trkpt><trkpt lat="40.5750967" lon="15.302545"><ele>244.0</ele><time>2026-05-02T12:04:19.835Z</time></trkpt><trkpt lat="40.5751767" lon="15.3023833"><ele>244.5</ele><time>2026-05-02T12:04:20.835Z</time></trkpt><trkpt lat="40.5752617" lon="15.302225"><ele>245.0</ele><time>2026-05-02T12:04:21.835Z</time></trkpt><trkpt lat="40.5753433" lon="15.30206"><ele>246.0</ele><time>2026-05-02T12:04:22.834Z</time></trkpt><trkpt lat="40.575425" lon="15.3019017"><ele>247.0</ele><time>2026-05-02T12:04:23.834Z</time></trkpt><trkpt lat="40.5755083" lon="15.30174"><ele>248.0</ele><time>2026-05-02T12:04:24.834Z</time></trkpt><trkpt lat="40.575595" lon="15.3015833"><ele>249.0</ele><time>2026-05-02T12:04:25.835Z</time></trkpt><trkpt lat="40.5756833" lon="15.30143"><ele>249.75</ele><time>2026-05-02T12:04:26.834Z</time></trkpt><trkpt lat="40.5757717" lon="15.301275"><ele>250.5</ele><time>2026-05-02T12:04:27.834Z</time></trkpt><trkpt lat="40.5758583" lon="15.3011283"><ele>251.25</ele><time>2026-05-02T12:04:28.834Z</time></trkpt><trkpt lat="40.5759383" lon="15.3009783"><ele>252.0</ele><time>2026-05-02T12:04:29.835Z</time></trkpt><trkpt lat="40.5760133" lon="15.3008283"><ele>252.0</ele><time>2026-05-02T12:04:30.835Z</time></trkpt><trkpt lat="40.5760933" lon="15.3006767"><ele>252.0</ele><time>2026-05-02T12:04:31.834Z</time></trkpt><trkpt lat="40.5761733" lon="15.3005267"><ele>252.0</ele><time>2026-05-02T12:04:32.834Z</time></trkpt><trkpt lat="40.5762583" lon="15.300375"><ele>252.0</ele><time>2026-05-02T12:04:33.835Z</time></trkpt><trkpt lat="40.5763317" lon="15.30022"><ele>252.0</ele><time>2026-05-02T12:04:34.834Z</time></trkpt><trkpt lat="40.5764067" lon="15.30006"><ele>252.0</ele><time>2026-05-02T12:04:35.834Z</time></trkpt><trkpt lat="40.5764817" lon="15.2998967"><ele>252.0</ele><time>2026-05-02T12:04:36.835Z</time></trkpt><trkpt lat="40.5765483" lon="15.2997267"><ele>252.0</ele><time>2026-05-02T12:04:37.834Z</time></trkpt><trkpt lat="40.5766167" lon="15.2995567"><ele>253.0</ele><time>2026-05-02T12:04:38.834Z</time></trkpt><trkpt lat="40.5766817" lon="15.2993817"><ele>254.0</ele><time>2026-05-02T12:04:39.835Z</time></trkpt><trkpt lat="40.5767533" lon="15.2992033"><ele>255.0</ele><time>2026-05-02T12:04:40.835Z</time></trkpt><trkpt lat="40.57682" lon="15.2990267"><ele>255.66666666666669</ele><time>2026-05-02T12:04:41.834Z</time></trkpt><trkpt lat="40.5768867" lon="15.2988433"><ele>256.33333333333337</ele><time>2026-05-02T12:04:42.835Z</time></trkpt><trkpt lat="40.5769583" lon="15.29866"><ele>257.0</ele><time>2026-05-02T12:04:43.834Z</time></trkpt><trkpt lat="40.5770283" lon="15.29847"><ele>257.5</ele><time>2026-05-02T12:04:44.835Z</time></trkpt><trkpt lat="40.5770933" lon="15.2982933"><ele>258.0</ele><time>2026-05-02T12:04:45.834Z</time></trkpt><trkpt lat="40.5771533" lon="15.2981183"><ele>258.5</ele><time>2026-05-02T12:04:46.835Z</time></trkpt><trkpt lat="40.5772167" lon="15.2979533"><ele>259.0</ele><time>2026-05-02T12:04:47.834Z</time></trkpt><trkpt lat="40.5772683" lon="15.2977933"><ele>259.0</ele><time>2026-05-02T12:04:48.834Z</time></trkpt><trkpt lat="40.5773" lon="15.2976417"><ele>259.0</ele><time>2026-05-02T12:04:49.835Z</time></trkpt><trkpt lat="40.5773233" lon="15.2974967"><ele>259.0</ele><time>2026-05-02T12:04:50.835Z</time></trkpt><trkpt lat="40.5773383" lon="15.2973567"><ele>259.0</ele><time>2026-05-02T12:04:51.834Z</time></trkpt><trkpt lat="40.5773567" lon="15.2972167"><ele>259.0</ele><time>2026-05-02T12:04:52.835Z</time></trkpt><trkpt lat="40.5773717" lon="15.2970733"><ele>259.25</ele><time>2026-05-02T12:04:53.834Z</time></trkpt><trkpt lat="40.5773917" lon="15.296925"><ele>259.5</ele><time>2026-05-02T12:04:54.835Z</time></trkpt><trkpt lat="40.5774067" lon="15.29677"><ele>259.75</ele><time>2026-05-02T12:04:55.834Z</time></trkpt><trkpt lat="40.5774283" lon="15.29662"><ele>260.0</ele><time>2026-05-02T12:04:56.835Z</time></trkpt><trkpt lat="40.57745" lon="15.2964617"><ele>260.75</ele><time>2026-05-02T12:04:57.834Z</time></trkpt><trkpt lat="40.57747" lon="15.2963067"><ele>261.5</ele><time>2026-05-02T12:04:58.835Z</time></trkpt><trkpt lat="40.5774917" lon="15.2961517"><ele>262.25</ele><time>2026-05-02T12:04:59.834Z</time></trkpt><trkpt lat="40.577505" lon="15.2959917"><ele>263.0</ele><time>2026-05-02T12:05:00.834Z</time></trkpt><trkpt lat="40.57752" lon="15.295835"><ele>263.0</ele><time>2026-05-02T12:05:01.834Z</time></trkpt><trkpt lat="40.57754" lon="15.295685"><ele>263.0</ele><time>2026-05-02T12:05:02.835Z</time></trkpt><trkpt lat="40.5775617" lon="15.2955433"><ele>263.0</ele><time>2026-05-02T12:05:03.834Z</time></trkpt><trkpt lat="40.577585" lon="15.2953967"><ele>263.0</ele><time>2026-05-02T12:05:04.835Z</time></trkpt><trkpt lat="40.5776033" lon="15.29526"><ele>263.0</ele><time>2026-05-02T12:05:05.834Z</time></trkpt><trkpt lat="40.5776183" lon="15.2951367"><ele>263.83333333333337</ele><time>2026-05-02T12:05:06.835Z</time></trkpt><trkpt lat="40.5776317" lon="15.2950367"><ele>264.6666666666667</ele><time>2026-05-02T12:05:07.835Z</time></trkpt><trkpt lat="40.5776483" lon="15.2949233"><ele>265.5</ele><time>2026-05-02T12:05:09.834Z</time></trkpt><trkpt lat="40.57763" lon="15.29482"><ele>266.3333333333333</ele><time>2026-05-02T12:06:40.833Z</time></trkpt><trkpt lat="40.5776317" lon="15.2946883"><ele>267.16666666666663</ele><time>2026-05-02T12:06:42.834Z</time></trkpt><trkpt lat="40.57764" lon="15.2946033"><ele>268.0</ele><time>2026-05-02T12:06:43.833Z</time></trkpt><trkpt lat="40.57765" lon="15.2945083"><ele>268.66666666666663</ele><time>2026-05-02T12:06:44.833Z</time></trkpt><trkpt lat="40.5776667" lon="15.294405"><ele>269.3333333333333</ele><time>2026-05-02T12:06:45.833Z</time></trkpt><trkpt lat="40.57768" lon="15.2943033"><ele>270.0</ele><time>2026-05-02T12:06:46.833Z</time></trkpt><trkpt lat="40.5776917" lon="15.2942"><ele>270.6666666666667</ele><time>2026-05-02T12:06:47.834Z</time></trkpt><trkpt lat="40.5777067" lon="15.29409"><ele>271.33333333333337</ele><time>2026-05-02T12:06:48.833Z</time></trkpt><trkpt lat="40.5777217" lon="15.2939867"><ele>272.0</ele><time>2026-05-02T12:06:49.833Z</time></trkpt><trkpt lat="40.5777417" lon="15.2938733"><ele>272.6</ele><time>2026-05-02T12:06:50.834Z</time></trkpt><trkpt lat="40.5777583" lon="15.2937517"><ele>273.2</ele><time>2026-05-02T12:06:51.834Z</time></trkpt><trkpt lat="40.5777717" lon="15.2936417"><ele>273.8</ele><time>2026-05-02T12:06:52.834Z</time></trkpt><trkpt lat="40.5777817" lon="15.2935317"><ele>274.4</ele><time>2026-05-02T12:06:53.834Z</time></trkpt><trkpt lat="40.577795" lon="15.2934133"><ele>275.0</ele><time>2026-05-02T12:06:54.833Z</time></trkpt><trkpt lat="40.5778067" lon="15.2932867"><ele>275.0</ele><time>2026-05-02T12:06:55.834Z</time></trkpt><trkpt lat="40.577825" lon="15.2931567"><ele>275.0</ele><time>2026-05-02T12:06:56.833Z</time></trkpt><trkpt lat="40.5778467" lon="15.293025"><ele>275.0</ele><time>2026-05-02T12:06:57.833Z</time></trkpt><trkpt lat="40.5778633" lon="15.2928817"><ele>275.0</ele><time>2026-05-02T12:06:58.833Z</time></trkpt><trkpt lat="40.5778683" lon="15.292745"><ele>275.0</ele><time>2026-05-02T12:06:59.834Z</time></trkpt><trkpt lat="40.5778783" lon="15.2926067"><ele>276.0</ele><time>2026-05-02T12:07:00.833Z</time></trkpt><trkpt lat="40.5778967" lon="15.29247"><ele>277.0</ele><time>2026-05-02T12:07:01.834Z</time></trkpt><trkpt lat="40.5779183" lon="15.29233"><ele>278.0</ele><time>2026-05-02T12:07:02.834Z</time></trkpt><trkpt lat="40.577945" lon="15.292185"><ele>279.0</ele><time>2026-05-02T12:07:03.834Z</time></trkpt><trkpt lat="40.5779717" lon="15.2920183"><ele>282.0</ele><time>2026-05-02T12:07:04.833Z</time></trkpt><trkpt lat="40.577995" lon="15.2918267"><ele>285.0</ele><time>2026-05-02T12:07:05.833Z</time></trkpt><trkpt lat="40.5780167" lon="15.2916317"><ele>288.0</ele><time>2026-05-02T12:07:06.833Z</time></trkpt><trkpt lat="40.578035" lon="15.291415"><ele>290.3333333333333</ele><time>2026-05-02T12:07:07.834Z</time></trkpt><trkpt lat="40.57806" lon="15.2912133"><ele>292.66666666666663</ele><time>2026-05-02T12:07:08.834Z</time></trkpt><trkpt lat="40.5780833" lon="15.291015"><ele>295.0</ele><time>2026-05-02T12:07:09.833Z</time></trkpt><trkpt lat="40.5781017" lon="15.29081"><ele>295.0</ele><time>2026-05-02T12:07:10.834Z</time></trkpt><trkpt lat="40.5781233" lon="15.2906133"><ele>295.0</ele><time>2026-05-02T12:07:11.833Z</time></trkpt><trkpt lat="40.5781517" lon="15.2904133"><ele>295.0</ele><time>2026-05-02T12:07:12.833Z</time></trkpt><trkpt lat="40.5781817" lon="15.2902117"><ele>296.66666666666663</ele><time>2026-05-02T12:07:13.833Z</time></trkpt><trkpt lat="40.57821" lon="15.289995"><ele>298.3333333333333</ele><time>2026-05-02T12:07:14.833Z</time></trkpt><trkpt lat="40.5782333" lon="15.28978"><ele>300.0</ele><time>2026-05-02T12:07:15.833Z</time></trkpt><trkpt lat="40.5782567" lon="15.2895733"><ele>302.6666666666667</ele><time>2026-05-02T12:07:16.833Z</time></trkpt><trkpt lat="40.5782767" lon="15.28935"><ele>305.33333333333337</ele><time>2026-05-02T12:07:17.833Z</time></trkpt><trkpt lat="40.5783033" lon="15.2891267"><ele>308.0</ele><time>2026-05-02T12:07:18.833Z</time></trkpt><trkpt lat="40.5783283" lon="15.288905"><ele>310.33333333333337</ele><time>2026-05-02T12:07:19.834Z</time></trkpt><trkpt lat="40.5783617" lon="15.2886767"><ele>312.6666666666667</ele><time>2026-05-02T12:07:20.833Z</time></trkpt><trkpt lat="40.5783917" lon="15.2884467"><ele>315.0</ele><time>2026-05-02T12:07:21.834Z</time></trkpt><trkpt lat="40.57842" lon="15.2882283"><ele>319.0</ele><time>2026-05-02T12:07:22.833Z</time></trkpt><trkpt lat="40.578455" lon="15.28801"><ele>323.0</ele><time>2026-05-02T12:07:23.834Z</time></trkpt><trkpt lat="40.5784883" lon="15.2878"><ele>327.0</ele><time>2026-05-02T12:07:24.833Z</time></trkpt><trkpt lat="40.5785333" lon="15.2875933"><ele>327.0</ele><time>2026-05-02T12:07:25.833Z</time></trkpt><trkpt lat="40.5785617" lon="15.2873833"><ele>327.0</ele><time>2026-05-02T12:07:26.834Z</time></trkpt><trkpt lat="40.578585" lon="15.2871617"><ele>327.0</ele><time>2026-05-02T12:07:27.833Z</time></trkpt><trkpt lat="40.578605" lon="15.2869683"><ele>329.25</ele><time>2026-05-02T12:07:28.834Z</time></trkpt><trkpt lat="40.5786283" lon="15.2867783"><ele>331.5</ele><time>2026-05-02T12:07:29.834Z</time></trkpt><trkpt lat="40.57864" lon="15.2865867"><ele>333.75</ele><time>2026-05-02T12:07:30.833Z</time></trkpt><trkpt lat="40.578635" lon="15.2864"><ele>336.0</ele><time>2026-05-02T12:07:31.833Z</time></trkpt><trkpt lat="40.5786183" lon="15.2862033"><ele>337.6666666666667</ele><time>2026-05-02T12:07:32.833Z</time></trkpt><trkpt lat="40.5785917" lon="15.285995"><ele>339.33333333333337</ele><time>2026-05-02T12:07:33.833Z</time></trkpt><trkpt lat="40.57857" lon="15.2857833"><ele>341.0</ele><time>2026-05-02T12:07:34.834Z</time></trkpt><trkpt lat="40.57855" lon="15.2855783"><ele>342.33333333333337</ele><time>2026-05-02T12:07:35.833Z</time></trkpt><trkpt lat="40.5785283" lon="15.28536"><ele>343.6666666666667</ele><time>2026-05-02T12:07:36.833Z</time></trkpt><trkpt lat="40.5785033" lon="15.28515"><ele>345.0</ele><time>2026-05-02T12:07:37.833Z</time></trkpt><trkpt lat="40.5784783" lon="15.2849367"><ele>346.6666666666667</ele><time>2026-05-02T12:07:38.833Z</time></trkpt><trkpt lat="40.57846" lon="15.284725"><ele>348.33333333333337</ele><time>2026-05-02T12:07:39.834Z</time></trkpt><trkpt lat="40.5784317" lon="15.2845133"><ele>350.0</ele><time>2026-05-02T12:07:40.833Z</time></trkpt><trkpt lat="40.5784117" lon="15.2843167"><ele>350.0</ele><time>2026-05-02T12:07:41.834Z</time></trkpt><trkpt lat="40.578355" lon="15.2841083"><ele>350.0</ele><time>2026-05-02T12:07:42.833Z</time></trkpt><trkpt lat="40.5783033" lon="15.2839"><ele>350.0</ele><time>2026-05-02T12:07:43.834Z</time></trkpt><trkpt lat="40.5782683" lon="15.2837033"><ele>350.0</ele><time>2026-05-02T12:07:44.834Z</time></trkpt><trkpt lat="40.5782233" lon="15.2835167"><ele>350.0</ele><time>2026-05-02T12:07:45.833Z</time></trkpt><trkpt lat="40.5781783" lon="15.2833433"><ele>350.0</ele><time>2026-05-02T12:07:46.834Z</time></trkpt><trkpt lat="40.578135" lon="15.283165"><ele>350.0</ele><time>2026-05-02T12:07:47.833Z</time></trkpt><trkpt lat="40.5780983" lon="15.283"><ele>349.5</ele><time>2026-05-02T12:07:48.834Z</time></trkpt><trkpt lat="40.57807" lon="15.28285"><ele>349.0</ele><time>2026-05-02T12:07:49.834Z</time></trkpt><trkpt lat="40.57804" lon="15.2827"><ele>348.5</ele><time>2026-05-02T12:07:50.834Z</time></trkpt><trkpt lat="40.5780183" lon="15.2825517"><ele>348.0</ele><time>2026-05-02T12:07:51.834Z</time></trkpt><trkpt lat="40.578025" lon="15.28241"><ele>348.0</ele><time>2026-05-02T12:07:52.833Z</time></trkpt><trkpt lat="40.5780517" lon="15.2822717"><ele>348.0</ele><time>2026-05-02T12:07:53.834Z</time></trkpt><trkpt lat="40.5781083" lon="15.2821467"><ele>348.0</ele><time>2026-05-02T12:07:54.833Z</time></trkpt><trkpt lat="40.5781883" lon="15.2820183"><ele>348.0</ele><time>2026-05-02T12:07:55.834Z</time></trkpt><trkpt lat="40.578255" lon="15.281885"><ele>349.25</ele><time>2026-05-02T12:07:56.834Z</time></trkpt><trkpt lat="40.5783167" lon="15.28174"><ele>350.5</ele><time>2026-05-02T12:07:57.833Z</time></trkpt><trkpt lat="40.578365" lon="15.281585"><ele>351.75</ele><time>2026-05-02T12:07:58.833Z</time></trkpt><trkpt lat="40.5784067" lon="15.2814167"><ele>353.0</ele><time>2026-05-02T12:07:59.833Z</time></trkpt><trkpt lat="40.5784333" lon="15.28124"><ele>353.33333333333337</ele><time>2026-05-02T12:08:00.834Z</time></trkpt><trkpt lat="40.5784333" lon="15.28105"><ele>353.6666666666667</ele><time>2026-05-02T12:08:01.834Z</time></trkpt><trkpt lat="40.5784267" lon="15.2808483"><ele>354.0</ele><time>2026-05-02T12:08:02.833Z</time></trkpt><trkpt lat="40.5784133" lon="15.280635"><ele>353.6666666666667</ele><time>2026-05-02T12:08:03.834Z</time></trkpt><trkpt lat="40.578395" lon="15.2804117"><ele>353.33333333333337</ele><time>2026-05-02T12:08:04.833Z</time></trkpt><trkpt lat="40.5783567" lon="15.2801867"><ele>353.0</ele><time>2026-05-02T12:08:05.834Z</time></trkpt><trkpt lat="40.57831" lon="15.2799617"><ele>353.33333333333337</ele><time>2026-05-02T12:08:06.833Z</time></trkpt><trkpt lat="40.57824" lon="15.27973"><ele>353.6666666666667</ele><time>2026-05-02T12:08:07.834Z</time></trkpt><trkpt lat="40.5781867" lon="15.27949"><ele>354.0</ele><time>2026-05-02T12:08:08.833Z</time></trkpt><trkpt lat="40.57812" lon="15.2792467"><ele>354.0</ele><time>2026-05-02T12:08:09.833Z</time></trkpt><trkpt lat="40.5780533" lon="15.2789883"><ele>354.0</ele><time>2026-05-02T12:08:10.833Z</time></trkpt><trkpt lat="40.578005" lon="15.2787333"><ele>354.0</ele><time>2026-05-02T12:08:11.833Z</time></trkpt><trkpt lat="40.5779333" lon="15.2784583"><ele>356.0</ele><time>2026-05-02T12:08:12.833Z</time></trkpt><trkpt lat="40.5778633" lon="15.2781867"><ele>358.0</ele><time>2026-05-02T12:08:13.834Z</time></trkpt><trkpt lat="40.577805" lon="15.2779317"><ele>360.0</ele><time>2026-05-02T12:08:14.834Z</time></trkpt><trkpt lat="40.5777533" lon="15.2776967"><ele>366.0</ele><time>2026-05-02T12:08:15.833Z</time></trkpt><trkpt lat="40.5777033" lon="15.277465"><ele>372.0</ele><time>2026-05-02T12:08:16.833Z</time></trkpt><trkpt lat="40.577685" lon="15.27726"><ele>378.0</ele><time>2026-05-02T12:08:17.833Z</time></trkpt><trkpt lat="40.5777117" lon="15.2770717"><ele>380.33333333333337</ele><time>2026-05-02T12:08:18.833Z</time></trkpt><trkpt lat="40.57775" lon="15.2768833"><ele>382.6666666666667</ele><time>2026-05-02T12:08:19.833Z</time></trkpt><trkpt lat="40.5777933" lon="15.2766817"><ele>385.0</ele><time>2026-05-02T12:08:20.833Z</time></trkpt><trkpt lat="40.5778283" lon="15.2764667"><ele>385.6666666666667</ele><time>2026-05-02T12:08:21.834Z</time></trkpt><trkpt lat="40.5778817" lon="15.276245"><ele>386.33333333333337</ele><time>2026-05-02T12:08:22.833Z</time></trkpt><trkpt lat="40.5779083" lon="15.2760083"><ele>387.0</ele><time>2026-05-02T12:08:23.834Z</time></trkpt><trkpt lat="40.577935" lon="15.2757633"><ele>390.0</ele><time>2026-05-02T12:08:24.833Z</time></trkpt><trkpt lat="40.577945" lon="15.2755083"><ele>393.0</ele><time>2026-05-02T12:08:25.833Z</time></trkpt><trkpt lat="40.5779417" lon="15.2752383"><ele>396.0</ele><time>2026-05-02T12:08:26.834Z</time></trkpt><trkpt lat="40.57794" lon="15.2749583"><ele>398.33333333333337</ele><time>2026-05-02T12:08:27.833Z</time></trkpt><trkpt lat="40.577935" lon="15.2746767"><ele>400.6666666666667</ele><time>2026-05-02T12:08:28.834Z</time></trkpt><trkpt lat="40.57793" lon="15.2744017"><ele>403.0</ele><time>2026-05-02T12:08:29.834Z</time></trkpt><trkpt lat="40.5779267" lon="15.27413"><ele>405.6666666666667</ele><time>2026-05-02T12:08:30.834Z</time></trkpt><trkpt lat="40.5779317" lon="15.2738583"><ele>408.33333333333337</ele><time>2026-05-02T12:08:31.833Z</time></trkpt><trkpt lat="40.577935" lon="15.2735867"><ele>411.0</ele><time>2026-05-02T12:08:32.834Z</time></trkpt><trkpt lat="40.5779367" lon="15.27332"><ele>413.33333333333337</ele><time>2026-05-02T12:08:33.833Z</time></trkpt><trkpt lat="40.5779467" lon="15.2730517"><ele>415.6666666666667</ele><time>2026-05-02T12:08:34.833Z</time></trkpt><trkpt lat="40.5779783" lon="15.272795"><ele>418.0</ele><time>2026-05-02T12:08:35.833Z</time></trkpt><trkpt lat="40.5780317" lon="15.2725483"><ele>418.0</ele><time>2026-05-02T12:08:36.833Z</time></trkpt><trkpt lat="40.5780983" lon="15.2723017"><ele>418.0</ele><time>2026-05-02T12:08:37.834Z</time></trkpt><trkpt lat="40.57816" lon="15.2720483"><ele>418.0</ele><time>2026-05-02T12:08:38.834Z</time></trkpt><trkpt lat="40.5781983" lon="15.27178"><ele>419.33333333333337</ele><time>2026-05-02T12:08:39.833Z</time></trkpt><trkpt lat="40.5782083" lon="15.2715067"><ele>420.66666666666663</ele><time>2026-05-02T12:08:40.834Z</time></trkpt><trkpt lat="40.578195" lon="15.271225"><ele>422.0</ele><time>2026-05-02T12:08:41.834Z</time></trkpt><trkpt lat="40.5781583" lon="15.27094"><ele>424.0</ele><time>2026-05-02T12:08:42.834Z</time></trkpt><trkpt lat="40.5781083" lon="15.2706617"><ele>426.0</ele><time>2026-05-02T12:08:43.833Z</time></trkpt><trkpt lat="40.578065" lon="15.27039"><ele>428.0</ele><time>2026-05-02T12:08:44.834Z</time></trkpt><trkpt lat="40.5780183" lon="15.2701283"><ele>430.0</ele><time>2026-05-02T12:08:45.833Z</time></trkpt><trkpt lat="40.57797" lon="15.26988"><ele>432.0</ele><time>2026-05-02T12:08:46.833Z</time></trkpt><trkpt lat="40.57793" lon="15.269655"><ele>434.0</ele><time>2026-05-02T12:08:47.834Z</time></trkpt><trkpt lat="40.5779383" lon="15.2694517"><ele>436.0</ele><time>2026-05-02T12:08:48.834Z</time></trkpt><trkpt lat="40.5779983" lon="15.2692617"><ele>438.0</ele><time>2026-05-02T12:08:49.833Z</time></trkpt><trkpt lat="40.57809" lon="15.2690617"><ele>440.0</ele><time>2026-05-02T12:08:50.833Z</time></trkpt><trkpt lat="40.5781867" lon="15.2688583"><ele>443.66666666666663</ele><time>2026-05-02T12:08:51.834Z</time></trkpt><trkpt lat="40.5782733" lon="15.2686383"><ele>447.33333333333337</ele><time>2026-05-02T12:08:52.834Z</time></trkpt><trkpt lat="40.5783483" lon="15.268405"><ele>451.0</ele><time>2026-05-02T12:08:53.834Z</time></trkpt><trkpt lat="40.5783967" lon="15.2681767"><ele>454.0</ele><time>2026-05-02T12:08:54.834Z</time></trkpt><trkpt lat="40.57842" lon="15.2679467"><ele>457.0</ele><time>2026-05-02T12:08:55.833Z</time></trkpt><trkpt lat="40.5784167" lon="15.2677067"><ele>460.0</ele><time>2026-05-02T12:08:56.833Z</time></trkpt><trkpt lat="40.5784" lon="15.2674583"><ele>462.0</ele><time>2026-05-02T12:08:57.833Z</time></trkpt><trkpt lat="40.5783817" lon="15.267225"><ele>464.0</ele><time>2026-05-02T12:08:58.834Z</time></trkpt><trkpt lat="40.5783483" lon="15.2670083"><ele>466.0</ele><time>2026-05-02T12:08:59.834Z</time></trkpt><trkpt lat="40.5782833" lon="15.2668083"><ele>466.0</ele><time>2026-05-02T12:09:00.834Z</time></trkpt><trkpt lat="40.5782017" lon="15.26661"><ele>466.0</ele><time>2026-05-02T12:09:01.834Z</time></trkpt><trkpt lat="40.5781083" lon="15.266425"><ele>466.0</ele><time>2026-05-02T12:09:02.834Z</time></trkpt><trkpt lat="40.5780167" lon="15.266245"><ele>467.5</ele><time>2026-05-02T12:09:03.833Z</time></trkpt><trkpt lat="40.577925" lon="15.2660767"><ele>469.0</ele><time>2026-05-02T12:09:04.834Z</time></trkpt><trkpt lat="40.57784" lon="15.265915"><ele>470.5</ele><time>2026-05-02T12:09:05.834Z</time></trkpt><trkpt lat="40.5777717" lon="15.265775"><ele>472.0</ele><time>2026-05-02T12:09:06.833Z</time></trkpt><trkpt lat="40.577705" lon="15.2656533"><ele>473.0</ele><time>2026-05-02T12:09:07.834Z</time></trkpt><trkpt lat="40.5776517" lon="15.2655483"><ele>474.00000000000006</ele><time>2026-05-02T12:09:08.833Z</time></trkpt><trkpt lat="40.5776" lon="15.265425"><ele>475.00000000000006</ele><time>2026-05-02T12:09:09.833Z</time></trkpt><trkpt lat="40.5775533" lon="15.26532"><ele>476.0</ele><time>2026-05-02T12:09:10.833Z</time></trkpt><trkpt lat="40.577505" lon="15.2652267"><ele>477.0</ele><time>2026-05-02T12:09:11.833Z</time></trkpt><trkpt lat="40.5774617" lon="15.2651217"><ele>477.0</ele><time>2026-05-02T12:09:12.833Z</time></trkpt><trkpt lat="40.577415" lon="15.2650117"><ele>477.00000000000006</ele><time>2026-05-02T12:09:13.834Z</time></trkpt><trkpt lat="40.5773667" lon="15.2649"><ele>477.00000000000006</ele><time>2026-05-02T12:09:14.833Z</time></trkpt><trkpt lat="40.5773117" lon="15.264785"><ele>477.0</ele><time>2026-05-02T12:09:15.834Z</time></trkpt><trkpt lat="40.5772633" lon="15.2646617"><ele>477.0</ele><time>2026-05-02T12:09:16.834Z</time></trkpt><trkpt lat="40.577215" lon="15.2645267"><ele>477.20000000000005</ele><time>2026-05-02T12:09:17.834Z</time></trkpt><trkpt lat="40.577155" lon="15.264405"><ele>477.40000000000003</ele><time>2026-05-02T12:09:18.834Z</time></trkpt><trkpt lat="40.5770967" lon="15.2642767"><ele>477.59999999999997</ele><time>2026-05-02T12:09:19.834Z</time></trkpt><trkpt lat="40.5770517" lon="15.264155"><ele>477.79999999999995</ele><time>2026-05-02T12:09:20.834Z</time></trkpt><trkpt lat="40.577005" lon="15.26403"><ele>478.0</ele><time>2026-05-02T12:09:21.833Z</time></trkpt><trkpt lat="40.5769633" lon="15.2639033"><ele>478.0</ele><time>2026-05-02T12:09:22.834Z</time></trkpt><trkpt lat="40.5769117" lon="15.2637667"><ele>478.0</ele><time>2026-05-02T12:09:23.834Z</time></trkpt><trkpt lat="40.5768567" lon="15.263615"><ele>478.0</ele><time>2026-05-02T12:09:24.834Z</time></trkpt><trkpt lat="40.5767983" lon="15.2634533"><ele>478.0</ele><time>2026-05-02T12:09:25.833Z</time></trkpt><trkpt lat="40.5767467" lon="15.2632633"><ele>476.6666666666667</ele><time>2026-05-02T12:09:26.834Z</time></trkpt><trkpt lat="40.5766983" lon="15.2630533"><ele>475.33333333333337</ele><time>2026-05-02T12:09:27.834Z</time></trkpt><trkpt lat="40.5766717" lon="15.2628117"><ele>474.0</ele><time>2026-05-02T12:09:28.834Z</time></trkpt><trkpt lat="40.5766417" lon="15.2625617"><ele>474.0</ele><time>2026-05-02T12:09:29.834Z</time></trkpt><trkpt lat="40.5765983" lon="15.2623083"><ele>474.0</ele><time>2026-05-02T12:09:30.834Z</time></trkpt><trkpt lat="40.57655" lon="15.2620467"><ele>474.0</ele><time>2026-05-02T12:09:31.833Z</time></trkpt><trkpt lat="40.5764917" lon="15.2617717"><ele>472.33333333333337</ele><time>2026-05-02T12:09:32.833Z</time></trkpt><trkpt lat="40.5764483" lon="15.2614933"><ele>470.6666666666667</ele><time>2026-05-02T12:09:33.834Z</time></trkpt><trkpt lat="40.5764233" lon="15.2611983"><ele>469.0</ele><time>2026-05-02T12:09:34.834Z</time></trkpt><trkpt lat="40.5764" lon="15.2608933"><ele>462.0</ele><time>2026-05-02T12:09:35.834Z</time></trkpt><trkpt lat="40.5763783" lon="15.260575"><ele>455.0</ele><time>2026-05-02T12:09:36.833Z</time></trkpt><trkpt lat="40.5763633" lon="15.2602367"><ele>455.0</ele><time>2026-05-02T12:09:37.834Z</time></trkpt><trkpt lat="40.576335" lon="15.259885"><ele>455.0</ele><time>2026-05-02T12:09:38.834Z</time></trkpt><trkpt lat="40.5762867" lon="15.2595383"><ele>452.0</ele><time>2026-05-02T12:09:39.833Z</time></trkpt><trkpt lat="40.5762217" lon="15.259215"><ele>449.0</ele><time>2026-05-02T12:09:40.833Z</time></trkpt><trkpt lat="40.5761383" lon="15.2589117"><ele>454.0</ele><time>2026-05-02T12:09:41.834Z</time></trkpt><trkpt lat="40.5760683" lon="15.2586283"><ele>459.0</ele><time>2026-05-02T12:09:42.833Z</time></trkpt><trkpt lat="40.5760033" lon="15.2583767"><ele>464.0</ele><time>2026-05-02T12:09:43.834Z</time></trkpt><trkpt lat="40.5759467" lon="15.2581467"><ele>462.5</ele><time>2026-05-02T12:09:44.833Z</time></trkpt><trkpt lat="40.5758933" lon="15.257945"><ele>461.0</ele><time>2026-05-02T12:09:45.833Z</time></trkpt><trkpt lat="40.5758467" lon="15.2577633"><ele>459.5</ele><time>2026-05-02T12:09:46.834Z</time></trkpt><trkpt lat="40.5758033" lon="15.257595"><ele>458.0</ele><time>2026-05-02T12:09:47.834Z</time></trkpt><trkpt lat="40.5757683" lon="15.257435"><ele>456.75</ele><time>2026-05-02T12:09:48.834Z</time></trkpt><trkpt lat="40.57572" lon="15.257275"><ele>455.5</ele><time>2026-05-02T12:09:49.833Z</time></trkpt><trkpt lat="40.5756767" lon="15.25711"><ele>454.25</ele><time>2026-05-02T12:09:50.834Z</time></trkpt><trkpt lat="40.5756333" lon="15.2569383"><ele>453.0</ele><time>2026-05-02T12:09:51.834Z</time></trkpt><trkpt lat="40.5755933" lon="15.2567667"><ele>453.0</ele><time>2026-05-02T12:09:52.833Z</time></trkpt><trkpt lat="40.575555" lon="15.2565967"><ele>453.0</ele><time>2026-05-02T12:09:53.834Z</time></trkpt><trkpt lat="40.5755317" lon="15.2564367"><ele>453.0</ele><time>2026-05-02T12:09:54.834Z</time></trkpt><trkpt lat="40.5755267" lon="15.2562717"><ele>453.0</ele><time>2026-05-02T12:09:55.833Z</time></trkpt><trkpt lat="40.57553" lon="15.2561"><ele>452.5</ele><time>2026-05-02T12:09:56.833Z</time></trkpt><trkpt lat="40.5755467" lon="15.2559183"><ele>452.0</ele><time>2026-05-02T12:09:57.834Z</time></trkpt><trkpt lat="40.575575" lon="15.2557283"><ele>451.5</ele><time>2026-05-02T12:09:58.833Z</time></trkpt><trkpt lat="40.5756017" lon="15.2555367"><ele>451.0</ele><time>2026-05-02T12:09:59.834Z</time></trkpt><trkpt lat="40.575625" lon="15.255355"><ele>451.0</ele><time>2026-05-02T12:10:00.833Z</time></trkpt><trkpt lat="40.57564" lon="15.255185"><ele>451.0</ele><time>2026-05-02T12:10:01.833Z</time></trkpt><trkpt lat="40.57564" lon="15.25502"><ele>451.0</ele><time>2026-05-02T12:10:02.833Z</time></trkpt><trkpt lat="40.5756217" lon="15.2548467"><ele>451.0</ele><time>2026-05-02T12:10:03.834Z</time></trkpt><trkpt lat="40.575575" lon="15.2546483"><ele>450.0</ele><time>2026-05-02T12:10:04.833Z</time></trkpt><trkpt lat="40.5755217" lon="15.2544267"><ele>449.0</ele><time>2026-05-02T12:10:05.833Z</time></trkpt><trkpt lat="40.5754833" lon="15.2541767"><ele>448.0</ele><time>2026-05-02T12:10:06.833Z</time></trkpt><trkpt lat="40.575435" lon="15.25391"><ele>447.0</ele><time>2026-05-02T12:10:07.834Z</time></trkpt><trkpt lat="40.5753717" lon="15.2536333"><ele>446.0</ele><time>2026-05-02T12:10:08.834Z</time></trkpt><trkpt lat="40.5753017" lon="15.2533467"><ele>445.0</ele><time>2026-05-02T12:10:09.833Z</time></trkpt><trkpt lat="40.5752233" lon="15.25306"><ele>447.0</ele><time>2026-05-02T12:10:10.834Z</time></trkpt><trkpt lat="40.57515" lon="15.2527783"><ele>449.0</ele><time>2026-05-02T12:10:11.834Z</time></trkpt><trkpt lat="40.575075" lon="15.2525017"><ele>451.0</ele><time>2026-05-02T12:10:12.834Z</time></trkpt><trkpt lat="40.5750067" lon="15.25224"><ele>451.0</ele><time>2026-05-02T12:10:13.833Z</time></trkpt><trkpt lat="40.574945" lon="15.2520033"><ele>451.0</ele><time>2026-05-02T12:10:14.833Z</time></trkpt><trkpt lat="40.5748983" lon="15.2517867"><ele>451.0</ele><time>2026-05-02T12:10:15.833Z</time></trkpt><trkpt lat="40.57485" lon="15.2515867"><ele>448.33333333333337</ele><time>2026-05-02T12:10:16.834Z</time></trkpt><trkpt lat="40.5747767" lon="15.25141"><ele>445.66666666666663</ele><time>2026-05-02T12:10:17.834Z</time></trkpt><trkpt lat="40.5746767" lon="15.2512567"><ele>443.0</ele><time>2026-05-02T12:10:18.833Z</time></trkpt><trkpt lat="40.5745517" lon="15.251115"><ele>448.3333333333333</ele><time>2026-05-02T12:10:19.834Z</time></trkpt><trkpt lat="40.5744083" lon="15.2509667"><ele>453.66666666666663</ele><time>2026-05-02T12:10:20.833Z</time></trkpt><trkpt lat="40.5742733" lon="15.2508217"><ele>459.0</ele><time>2026-05-02T12:10:21.833Z</time></trkpt><trkpt lat="40.5741517" lon="15.2506767"><ele>457.25</ele><time>2026-05-02T12:10:22.833Z</time></trkpt><trkpt lat="40.5740667" lon="15.2505183"><ele>455.5</ele><time>2026-05-02T12:10:23.833Z</time></trkpt><trkpt lat="40.5740033" lon="15.25035"><ele>453.75</ele><time>2026-05-02T12:10:24.833Z</time></trkpt><trkpt lat="40.5739533" lon="15.250175"><ele>452.0</ele><time>2026-05-02T12:10:25.834Z</time></trkpt><trkpt lat="40.5738983" lon="15.2499817"><ele>451.0</ele><time>2026-05-02T12:10:26.834Z</time></trkpt><trkpt lat="40.5738283" lon="15.24975"><ele>450.0</ele><time>2026-05-02T12:10:27.834Z</time></trkpt><trkpt lat="40.573755" lon="15.2495233"><ele>449.0</ele><time>2026-05-02T12:10:28.833Z</time></trkpt><trkpt lat="40.5736667" lon="15.2493183"><ele>455.0</ele><time>2026-05-02T12:10:29.833Z</time></trkpt><trkpt lat="40.57361" lon="15.249115"><ele>461.0</ele><time>2026-05-02T12:10:30.833Z</time></trkpt><trkpt lat="40.5735867" lon="15.2489117"><ele>467.0</ele><time>2026-05-02T12:10:31.834Z</time></trkpt><trkpt lat="40.5736017" lon="15.2487133"><ele>467.5</ele><time>2026-05-02T12:10:32.834Z</time></trkpt><trkpt lat="40.573655" lon="15.248545"><ele>468.0</ele><time>2026-05-02T12:10:33.834Z</time></trkpt><trkpt lat="40.5737467" lon="15.2484083"><ele>468.5</ele><time>2026-05-02T12:10:34.834Z</time></trkpt><trkpt lat="40.57387" lon="15.248315"><ele>469.0</ele><time>2026-05-02T12:10:35.834Z</time></trkpt><trkpt lat="40.574015" lon="15.2482533"><ele>470.33333333333337</ele><time>2026-05-02T12:10:36.834Z</time></trkpt><trkpt lat="40.574175" lon="15.24819"><ele>471.66666666666663</ele><time>2026-05-02T12:10:37.834Z</time></trkpt><trkpt lat="40.574325" lon="15.2481117"><ele>473.0</ele><time>2026-05-02T12:10:38.834Z</time></trkpt><trkpt lat="40.5744433" lon="15.248005"><ele>465.3333333333333</ele><time>2026-05-02T12:10:39.834Z</time></trkpt><trkpt lat="40.5745267" lon="15.2478583"><ele>457.66666666666663</ele><time>2026-05-02T12:10:40.833Z</time></trkpt><trkpt lat="40.5745833" lon="15.24766"><ele>450.0</ele><time>2026-05-02T12:10:41.833Z</time></trkpt><trkpt lat="40.5746133" lon="15.2474267"><ele>451.66666666666663</ele><time>2026-05-02T12:10:42.834Z</time></trkpt><trkpt lat="40.5746183" lon="15.2471967"><ele>453.3333333333333</ele><time>2026-05-02T12:10:43.833Z</time></trkpt><trkpt lat="40.5745833" lon="15.24697"><ele>455.0</ele><time>2026-05-02T12:10:44.834Z</time></trkpt><trkpt lat="40.57452" lon="15.24675"><ele>460.3333333333333</ele><time>2026-05-02T12:10:45.834Z</time></trkpt><trkpt lat="40.57442" lon="15.2465333"><ele>465.66666666666663</ele><time>2026-05-02T12:10:46.834Z</time></trkpt><trkpt lat="40.574305" lon="15.2463017"><ele>471.0</ele><time>2026-05-02T12:10:47.834Z</time></trkpt><trkpt lat="40.5741733" lon="15.246055"><ele>471.0</ele><time>2026-05-02T12:10:48.834Z</time></trkpt><trkpt lat="40.57404" lon="15.2458"><ele>471.0</ele><time>2026-05-02T12:10:49.833Z</time></trkpt><trkpt lat="40.57394" lon="15.24554"><ele>468.0</ele><time>2026-05-02T12:10:50.833Z</time></trkpt><trkpt lat="40.5738533" lon="15.2452617"><ele>465.0</ele><time>2026-05-02T12:10:51.833Z</time></trkpt><trkpt lat="40.5737833" lon="15.2449567"><ele>463.5</ele><time>2026-05-02T12:10:52.834Z</time></trkpt><trkpt lat="40.573715" lon="15.24466"><ele>462.0</ele><time>2026-05-02T12:10:53.833Z</time></trkpt><trkpt lat="40.573645" lon="15.2443867"><ele>466.66666666666663</ele><time>2026-05-02T12:10:54.833Z</time></trkpt><trkpt lat="40.573595" lon="15.2441417"><ele>471.3333333333333</ele><time>2026-05-02T12:10:55.834Z</time></trkpt><trkpt lat="40.57354" lon="15.2439167"><ele>476.0</ele><time>2026-05-02T12:10:56.833Z</time></trkpt><trkpt lat="40.5734567" lon="15.2437167"><ele>476.0</ele><time>2026-05-02T12:10:57.833Z</time></trkpt><trkpt lat="40.57333" lon="15.24353"><ele>476.0</ele><time>2026-05-02T12:10:58.834Z</time></trkpt><trkpt lat="40.5732033" lon="15.24336"><ele>476.0</ele><time>2026-05-02T12:10:59.834Z</time></trkpt><trkpt lat="40.57307" lon="15.2432"><ele>475.5</ele><time>2026-05-02T12:11:00.833Z</time></trkpt><trkpt lat="40.5729567" lon="15.24304"><ele>475.0</ele><time>2026-05-02T12:11:01.833Z</time></trkpt><trkpt lat="40.57289" lon="15.24286"><ele>474.5</ele><time>2026-05-02T12:11:02.834Z</time></trkpt><trkpt lat="40.5728683" lon="15.24269"><ele>474.0</ele><time>2026-05-02T12:11:03.834Z</time></trkpt><trkpt lat="40.5728917" lon="15.2425267"><ele>474.0</ele><time>2026-05-02T12:11:04.834Z</time></trkpt><trkpt lat="40.572955" lon="15.2423817"><ele>474.0</ele><time>2026-05-02T12:11:05.833Z</time></trkpt><trkpt lat="40.5730217" lon="15.2422417"><ele>474.0</ele><time>2026-05-02T12:11:06.833Z</time></trkpt><trkpt lat="40.57306" lon="15.2420967"><ele>474.0</ele><time>2026-05-02T12:11:07.834Z</time></trkpt><trkpt lat="40.5730583" lon="15.2419333"><ele>473.5</ele><time>2026-05-02T12:11:08.834Z</time></trkpt><trkpt lat="40.573035" lon="15.2417367"><ele>473.0</ele><time>2026-05-02T12:11:09.833Z</time></trkpt><trkpt lat="40.5730017" lon="15.24155"><ele>472.5</ele><time>2026-05-02T12:11:10.833Z</time></trkpt><trkpt lat="40.5729567" lon="15.24139"><ele>472.0</ele><time>2026-05-02T12:11:11.834Z</time></trkpt><trkpt lat="40.5728833" lon="15.2412633"><ele>473.0</ele><time>2026-05-02T12:11:12.833Z</time></trkpt><trkpt lat="40.5727733" lon="15.2411883"><ele>474.0</ele><time>2026-05-02T12:11:13.834Z</time></trkpt><trkpt lat="40.5726333" lon="15.2411533"><ele>475.0</ele><time>2026-05-02T12:11:14.833Z</time></trkpt><trkpt lat="40.5724767" lon="15.24114"><ele>476.0</ele><time>2026-05-02T12:11:15.833Z</time></trkpt><trkpt lat="40.5723117" lon="15.241095"><ele>476.0</ele><time>2026-05-02T12:11:16.834Z</time></trkpt><trkpt lat="40.5721733" lon="15.2410117"><ele>476.0</ele><time>2026-05-02T12:11:17.833Z</time></trkpt><trkpt lat="40.57205" lon="15.2408867"><ele>476.0</ele><time>2026-05-02T12:11:18.834Z</time></trkpt><trkpt lat="40.5719567" lon="15.240735"><ele>480.0</ele><time>2026-05-02T12:11:19.832Z</time></trkpt><trkpt lat="40.5719067" lon="15.240565"><ele>484.0</ele><time>2026-05-02T12:11:20.833Z</time></trkpt><trkpt lat="40.5718817" lon="15.2403667"><ele>488.0</ele><time>2026-05-02T12:11:21.833Z</time></trkpt><trkpt lat="40.5718817" lon="15.240165"><ele>492.0</ele><time>2026-05-02T12:11:22.832Z</time></trkpt><trkpt lat="40.571905" lon="15.23997"><ele>492.25</ele><time>2026-05-02T12:11:23.833Z</time></trkpt><trkpt lat="40.5719467" lon="15.2397933"><ele>492.5</ele><time>2026-05-02T12:11:24.832Z</time></trkpt><trkpt lat="40.5719833" lon="15.2396267"><ele>492.75</ele><time>2026-05-02T12:11:25.833Z</time></trkpt><trkpt lat="40.5720183" lon="15.2394683"><ele>493.0</ele><time>2026-05-02T12:11:26.833Z</time></trkpt><trkpt lat="40.5720417" lon="15.2393167"><ele>488.75</ele><time>2026-05-02T12:11:27.832Z</time></trkpt><trkpt lat="40.5720667" lon="15.239155"><ele>484.5</ele><time>2026-05-02T12:11:28.832Z</time></trkpt><trkpt lat="40.5720833" lon="15.2390117"><ele>480.25</ele><time>2026-05-02T12:11:29.833Z</time></trkpt><trkpt lat="40.5721133" lon="15.2388583"><ele>476.0</ele><time>2026-05-02T12:11:30.832Z</time></trkpt><trkpt lat="40.57212" lon="15.238705"><ele>475.0</ele><time>2026-05-02T12:11:31.833Z</time></trkpt><trkpt lat="40.57212" lon="15.2385467"><ele>474.0</ele><time>2026-05-02T12:11:32.833Z</time></trkpt><trkpt lat="40.5721083" lon="15.238385"><ele>473.0</ele><time>2026-05-02T12:11:33.833Z</time></trkpt><trkpt lat="40.5720883" lon="15.2382233"><ele>472.0</ele><time>2026-05-02T12:11:34.832Z</time></trkpt><trkpt lat="40.57206" lon="15.2380567"><ele>471.5</ele><time>2026-05-02T12:11:35.832Z</time></trkpt><trkpt lat="40.572025" lon="15.2379"><ele>471.0</ele><time>2026-05-02T12:11:36.832Z</time></trkpt><trkpt lat="40.571975" lon="15.2377617"><ele>470.5</ele><time>2026-05-02T12:11:37.833Z</time></trkpt><trkpt lat="40.5719033" lon="15.237635"><ele>470.0</ele><time>2026-05-02T12:11:38.832Z</time></trkpt><trkpt lat="40.571825" lon="15.23753"><ele>473.4</ele><time>2026-05-02T12:11:39.832Z</time></trkpt><trkpt lat="40.571745" lon="15.2374283"><ele>476.8</ele><time>2026-05-02T12:11:40.832Z</time></trkpt><trkpt lat="40.5717" lon="15.2373083"><ele>480.20000000000005</ele><time>2026-05-02T12:11:41.832Z</time></trkpt><trkpt lat="40.5716867" lon="15.2371717"><ele>483.6</ele><time>2026-05-02T12:11:42.833Z</time></trkpt><trkpt lat="40.5717183" lon="15.2370367"><ele>487.0</ele><time>2026-05-02T12:11:43.833Z</time></trkpt><trkpt lat="40.57181" lon="15.2369017"><ele>488.5</ele><time>2026-05-02T12:11:44.832Z</time></trkpt><trkpt lat="40.5719283" lon="15.23678"><ele>490.0</ele><time>2026-05-02T12:11:45.833Z</time></trkpt><trkpt lat="40.5720433" lon="15.2366433"><ele>491.5</ele><time>2026-05-02T12:11:46.833Z</time></trkpt><trkpt lat="40.5721333" lon="15.2364967"><ele>493.0</ele><time>2026-05-02T12:11:47.832Z</time></trkpt><trkpt lat="40.572185" lon="15.2363383"><ele>486.33333333333337</ele><time>2026-05-02T12:11:48.832Z</time></trkpt><trkpt lat="40.5721983" lon="15.2361583"><ele>479.66666666666663</ele><time>2026-05-02T12:11:49.832Z</time></trkpt><trkpt lat="40.5721717" lon="15.2359533"><ele>473.0</ele><time>2026-05-02T12:11:50.832Z</time></trkpt><trkpt lat="40.5721033" lon="15.2357317"><ele>472.3333333333333</ele><time>2026-05-02T12:11:51.832Z</time></trkpt><trkpt lat="40.5720367" lon="15.2354967"><ele>471.66666666666663</ele><time>2026-05-02T12:11:52.832Z</time></trkpt><trkpt lat="40.5720233" lon="15.2352617"><ele>471.0</ele><time>2026-05-02T12:11:53.832Z</time></trkpt><trkpt lat="40.5720433" lon="15.2350433"><ele>471.0</ele><time>2026-05-02T12:11:54.833Z</time></trkpt><trkpt lat="40.572065" lon="15.234865"><ele>471.0</ele><time>2026-05-02T12:11:55.832Z</time></trkpt><trkpt lat="40.5720733" lon="15.2347183"><ele>471.0</ele><time>2026-05-02T12:11:56.832Z</time></trkpt><trkpt lat="40.5720783" lon="15.23459"><ele>471.0</ele><time>2026-05-02T12:11:57.833Z</time></trkpt><trkpt lat="40.5720733" lon="15.2344633"><ele>471.0</ele><time>2026-05-02T12:11:58.833Z</time></trkpt><trkpt lat="40.5720867" lon="15.23434"><ele>470.75</ele><time>2026-05-02T12:11:59.832Z</time></trkpt><trkpt lat="40.5721117" lon="15.23421"><ele>470.5</ele><time>2026-05-02T12:12:00.832Z</time></trkpt><trkpt lat="40.57215" lon="15.2340667"><ele>470.25</ele><time>2026-05-02T12:12:01.832Z</time></trkpt><trkpt lat="40.5721917" lon="15.2339017"><ele>470.0</ele><time>2026-05-02T12:12:02.832Z</time></trkpt><trkpt lat="40.572235" lon="15.2337083"><ele>469.66666666666663</ele><time>2026-05-02T12:12:03.832Z</time></trkpt><trkpt lat="40.5722583" lon="15.2334967"><ele>469.33333333333337</ele><time>2026-05-02T12:12:04.832Z</time></trkpt><trkpt lat="40.5722567" lon="15.2332667"><ele>469.0</ele><time>2026-05-02T12:12:05.832Z</time></trkpt><trkpt lat="40.5722383" lon="15.2330367"><ele>469.0</ele><time>2026-05-02T12:12:06.833Z</time></trkpt><trkpt lat="40.572235" lon="15.2328"><ele>469.0</ele><time>2026-05-02T12:12:07.833Z</time></trkpt><trkpt lat="40.5722683" lon="15.2325633"><ele>469.0</ele><time>2026-05-02T12:12:08.832Z</time></trkpt><trkpt lat="40.5723467" lon="15.2323133"><ele>470.0</ele><time>2026-05-02T12:12:09.833Z</time></trkpt><trkpt lat="40.5724483" lon="15.2320433"><ele>471.0</ele><time>2026-05-02T12:12:10.832Z</time></trkpt><trkpt lat="40.5725433" lon="15.2317683"><ele>471.0</ele><time>2026-05-02T12:12:11.833Z</time></trkpt><trkpt lat="40.57262" lon="15.2315067"><ele>471.0</ele><time>2026-05-02T12:12:12.832Z</time></trkpt><trkpt lat="40.572695" lon="15.2312667"><ele>471.0</ele><time>2026-05-02T12:12:13.832Z</time></trkpt><trkpt lat="40.57277" lon="15.2310517"><ele>470.0</ele><time>2026-05-02T12:12:14.833Z</time></trkpt><trkpt lat="40.5728633" lon="15.2308517"><ele>469.0</ele><time>2026-05-02T12:12:15.833Z</time></trkpt><trkpt lat="40.572975" lon="15.2306917"><ele>468.0</ele><time>2026-05-02T12:12:16.832Z</time></trkpt><trkpt lat="40.5731" lon="15.23058"><ele>468.0</ele><time>2026-05-02T12:12:17.832Z</time></trkpt><trkpt lat="40.5732367" lon="15.23051"><ele>468.0</ele><time>2026-05-02T12:12:18.832Z</time></trkpt><trkpt lat="40.57338" lon="15.2304683"><ele>468.0</ele><time>2026-05-02T12:12:19.832Z</time></trkpt><trkpt lat="40.5735033" lon="15.2304133"><ele>468.0</ele><time>2026-05-02T12:12:20.832Z</time></trkpt><trkpt lat="40.5736033" lon="15.2303033"><ele>468.0</ele><time>2026-05-02T12:12:21.833Z</time></trkpt><trkpt lat="40.57366" lon="15.2301333"><ele>468.0</ele><time>2026-05-02T12:12:22.832Z</time></trkpt><trkpt lat="40.573705" lon="15.229925"><ele>468.0</ele><time>2026-05-02T12:12:23.832Z</time></trkpt><trkpt lat="40.5737317" lon="15.2296817"><ele>462.66666666666663</ele><time>2026-05-02T12:12:24.833Z</time></trkpt><trkpt lat="40.5737683" lon="15.22945"><ele>457.3333333333333</ele><time>2026-05-02T12:12:25.833Z</time></trkpt><trkpt lat="40.5738033" lon="15.2292267"><ele>452.0</ele><time>2026-05-02T12:12:26.833Z</time></trkpt><trkpt lat="40.5738333" lon="15.2290167"><ele>452.0</ele><time>2026-05-02T12:12:27.833Z</time></trkpt><trkpt lat="40.5738567" lon="15.2288133"><ele>452.0</ele><time>2026-05-02T12:12:28.832Z</time></trkpt><trkpt lat="40.5738633" lon="15.2286033"><ele>452.0</ele><time>2026-05-02T12:12:29.832Z</time></trkpt><trkpt lat="40.5738467" lon="15.2283983"><ele>452.0</ele><time>2026-05-02T12:12:30.833Z</time></trkpt><trkpt lat="40.5737967" lon="15.2282133"><ele>452.0</ele><time>2026-05-02T12:12:31.833Z</time></trkpt><trkpt lat="40.573735" lon="15.2280333"><ele>452.0</ele><time>2026-05-02T12:12:32.832Z</time></trkpt><trkpt lat="40.57366" lon="15.2278683"><ele>452.0</ele><time>2026-05-02T12:12:33.832Z</time></trkpt><trkpt lat="40.573605" lon="15.2277"><ele>451.5</ele><time>2026-05-02T12:12:34.832Z</time></trkpt><trkpt lat="40.5735867" lon="15.2275267"><ele>451.0</ele><time>2026-05-02T12:12:35.832Z</time></trkpt><trkpt lat="40.5735983" lon="15.2273567"><ele>450.5</ele><time>2026-05-02T12:12:36.832Z</time></trkpt><trkpt lat="40.5736117" lon="15.2272033"><ele>450.0</ele><time>2026-05-02T12:12:37.833Z</time></trkpt><trkpt lat="40.5736167" lon="15.22706"><ele>450.0</ele><time>2026-05-02T12:12:38.833Z</time></trkpt><trkpt lat="40.5736" lon="15.22692"><ele>450.0</ele><time>2026-05-02T12:12:39.832Z</time></trkpt><trkpt lat="40.5735717" lon="15.2267967"><ele>450.0</ele><time>2026-05-02T12:12:40.832Z</time></trkpt><trkpt lat="40.5735083" lon="15.2266933"><ele>450.0</ele><time>2026-05-02T12:12:41.833Z</time></trkpt><trkpt lat="40.5734217" lon="15.226585"><ele>450.0</ele><time>2026-05-02T12:12:42.833Z</time></trkpt><trkpt lat="40.5733217" lon="15.2264583"><ele>447.0</ele><time>2026-05-02T12:12:43.833Z</time></trkpt><trkpt lat="40.57321" lon="15.22632"><ele>444.0</ele><time>2026-05-02T12:12:44.833Z</time></trkpt><trkpt lat="40.5730767" lon="15.2261783"><ele>441.0</ele><time>2026-05-02T12:12:45.833Z</time></trkpt><trkpt lat="40.572935" lon="15.2260717"><ele>442.20000000000005</ele><time>2026-05-02T12:12:46.833Z</time></trkpt><trkpt lat="40.5728033" lon="15.2259817"><ele>443.40000000000003</ele><time>2026-05-02T12:12:47.832Z</time></trkpt><trkpt lat="40.5727" lon="15.2259033"><ele>444.6</ele><time>2026-05-02T12:12:48.832Z</time></trkpt><trkpt lat="40.57262" lon="15.22583"><ele>445.8</ele><time>2026-05-02T12:12:49.832Z</time></trkpt><trkpt lat="40.5725633" lon="15.2257633"><ele>447.0</ele><time>2026-05-02T12:12:50.833Z</time></trkpt><trkpt lat="40.572515" lon="15.2256983"><ele>445.40000000000003</ele><time>2026-05-02T12:12:52.832Z</time></trkpt><trkpt lat="40.572475" lon="15.2255933"><ele>443.80000000000007</ele><time>2026-05-02T12:13:32.833Z</time></trkpt><trkpt lat="40.5724267" lon="15.2255017"><ele>442.2</ele><time>2026-05-02T12:13:33.833Z</time></trkpt><trkpt lat="40.572375" lon="15.2253767"><ele>440.6</ele><time>2026-05-02T12:13:34.832Z</time></trkpt><trkpt lat="40.5723133" lon="15.2252367"><ele>439.0</ele><time>2026-05-02T12:13:35.833Z</time></trkpt><trkpt lat="40.5722417" lon="15.2251083"><ele>439.0</ele><time>2026-05-02T12:13:36.832Z</time></trkpt><trkpt lat="40.5721683" lon="15.224995"><ele>439.0</ele><time>2026-05-02T12:13:37.832Z</time></trkpt><trkpt lat="40.5721083" lon="15.2248783"><ele>439.0</ele><time>2026-05-02T12:13:38.833Z</time></trkpt><trkpt lat="40.5720883" lon="15.2247467"><ele>439.0</ele><time>2026-05-02T12:13:39.833Z</time></trkpt><trkpt lat="40.5720883" lon="15.2245967"><ele>439.0</ele><time>2026-05-02T12:13:40.833Z</time></trkpt><trkpt lat="40.5720733" lon="15.2244233"><ele>439.0</ele><time>2026-05-02T12:13:41.833Z</time></trkpt><trkpt lat="40.572025" lon="15.2242367"><ele>439.0</ele><time>2026-05-02T12:13:42.833Z</time></trkpt><trkpt lat="40.5719767" lon="15.22403"><ele>439.0</ele><time>2026-05-02T12:13:43.833Z</time></trkpt><trkpt lat="40.5719267" lon="15.2238217"><ele>436.33333333333337</ele><time>2026-05-02T12:13:44.832Z</time></trkpt><trkpt lat="40.5718433" lon="15.2236067"><ele>433.66666666666663</ele><time>2026-05-02T12:13:45.833Z</time></trkpt><trkpt lat="40.5717383" lon="15.22339"><ele>431.0</ele><time>2026-05-02T12:13:46.833Z</time></trkpt><trkpt lat="40.57162" lon="15.2231733"><ele>429.0</ele><time>2026-05-02T12:13:47.833Z</time></trkpt><trkpt lat="40.5715067" lon="15.222955"><ele>427.0</ele><time>2026-05-02T12:13:48.832Z</time></trkpt><trkpt lat="40.5714033" lon="15.2227467"><ele>425.0</ele><time>2026-05-02T12:13:49.832Z</time></trkpt><trkpt lat="40.5713117" lon="15.2225483"><ele>425.0</ele><time>2026-05-02T12:13:50.833Z</time></trkpt><trkpt lat="40.5712333" lon="15.22239"><ele>425.0</ele><time>2026-05-02T12:13:51.832Z</time></trkpt><trkpt lat="40.571175" lon="15.2222717"><ele>425.0</ele><time>2026-05-02T12:13:52.833Z</time></trkpt><trkpt lat="40.5711367" lon="15.2221967"><ele>425.0</ele><time>2026-05-02T12:13:53.833Z</time></trkpt><trkpt lat="40.5711183" lon="15.22207"><ele>425.0</ele><time>2026-05-02T12:14:20.832Z</time></trkpt><trkpt lat="40.5711667" lon="15.2219467"><ele>425.2</ele><time>2026-05-02T12:14:23.833Z</time></trkpt><trkpt lat="40.5711883" lon="15.2217683"><ele>425.4</ele><time>2026-05-02T12:14:25.832Z</time></trkpt><trkpt lat="40.5711883" lon="15.22165"><ele>425.6</ele><time>2026-05-02T12:14:26.833Z</time></trkpt><trkpt lat="40.5711933" lon="15.22152"><ele>425.8</ele><time>2026-05-02T12:14:27.833Z</time></trkpt><trkpt lat="40.5712" lon="15.2213867"><ele>426.0</ele><time>2026-05-02T12:14:28.832Z</time></trkpt><trkpt lat="40.5712183" lon="15.22126"><ele>423.8</ele><time>2026-05-02T12:14:29.833Z</time></trkpt><trkpt lat="40.5712433" lon="15.22113"><ele>421.6</ele><time>2026-05-02T12:14:30.833Z</time></trkpt><trkpt lat="40.5712783" lon="15.221005"><ele>419.4</ele><time>2026-05-02T12:14:31.833Z</time></trkpt><trkpt lat="40.5713233" lon="15.220875"><ele>417.2</ele><time>2026-05-02T12:14:32.833Z</time></trkpt><trkpt lat="40.571375" lon="15.220745"><ele>415.0</ele><time>2026-05-02T12:14:33.832Z</time></trkpt><trkpt lat="40.5714133" lon="15.2206133"><ele>414.8</ele><time>2026-05-02T12:14:34.832Z</time></trkpt><trkpt lat="40.5714383" lon="15.22048"><ele>414.6</ele><time>2026-05-02T12:14:35.832Z</time></trkpt><trkpt lat="40.5714617" lon="15.2203467"><ele>414.4</ele><time>2026-05-02T12:14:36.833Z</time></trkpt><trkpt lat="40.5714817" lon="15.220215"><ele>414.2</ele><time>2026-05-02T12:14:37.832Z</time></trkpt><trkpt lat="40.5715033" lon="15.2200883"><ele>414.0</ele><time>2026-05-02T12:14:38.832Z</time></trkpt><trkpt lat="40.571525" lon="15.219965"><ele>414.0</ele><time>2026-05-02T12:14:39.832Z</time></trkpt><trkpt lat="40.5715517" lon="15.21984"><ele>414.0</ele><time>2026-05-02T12:14:40.833Z</time></trkpt><trkpt lat="40.571575" lon="15.2197183"><ele>414.0</ele><time>2026-05-02T12:14:41.833Z</time></trkpt><trkpt lat="40.5716017" lon="15.2195967"><ele>414.0</ele><time>2026-05-02T12:14:42.832Z</time></trkpt><trkpt lat="40.5716283" lon="15.219475"><ele>414.0</ele><time>2026-05-02T12:14:43.833Z</time></trkpt><trkpt lat="40.571665" lon="15.2193517"><ele>413.75</ele><time>2026-05-02T12:14:44.832Z</time></trkpt><trkpt lat="40.57171" lon="15.2192233"><ele>413.5</ele><time>2026-05-02T12:14:45.832Z</time></trkpt><trkpt lat="40.5717567" lon="15.2190867"><ele>413.25</ele><time>2026-05-02T12:14:46.833Z</time></trkpt><trkpt lat="40.5718033" lon="15.2189433"><ele>413.0</ele><time>2026-05-02T12:14:47.833Z</time></trkpt><trkpt lat="40.57185" lon="15.2188017"><ele>412.2</ele><time>2026-05-02T12:14:48.833Z</time></trkpt><trkpt lat="40.5718933" lon="15.2186633"><ele>411.4</ele><time>2026-05-02T12:14:49.832Z</time></trkpt><trkpt lat="40.571935" lon="15.2185233"><ele>410.59999999999997</ele><time>2026-05-02T12:14:50.833Z</time></trkpt><trkpt lat="40.5719733" lon="15.2183867"><ele>409.79999999999995</ele><time>2026-05-02T12:14:51.833Z</time></trkpt><trkpt lat="40.5720133" lon="15.2182517"><ele>409.0</ele><time>2026-05-02T12:14:52.832Z</time></trkpt><trkpt lat="40.5720533" lon="15.2181217"><ele>409.00000000000006</ele><time>2026-05-02T12:14:53.832Z</time></trkpt><trkpt lat="40.57208" lon="15.2179933"><ele>409.0</ele><time>2026-05-02T12:14:54.833Z</time></trkpt><trkpt lat="40.5721133" lon="15.2178717"><ele>409.0</ele><time>2026-05-02T12:14:55.833Z</time></trkpt><trkpt lat="40.57214" lon="15.217765"><ele>409.0</ele><time>2026-05-02T12:14:56.833Z</time></trkpt><trkpt lat="40.5721733" lon="15.21767"><ele>409.00000000000006</ele><time>2026-05-02T12:14:57.832Z</time></trkpt><trkpt lat="40.5722067" lon="15.2175817"><ele>409.0</ele><time>2026-05-02T12:14:58.833Z</time></trkpt><trkpt lat="40.5722367" lon="15.2174883"><ele>409.00000000000006</ele><time>2026-05-02T12:14:59.832Z</time></trkpt><trkpt lat="40.5722783" lon="15.2174033"><ele>409.0</ele><time>2026-05-02T12:15:00.833Z</time></trkpt><trkpt lat="40.5723167" lon="15.21732"><ele>409.0</ele><time>2026-05-02T12:15:01.832Z</time></trkpt><trkpt lat="40.5723517" lon="15.2172417"><ele>409.0</ele><time>2026-05-02T12:15:02.832Z</time></trkpt><trkpt lat="40.5724067" lon="15.2170967"><ele>409.00000000000006</ele><time>2026-05-02T12:15:04.833Z</time></trkpt><trkpt lat="40.5724283" lon="15.2170183"><ele>409.0</ele><time>2026-05-02T12:15:05.832Z</time></trkpt><trkpt lat="40.572455" lon="15.2169283"><ele>409.0</ele><time>2026-05-02T12:15:06.832Z</time></trkpt><trkpt lat="40.5724867" lon="15.2168217"><ele>409.0</ele><time>2026-05-02T12:15:07.832Z</time></trkpt><trkpt lat="40.572525" lon="15.2167067"><ele>409.0</ele><time>2026-05-02T12:15:08.832Z</time></trkpt><trkpt lat="40.5725667" lon="15.2165967"><ele>409.0</ele><time>2026-05-02T12:15:09.833Z</time></trkpt><trkpt lat="40.5726117" lon="15.2164783"><ele>409.0</ele><time>2026-05-02T12:15:10.832Z</time></trkpt><trkpt lat="40.57266" lon="15.21636"><ele>408.2</ele><time>2026-05-02T12:15:11.833Z</time></trkpt><trkpt lat="40.5727117" lon="15.216245"><ele>407.4</ele><time>2026-05-02T12:15:12.832Z</time></trkpt><trkpt lat="40.572765" lon="15.2161233"><ele>406.6</ele><time>2026-05-02T12:15:13.832Z</time></trkpt><trkpt lat="40.5728217" lon="15.2160133"><ele>405.8</ele><time>2026-05-02T12:15:14.832Z</time></trkpt><trkpt lat="40.57287" lon="15.2158983"><ele>405.0</ele><time>2026-05-02T12:15:15.833Z</time></trkpt><trkpt lat="40.5729083" lon="15.2157733"><ele>403.8</ele><time>2026-05-02T12:15:16.832Z</time></trkpt><trkpt lat="40.57295" lon="15.2156467"><ele>402.6</ele><time>2026-05-02T12:15:17.833Z</time></trkpt><trkpt lat="40.57299" lon="15.2155233"><ele>401.4</ele><time>2026-05-02T12:15:18.833Z</time></trkpt><trkpt lat="40.5730333" lon="15.2153967"><ele>400.2</ele><time>2026-05-02T12:15:19.832Z</time></trkpt><trkpt lat="40.5730767" lon="15.21526"><ele>399.0</ele><time>2026-05-02T12:15:20.832Z</time></trkpt><trkpt lat="40.57313" lon="15.2151167"><ele>399.0</ele><time>2026-05-02T12:15:21.833Z</time></trkpt><trkpt lat="40.57319" lon="15.2149783"><ele>399.0</ele><time>2026-05-02T12:15:22.832Z</time></trkpt><trkpt lat="40.5732433" lon="15.2148383"><ele>399.0</ele><time>2026-05-02T12:15:23.833Z</time></trkpt><trkpt lat="40.5732967" lon="15.2147067"><ele>399.0</ele><time>2026-05-02T12:15:24.832Z</time></trkpt><trkpt lat="40.5733467" lon="15.21458"><ele>397.6</ele><time>2026-05-02T12:15:25.832Z</time></trkpt><trkpt lat="40.5733983" lon="15.21446"><ele>396.2</ele><time>2026-05-02T12:15:26.833Z</time></trkpt><trkpt lat="40.57345" lon="15.2143433"><ele>394.8</ele><time>2026-05-02T12:15:27.832Z</time></trkpt><trkpt lat="40.5735017" lon="15.2142217"><ele>393.40000000000003</ele><time>2026-05-02T12:15:28.833Z</time></trkpt><trkpt lat="40.5735417" lon="15.214095"><ele>392.0</ele><time>2026-05-02T12:15:29.833Z</time></trkpt><trkpt lat="40.5735817" lon="15.2139583"><ele>391.0</ele><time>2026-05-02T12:15:30.832Z</time></trkpt><trkpt lat="40.5736233" lon="15.2138183"><ele>390.0</ele><time>2026-05-02T12:15:31.832Z</time></trkpt><trkpt lat="40.57366" lon="15.2136767"><ele>389.0</ele><time>2026-05-02T12:15:32.833Z</time></trkpt><trkpt lat="40.57371" lon="15.2135317"><ele>388.0</ele><time>2026-05-02T12:15:33.832Z</time></trkpt><trkpt lat="40.5737633" lon="15.2133833"><ele>388.0</ele><time>2026-05-02T12:15:34.833Z</time></trkpt><trkpt lat="40.5738167" lon="15.21324"><ele>388.0</ele><time>2026-05-02T12:15:35.832Z</time></trkpt><trkpt lat="40.5738833" lon="15.2131017"><ele>388.0</ele><time>2026-05-02T12:15:36.832Z</time></trkpt><trkpt lat="40.57395" lon="15.212955"><ele>388.0</ele><time>2026-05-02T12:15:37.832Z</time></trkpt><trkpt lat="40.5740167" lon="15.2128067"><ele>388.0</ele><time>2026-05-02T12:15:38.832Z</time></trkpt><trkpt lat="40.5740883" lon="15.2126683"><ele>388.0</ele><time>2026-05-02T12:15:39.832Z</time></trkpt><trkpt lat="40.574165" lon="15.21253"><ele>388.0</ele><time>2026-05-02T12:15:40.833Z</time></trkpt><trkpt lat="40.5742433" lon="15.2124"><ele>388.0</ele><time>2026-05-02T12:15:41.833Z</time></trkpt><trkpt lat="40.5743217" lon="15.2122783"><ele>388.0</ele><time>2026-05-02T12:15:42.832Z</time></trkpt><trkpt lat="40.5744033" lon="15.2121517"><ele>388.0</ele><time>2026-05-02T12:15:43.832Z</time></trkpt><trkpt lat="40.5744917" lon="15.2120267"><ele>388.0</ele><time>2026-05-02T12:15:44.832Z</time></trkpt><trkpt lat="40.57458" lon="15.211905"><ele>388.0</ele><time>2026-05-02T12:15:45.832Z</time></trkpt><trkpt lat="40.5746633" lon="15.2117917"><ele>388.00000000000006</ele><time>2026-05-02T12:15:46.832Z</time></trkpt><trkpt lat="40.574725" lon="15.2116867"><ele>388.0</ele><time>2026-05-02T12:15:47.832Z</time></trkpt><trkpt lat="40.5747767" lon="15.2115867"><ele>388.0</ele><time>2026-05-02T12:15:48.833Z</time></trkpt><trkpt lat="40.574815" lon="15.2114917"><ele>388.0</ele><time>2026-05-02T12:15:49.833Z</time></trkpt><trkpt lat="40.574845" lon="15.2113883"><ele>388.00000000000006</ele><time>2026-05-02T12:15:50.832Z</time></trkpt><trkpt lat="40.5748683" lon="15.2112783"><ele>388.0</ele><time>2026-05-02T12:15:51.833Z</time></trkpt><trkpt lat="40.5748867" lon="15.21116"><ele>388.00000000000006</ele><time>2026-05-02T12:15:52.833Z</time></trkpt><trkpt lat="40.5748883" lon="15.2110317"><ele>388.0</ele><time>2026-05-02T12:15:53.833Z</time></trkpt><trkpt lat="40.57489" lon="15.210905"><ele>388.0</ele><time>2026-05-02T12:15:54.832Z</time></trkpt><trkpt lat="40.57489" lon="15.2107967"><ele>388.0</ele><time>2026-05-02T12:15:55.832Z</time></trkpt><trkpt lat="40.5749" lon="15.2107017"><ele>388.00000000000006</ele><time>2026-05-02T12:15:56.832Z</time></trkpt><trkpt lat="40.5749133" lon="15.2106"><ele>388.0</ele><time>2026-05-02T12:15:57.832Z</time></trkpt><trkpt lat="40.5749367" lon="15.21049"><ele>388.6666666666667</ele><time>2026-05-02T12:15:58.833Z</time></trkpt><trkpt lat="40.5749733" lon="15.2103783"><ele>389.33333333333337</ele><time>2026-05-02T12:15:59.832Z</time></trkpt><trkpt lat="40.5750317" lon="15.21027"><ele>390.0</ele><time>2026-05-02T12:16:00.833Z</time></trkpt><trkpt lat="40.57509" lon="15.2101683"><ele>390.66666666666663</ele><time>2026-05-02T12:16:01.833Z</time></trkpt><trkpt lat="40.575145" lon="15.2100817"><ele>391.3333333333333</ele><time>2026-05-02T12:16:02.832Z</time></trkpt><trkpt lat="40.57519" lon="15.2100083"><ele>392.0</ele><time>2026-05-02T12:16:03.833Z</time></trkpt><trkpt lat="40.5752317" lon="15.2099383"><ele>392.0</ele><time>2026-05-02T12:16:04.832Z</time></trkpt><trkpt lat="40.5753" lon="15.2098"><ele>392.0</ele><time>2026-05-02T12:16:06.833Z</time></trkpt><trkpt lat="40.57534" lon="15.20965"><ele>392.0</ele><time>2026-05-02T12:16:08.832Z</time></trkpt><trkpt lat="40.5753433" lon="15.2095633"><ele>392.0</ele><time>2026-05-02T12:16:09.832Z</time></trkpt><trkpt lat="40.5753367" lon="15.2094667"><ele>392.0</ele><time>2026-05-02T12:16:10.833Z</time></trkpt><trkpt lat="40.5753117" lon="15.2093583"><ele>392.0</ele><time>2026-05-02T12:16:11.833Z</time></trkpt><trkpt lat="40.57528" lon="15.2092383"><ele>392.0</ele><time>2026-05-02T12:16:12.833Z</time></trkpt><trkpt lat="40.5752483" lon="15.2091183"><ele>392.0</ele><time>2026-05-02T12:16:13.832Z</time></trkpt><trkpt lat="40.5752317" lon="15.209"><ele>392.0</ele><time>2026-05-02T12:16:14.833Z</time></trkpt><trkpt lat="40.575225" lon="15.2088833"><ele>392.0</ele><time>2026-05-02T12:16:15.833Z</time></trkpt><trkpt lat="40.575215" lon="15.208755"><ele>389.8</ele><time>2026-05-02T12:16:16.833Z</time></trkpt><trkpt lat="40.57521" lon="15.2086267"><ele>387.6</ele><time>2026-05-02T12:16:17.833Z</time></trkpt><trkpt lat="40.5752117" lon="15.2084983"><ele>385.40000000000003</ele><time>2026-05-02T12:16:18.832Z</time></trkpt><trkpt lat="40.575215" lon="15.2083733"><ele>383.20000000000005</ele><time>2026-05-02T12:16:19.832Z</time></trkpt><trkpt lat="40.5752117" lon="15.208245"><ele>381.0</ele><time>2026-05-02T12:16:20.833Z</time></trkpt><trkpt lat="40.5752217" lon="15.208125"><ele>380.0</ele><time>2026-05-02T12:16:21.832Z</time></trkpt><trkpt lat="40.575215" lon="15.2079983"><ele>379.0</ele><time>2026-05-02T12:16:22.832Z</time></trkpt><trkpt lat="40.57522" lon="15.207895"><ele>378.0</ele><time>2026-05-02T12:16:23.832Z</time></trkpt><trkpt lat="40.57521" lon="15.207775"><ele>377.0</ele><time>2026-05-02T12:16:24.833Z</time></trkpt><trkpt lat="40.5752117" lon="15.2076617"><ele>376.0</ele><time>2026-05-02T12:16:25.833Z</time></trkpt><trkpt lat="40.5752" lon="15.2075467"><ele>375.0</ele><time>2026-05-02T12:16:26.833Z</time></trkpt><trkpt lat="40.5751867" lon="15.2074333"><ele>374.3333333333333</ele><time>2026-05-02T12:16:27.832Z</time></trkpt><trkpt lat="40.5751717" lon="15.2073183"><ele>373.6666666666667</ele><time>2026-05-02T12:16:28.833Z</time></trkpt><trkpt lat="40.5751633" lon="15.20722"><ele>373.0</ele><time>2026-05-02T12:16:29.833Z</time></trkpt><trkpt lat="40.5751517" lon="15.207115"><ele>372.33333333333337</ele><time>2026-05-02T12:16:30.833Z</time></trkpt><trkpt lat="40.5751317" lon="15.2070133"><ele>371.6666666666667</ele><time>2026-05-02T12:16:31.833Z</time></trkpt><trkpt lat="40.575115" lon="15.2069183"><ele>371.0</ele><time>2026-05-02T12:16:32.833Z</time></trkpt><trkpt lat="40.5751067" lon="15.2068333"><ele>371.0</ele><time>2026-05-02T12:16:33.833Z</time></trkpt><trkpt lat="40.5751133" lon="15.2066933"><ele>371.0</ele><time>2026-05-02T12:16:35.833Z</time></trkpt><trkpt lat="40.575155" lon="15.2065367"><ele>371.0</ele><time>2026-05-02T12:16:37.833Z</time></trkpt><trkpt lat="40.575185" lon="15.2064433"><ele>371.0</ele><time>2026-05-02T12:16:38.832Z</time></trkpt><trkpt lat="40.57521" lon="15.206335"><ele>371.0</ele><time>2026-05-02T12:16:39.832Z</time></trkpt><trkpt lat="40.5752333" lon="15.206225"><ele>370.1666666666667</ele><time>2026-05-02T12:16:40.832Z</time></trkpt><trkpt lat="40.5752583" lon="15.2061183"><ele>369.33333333333337</ele><time>2026-05-02T12:16:41.832Z</time></trkpt><trkpt lat="40.5752867" lon="15.2060083"><ele>368.5</ele><time>2026-05-02T12:16:42.832Z</time></trkpt><trkpt lat="40.5753067" lon="15.205895"><ele>367.6666666666667</ele><time>2026-05-02T12:16:43.832Z</time></trkpt><trkpt lat="40.5753283" lon="15.2057833"><ele>366.8333333333333</ele><time>2026-05-02T12:16:44.833Z</time></trkpt><trkpt lat="40.5753467" lon="15.2056667"><ele>366.0</ele><time>2026-05-02T12:16:45.833Z</time></trkpt><trkpt lat="40.57536" lon="15.20555"><ele>363.0</ele><time>2026-05-02T12:16:46.833Z</time></trkpt><trkpt lat="40.5753617" lon="15.205425"><ele>360.0</ele><time>2026-05-02T12:16:47.832Z</time></trkpt><trkpt lat="40.5753717" lon="15.20531"><ele>357.0</ele><time>2026-05-02T12:16:48.832Z</time></trkpt><trkpt lat="40.575385" lon="15.2051967"><ele>354.0</ele><time>2026-05-02T12:16:49.832Z</time></trkpt><trkpt lat="40.5754" lon="15.205075"><ele>351.0</ele><time>2026-05-02T12:16:50.832Z</time></trkpt><trkpt lat="40.575415" lon="15.2049283"><ele>349.75</ele><time>2026-05-02T12:16:51.833Z</time></trkpt><trkpt lat="40.5754367" lon="15.2047717"><ele>348.5</ele><time>2026-05-02T12:16:52.833Z</time></trkpt><trkpt lat="40.57546" lon="15.204625"><ele>347.25</ele><time>2026-05-02T12:16:53.833Z</time></trkpt><trkpt lat="40.57547" lon="15.20448"><ele>346.0</ele><time>2026-05-02T12:16:54.833Z</time></trkpt><trkpt lat="40.5754783" lon="15.20434"><ele>346.0</ele><time>2026-05-02T12:16:55.832Z</time></trkpt><trkpt lat="40.57547" lon="15.2042"><ele>346.0</ele><time>2026-05-02T12:16:56.832Z</time></trkpt><trkpt lat="40.5754533" lon="15.2040567"><ele>346.0</ele><time>2026-05-02T12:16:57.833Z</time></trkpt><trkpt lat="40.5754567" lon="15.2039217"><ele>346.0</ele><time>2026-05-02T12:16:58.832Z</time></trkpt><trkpt lat="40.5754867" lon="15.203795"><ele>346.0</ele><time>2026-05-02T12:16:59.832Z</time></trkpt><trkpt lat="40.5755383" lon="15.2036683"><ele>344.6</ele><time>2026-05-02T12:17:00.833Z</time></trkpt><trkpt lat="40.5755917" lon="15.2035383"><ele>343.20000000000005</ele><time>2026-05-02T12:17:01.833Z</time></trkpt><trkpt lat="40.5756467" lon="15.2034167"><ele>341.79999999999995</ele><time>2026-05-02T12:17:02.832Z</time></trkpt><trkpt lat="40.5756883" lon="15.2032867"><ele>340.4</ele><time>2026-05-02T12:17:03.832Z</time></trkpt><trkpt lat="40.5757233" lon="15.20316"><ele>339.0</ele><time>2026-05-02T12:17:04.832Z</time></trkpt><trkpt lat="40.5757417" lon="15.2030217"><ele>337.4</ele><time>2026-05-02T12:17:05.833Z</time></trkpt><trkpt lat="40.5757483" lon="15.2028933"><ele>335.79999999999995</ele><time>2026-05-02T12:17:06.833Z</time></trkpt><trkpt lat="40.5757467" lon="15.2027667"><ele>334.20000000000005</ele><time>2026-05-02T12:17:07.833Z</time></trkpt><trkpt lat="40.5757167" lon="15.20264"><ele>332.6</ele><time>2026-05-02T12:17:08.832Z</time></trkpt><trkpt lat="40.5756567" lon="15.202515"><ele>331.0</ele><time>2026-05-02T12:17:09.832Z</time></trkpt><trkpt lat="40.5755633" lon="15.20239"><ele>329.8</ele><time>2026-05-02T12:17:10.832Z</time></trkpt><trkpt lat="40.5754617" lon="15.20228"><ele>328.6</ele><time>2026-05-02T12:17:11.833Z</time></trkpt><trkpt lat="40.5753717" lon="15.2021817"><ele>327.4</ele><time>2026-05-02T12:17:12.833Z</time></trkpt><trkpt lat="40.5752917" lon="15.2020883"><ele>326.2</ele><time>2026-05-02T12:17:13.832Z</time></trkpt><trkpt lat="40.5752317" lon="15.202"><ele>325.0</ele><time>2026-05-02T12:17:14.833Z</time></trkpt><trkpt lat="40.5751733" lon="15.20192"><ele>325.0</ele><time>2026-05-02T12:17:15.832Z</time></trkpt><trkpt lat="40.57514" lon="15.2018417"><ele>325.0</ele><time>2026-05-02T12:17:16.833Z</time></trkpt><trkpt lat="40.57513" lon="15.201745"><ele>325.0</ele><time>2026-05-02T12:17:17.833Z</time></trkpt><trkpt lat="40.5751233" lon="15.2016417"><ele>325.0</ele><time>2026-05-02T12:17:18.832Z</time></trkpt><trkpt lat="40.57509" lon="15.201545"><ele>325.0</ele><time>2026-05-02T12:17:19.833Z</time></trkpt><trkpt lat="40.5750517" lon="15.2014467"><ele>325.0</ele><time>2026-05-02T12:17:20.832Z</time></trkpt><trkpt lat="40.5749967" lon="15.2013617"><ele>323.2</ele><time>2026-05-02T12:17:21.833Z</time></trkpt><trkpt lat="40.5749233" lon="15.2012883"><ele>321.4</ele><time>2026-05-02T12:17:22.832Z</time></trkpt><trkpt lat="40.574865" lon="15.20122"><ele>319.6</ele><time>2026-05-02T12:17:23.833Z</time></trkpt><trkpt lat="40.5747917" lon="15.2011667"><ele>317.8</ele><time>2026-05-02T12:17:25.833Z</time></trkpt><trkpt lat="40.5748167" lon="15.2010267"><ele>316.0</ele><time>2026-05-02T12:17:28.833Z</time></trkpt><trkpt lat="40.5748433" lon="15.20091"><ele>316.0</ele><time>2026-05-02T12:17:29.833Z</time></trkpt><trkpt lat="40.5748767" lon="15.200765"><ele>316.0</ele><time>2026-05-02T12:17:30.832Z</time></trkpt><trkpt lat="40.5749167" lon="15.2006017"><ele>316.0</ele><time>2026-05-02T12:17:31.832Z</time></trkpt><trkpt lat="40.5749817" lon="15.2004367"><ele>316.0</ele><time>2026-05-02T12:17:32.832Z</time></trkpt><trkpt lat="40.57507" lon="15.2002883"><ele>314.0</ele><time>2026-05-02T12:17:33.833Z</time></trkpt><trkpt lat="40.5751883" lon="15.2001433"><ele>312.0</ele><time>2026-05-02T12:17:34.833Z</time></trkpt><trkpt lat="40.57531" lon="15.2"><ele>310.0</ele><time>2026-05-02T12:17:35.832Z</time></trkpt><trkpt lat="40.5754283" lon="15.199875"><ele>308.3333333333333</ele><time>2026-05-02T12:17:36.832Z</time></trkpt><trkpt lat="40.5755383" lon="15.19974"><ele>306.6666666666667</ele><time>2026-05-02T12:17:37.832Z</time></trkpt><trkpt lat="40.5756383" lon="15.19959"><ele>305.0</ele><time>2026-05-02T12:17:38.832Z</time></trkpt><trkpt lat="40.5757317" lon="15.1994183"><ele>305.0</ele><time>2026-05-02T12:17:39.832Z</time></trkpt><trkpt lat="40.5757917" lon="15.199225"><ele>305.0</ele><time>2026-05-02T12:17:40.832Z</time></trkpt><trkpt lat="40.57583" lon="15.1990083"><ele>305.0</ele><time>2026-05-02T12:17:41.833Z</time></trkpt><trkpt lat="40.57584" lon="15.1987667"><ele>304.33333333333337</ele><time>2026-05-02T12:17:42.833Z</time></trkpt><trkpt lat="40.575825" lon="15.19853"><ele>303.6666666666667</ele><time>2026-05-02T12:17:43.832Z</time></trkpt><trkpt lat="40.575805" lon="15.1983083"><ele>303.0</ele><time>2026-05-02T12:17:44.833Z</time></trkpt><trkpt lat="40.5757767" lon="15.19811"><ele>303.0</ele><time>2026-05-02T12:17:45.832Z</time></trkpt><trkpt lat="40.5757267" lon="15.197925"><ele>303.0</ele><time>2026-05-02T12:17:46.833Z</time></trkpt><trkpt lat="40.5756417" lon="15.19777"><ele>303.0</ele><time>2026-05-02T12:17:47.833Z</time></trkpt><trkpt lat="40.575535" lon="15.1976317"><ele>303.0</ele><time>2026-05-02T12:17:48.833Z</time></trkpt><trkpt lat="40.575425" lon="15.1974933"><ele>300.25</ele><time>2026-05-02T12:17:49.832Z</time></trkpt><trkpt lat="40.5753383" lon="15.1973417"><ele>297.5</ele><time>2026-05-02T12:17:50.833Z</time></trkpt><trkpt lat="40.5752767" lon="15.1971833"><ele>294.75</ele><time>2026-05-02T12:17:51.833Z</time></trkpt><trkpt lat="40.5752433" lon="15.197035"><ele>292.0</ele><time>2026-05-02T12:17:52.833Z</time></trkpt><trkpt lat="40.57526" lon="15.1968917"><ele>292.0</ele><time>2026-05-02T12:17:53.833Z</time></trkpt><trkpt lat="40.5753233" lon="15.196775"><ele>292.0</ele><time>2026-05-02T12:17:54.832Z</time></trkpt><trkpt lat="40.5754133" lon="15.1966933"><ele>292.0</ele><time>2026-05-02T12:17:55.833Z</time></trkpt><trkpt lat="40.5755317" lon="15.1966333"><ele>292.0</ele><time>2026-05-02T12:17:56.833Z</time></trkpt><trkpt lat="40.57566" lon="15.19656"><ele>290.66666666666663</ele><time>2026-05-02T12:17:57.833Z</time></trkpt><trkpt lat="40.57579" lon="15.19645"><ele>289.3333333333333</ele><time>2026-05-02T12:17:58.833Z</time></trkpt><trkpt lat="40.5758967" lon="15.1962867"><ele>288.0</ele><time>2026-05-02T12:17:59.832Z</time></trkpt><trkpt lat="40.5759833" lon="15.1961183"><ele>288.0</ele><time>2026-05-02T12:18:00.833Z</time></trkpt><trkpt lat="40.5760767" lon="15.1959617"><ele>288.0</ele><time>2026-05-02T12:18:01.832Z</time></trkpt><trkpt lat="40.5761733" lon="15.1958283"><ele>288.0</ele><time>2026-05-02T12:18:02.833Z</time></trkpt><trkpt lat="40.5762717" lon="15.1957517"><ele>288.0</ele><time>2026-05-02T12:18:03.832Z</time></trkpt><trkpt lat="40.5763767" lon="15.195725"><ele>288.25</ele><time>2026-05-02T12:18:04.833Z</time></trkpt><trkpt lat="40.5764817" lon="15.1957517"><ele>288.5</ele><time>2026-05-02T12:18:05.832Z</time></trkpt><trkpt lat="40.576585" lon="15.195825"><ele>288.75</ele><time>2026-05-02T12:18:06.832Z</time></trkpt><trkpt lat="40.5766883" lon="15.1959133"><ele>289.0</ele><time>2026-05-02T12:18:07.832Z</time></trkpt><trkpt lat="40.5768167" lon="15.1959867"><ele>289.0</ele><time>2026-05-02T12:18:08.833Z</time></trkpt><trkpt lat="40.5769683" lon="15.19601"><ele>289.0</ele><time>2026-05-02T12:18:09.832Z</time></trkpt><trkpt lat="40.577135" lon="15.1959733"><ele>289.0</ele><time>2026-05-02T12:18:10.832Z</time></trkpt><trkpt lat="40.5773183" lon="15.1958833"><ele>288.66666666666663</ele><time>2026-05-02T12:18:11.832Z</time></trkpt><trkpt lat="40.57751" lon="15.1957617"><ele>288.3333333333333</ele><time>2026-05-02T12:18:12.833Z</time></trkpt><trkpt lat="40.5777067" lon="15.195625"><ele>288.0</ele><time>2026-05-02T12:18:13.833Z</time></trkpt><trkpt lat="40.5779067" lon="15.1954833"><ele>288.0</ele><time>2026-05-02T12:18:14.833Z</time></trkpt><trkpt lat="40.57811" lon="15.19535"><ele>288.0</ele><time>2026-05-02T12:18:15.833Z</time></trkpt><trkpt lat="40.57831" lon="15.19522"><ele>288.0</ele><time>2026-05-02T12:18:16.833Z</time></trkpt><trkpt lat="40.5785117" lon="15.19509"><ele>288.0</ele><time>2026-05-02T12:18:17.832Z</time></trkpt><trkpt lat="40.5787017" lon="15.19496"><ele>288.0</ele><time>2026-05-02T12:18:18.833Z</time></trkpt><trkpt lat="40.578895" lon="15.1948317"><ele>288.0</ele><time>2026-05-02T12:18:19.833Z</time></trkpt><trkpt lat="40.5790833" lon="15.1947017"><ele>288.0</ele><time>2026-05-02T12:18:20.832Z</time></trkpt><trkpt lat="40.5792617" lon="15.1945817"><ele>288.0</ele><time>2026-05-02T12:18:21.833Z</time></trkpt><trkpt lat="40.5794367" lon="15.1944667"><ele>288.0</ele><time>2026-05-02T12:18:22.832Z</time></trkpt><trkpt lat="40.579615" lon="15.1943667"><ele>288.0</ele><time>2026-05-02T12:18:23.831Z</time></trkpt><trkpt lat="40.5798" lon="15.1942917"><ele>288.0</ele><time>2026-05-02T12:18:24.831Z</time></trkpt><trkpt lat="40.5799917" lon="15.1942433"><ele>288.0</ele><time>2026-05-02T12:18:25.832Z</time></trkpt><trkpt lat="40.5801883" lon="15.1942167"><ele>288.0</ele><time>2026-05-02T12:18:26.832Z</time></trkpt><trkpt lat="40.5803867" lon="15.1942017"><ele>288.0</ele><time>2026-05-02T12:18:27.832Z</time></trkpt><trkpt lat="40.5805667" lon="15.19421"><ele>288.0</ele><time>2026-05-02T12:18:28.831Z</time></trkpt><trkpt lat="40.58074" lon="15.1942583"><ele>288.0</ele><time>2026-05-02T12:18:29.832Z</time></trkpt><trkpt lat="40.5809083" lon="15.1943117"><ele>288.0</ele><time>2026-05-02T12:18:30.832Z</time></trkpt><trkpt lat="40.5810917" lon="15.1943167"><ele>286.0</ele><time>2026-05-02T12:18:31.831Z</time></trkpt><trkpt lat="40.5812783" lon="15.1942883"><ele>284.0</ele><time>2026-05-02T12:18:32.831Z</time></trkpt><trkpt lat="40.5814583" lon="15.1942583"><ele>282.0</ele><time>2026-05-02T12:18:33.831Z</time></trkpt><trkpt lat="40.5816167" lon="15.1942433"><ele>282.0</ele><time>2026-05-02T12:18:34.831Z</time></trkpt><trkpt lat="40.581755" lon="15.194215"><ele>282.0</ele><time>2026-05-02T12:18:35.831Z</time></trkpt><trkpt lat="40.58188" lon="15.1941583"><ele>282.0</ele><time>2026-05-02T12:18:36.832Z</time></trkpt><trkpt lat="40.581975" lon="15.1940483"><ele>282.0</ele><time>2026-05-02T12:18:37.831Z</time></trkpt><trkpt lat="40.5820317" lon="15.1938967"><ele>282.5</ele><time>2026-05-02T12:18:38.832Z</time></trkpt><trkpt lat="40.582045" lon="15.19373"><ele>283.0</ele><time>2026-05-02T12:18:39.831Z</time></trkpt><trkpt lat="40.5820367" lon="15.1935433"><ele>283.5</ele><time>2026-05-02T12:18:40.831Z</time></trkpt><trkpt lat="40.5820017" lon="15.19336"><ele>284.0</ele><time>2026-05-02T12:18:41.832Z</time></trkpt><trkpt lat="40.5819533" lon="15.1932"><ele>283.4</ele><time>2026-05-02T12:18:42.831Z</time></trkpt><trkpt lat="40.5819567" lon="15.1930683"><ele>282.79999999999995</ele><time>2026-05-02T12:18:43.831Z</time></trkpt><trkpt lat="40.582" lon="15.1929517"><ele>282.20000000000005</ele><time>2026-05-02T12:18:44.832Z</time></trkpt><trkpt lat="40.5820883" lon="15.1928767"><ele>281.6</ele><time>2026-05-02T12:18:45.831Z</time></trkpt><trkpt lat="40.582195" lon="15.1928533"><ele>281.0</ele><time>2026-05-02T12:18:46.831Z</time></trkpt><trkpt lat="40.5823083" lon="15.19287"><ele>279.0</ele><time>2026-05-02T12:18:47.832Z</time></trkpt><trkpt lat="40.5824183" lon="15.192865"><ele>277.0</ele><time>2026-05-02T12:18:48.831Z</time></trkpt><trkpt lat="40.5825083" lon="15.1927933"><ele>275.0</ele><time>2026-05-02T12:18:49.831Z</time></trkpt><trkpt lat="40.5825617" lon="15.1926633"><ele>273.0</ele><time>2026-05-02T12:18:50.831Z</time></trkpt><trkpt lat="40.5825883" lon="15.1924867"><ele>272.6666666666667</ele><time>2026-05-02T12:18:51.831Z</time></trkpt><trkpt lat="40.5825933" lon="15.1922783"><ele>272.33333333333337</ele><time>2026-05-02T12:18:52.832Z</time></trkpt><trkpt lat="40.582615" lon="15.1920617"><ele>272.0</ele><time>2026-05-02T12:18:53.831Z</time></trkpt><trkpt lat="40.5826583" lon="15.1918483"><ele>272.0</ele><time>2026-05-02T12:18:54.831Z</time></trkpt><trkpt lat="40.582735" lon="15.1916383"><ele>272.0</ele><time>2026-05-02T12:18:55.832Z</time></trkpt><trkpt lat="40.5828167" lon="15.191445"><ele>272.0</ele><time>2026-05-02T12:18:56.831Z</time></trkpt><trkpt lat="40.5829083" lon="15.1912717"><ele>267.6666666666667</ele><time>2026-05-02T12:18:57.832Z</time></trkpt><trkpt lat="40.5830333" lon="15.191125"><ele>263.3333333333333</ele><time>2026-05-02T12:18:58.831Z</time></trkpt><trkpt lat="40.5831733" lon="15.191"><ele>259.0</ele><time>2026-05-02T12:18:59.832Z</time></trkpt><trkpt lat="40.583315" lon="15.19088"><ele>259.0</ele><time>2026-05-02T12:19:00.832Z</time></trkpt><trkpt lat="40.58346" lon="15.1907617"><ele>259.0</ele><time>2026-05-02T12:19:01.831Z</time></trkpt><trkpt lat="40.5835933" lon="15.1906267"><ele>259.0</ele><time>2026-05-02T12:19:02.831Z</time></trkpt><trkpt lat="40.5837017" lon="15.19047"><ele>257.2</ele><time>2026-05-02T12:19:03.831Z</time></trkpt><trkpt lat="40.58378" lon="15.1903233"><ele>255.39999999999998</ele><time>2026-05-02T12:19:04.832Z</time></trkpt><trkpt lat="40.583835" lon="15.1901983"><ele>253.6</ele><time>2026-05-02T12:19:05.832Z</time></trkpt><trkpt lat="40.5838633" lon="15.1900883"><ele>251.8</ele><time>2026-05-02T12:19:06.831Z</time></trkpt><trkpt lat="40.583855" lon="15.18998"><ele>250.0</ele><time>2026-05-02T12:19:07.832Z</time></trkpt><trkpt lat="40.583815" lon="15.1898783"><ele>250.75</ele><time>2026-05-02T12:19:08.831Z</time></trkpt><trkpt lat="40.58375" lon="15.1897783"><ele>251.5</ele><time>2026-05-02T12:19:09.832Z</time></trkpt><trkpt lat="40.5836633" lon="15.18967"><ele>252.25</ele><time>2026-05-02T12:19:10.832Z</time></trkpt><trkpt lat="40.583575" lon="15.1895533"><ele>253.0</ele><time>2026-05-02T12:19:11.831Z</time></trkpt><trkpt lat="40.5835017" lon="15.1894283"><ele>253.0</ele><time>2026-05-02T12:19:12.832Z</time></trkpt><trkpt lat="40.5834417" lon="15.1893033"><ele>253.0</ele><time>2026-05-02T12:19:13.832Z</time></trkpt><trkpt lat="40.5834183" lon="15.1891617"><ele>253.0</ele><time>2026-05-02T12:19:14.831Z</time></trkpt><trkpt lat="40.5834367" lon="15.1890083"><ele>253.0</ele><time>2026-05-02T12:19:15.831Z</time></trkpt><trkpt lat="40.5834833" lon="15.18885"><ele>252.5</ele><time>2026-05-02T12:19:16.832Z</time></trkpt><trkpt lat="40.5835667" lon="15.1887317"><ele>252.0</ele><time>2026-05-02T12:19:17.831Z</time></trkpt><trkpt lat="40.58368" lon="15.1886483"><ele>251.5</ele><time>2026-05-02T12:19:18.831Z</time></trkpt><trkpt lat="40.5838133" lon="15.188585"><ele>251.0</ele><time>2026-05-02T12:19:19.832Z</time></trkpt><trkpt lat="40.5839717" lon="15.1885483"><ele>251.0</ele><time>2026-05-02T12:19:20.831Z</time></trkpt><trkpt lat="40.5841183" lon="15.1884983"><ele>251.0</ele><time>2026-05-02T12:19:21.832Z</time></trkpt><trkpt lat="40.5842317" lon="15.1884217"><ele>251.0</ele><time>2026-05-02T12:19:22.832Z</time></trkpt><trkpt lat="40.58432" lon="15.1883117"><ele>251.0</ele><time>2026-05-02T12:19:23.831Z</time></trkpt><trkpt lat="40.5843633" lon="15.188175"><ele>251.0</ele><time>2026-05-02T12:19:24.832Z</time></trkpt><trkpt lat="40.5843733" lon="15.1880117"><ele>251.0</ele><time>2026-05-02T12:19:25.831Z</time></trkpt><trkpt lat="40.584345" lon="15.1878233"><ele>251.0</ele><time>2026-05-02T12:19:26.832Z</time></trkpt><trkpt lat="40.584325" lon="15.187625"><ele>251.0</ele><time>2026-05-02T12:19:27.832Z</time></trkpt><trkpt lat="40.58434" lon="15.1874083"><ele>250.66666666666669</ele><time>2026-05-02T12:19:28.832Z</time></trkpt><trkpt lat="40.58437" lon="15.1871783"><ele>250.33333333333331</ele><time>2026-05-02T12:19:29.831Z</time></trkpt><trkpt lat="40.5844167" lon="15.1869333"><ele>250.0</ele><time>2026-05-02T12:19:30.832Z</time></trkpt><trkpt lat="40.5844833" lon="15.186675"><ele>247.33333333333331</ele><time>2026-05-02T12:19:31.832Z</time></trkpt><trkpt lat="40.5845417" lon="15.1864133"><ele>244.66666666666669</ele><time>2026-05-02T12:19:32.831Z</time></trkpt><trkpt lat="40.5846" lon="15.1861717"><ele>242.0</ele><time>2026-05-02T12:19:33.831Z</time></trkpt><trkpt lat="40.58465" lon="15.1859433"><ele>242.0</ele><time>2026-05-02T12:19:34.832Z</time></trkpt><trkpt lat="40.5847033" lon="15.1857283"><ele>242.0</ele><time>2026-05-02T12:19:35.832Z</time></trkpt><trkpt lat="40.5847567" lon="15.1855233"><ele>242.0</ele><time>2026-05-02T12:19:36.832Z</time></trkpt><trkpt lat="40.5848033" lon="15.1853233"><ele>242.0</ele><time>2026-05-02T12:19:37.831Z</time></trkpt><trkpt lat="40.584845" lon="15.185135"><ele>242.0</ele><time>2026-05-02T12:19:38.831Z</time></trkpt><trkpt lat="40.5849017" lon="15.1849617"><ele>242.0</ele><time>2026-05-02T12:19:39.832Z</time></trkpt><trkpt lat="40.5849417" lon="15.18478"><ele>242.0</ele><time>2026-05-02T12:19:40.832Z</time></trkpt><trkpt lat="40.5849783" lon="15.1845967"><ele>243.33333333333334</ele><time>2026-05-02T12:19:41.832Z</time></trkpt><trkpt lat="40.58502" lon="15.18441"><ele>244.66666666666669</ele><time>2026-05-02T12:19:42.832Z</time></trkpt><trkpt lat="40.5850617" lon="15.1842167"><ele>246.0</ele><time>2026-05-02T12:19:43.832Z</time></trkpt><trkpt lat="40.5851117" lon="15.1840233"><ele>245.5</ele><time>2026-05-02T12:19:44.831Z</time></trkpt><trkpt lat="40.5851517" lon="15.1838317"><ele>245.0</ele><time>2026-05-02T12:19:45.832Z</time></trkpt><trkpt lat="40.5851867" lon="15.1836483"><ele>244.5</ele><time>2026-05-02T12:19:46.831Z</time></trkpt><trkpt lat="40.5852217" lon="15.1834783"><ele>244.0</ele><time>2026-05-02T12:19:47.831Z</time></trkpt><trkpt lat="40.5852533" lon="15.1833167"><ele>243.79999999999998</ele><time>2026-05-02T12:19:48.831Z</time></trkpt><trkpt lat="40.5852883" lon="15.1831617"><ele>243.59999999999997</ele><time>2026-05-02T12:19:49.832Z</time></trkpt><trkpt lat="40.5853233" lon="15.1830183"><ele>243.4</ele><time>2026-05-02T12:19:50.832Z</time></trkpt><trkpt lat="40.5853567" lon="15.18289"><ele>243.2</ele><time>2026-05-02T12:19:51.832Z</time></trkpt><trkpt lat="40.585375" lon="15.18279"><ele>243.0</ele><time>2026-05-02T12:19:52.832Z</time></trkpt><trkpt lat="40.585375" lon="15.1827067"><ele>243.0</ele><time>2026-05-02T12:19:53.832Z</time></trkpt><trkpt lat="40.5853467" lon="15.1826317"><ele>243.0</ele><time>2026-05-02T12:19:54.832Z</time></trkpt><trkpt lat="40.58529" lon="15.1825483"><ele>243.0</ele><time>2026-05-02T12:19:55.831Z</time></trkpt><trkpt lat="40.585215" lon="15.1824817"><ele>243.0</ele><time>2026-05-02T12:19:56.831Z</time></trkpt><trkpt lat="40.58512" lon="15.1824417"><ele>243.0</ele><time>2026-05-02T12:19:57.832Z</time></trkpt><trkpt lat="40.5850133" lon="15.1824433"><ele>243.0</ele><time>2026-05-02T12:19:58.832Z</time></trkpt><trkpt lat="40.5848967" lon="15.1824633"><ele>243.0</ele><time>2026-05-02T12:19:59.831Z</time></trkpt><trkpt lat="40.5847733" lon="15.1824883"><ele>243.0</ele><time>2026-05-02T12:20:00.831Z</time></trkpt><trkpt lat="40.5846433" lon="15.1824983"><ele>243.0</ele><time>2026-05-02T12:20:01.832Z</time></trkpt><trkpt lat="40.584515" lon="15.1824933"><ele>243.0</ele><time>2026-05-02T12:20:02.831Z</time></trkpt><trkpt lat="40.584395" lon="15.1824617"><ele>240.25</ele><time>2026-05-02T12:20:03.832Z</time></trkpt><trkpt lat="40.5842783" lon="15.18241"><ele>237.5</ele><time>2026-05-02T12:20:04.832Z</time></trkpt><trkpt lat="40.58417" lon="15.1823267"><ele>234.75</ele><time>2026-05-02T12:20:05.832Z</time></trkpt><trkpt lat="40.5840617" lon="15.1822583"><ele>232.0</ele><time>2026-05-02T12:20:06.832Z</time></trkpt><trkpt lat="40.5839467" lon="15.182225"><ele>232.0</ele><time>2026-05-02T12:20:07.832Z</time></trkpt><trkpt lat="40.583825" lon="15.1822283"><ele>232.0</ele><time>2026-05-02T12:20:08.832Z</time></trkpt><trkpt lat="40.5837033" lon="15.1822483"><ele>232.0</ele><time>2026-05-02T12:20:09.832Z</time></trkpt><trkpt lat="40.58359" lon="15.1822717"><ele>232.0</ele><time>2026-05-02T12:20:10.831Z</time></trkpt><trkpt lat="40.58348" lon="15.18229"><ele>228.6</ele><time>2026-05-02T12:20:11.831Z</time></trkpt><trkpt lat="40.583375" lon="15.1823017"><ele>225.2</ele><time>2026-05-02T12:20:12.831Z</time></trkpt><trkpt lat="40.58328" lon="15.1822967"><ele>221.8</ele><time>2026-05-02T12:20:13.832Z</time></trkpt><trkpt lat="40.5831817" lon="15.18227"><ele>218.4</ele><time>2026-05-02T12:20:14.831Z</time></trkpt><trkpt lat="40.5830933" lon="15.1822333"><ele>215.0</ele><time>2026-05-02T12:20:15.832Z</time></trkpt><trkpt lat="40.5830067" lon="15.182175"><ele>215.00000000000003</ele><time>2026-05-02T12:20:16.832Z</time></trkpt><trkpt lat="40.582925" lon="15.1821117"><ele>215.0</ele><time>2026-05-02T12:20:17.831Z</time></trkpt><trkpt lat="40.5828467" lon="15.182055"><ele>215.0</ele><time>2026-05-02T12:20:18.831Z</time></trkpt><trkpt lat="40.5827783" lon="15.1819967"><ele>215.0</ele><time>2026-05-02T12:20:19.832Z</time></trkpt><trkpt lat="40.5827117" lon="15.1819333"><ele>215.00000000000003</ele><time>2026-05-02T12:20:20.832Z</time></trkpt><trkpt lat="40.5826517" lon="15.1818633"><ele>215.0</ele><time>2026-05-02T12:20:21.831Z</time></trkpt><trkpt lat="40.5825933" lon="15.1818"><ele>214.00000000000003</ele><time>2026-05-02T12:20:22.831Z</time></trkpt><trkpt lat="40.58254" lon="15.1817367"><ele>213.0</ele><time>2026-05-02T12:20:23.831Z</time></trkpt><trkpt lat="40.5824817" lon="15.181675"><ele>212.0</ele><time>2026-05-02T12:20:24.831Z</time></trkpt><trkpt lat="40.58243" lon="15.1816017"><ele>211.0</ele><time>2026-05-02T12:20:25.831Z</time></trkpt><trkpt lat="40.58238" lon="15.1815033"><ele>210.00000000000003</ele><time>2026-05-02T12:20:26.831Z</time></trkpt><trkpt lat="40.58232" lon="15.1813867"><ele>209.0</ele><time>2026-05-02T12:20:27.832Z</time></trkpt><trkpt lat="40.582245" lon="15.18127"><ele>209.0</ele><time>2026-05-02T12:20:28.831Z</time></trkpt><trkpt lat="40.5821617" lon="15.1811683"><ele>209.0</ele><time>2026-05-02T12:20:29.831Z</time></trkpt><trkpt lat="40.5820733" lon="15.181065"><ele>209.0</ele><time>2026-05-02T12:20:30.832Z</time></trkpt><trkpt lat="40.5819717" lon="15.1809583"><ele>209.0</ele><time>2026-05-02T12:20:31.832Z</time></trkpt><trkpt lat="40.5818817" lon="15.1808517"><ele>205.0</ele><time>2026-05-02T12:20:32.832Z</time></trkpt><trkpt lat="40.5818017" lon="15.1807483"><ele>201.0</ele><time>2026-05-02T12:20:33.831Z</time></trkpt><trkpt lat="40.581745" lon="15.1806533"><ele>197.0</ele><time>2026-05-02T12:20:34.831Z</time></trkpt><trkpt lat="40.5817033" lon="15.18055"><ele>193.0</ele><time>2026-05-02T12:20:35.832Z</time></trkpt><trkpt lat="40.5816683" lon="15.180405"><ele>189.0</ele><time>2026-05-02T12:20:36.831Z</time></trkpt><trkpt lat="40.5816417" lon="15.1802467"><ele>189.0</ele><time>2026-05-02T12:20:37.832Z</time></trkpt><trkpt lat="40.5816117" lon="15.1800917"><ele>189.0</ele><time>2026-05-02T12:20:38.832Z</time></trkpt><trkpt lat="40.5815783" lon="15.1799467"><ele>189.0</ele><time>2026-05-02T12:20:39.832Z</time></trkpt><trkpt lat="40.5815567" lon="15.1798083"><ele>189.0</ele><time>2026-05-02T12:20:40.832Z</time></trkpt><trkpt lat="40.5815317" lon="15.1796767"><ele>189.0</ele><time>2026-05-02T12:20:41.831Z</time></trkpt><trkpt lat="40.5815067" lon="15.17955"><ele>190.2</ele><time>2026-05-02T12:20:42.832Z</time></trkpt><trkpt lat="40.5814733" lon="15.1794367"><ele>191.39999999999998</ele><time>2026-05-02T12:20:43.832Z</time></trkpt><trkpt lat="40.5814183" lon="15.1793367"><ele>192.6</ele><time>2026-05-02T12:20:44.831Z</time></trkpt><trkpt lat="40.5813417" lon="15.1792633"><ele>193.8</ele><time>2026-05-02T12:20:45.831Z</time></trkpt><trkpt lat="40.5812617" lon="15.17921"><ele>195.0</ele><time>2026-05-02T12:20:46.832Z</time></trkpt><trkpt lat="40.581185" lon="15.1791483"><ele>192.0</ele><time>2026-05-02T12:20:47.831Z</time></trkpt><trkpt lat="40.5811117" lon="15.1790733"><ele>189.0</ele><time>2026-05-02T12:20:48.831Z</time></trkpt><trkpt lat="40.5810417" lon="15.178995"><ele>186.0</ele><time>2026-05-02T12:20:49.831Z</time></trkpt><trkpt lat="40.58097" lon="15.1789167"><ele>183.0</ele><time>2026-05-02T12:20:50.831Z</time></trkpt><trkpt lat="40.5809017" lon="15.178825"><ele>180.0</ele><time>2026-05-02T12:20:51.832Z</time></trkpt><trkpt lat="40.5808383" lon="15.1787167"><ele>179.5</ele><time>2026-05-02T12:20:52.832Z</time></trkpt><trkpt lat="40.5807817" lon="15.1786033"><ele>179.0</ele><time>2026-05-02T12:20:53.832Z</time></trkpt><trkpt lat="40.5807317" lon="15.17851"><ele>178.5</ele><time>2026-05-02T12:20:54.831Z</time></trkpt><trkpt lat="40.5806467" lon="15.1784233"><ele>178.0</ele><time>2026-05-02T12:20:56.831Z</time></trkpt><trkpt lat="40.5805833" lon="15.1784083"><ele>177.5</ele><time>2026-05-02T12:20:57.832Z</time></trkpt><trkpt lat="40.5805" lon="15.178405"><ele>177.0</ele><time>2026-05-02T12:20:58.831Z</time></trkpt><trkpt lat="40.58041" lon="15.17841"><ele>175.2</ele><time>2026-05-02T12:20:59.831Z</time></trkpt><trkpt lat="40.5803233" lon="15.1784117"><ele>173.39999999999998</ele><time>2026-05-02T12:21:00.831Z</time></trkpt><trkpt lat="40.5802367" lon="15.17841"><ele>171.60000000000002</ele><time>2026-05-02T12:21:01.831Z</time></trkpt><trkpt lat="40.5801483" lon="15.1784133"><ele>169.8</ele><time>2026-05-02T12:21:02.831Z</time></trkpt><trkpt lat="40.5800517" lon="15.1784133"><ele>168.0</ele><time>2026-05-02T12:21:03.831Z</time></trkpt><trkpt lat="40.5799533" lon="15.178415"><ele>168.0</ele><time>2026-05-02T12:21:04.832Z</time></trkpt><trkpt lat="40.57986" lon="15.178425"><ele>168.0</ele><time>2026-05-02T12:21:05.832Z</time></trkpt><trkpt lat="40.5797717" lon="15.178425"><ele>168.0</ele><time>2026-05-02T12:21:06.831Z</time></trkpt><trkpt lat="40.579695" lon="15.1784083"><ele>168.0</ele><time>2026-05-02T12:21:07.832Z</time></trkpt><trkpt lat="40.5796283" lon="15.17836"><ele>168.0</ele><time>2026-05-02T12:21:08.832Z</time></trkpt><trkpt lat="40.57956" lon="15.1782867"><ele>168.0</ele><time>2026-05-02T12:21:09.831Z</time></trkpt><trkpt lat="40.5794967" lon="15.1782067"><ele>167.0</ele><time>2026-05-02T12:21:10.832Z</time></trkpt><trkpt lat="40.5794367" lon="15.1781383"><ele>166.0</ele><time>2026-05-02T12:21:11.831Z</time></trkpt><trkpt lat="40.579355" lon="15.1780933"><ele>165.0</ele><time>2026-05-02T12:21:13.832Z</time></trkpt><trkpt lat="40.5792717" lon="15.1781533"><ele>164.0</ele><time>2026-05-02T12:21:15.831Z</time></trkpt><trkpt lat="40.57923" lon="15.1782283"><ele>163.0</ele><time>2026-05-02T12:21:16.832Z</time></trkpt><trkpt lat="40.5791917" lon="15.17832"><ele>162.0</ele><time>2026-05-02T12:21:17.832Z</time></trkpt><trkpt lat="40.57913" lon="15.1784167"><ele>162.0</ele><time>2026-05-02T12:21:19.832Z</time></trkpt><trkpt lat="40.5790433" lon="15.1783983"><ele>162.0</ele><time>2026-05-02T12:21:21.831Z</time></trkpt><trkpt lat="40.578975" lon="15.1783383"><ele>162.0</ele><time>2026-05-02T12:21:22.832Z</time></trkpt><trkpt lat="40.5788967" lon="15.178255"><ele>162.0</ele><time>2026-05-02T12:21:23.831Z</time></trkpt><trkpt lat="40.5788083" lon="15.1781667"><ele>162.0</ele><time>2026-05-02T12:21:24.831Z</time></trkpt><trkpt lat="40.5787217" lon="15.1780783"><ele>158.25</ele><time>2026-05-02T12:21:25.832Z</time></trkpt><trkpt lat="40.5786333" lon="15.1779917"><ele>154.5</ele><time>2026-05-02T12:21:26.831Z</time></trkpt><trkpt lat="40.5785383" lon="15.1779083"><ele>150.75</ele><time>2026-05-02T12:21:27.832Z</time></trkpt><trkpt lat="40.578445" lon="15.1778233"><ele>147.0</ele><time>2026-05-02T12:21:28.832Z</time></trkpt><trkpt lat="40.5783517" lon="15.1777317"><ele>147.0</ele><time>2026-05-02T12:21:29.832Z</time></trkpt><trkpt lat="40.5782583" lon="15.1776333"><ele>147.0</ele><time>2026-05-02T12:21:30.831Z</time></trkpt><trkpt lat="40.5781683" lon="15.1775333"><ele>147.0</ele><time>2026-05-02T12:21:31.832Z</time></trkpt><trkpt lat="40.578065" lon="15.1774433"><ele>147.0</ele><time>2026-05-02T12:21:32.831Z</time></trkpt><trkpt lat="40.5779667" lon="15.1773533"><ele>145.25</ele><time>2026-05-02T12:21:33.832Z</time></trkpt><trkpt lat="40.5778667" lon="15.1772633"><ele>143.5</ele><time>2026-05-02T12:21:34.832Z</time></trkpt><trkpt lat="40.5777683" lon="15.1771767"><ele>141.75</ele><time>2026-05-02T12:21:35.831Z</time></trkpt><trkpt lat="40.5776733" lon="15.1770917"><ele>140.0</ele><time>2026-05-02T12:21:36.832Z</time></trkpt><trkpt lat="40.5775933" lon="15.177005"><ele>138.5</ele><time>2026-05-02T12:21:37.831Z</time></trkpt><trkpt lat="40.5775167" lon="15.1769083"><ele>137.0</ele><time>2026-05-02T12:21:38.831Z</time></trkpt><trkpt lat="40.5774317" lon="15.1767983"><ele>135.5</ele><time>2026-05-02T12:21:39.832Z</time></trkpt><trkpt lat="40.5773333" lon="15.17668"><ele>134.0</ele><time>2026-05-02T12:21:40.832Z</time></trkpt><trkpt lat="40.5772233" lon="15.1765667"><ele>132.5</ele><time>2026-05-02T12:21:41.831Z</time></trkpt><trkpt lat="40.5771067" lon="15.1764467"><ele>131.0</ele><time>2026-05-02T12:21:42.832Z</time></trkpt><trkpt lat="40.5769917" lon="15.1763333"><ele>129.5</ele><time>2026-05-02T12:21:43.832Z</time></trkpt><trkpt lat="40.5768867" lon="15.1762217"><ele>128.0</ele><time>2026-05-02T12:21:44.832Z</time></trkpt><trkpt lat="40.576785" lon="15.17611"><ele>127.60000000000001</ele><time>2026-05-02T12:21:45.831Z</time></trkpt><trkpt lat="40.57669" lon="15.176005"><ele>127.20000000000002</ele><time>2026-05-02T12:21:46.831Z</time></trkpt><trkpt lat="40.5766017" lon="15.1759283"><ele>126.8</ele><time>2026-05-02T12:21:47.831Z</time></trkpt><trkpt lat="40.5765317" lon="15.1758783"><ele>126.4</ele><time>2026-05-02T12:21:48.832Z</time></trkpt><trkpt lat="40.576455" lon="15.175865"><ele>126.0</ele><time>2026-05-02T12:21:49.831Z</time></trkpt><trkpt lat="40.5763883" lon="15.1758867"><ele>126.0</ele><time>2026-05-02T12:21:50.832Z</time></trkpt><trkpt lat="40.5763383" lon="15.175965"><ele>126.0</ele><time>2026-05-02T12:21:51.831Z</time></trkpt><trkpt lat="40.5763033" lon="15.1760883"><ele>126.0</ele><time>2026-05-02T12:21:52.831Z</time></trkpt><trkpt lat="40.57627" lon="15.1762217"><ele>126.0</ele><time>2026-05-02T12:21:53.831Z</time></trkpt><trkpt lat="40.5762317" lon="15.1763283"><ele>126.0</ele><time>2026-05-02T12:21:54.831Z</time></trkpt><trkpt lat="40.5761983" lon="15.1764033"><ele>126.0</ele><time>2026-05-02T12:21:55.832Z</time></trkpt><trkpt lat="40.5761133" lon="15.1764583"><ele>125.0</ele><time>2026-05-02T12:21:59.832Z</time></trkpt><trkpt lat="40.576025" lon="15.176355"><ele>124.0</ele><time>2026-05-02T12:22:01.832Z</time></trkpt><trkpt lat="40.5759517" lon="15.1762533"><ele>123.0</ele><time>2026-05-02T12:22:02.831Z</time></trkpt><trkpt lat="40.5758567" lon="15.1761217"><ele>122.0</ele><time>2026-05-02T12:22:03.831Z</time></trkpt><trkpt lat="40.5757483" lon="15.175975"><ele>122.0</ele><time>2026-05-02T12:22:04.831Z</time></trkpt><trkpt lat="40.5756467" lon="15.1758067"><ele>122.0</ele><time>2026-05-02T12:22:05.831Z</time></trkpt><trkpt lat="40.5755333" lon="15.17561"><ele>122.0</ele><time>2026-05-02T12:22:06.832Z</time></trkpt><trkpt lat="40.5754117" lon="15.175405"><ele>120.33333333333333</ele><time>2026-05-02T12:22:07.832Z</time></trkpt><trkpt lat="40.575295" lon="15.1751933"><ele>118.66666666666666</ele><time>2026-05-02T12:22:08.832Z</time></trkpt><trkpt lat="40.57518" lon="15.174985"><ele>117.0</ele><time>2026-05-02T12:22:09.831Z</time></trkpt><trkpt lat="40.5750783" lon="15.1747683"><ele>117.0</ele><time>2026-05-02T12:22:10.831Z</time></trkpt><trkpt lat="40.5749833" lon="15.174565"><ele>117.0</ele><time>2026-05-02T12:22:11.831Z</time></trkpt><trkpt lat="40.5748933" lon="15.1743783"><ele>117.0</ele><time>2026-05-02T12:22:12.832Z</time></trkpt><trkpt lat="40.574805" lon="15.174205"><ele>117.0</ele><time>2026-05-02T12:22:13.832Z</time></trkpt><trkpt lat="40.5747033" lon="15.1740367"><ele>117.0</ele><time>2026-05-02T12:22:14.832Z</time></trkpt><trkpt lat="40.5746" lon="15.1738717"><ele>117.0</ele><time>2026-05-02T12:22:15.832Z</time></trkpt><trkpt lat="40.574495" lon="15.1737117"><ele>116.0</ele><time>2026-05-02T12:22:16.832Z</time></trkpt><trkpt lat="40.574385" lon="15.1735467"><ele>115.0</ele><time>2026-05-02T12:22:17.832Z</time></trkpt><trkpt lat="40.5742733" lon="15.1733833"><ele>114.0</ele><time>2026-05-02T12:22:18.832Z</time></trkpt><trkpt lat="40.5741567" lon="15.1732217"><ele>114.0</ele><time>2026-05-02T12:22:19.832Z</time></trkpt><trkpt lat="40.5740467" lon="15.1730583"><ele>114.0</ele><time>2026-05-02T12:22:20.832Z</time></trkpt><trkpt lat="40.573935" lon="15.1728967"><ele>114.0</ele><time>2026-05-02T12:22:21.831Z</time></trkpt><trkpt lat="40.57381" lon="15.1727483"><ele>112.0</ele><time>2026-05-02T12:22:22.832Z</time></trkpt><trkpt lat="40.5736667" lon="15.172595"><ele>110.0</ele><time>2026-05-02T12:22:23.832Z</time></trkpt><trkpt lat="40.5735317" lon="15.1724417"><ele>108.0</ele><time>2026-05-02T12:22:24.831Z</time></trkpt><trkpt lat="40.5734067" lon="15.172295"><ele>108.0</ele><time>2026-05-02T12:22:25.831Z</time></trkpt><trkpt lat="40.5732933" lon="15.1721367"><ele>108.0</ele><time>2026-05-02T12:22:26.832Z</time></trkpt><trkpt lat="40.5732083" lon="15.1719667"><ele>108.0</ele><time>2026-05-02T12:22:27.832Z</time></trkpt><trkpt lat="40.5731533" lon="15.1717917"><ele>108.0</ele><time>2026-05-02T12:22:28.832Z</time></trkpt><trkpt lat="40.57312" lon="15.1716"><ele>108.0</ele><time>2026-05-02T12:22:29.832Z</time></trkpt><trkpt lat="40.5730983" lon="15.171395"><ele>108.0</ele><time>2026-05-02T12:22:30.832Z</time></trkpt><trkpt lat="40.57309" lon="15.17118"><ele>106.75</ele><time>2026-05-02T12:22:31.831Z</time></trkpt><trkpt lat="40.573095" lon="15.1709783"><ele>105.5</ele><time>2026-05-02T12:22:32.832Z</time></trkpt><trkpt lat="40.5730983" lon="15.1707883"><ele>104.25</ele><time>2026-05-02T12:22:33.832Z</time></trkpt><trkpt lat="40.5730867" lon="15.1706167"><ele>103.0</ele><time>2026-05-02T12:22:34.831Z</time></trkpt><trkpt lat="40.5730417" lon="15.1704567"><ele>102.0</ele><time>2026-05-02T12:22:35.831Z</time></trkpt><trkpt lat="40.5729617" lon="15.1703033"><ele>101.0</ele><time>2026-05-02T12:22:36.832Z</time></trkpt><trkpt lat="40.572855" lon="15.1701467"><ele>100.0</ele><time>2026-05-02T12:22:37.832Z</time></trkpt><trkpt lat="40.5727467" lon="15.1700033"><ele>100.0</ele><time>2026-05-02T12:22:38.831Z</time></trkpt><trkpt lat="40.5726333" lon="15.169865"><ele>100.0</ele><time>2026-05-02T12:22:39.831Z</time></trkpt><trkpt lat="40.5725167" lon="15.1697367"><ele>100.0</ele><time>2026-05-02T12:22:40.831Z</time></trkpt><trkpt lat="40.5723883" lon="15.169605"><ele>100.0</ele><time>2026-05-02T12:22:41.831Z</time></trkpt><trkpt lat="40.572255" lon="15.1694633"><ele>100.0</ele><time>2026-05-02T12:22:42.831Z</time></trkpt><trkpt lat="40.57212" lon="15.1693217"><ele>100.0</ele><time>2026-05-02T12:22:43.831Z</time></trkpt><trkpt lat="40.571985" lon="15.1691883"><ele>100.0</ele><time>2026-05-02T12:22:44.831Z</time></trkpt><trkpt lat="40.5718417" lon="15.169065"><ele>100.0</ele><time>2026-05-02T12:22:45.832Z</time></trkpt><trkpt lat="40.5716733" lon="15.1689467"><ele>100.0</ele><time>2026-05-02T12:22:46.832Z</time></trkpt><trkpt lat="40.5715" lon="15.1688233"><ele>99.33333333333334</ele><time>2026-05-02T12:22:47.832Z</time></trkpt><trkpt lat="40.5713467" lon="15.1686983"><ele>98.66666666666666</ele><time>2026-05-02T12:22:48.831Z</time></trkpt><trkpt lat="40.57121" lon="15.1685683"><ele>98.0</ele><time>2026-05-02T12:22:49.832Z</time></trkpt><trkpt lat="40.5710717" lon="15.1684417"><ele>98.0</ele><time>2026-05-02T12:22:50.832Z</time></trkpt><trkpt lat="40.57095" lon="15.1683217"><ele>98.0</ele><time>2026-05-02T12:22:51.832Z</time></trkpt><trkpt lat="40.5708367" lon="15.1681967"><ele>98.0</ele><time>2026-05-02T12:22:52.831Z</time></trkpt><trkpt lat="40.5707317" lon="15.1680617"><ele>98.0</ele><time>2026-05-02T12:22:53.831Z</time></trkpt><trkpt lat="40.5706417" lon="15.1678983"><ele>97.33333333333333</ele><time>2026-05-02T12:22:54.831Z</time></trkpt><trkpt lat="40.5705617" lon="15.1677133"><ele>96.66666666666666</ele><time>2026-05-02T12:22:55.832Z</time></trkpt><trkpt lat="40.5704717" lon="15.1675117"><ele>96.0</ele><time>2026-05-02T12:22:56.831Z</time></trkpt><trkpt lat="40.5703867" lon="15.1673117"><ele>96.66666666666666</ele><time>2026-05-02T12:22:57.832Z</time></trkpt><trkpt lat="40.570285" lon="15.16711"><ele>97.33333333333333</ele><time>2026-05-02T12:22:58.831Z</time></trkpt><trkpt lat="40.5701833" lon="15.1669067"><ele>98.0</ele><time>2026-05-02T12:22:59.832Z</time></trkpt><trkpt lat="40.5700767" lon="15.1667033"><ele>95.33333333333333</ele><time>2026-05-02T12:23:00.832Z</time></trkpt><trkpt lat="40.5699817" lon="15.1665017"><ele>92.66666666666666</ele><time>2026-05-02T12:23:01.832Z</time></trkpt><trkpt lat="40.5698817" lon="15.166295"><ele>90.0</ele><time>2026-05-02T12:23:02.831Z</time></trkpt><trkpt lat="40.569785" lon="15.166095"><ele>90.0</ele><time>2026-05-02T12:23:03.831Z</time></trkpt><trkpt lat="40.5696967" lon="15.165905"><ele>90.0</ele><time>2026-05-02T12:23:04.831Z</time></trkpt><trkpt lat="40.5696033" lon="15.1657183"><ele>90.0</ele><time>2026-05-02T12:23:05.831Z</time></trkpt><trkpt lat="40.5695067" lon="15.16555"><ele>91.66666666666667</ele><time>2026-05-02T12:23:06.831Z</time></trkpt><trkpt lat="40.5694" lon="15.1653917"><ele>93.33333333333334</ele><time>2026-05-02T12:23:07.831Z</time></trkpt><trkpt lat="40.5692917" lon="15.1652317"><ele>95.0</ele><time>2026-05-02T12:23:08.831Z</time></trkpt><trkpt lat="40.5691733" lon="15.16507"><ele>95.0</ele><time>2026-05-02T12:23:09.832Z</time></trkpt><trkpt lat="40.56908" lon="15.16489"><ele>95.0</ele><time>2026-05-02T12:23:10.832Z</time></trkpt><trkpt lat="40.56901" lon="15.1646817"><ele>95.0</ele><time>2026-05-02T12:23:11.831Z</time></trkpt><trkpt lat="40.5689383" lon="15.16446"><ele>94.0</ele><time>2026-05-02T12:23:12.832Z</time></trkpt><trkpt lat="40.5688517" lon="15.1642417"><ele>93.0</ele><time>2026-05-02T12:23:13.831Z</time></trkpt><trkpt lat="40.56875" lon="15.1640367"><ele>92.0</ele><time>2026-05-02T12:23:14.832Z</time></trkpt><trkpt lat="40.56866" lon="15.1638417"><ele>92.0</ele><time>2026-05-02T12:23:15.831Z</time></trkpt><trkpt lat="40.5685783" lon="15.163645"><ele>92.0</ele><time>2026-05-02T12:23:16.831Z</time></trkpt><trkpt lat="40.56852" lon="15.163445"><ele>92.0</ele><time>2026-05-02T12:23:17.832Z</time></trkpt><trkpt lat="40.5684867" lon="15.1632367"><ele>92.33333333333334</ele><time>2026-05-02T12:23:18.831Z</time></trkpt><trkpt lat="40.5684733" lon="15.1630233"><ele>92.66666666666667</ele><time>2026-05-02T12:23:19.831Z</time></trkpt><trkpt lat="40.5684767" lon="15.1628017"><ele>93.0</ele><time>2026-05-02T12:23:20.832Z</time></trkpt><trkpt lat="40.5684833" lon="15.162575"><ele>92.66666666666667</ele><time>2026-05-02T12:23:21.831Z</time></trkpt><trkpt lat="40.5684683" lon="15.1623517"><ele>92.33333333333334</ele><time>2026-05-02T12:23:22.832Z</time></trkpt><trkpt lat="40.5684333" lon="15.162135"><ele>92.0</ele><time>2026-05-02T12:23:23.832Z</time></trkpt><trkpt lat="40.5683783" lon="15.1619417"><ele>92.0</ele><time>2026-05-02T12:23:24.832Z</time></trkpt><trkpt lat="40.568315" lon="15.1617617"><ele>92.0</ele><time>2026-05-02T12:23:25.832Z</time></trkpt><trkpt lat="40.568235" lon="15.1615917"><ele>92.0</ele><time>2026-05-02T12:23:26.832Z</time></trkpt><trkpt lat="40.5681367" lon="15.161415"><ele>91.66666666666667</ele><time>2026-05-02T12:23:27.832Z</time></trkpt><trkpt lat="40.56802" lon="15.1612367"><ele>91.33333333333333</ele><time>2026-05-02T12:23:28.832Z</time></trkpt><trkpt lat="40.5679083" lon="15.161075"><ele>91.0</ele><time>2026-05-02T12:23:29.831Z</time></trkpt><trkpt lat="40.5678133" lon="15.1609267"><ele>90.75</ele><time>2026-05-02T12:23:30.832Z</time></trkpt><trkpt lat="40.5677217" lon="15.1607767"><ele>90.5</ele><time>2026-05-02T12:23:31.832Z</time></trkpt><trkpt lat="40.5676367" lon="15.1606317"><ele>90.25</ele><time>2026-05-02T12:23:32.831Z</time></trkpt><trkpt lat="40.567555" lon="15.1604967"><ele>90.0</ele><time>2026-05-02T12:23:33.832Z</time></trkpt><trkpt lat="40.567475" lon="15.1603567"><ele>89.75</ele><time>2026-05-02T12:23:34.832Z</time></trkpt><trkpt lat="40.5674067" lon="15.1602217"><ele>89.5</ele><time>2026-05-02T12:23:35.831Z</time></trkpt><trkpt lat="40.5673433" lon="15.1600833"><ele>89.25</ele><time>2026-05-02T12:23:36.832Z</time></trkpt><trkpt lat="40.56728" lon="15.159935"><ele>89.0</ele><time>2026-05-02T12:23:37.832Z</time></trkpt><trkpt lat="40.56722" lon="15.159785"><ele>88.33333333333334</ele><time>2026-05-02T12:23:38.831Z</time></trkpt><trkpt lat="40.5671467" lon="15.1596333"><ele>87.66666666666667</ele><time>2026-05-02T12:23:39.832Z</time></trkpt><trkpt lat="40.5670717" lon="15.1594583"><ele>87.0</ele><time>2026-05-02T12:23:40.831Z</time></trkpt><trkpt lat="40.5669883" lon="15.1592683"><ele>86.66666666666667</ele><time>2026-05-02T12:23:41.831Z</time></trkpt><trkpt lat="40.5669083" lon="15.159065"><ele>86.33333333333334</ele><time>2026-05-02T12:23:42.831Z</time></trkpt><trkpt lat="40.56683" lon="15.1588483"><ele>86.0</ele><time>2026-05-02T12:23:43.831Z</time></trkpt><trkpt lat="40.56676" lon="15.1586183"><ele>85.66666666666667</ele><time>2026-05-02T12:23:44.831Z</time></trkpt><trkpt lat="40.56669" lon="15.1583783"><ele>85.33333333333333</ele><time>2026-05-02T12:23:45.832Z</time></trkpt><trkpt lat="40.56663" lon="15.1581333"><ele>85.0</ele><time>2026-05-02T12:23:46.832Z</time></trkpt><trkpt lat="40.5665767" lon="15.1578817"><ele>85.0</ele><time>2026-05-02T12:23:47.831Z</time></trkpt><trkpt lat="40.566535" lon="15.1576417"><ele>85.0</ele><time>2026-05-02T12:23:48.831Z</time></trkpt><trkpt lat="40.5665183" lon="15.157415"><ele>85.0</ele><time>2026-05-02T12:23:49.832Z</time></trkpt><trkpt lat="40.5665033" lon="15.1571967"><ele>85.0</ele><time>2026-05-02T12:23:50.832Z</time></trkpt><trkpt lat="40.5664667" lon="15.1569667"><ele>85.0</ele><time>2026-05-02T12:23:51.831Z</time></trkpt><trkpt lat="40.5664017" lon="15.156725"><ele>85.0</ele><time>2026-05-02T12:23:52.831Z</time></trkpt><trkpt lat="40.5663483" lon="15.1564867"><ele>84.33333333333333</ele><time>2026-05-02T12:23:53.832Z</time></trkpt><trkpt lat="40.5663083" lon="15.15625"><ele>83.66666666666667</ele><time>2026-05-02T12:23:54.831Z</time></trkpt><trkpt lat="40.56629" lon="15.15602"><ele>83.0</ele><time>2026-05-02T12:23:55.832Z</time></trkpt><trkpt lat="40.5662817" lon="15.155795"><ele>82.33333333333334</ele><time>2026-05-02T12:23:56.831Z</time></trkpt><trkpt lat="40.5662833" lon="15.1555783"><ele>81.66666666666667</ele><time>2026-05-02T12:23:57.831Z</time></trkpt><trkpt lat="40.5662667" lon="15.1553717"><ele>81.0</ele><time>2026-05-02T12:23:58.832Z</time></trkpt><trkpt lat="40.5662283" lon="15.15518"><ele>81.66666666666667</ele><time>2026-05-02T12:23:59.831Z</time></trkpt><trkpt lat="40.5661667" lon="15.1550133"><ele>82.33333333333334</ele><time>2026-05-02T12:24:00.832Z</time></trkpt><trkpt lat="40.56608" lon="15.1548433"><ele>83.0</ele><time>2026-05-02T12:24:01.832Z</time></trkpt><trkpt lat="40.5659683" lon="15.15468"><ele>83.0</ele><time>2026-05-02T12:24:02.832Z</time></trkpt><trkpt lat="40.565845" lon="15.1545217"><ele>83.0</ele><time>2026-05-02T12:24:03.832Z</time></trkpt><trkpt lat="40.5657317" lon="15.1543733"><ele>83.0</ele><time>2026-05-02T12:24:04.832Z</time></trkpt><trkpt lat="40.565625" lon="15.15423"><ele>83.0</ele><time>2026-05-02T12:24:05.831Z</time></trkpt><trkpt lat="40.5655233" lon="15.1540917"><ele>83.0</ele><time>2026-05-02T12:24:06.831Z</time></trkpt><trkpt lat="40.56544" lon="15.1539467"><ele>83.0</ele><time>2026-05-02T12:24:07.831Z</time></trkpt><trkpt lat="40.5653733" lon="15.153795"><ele>83.0</ele><time>2026-05-02T12:24:08.831Z</time></trkpt><trkpt lat="40.56531" lon="15.1536517"><ele>81.5</ele><time>2026-05-02T12:24:09.832Z</time></trkpt><trkpt lat="40.5652217" lon="15.1535117"><ele>80.0</ele><time>2026-05-02T12:24:10.831Z</time></trkpt><trkpt lat="40.5651217" lon="15.1533867"><ele>78.5</ele><time>2026-05-02T12:24:11.832Z</time></trkpt><trkpt lat="40.5650183" lon="15.1532667"><ele>77.0</ele><time>2026-05-02T12:24:12.832Z</time></trkpt><trkpt lat="40.564925" lon="15.153135"><ele>76.75</ele><time>2026-05-02T12:24:13.832Z</time></trkpt><trkpt lat="40.564845" lon="15.152985"><ele>76.5</ele><time>2026-05-02T12:24:14.831Z</time></trkpt><trkpt lat="40.5647917" lon="15.152825"><ele>76.25</ele><time>2026-05-02T12:24:15.831Z</time></trkpt><trkpt lat="40.5647533" lon="15.1526583"><ele>76.0</ele><time>2026-05-02T12:24:16.831Z</time></trkpt><trkpt lat="40.5647033" lon="15.1525167"><ele>76.0</ele><time>2026-05-02T12:24:17.832Z</time></trkpt><trkpt lat="40.564635" lon="15.1524083"><ele>76.0</ele><time>2026-05-02T12:24:18.832Z</time></trkpt><trkpt lat="40.5645517" lon="15.15234"><ele>76.0</ele><time>2026-05-02T12:24:19.831Z</time></trkpt><trkpt lat="40.5644583" lon="15.152295"><ele>76.0</ele><time>2026-05-02T12:24:20.831Z</time></trkpt><trkpt lat="40.5643683" lon="15.152225"><ele>76.0</ele><time>2026-05-02T12:24:21.832Z</time></trkpt><trkpt lat="40.5642917" lon="15.1521217"><ele>73.0</ele><time>2026-05-02T12:24:22.831Z</time></trkpt><trkpt lat="40.5642283" lon="15.1519883"><ele>70.0</ele><time>2026-05-02T12:24:23.832Z</time></trkpt><trkpt lat="40.5641733" lon="15.1518533"><ele>67.0</ele><time>2026-05-02T12:24:24.832Z</time></trkpt><trkpt lat="40.5641333" lon="15.15171"><ele>64.0</ele><time>2026-05-02T12:24:25.831Z</time></trkpt><trkpt lat="40.56412" lon="15.151535"><ele>62.5</ele><time>2026-05-02T12:24:26.831Z</time></trkpt><trkpt lat="40.5641233" lon="15.1513617"><ele>61.0</ele><time>2026-05-02T12:24:27.832Z</time></trkpt><trkpt lat="40.564145" lon="15.1512017"><ele>59.5</ele><time>2026-05-02T12:24:28.831Z</time></trkpt><trkpt lat="40.5641983" lon="15.15104"><ele>58.0</ele><time>2026-05-02T12:24:29.832Z</time></trkpt><trkpt lat="40.56426" lon="15.1508817"><ele>58.0</ele><time>2026-05-02T12:24:30.831Z</time></trkpt><trkpt lat="40.56434" lon="15.1507217"><ele>58.0</ele><time>2026-05-02T12:24:31.832Z</time></trkpt><trkpt lat="40.56442" lon="15.15057"><ele>58.0</ele><time>2026-05-02T12:24:32.832Z</time></trkpt><trkpt lat="40.5644967" lon="15.1504283"><ele>58.0</ele><time>2026-05-02T12:24:33.832Z</time></trkpt><trkpt lat="40.5645617" lon="15.1502833"><ele>57.75</ele><time>2026-05-02T12:24:34.832Z</time></trkpt><trkpt lat="40.5645933" lon="15.15012"><ele>57.5</ele><time>2026-05-02T12:24:35.832Z</time></trkpt><trkpt lat="40.5646117" lon="15.1499267"><ele>57.25</ele><time>2026-05-02T12:24:36.831Z</time></trkpt><trkpt lat="40.5646183" lon="15.1497033"><ele>57.0</ele><time>2026-05-02T12:24:37.832Z</time></trkpt><trkpt lat="40.56462" lon="15.149475"><ele>57.0</ele><time>2026-05-02T12:24:38.831Z</time></trkpt><trkpt lat="40.5646183" lon="15.14925"><ele>57.0</ele><time>2026-05-02T12:24:39.831Z</time></trkpt><trkpt lat="40.56462" lon="15.14904"><ele>57.0</ele><time>2026-05-02T12:24:40.831Z</time></trkpt><trkpt lat="40.5646317" lon="15.1488367"><ele>54.66666666666667</ele><time>2026-05-02T12:24:41.832Z</time></trkpt><trkpt lat="40.5646317" lon="15.1486367"><ele>52.333333333333336</ele><time>2026-05-02T12:24:42.832Z</time></trkpt><trkpt lat="40.564645" lon="15.148435"><ele>50.0</ele><time>2026-05-02T12:24:43.832Z</time></trkpt><trkpt lat="40.564655" lon="15.148245"><ele>48.0</ele><time>2026-05-02T12:24:44.832Z</time></trkpt><trkpt lat="40.5646533" lon="15.14805"><ele>46.0</ele><time>2026-05-02T12:24:45.832Z</time></trkpt><trkpt lat="40.564635" lon="15.1478367"><ele>44.0</ele><time>2026-05-02T12:24:46.831Z</time></trkpt><trkpt lat="40.5646083" lon="15.14764"><ele>44.0</ele><time>2026-05-02T12:24:47.831Z</time></trkpt><trkpt lat="40.5645783" lon="15.1474483"><ele>44.0</ele><time>2026-05-02T12:24:48.832Z</time></trkpt><trkpt lat="40.56457" lon="15.147275"><ele>44.0</ele><time>2026-05-02T12:24:49.831Z</time></trkpt><trkpt lat="40.5645767" lon="15.1471117"><ele>44.0</ele><time>2026-05-02T12:24:50.831Z</time></trkpt><trkpt lat="40.56459" lon="15.14696"><ele>44.5</ele><time>2026-05-02T12:24:51.832Z</time></trkpt><trkpt lat="40.5646017" lon="15.1468217"><ele>45.0</ele><time>2026-05-02T12:24:52.832Z</time></trkpt><trkpt lat="40.5646133" lon="15.1466817"><ele>45.5</ele><time>2026-05-02T12:24:53.832Z</time></trkpt><trkpt lat="40.5646233" lon="15.146535"><ele>46.0</ele><time>2026-05-02T12:24:54.832Z</time></trkpt><trkpt lat="40.5646183" lon="15.14637"><ele>44.66666666666667</ele><time>2026-05-02T12:24:55.832Z</time></trkpt><trkpt lat="40.5646" lon="15.1461817"><ele>43.333333333333336</ele><time>2026-05-02T12:24:56.832Z</time></trkpt><trkpt lat="40.56455" lon="15.14598"><ele>42.0</ele><time>2026-05-02T12:24:57.831Z</time></trkpt><trkpt lat="40.5644767" lon="15.1457617"><ele>41.666666666666664</ele><time>2026-05-02T12:24:58.831Z</time></trkpt><trkpt lat="40.5643883" lon="15.1455283"><ele>41.33333333333333</ele><time>2026-05-02T12:24:59.831Z</time></trkpt><trkpt lat="40.5642983" lon="15.1452933"><ele>41.0</ele><time>2026-05-02T12:25:00.832Z</time></trkpt><trkpt lat="40.5642117" lon="15.145075"><ele>43.33333333333333</ele><time>2026-05-02T12:25:01.831Z</time></trkpt><trkpt lat="40.5641333" lon="15.1448733"><ele>45.666666666666664</ele><time>2026-05-02T12:25:02.832Z</time></trkpt><trkpt lat="40.5640533" lon="15.1446933"><ele>48.0</ele><time>2026-05-02T12:25:03.832Z</time></trkpt><trkpt lat="40.5639733" lon="15.144535"><ele>48.0</ele><time>2026-05-02T12:25:04.832Z</time></trkpt><trkpt lat="40.5638933" lon="15.144395"><ele>48.0</ele><time>2026-05-02T12:25:05.832Z</time></trkpt><trkpt lat="40.5638217" lon="15.14427"><ele>48.0</ele><time>2026-05-02T12:25:06.831Z</time></trkpt><trkpt lat="40.563765" lon="15.1441433"><ele>48.0</ele><time>2026-05-02T12:25:07.831Z</time></trkpt><trkpt lat="40.5637133" lon="15.1440183"><ele>46.0</ele><time>2026-05-02T12:25:08.832Z</time></trkpt><trkpt lat="40.5636683" lon="15.1438917"><ele>44.0</ele><time>2026-05-02T12:25:09.831Z</time></trkpt><trkpt lat="40.5636333" lon="15.1437567"><ele>42.0</ele><time>2026-05-02T12:25:10.831Z</time></trkpt><trkpt lat="40.563615" lon="15.1436183"><ele>40.0</ele><time>2026-05-02T12:25:11.832Z</time></trkpt><trkpt lat="40.563605" lon="15.1434783"><ele>38.0</ele><time>2026-05-02T12:25:12.831Z</time></trkpt><trkpt lat="40.5635933" lon="15.1433433"><ele>37.8</ele><time>2026-05-02T12:25:13.832Z</time></trkpt><trkpt lat="40.56358" lon="15.1432033"><ele>37.599999999999994</ele><time>2026-05-02T12:25:14.832Z</time></trkpt><trkpt lat="40.5635733" lon="15.1430633"><ele>37.400000000000006</ele><time>2026-05-02T12:25:15.832Z</time></trkpt><trkpt lat="40.5635733" lon="15.1429183"><ele>37.2</ele><time>2026-05-02T12:25:16.831Z</time></trkpt><trkpt lat="40.5635783" lon="15.142775"><ele>37.0</ele><time>2026-05-02T12:25:17.832Z</time></trkpt><trkpt lat="40.563585" lon="15.14263"><ele>37.0</ele><time>2026-05-02T12:25:18.831Z</time></trkpt><trkpt lat="40.5635983" lon="15.1424817"><ele>37.0</ele><time>2026-05-02T12:25:19.831Z</time></trkpt><trkpt lat="40.5636117" lon="15.142335"><ele>37.0</ele><time>2026-05-02T12:25:20.832Z</time></trkpt><trkpt lat="40.5636233" lon="15.1421867"><ele>37.0</ele><time>2026-05-02T12:25:21.832Z</time></trkpt><trkpt lat="40.5636433" lon="15.1420383"><ele>36.5</ele><time>2026-05-02T12:25:22.831Z</time></trkpt><trkpt lat="40.5636683" lon="15.1418833"><ele>36.0</ele><time>2026-05-02T12:25:23.831Z</time></trkpt><trkpt lat="40.5636933" lon="15.14173"><ele>35.5</ele><time>2026-05-02T12:25:24.831Z</time></trkpt><trkpt lat="40.563705" lon="15.1415767"><ele>35.0</ele><time>2026-05-02T12:25:25.832Z</time></trkpt><trkpt lat="40.5637133" lon="15.14143"><ele>35.4</ele><time>2026-05-02T12:25:26.832Z</time></trkpt><trkpt lat="40.5637217" lon="15.1412917"><ele>35.8</ele><time>2026-05-02T12:25:27.832Z</time></trkpt><trkpt lat="40.5637283" lon="15.1411667"><ele>36.2</ele><time>2026-05-02T12:25:28.831Z</time></trkpt><trkpt lat="40.5637183" lon="15.141045"><ele>36.6</ele><time>2026-05-02T12:25:29.831Z</time></trkpt><trkpt lat="40.5637017" lon="15.1409333"><ele>37.0</ele><time>2026-05-02T12:25:30.832Z</time></trkpt><trkpt lat="40.5636783" lon="15.14083"><ele>37.0</ele><time>2026-05-02T12:25:31.832Z</time></trkpt><trkpt lat="40.56364" lon="15.1407267"><ele>37.0</ele><time>2026-05-02T12:25:32.831Z</time></trkpt><trkpt lat="40.5636" lon="15.1406367"><ele>37.0</ele><time>2026-05-02T12:25:33.832Z</time></trkpt><trkpt lat="40.563555" lon="15.14056"><ele>37.0</ele><time>2026-05-02T12:25:34.832Z</time></trkpt><trkpt lat="40.56351" lon="15.1404917"><ele>37.0</ele><time>2026-05-02T12:25:35.83Z</time></trkpt><trkpt lat="40.5634667" lon="15.140425"><ele>37.0</ele><time>2026-05-02T12:25:36.831Z</time></trkpt><trkpt lat="40.5634217" lon="15.1403567"><ele>37.0</ele><time>2026-05-02T12:25:37.83Z</time></trkpt><trkpt lat="40.5633533" lon="15.140225"><ele>37.8</ele><time>2026-05-02T12:25:39.831Z</time></trkpt><trkpt lat="40.5632867" lon="15.1401233"><ele>38.6</ele><time>2026-05-02T12:25:41.83Z</time></trkpt><trkpt lat="40.56321" lon="15.1400667"><ele>39.4</ele><time>2026-05-02T12:25:49.83Z</time></trkpt><trkpt lat="40.56318" lon="15.14014"><ele>40.199999999999996</ele><time>2026-05-02T12:25:51.831Z</time></trkpt><trkpt lat="40.5631567" lon="15.14033"><ele>41.0</ele><time>2026-05-02T12:25:53.83Z</time></trkpt><trkpt lat="40.563155" lon="15.1404767"><ele>41.0</ele><time>2026-05-02T12:25:54.831Z</time></trkpt><trkpt lat="40.5631617" lon="15.140615"><ele>41.0</ele><time>2026-05-02T12:25:55.83Z</time></trkpt><trkpt lat="40.5631667" lon="15.1407467"><ele>41.0</ele><time>2026-05-02T12:25:56.831Z</time></trkpt><trkpt lat="40.563165" lon="15.1408533"><ele>41.0</ele><time>2026-05-02T12:25:57.831Z</time></trkpt><trkpt lat="40.5631533" lon="15.140965"><ele>41.0</ele><time>2026-05-02T12:25:58.83Z</time></trkpt><trkpt lat="40.56313" lon="15.141085"><ele>40.199999999999996</ele><time>2026-05-02T12:25:59.831Z</time></trkpt><trkpt lat="40.56311" lon="15.14121"><ele>39.4</ele><time>2026-05-02T12:26:00.83Z</time></trkpt><trkpt lat="40.563085" lon="15.141325"><ele>38.6</ele><time>2026-05-02T12:26:01.83Z</time></trkpt><trkpt lat="40.5630567" lon="15.1414483"><ele>37.8</ele><time>2026-05-02T12:26:02.83Z</time></trkpt><trkpt lat="40.56303" lon="15.1415617"><ele>37.0</ele><time>2026-05-02T12:26:03.831Z</time></trkpt><trkpt lat="40.563005" lon="15.1416817"><ele>36.6</ele><time>2026-05-02T12:26:04.831Z</time></trkpt><trkpt lat="40.5629917" lon="15.1418067"><ele>36.2</ele><time>2026-05-02T12:26:05.83Z</time></trkpt><trkpt lat="40.5629683" lon="15.141925"><ele>35.8</ele><time>2026-05-02T12:26:06.831Z</time></trkpt><trkpt lat="40.562935" lon="15.1420317"><ele>35.4</ele><time>2026-05-02T12:26:07.83Z</time></trkpt><trkpt lat="40.56289" lon="15.142135"><ele>35.0</ele><time>2026-05-02T12:26:08.83Z</time></trkpt><trkpt lat="40.5628383" lon="15.1422433"><ele>35.0</ele><time>2026-05-02T12:26:09.831Z</time></trkpt><trkpt lat="40.5627917" lon="15.1423533"><ele>35.0</ele><time>2026-05-02T12:26:10.83Z</time></trkpt><trkpt lat="40.5627483" lon="15.1424517"><ele>35.0</ele><time>2026-05-02T12:26:11.83Z</time></trkpt><trkpt lat="40.5627" lon="15.14255"><ele>35.0</ele><time>2026-05-02T12:26:12.831Z</time></trkpt><trkpt lat="40.56266" lon="15.1426517"><ele>35.0</ele><time>2026-05-02T12:26:13.83Z</time></trkpt><trkpt lat="40.5626183" lon="15.1427583"><ele>35.0</ele><time>2026-05-02T12:26:14.83Z</time></trkpt><trkpt lat="40.5625817" lon="15.14287"><ele>34.83333333333333</ele><time>2026-05-02T12:26:15.83Z</time></trkpt><trkpt lat="40.5625467" lon="15.142985"><ele>34.666666666666664</ele><time>2026-05-02T12:26:16.831Z</time></trkpt><trkpt lat="40.562515" lon="15.143095"><ele>34.5</ele><time>2026-05-02T12:26:17.83Z</time></trkpt><trkpt lat="40.5624817" lon="15.143205"><ele>34.333333333333336</ele><time>2026-05-02T12:26:18.831Z</time></trkpt><trkpt lat="40.56245" lon="15.1433117"><ele>34.16666666666667</ele><time>2026-05-02T12:26:19.831Z</time></trkpt><trkpt lat="40.5624183" lon="15.143415"><ele>34.0</ele><time>2026-05-02T12:26:20.831Z</time></trkpt><trkpt lat="40.5623933" lon="15.143515"><ele>34.333333333333336</ele><time>2026-05-02T12:26:21.83Z</time></trkpt><trkpt lat="40.5623717" lon="15.1436117"><ele>34.66666666666667</ele><time>2026-05-02T12:26:22.83Z</time></trkpt><trkpt lat="40.56235" lon="15.14371"><ele>35.0</ele><time>2026-05-02T12:26:23.83Z</time></trkpt><trkpt lat="40.5623367" lon="15.1438067"><ele>35.333333333333336</ele><time>2026-05-02T12:26:24.831Z</time></trkpt><trkpt lat="40.5623283" lon="15.1439083"><ele>35.666666666666664</ele><time>2026-05-02T12:26:25.83Z</time></trkpt><trkpt lat="40.5623133" lon="15.144005"><ele>36.0</ele><time>2026-05-02T12:26:26.83Z</time></trkpt><trkpt lat="40.5623033" lon="15.1441017"><ele>36.166666666666664</ele><time>2026-05-02T12:26:27.83Z</time></trkpt><trkpt lat="40.5622883" lon="15.1441967"><ele>36.333333333333336</ele><time>2026-05-02T12:26:28.831Z</time></trkpt><trkpt lat="40.56228" lon="15.1442867"><ele>36.5</ele><time>2026-05-02T12:26:29.83Z</time></trkpt><trkpt lat="40.5622733" lon="15.1443817"><ele>36.66666666666667</ele><time>2026-05-02T12:26:30.83Z</time></trkpt><trkpt lat="40.5622717" lon="15.1444667"><ele>36.833333333333336</ele><time>2026-05-02T12:26:31.831Z</time></trkpt><trkpt lat="40.56226" lon="15.14459"><ele>37.0</ele><time>2026-05-02T12:26:33.83Z</time></trkpt><trkpt lat="40.562235" lon="15.1446967"><ele>37.0</ele><time>2026-05-02T12:28:19.83Z</time></trkpt><trkpt lat="40.5622467" lon="15.14478"><ele>37.0</ele><time>2026-05-02T12:28:21.83Z</time></trkpt><trkpt lat="40.5622833" lon="15.14486"><ele>37.0</ele><time>2026-05-02T12:28:23.83Z</time></trkpt><trkpt lat="40.5623217" lon="15.1449317"><ele>37.0</ele><time>2026-05-02T12:28:25.83Z</time></trkpt><trkpt lat="40.5623067" lon="15.1450867"><ele>37.0</ele><time>2026-05-02T12:28:33.83Z</time></trkpt><trkpt lat="40.5622517" lon="15.1451783"><ele>37.0</ele><time>2026-05-02T12:28:35.831Z</time></trkpt><trkpt lat="40.5621683" lon="15.1452333"><ele>37.0</ele><time>2026-05-02T12:28:37.831Z</time></trkpt><trkpt lat="40.5620983" lon="15.14528"><ele>37.0</ele><time>2026-05-02T12:28:39.831Z</time></trkpt><trkpt lat="40.56204" lon="15.1453317"><ele>37.0</ele><time>2026-05-02T12:28:41.831Z</time></trkpt><trkpt lat="40.562" lon="15.1454067"><ele>37.0</ele><time>2026-05-02T12:28:43.83Z</time></trkpt><trkpt lat="40.56197" lon="15.14549"><ele>37.0</ele><time>2026-05-02T12:28:45.83Z</time></trkpt><trkpt lat="40.5619333" lon="15.1455683"><ele>37.0</ele><time>2026-05-02T12:28:47.831Z</time></trkpt><trkpt lat="40.5619733" lon="15.1455"><ele>37.0</ele><time>2026-05-02T12:29:39.831Z</time></trkpt><trkpt lat="40.5620283" lon="15.1453767"><ele>37.0</ele><time>2026-05-02T12:29:41.831Z</time></trkpt><trkpt lat="40.5621233" lon="15.1452783"><ele>37.0</ele><time>2026-05-02T12:29:43.83Z</time></trkpt><trkpt lat="40.56223" lon="15.1451933"><ele>37.0</ele><time>2026-05-02T12:29:45.831Z</time></trkpt><trkpt lat="40.5623167" lon="15.145105"><ele>37.0</ele><time>2026-05-02T12:29:47.83Z</time></trkpt><trkpt lat="40.562345" lon="15.1450217"><ele>37.0</ele><time>2026-05-02T12:29:49.831Z</time></trkpt><trkpt lat="40.5623417" lon="15.1449217"><ele>37.0</ele><time>2026-05-02T12:29:51.83Z</time></trkpt><trkpt lat="40.5622817" lon="15.1448267"><ele>37.0</ele><time>2026-05-02T12:29:53.831Z</time></trkpt><trkpt lat="40.5622283" lon="15.1447083"><ele>37.0</ele><time>2026-05-02T12:29:55.831Z</time></trkpt><trkpt lat="40.5621833" lon="15.1446467"><ele>37.0</ele><time>2026-05-02T12:29:57.831Z</time></trkpt><trkpt lat="40.5621117" lon="15.1446433"><ele>37.0</ele><time>2026-05-02T12:29:59.83Z</time></trkpt><trkpt lat="40.562025" lon="15.1446317"><ele>37.0</ele><time>2026-05-02T12:30:01.83Z</time></trkpt><trkpt lat="40.5619433" lon="15.1446033"><ele>36.66666666666667</ele><time>2026-05-02T12:30:03.831Z</time></trkpt><trkpt lat="40.5618683" lon="15.1445867"><ele>36.333333333333336</ele><time>2026-05-02T12:30:05.831Z</time></trkpt><trkpt lat="40.5617983" lon="15.1445667"><ele>36.0</ele><time>2026-05-02T12:30:07.83Z</time></trkpt><trkpt lat="40.5617317" lon="15.1445583"><ele>35.666666666666664</ele><time>2026-05-02T12:30:09.83Z</time></trkpt><trkpt lat="40.561635" lon="15.14454"><ele>35.33333333333333</ele><time>2026-05-02T12:30:12.831Z</time></trkpt><trkpt lat="40.5615433" lon="15.1445333"><ele>35.0</ele><time>2026-05-02T12:30:14.831Z</time></trkpt><trkpt lat="40.5614367" lon="15.1445417"><ele>35.0</ele><time>2026-05-02T12:30:16.83Z</time></trkpt><trkpt lat="40.56133" lon="15.14454"><ele>35.0</ele><time>2026-05-02T12:30:18.831Z</time></trkpt><trkpt lat="40.5612367" lon="15.1445383"><ele>35.0</ele><time>2026-05-02T12:30:20.831Z</time></trkpt><trkpt lat="40.5611517" lon="15.1445317"><ele>35.0</ele><time>2026-05-02T12:30:22.83Z</time></trkpt><trkpt lat="40.561055" lon="15.144515"><ele>35.0</ele><time>2026-05-02T12:30:24.83Z</time></trkpt><trkpt lat="40.5609483" lon="15.1444833"><ele>34.8</ele><time>2026-05-02T12:30:26.831Z</time></trkpt><trkpt lat="40.5608433" lon="15.144455"><ele>34.6</ele><time>2026-05-02T12:30:28.83Z</time></trkpt><trkpt lat="40.5607483" lon="15.144425"><ele>34.4</ele><time>2026-05-02T12:30:30.831Z</time></trkpt><trkpt lat="40.5606433" lon="15.1443933"><ele>34.2</ele><time>2026-05-02T12:30:32.831Z</time></trkpt><trkpt lat="40.56055" lon="15.1443567"><ele>34.0</ele><time>2026-05-02T12:30:34.831Z</time></trkpt><trkpt lat="40.5604533" lon="15.1443333"><ele>34.0</ele><time>2026-05-02T12:30:36.83Z</time></trkpt><trkpt lat="40.5603417" lon="15.1442983"><ele>34.0</ele><time>2026-05-02T12:30:38.831Z</time></trkpt><trkpt lat="40.5602383" lon="15.1442667"><ele>34.0</ele><time>2026-05-02T12:30:40.831Z</time></trkpt><trkpt lat="40.5601383" lon="15.1442417"><ele>34.0</ele><time>2026-05-02T12:30:42.831Z</time></trkpt><trkpt lat="40.5600333" lon="15.14422"><ele>34.0</ele><time>2026-05-02T12:30:44.831Z</time></trkpt><trkpt lat="40.5599267" lon="15.1441933"><ele>34.0</ele><time>2026-05-02T12:30:46.83Z</time></trkpt><trkpt lat="40.5598217" lon="15.1441817"><ele>34.0</ele><time>2026-05-02T12:30:48.831Z</time></trkpt><trkpt lat="40.559705" lon="15.1441783"><ele>34.0</ele><time>2026-05-02T12:30:50.831Z</time></trkpt><trkpt lat="40.5596417" lon="15.14418"><ele>34.0</ele><time>2026-05-02T12:30:51.83Z</time></trkpt><trkpt lat="40.5595183" lon="15.1441733"><ele>34.0</ele><time>2026-05-02T12:30:53.83Z</time></trkpt><trkpt lat="40.5593933" lon="15.1441367"><ele>33.857142857142854</ele><time>2026-05-02T12:30:55.831Z</time></trkpt><trkpt lat="40.559325" lon="15.1441233"><ele>33.714285714285715</ele><time>2026-05-02T12:30:56.831Z</time></trkpt><trkpt lat="40.55926" lon="15.144115"><ele>33.57142857142857</ele><time>2026-05-02T12:30:57.83Z</time></trkpt><trkpt lat="40.5591967" lon="15.1441083"><ele>33.42857142857143</ele><time>2026-05-02T12:30:58.831Z</time></trkpt><trkpt lat="40.5591267" lon="15.1441"><ele>33.285714285714285</ele><time>2026-05-02T12:30:59.831Z</time></trkpt><trkpt lat="40.55905" lon="15.14409"><ele>33.14285714285714</ele><time>2026-05-02T12:31:00.83Z</time></trkpt><trkpt lat="40.5589667" lon="15.1440883"><ele>33.0</ele><time>2026-05-02T12:31:01.831Z</time></trkpt><trkpt lat="40.5588883" lon="15.144095"><ele>33.0</ele><time>2026-05-02T12:31:02.83Z</time></trkpt><trkpt lat="40.558825" lon="15.1441067"><ele>33.0</ele><time>2026-05-02T12:31:03.831Z</time></trkpt><trkpt lat="40.5587033" lon="15.14416"><ele>33.0</ele><time>2026-05-02T12:31:05.83Z</time></trkpt><trkpt lat="40.5586467" lon="15.1442033"><ele>33.0</ele><time>2026-05-02T12:31:06.83Z</time></trkpt><trkpt lat="40.5585783" lon="15.144235"><ele>33.0</ele><time>2026-05-02T12:31:07.831Z</time></trkpt><trkpt lat="40.5585167" lon="15.1442617"><ele>33.0</ele><time>2026-05-02T12:31:08.831Z</time></trkpt><trkpt lat="40.5584233" lon="15.1442867"><ele>33.333333333333336</ele><time>2026-05-02T12:31:10.83Z</time></trkpt><trkpt lat="40.5583567" lon="15.144275"><ele>33.666666666666664</ele><time>2026-05-02T12:31:13.829Z</time></trkpt><trkpt lat="40.5582733" lon="15.144235"><ele>34.0</ele><time>2026-05-02T12:31:17.83Z</time></trkpt><trkpt lat="40.5582067" lon="15.1442133"><ele>34.33333333333333</ele><time>2026-05-02T12:31:20.829Z</time></trkpt><trkpt lat="40.5581267" lon="15.144175"><ele>34.666666666666664</ele><time>2026-05-02T12:31:24.829Z</time></trkpt><trkpt lat="40.5580333" lon="15.1441333"><ele>35.0</ele><time>2026-05-02T12:31:34.829Z</time></trkpt><trkpt lat="40.5579433" lon="15.14405"><ele>35.166666666666664</ele><time>2026-05-02T12:31:36.829Z</time></trkpt><trkpt lat="40.5578633" lon="15.14396"><ele>35.33333333333333</ele><time>2026-05-02T12:31:38.829Z</time></trkpt><trkpt lat="40.5577933" lon="15.1438983"><ele>35.5</ele><time>2026-05-02T12:31:40.83Z</time></trkpt><trkpt lat="40.5577267" lon="15.143845"><ele>35.666666666666664</ele><time>2026-05-02T12:31:42.829Z</time></trkpt><trkpt lat="40.5576733" lon="15.1438"><ele>35.833333333333336</ele><time>2026-05-02T12:31:44.83Z</time></trkpt><trkpt lat="40.5576033" lon="15.1437483"><ele>36.0</ele><time>2026-05-02T12:31:47.83Z</time></trkpt><trkpt lat="40.557555" lon="15.1436883"><ele>36.0</ele><time>2026-05-02T12:31:49.83Z</time></trkpt><trkpt lat="40.5575" lon="15.1436183"><ele>36.0</ele><time>2026-05-02T12:31:51.83Z</time></trkpt><trkpt lat="40.5574333" lon="15.14354"><ele>36.0</ele><time>2026-05-02T12:31:53.83Z</time></trkpt><trkpt lat="40.557365" lon="15.1434633"><ele>36.0</ele><time>2026-05-02T12:31:55.83Z</time></trkpt><trkpt lat="40.5573217" lon="15.1433883"><ele>36.0</ele><time>2026-05-02T12:31:57.829Z</time></trkpt><trkpt lat="40.5572883" lon="15.143305"><ele>36.0</ele><time>2026-05-02T12:31:59.83Z</time></trkpt><trkpt lat="40.5572383" lon="15.1431983"><ele>35.8</ele><time>2026-05-02T12:32:01.83Z</time></trkpt><trkpt lat="40.557175" lon="15.14309"><ele>35.6</ele><time>2026-05-02T12:32:03.829Z</time></trkpt><trkpt lat="40.5571067" lon="15.1429967"><ele>35.4</ele><time>2026-05-02T12:32:05.83Z</time></trkpt><trkpt lat="40.5570367" lon="15.1429183"><ele>35.2</ele><time>2026-05-02T12:32:07.83Z</time></trkpt><trkpt lat="40.5569783" lon="15.1428667"><ele>35.0</ele><time>2026-05-02T12:32:09.83Z</time></trkpt><trkpt lat="40.5568917" lon="15.1428283"><ele>35.0</ele><time>2026-05-02T12:32:12.829Z</time></trkpt><trkpt lat="40.556825" lon="15.14279"><ele>35.0</ele><time>2026-05-02T12:32:14.83Z</time></trkpt><trkpt lat="40.5567583" lon="15.1427733"><ele>35.0</ele><time>2026-05-02T12:32:17.83Z</time></trkpt><trkpt lat="40.5568217" lon="15.1427833"><ele>35.0</ele><time>2026-05-02T12:33:05.83Z</time></trkpt><trkpt lat="40.556895" lon="15.142805"><ele>35.0</ele><time>2026-05-02T12:33:07.829Z</time></trkpt><trkpt lat="40.5569567" lon="15.142845"><ele>35.0</ele><time>2026-05-02T12:33:09.83Z</time></trkpt><trkpt lat="40.5570317" lon="15.1429117"><ele>35.0</ele><time>2026-05-02T12:33:11.829Z</time></trkpt><trkpt lat="40.55709" lon="15.1429867"><ele>35.2</ele><time>2026-05-02T12:33:13.829Z</time></trkpt><trkpt lat="40.5571483" lon="15.1430817"><ele>35.4</ele><time>2026-05-02T12:33:15.829Z</time></trkpt><trkpt lat="40.55722" lon="15.1432"><ele>35.6</ele><time>2026-05-02T12:33:17.829Z</time></trkpt><trkpt lat="40.5572833" lon="15.14332"><ele>35.8</ele><time>2026-05-02T12:33:19.829Z</time></trkpt><trkpt lat="40.55734" lon="15.1434417"><ele>36.0</ele><time>2026-05-02T12:33:21.829Z</time></trkpt><trkpt lat="40.55742" lon="15.1435483"><ele>36.0</ele><time>2026-05-02T12:33:23.83Z</time></trkpt><trkpt lat="40.5575067" lon="15.1436333"><ele>36.0</ele><time>2026-05-02T12:33:25.83Z</time></trkpt><trkpt lat="40.55759" lon="15.1437217"><ele>36.0</ele><time>2026-05-02T12:33:27.83Z</time></trkpt><trkpt lat="40.5576733" lon="15.1437967"><ele>36.0</ele><time>2026-05-02T12:33:29.83Z</time></trkpt><trkpt lat="40.5577617" lon="15.14386"><ele>36.0</ele><time>2026-05-02T12:33:31.829Z</time></trkpt><trkpt lat="40.5578367" lon="15.1439283"><ele>35.833333333333336</ele><time>2026-05-02T12:33:33.829Z</time></trkpt><trkpt lat="40.5579217" lon="15.1440183"><ele>35.666666666666664</ele><time>2026-05-02T12:33:35.83Z</time></trkpt><trkpt lat="40.5579717" lon="15.1440717"><ele>35.5</ele><time>2026-05-02T12:33:36.829Z</time></trkpt><trkpt lat="40.5580583" lon="15.1441467"><ele>35.33333333333333</ele><time>2026-05-02T12:33:38.829Z</time></trkpt><trkpt lat="40.5581367" lon="15.144175"><ele>35.166666666666664</ele><time>2026-05-02T12:33:40.829Z</time></trkpt><trkpt lat="40.5582167" lon="15.1442"><ele>35.0</ele><time>2026-05-02T12:33:42.83Z</time></trkpt><trkpt lat="40.5582833" lon="15.14423"><ele>35.0</ele><time>2026-05-02T12:33:44.829Z</time></trkpt><trkpt lat="40.5583617" lon="15.1442717"><ele>35.0</ele><time>2026-05-02T12:33:47.83Z</time></trkpt><trkpt lat="40.5584283" lon="15.1442883"><ele>35.0</ele><time>2026-05-02T12:33:57.829Z</time></trkpt><trkpt lat="40.5585183" lon="15.144265"><ele>35.0</ele><time>2026-05-02T12:33:59.83Z</time></trkpt><trkpt lat="40.5586067" lon="15.1442233"><ele>35.0</ele><time>2026-05-02T12:34:01.829Z</time></trkpt><trkpt lat="40.5587067" lon="15.1441683"><ele>35.0</ele><time>2026-05-02T12:34:03.829Z</time></trkpt><trkpt lat="40.55881" lon="15.14412"><ele>34.6</ele><time>2026-05-02T12:34:05.829Z</time></trkpt><trkpt lat="40.55891" lon="15.1440983"><ele>34.2</ele><time>2026-05-02T12:34:07.83Z</time></trkpt><trkpt lat="40.559015" lon="15.1440817"><ele>33.8</ele><time>2026-05-02T12:34:09.829Z</time></trkpt><trkpt lat="40.5591133" lon="15.144085"><ele>33.4</ele><time>2026-05-02T12:34:11.83Z</time></trkpt><trkpt lat="40.5592183" lon="15.1441083"><ele>33.0</ele><time>2026-05-02T12:34:13.83Z</time></trkpt><trkpt lat="40.55933" lon="15.1441217"><ele>33.0</ele><time>2026-05-02T12:34:15.83Z</time></trkpt><trkpt lat="40.5593983" lon="15.1441317"><ele>33.0</ele><time>2026-05-02T12:34:16.83Z</time></trkpt><trkpt lat="40.559465" lon="15.14414"><ele>33.0</ele><time>2026-05-02T12:34:17.829Z</time></trkpt><trkpt lat="40.5595283" lon="15.1441467"><ele>33.0</ele><time>2026-05-02T12:34:18.829Z</time></trkpt><trkpt lat="40.5595933" lon="15.1441517"><ele>33.0</ele><time>2026-05-02T12:34:19.83Z</time></trkpt><trkpt lat="40.55971" lon="15.144155"><ele>33.0</ele><time>2026-05-02T12:34:21.83Z</time></trkpt><trkpt lat="40.5598367" lon="15.1441583"><ele>33.199999999999996</ele><time>2026-05-02T12:34:23.83Z</time></trkpt><trkpt lat="40.5599" lon="15.14416"><ele>33.4</ele><time>2026-05-02T12:34:24.83Z</time></trkpt><trkpt lat="40.560015" lon="15.1441767"><ele>33.599999999999994</ele><time>2026-05-02T12:34:26.83Z</time></trkpt><trkpt lat="40.560125" lon="15.144205"><ele>33.8</ele><time>2026-05-02T12:34:28.83Z</time></trkpt><trkpt lat="40.56022" lon="15.144235"><ele>34.0</ele><time>2026-05-02T12:34:30.829Z</time></trkpt><trkpt lat="40.5602833" lon="15.1442517"><ele>34.0</ele><time>2026-05-02T12:34:32.83Z</time></trkpt><trkpt lat="40.5603817" lon="15.1442767"><ele>34.0</ele><time>2026-05-02T12:34:49.83Z</time></trkpt><trkpt lat="40.5605033" lon="15.1443167"><ele>34.0</ele><time>2026-05-02T12:34:51.829Z</time></trkpt><trkpt lat="40.5605667" lon="15.1443383"><ele>34.0</ele><time>2026-05-02T12:34:52.83Z</time></trkpt><trkpt lat="40.5606367" lon="15.1443633"><ele>34.0</ele><time>2026-05-02T12:34:53.829Z</time></trkpt><trkpt lat="40.5607167" lon="15.14439"><ele>34.0</ele><time>2026-05-02T12:34:54.829Z</time></trkpt><trkpt lat="40.560795" lon="15.144415"><ele>34.0</ele><time>2026-05-02T12:34:55.829Z</time></trkpt><trkpt lat="40.5608733" lon="15.1444383"><ele>34.0</ele><time>2026-05-02T12:34:56.83Z</time></trkpt><trkpt lat="40.5609433" lon="15.14446"><ele>34.0</ele><time>2026-05-02T12:34:57.83Z</time></trkpt><trkpt lat="40.5610117" lon="15.1444767"><ele>34.0</ele><time>2026-05-02T12:34:58.829Z</time></trkpt><trkpt lat="40.5611317" lon="15.144505"><ele>34.0</ele><time>2026-05-02T12:35:00.829Z</time></trkpt><trkpt lat="40.56124" lon="15.1445183"><ele>34.2</ele><time>2026-05-02T12:35:02.83Z</time></trkpt><trkpt lat="40.5613383" lon="15.144525"><ele>34.4</ele><time>2026-05-02T12:35:04.83Z</time></trkpt><trkpt lat="40.5614367" lon="15.1445183"><ele>34.6</ele><time>2026-05-02T12:35:06.83Z</time></trkpt><trkpt lat="40.5615233" lon="15.1445167"><ele>34.8</ele><time>2026-05-02T12:35:08.829Z</time></trkpt><trkpt lat="40.56164" lon="15.1445217"><ele>35.0</ele><time>2026-05-02T12:35:10.829Z</time></trkpt><trkpt lat="40.5617033" lon="15.1445317"><ele>35.0</ele><time>2026-05-02T12:35:11.829Z</time></trkpt><trkpt lat="40.56183" lon="15.144555"><ele>35.0</ele><time>2026-05-02T12:35:13.829Z</time></trkpt><trkpt lat="40.5618917" lon="15.1445717"><ele>35.0</ele><time>2026-05-02T12:35:14.829Z</time></trkpt><trkpt lat="40.562" lon="15.1446017"><ele>35.0</ele><time>2026-05-02T12:35:16.83Z</time></trkpt><trkpt lat="40.5621067" lon="15.1446333"><ele>35.0</ele><time>2026-05-02T12:35:18.83Z</time></trkpt><trkpt lat="40.562195" lon="15.1446417"><ele>35.166666666666664</ele><time>2026-05-02T12:35:20.83Z</time></trkpt><trkpt lat="40.5622567" lon="15.1445817"><ele>35.33333333333333</ele><time>2026-05-02T12:35:22.83Z</time></trkpt><trkpt lat="40.5622833" lon="15.144465"><ele>35.5</ele><time>2026-05-02T12:35:24.83Z</time></trkpt><trkpt lat="40.5622967" lon="15.1443133"><ele>35.666666666666664</ele><time>2026-05-02T12:35:26.83Z</time></trkpt><trkpt lat="40.5623017" lon="15.1442217"><ele>35.833333333333336</ele><time>2026-05-02T12:35:27.83Z</time></trkpt><trkpt lat="40.5623067" lon="15.1441333"><ele>36.0</ele><time>2026-05-02T12:35:28.829Z</time></trkpt><trkpt lat="40.5623183" lon="15.1440383"><ele>36.0</ele><time>2026-05-02T12:35:29.829Z</time></trkpt><trkpt lat="40.56233" lon="15.14394"><ele>36.0</ele><time>2026-05-02T12:35:30.829Z</time></trkpt><trkpt lat="40.5623417" lon="15.143845"><ele>36.0</ele><time>2026-05-02T12:35:31.829Z</time></trkpt><trkpt lat="40.5623533" lon="15.1437633"><ele>36.0</ele><time>2026-05-02T12:35:32.829Z</time></trkpt><trkpt lat="40.5623717" lon="15.1436267"><ele>36.0</ele><time>2026-05-02T12:35:34.83Z</time></trkpt><trkpt lat="40.5624033" lon="15.1434867"><ele>36.0</ele><time>2026-05-02T12:35:36.83Z</time></trkpt><trkpt lat="40.5624433" lon="15.1433333"><ele>36.0</ele><time>2026-05-02T12:35:38.83Z</time></trkpt><trkpt lat="40.5624683" lon="15.1432517"><ele>36.0</ele><time>2026-05-02T12:35:39.829Z</time></trkpt><trkpt lat="40.562495" lon="15.1431617"><ele>36.0</ele><time>2026-05-02T12:35:40.83Z</time></trkpt><trkpt lat="40.5625267" lon="15.1430567"><ele>36.0</ele><time>2026-05-02T12:35:41.83Z</time></trkpt><trkpt lat="40.562565" lon="15.1429317"><ele>36.0</ele><time>2026-05-02T12:35:42.829Z</time></trkpt><trkpt lat="40.562615" lon="15.1427867"><ele>36.0</ele><time>2026-05-02T12:35:43.829Z</time></trkpt><trkpt lat="40.5626667" lon="15.1426433"><ele>35.8</ele><time>2026-05-02T12:35:44.83Z</time></trkpt><trkpt lat="40.5627233" lon="15.1425117"><ele>35.6</ele><time>2026-05-02T12:35:45.829Z</time></trkpt><trkpt lat="40.5627783" lon="15.1423917"><ele>35.4</ele><time>2026-05-02T12:35:46.828Z</time></trkpt><trkpt lat="40.5628333" lon="15.14227"><ele>35.2</ele><time>2026-05-02T12:35:47.829Z</time></trkpt><trkpt lat="40.562885" lon="15.1421517"><ele>35.0</ele><time>2026-05-02T12:35:48.828Z</time></trkpt><trkpt lat="40.5629367" lon="15.14204"><ele>35.0</ele><time>2026-05-02T12:35:49.829Z</time></trkpt><trkpt lat="40.5629783" lon="15.1419233"><ele>35.0</ele><time>2026-05-02T12:35:50.829Z</time></trkpt><trkpt lat="40.5630017" lon="15.1418017"><ele>35.0</ele><time>2026-05-02T12:35:51.829Z</time></trkpt><trkpt lat="40.5630217" lon="15.1416667"><ele>35.0</ele><time>2026-05-02T12:35:52.829Z</time></trkpt><trkpt lat="40.563045" lon="15.1415367"><ele>35.0</ele><time>2026-05-02T12:35:53.828Z</time></trkpt><trkpt lat="40.5630767" lon="15.1414067"><ele>35.4</ele><time>2026-05-02T12:35:54.829Z</time></trkpt><trkpt lat="40.563105" lon="15.141275"><ele>35.8</ele><time>2026-05-02T12:35:55.829Z</time></trkpt><trkpt lat="40.5631283" lon="15.1411467"><ele>36.2</ele><time>2026-05-02T12:35:56.829Z</time></trkpt><trkpt lat="40.5631467" lon="15.14103"><ele>36.6</ele><time>2026-05-02T12:35:57.829Z</time></trkpt><trkpt lat="40.5631667" lon="15.14092"><ele>37.0</ele><time>2026-05-02T12:35:58.829Z</time></trkpt><trkpt lat="40.5631767" lon="15.1408033"><ele>37.66666666666667</ele><time>2026-05-02T12:35:59.828Z</time></trkpt><trkpt lat="40.5631833" lon="15.140695"><ele>38.333333333333336</ele><time>2026-05-02T12:36:00.829Z</time></trkpt><trkpt lat="40.5631867" lon="15.1405933"><ele>39.0</ele><time>2026-05-02T12:36:01.829Z</time></trkpt><trkpt lat="40.5631833" lon="15.1404933"><ele>39.666666666666664</ele><time>2026-05-02T12:36:02.828Z</time></trkpt><trkpt lat="40.5631817" lon="15.1404"><ele>40.33333333333333</ele><time>2026-05-02T12:36:03.829Z</time></trkpt><trkpt lat="40.5631833" lon="15.140315"><ele>41.0</ele><time>2026-05-02T12:36:04.828Z</time></trkpt><trkpt lat="40.5631933" lon="15.1401783"><ele>41.0</ele><time>2026-05-02T12:36:06.828Z</time></trkpt><trkpt lat="40.5631883" lon="15.1400817"><ele>41.0</ele><time>2026-05-02T12:36:08.828Z</time></trkpt><trkpt lat="40.56316" lon="15.1399983"><ele>41.0</ele><time>2026-05-02T12:36:10.829Z</time></trkpt><trkpt lat="40.5631033" lon="15.1398783"><ele>41.0</ele><time>2026-05-02T12:36:12.828Z</time></trkpt><trkpt lat="40.56306" lon="15.1397933"><ele>41.0</ele><time>2026-05-02T12:36:13.829Z</time></trkpt><trkpt lat="40.5630083" lon="15.1397083"><ele>41.0</ele><time>2026-05-02T12:36:14.828Z</time></trkpt><trkpt lat="40.5629567" lon="15.13964"><ele>41.285714285714285</ele><time>2026-05-02T12:36:15.829Z</time></trkpt><trkpt lat="40.562905" lon="15.1395717"><ele>41.57142857142857</ele><time>2026-05-02T12:36:16.829Z</time></trkpt><trkpt lat="40.562855" lon="15.1395033"><ele>41.85714285714286</ele><time>2026-05-02T12:36:17.828Z</time></trkpt><trkpt lat="40.5628167" lon="15.1394367"><ele>42.14285714285714</ele><time>2026-05-02T12:36:18.828Z</time></trkpt><trkpt lat="40.5627733" lon="15.1393633"><ele>42.42857142857143</ele><time>2026-05-02T12:36:19.829Z</time></trkpt><trkpt lat="40.5627233" lon="15.1392933"><ele>42.714285714285715</ele><time>2026-05-02T12:36:20.828Z</time></trkpt><trkpt lat="40.5626617" lon="15.1392333"><ele>43.0</ele><time>2026-05-02T12:36:21.829Z</time></trkpt><trkpt lat="40.562595" lon="15.1391833"><ele>43.0</ele><time>2026-05-02T12:36:22.828Z</time></trkpt><trkpt lat="40.5625167" lon="15.1391483"><ele>43.0</ele><time>2026-05-02T12:36:23.829Z</time></trkpt><trkpt lat="40.5624417" lon="15.1391083"><ele>43.0</ele><time>2026-05-02T12:36:24.829Z</time></trkpt><trkpt lat="40.56237" lon="15.1390717"><ele>43.0</ele><time>2026-05-02T12:36:25.828Z</time></trkpt><trkpt lat="40.5622883" lon="15.1390333"><ele>43.0</ele><time>2026-05-02T12:36:26.829Z</time></trkpt><trkpt lat="40.562205" lon="15.1389833"><ele>43.0</ele><time>2026-05-02T12:36:27.828Z</time></trkpt><trkpt lat="40.56212" lon="15.13892"><ele>44.4</ele><time>2026-05-02T12:36:28.828Z</time></trkpt><trkpt lat="40.5620383" lon="15.1388567"><ele>45.8</ele><time>2026-05-02T12:36:29.829Z</time></trkpt><trkpt lat="40.5619417" lon="15.13879"><ele>47.2</ele><time>2026-05-02T12:36:30.829Z</time></trkpt><trkpt lat="40.561845" lon="15.13872"><ele>48.6</ele><time>2026-05-02T12:36:31.828Z</time></trkpt><trkpt lat="40.5617617" lon="15.138645"><ele>50.0</ele><time>2026-05-02T12:36:32.829Z</time></trkpt><trkpt lat="40.561685" lon="15.1385633"><ele>50.0</ele><time>2026-05-02T12:36:33.829Z</time></trkpt><trkpt lat="40.5616117" lon="15.13848"><ele>50.0</ele><time>2026-05-02T12:36:34.829Z</time></trkpt><trkpt lat="40.5615417" lon="15.1383933"><ele>50.0</ele><time>2026-05-02T12:36:35.829Z</time></trkpt><trkpt lat="40.561465" lon="15.1383067"><ele>50.0</ele><time>2026-05-02T12:36:36.828Z</time></trkpt><trkpt lat="40.5613867" lon="15.1382167"><ele>50.0</ele><time>2026-05-02T12:36:37.829Z</time></trkpt><trkpt lat="40.5613067" lon="15.1381267"><ele>50.25</ele><time>2026-05-02T12:36:38.828Z</time></trkpt><trkpt lat="40.561215" lon="15.138025"><ele>50.5</ele><time>2026-05-02T12:36:39.829Z</time></trkpt><trkpt lat="40.5611183" lon="15.1379083"><ele>50.75</ele><time>2026-05-02T12:36:40.828Z</time></trkpt><trkpt lat="40.5610283" lon="15.1377717"><ele>51.0</ele><time>2026-05-02T12:36:41.829Z</time></trkpt><trkpt lat="40.5609417" lon="15.13762"><ele>51.0</ele><time>2026-05-02T12:36:42.829Z</time></trkpt><trkpt lat="40.5608383" lon="15.1374583"><ele>51.0</ele><time>2026-05-02T12:36:43.829Z</time></trkpt><trkpt lat="40.5607333" lon="15.1373"><ele>51.0</ele><time>2026-05-02T12:36:44.828Z</time></trkpt><trkpt lat="40.5606033" lon="15.137155"><ele>51.66666666666667</ele><time>2026-05-02T12:36:45.829Z</time></trkpt><trkpt lat="40.5604783" lon="15.13703"><ele>52.333333333333336</ele><time>2026-05-02T12:36:46.828Z</time></trkpt><trkpt lat="40.5603533" lon="15.1369133"><ele>53.0</ele><time>2026-05-02T12:36:47.829Z</time></trkpt><trkpt lat="40.560245" lon="15.136795"><ele>53.0</ele><time>2026-05-02T12:36:48.829Z</time></trkpt><trkpt lat="40.5601417" lon="15.13666"><ele>53.0</ele><time>2026-05-02T12:36:49.829Z</time></trkpt><trkpt lat="40.5600433" lon="15.1365217"><ele>53.0</ele><time>2026-05-02T12:36:50.828Z</time></trkpt><trkpt lat="40.5599433" lon="15.1363883"><ele>53.0</ele><time>2026-05-02T12:36:51.829Z</time></trkpt><trkpt lat="40.559835" lon="15.1362717"><ele>55.25</ele><time>2026-05-02T12:36:52.828Z</time></trkpt><trkpt lat="40.5597233" lon="15.136185"><ele>57.5</ele><time>2026-05-02T12:36:53.828Z</time></trkpt><trkpt lat="40.5596117" lon="15.13613"><ele>59.75</ele><time>2026-05-02T12:36:54.829Z</time></trkpt><trkpt lat="40.5595083" lon="15.1360533"><ele>62.0</ele><time>2026-05-02T12:36:55.829Z</time></trkpt><trkpt lat="40.559405" lon="15.135945"><ele>62.0</ele><time>2026-05-02T12:36:56.829Z</time></trkpt><trkpt lat="40.5593033" lon="15.135835"><ele>62.0</ele><time>2026-05-02T12:36:57.829Z</time></trkpt><trkpt lat="40.5592017" lon="15.1357017"><ele>62.0</ele><time>2026-05-02T12:36:58.828Z</time></trkpt><trkpt lat="40.5590867" lon="15.13558"><ele>62.0</ele><time>2026-05-02T12:36:59.828Z</time></trkpt><trkpt lat="40.5589883" lon="15.13547"><ele>62.25</ele><time>2026-05-02T12:37:00.829Z</time></trkpt><trkpt lat="40.5588867" lon="15.1353717"><ele>62.5</ele><time>2026-05-02T12:37:01.828Z</time></trkpt><trkpt lat="40.5587883" lon="15.1352817"><ele>62.75</ele><time>2026-05-02T12:37:02.829Z</time></trkpt><trkpt lat="40.5586917" lon="15.1352"><ele>63.0</ele><time>2026-05-02T12:37:03.828Z</time></trkpt><trkpt lat="40.5586067" lon="15.135115"><ele>63.0</ele><time>2026-05-02T12:37:04.828Z</time></trkpt><trkpt lat="40.5585333" lon="15.1350283"><ele>63.0</ele><time>2026-05-02T12:37:05.828Z</time></trkpt><trkpt lat="40.5584667" lon="15.1349417"><ele>63.0</ele><time>2026-05-02T12:37:06.828Z</time></trkpt><trkpt lat="40.5583967" lon="15.134845"><ele>63.0</ele><time>2026-05-02T12:37:07.829Z</time></trkpt><trkpt lat="40.5583317" lon="15.1347517"><ele>63.0</ele><time>2026-05-02T12:37:08.829Z</time></trkpt><trkpt lat="40.5582617" lon="15.13466"><ele>62.833333333333336</ele><time>2026-05-02T12:37:09.828Z</time></trkpt><trkpt lat="40.558215" lon="15.1345767"><ele>62.66666666666667</ele><time>2026-05-02T12:37:10.828Z</time></trkpt><trkpt lat="40.558175" lon="15.1344833"><ele>62.5</ele><time>2026-05-02T12:37:11.828Z</time></trkpt><trkpt lat="40.55816" lon="15.1343967"><ele>62.333333333333336</ele><time>2026-05-02T12:37:12.829Z</time></trkpt><trkpt lat="40.5582017" lon="15.134305"><ele>62.16666666666667</ele><time>2026-05-02T12:37:14.829Z</time></trkpt><trkpt lat="40.55833" lon="15.1342883"><ele>62.0</ele><time>2026-05-02T12:37:16.828Z</time></trkpt><trkpt lat="40.55843" lon="15.1342967"><ele>62.0</ele><time>2026-05-02T12:37:17.828Z</time></trkpt><trkpt lat="40.5585383" lon="15.1343"><ele>62.0</ele><time>2026-05-02T12:37:18.828Z</time></trkpt><trkpt lat="40.5586583" lon="15.1342983"><ele>62.0</ele><time>2026-05-02T12:37:19.828Z</time></trkpt><trkpt lat="40.558785" lon="15.1343133"><ele>62.0</ele><time>2026-05-02T12:37:20.829Z</time></trkpt><trkpt lat="40.5589167" lon="15.1343233"><ele>62.75</ele><time>2026-05-02T12:37:21.829Z</time></trkpt><trkpt lat="40.55905" lon="15.1343317"><ele>63.5</ele><time>2026-05-02T12:37:22.828Z</time></trkpt><trkpt lat="40.559185" lon="15.13434"><ele>64.25</ele><time>2026-05-02T12:37:23.828Z</time></trkpt><trkpt lat="40.5593167" lon="15.1343517"><ele>65.0</ele><time>2026-05-02T12:37:24.828Z</time></trkpt><trkpt lat="40.5594433" lon="15.1343667"><ele>66.25</ele><time>2026-05-02T12:37:25.829Z</time></trkpt><trkpt lat="40.5595717" lon="15.1343767"><ele>67.5</ele><time>2026-05-02T12:37:26.828Z</time></trkpt><trkpt lat="40.5597033" lon="15.1343817"><ele>68.75</ele><time>2026-05-02T12:37:27.828Z</time></trkpt><trkpt lat="40.5598283" lon="15.134385"><ele>70.0</ele><time>2026-05-02T12:37:28.829Z</time></trkpt><trkpt lat="40.55996" lon="15.1343867"><ele>70.0</ele><time>2026-05-02T12:37:29.829Z</time></trkpt><trkpt lat="40.5600967" lon="15.1343883"><ele>70.0</ele><time>2026-05-02T12:37:30.828Z</time></trkpt><trkpt lat="40.5602317" lon="15.1344"><ele>70.0</ele><time>2026-05-02T12:37:31.829Z</time></trkpt><trkpt lat="40.5603617" lon="15.134415"><ele>70.0</ele><time>2026-05-02T12:37:32.829Z</time></trkpt><trkpt lat="40.5604983" lon="15.13443"><ele>70.5</ele><time>2026-05-02T12:37:33.828Z</time></trkpt><trkpt lat="40.5606267" lon="15.1344367"><ele>71.0</ele><time>2026-05-02T12:37:34.828Z</time></trkpt><trkpt lat="40.56076" lon="15.13444"><ele>71.5</ele><time>2026-05-02T12:37:35.829Z</time></trkpt><trkpt lat="40.5608917" lon="15.1344417"><ele>72.0</ele><time>2026-05-02T12:37:36.829Z</time></trkpt><trkpt lat="40.5610267" lon="15.1344467"><ele>72.0</ele><time>2026-05-02T12:37:37.829Z</time></trkpt><trkpt lat="40.56115" lon="15.1344617"><ele>72.0</ele><time>2026-05-02T12:37:38.829Z</time></trkpt><trkpt lat="40.5612667" lon="15.1344833"><ele>72.0</ele><time>2026-05-02T12:37:39.828Z</time></trkpt><trkpt lat="40.5613817" lon="15.1345217"><ele>72.0</ele><time>2026-05-02T12:37:40.829Z</time></trkpt><trkpt lat="40.5614933" lon="15.1345733"><ele>72.0</ele><time>2026-05-02T12:37:41.829Z</time></trkpt><trkpt lat="40.561605" lon="15.1346517"><ele>72.0</ele><time>2026-05-02T12:37:42.828Z</time></trkpt><trkpt lat="40.5617083" lon="15.1347617"><ele>72.0</ele><time>2026-05-02T12:37:43.829Z</time></trkpt><trkpt lat="40.5617983" lon="15.13489"><ele>72.0</ele><time>2026-05-02T12:37:44.828Z</time></trkpt><trkpt lat="40.5618767" lon="15.1350417"><ele>72.0</ele><time>2026-05-02T12:37:45.829Z</time></trkpt><trkpt lat="40.5619517" lon="15.1352"><ele>72.0</ele><time>2026-05-02T12:37:46.828Z</time></trkpt><trkpt lat="40.5620217" lon="15.13537"><ele>72.0</ele><time>2026-05-02T12:37:47.828Z</time></trkpt><trkpt lat="40.5620967" lon="15.1355433"><ele>72.0</ele><time>2026-05-02T12:37:48.828Z</time></trkpt><trkpt lat="40.5621667" lon="15.135715"><ele>70.0</ele><time>2026-05-02T12:37:49.828Z</time></trkpt><trkpt lat="40.5622433" lon="15.1358933"><ele>68.0</ele><time>2026-05-02T12:37:50.828Z</time></trkpt><trkpt lat="40.5623317" lon="15.1360633"><ele>66.0</ele><time>2026-05-02T12:37:51.828Z</time></trkpt><trkpt lat="40.5624217" lon="15.13624"><ele>66.0</ele><time>2026-05-02T12:37:52.829Z</time></trkpt><trkpt lat="40.5625017" lon="15.1364217"><ele>66.0</ele><time>2026-05-02T12:37:53.828Z</time></trkpt><trkpt lat="40.5625833" lon="15.1366067"><ele>66.0</ele><time>2026-05-02T12:37:54.829Z</time></trkpt><trkpt lat="40.562655" lon="15.1367833"><ele>65.25</ele><time>2026-05-02T12:37:55.829Z</time></trkpt><trkpt lat="40.5627233" lon="15.1369567"><ele>64.5</ele><time>2026-05-02T12:37:56.829Z</time></trkpt><trkpt lat="40.562795" lon="15.1371217"><ele>63.75</ele><time>2026-05-02T12:37:57.829Z</time></trkpt><trkpt lat="40.5628817" lon="15.1372633"><ele>63.0</ele><time>2026-05-02T12:37:58.828Z</time></trkpt><trkpt lat="40.562985" lon="15.1373833"><ele>62.75</ele><time>2026-05-02T12:37:59.829Z</time></trkpt><trkpt lat="40.5630917" lon="15.1375083"><ele>62.5</ele><time>2026-05-02T12:38:00.828Z</time></trkpt><trkpt lat="40.5631883" lon="15.1376333"><ele>62.25</ele><time>2026-05-02T12:38:01.829Z</time></trkpt><trkpt lat="40.5632833" lon="15.137775"><ele>62.0</ele><time>2026-05-02T12:38:02.828Z</time></trkpt><trkpt lat="40.5633783" lon="15.137925"><ele>62.0</ele><time>2026-05-02T12:38:03.829Z</time></trkpt><trkpt lat="40.563465" lon="15.13807"><ele>62.0</ele><time>2026-05-02T12:38:04.829Z</time></trkpt><trkpt lat="40.5635467" lon="15.1382117"><ele>62.0</ele><time>2026-05-02T12:38:05.828Z</time></trkpt><trkpt lat="40.5636367" lon="15.1383583"><ele>62.0</ele><time>2026-05-02T12:38:06.828Z</time></trkpt><trkpt lat="40.563725" lon="15.13849"><ele>64.25</ele><time>2026-05-02T12:38:07.829Z</time></trkpt><trkpt lat="40.563825" lon="15.1386117"><ele>66.5</ele><time>2026-05-02T12:38:08.829Z</time></trkpt><trkpt lat="40.563935" lon="15.138715"><ele>68.75</ele><time>2026-05-02T12:38:09.829Z</time></trkpt><trkpt lat="40.5640417" lon="15.1388"><ele>71.0</ele><time>2026-05-02T12:38:10.828Z</time></trkpt><trkpt lat="40.5641667" lon="15.1388917"><ele>71.0</ele><time>2026-05-02T12:38:11.828Z</time></trkpt><trkpt lat="40.5642817" lon="15.138985"><ele>71.0</ele><time>2026-05-02T12:38:12.829Z</time></trkpt><trkpt lat="40.5643917" lon="15.1390883"><ele>71.0</ele><time>2026-05-02T12:38:13.828Z</time></trkpt><trkpt lat="40.5644983" lon="15.1392067"><ele>71.0</ele><time>2026-05-02T12:38:14.829Z</time></trkpt><trkpt lat="40.564605" lon="15.1393417"><ele>70.75</ele><time>2026-05-02T12:38:15.828Z</time></trkpt><trkpt lat="40.5646983" lon="15.1394983"><ele>70.5</ele><time>2026-05-02T12:38:16.828Z</time></trkpt><trkpt lat="40.5647767" lon="15.139665"><ele>70.25</ele><time>2026-05-02T12:38:17.829Z</time></trkpt><trkpt lat="40.5648367" lon="15.139845"><ele>70.0</ele><time>2026-05-02T12:38:18.829Z</time></trkpt><trkpt lat="40.5648867" lon="15.1400233"><ele>69.25</ele><time>2026-05-02T12:38:19.828Z</time></trkpt><trkpt lat="40.5649333" lon="15.140205"><ele>68.5</ele><time>2026-05-02T12:38:20.828Z</time></trkpt><trkpt lat="40.5649767" lon="15.14039"><ele>67.75</ele><time>2026-05-02T12:38:21.828Z</time></trkpt><trkpt lat="40.565015" lon="15.1405567"><ele>67.0</ele><time>2026-05-02T12:38:22.829Z</time></trkpt><trkpt lat="40.56506" lon="15.14073"><ele>66.75</ele><time>2026-05-02T12:38:23.829Z</time></trkpt><trkpt lat="40.5651033" lon="15.1409017"><ele>66.5</ele><time>2026-05-02T12:38:24.828Z</time></trkpt><trkpt lat="40.565145" lon="15.1410767"><ele>66.25</ele><time>2026-05-02T12:38:25.828Z</time></trkpt><trkpt lat="40.565185" lon="15.141255"><ele>66.0</ele><time>2026-05-02T12:38:26.829Z</time></trkpt><trkpt lat="40.5652233" lon="15.1414333"><ele>66.25</ele><time>2026-05-02T12:38:27.829Z</time></trkpt><trkpt lat="40.56527" lon="15.14161"><ele>66.5</ele><time>2026-05-02T12:38:28.829Z</time></trkpt><trkpt lat="40.5653217" lon="15.1417867"><ele>66.75</ele><time>2026-05-02T12:38:29.829Z</time></trkpt><trkpt lat="40.5653833" lon="15.1419617"><ele>67.0</ele><time>2026-05-02T12:38:30.829Z</time></trkpt><trkpt lat="40.5654533" lon="15.1421317"><ele>69.66666666666666</ele><time>2026-05-02T12:38:31.829Z</time></trkpt><trkpt lat="40.565535" lon="15.1422983"><ele>72.33333333333333</ele><time>2026-05-02T12:38:32.829Z</time></trkpt><trkpt lat="40.56563" lon="15.1424583"><ele>75.0</ele><time>2026-05-02T12:38:33.828Z</time></trkpt><trkpt lat="40.565735" lon="15.142605"><ele>75.33333333333333</ele><time>2026-05-02T12:38:34.828Z</time></trkpt><trkpt lat="40.5658483" lon="15.1427383"><ele>75.66666666666666</ele><time>2026-05-02T12:38:35.828Z</time></trkpt><trkpt lat="40.565965" lon="15.1428567"><ele>76.0</ele><time>2026-05-02T12:38:36.829Z</time></trkpt><trkpt lat="40.5660917" lon="15.1429633"><ele>75.66666666666666</ele><time>2026-05-02T12:38:37.829Z</time></trkpt><trkpt lat="40.5662217" lon="15.14306"><ele>75.33333333333333</ele><time>2026-05-02T12:38:38.829Z</time></trkpt><trkpt lat="40.5663517" lon="15.1431467"><ele>75.0</ele><time>2026-05-02T12:38:39.828Z</time></trkpt><trkpt lat="40.5664917" lon="15.1432367"><ele>75.66666666666667</ele><time>2026-05-02T12:38:40.829Z</time></trkpt><trkpt lat="40.56663" lon="15.1433217"><ele>76.33333333333334</ele><time>2026-05-02T12:38:41.828Z</time></trkpt><trkpt lat="40.5667683" lon="15.1434117"><ele>77.0</ele><time>2026-05-02T12:38:42.828Z</time></trkpt><trkpt lat="40.5669133" lon="15.143505"><ele>77.33333333333334</ele><time>2026-05-02T12:38:43.829Z</time></trkpt><trkpt lat="40.5670617" lon="15.1435967"><ele>77.66666666666667</ele><time>2026-05-02T12:38:44.829Z</time></trkpt><trkpt lat="40.5672017" lon="15.1436867"><ele>78.0</ele><time>2026-05-02T12:38:45.829Z</time></trkpt><trkpt lat="40.5673483" lon="15.1437767"><ele>78.0</ele><time>2026-05-02T12:38:46.829Z</time></trkpt><trkpt lat="40.5674983" lon="15.1438733"><ele>78.0</ele><time>2026-05-02T12:38:47.829Z</time></trkpt><trkpt lat="40.5676483" lon="15.1439717"><ele>78.0</ele><time>2026-05-02T12:38:48.829Z</time></trkpt><trkpt lat="40.5677933" lon="15.1440667"><ele>78.66666666666667</ele><time>2026-05-02T12:38:49.829Z</time></trkpt><trkpt lat="40.5679417" lon="15.1441567"><ele>79.33333333333334</ele><time>2026-05-02T12:38:50.828Z</time></trkpt><trkpt lat="40.5680833" lon="15.1442517"><ele>80.0</ele><time>2026-05-02T12:38:51.828Z</time></trkpt><trkpt lat="40.5682233" lon="15.1443417"><ele>80.0</ele><time>2026-05-02T12:38:52.828Z</time></trkpt><trkpt lat="40.5683717" lon="15.144435"><ele>80.0</ele><time>2026-05-02T12:38:53.829Z</time></trkpt><trkpt lat="40.56851" lon="15.1445283"><ele>80.0</ele><time>2026-05-02T12:38:54.829Z</time></trkpt><trkpt lat="40.568655" lon="15.1446217"><ele>80.33333333333334</ele><time>2026-05-02T12:38:55.829Z</time></trkpt><trkpt lat="40.5688017" lon="15.1447217"><ele>80.66666666666667</ele><time>2026-05-02T12:38:56.829Z</time></trkpt><trkpt lat="40.5689467" lon="15.1448167"><ele>81.0</ele><time>2026-05-02T12:38:57.828Z</time></trkpt><trkpt lat="40.56909" lon="15.144915"><ele>81.33333333333333</ele><time>2026-05-02T12:38:58.828Z</time></trkpt><trkpt lat="40.5692433" lon="15.1450017"><ele>81.66666666666666</ele><time>2026-05-02T12:38:59.828Z</time></trkpt><trkpt lat="40.5694" lon="15.1450967"><ele>82.0</ele><time>2026-05-02T12:39:00.828Z</time></trkpt><trkpt lat="40.569555" lon="15.1451983"><ele>82.0</ele><time>2026-05-02T12:39:01.829Z</time></trkpt><trkpt lat="40.5697183" lon="15.1453067"><ele>82.0</ele><time>2026-05-02T12:39:02.828Z</time></trkpt><trkpt lat="40.5698767" lon="15.1454083"><ele>82.0</ele><time>2026-05-02T12:39:03.828Z</time></trkpt><trkpt lat="40.5700417" lon="15.1455183"><ele>82.0</ele><time>2026-05-02T12:39:04.828Z</time></trkpt><trkpt lat="40.5702117" lon="15.1456233"><ele>82.0</ele><time>2026-05-02T12:39:05.829Z</time></trkpt><trkpt lat="40.5703833" lon="15.1457267"><ele>82.0</ele><time>2026-05-02T12:39:06.829Z</time></trkpt><trkpt lat="40.5705583" lon="15.1458317"><ele>82.33333333333333</ele><time>2026-05-02T12:39:07.829Z</time></trkpt><trkpt lat="40.5707267" lon="15.1459367"><ele>82.66666666666667</ele><time>2026-05-02T12:39:08.828Z</time></trkpt><trkpt lat="40.5708983" lon="15.1460467"><ele>83.0</ele><time>2026-05-02T12:39:09.828Z</time></trkpt><trkpt lat="40.5710667" lon="15.1461533"><ele>83.0</ele><time>2026-05-02T12:39:10.828Z</time></trkpt><trkpt lat="40.57124" lon="15.1462633"><ele>83.0</ele><time>2026-05-02T12:39:11.828Z</time></trkpt><trkpt lat="40.5714117" lon="15.1463733"><ele>83.0</ele><time>2026-05-02T12:39:12.829Z</time></trkpt><trkpt lat="40.5715867" lon="15.146485"><ele>83.33333333333334</ele><time>2026-05-02T12:39:13.829Z</time></trkpt><trkpt lat="40.5717583" lon="15.146595"><ele>83.66666666666667</ele><time>2026-05-02T12:39:14.828Z</time></trkpt><trkpt lat="40.5719267" lon="15.1467017"><ele>84.0</ele><time>2026-05-02T12:39:15.829Z</time></trkpt><trkpt lat="40.5721" lon="15.1468083"><ele>85.0</ele><time>2026-05-02T12:39:16.828Z</time></trkpt><trkpt lat="40.57227" lon="15.1469167"><ele>86.0</ele><time>2026-05-02T12:39:17.829Z</time></trkpt><trkpt lat="40.5724383" lon="15.14703"><ele>87.0</ele><time>2026-05-02T12:39:18.829Z</time></trkpt><trkpt lat="40.5726067" lon="15.147155"><ele>87.0</ele><time>2026-05-02T12:39:19.828Z</time></trkpt><trkpt lat="40.5727717" lon="15.1472883"><ele>87.0</ele><time>2026-05-02T12:39:20.828Z</time></trkpt><trkpt lat="40.57293" lon="15.1474167"><ele>87.0</ele><time>2026-05-02T12:39:21.829Z</time></trkpt><trkpt lat="40.57309" lon="15.14755"><ele>87.0</ele><time>2026-05-02T12:39:22.828Z</time></trkpt><trkpt lat="40.57325" lon="15.1476833"><ele>87.0</ele><time>2026-05-02T12:39:23.828Z</time></trkpt><trkpt lat="40.57341" lon="15.1478133"><ele>87.0</ele><time>2026-05-02T12:39:24.829Z</time></trkpt><trkpt lat="40.573565" lon="15.14794"><ele>87.66666666666667</ele><time>2026-05-02T12:39:25.828Z</time></trkpt><trkpt lat="40.57372" lon="15.14807"><ele>88.33333333333334</ele><time>2026-05-02T12:39:26.828Z</time></trkpt><trkpt lat="40.5738717" lon="15.1482017"><ele>89.0</ele><time>2026-05-02T12:39:27.829Z</time></trkpt><trkpt lat="40.5740217" lon="15.148325"><ele>89.33333333333334</ele><time>2026-05-02T12:39:28.829Z</time></trkpt><trkpt lat="40.574175" lon="15.1484533"><ele>89.66666666666667</ele><time>2026-05-02T12:39:29.828Z</time></trkpt><trkpt lat="40.5743333" lon="15.14858"><ele>90.0</ele><time>2026-05-02T12:39:30.829Z</time></trkpt><trkpt lat="40.5744867" lon="15.14871"><ele>90.0</ele><time>2026-05-02T12:39:31.828Z</time></trkpt><trkpt lat="40.5746417" lon="15.1488417"><ele>90.0</ele><time>2026-05-02T12:39:32.829Z</time></trkpt><trkpt lat="40.5747967" lon="15.1489783"><ele>90.0</ele><time>2026-05-02T12:39:33.828Z</time></trkpt><trkpt lat="40.57495" lon="15.1491267"><ele>90.0</ele><time>2026-05-02T12:39:34.828Z</time></trkpt><trkpt lat="40.57509" lon="15.1492817"><ele>90.0</ele><time>2026-05-02T12:39:35.829Z</time></trkpt><trkpt lat="40.5752333" lon="15.1494517"><ele>90.0</ele><time>2026-05-02T12:39:36.828Z</time></trkpt><trkpt lat="40.5753733" lon="15.149625"><ele>90.0</ele><time>2026-05-02T12:39:37.829Z</time></trkpt><trkpt lat="40.57551" lon="15.1498017"><ele>90.0</ele><time>2026-05-02T12:39:38.828Z</time></trkpt><trkpt lat="40.57565" lon="15.1499833"><ele>90.0</ele><time>2026-05-02T12:39:39.829Z</time></trkpt><trkpt lat="40.57578" lon="15.150175"><ele>90.0</ele><time>2026-05-02T12:39:40.828Z</time></trkpt><trkpt lat="40.575905" lon="15.150365"><ele>90.0</ele><time>2026-05-02T12:39:41.829Z</time></trkpt><trkpt lat="40.5760283" lon="15.15056"><ele>90.0</ele><time>2026-05-02T12:39:42.829Z</time></trkpt><trkpt lat="40.5761533" lon="15.1507433"><ele>91.33333333333333</ele><time>2026-05-02T12:39:43.829Z</time></trkpt><trkpt lat="40.5762717" lon="15.15093"><ele>92.66666666666666</ele><time>2026-05-02T12:39:44.828Z</time></trkpt><trkpt lat="40.57639" lon="15.151115"><ele>94.0</ele><time>2026-05-02T12:39:45.829Z</time></trkpt><trkpt lat="40.5765133" lon="15.1512983"><ele>94.0</ele><time>2026-05-02T12:39:46.829Z</time></trkpt><trkpt lat="40.5766433" lon="15.1514867"><ele>94.0</ele><time>2026-05-02T12:39:47.829Z</time></trkpt><trkpt lat="40.5767733" lon="15.1516717"><ele>94.0</ele><time>2026-05-02T12:39:48.829Z</time></trkpt><trkpt lat="40.5769033" lon="15.1518617"><ele>94.33333333333333</ele><time>2026-05-02T12:39:49.828Z</time></trkpt><trkpt lat="40.5770317" lon="15.1520467"><ele>94.66666666666667</ele><time>2026-05-02T12:39:50.829Z</time></trkpt><trkpt lat="40.5771583" lon="15.1522383"><ele>95.0</ele><time>2026-05-02T12:39:51.828Z</time></trkpt><trkpt lat="40.577285" lon="15.15243"><ele>95.0</ele><time>2026-05-02T12:39:52.829Z</time></trkpt><trkpt lat="40.57741" lon="15.1526183"><ele>95.0</ele><time>2026-05-02T12:39:53.829Z</time></trkpt><trkpt lat="40.5775383" lon="15.1528017"><ele>95.0</ele><time>2026-05-02T12:39:54.828Z</time></trkpt><trkpt lat="40.5776667" lon="15.1529817"><ele>95.0</ele><time>2026-05-02T12:39:55.829Z</time></trkpt><trkpt lat="40.57779" lon="15.1531633"><ele>95.0</ele><time>2026-05-02T12:39:56.829Z</time></trkpt><trkpt lat="40.5779183" lon="15.15335"><ele>95.0</ele><time>2026-05-02T12:39:57.829Z</time></trkpt><trkpt lat="40.57805" lon="15.1535433"><ele>95.0</ele><time>2026-05-02T12:39:58.828Z</time></trkpt><trkpt lat="40.5781883" lon="15.1537233"><ele>95.0</ele><time>2026-05-02T12:39:59.828Z</time></trkpt><trkpt lat="40.578335" lon="15.1538983"><ele>95.0</ele><time>2026-05-02T12:40:00.829Z</time></trkpt><trkpt lat="40.5784833" lon="15.1540667"><ele>95.0</ele><time>2026-05-02T12:40:01.828Z</time></trkpt><trkpt lat="40.578645" lon="15.1542333"><ele>95.0</ele><time>2026-05-02T12:40:02.827Z</time></trkpt><trkpt lat="40.5788117" lon="15.15439"><ele>95.0</ele><time>2026-05-02T12:40:03.827Z</time></trkpt><trkpt lat="40.5789783" lon="15.1545283"><ele>96.33333333333334</ele><time>2026-05-02T12:40:04.828Z</time></trkpt><trkpt lat="40.5791517" lon="15.1546717"><ele>97.66666666666667</ele><time>2026-05-02T12:40:05.827Z</time></trkpt><trkpt lat="40.5793233" lon="15.1548033"><ele>99.0</ele><time>2026-05-02T12:40:06.828Z</time></trkpt><trkpt lat="40.57949" lon="15.154935"><ele>100.33333333333334</ele><time>2026-05-02T12:40:07.827Z</time></trkpt><trkpt lat="40.579645" lon="15.15506"><ele>101.66666666666667</ele><time>2026-05-02T12:40:08.827Z</time></trkpt><trkpt lat="40.5797917" lon="15.15518"><ele>103.0</ele><time>2026-05-02T12:40:09.827Z</time></trkpt><trkpt lat="40.5799367" lon="15.1552883"><ele>103.0</ele><time>2026-05-02T12:40:10.827Z</time></trkpt><trkpt lat="40.5800883" lon="15.1553667"><ele>103.0</ele><time>2026-05-02T12:40:11.828Z</time></trkpt><trkpt lat="40.5802467" lon="15.1554133"><ele>103.0</ele><time>2026-05-02T12:40:12.828Z</time></trkpt><trkpt lat="40.5804033" lon="15.1554367"><ele>103.66666666666667</ele><time>2026-05-02T12:40:13.827Z</time></trkpt><trkpt lat="40.580565" lon="15.1554383"><ele>104.33333333333334</ele><time>2026-05-02T12:40:14.827Z</time></trkpt><trkpt lat="40.58073" lon="15.1554183"><ele>105.0</ele><time>2026-05-02T12:40:15.828Z</time></trkpt><trkpt lat="40.5808917" lon="15.1553667"><ele>105.0</ele><time>2026-05-02T12:40:16.828Z</time></trkpt><trkpt lat="40.58105" lon="15.1552933"><ele>105.0</ele><time>2026-05-02T12:40:17.827Z</time></trkpt><trkpt lat="40.58121" lon="15.15519"><ele>105.0</ele><time>2026-05-02T12:40:18.828Z</time></trkpt><trkpt lat="40.5813783" lon="15.155055"><ele>105.0</ele><time>2026-05-02T12:40:19.828Z</time></trkpt><trkpt lat="40.5815467" lon="15.1548983"><ele>105.0</ele><time>2026-05-02T12:40:20.827Z</time></trkpt><trkpt lat="40.581725" lon="15.15474"><ele>105.0</ele><time>2026-05-02T12:40:21.827Z</time></trkpt><trkpt lat="40.581905" lon="15.15459"><ele>106.66666666666666</ele><time>2026-05-02T12:40:22.828Z</time></trkpt><trkpt lat="40.5820833" lon="15.1544533"><ele>108.33333333333333</ele><time>2026-05-02T12:40:23.827Z</time></trkpt><trkpt lat="40.5822517" lon="15.154325"><ele>110.0</ele><time>2026-05-02T12:40:24.828Z</time></trkpt><trkpt lat="40.5824083" lon="15.1542017"><ele>110.0</ele><time>2026-05-02T12:40:25.828Z</time></trkpt><trkpt lat="40.5825617" lon="15.1540917"><ele>110.0</ele><time>2026-05-02T12:40:26.827Z</time></trkpt><trkpt lat="40.5827217" lon="15.154005"><ele>110.0</ele><time>2026-05-02T12:40:27.827Z</time></trkpt><trkpt lat="40.5829017" lon="15.15393"><ele>110.66666666666666</ele><time>2026-05-02T12:40:28.827Z</time></trkpt><trkpt lat="40.583095" lon="15.1538733"><ele>111.33333333333334</ele><time>2026-05-02T12:40:29.827Z</time></trkpt><trkpt lat="40.5832767" lon="15.1537933"><ele>112.0</ele><time>2026-05-02T12:40:30.828Z</time></trkpt><trkpt lat="40.5834317" lon="15.1536717"><ele>112.0</ele><time>2026-05-02T12:40:31.827Z</time></trkpt><trkpt lat="40.5835767" lon="15.1535167"><ele>112.0</ele><time>2026-05-02T12:40:32.827Z</time></trkpt><trkpt lat="40.5837117" lon="15.153355"><ele>112.0</ele><time>2026-05-02T12:40:33.827Z</time></trkpt><trkpt lat="40.5838317" lon="15.1532083"><ele>112.25</ele><time>2026-05-02T12:40:34.827Z</time></trkpt><trkpt lat="40.5839533" lon="15.1531"><ele>112.5</ele><time>2026-05-02T12:40:35.828Z</time></trkpt><trkpt lat="40.5840867" lon="15.1530333"><ele>112.75</ele><time>2026-05-02T12:40:36.827Z</time></trkpt><trkpt lat="40.584235" lon="15.1530033"><ele>113.0</ele><time>2026-05-02T12:40:37.827Z</time></trkpt><trkpt lat="40.58441" lon="15.152995"><ele>115.33333333333333</ele><time>2026-05-02T12:40:38.827Z</time></trkpt><trkpt lat="40.5846067" lon="15.15299"><ele>117.66666666666666</ele><time>2026-05-02T12:40:39.827Z</time></trkpt><trkpt lat="40.5848" lon="15.1529783"><ele>120.0</ele><time>2026-05-02T12:40:40.827Z</time></trkpt><trkpt lat="40.5850033" lon="15.1529817"><ele>120.0</ele><time>2026-05-02T12:40:41.828Z</time></trkpt><trkpt lat="40.5851967" lon="15.152975"><ele>120.0</ele><time>2026-05-02T12:40:42.827Z</time></trkpt><trkpt lat="40.5853717" lon="15.1529517"><ele>120.0</ele><time>2026-05-02T12:40:43.827Z</time></trkpt><trkpt lat="40.585515" lon="15.15291"><ele>121.25</ele><time>2026-05-02T12:40:44.827Z</time></trkpt><trkpt lat="40.5856417" lon="15.1528483"><ele>122.5</ele><time>2026-05-02T12:40:45.828Z</time></trkpt><trkpt lat="40.5857517" lon="15.1527683"><ele>123.75</ele><time>2026-05-02T12:40:46.828Z</time></trkpt><trkpt lat="40.58584" lon="15.1526783"><ele>125.0</ele><time>2026-05-02T12:40:47.828Z</time></trkpt><trkpt lat="40.585925" lon="15.1525983"><ele>124.99999999999999</ele><time>2026-05-02T12:40:48.828Z</time></trkpt><trkpt lat="40.58599" lon="15.1525433"><ele>125.0</ele><time>2026-05-02T12:40:49.828Z</time></trkpt><trkpt lat="40.5860633" lon="15.1524867"><ele>125.0</ele><time>2026-05-02T12:40:51.827Z</time></trkpt><trkpt lat="40.5861283" lon="15.152455"><ele>125.0</ele><time>2026-05-02T12:40:54.828Z</time></trkpt><trkpt lat="40.5862267" lon="15.15239"><ele>124.99999999999999</ele><time>2026-05-02T12:40:56.827Z</time></trkpt><trkpt lat="40.58631" lon="15.1523533"><ele>125.0</ele><time>2026-05-02T12:40:57.828Z</time></trkpt><trkpt lat="40.5864067" lon="15.15234"><ele>125.0</ele><time>2026-05-02T12:40:58.828Z</time></trkpt><trkpt lat="40.5865133" lon="15.1523533"><ele>125.0</ele><time>2026-05-02T12:40:59.827Z</time></trkpt><trkpt lat="40.5866183" lon="15.1523817"><ele>125.0</ele><time>2026-05-02T12:41:00.827Z</time></trkpt><trkpt lat="40.5867283" lon="15.1524067"><ele>125.0</ele><time>2026-05-02T12:41:01.827Z</time></trkpt><trkpt lat="40.5868383" lon="15.1524283"><ele>125.0</ele><time>2026-05-02T12:41:02.828Z</time></trkpt><trkpt lat="40.5869417" lon="15.1524483"><ele>123.2</ele><time>2026-05-02T12:41:03.828Z</time></trkpt><trkpt lat="40.58704" lon="15.1524633"><ele>121.4</ele><time>2026-05-02T12:41:04.828Z</time></trkpt><trkpt lat="40.5871483" lon="15.15248"><ele>119.6</ele><time>2026-05-02T12:41:05.827Z</time></trkpt><trkpt lat="40.5872567" lon="15.1524983"><ele>117.8</ele><time>2026-05-02T12:41:06.827Z</time></trkpt><trkpt lat="40.58735" lon="15.1525117"><ele>116.0</ele><time>2026-05-02T12:41:07.827Z</time></trkpt><trkpt lat="40.5874367" lon="15.1525317"><ele>115.99999999999999</ele><time>2026-05-02T12:41:08.828Z</time></trkpt><trkpt lat="40.587525" lon="15.15256"><ele>116.0</ele><time>2026-05-02T12:41:09.828Z</time></trkpt><trkpt lat="40.587605" lon="15.1525833"><ele>116.0</ele><time>2026-05-02T12:41:10.827Z</time></trkpt><trkpt lat="40.5876783" lon="15.1526367"><ele>116.0</ele><time>2026-05-02T12:41:11.827Z</time></trkpt><trkpt lat="40.5877383" lon="15.1527083"><ele>115.99999999999999</ele><time>2026-05-02T12:41:12.827Z</time></trkpt><trkpt lat="40.58778" lon="15.152795"><ele>116.0</ele><time>2026-05-02T12:41:13.827Z</time></trkpt><trkpt lat="40.587805" lon="15.1528867"><ele>115.99999999999999</ele><time>2026-05-02T12:41:14.827Z</time></trkpt><trkpt lat="40.5878067" lon="15.152985"><ele>116.0</ele><time>2026-05-02T12:41:15.828Z</time></trkpt><trkpt lat="40.5877867" lon="15.1530933"><ele>116.0</ele><time>2026-05-02T12:41:16.827Z</time></trkpt><trkpt lat="40.5877583" lon="15.1532033"><ele>116.0</ele><time>2026-05-02T12:41:17.828Z</time></trkpt><trkpt lat="40.5877267" lon="15.1533183"><ele>115.99999999999999</ele><time>2026-05-02T12:41:18.827Z</time></trkpt><trkpt lat="40.5876933" lon="15.1534333"><ele>116.0</ele><time>2026-05-02T12:41:19.828Z</time></trkpt><trkpt lat="40.5876633" lon="15.153535"><ele>116.83333333333333</ele><time>2026-05-02T12:41:20.827Z</time></trkpt><trkpt lat="40.587635" lon="15.15362"><ele>117.66666666666666</ele><time>2026-05-02T12:41:21.828Z</time></trkpt><trkpt lat="40.5876017" lon="15.1537117"><ele>118.5</ele><time>2026-05-02T12:41:22.828Z</time></trkpt><trkpt lat="40.5875783" lon="15.1538233"><ele>119.33333333333334</ele><time>2026-05-02T12:41:23.827Z</time></trkpt><trkpt lat="40.5875617" lon="15.1539517"><ele>120.16666666666667</ele><time>2026-05-02T12:41:24.828Z</time></trkpt><trkpt lat="40.5875583" lon="15.1540883"><ele>121.0</ele><time>2026-05-02T12:41:25.827Z</time></trkpt><trkpt lat="40.5875617" lon="15.15421"><ele>121.00000000000001</ele><time>2026-05-02T12:41:26.827Z</time></trkpt><trkpt lat="40.587565" lon="15.1543083"><ele>121.0</ele><time>2026-05-02T12:41:27.828Z</time></trkpt><trkpt lat="40.58758" lon="15.1544467"><ele>121.0</ele><time>2026-05-02T12:41:29.827Z</time></trkpt><trkpt lat="40.5876083" lon="15.1545617"><ele>121.0</ele><time>2026-05-02T12:41:31.827Z</time></trkpt><trkpt lat="40.5876533" lon="15.1546383"><ele>121.00000000000001</ele><time>2026-05-02T12:41:33.828Z</time></trkpt><trkpt lat="40.5877267" lon="15.154675"><ele>121.0</ele><time>2026-05-02T12:41:35.828Z</time></trkpt><trkpt lat="40.5878067" lon="15.1546417"><ele>120.6</ele><time>2026-05-02T12:41:37.827Z</time></trkpt><trkpt lat="40.5878483" lon="15.1545783"><ele>120.19999999999999</ele><time>2026-05-02T12:41:38.827Z</time></trkpt><trkpt lat="40.5878717" lon="15.1544567"><ele>119.80000000000001</ele><time>2026-05-02T12:41:39.828Z</time></trkpt><trkpt lat="40.5878867" lon="15.15431"><ele>119.4</ele><time>2026-05-02T12:41:40.828Z</time></trkpt><trkpt lat="40.5879133" lon="15.154145"><ele>119.0</ele><time>2026-05-02T12:41:41.828Z</time></trkpt><trkpt lat="40.5879533" lon="15.1539767"><ele>116.5</ele><time>2026-05-02T12:41:42.827Z</time></trkpt><trkpt lat="40.5880083" lon="15.1538067"><ele>114.0</ele><time>2026-05-02T12:41:43.827Z</time></trkpt><trkpt lat="40.5880767" lon="15.153635"><ele>111.5</ele><time>2026-05-02T12:41:44.828Z</time></trkpt><trkpt lat="40.5881467" lon="15.153475"><ele>109.0</ele><time>2026-05-02T12:41:45.828Z</time></trkpt><trkpt lat="40.58822" lon="15.15333"><ele>107.25</ele><time>2026-05-02T12:41:46.827Z</time></trkpt><trkpt lat="40.5882983" lon="15.1531917"><ele>105.5</ele><time>2026-05-02T12:41:47.827Z</time></trkpt><trkpt lat="40.58838" lon="15.1530583"><ele>103.75</ele><time>2026-05-02T12:41:48.827Z</time></trkpt><trkpt lat="40.588475" lon="15.15294"><ele>102.0</ele><time>2026-05-02T12:41:49.828Z</time></trkpt><trkpt lat="40.5885783" lon="15.1528317"><ele>100.25</ele><time>2026-05-02T12:41:50.828Z</time></trkpt><trkpt lat="40.5887033" lon="15.15277"><ele>98.5</ele><time>2026-05-02T12:41:51.828Z</time></trkpt><trkpt lat="40.5888483" lon="15.1527567"><ele>96.75</ele><time>2026-05-02T12:41:52.828Z</time></trkpt><trkpt lat="40.58899" lon="15.152765"><ele>95.0</ele><time>2026-05-02T12:41:53.827Z</time></trkpt><trkpt lat="40.589155" lon="15.152785"><ele>95.0</ele><time>2026-05-02T12:41:54.828Z</time></trkpt><trkpt lat="40.5893217" lon="15.1527933"><ele>95.0</ele><time>2026-05-02T12:41:55.827Z</time></trkpt><trkpt lat="40.589485" lon="15.152805"><ele>95.0</ele><time>2026-05-02T12:41:56.828Z</time></trkpt><trkpt lat="40.58964" lon="15.1528183"><ele>94.75</ele><time>2026-05-02T12:41:57.827Z</time></trkpt><trkpt lat="40.589785" lon="15.1528117"><ele>94.5</ele><time>2026-05-02T12:41:58.828Z</time></trkpt><trkpt lat="40.589925" lon="15.1527767"><ele>94.25</ele><time>2026-05-02T12:41:59.828Z</time></trkpt><trkpt lat="40.5900583" lon="15.1527117"><ele>94.0</ele><time>2026-05-02T12:42:00.827Z</time></trkpt><trkpt lat="40.5901967" lon="15.1526217"><ele>94.0</ele><time>2026-05-02T12:42:01.827Z</time></trkpt><trkpt lat="40.59032" lon="15.1524933"><ele>94.0</ele><time>2026-05-02T12:42:02.828Z</time></trkpt><trkpt lat="40.590425" lon="15.1523217"><ele>94.0</ele><time>2026-05-02T12:42:03.828Z</time></trkpt><trkpt lat="40.5905183" lon="15.1521217"><ele>96.66666666666666</ele><time>2026-05-02T12:42:04.827Z</time></trkpt><trkpt lat="40.5905867" lon="15.151905"><ele>99.33333333333333</ele><time>2026-05-02T12:42:05.827Z</time></trkpt><trkpt lat="40.5906233" lon="15.1516633"><ele>102.0</ele><time>2026-05-02T12:42:06.827Z</time></trkpt><trkpt lat="40.59063" lon="15.1514033"><ele>102.0</ele><time>2026-05-02T12:42:07.828Z</time></trkpt><trkpt lat="40.5906217" lon="15.15113"><ele>102.0</ele><time>2026-05-02T12:42:08.828Z</time></trkpt><trkpt lat="40.5906217" lon="15.1508567"><ele>102.0</ele><time>2026-05-02T12:42:09.828Z</time></trkpt><trkpt lat="40.5906233" lon="15.1506167"><ele>101.75</ele><time>2026-05-02T12:42:10.828Z</time></trkpt><trkpt lat="40.59065" lon="15.1504217"><ele>101.5</ele><time>2026-05-02T12:42:11.827Z</time></trkpt><trkpt lat="40.5906967" lon="15.150255"><ele>101.25</ele><time>2026-05-02T12:42:12.827Z</time></trkpt><trkpt lat="40.5907533" lon="15.1500867"><ele>101.0</ele><time>2026-05-02T12:42:13.827Z</time></trkpt><trkpt lat="40.5908167" lon="15.1499167"><ele>100.66666666666666</ele><time>2026-05-02T12:42:14.827Z</time></trkpt><trkpt lat="40.5908933" lon="15.149745"><ele>100.33333333333334</ele><time>2026-05-02T12:42:15.828Z</time></trkpt><trkpt lat="40.5909783" lon="15.14958"><ele>100.0</ele><time>2026-05-02T12:42:16.827Z</time></trkpt><trkpt lat="40.59107" lon="15.1494033"><ele>100.0</ele><time>2026-05-02T12:42:17.827Z</time></trkpt><trkpt lat="40.591155" lon="15.1492117"><ele>100.0</ele><time>2026-05-02T12:42:18.827Z</time></trkpt><trkpt lat="40.59123" lon="15.1490033"><ele>100.0</ele><time>2026-05-02T12:42:19.827Z</time></trkpt><trkpt lat="40.5912817" lon="15.148775"><ele>101.0</ele><time>2026-05-02T12:42:20.828Z</time></trkpt><trkpt lat="40.591315" lon="15.1485283"><ele>102.0</ele><time>2026-05-02T12:42:21.828Z</time></trkpt><trkpt lat="40.5913167" lon="15.1482733"><ele>103.0</ele><time>2026-05-02T12:42:22.827Z</time></trkpt><trkpt lat="40.5912983" lon="15.148005"><ele>104.5</ele><time>2026-05-02T12:42:23.827Z</time></trkpt><trkpt lat="40.5912633" lon="15.1477083"><ele>106.0</ele><time>2026-05-02T12:42:24.827Z</time></trkpt><trkpt lat="40.591215" lon="15.147405"><ele>102.5</ele><time>2026-05-02T12:42:25.828Z</time></trkpt><trkpt lat="40.5911683" lon="15.1470817"><ele>99.0</ele><time>2026-05-02T12:42:26.827Z</time></trkpt><trkpt lat="40.5911217" lon="15.1467617"><ele>98.5</ele><time>2026-05-02T12:42:27.827Z</time></trkpt><trkpt lat="40.5910867" lon="15.1464333"><ele>98.0</ele><time>2026-05-02T12:42:28.828Z</time></trkpt><trkpt lat="40.5910467" lon="15.1461217"><ele>98.0</ele><time>2026-05-02T12:42:29.828Z</time></trkpt><trkpt lat="40.5910017" lon="15.14582"><ele>98.0</ele><time>2026-05-02T12:42:30.827Z</time></trkpt><trkpt lat="40.59096" lon="15.1455317"><ele>97.33333333333333</ele><time>2026-05-02T12:42:31.827Z</time></trkpt><trkpt lat="40.5909233" lon="15.1452483"><ele>96.66666666666666</ele><time>2026-05-02T12:42:32.828Z</time></trkpt><trkpt lat="40.5908967" lon="15.1449633"><ele>96.0</ele><time>2026-05-02T12:42:33.828Z</time></trkpt><trkpt lat="40.5908933" lon="15.144685"><ele>95.66666666666667</ele><time>2026-05-02T12:42:34.827Z</time></trkpt><trkpt lat="40.5909117" lon="15.144415"><ele>95.33333333333334</ele><time>2026-05-02T12:42:35.827Z</time></trkpt><trkpt lat="40.5909567" lon="15.1441533"><ele>95.0</ele><time>2026-05-02T12:42:36.827Z</time></trkpt><trkpt lat="40.5910233" lon="15.143895"><ele>95.0</ele><time>2026-05-02T12:42:37.828Z</time></trkpt><trkpt lat="40.5911" lon="15.1436233"><ele>95.0</ele><time>2026-05-02T12:42:38.827Z</time></trkpt><trkpt lat="40.5911967" lon="15.1433467"><ele>95.5</ele><time>2026-05-02T12:42:39.828Z</time></trkpt><trkpt lat="40.5913133" lon="15.1430567"><ele>96.0</ele><time>2026-05-02T12:42:40.828Z</time></trkpt><trkpt lat="40.5914367" lon="15.1427517"><ele>96.0</ele><time>2026-05-02T12:42:41.828Z</time></trkpt><trkpt lat="40.59157" lon="15.142435"><ele>96.0</ele><time>2026-05-02T12:42:42.828Z</time></trkpt><trkpt lat="40.5917017" lon="15.1421217"><ele>95.0</ele><time>2026-05-02T12:42:43.827Z</time></trkpt><trkpt lat="40.59183" lon="15.1418183"><ele>94.0</ele><time>2026-05-02T12:42:44.828Z</time></trkpt><trkpt lat="40.5919567" lon="15.141535"><ele>93.5</ele><time>2026-05-02T12:42:45.828Z</time></trkpt><trkpt lat="40.5920733" lon="15.141265"><ele>93.0</ele><time>2026-05-02T12:42:46.828Z</time></trkpt><trkpt lat="40.5921817" lon="15.1410133"><ele>93.0</ele><time>2026-05-02T12:42:47.828Z</time></trkpt><trkpt lat="40.5922883" lon="15.14077"><ele>93.0</ele><time>2026-05-02T12:42:48.827Z</time></trkpt><trkpt lat="40.5923867" lon="15.1405383"><ele>93.0</ele><time>2026-05-02T12:42:49.827Z</time></trkpt><trkpt lat="40.59249" lon="15.14031"><ele>92.66666666666667</ele><time>2026-05-02T12:42:50.827Z</time></trkpt><trkpt lat="40.5925917" lon="15.1400817"><ele>92.33333333333334</ele><time>2026-05-02T12:42:51.827Z</time></trkpt><trkpt lat="40.5926917" lon="15.139855"><ele>92.0</ele><time>2026-05-02T12:42:52.828Z</time></trkpt><trkpt lat="40.592795" lon="15.139625"><ele>92.0</ele><time>2026-05-02T12:42:53.827Z</time></trkpt><trkpt lat="40.5928917" lon="15.1393933"><ele>92.0</ele><time>2026-05-02T12:42:54.827Z</time></trkpt><trkpt lat="40.592985" lon="15.1391567"><ele>92.0</ele><time>2026-05-02T12:42:55.827Z</time></trkpt><trkpt lat="40.5930917" lon="15.1389217"><ele>91.33333333333334</ele><time>2026-05-02T12:42:56.827Z</time></trkpt><trkpt lat="40.5932017" lon="15.1386817"><ele>90.66666666666667</ele><time>2026-05-02T12:42:57.828Z</time></trkpt><trkpt lat="40.593305" lon="15.138435"><ele>90.0</ele><time>2026-05-02T12:42:58.827Z</time></trkpt><trkpt lat="40.5934067" lon="15.1381883"><ele>89.33333333333333</ele><time>2026-05-02T12:42:59.828Z</time></trkpt><trkpt lat="40.593515" lon="15.1379433"><ele>88.66666666666666</ele><time>2026-05-02T12:43:00.828Z</time></trkpt><trkpt lat="40.593615" lon="15.1376967"><ele>88.0</ele><time>2026-05-02T12:43:01.828Z</time></trkpt><trkpt lat="40.5937117" lon="15.1374533"><ele>88.0</ele><time>2026-05-02T12:43:02.828Z</time></trkpt><trkpt lat="40.5938167" lon="15.1372167"><ele>88.0</ele><time>2026-05-02T12:43:03.828Z</time></trkpt><trkpt lat="40.59391" lon="15.136985"><ele>88.0</ele><time>2026-05-02T12:43:04.828Z</time></trkpt><trkpt lat="40.5940017" lon="15.136765"><ele>88.0</ele><time>2026-05-02T12:43:05.827Z</time></trkpt><trkpt lat="40.5940917" lon="15.1365533"><ele>88.0</ele><time>2026-05-02T12:43:06.828Z</time></trkpt><trkpt lat="40.5941783" lon="15.1363483"><ele>88.0</ele><time>2026-05-02T12:43:07.828Z</time></trkpt><trkpt lat="40.5942617" lon="15.136155"><ele>87.0</ele><time>2026-05-02T12:43:08.828Z</time></trkpt><trkpt lat="40.5943383" lon="15.135955"><ele>86.0</ele><time>2026-05-02T12:43:09.827Z</time></trkpt><trkpt lat="40.59441" lon="15.1357583"><ele>85.0</ele><time>2026-05-02T12:43:10.828Z</time></trkpt><trkpt lat="40.5944633" lon="15.13555"><ele>84.33333333333333</ele><time>2026-05-02T12:43:11.827Z</time></trkpt><trkpt lat="40.5944933" lon="15.1353333"><ele>83.66666666666667</ele><time>2026-05-02T12:43:12.827Z</time></trkpt><trkpt lat="40.5945067" lon="15.1351183"><ele>83.0</ele><time>2026-05-02T12:43:13.827Z</time></trkpt><trkpt lat="40.5945183" lon="15.1349"><ele>83.33333333333334</ele><time>2026-05-02T12:43:14.827Z</time></trkpt><trkpt lat="40.59452" lon="15.1346767"><ele>83.66666666666667</ele><time>2026-05-02T12:43:15.828Z</time></trkpt><trkpt lat="40.5945233" lon="15.134455"><ele>84.0</ele><time>2026-05-02T12:43:16.828Z</time></trkpt><trkpt lat="40.5945367" lon="15.13423"><ele>83.66666666666667</ele><time>2026-05-02T12:43:17.827Z</time></trkpt><trkpt lat="40.5945483" lon="15.1340033"><ele>83.33333333333334</ele><time>2026-05-02T12:43:18.827Z</time></trkpt><trkpt lat="40.5945583" lon="15.1337733"><ele>83.0</ele><time>2026-05-02T12:43:19.828Z</time></trkpt><trkpt lat="40.59457" lon="15.1335433"><ele>83.0</ele><time>2026-05-02T12:43:20.827Z</time></trkpt><trkpt lat="40.5945783" lon="15.133315"><ele>83.0</ele><time>2026-05-02T12:43:21.828Z</time></trkpt><trkpt lat="40.5945833" lon="15.133085"><ele>83.0</ele><time>2026-05-02T12:43:22.828Z</time></trkpt><trkpt lat="40.5945917" lon="15.1328517"><ele>82.66666666666667</ele><time>2026-05-02T12:43:23.827Z</time></trkpt><trkpt lat="40.594595" lon="15.1326167"><ele>82.33333333333333</ele><time>2026-05-02T12:43:24.827Z</time></trkpt><trkpt lat="40.5946" lon="15.1323817"><ele>82.0</ele><time>2026-05-02T12:43:25.828Z</time></trkpt><trkpt lat="40.5946033" lon="15.1321417"><ele>82.0</ele><time>2026-05-02T12:43:26.827Z</time></trkpt><trkpt lat="40.5946067" lon="15.1319017"><ele>82.0</ele><time>2026-05-02T12:43:27.828Z</time></trkpt><trkpt lat="40.5946133" lon="15.13167"><ele>82.0</ele><time>2026-05-02T12:43:28.828Z</time></trkpt><trkpt lat="40.5946283" lon="15.131435"><ele>82.66666666666666</ele><time>2026-05-02T12:43:29.828Z</time></trkpt><trkpt lat="40.594645" lon="15.1312083"><ele>83.33333333333333</ele><time>2026-05-02T12:43:30.827Z</time></trkpt><trkpt lat="40.5946517" lon="15.13098"><ele>84.0</ele><time>2026-05-02T12:43:31.827Z</time></trkpt><trkpt lat="40.5946583" lon="15.130745"><ele>83.33333333333333</ele><time>2026-05-02T12:43:32.827Z</time></trkpt><trkpt lat="40.5946617" lon="15.130515"><ele>82.66666666666666</ele><time>2026-05-02T12:43:33.828Z</time></trkpt><trkpt lat="40.5946667" lon="15.1302883"><ele>82.0</ele><time>2026-05-02T12:43:34.828Z</time></trkpt><trkpt lat="40.594675" lon="15.1300617"><ele>82.66666666666666</ele><time>2026-05-02T12:43:35.827Z</time></trkpt><trkpt lat="40.59468" lon="15.1298333"><ele>83.33333333333333</ele><time>2026-05-02T12:43:36.828Z</time></trkpt><trkpt lat="40.5946833" lon="15.1296067"><ele>84.0</ele><time>2026-05-02T12:43:37.828Z</time></trkpt><trkpt lat="40.5946967" lon="15.1293783"><ele>84.0</ele><time>2026-05-02T12:43:38.827Z</time></trkpt><trkpt lat="40.5947067" lon="15.1291517"><ele>84.0</ele><time>2026-05-02T12:43:39.828Z</time></trkpt><trkpt lat="40.5947167" lon="15.128925"><ele>84.0</ele><time>2026-05-02T12:43:40.828Z</time></trkpt><trkpt lat="40.594725" lon="15.1287"><ele>83.33333333333333</ele><time>2026-05-02T12:43:41.828Z</time></trkpt><trkpt lat="40.5947367" lon="15.12847"><ele>82.66666666666666</ele><time>2026-05-02T12:43:42.828Z</time></trkpt><trkpt lat="40.59474" lon="15.1282383"><ele>82.0</ele><time>2026-05-02T12:43:43.827Z</time></trkpt><trkpt lat="40.5947533" lon="15.1280067"><ele>82.0</ele><time>2026-05-02T12:43:44.828Z</time></trkpt><trkpt lat="40.5947633" lon="15.1277683"><ele>82.0</ele><time>2026-05-02T12:43:45.827Z</time></trkpt><trkpt lat="40.5947767" lon="15.1275317"><ele>82.0</ele><time>2026-05-02T12:43:46.827Z</time></trkpt><trkpt lat="40.5947917" lon="15.12729"><ele>81.33333333333333</ele><time>2026-05-02T12:43:47.827Z</time></trkpt><trkpt lat="40.5947967" lon="15.1270517"><ele>80.66666666666667</ele><time>2026-05-02T12:43:48.827Z</time></trkpt><trkpt lat="40.5948017" lon="15.1268183"><ele>80.0</ele><time>2026-05-02T12:43:49.827Z</time></trkpt><trkpt lat="40.59481" lon="15.12658"><ele>79.66666666666667</ele><time>2026-05-02T12:43:50.828Z</time></trkpt><trkpt lat="40.5948217" lon="15.1263433"><ele>79.33333333333333</ele><time>2026-05-02T12:43:51.827Z</time></trkpt><trkpt lat="40.59483" lon="15.12611"><ele>79.0</ele><time>2026-05-02T12:43:52.828Z</time></trkpt><trkpt lat="40.5948333" lon="15.1258767"><ele>79.0</ele><time>2026-05-02T12:43:53.828Z</time></trkpt><trkpt lat="40.5948367" lon="15.1256467"><ele>79.0</ele><time>2026-05-02T12:43:54.828Z</time></trkpt><trkpt lat="40.5948417" lon="15.1254133"><ele>79.0</ele><time>2026-05-02T12:43:55.828Z</time></trkpt><trkpt lat="40.5948517" lon="15.1251833"><ele>79.0</ele><time>2026-05-02T12:43:56.828Z</time></trkpt><trkpt lat="40.5948617" lon="15.124955"><ele>79.0</ele><time>2026-05-02T12:43:57.827Z</time></trkpt><trkpt lat="40.59487" lon="15.12472"><ele>79.0</ele><time>2026-05-02T12:43:58.827Z</time></trkpt><trkpt lat="40.5948767" lon="15.1244867"><ele>79.33333333333333</ele><time>2026-05-02T12:43:59.827Z</time></trkpt><trkpt lat="40.59489" lon="15.1242633"><ele>79.66666666666667</ele><time>2026-05-02T12:44:00.827Z</time></trkpt><trkpt lat="40.5949017" lon="15.1240567"><ele>80.0</ele><time>2026-05-02T12:44:01.828Z</time></trkpt><trkpt lat="40.5949117" lon="15.1238533"><ele>80.0</ele><time>2026-05-02T12:44:02.827Z</time></trkpt><trkpt lat="40.5949267" lon="15.123665"><ele>80.0</ele><time>2026-05-02T12:44:03.827Z</time></trkpt><trkpt lat="40.5949267" lon="15.1234833"><ele>80.0</ele><time>2026-05-02T12:44:04.827Z</time></trkpt><trkpt lat="40.59493" lon="15.1233133"><ele>80.0</ele><time>2026-05-02T12:44:05.827Z</time></trkpt><trkpt lat="40.5949283" lon="15.1231683"><ele>79.85714285714286</ele><time>2026-05-02T12:44:06.828Z</time></trkpt><trkpt lat="40.5949317" lon="15.1230683"><ele>79.71428571428572</ele><time>2026-05-02T12:44:07.827Z</time></trkpt><trkpt lat="40.5949367" lon="15.1229833"><ele>79.57142857142858</ele><time>2026-05-02T12:44:08.828Z</time></trkpt><trkpt lat="40.5949517" lon="15.1228983"><ele>79.42857142857143</ele><time>2026-05-02T12:44:09.828Z</time></trkpt><trkpt lat="40.5949783" lon="15.1228133"><ele>79.28571428571429</ele><time>2026-05-02T12:44:10.828Z</time></trkpt><trkpt lat="40.5950067" lon="15.12272"><ele>79.14285714285715</ele><time>2026-05-02T12:44:11.828Z</time></trkpt><trkpt lat="40.5950317" lon="15.122635"><ele>79.0</ele><time>2026-05-02T12:44:12.827Z</time></trkpt><trkpt lat="40.59506" lon="15.1225567"><ele>79.0</ele><time>2026-05-02T12:44:13.828Z</time></trkpt><trkpt lat="40.5950967" lon="15.122485"><ele>79.0</ele><time>2026-05-02T12:44:14.828Z</time></trkpt><trkpt lat="40.5951533" lon="15.1223767"><ele>79.0</ele><time>2026-05-02T12:44:16.827Z</time></trkpt><trkpt lat="40.5952" lon="15.1223017"><ele>79.0</ele><time>2026-05-02T12:44:18.828Z</time></trkpt><trkpt lat="40.595255" lon="15.1222283"><ele>79.0</ele><time>2026-05-02T12:44:22.828Z</time></trkpt><trkpt lat="40.59532" lon="15.1221817"><ele>79.0</ele><time>2026-05-02T12:44:25.827Z</time></trkpt><trkpt lat="40.595385" lon="15.1221167"><ele>77.33333333333333</ele><time>2026-05-02T12:44:27.827Z</time></trkpt><trkpt lat="40.5954533" lon="15.1220367"><ele>75.66666666666666</ele><time>2026-05-02T12:44:29.828Z</time></trkpt><trkpt lat="40.5955183" lon="15.1219683"><ele>74.0</ele><time>2026-05-02T12:44:31.827Z</time></trkpt><trkpt lat="40.5955617" lon="15.1219017"><ele>72.33333333333333</ele><time>2026-05-02T12:44:33.828Z</time></trkpt><trkpt lat="40.5956333" lon="15.1218483"><ele>70.66666666666667</ele><time>2026-05-02T12:44:35.828Z</time></trkpt><trkpt lat="40.5957083" lon="15.121775"><ele>69.0</ele><time>2026-05-02T12:44:37.827Z</time></trkpt><trkpt lat="40.5957733" lon="15.121735"><ele>69.0</ele><time>2026-05-02T12:44:39.827Z</time></trkpt><trkpt lat="40.5958633" lon="15.1217233"><ele>69.0</ele><time>2026-05-02T12:44:41.828Z</time></trkpt><trkpt lat="40.59594" lon="15.1217267"><ele>69.0</ele><time>2026-05-02T12:44:43.828Z</time></trkpt><trkpt lat="40.5960117" lon="15.12175"><ele>69.0</ele><time>2026-05-02T12:44:45.827Z</time></trkpt><trkpt lat="40.5960833" lon="15.1217983"><ele>69.0</ele><time>2026-05-02T12:44:47.827Z</time></trkpt><trkpt lat="40.5961733" lon="15.12184"><ele>69.0</ele><time>2026-05-02T12:44:49.828Z</time></trkpt><trkpt lat="40.5962767" lon="15.12188"><ele>65.8</ele><time>2026-05-02T12:44:51.827Z</time></trkpt><trkpt lat="40.5963817" lon="15.1219217"><ele>62.60000000000001</ele><time>2026-05-02T12:44:53.828Z</time></trkpt><trkpt lat="40.5964817" lon="15.1219633"><ele>59.4</ele><time>2026-05-02T12:44:55.828Z</time></trkpt><trkpt lat="40.5965717" lon="15.1220283"><ele>56.2</ele><time>2026-05-02T12:44:57.827Z</time></trkpt><trkpt lat="40.596645" lon="15.122055"><ele>53.0</ele><time>2026-05-02T12:44:59.827Z</time></trkpt><trkpt lat="40.5966883" lon="15.121945"><ele>53.0</ele><time>2026-05-02T12:45:02.827Z</time></trkpt><trkpt lat="40.5966283" lon="15.1218367"><ele>53.0</ele><time>2026-05-02T12:45:04.826Z</time></trkpt><trkpt lat="40.5965333" lon="15.1217167"><ele>53.0</ele><time>2026-05-02T12:45:06.826Z</time></trkpt><trkpt lat="40.5964517" lon="15.1216333"><ele>53.0</ele><time>2026-05-02T12:45:08.827Z</time></trkpt><trkpt lat="40.59645" lon="15.1215133"><ele>53.0</ele><time>2026-05-02T12:45:11.827Z</time></trkpt><trkpt lat="40.596525" lon="15.1214633"><ele>50.599999999999994</ele><time>2026-05-02T12:45:14.826Z</time></trkpt><trkpt lat="40.596615" lon="15.121475"><ele>48.199999999999996</ele><time>2026-05-02T12:45:16.827Z</time></trkpt><trkpt lat="40.5967" lon="15.1215117"><ele>45.8</ele><time>2026-05-02T12:45:18.827Z</time></trkpt><trkpt lat="40.5968017" lon="15.12156"><ele>43.4</ele><time>2026-05-02T12:45:20.827Z</time></trkpt><trkpt lat="40.5969133" lon="15.1215633"><ele>41.0</ele><time>2026-05-02T12:45:22.827Z</time></trkpt><trkpt lat="40.5969833" lon="15.1215517"><ele>40.4</ele><time>2026-05-02T12:45:23.826Z</time></trkpt><trkpt lat="40.59707" lon="15.1215217"><ele>39.8</ele><time>2026-05-02T12:45:24.827Z</time></trkpt><trkpt lat="40.5971583" lon="15.1214817"><ele>39.199999999999996</ele><time>2026-05-02T12:45:25.827Z</time></trkpt><trkpt lat="40.5972317" lon="15.1214267"><ele>38.599999999999994</ele><time>2026-05-02T12:45:26.826Z</time></trkpt><trkpt lat="40.597295" lon="15.12135"><ele>38.0</ele><time>2026-05-02T12:45:27.826Z</time></trkpt><trkpt lat="40.5973533" lon="15.1212483"><ele>38.0</ele><time>2026-05-02T12:45:28.826Z</time></trkpt><trkpt lat="40.5974" lon="15.121135"><ele>38.0</ele><time>2026-05-02T12:45:29.826Z</time></trkpt><trkpt lat="40.59744" lon="15.121025"><ele>38.0</ele><time>2026-05-02T12:45:30.827Z</time></trkpt><trkpt lat="40.5974767" lon="15.1209233"><ele>38.0</ele><time>2026-05-02T12:45:31.827Z</time></trkpt><trkpt lat="40.5975117" lon="15.1208317"><ele>38.0</ele><time>2026-05-02T12:45:32.827Z</time></trkpt><trkpt lat="40.5975433" lon="15.1207433"><ele>38.0</ele><time>2026-05-02T12:45:33.827Z</time></trkpt><trkpt lat="40.5975683" lon="15.1206483"><ele>37.83333333333333</ele><time>2026-05-02T12:45:34.827Z</time></trkpt><trkpt lat="40.59758" lon="15.1205517"><ele>37.666666666666664</ele><time>2026-05-02T12:45:35.826Z</time></trkpt><trkpt lat="40.597575" lon="15.12045"><ele>37.5</ele><time>2026-05-02T12:45:36.827Z</time></trkpt><trkpt lat="40.59757" lon="15.1203483"><ele>37.333333333333336</ele><time>2026-05-02T12:45:37.826Z</time></trkpt><trkpt lat="40.597565" lon="15.12023"><ele>37.16666666666667</ele><time>2026-05-02T12:45:38.826Z</time></trkpt><trkpt lat="40.5975633" lon="15.1200983"><ele>37.0</ele><time>2026-05-02T12:45:39.826Z</time></trkpt><trkpt lat="40.597565" lon="15.119965"><ele>37.0</ele><time>2026-05-02T12:45:40.826Z</time></trkpt><trkpt lat="40.5975683" lon="15.1198333"><ele>37.0</ele><time>2026-05-02T12:45:41.826Z</time></trkpt><trkpt lat="40.59757" lon="15.1196983"><ele>37.0</ele><time>2026-05-02T12:45:42.826Z</time></trkpt><trkpt lat="40.5975733" lon="15.11956"><ele>37.0</ele><time>2026-05-02T12:45:43.826Z</time></trkpt><trkpt lat="40.597575" lon="15.119405"><ele>37.0</ele><time>2026-05-02T12:45:44.827Z</time></trkpt><trkpt lat="40.597565" lon="15.11923"><ele>41.0</ele><time>2026-05-02T12:45:45.827Z</time></trkpt><trkpt lat="40.59754" lon="15.1190267"><ele>45.0</ele><time>2026-05-02T12:45:46.827Z</time></trkpt><trkpt lat="40.5974833" lon="15.1188083"><ele>49.0</ele><time>2026-05-02T12:45:47.827Z</time></trkpt><trkpt lat="40.5974167" lon="15.118605"><ele>49.0</ele><time>2026-05-02T12:45:48.827Z</time></trkpt><trkpt lat="40.59735" lon="15.1184367"><ele>49.0</ele><time>2026-05-02T12:45:49.827Z</time></trkpt><trkpt lat="40.597295" lon="15.1182967"><ele>49.0</ele><time>2026-05-02T12:45:50.826Z</time></trkpt><trkpt lat="40.5972567" lon="15.1181883"><ele>49.0</ele><time>2026-05-02T12:45:51.826Z</time></trkpt><trkpt lat="40.5972567" lon="15.118095"><ele>49.0</ele><time>2026-05-02T12:45:52.827Z</time></trkpt><trkpt lat="40.59729" lon="15.118015"><ele>48.99999999999999</ele><time>2026-05-02T12:45:53.826Z</time></trkpt><trkpt lat="40.59736" lon="15.11799"><ele>49.0</ele><time>2026-05-02T12:45:54.827Z</time></trkpt><trkpt lat="40.597445" lon="15.1180267"><ele>49.0</ele><time>2026-05-02T12:45:55.826Z</time></trkpt><trkpt lat="40.59753" lon="15.118095"><ele>49.0</ele><time>2026-05-02T12:45:56.826Z</time></trkpt><trkpt lat="40.5975917" lon="15.1181933"><ele>48.99999999999999</ele><time>2026-05-02T12:45:57.827Z</time></trkpt><trkpt lat="40.5976567" lon="15.1182667"><ele>49.0</ele><time>2026-05-02T12:45:58.826Z</time></trkpt><trkpt lat="40.5977217" lon="15.118265"><ele>52.2</ele><time>2026-05-02T12:45:59.827Z</time></trkpt><trkpt lat="40.59777" lon="15.1182117"><ele>55.400000000000006</ele><time>2026-05-02T12:46:00.826Z</time></trkpt><trkpt lat="40.5977417" lon="15.118065"><ele>58.6</ele><time>2026-05-02T12:46:02.826Z</time></trkpt><trkpt lat="40.5976733" lon="15.1179817"><ele>61.8</ele><time>2026-05-02T12:46:03.827Z</time></trkpt><trkpt lat="40.5975533" lon="15.1178917"><ele>65.0</ele><time>2026-05-02T12:46:04.827Z</time></trkpt><trkpt lat="40.597435" lon="15.1177767"><ele>65.0</ele><time>2026-05-02T12:46:05.826Z</time></trkpt><trkpt lat="40.5973283" lon="15.1176317"><ele>65.0</ele><time>2026-05-02T12:46:06.826Z</time></trkpt><trkpt lat="40.5972383" lon="15.1174583"><ele>65.0</ele><time>2026-05-02T12:46:07.826Z</time></trkpt><trkpt lat="40.5971633" lon="15.1172933"><ele>67.5</ele><time>2026-05-02T12:46:08.827Z</time></trkpt><trkpt lat="40.5971183" lon="15.1171383"><ele>70.0</ele><time>2026-05-02T12:46:09.827Z</time></trkpt><trkpt lat="40.5970817" lon="15.1169967"><ele>72.5</ele><time>2026-05-02T12:46:10.826Z</time></trkpt><trkpt lat="40.5971117" lon="15.1168383"><ele>75.0</ele><time>2026-05-02T12:46:11.827Z</time></trkpt><trkpt lat="40.5971783" lon="15.1166533"><ele>76.33333333333333</ele><time>2026-05-02T12:46:12.826Z</time></trkpt><trkpt lat="40.597275" lon="15.11646"><ele>77.66666666666666</ele><time>2026-05-02T12:46:13.827Z</time></trkpt><trkpt lat="40.5973533" lon="15.1162667"><ele>79.0</ele><time>2026-05-02T12:46:14.826Z</time></trkpt><trkpt lat="40.5974333" lon="15.116095"><ele>79.0</ele><time>2026-05-02T12:46:15.827Z</time></trkpt><trkpt lat="40.5974983" lon="15.11595"><ele>79.0</ele><time>2026-05-02T12:46:16.827Z</time></trkpt><trkpt lat="40.5975533" lon="15.115825"><ele>79.0</ele><time>2026-05-02T12:46:17.826Z</time></trkpt><trkpt lat="40.5975883" lon="15.1157183"><ele>79.0</ele><time>2026-05-02T12:46:18.827Z</time></trkpt><trkpt lat="40.59763" lon="15.1156367"><ele>79.0</ele><time>2026-05-02T12:46:19.826Z</time></trkpt><trkpt lat="40.59766" lon="15.1155633"><ele>79.0</ele><time>2026-05-02T12:46:20.826Z</time></trkpt><trkpt lat="40.5977183" lon="15.1154283"><ele>79.0</ele><time>2026-05-02T12:46:22.826Z</time></trkpt><trkpt lat="40.5977783" lon="15.1152933"><ele>79.0</ele><time>2026-05-02T12:46:24.826Z</time></trkpt><trkpt lat="40.5978367" lon="15.1151583"><ele>79.0</ele><time>2026-05-02T12:46:26.827Z</time></trkpt><trkpt lat="40.5978917" lon="15.11502"><ele>80.16666666666666</ele><time>2026-05-02T12:46:28.826Z</time></trkpt><trkpt lat="40.5979583" lon="15.1148767"><ele>81.33333333333333</ele><time>2026-05-02T12:46:30.826Z</time></trkpt><trkpt lat="40.59799" lon="15.1148033"><ele>82.5</ele><time>2026-05-02T12:46:31.827Z</time></trkpt><trkpt lat="40.5980233" lon="15.114725"><ele>83.66666666666667</ele><time>2026-05-02T12:46:32.826Z</time></trkpt><trkpt lat="40.5980617" lon="15.1146383"><ele>84.83333333333334</ele><time>2026-05-02T12:46:33.827Z</time></trkpt><trkpt lat="40.598105" lon="15.1145433"><ele>86.0</ele><time>2026-05-02T12:46:34.827Z</time></trkpt><trkpt lat="40.5981433" lon="15.11445"><ele>86.0</ele><time>2026-05-02T12:46:35.827Z</time></trkpt><trkpt lat="40.5981817" lon="15.1143567"><ele>86.0</ele><time>2026-05-02T12:46:36.827Z</time></trkpt><trkpt lat="40.5982233" lon="15.1142517"><ele>86.0</ele><time>2026-05-02T12:46:37.826Z</time></trkpt><trkpt lat="40.598265" lon="15.1141333"><ele>86.0</ele><time>2026-05-02T12:46:38.826Z</time></trkpt><trkpt lat="40.5983283" lon="15.113995"><ele>86.0</ele><time>2026-05-02T12:46:39.827Z</time></trkpt><trkpt lat="40.5983967" lon="15.1138367"><ele>86.75</ele><time>2026-05-02T12:46:40.827Z</time></trkpt><trkpt lat="40.5984717" lon="15.1136667"><ele>87.5</ele><time>2026-05-02T12:46:41.827Z</time></trkpt><trkpt lat="40.5985633" lon="15.1135083"><ele>88.25</ele><time>2026-05-02T12:46:42.826Z</time></trkpt><trkpt lat="40.598665" lon="15.1133667"><ele>89.0</ele><time>2026-05-02T12:46:43.826Z</time></trkpt><trkpt lat="40.5987767" lon="15.113245"><ele>88.0</ele><time>2026-05-02T12:46:44.827Z</time></trkpt><trkpt lat="40.5989083" lon="15.1131417"><ele>87.0</ele><time>2026-05-02T12:46:45.827Z</time></trkpt><trkpt lat="40.5990533" lon="15.1130383"><ele>86.0</ele><time>2026-05-02T12:46:46.827Z</time></trkpt><trkpt lat="40.5992117" lon="15.1129333"><ele>86.0</ele><time>2026-05-02T12:46:47.827Z</time></trkpt><trkpt lat="40.59937" lon="15.11283"><ele>86.0</ele><time>2026-05-02T12:46:48.826Z</time></trkpt><trkpt lat="40.599525" lon="15.1127267"><ele>86.0</ele><time>2026-05-02T12:46:49.827Z</time></trkpt><trkpt lat="40.5996833" lon="15.1126333"><ele>86.0</ele><time>2026-05-02T12:46:50.826Z</time></trkpt><trkpt lat="40.5998483" lon="15.112535"><ele>86.0</ele><time>2026-05-02T12:46:51.826Z</time></trkpt><trkpt lat="40.60002" lon="15.1124483"><ele>86.0</ele><time>2026-05-02T12:46:52.826Z</time></trkpt><trkpt lat="40.6002" lon="15.112345"><ele>87.0</ele><time>2026-05-02T12:46:53.827Z</time></trkpt><trkpt lat="40.600365" lon="15.1122183"><ele>88.0</ele><time>2026-05-02T12:46:54.826Z</time></trkpt><trkpt lat="40.6005283" lon="15.1120733"><ele>89.0</ele><time>2026-05-02T12:46:55.827Z</time></trkpt><trkpt lat="40.600685" lon="15.11192"><ele>89.0</ele><time>2026-05-02T12:46:56.826Z</time></trkpt><trkpt lat="40.6008383" lon="15.11178"><ele>89.0</ele><time>2026-05-02T12:46:57.826Z</time></trkpt><trkpt lat="40.6009833" lon="15.111655"><ele>89.0</ele><time>2026-05-02T12:46:58.827Z</time></trkpt><trkpt lat="40.6011283" lon="15.1115433"><ele>90.66666666666667</ele><time>2026-05-02T12:46:59.827Z</time></trkpt><trkpt lat="40.601275" lon="15.1114417"><ele>92.33333333333333</ele><time>2026-05-02T12:47:00.827Z</time></trkpt><trkpt lat="40.6014283" lon="15.1113283"><ele>94.0</ele><time>2026-05-02T12:47:01.827Z</time></trkpt><trkpt lat="40.601585" lon="15.1112"><ele>94.0</ele><time>2026-05-02T12:47:02.826Z</time></trkpt><trkpt lat="40.6017267" lon="15.1110333"><ele>94.0</ele><time>2026-05-02T12:47:03.826Z</time></trkpt><trkpt lat="40.6018617" lon="15.1108733"><ele>94.0</ele><time>2026-05-02T12:47:04.826Z</time></trkpt><trkpt lat="40.6019933" lon="15.1107167"><ele>93.33333333333333</ele><time>2026-05-02T12:47:05.826Z</time></trkpt><trkpt lat="40.6021217" lon="15.1105717"><ele>92.66666666666667</ele><time>2026-05-02T12:47:06.826Z</time></trkpt><trkpt lat="40.60226" lon="15.1104333"><ele>92.0</ele><time>2026-05-02T12:47:07.827Z</time></trkpt><trkpt lat="40.6024083" lon="15.1102917"><ele>92.0</ele><time>2026-05-02T12:47:08.826Z</time></trkpt><trkpt lat="40.6025717" lon="15.1101367"><ele>92.0</ele><time>2026-05-02T12:47:09.827Z</time></trkpt><trkpt lat="40.602745" lon="15.1099733"><ele>92.0</ele><time>2026-05-02T12:47:10.826Z</time></trkpt><trkpt lat="40.602905" lon="15.1097967"><ele>93.0</ele><time>2026-05-02T12:47:11.827Z</time></trkpt><trkpt lat="40.6030567" lon="15.1096217"><ele>94.0</ele><time>2026-05-02T12:47:12.827Z</time></trkpt><trkpt lat="40.6031867" lon="15.1094417"><ele>95.0</ele><time>2026-05-02T12:47:13.826Z</time></trkpt><trkpt lat="40.6032967" lon="15.1092467"><ele>94.33333333333334</ele><time>2026-05-02T12:47:14.827Z</time></trkpt><trkpt lat="40.603395" lon="15.1090383"><ele>93.66666666666667</ele><time>2026-05-02T12:47:15.826Z</time></trkpt><trkpt lat="40.6034983" lon="15.1088083"><ele>93.0</ele><time>2026-05-02T12:47:16.827Z</time></trkpt><trkpt lat="40.6036" lon="15.1085467"><ele>93.5</ele><time>2026-05-02T12:47:17.826Z</time></trkpt><trkpt lat="40.603705" lon="15.108255"><ele>94.0</ele><time>2026-05-02T12:47:18.827Z</time></trkpt><trkpt lat="40.6038133" lon="15.107945"><ele>94.0</ele><time>2026-05-02T12:47:19.826Z</time></trkpt><trkpt lat="40.603925" lon="15.107625"><ele>94.0</ele><time>2026-05-02T12:47:20.826Z</time></trkpt><trkpt lat="40.6040483" lon="15.107295"><ele>91.5</ele><time>2026-05-02T12:47:21.826Z</time></trkpt><trkpt lat="40.6041767" lon="15.1069583"><ele>89.0</ele><time>2026-05-02T12:47:22.827Z</time></trkpt><trkpt lat="40.6043117" lon="15.106625"><ele>90.5</ele><time>2026-05-02T12:47:23.826Z</time></trkpt><trkpt lat="40.6044317" lon="15.1063117"><ele>92.0</ele><time>2026-05-02T12:47:24.827Z</time></trkpt><trkpt lat="40.6045467" lon="15.1060083"><ele>94.5</ele><time>2026-05-02T12:47:25.827Z</time></trkpt><trkpt lat="40.6046567" lon="15.1057167"><ele>97.0</ele><time>2026-05-02T12:47:26.826Z</time></trkpt><trkpt lat="40.6047583" lon="15.1054383"><ele>97.0</ele><time>2026-05-02T12:47:27.827Z</time></trkpt><trkpt lat="40.6048617" lon="15.1051817"><ele>97.0</ele><time>2026-05-02T12:47:28.826Z</time></trkpt><trkpt lat="40.6049667" lon="15.10493"><ele>97.0</ele><time>2026-05-02T12:47:29.827Z</time></trkpt><trkpt lat="40.60508" lon="15.1046867"><ele>97.0</ele><time>2026-05-02T12:47:30.827Z</time></trkpt><trkpt lat="40.6051967" lon="15.1044533"><ele>97.0</ele><time>2026-05-02T12:47:31.827Z</time></trkpt><trkpt lat="40.6053133" lon="15.104235"><ele>97.0</ele><time>2026-05-02T12:47:32.826Z</time></trkpt><trkpt lat="40.605415" lon="15.1040167"><ele>97.33333333333334</ele><time>2026-05-02T12:47:33.827Z</time></trkpt><trkpt lat="40.6055117" lon="15.103795"><ele>97.66666666666666</ele><time>2026-05-02T12:47:34.827Z</time></trkpt><trkpt lat="40.6055983" lon="15.1035533"><ele>98.0</ele><time>2026-05-02T12:47:35.826Z</time></trkpt><trkpt lat="40.6056683" lon="15.1032833"><ele>97.0</ele><time>2026-05-02T12:47:36.827Z</time></trkpt><trkpt lat="40.6057317" lon="15.1029883"><ele>96.0</ele><time>2026-05-02T12:47:37.826Z</time></trkpt><trkpt lat="40.6057817" lon="15.1026717"><ele>95.0</ele><time>2026-05-02T12:47:38.827Z</time></trkpt><trkpt lat="40.605825" lon="15.1023433"><ele>94.0</ele><time>2026-05-02T12:47:39.826Z</time></trkpt><trkpt lat="40.6058617" lon="15.1020217"><ele>94.0</ele><time>2026-05-02T12:47:40.827Z</time></trkpt><trkpt lat="40.605905" lon="15.1017133"><ele>94.0</ele><time>2026-05-02T12:47:41.826Z</time></trkpt><trkpt lat="40.6059433" lon="15.1014217"><ele>94.0</ele><time>2026-05-02T12:47:42.826Z</time></trkpt><trkpt lat="40.6059767" lon="15.1011383"><ele>94.0</ele><time>2026-05-02T12:47:43.826Z</time></trkpt><trkpt lat="40.6060033" lon="15.1008417"><ele>94.0</ele><time>2026-05-02T12:47:44.826Z</time></trkpt><trkpt lat="40.6060183" lon="15.1005367"><ele>95.0</ele><time>2026-05-02T12:47:45.826Z</time></trkpt><trkpt lat="40.6060117" lon="15.100235"><ele>96.0</ele><time>2026-05-02T12:47:46.827Z</time></trkpt><trkpt lat="40.6060217" lon="15.09994"><ele>95.66666666666667</ele><time>2026-05-02T12:47:47.826Z</time></trkpt><trkpt lat="40.6060267" lon="15.0996583"><ele>95.33333333333334</ele><time>2026-05-02T12:47:48.826Z</time></trkpt><trkpt lat="40.6060433" lon="15.09939"><ele>95.0</ele><time>2026-05-02T12:47:49.826Z</time></trkpt><trkpt lat="40.6060617" lon="15.0991383"><ele>95.0</ele><time>2026-05-02T12:47:50.826Z</time></trkpt><trkpt lat="40.606085" lon="15.0988783"><ele>95.0</ele><time>2026-05-02T12:47:51.827Z</time></trkpt><trkpt lat="40.6061083" lon="15.098615"><ele>95.0</ele><time>2026-05-02T12:47:52.827Z</time></trkpt><trkpt lat="40.6061417" lon="15.09834"><ele>94.5</ele><time>2026-05-02T12:47:53.827Z</time></trkpt><trkpt lat="40.60619" lon="15.0980567"><ele>94.0</ele><time>2026-05-02T12:47:54.827Z</time></trkpt><trkpt lat="40.60625" lon="15.0977567"><ele>94.0</ele><time>2026-05-02T12:47:55.826Z</time></trkpt><trkpt lat="40.6063117" lon="15.0974517"><ele>94.0</ele><time>2026-05-02T12:47:56.826Z</time></trkpt><trkpt lat="40.6063817" lon="15.0971517"><ele>94.0</ele><time>2026-05-02T12:47:57.826Z</time></trkpt><trkpt lat="40.6064533" lon="15.0968533"><ele>94.0</ele><time>2026-05-02T12:47:58.826Z</time></trkpt><trkpt lat="40.6065167" lon="15.0965533"><ele>94.0</ele><time>2026-05-02T12:47:59.826Z</time></trkpt><trkpt lat="40.6065817" lon="15.0962467"><ele>94.0</ele><time>2026-05-02T12:48:00.826Z</time></trkpt><trkpt lat="40.6066467" lon="15.0959433"><ele>94.33333333333333</ele><time>2026-05-02T12:48:01.826Z</time></trkpt><trkpt lat="40.6067067" lon="15.09565"><ele>94.66666666666667</ele><time>2026-05-02T12:48:02.827Z</time></trkpt><trkpt lat="40.6067633" lon="15.0953817"><ele>95.0</ele><time>2026-05-02T12:48:03.826Z</time></trkpt><trkpt lat="40.6068183" lon="15.0951217"><ele>95.0</ele><time>2026-05-02T12:48:04.826Z</time></trkpt><trkpt lat="40.60688" lon="15.0948633"><ele>95.0</ele><time>2026-05-02T12:48:05.827Z</time></trkpt><trkpt lat="40.6069317" lon="15.094605"><ele>95.0</ele><time>2026-05-02T12:48:06.827Z</time></trkpt><trkpt lat="40.6069883" lon="15.09434"><ele>94.66666666666667</ele><time>2026-05-02T12:48:07.827Z</time></trkpt><trkpt lat="40.6070433" lon="15.094075"><ele>94.33333333333333</ele><time>2026-05-02T12:48:08.827Z</time></trkpt><trkpt lat="40.6071017" lon="15.0938133"><ele>94.0</ele><time>2026-05-02T12:48:09.827Z</time></trkpt><trkpt lat="40.60715" lon="15.0935633"><ele>94.0</ele><time>2026-05-02T12:48:10.827Z</time></trkpt><trkpt lat="40.6071967" lon="15.0933233"><ele>94.0</ele><time>2026-05-02T12:48:11.827Z</time></trkpt><trkpt lat="40.6072417" lon="15.0931"><ele>94.0</ele><time>2026-05-02T12:48:12.827Z</time></trkpt><trkpt lat="40.60728" lon="15.0928867"><ele>94.33333333333333</ele><time>2026-05-02T12:48:13.826Z</time></trkpt><trkpt lat="40.607335" lon="15.0926733"><ele>94.66666666666667</ele><time>2026-05-02T12:48:14.826Z</time></trkpt><trkpt lat="40.6074033" lon="15.0924683"><ele>95.0</ele><time>2026-05-02T12:48:15.827Z</time></trkpt><trkpt lat="40.6075017" lon="15.09226"><ele>95.0</ele><time>2026-05-02T12:48:16.827Z</time></trkpt><trkpt lat="40.6076183" lon="15.09205"><ele>95.0</ele><time>2026-05-02T12:48:17.827Z</time></trkpt><trkpt lat="40.6077583" lon="15.091835"><ele>95.0</ele><time>2026-05-02T12:48:18.827Z</time></trkpt><trkpt lat="40.6079083" lon="15.091615"><ele>95.5</ele><time>2026-05-02T12:48:19.827Z</time></trkpt><trkpt lat="40.6080533" lon="15.0913817"><ele>96.0</ele><time>2026-05-02T12:48:20.827Z</time></trkpt><trkpt lat="40.6082033" lon="15.09115"><ele>96.0</ele><time>2026-05-02T12:48:21.827Z</time></trkpt><trkpt lat="40.6083467" lon="15.0909333"><ele>96.0</ele><time>2026-05-02T12:48:22.826Z</time></trkpt><trkpt lat="40.6084817" lon="15.0907283"><ele>96.0</ele><time>2026-05-02T12:48:23.827Z</time></trkpt><trkpt lat="40.6086183" lon="15.090525"><ele>96.0</ele><time>2026-05-02T12:48:24.827Z</time></trkpt><trkpt lat="40.60876" lon="15.0903233"><ele>96.0</ele><time>2026-05-02T12:48:25.826Z</time></trkpt><trkpt lat="40.6089067" lon="15.0901283"><ele>96.0</ele><time>2026-05-02T12:48:26.826Z</time></trkpt><trkpt lat="40.6090567" lon="15.089945"><ele>95.66666666666667</ele><time>2026-05-02T12:48:27.827Z</time></trkpt><trkpt lat="40.609215" lon="15.08977"><ele>95.33333333333334</ele><time>2026-05-02T12:48:28.827Z</time></trkpt><trkpt lat="40.6093783" lon="15.0895983"><ele>95.0</ele><time>2026-05-02T12:48:29.826Z</time></trkpt><trkpt lat="40.6095317" lon="15.08942"><ele>95.0</ele><time>2026-05-02T12:48:30.827Z</time></trkpt><trkpt lat="40.609675" lon="15.08925"><ele>95.0</ele><time>2026-05-02T12:48:31.826Z</time></trkpt><trkpt lat="40.609815" lon="15.0890817"><ele>95.0</ele><time>2026-05-02T12:48:32.827Z</time></trkpt><trkpt lat="40.6099683" lon="15.0889117"><ele>94.66666666666667</ele><time>2026-05-02T12:48:33.826Z</time></trkpt><trkpt lat="40.6101217" lon="15.08874"><ele>94.33333333333333</ele><time>2026-05-02T12:48:34.827Z</time></trkpt><trkpt lat="40.6102733" lon="15.08857"><ele>94.0</ele><time>2026-05-02T12:48:35.826Z</time></trkpt><trkpt lat="40.610435" lon="15.0883933"><ele>92.66666666666666</ele><time>2026-05-02T12:48:36.826Z</time></trkpt><trkpt lat="40.6106017" lon="15.088215"><ele>91.33333333333333</ele><time>2026-05-02T12:48:37.826Z</time></trkpt><trkpt lat="40.6107633" lon="15.0880233"><ele>90.0</ele><time>2026-05-02T12:48:38.826Z</time></trkpt><trkpt lat="40.6109317" lon="15.0878367"><ele>90.0</ele><time>2026-05-02T12:48:39.827Z</time></trkpt><trkpt lat="40.6110983" lon="15.087645"><ele>90.0</ele><time>2026-05-02T12:48:40.826Z</time></trkpt><trkpt lat="40.6112633" lon="15.087455"><ele>90.0</ele><time>2026-05-02T12:48:41.826Z</time></trkpt><trkpt lat="40.61143" lon="15.0872667"><ele>90.0</ele><time>2026-05-02T12:48:42.827Z</time></trkpt><trkpt lat="40.6115967" lon="15.0870817"><ele>90.0</ele><time>2026-05-02T12:48:43.827Z</time></trkpt><trkpt lat="40.6117633" lon="15.0869"><ele>90.0</ele><time>2026-05-02T12:48:44.827Z</time></trkpt><trkpt lat="40.6119233" lon="15.0867183"><ele>91.33333333333333</ele><time>2026-05-02T12:48:45.827Z</time></trkpt><trkpt lat="40.6120817" lon="15.0865417"><ele>92.66666666666666</ele><time>2026-05-02T12:48:46.827Z</time></trkpt><trkpt lat="40.6122267" lon="15.0863667"><ele>94.0</ele><time>2026-05-02T12:48:47.827Z</time></trkpt><trkpt lat="40.61235" lon="15.08618"><ele>94.0</ele><time>2026-05-02T12:48:48.826Z</time></trkpt><trkpt lat="40.612455" lon="15.0859817"><ele>94.0</ele><time>2026-05-02T12:48:49.827Z</time></trkpt><trkpt lat="40.6125433" lon="15.0857683"><ele>94.0</ele><time>2026-05-02T12:48:50.826Z</time></trkpt><trkpt lat="40.612615" lon="15.085545"><ele>95.0</ele><time>2026-05-02T12:48:51.826Z</time></trkpt><trkpt lat="40.6126683" lon="15.0853133"><ele>96.0</ele><time>2026-05-02T12:48:52.827Z</time></trkpt><trkpt lat="40.6127117" lon="15.0850683"><ele>97.0</ele><time>2026-05-02T12:48:53.826Z</time></trkpt><trkpt lat="40.61275" lon="15.0848217"><ele>97.33333333333334</ele><time>2026-05-02T12:48:54.826Z</time></trkpt><trkpt lat="40.6127967" lon="15.0845733"><ele>97.66666666666666</ele><time>2026-05-02T12:48:55.826Z</time></trkpt><trkpt lat="40.6128367" lon="15.084325"><ele>98.0</ele><time>2026-05-02T12:48:56.827Z</time></trkpt><trkpt lat="40.6128733" lon="15.084085"><ele>98.66666666666666</ele><time>2026-05-02T12:48:57.826Z</time></trkpt><trkpt lat="40.6129033" lon="15.0838533"><ele>99.33333333333334</ele><time>2026-05-02T12:48:58.827Z</time></trkpt><trkpt lat="40.6129417" lon="15.0836183"><ele>100.0</ele><time>2026-05-02T12:48:59.827Z</time></trkpt><trkpt lat="40.6129867" lon="15.0833917"><ele>100.0</ele><time>2026-05-02T12:49:00.827Z</time></trkpt><trkpt lat="40.613025" lon="15.0831583"><ele>100.0</ele><time>2026-05-02T12:49:01.827Z</time></trkpt><trkpt lat="40.6130817" lon="15.0829283"><ele>100.0</ele><time>2026-05-02T12:49:02.826Z</time></trkpt><trkpt lat="40.613145" lon="15.082695"><ele>100.0</ele><time>2026-05-02T12:49:03.826Z</time></trkpt><trkpt lat="40.6132033" lon="15.0824517"><ele>100.0</ele><time>2026-05-02T12:49:04.827Z</time></trkpt><trkpt lat="40.6132583" lon="15.0822017"><ele>100.0</ele><time>2026-05-02T12:49:05.827Z</time></trkpt><trkpt lat="40.613305" lon="15.0819467"><ele>100.0</ele><time>2026-05-02T12:49:06.827Z</time></trkpt><trkpt lat="40.6133517" lon="15.0816933"><ele>100.0</ele><time>2026-05-02T12:49:07.826Z</time></trkpt><trkpt lat="40.6133867" lon="15.081435"><ele>100.0</ele><time>2026-05-02T12:49:08.827Z</time></trkpt><trkpt lat="40.6134367" lon="15.0811783"><ele>99.66666666666667</ele><time>2026-05-02T12:49:09.826Z</time></trkpt><trkpt lat="40.61349" lon="15.0809367"><ele>99.33333333333334</ele><time>2026-05-02T12:49:10.827Z</time></trkpt><trkpt lat="40.6135417" lon="15.0807"><ele>99.0</ele><time>2026-05-02T12:49:11.826Z</time></trkpt><trkpt lat="40.6136" lon="15.0804767"><ele>99.0</ele><time>2026-05-02T12:49:12.827Z</time></trkpt><trkpt lat="40.6136567" lon="15.0802517"><ele>99.0</ele><time>2026-05-02T12:49:13.827Z</time></trkpt><trkpt lat="40.6136983" lon="15.0800233"><ele>99.0</ele><time>2026-05-02T12:49:14.827Z</time></trkpt><trkpt lat="40.613735" lon="15.0797917"><ele>99.0</ele><time>2026-05-02T12:49:15.826Z</time></trkpt><trkpt lat="40.6137567" lon="15.0795583"><ele>99.0</ele><time>2026-05-02T12:49:16.827Z</time></trkpt><trkpt lat="40.61379" lon="15.0793483"><ele>99.0</ele><time>2026-05-02T12:49:17.826Z</time></trkpt><trkpt lat="40.6138217" lon="15.0791283"><ele>98.25</ele><time>2026-05-02T12:49:18.826Z</time></trkpt><trkpt lat="40.6138417" lon="15.078925"><ele>97.5</ele><time>2026-05-02T12:49:19.827Z</time></trkpt><trkpt lat="40.613855" lon="15.0787383"><ele>96.75</ele><time>2026-05-02T12:49:20.826Z</time></trkpt><trkpt lat="40.613875" lon="15.0785733"><ele>96.0</ele><time>2026-05-02T12:49:21.827Z</time></trkpt><trkpt lat="40.6139017" lon="15.0784117"><ele>95.25</ele><time>2026-05-02T12:49:22.826Z</time></trkpt><trkpt lat="40.6139267" lon="15.0782517"><ele>94.5</ele><time>2026-05-02T12:49:23.826Z</time></trkpt><trkpt lat="40.613965" lon="15.0780783"><ele>93.75</ele><time>2026-05-02T12:49:24.826Z</time></trkpt><trkpt lat="40.6140167" lon="15.0779067"><ele>93.0</ele><time>2026-05-02T12:49:25.826Z</time></trkpt><trkpt lat="40.614095" lon="15.07773"><ele>93.0</ele><time>2026-05-02T12:49:26.826Z</time></trkpt><trkpt lat="40.6141583" lon="15.077535"><ele>93.0</ele><time>2026-05-02T12:49:27.827Z</time></trkpt><trkpt lat="40.6142233" lon="15.0773467"><ele>93.0</ele><time>2026-05-02T12:49:28.826Z</time></trkpt><trkpt lat="40.61429" lon="15.0771717"><ele>93.25</ele><time>2026-05-02T12:49:29.827Z</time></trkpt><trkpt lat="40.6143483" lon="15.0769983"><ele>93.5</ele><time>2026-05-02T12:49:30.827Z</time></trkpt><trkpt lat="40.614405" lon="15.0768383"><ele>93.75</ele><time>2026-05-02T12:49:31.827Z</time></trkpt><trkpt lat="40.6144633" lon="15.076685"><ele>94.0</ele><time>2026-05-02T12:49:32.827Z</time></trkpt><trkpt lat="40.6145233" lon="15.076545"><ele>94.0</ele><time>2026-05-02T12:49:33.826Z</time></trkpt><trkpt lat="40.6145683" lon="15.0764083"><ele>94.0</ele><time>2026-05-02T12:49:34.825Z</time></trkpt><trkpt lat="40.614615" lon="15.0762783"><ele>94.0</ele><time>2026-05-02T12:49:35.826Z</time></trkpt><trkpt lat="40.6146583" lon="15.0761567"><ele>94.0</ele><time>2026-05-02T12:49:36.826Z</time></trkpt><trkpt lat="40.6146883" lon="15.0760617"><ele>94.0</ele><time>2026-05-02T12:49:37.826Z</time></trkpt><trkpt lat="40.6147483" lon="15.07596"><ele>94.0</ele><time>2026-05-02T12:49:39.826Z</time></trkpt><trkpt lat="40.6148117" lon="15.07594"><ele>94.0</ele><time>2026-05-02T12:49:41.825Z</time></trkpt><trkpt lat="40.614875" lon="15.0758583"><ele>94.0</ele><time>2026-05-02T12:51:26.825Z</time></trkpt><trkpt lat="40.614865" lon="15.0757617"><ele>94.0</ele><time>2026-05-02T12:51:27.826Z</time></trkpt><trkpt lat="40.614835" lon="15.0756817"><ele>94.0</ele><time>2026-05-02T12:51:28.825Z</time></trkpt><trkpt lat="40.6147833" lon="15.0756217"><ele>94.0</ele><time>2026-05-02T12:51:29.826Z</time></trkpt><trkpt lat="40.614705" lon="15.07558"><ele>94.0</ele><time>2026-05-02T12:51:30.825Z</time></trkpt><trkpt lat="40.6146133" lon="15.0755417"><ele>93.75</ele><time>2026-05-02T12:51:31.826Z</time></trkpt><trkpt lat="40.6145217" lon="15.07547"><ele>93.5</ele><time>2026-05-02T12:51:32.826Z</time></trkpt><trkpt lat="40.61444" lon="15.0753617"><ele>93.25</ele><time>2026-05-02T12:51:33.825Z</time></trkpt><trkpt lat="40.61437" lon="15.07522"><ele>93.0</ele><time>2026-05-02T12:51:34.825Z</time></trkpt><trkpt lat="40.6143183" lon="15.0750567"><ele>91.75</ele><time>2026-05-02T12:51:35.825Z</time></trkpt><trkpt lat="40.614275" lon="15.0748817"><ele>90.5</ele><time>2026-05-02T12:51:36.826Z</time></trkpt><trkpt lat="40.6142483" lon="15.0747017"><ele>89.25</ele><time>2026-05-02T12:51:37.826Z</time></trkpt><trkpt lat="40.614235" lon="15.074525"><ele>88.0</ele><time>2026-05-02T12:51:38.825Z</time></trkpt><trkpt lat="40.6142267" lon="15.07435"><ele>88.0</ele><time>2026-05-02T12:51:39.825Z</time></trkpt><trkpt lat="40.614235" lon="15.0741817"><ele>88.0</ele><time>2026-05-02T12:51:40.825Z</time></trkpt><trkpt lat="40.6142433" lon="15.07402"><ele>88.0</ele><time>2026-05-02T12:51:41.826Z</time></trkpt><trkpt lat="40.61426" lon="15.0738683"><ele>88.0</ele><time>2026-05-02T12:51:42.826Z</time></trkpt><trkpt lat="40.6142817" lon="15.0737267"><ele>88.0</ele><time>2026-05-02T12:51:43.826Z</time></trkpt><trkpt lat="40.6143117" lon="15.0735917"><ele>88.0</ele><time>2026-05-02T12:51:44.826Z</time></trkpt><trkpt lat="40.6143433" lon="15.0734717"><ele>88.0</ele><time>2026-05-02T12:51:45.826Z</time></trkpt><trkpt lat="40.614385" lon="15.0733617"><ele>88.0</ele><time>2026-05-02T12:51:46.825Z</time></trkpt><trkpt lat="40.614435" lon="15.073265"><ele>88.0</ele><time>2026-05-02T12:51:47.825Z</time></trkpt><trkpt lat="40.6144867" lon="15.0731767"><ele>89.0</ele><time>2026-05-02T12:51:48.825Z</time></trkpt><trkpt lat="40.614525" lon="15.0730683"><ele>90.0</ele><time>2026-05-02T12:51:49.826Z</time></trkpt><trkpt lat="40.6145317" lon="15.0729533"><ele>91.0</ele><time>2026-05-02T12:51:50.826Z</time></trkpt><trkpt lat="40.6145267" lon="15.0728267"><ele>92.0</ele><time>2026-05-02T12:51:51.826Z</time></trkpt><trkpt lat="40.61454" lon="15.0727067"><ele>93.0</ele><time>2026-05-02T12:51:52.826Z</time></trkpt><trkpt lat="40.6145583" lon="15.0725933"><ele>93.0</ele><time>2026-05-02T12:51:53.825Z</time></trkpt><trkpt lat="40.614585" lon="15.0724867"><ele>93.0</ele><time>2026-05-02T12:51:54.826Z</time></trkpt><trkpt lat="40.6146117" lon="15.0723767"><ele>93.0</ele><time>2026-05-02T12:51:55.826Z</time></trkpt><trkpt lat="40.6146333" lon="15.0722667"><ele>93.0</ele><time>2026-05-02T12:51:56.826Z</time></trkpt><trkpt lat="40.6146483" lon="15.0721567"><ele>93.0</ele><time>2026-05-02T12:51:57.826Z</time></trkpt><trkpt lat="40.6146633" lon="15.0720367"><ele>93.0</ele><time>2026-05-02T12:51:58.825Z</time></trkpt><trkpt lat="40.6146667" lon="15.0719083"><ele>93.0</ele><time>2026-05-02T12:51:59.825Z</time></trkpt><trkpt lat="40.6146683" lon="15.071765"><ele>93.0</ele><time>2026-05-02T12:52:00.826Z</time></trkpt><trkpt lat="40.614655" lon="15.07161"><ele>93.0</ele><time>2026-05-02T12:52:01.825Z</time></trkpt><trkpt lat="40.6146483" lon="15.0714433"><ele>93.0</ele><time>2026-05-02T12:52:02.825Z</time></trkpt><trkpt lat="40.6146467" lon="15.07128"><ele>92.80000000000001</ele><time>2026-05-02T12:52:03.825Z</time></trkpt><trkpt lat="40.6146433" lon="15.071125"><ele>92.6</ele><time>2026-05-02T12:52:04.826Z</time></trkpt><trkpt lat="40.61463" lon="15.07098"><ele>92.4</ele><time>2026-05-02T12:52:05.826Z</time></trkpt><trkpt lat="40.61462" lon="15.0708383"><ele>92.19999999999999</ele><time>2026-05-02T12:52:06.826Z</time></trkpt><trkpt lat="40.6146167" lon="15.07069"><ele>92.0</ele><time>2026-05-02T12:52:07.826Z</time></trkpt><trkpt lat="40.6146033" lon="15.0705217"><ele>91.5</ele><time>2026-05-02T12:52:08.825Z</time></trkpt><trkpt lat="40.6145967" lon="15.0703367"><ele>91.0</ele><time>2026-05-02T12:52:09.826Z</time></trkpt><trkpt lat="40.614585" lon="15.070145"><ele>90.5</ele><time>2026-05-02T12:52:10.825Z</time></trkpt><trkpt lat="40.6145733" lon="15.06996"><ele>90.0</ele><time>2026-05-02T12:52:11.826Z</time></trkpt><trkpt lat="40.614565" lon="15.0697933"><ele>89.6</ele><time>2026-05-02T12:52:12.825Z</time></trkpt><trkpt lat="40.6145617" lon="15.0696333"><ele>89.2</ele><time>2026-05-02T12:52:13.826Z</time></trkpt><trkpt lat="40.6145533" lon="15.0694817"><ele>88.80000000000001</ele><time>2026-05-02T12:52:14.826Z</time></trkpt><trkpt lat="40.6145417" lon="15.0693567"><ele>88.4</ele><time>2026-05-02T12:52:15.825Z</time></trkpt><trkpt lat="40.6145417" lon="15.0692433"><ele>88.0</ele><time>2026-05-02T12:52:16.826Z</time></trkpt><trkpt lat="40.6145483" lon="15.0691517"><ele>87.66666666666666</ele><time>2026-05-02T12:52:17.826Z</time></trkpt><trkpt lat="40.6145533" lon="15.0690183"><ele>87.33333333333333</ele><time>2026-05-02T12:52:19.825Z</time></trkpt><trkpt lat="40.614555" lon="15.0689117"><ele>87.0</ele><time>2026-05-02T12:52:22.826Z</time></trkpt><trkpt lat="40.6145517" lon="15.0688217"><ele>86.66666666666667</ele><time>2026-05-02T12:53:08.826Z</time></trkpt><trkpt lat="40.6145483" lon="15.0687083"><ele>86.33333333333334</ele><time>2026-05-02T12:53:09.825Z</time></trkpt><trkpt lat="40.6145467" lon="15.0685667"><ele>86.0</ele><time>2026-05-02T12:53:10.825Z</time></trkpt><trkpt lat="40.6145333" lon="15.0683767"><ele>86.0</ele><time>2026-05-02T12:53:11.825Z</time></trkpt><trkpt lat="40.6145183" lon="15.06814"><ele>86.0</ele><time>2026-05-02T12:53:12.826Z</time></trkpt><trkpt lat="40.6144867" lon="15.067875"><ele>86.0</ele><time>2026-05-02T12:53:13.826Z</time></trkpt><trkpt lat="40.61447" lon="15.0675783"><ele>86.5</ele><time>2026-05-02T12:53:14.825Z</time></trkpt><trkpt lat="40.614445" lon="15.067275"><ele>87.0</ele><time>2026-05-02T12:53:15.825Z</time></trkpt><trkpt lat="40.614435" lon="15.066985"><ele>87.0</ele><time>2026-05-02T12:53:16.825Z</time></trkpt><trkpt lat="40.6144217" lon="15.06672"><ele>87.0</ele><time>2026-05-02T12:53:17.826Z</time></trkpt><trkpt lat="40.6144017" lon="15.066475"><ele>87.0</ele><time>2026-05-02T12:53:18.826Z</time></trkpt><trkpt lat="40.61439" lon="15.0662517"><ele>87.66666666666667</ele><time>2026-05-02T12:53:19.825Z</time></trkpt><trkpt lat="40.614375" lon="15.0660433"><ele>88.33333333333334</ele><time>2026-05-02T12:53:20.826Z</time></trkpt><trkpt lat="40.61436" lon="15.0658333"><ele>89.0</ele><time>2026-05-02T12:53:21.825Z</time></trkpt><trkpt lat="40.6143417" lon="15.0656217"><ele>89.33333333333334</ele><time>2026-05-02T12:53:22.825Z</time></trkpt><trkpt lat="40.614315" lon="15.065415"><ele>89.66666666666667</ele><time>2026-05-02T12:53:23.825Z</time></trkpt><trkpt lat="40.61427" lon="15.0652183"><ele>90.0</ele><time>2026-05-02T12:53:24.826Z</time></trkpt><trkpt lat="40.6142183" lon="15.0650383"><ele>90.5</ele><time>2026-05-02T12:53:25.826Z</time></trkpt><trkpt lat="40.614155" lon="15.0648667"><ele>91.0</ele><time>2026-05-02T12:53:26.825Z</time></trkpt><trkpt lat="40.61408" lon="15.0647017"><ele>91.5</ele><time>2026-05-02T12:53:27.826Z</time></trkpt><trkpt lat="40.6139867" lon="15.0645417"><ele>92.0</ele><time>2026-05-02T12:53:28.826Z</time></trkpt><trkpt lat="40.6138683" lon="15.0643733"><ele>92.0</ele><time>2026-05-02T12:53:29.826Z</time></trkpt><trkpt lat="40.613735" lon="15.0642133"><ele>92.0</ele><time>2026-05-02T12:53:30.826Z</time></trkpt><trkpt lat="40.61361" lon="15.06407"><ele>92.0</ele><time>2026-05-02T12:53:31.825Z</time></trkpt><trkpt lat="40.6135017" lon="15.0639383"><ele>91.5</ele><time>2026-05-02T12:53:32.826Z</time></trkpt><trkpt lat="40.6133983" lon="15.063805"><ele>91.0</ele><time>2026-05-02T12:53:33.825Z</time></trkpt><trkpt lat="40.6133067" lon="15.0636567"><ele>90.5</ele><time>2026-05-02T12:53:34.825Z</time></trkpt><trkpt lat="40.61322" lon="15.0634983"><ele>90.0</ele><time>2026-05-02T12:53:35.826Z</time></trkpt><trkpt lat="40.613135" lon="15.0633117"><ele>90.33333333333333</ele><time>2026-05-02T12:53:36.826Z</time></trkpt><trkpt lat="40.6130583" lon="15.0630983"><ele>90.66666666666666</ele><time>2026-05-02T12:53:37.826Z</time></trkpt><trkpt lat="40.6129883" lon="15.062865"><ele>91.0</ele><time>2026-05-02T12:53:38.825Z</time></trkpt><trkpt lat="40.6129117" lon="15.0626283"><ele>90.33333333333333</ele><time>2026-05-02T12:53:39.825Z</time></trkpt><trkpt lat="40.6128283" lon="15.0623833"><ele>89.66666666666667</ele><time>2026-05-02T12:53:40.825Z</time></trkpt><trkpt lat="40.61275" lon="15.0621617"><ele>89.0</ele><time>2026-05-02T12:53:41.825Z</time></trkpt><trkpt lat="40.6126667" lon="15.0619567"><ele>89.0</ele><time>2026-05-02T12:53:42.826Z</time></trkpt><trkpt lat="40.612585" lon="15.0617617"><ele>89.0</ele><time>2026-05-02T12:53:43.826Z</time></trkpt><trkpt lat="40.6125217" lon="15.06156"><ele>89.0</ele><time>2026-05-02T12:53:44.825Z</time></trkpt><trkpt lat="40.61248" lon="15.0613517"><ele>89.25</ele><time>2026-05-02T12:53:45.826Z</time></trkpt><trkpt lat="40.6124583" lon="15.0611533"><ele>89.5</ele><time>2026-05-02T12:53:46.826Z</time></trkpt><trkpt lat="40.6124417" lon="15.0609667"><ele>89.75</ele><time>2026-05-02T12:53:47.826Z</time></trkpt><trkpt lat="40.6124267" lon="15.06079"><ele>90.0</ele><time>2026-05-02T12:53:48.825Z</time></trkpt><trkpt lat="40.6124067" lon="15.0606367"><ele>90.25</ele><time>2026-05-02T12:53:49.825Z</time></trkpt><trkpt lat="40.6123883" lon="15.0604917"><ele>90.5</ele><time>2026-05-02T12:53:50.826Z</time></trkpt><trkpt lat="40.612365" lon="15.0603283"><ele>90.75</ele><time>2026-05-02T12:53:51.825Z</time></trkpt><trkpt lat="40.6123333" lon="15.06013"><ele>91.0</ele><time>2026-05-02T12:53:52.825Z</time></trkpt><trkpt lat="40.6122933" lon="15.0599033"><ele>91.33333333333333</ele><time>2026-05-02T12:53:53.825Z</time></trkpt><trkpt lat="40.61225" lon="15.05964"><ele>91.66666666666667</ele><time>2026-05-02T12:53:54.825Z</time></trkpt><trkpt lat="40.6122183" lon="15.059385"><ele>92.0</ele><time>2026-05-02T12:53:55.825Z</time></trkpt><trkpt lat="40.6121683" lon="15.059105"><ele>92.66666666666667</ele><time>2026-05-02T12:53:56.825Z</time></trkpt><trkpt lat="40.61212" lon="15.0588183"><ele>93.33333333333333</ele><time>2026-05-02T12:53:57.826Z</time></trkpt><trkpt lat="40.612085" lon="15.0585367"><ele>94.0</ele><time>2026-05-02T12:53:58.825Z</time></trkpt><trkpt lat="40.6120717" lon="15.0582817"><ele>94.33333333333333</ele><time>2026-05-02T12:53:59.825Z</time></trkpt><trkpt lat="40.6120583" lon="15.058035"><ele>94.66666666666667</ele><time>2026-05-02T12:54:00.826Z</time></trkpt><trkpt lat="40.6120533" lon="15.0578117"><ele>95.0</ele><time>2026-05-02T12:54:01.825Z</time></trkpt><trkpt lat="40.6120417" lon="15.057605"><ele>94.6</ele><time>2026-05-02T12:54:02.825Z</time></trkpt><trkpt lat="40.61203" lon="15.05743"><ele>94.2</ele><time>2026-05-02T12:54:03.826Z</time></trkpt><trkpt lat="40.6120267" lon="15.057285"><ele>93.80000000000001</ele><time>2026-05-02T12:54:04.825Z</time></trkpt><trkpt lat="40.6120333" lon="15.0571567"><ele>93.4</ele><time>2026-05-02T12:54:05.825Z</time></trkpt><trkpt lat="40.61205" lon="15.0570333"><ele>93.0</ele><time>2026-05-02T12:54:06.825Z</time></trkpt><trkpt lat="40.61208" lon="15.0569267"><ele>93.0</ele><time>2026-05-02T12:54:07.825Z</time></trkpt><trkpt lat="40.6121117" lon="15.0568133"><ele>93.0</ele><time>2026-05-02T12:54:08.825Z</time></trkpt><trkpt lat="40.61212" lon="15.0567"><ele>93.0</ele><time>2026-05-02T12:54:09.825Z</time></trkpt><trkpt lat="40.6120983" lon="15.0565967"><ele>93.0</ele><time>2026-05-02T12:54:10.825Z</time></trkpt><trkpt lat="40.6120517" lon="15.056495"><ele>93.0</ele><time>2026-05-02T12:54:11.826Z</time></trkpt><trkpt lat="40.6120033" lon="15.05637"><ele>92.75</ele><time>2026-05-02T12:54:12.826Z</time></trkpt><trkpt lat="40.6119817" lon="15.0562183"><ele>92.5</ele><time>2026-05-02T12:54:13.825Z</time></trkpt><trkpt lat="40.6119833" lon="15.056035"><ele>92.25</ele><time>2026-05-02T12:54:14.825Z</time></trkpt><trkpt lat="40.6119817" lon="15.055815"><ele>92.0</ele><time>2026-05-02T12:54:15.825Z</time></trkpt><trkpt lat="40.6119667" lon="15.0555667"><ele>92.0</ele><time>2026-05-02T12:54:16.825Z</time></trkpt><trkpt lat="40.6119433" lon="15.0553067"><ele>92.0</ele><time>2026-05-02T12:54:17.826Z</time></trkpt><trkpt lat="40.6119117" lon="15.0550733"><ele>92.0</ele><time>2026-05-02T12:54:18.825Z</time></trkpt><trkpt lat="40.6118933" lon="15.054875"><ele>92.19999999999999</ele><time>2026-05-02T12:54:19.826Z</time></trkpt><trkpt lat="40.6118933" lon="15.0547033"><ele>92.4</ele><time>2026-05-02T12:54:20.825Z</time></trkpt><trkpt lat="40.6119117" lon="15.0545483"><ele>92.6</ele><time>2026-05-02T12:54:21.826Z</time></trkpt><trkpt lat="40.6119433" lon="15.0544283"><ele>92.80000000000001</ele><time>2026-05-02T12:54:22.826Z</time></trkpt><trkpt lat="40.6119867" lon="15.0543417"><ele>93.0</ele><time>2026-05-02T12:54:23.826Z</time></trkpt><trkpt lat="40.61204" lon="15.054285"><ele>93.2</ele><time>2026-05-02T12:54:24.826Z</time></trkpt><trkpt lat="40.6120983" lon="15.054235"><ele>93.4</ele><time>2026-05-02T12:54:25.826Z</time></trkpt><trkpt lat="40.6121583" lon="15.0541767"><ele>93.60000000000001</ele><time>2026-05-02T12:54:26.826Z</time></trkpt><trkpt lat="40.6121417" lon="15.0540017"><ele>93.80000000000001</ele><time>2026-05-02T12:54:28.825Z</time></trkpt><trkpt lat="40.6120733" lon="15.0539317"><ele>94.0</ele><time>2026-05-02T12:54:29.826Z</time></trkpt><trkpt lat="40.611995" lon="15.05385"><ele>93.25</ele><time>2026-05-02T12:54:30.826Z</time></trkpt><trkpt lat="40.6119417" lon="15.0537267"><ele>92.5</ele><time>2026-05-02T12:54:31.826Z</time></trkpt><trkpt lat="40.611905" lon="15.0535583"><ele>91.75</ele><time>2026-05-02T12:54:32.826Z</time></trkpt><trkpt lat="40.611875" lon="15.053375"><ele>91.0</ele><time>2026-05-02T12:54:33.825Z</time></trkpt><trkpt lat="40.611845" lon="15.0532"><ele>91.0</ele><time>2026-05-02T12:54:34.826Z</time></trkpt><trkpt lat="40.6118083" lon="15.0530383"><ele>91.0</ele><time>2026-05-02T12:54:35.825Z</time></trkpt><trkpt lat="40.6117667" lon="15.052885"><ele>91.0</ele><time>2026-05-02T12:54:36.825Z</time></trkpt><trkpt lat="40.611725" lon="15.0527367"><ele>91.0</ele><time>2026-05-02T12:54:37.826Z</time></trkpt><trkpt lat="40.6116767" lon="15.0525917"><ele>91.0</ele><time>2026-05-02T12:54:38.825Z</time></trkpt><trkpt lat="40.6116283" lon="15.0524583"><ele>91.0</ele><time>2026-05-02T12:54:39.825Z</time></trkpt><trkpt lat="40.611585" lon="15.052325"><ele>91.0</ele><time>2026-05-02T12:54:40.826Z</time></trkpt><trkpt lat="40.61154" lon="15.0521817"><ele>91.0</ele><time>2026-05-02T12:54:41.826Z</time></trkpt><trkpt lat="40.6114883" lon="15.0520317"><ele>91.0</ele><time>2026-05-02T12:54:42.825Z</time></trkpt><trkpt lat="40.6114417" lon="15.0518683"><ele>91.0</ele><time>2026-05-02T12:54:43.826Z</time></trkpt><trkpt lat="40.6113867" lon="15.0516983"><ele>91.0</ele><time>2026-05-02T12:54:44.826Z</time></trkpt><trkpt lat="40.611335" lon="15.05152"><ele>91.0</ele><time>2026-05-02T12:54:45.826Z</time></trkpt><trkpt lat="40.6112717" lon="15.05134"><ele>91.0</ele><time>2026-05-02T12:54:46.825Z</time></trkpt><trkpt lat="40.611205" lon="15.0511733"><ele>91.0</ele><time>2026-05-02T12:54:47.825Z</time></trkpt><trkpt lat="40.61113" lon="15.051015"><ele>91.0</ele><time>2026-05-02T12:54:48.825Z</time></trkpt><trkpt lat="40.611055" lon="15.0508683"><ele>91.0</ele><time>2026-05-02T12:54:49.825Z</time></trkpt><trkpt lat="40.610985" lon="15.0507233"><ele>90.25</ele><time>2026-05-02T12:54:50.826Z</time></trkpt><trkpt lat="40.61093" lon="15.0505817"><ele>89.5</ele><time>2026-05-02T12:54:51.825Z</time></trkpt><trkpt lat="40.61088" lon="15.050445"><ele>88.75</ele><time>2026-05-02T12:54:52.826Z</time></trkpt><trkpt lat="40.6108383" lon="15.050315"><ele>88.0</ele><time>2026-05-02T12:54:53.825Z</time></trkpt><trkpt lat="40.6108033" lon="15.0501817"><ele>88.0</ele><time>2026-05-02T12:54:54.825Z</time></trkpt><trkpt lat="40.6107767" lon="15.0500633"><ele>88.0</ele><time>2026-05-02T12:54:55.826Z</time></trkpt><trkpt lat="40.6107617" lon="15.0499567"><ele>88.0</ele><time>2026-05-02T12:54:56.825Z</time></trkpt><trkpt lat="40.610755" lon="15.04984"><ele>88.0</ele><time>2026-05-02T12:54:58.826Z</time></trkpt><trkpt lat="40.61075" lon="15.04975"><ele>88.0</ele><time>2026-05-02T12:55:01.826Z</time></trkpt><trkpt lat="40.61076" lon="15.0496217"><ele>88.0</ele><time>2026-05-02T12:55:03.825Z</time></trkpt><trkpt lat="40.6107567" lon="15.0495333"><ele>88.0</ele><time>2026-05-02T12:55:04.825Z</time></trkpt><trkpt lat="40.610735" lon="15.0494483"><ele>88.0</ele><time>2026-05-02T12:55:05.826Z</time></trkpt><trkpt lat="40.6106867" lon="15.049365"><ele>88.0</ele><time>2026-05-02T12:55:06.826Z</time></trkpt><trkpt lat="40.6106233" lon="15.0492567"><ele>88.0</ele><time>2026-05-02T12:55:07.826Z</time></trkpt><trkpt lat="40.6105683" lon="15.0491283"><ele>88.0</ele><time>2026-05-02T12:55:08.826Z</time></trkpt><trkpt lat="40.6105267" lon="15.0489867"><ele>87.5</ele><time>2026-05-02T12:55:09.826Z</time></trkpt><trkpt lat="40.6105" lon="15.0488317"><ele>87.0</ele><time>2026-05-02T12:55:10.826Z</time></trkpt><trkpt lat="40.6104917" lon="15.0486717"><ele>86.5</ele><time>2026-05-02T12:55:11.826Z</time></trkpt><trkpt lat="40.6105" lon="15.04853"><ele>86.0</ele><time>2026-05-02T12:55:12.826Z</time></trkpt><trkpt lat="40.610515" lon="15.0484"><ele>85.83333333333334</ele><time>2026-05-02T12:55:13.825Z</time></trkpt><trkpt lat="40.6105283" lon="15.048275"><ele>85.66666666666667</ele><time>2026-05-02T12:55:14.826Z</time></trkpt><trkpt lat="40.6105217" lon="15.0481517"><ele>85.5</ele><time>2026-05-02T12:55:15.825Z</time></trkpt><trkpt lat="40.6105017" lon="15.0480517"><ele>85.33333333333333</ele><time>2026-05-02T12:55:16.825Z</time></trkpt><trkpt lat="40.6104633" lon="15.0479667"><ele>85.16666666666666</ele><time>2026-05-02T12:55:17.826Z</time></trkpt><trkpt lat="40.610405" lon="15.0479033"><ele>85.0</ele><time>2026-05-02T12:55:18.825Z</time></trkpt><trkpt lat="40.6103267" lon="15.0478417"><ele>84.6</ele><time>2026-05-02T12:55:19.826Z</time></trkpt><trkpt lat="40.6102433" lon="15.0477883"><ele>84.2</ele><time>2026-05-02T12:55:20.825Z</time></trkpt><trkpt lat="40.6101583" lon="15.0477317"><ele>83.80000000000001</ele><time>2026-05-02T12:55:21.825Z</time></trkpt><trkpt lat="40.6100783" lon="15.0476733"><ele>83.4</ele><time>2026-05-02T12:55:22.825Z</time></trkpt><trkpt lat="40.6099983" lon="15.0476167"><ele>83.0</ele><time>2026-05-02T12:55:23.826Z</time></trkpt><trkpt lat="40.60992" lon="15.0475717"><ele>83.0</ele><time>2026-05-02T12:55:24.826Z</time></trkpt><trkpt lat="40.6098417" lon="15.0475367"><ele>83.0</ele><time>2026-05-02T12:55:25.825Z</time></trkpt><trkpt lat="40.6097583" lon="15.047515"><ele>83.0</ele><time>2026-05-02T12:55:26.826Z</time></trkpt><trkpt lat="40.6096767" lon="15.0475083"><ele>83.0</ele><time>2026-05-02T12:55:27.826Z</time></trkpt><trkpt lat="40.6095833" lon="15.0475117"><ele>83.0</ele><time>2026-05-02T12:55:28.826Z</time></trkpt><trkpt lat="40.609485" lon="15.047515"><ele>83.0</ele><time>2026-05-02T12:55:29.825Z</time></trkpt><trkpt lat="40.6093733" lon="15.04752"><ele>83.0</ele><time>2026-05-02T12:55:30.825Z</time></trkpt><trkpt lat="40.6092633" lon="15.0475383"><ele>83.0</ele><time>2026-05-02T12:55:31.825Z</time></trkpt><trkpt lat="40.6091533" lon="15.0475517"><ele>83.0</ele><time>2026-05-02T12:55:32.825Z</time></trkpt><trkpt lat="40.60905" lon="15.0475683"><ele>83.0</ele><time>2026-05-02T12:55:33.826Z</time></trkpt><trkpt lat="40.6089433" lon="15.0475883"><ele>83.0</ele><time>2026-05-02T12:55:34.825Z</time></trkpt><trkpt lat="40.6088317" lon="15.04761"><ele>83.0</ele><time>2026-05-02T12:55:35.826Z</time></trkpt><trkpt lat="40.6087217" lon="15.0476333"><ele>83.0</ele><time>2026-05-02T12:55:36.826Z</time></trkpt><trkpt lat="40.6086133" lon="15.047655"><ele>83.0</ele><time>2026-05-02T12:55:37.826Z</time></trkpt><trkpt lat="40.6085017" lon="15.0476783"><ele>83.0</ele><time>2026-05-02T12:55:38.826Z</time></trkpt><trkpt lat="40.6083917" lon="15.0476983"><ele>83.0</ele><time>2026-05-02T12:55:39.825Z</time></trkpt><trkpt lat="40.60828" lon="15.0477167"><ele>81.5</ele><time>2026-05-02T12:55:40.825Z</time></trkpt><trkpt lat="40.6081617" lon="15.0477383"><ele>80.0</ele><time>2026-05-02T12:55:41.826Z</time></trkpt><trkpt lat="40.608045" lon="15.0477617"><ele>78.5</ele><time>2026-05-02T12:55:42.826Z</time></trkpt><trkpt lat="40.60793" lon="15.047795"><ele>77.0</ele><time>2026-05-02T12:55:43.826Z</time></trkpt><trkpt lat="40.6078183" lon="15.047815"><ele>77.0</ele><time>2026-05-02T12:55:44.825Z</time></trkpt><trkpt lat="40.607705" lon="15.0478283"><ele>77.0</ele><time>2026-05-02T12:55:45.825Z</time></trkpt><trkpt lat="40.6075917" lon="15.0478417"><ele>77.0</ele><time>2026-05-02T12:55:46.825Z</time></trkpt><trkpt lat="40.60746" lon="15.04786"><ele>77.0</ele><time>2026-05-02T12:55:47.826Z</time></trkpt><trkpt lat="40.607335" lon="15.0478717"><ele>77.0</ele><time>2026-05-02T12:55:48.825Z</time></trkpt><trkpt lat="40.60722" lon="15.0478933"><ele>77.0</ele><time>2026-05-02T12:55:49.826Z</time></trkpt><trkpt lat="40.6071033" lon="15.04792"><ele>77.0</ele><time>2026-05-02T12:55:50.825Z</time></trkpt><trkpt lat="40.6069767" lon="15.0479433"><ele>77.0</ele><time>2026-05-02T12:55:51.826Z</time></trkpt><trkpt lat="40.6068417" lon="15.0479683"><ele>76.4</ele><time>2026-05-02T12:55:52.826Z</time></trkpt><trkpt lat="40.606725" lon="15.0479867"><ele>75.80000000000001</ele><time>2026-05-02T12:55:53.825Z</time></trkpt><trkpt lat="40.6066167" lon="15.0480083"><ele>75.2</ele><time>2026-05-02T12:55:54.825Z</time></trkpt><trkpt lat="40.6065217" lon="15.04803"><ele>74.60000000000001</ele><time>2026-05-02T12:55:55.824Z</time></trkpt><trkpt lat="40.6064267" lon="15.048045"><ele>74.0</ele><time>2026-05-02T12:55:56.824Z</time></trkpt><trkpt lat="40.6063317" lon="15.04804"><ele>74.0</ele><time>2026-05-02T12:55:57.824Z</time></trkpt><trkpt lat="40.60624" lon="15.04801"><ele>74.0</ele><time>2026-05-02T12:55:58.825Z</time></trkpt><trkpt lat="40.6061517" lon="15.0479383"><ele>74.0</ele><time>2026-05-02T12:55:59.824Z</time></trkpt><trkpt lat="40.606075" lon="15.047845"><ele>74.0</ele><time>2026-05-02T12:56:00.824Z</time></trkpt><trkpt lat="40.6060317" lon="15.0477317"><ele>74.0</ele><time>2026-05-02T12:56:01.824Z</time></trkpt><trkpt lat="40.6060083" lon="15.047615"><ele>74.0</ele><time>2026-05-02T12:56:02.824Z</time></trkpt><trkpt lat="40.6059967" lon="15.0475033"><ele>74.0</ele><time>2026-05-02T12:56:03.825Z</time></trkpt><trkpt lat="40.606005" lon="15.0473767"><ele>74.0</ele><time>2026-05-02T12:56:04.825Z</time></trkpt><trkpt lat="40.6060383" lon="15.0472383"><ele>74.0</ele><time>2026-05-02T12:56:05.824Z</time></trkpt><trkpt lat="40.6061033" lon="15.0470967"><ele>74.0</ele><time>2026-05-02T12:56:06.825Z</time></trkpt><trkpt lat="40.606185" lon="15.0469633"><ele>74.0</ele><time>2026-05-02T12:56:07.824Z</time></trkpt><trkpt lat="40.6062817" lon="15.0468367"><ele>74.0</ele><time>2026-05-02T12:56:08.825Z</time></trkpt><trkpt lat="40.6063883" lon="15.0467067"><ele>74.0</ele><time>2026-05-02T12:56:09.824Z</time></trkpt><trkpt lat="40.6065" lon="15.0465667"><ele>74.0</ele><time>2026-05-02T12:56:10.825Z</time></trkpt><trkpt lat="40.6066083" lon="15.0464267"><ele>74.5</ele><time>2026-05-02T12:56:11.825Z</time></trkpt><trkpt lat="40.6067133" lon="15.0462983"><ele>75.0</ele><time>2026-05-02T12:56:12.825Z</time></trkpt><trkpt lat="40.6068317" lon="15.0461933"><ele>75.5</ele><time>2026-05-02T12:56:13.825Z</time></trkpt><trkpt lat="40.6069583" lon="15.0461117"><ele>76.0</ele><time>2026-05-02T12:56:14.825Z</time></trkpt><trkpt lat="40.6070917" lon="15.0460483"><ele>76.5</ele><time>2026-05-02T12:56:15.825Z</time></trkpt><trkpt lat="40.6072067" lon="15.0460067"><ele>77.0</ele><time>2026-05-02T12:56:16.825Z</time></trkpt><trkpt lat="40.6073383" lon="15.045975"><ele>77.5</ele><time>2026-05-02T12:56:17.824Z</time></trkpt><trkpt lat="40.6074767" lon="15.0459367"><ele>78.0</ele><time>2026-05-02T12:56:18.825Z</time></trkpt><trkpt lat="40.6076033" lon="15.0459"><ele>78.0</ele><time>2026-05-02T12:56:19.825Z</time></trkpt><trkpt lat="40.6077117" lon="15.0458833"><ele>78.0</ele><time>2026-05-02T12:56:20.824Z</time></trkpt><trkpt lat="40.6078267" lon="15.0458633"><ele>78.0</ele><time>2026-05-02T12:56:21.824Z</time></trkpt><trkpt lat="40.6079467" lon="15.045875"><ele>78.0</ele><time>2026-05-02T12:56:22.825Z</time></trkpt><trkpt lat="40.6080567" lon="15.0459067"><ele>78.8</ele><time>2026-05-02T12:56:23.825Z</time></trkpt><trkpt lat="40.6081567" lon="15.04597"><ele>79.6</ele><time>2026-05-02T12:56:24.825Z</time></trkpt><trkpt lat="40.6082417" lon="15.04606"><ele>80.39999999999999</ele><time>2026-05-02T12:56:25.825Z</time></trkpt><trkpt lat="40.6083033" lon="15.0461683"><ele>81.19999999999999</ele><time>2026-05-02T12:56:26.824Z</time></trkpt><trkpt lat="40.6083383" lon="15.0462983"><ele>82.0</ele><time>2026-05-02T12:56:27.824Z</time></trkpt><trkpt lat="40.6083517" lon="15.0464383"><ele>82.0</ele><time>2026-05-02T12:56:28.824Z</time></trkpt><trkpt lat="40.608335" lon="15.0465833"><ele>82.0</ele><time>2026-05-02T12:56:29.825Z</time></trkpt><trkpt lat="40.6082883" lon="15.0467133"><ele>82.0</ele><time>2026-05-02T12:56:30.824Z</time></trkpt><trkpt lat="40.608215" lon="15.046825"><ele>82.0</ele><time>2026-05-02T12:56:31.825Z</time></trkpt><trkpt lat="40.60812" lon="15.0469017"><ele>82.0</ele><time>2026-05-02T12:56:32.825Z</time></trkpt><trkpt lat="40.6080083" lon="15.0469367"><ele>81.5</ele><time>2026-05-02T12:56:33.825Z</time></trkpt><trkpt lat="40.607885" lon="15.0469283"><ele>81.0</ele><time>2026-05-02T12:56:34.825Z</time></trkpt><trkpt lat="40.6077717" lon="15.0468683"><ele>80.5</ele><time>2026-05-02T12:56:35.825Z</time></trkpt><trkpt lat="40.6076783" lon="15.0467667"><ele>80.0</ele><time>2026-05-02T12:56:36.824Z</time></trkpt><trkpt lat="40.6076083" lon="15.046635"><ele>79.5</ele><time>2026-05-02T12:56:37.825Z</time></trkpt><trkpt lat="40.6075633" lon="15.0464817"><ele>79.0</ele><time>2026-05-02T12:56:38.825Z</time></trkpt><trkpt lat="40.6075217" lon="15.046315"><ele>78.5</ele><time>2026-05-02T12:56:39.824Z</time></trkpt><trkpt lat="40.6074783" lon="15.0461333"><ele>78.0</ele><time>2026-05-02T12:56:40.825Z</time></trkpt><trkpt lat="40.6074317" lon="15.045935"><ele>78.33333333333333</ele><time>2026-05-02T12:56:41.825Z</time></trkpt><trkpt lat="40.6073867" lon="15.045705"><ele>78.66666666666666</ele><time>2026-05-02T12:56:42.824Z</time></trkpt><trkpt lat="40.6073383" lon="15.0454367"><ele>79.0</ele><time>2026-05-02T12:56:43.824Z</time></trkpt><trkpt lat="40.6072833" lon="15.0451217"><ele>82.5</ele><time>2026-05-02T12:56:44.824Z</time></trkpt><trkpt lat="40.6072267" lon="15.0447683"><ele>86.0</ele><time>2026-05-02T12:56:45.824Z</time></trkpt><trkpt lat="40.60716" lon="15.0443767"><ele>92.0</ele><time>2026-05-02T12:56:46.824Z</time></trkpt><trkpt lat="40.6070967" lon="15.043955"><ele>98.0</ele><time>2026-05-02T12:56:47.824Z</time></trkpt><trkpt lat="40.6070317" lon="15.0435183"><ele>91.5</ele><time>2026-05-02T12:56:48.824Z</time></trkpt><trkpt lat="40.6069667" lon="15.0430983"><ele>85.0</ele><time>2026-05-02T12:56:49.824Z</time></trkpt><trkpt lat="40.6069083" lon="15.04271"><ele>90.5</ele><time>2026-05-02T12:56:50.824Z</time></trkpt><trkpt lat="40.6068433" lon="15.0423383"><ele>96.0</ele><time>2026-05-02T12:56:51.824Z</time></trkpt><trkpt lat="40.6067717" lon="15.04197"><ele>102.0</ele><time>2026-05-02T12:56:52.825Z</time></trkpt><trkpt lat="40.6067" lon="15.041615"><ele>108.0</ele><time>2026-05-02T12:56:53.825Z</time></trkpt><trkpt lat="40.6066217" lon="15.0412717"><ele>108.0</ele><time>2026-05-02T12:56:54.825Z</time></trkpt><trkpt lat="40.606535" lon="15.0409333"><ele>108.0</ele><time>2026-05-02T12:56:55.824Z</time></trkpt><trkpt lat="40.6064317" lon="15.0406"><ele>114.0</ele><time>2026-05-02T12:56:56.825Z</time></trkpt><trkpt lat="40.606325" lon="15.0402717"><ele>120.0</ele><time>2026-05-02T12:56:57.824Z</time></trkpt><trkpt lat="40.6062117" lon="15.0399483"><ele>110.0</ele><time>2026-05-02T12:56:58.824Z</time></trkpt><trkpt lat="40.6061" lon="15.0396283"><ele>100.0</ele><time>2026-05-02T12:56:59.824Z</time></trkpt><trkpt lat="40.605975" lon="15.0393083"><ele>103.5</ele><time>2026-05-02T12:57:00.824Z</time></trkpt><trkpt lat="40.605855" lon="15.0389933"><ele>107.0</ele><time>2026-05-02T12:57:01.825Z</time></trkpt><trkpt lat="40.605735" lon="15.0386767"><ele>107.0</ele><time>2026-05-02T12:57:02.825Z</time></trkpt><trkpt lat="40.6056183" lon="15.0383617"><ele>107.0</ele><time>2026-05-02T12:57:03.825Z</time></trkpt><trkpt lat="40.605505" lon="15.0380417"><ele>111.0</ele><time>2026-05-02T12:57:04.825Z</time></trkpt><trkpt lat="40.6053867" lon="15.0377167"><ele>115.0</ele><time>2026-05-02T12:57:05.825Z</time></trkpt><trkpt lat="40.60527" lon="15.0373917"><ele>105.0</ele><time>2026-05-02T12:57:06.824Z</time></trkpt><trkpt lat="40.60515" lon="15.0370667"><ele>95.0</ele><time>2026-05-02T12:57:07.824Z</time></trkpt><trkpt lat="40.6050283" lon="15.03674"><ele>100.0</ele><time>2026-05-02T12:57:08.824Z</time></trkpt><trkpt lat="40.6049067" lon="15.0364167"><ele>105.0</ele><time>2026-05-02T12:57:09.825Z</time></trkpt><trkpt lat="40.604785" lon="15.0360883"><ele>111.0</ele><time>2026-05-02T12:57:10.825Z</time></trkpt><trkpt lat="40.6046667" lon="15.0357617"><ele>117.0</ele><time>2026-05-02T12:57:11.825Z</time></trkpt><trkpt lat="40.604545" lon="15.0354317"><ele>106.5</ele><time>2026-05-02T12:57:12.824Z</time></trkpt><trkpt lat="40.6044233" lon="15.0351067"><ele>96.0</ele><time>2026-05-02T12:57:13.825Z</time></trkpt><trkpt lat="40.6043033" lon="15.03478"><ele>96.0</ele><time>2026-05-02T12:57:14.825Z</time></trkpt><trkpt lat="40.6041883" lon="15.0344483"><ele>96.0</ele><time>2026-05-02T12:57:15.824Z</time></trkpt><trkpt lat="40.6040783" lon="15.0341183"><ele>100.5</ele><time>2026-05-02T12:57:16.825Z</time></trkpt><trkpt lat="40.6039817" lon="15.0337917"><ele>105.0</ele><time>2026-05-02T12:57:17.824Z</time></trkpt><trkpt lat="40.603895" lon="15.03346"><ele>108.0</ele><time>2026-05-02T12:57:18.825Z</time></trkpt><trkpt lat="40.6038133" lon="15.0331283"><ele>111.0</ele><time>2026-05-02T12:57:19.825Z</time></trkpt><trkpt lat="40.6037367" lon="15.0327933"><ele>104.5</ele><time>2026-05-02T12:57:20.824Z</time></trkpt><trkpt lat="40.60366" lon="15.0324583"><ele>98.0</ele><time>2026-05-02T12:57:21.825Z</time></trkpt><trkpt lat="40.6035983" lon="15.0321117"><ele>98.0</ele><time>2026-05-02T12:57:22.825Z</time></trkpt><trkpt lat="40.6035417" lon="15.0317617"><ele>98.0</ele><time>2026-05-02T12:57:23.824Z</time></trkpt><trkpt lat="40.6034917" lon="15.03141"><ele>99.5</ele><time>2026-05-02T12:57:24.825Z</time></trkpt><trkpt lat="40.60345" lon="15.031055"><ele>101.0</ele><time>2026-05-02T12:57:25.825Z</time></trkpt><trkpt lat="40.6034183" lon="15.0306983"><ele>101.5</ele><time>2026-05-02T12:57:26.825Z</time></trkpt><trkpt lat="40.6033883" lon="15.0303433"><ele>102.0</ele><time>2026-05-02T12:57:27.825Z</time></trkpt><trkpt lat="40.6033767" lon="15.0299867"><ele>100.0</ele><time>2026-05-02T12:57:28.824Z</time></trkpt><trkpt lat="40.60336" lon="15.0296317"><ele>98.0</ele><time>2026-05-02T12:57:29.824Z</time></trkpt><trkpt lat="40.6033483" lon="15.0292783"><ele>98.0</ele><time>2026-05-02T12:57:30.825Z</time></trkpt><trkpt lat="40.603325" lon="15.02892"><ele>98.0</ele><time>2026-05-02T12:57:31.825Z</time></trkpt><trkpt lat="40.60331" lon="15.0285583"><ele>97.0</ele><time>2026-05-02T12:57:32.824Z</time></trkpt><trkpt lat="40.60329" lon="15.0281983"><ele>96.0</ele><time>2026-05-02T12:57:33.825Z</time></trkpt><trkpt lat="40.60327" lon="15.0278433"><ele>96.0</ele><time>2026-05-02T12:57:34.824Z</time></trkpt><trkpt lat="40.603245" lon="15.0274883"><ele>96.0</ele><time>2026-05-02T12:57:35.824Z</time></trkpt><trkpt lat="40.60322" lon="15.0271317"><ele>94.5</ele><time>2026-05-02T12:57:36.824Z</time></trkpt><trkpt lat="40.603195" lon="15.026775"><ele>93.0</ele><time>2026-05-02T12:57:37.824Z</time></trkpt><trkpt lat="40.6031617" lon="15.02642"><ele>92.5</ele><time>2026-05-02T12:57:38.824Z</time></trkpt><trkpt lat="40.603125" lon="15.0260667"><ele>92.0</ele><time>2026-05-02T12:57:39.825Z</time></trkpt><trkpt lat="40.6030867" lon="15.0257167"><ele>92.0</ele><time>2026-05-02T12:57:40.824Z</time></trkpt><trkpt lat="40.6030433" lon="15.0253667"><ele>92.0</ele><time>2026-05-02T12:57:41.825Z</time></trkpt><trkpt lat="40.603" lon="15.025015"><ele>95.0</ele><time>2026-05-02T12:57:42.825Z</time></trkpt><trkpt lat="40.6029583" lon="15.024665"><ele>98.0</ele><time>2026-05-02T12:57:43.824Z</time></trkpt><trkpt lat="40.6029133" lon="15.02431"><ele>101.0</ele><time>2026-05-02T12:57:44.825Z</time></trkpt><trkpt lat="40.6028633" lon="15.02396"><ele>104.0</ele><time>2026-05-02T12:57:45.824Z</time></trkpt><trkpt lat="40.6028083" lon="15.0236133"><ele>95.0</ele><time>2026-05-02T12:57:46.824Z</time></trkpt><trkpt lat="40.60275" lon="15.023265"><ele>86.0</ele><time>2026-05-02T12:57:47.824Z</time></trkpt><trkpt lat="40.6026883" lon="15.0229183"><ele>86.0</ele><time>2026-05-02T12:57:48.825Z</time></trkpt><trkpt lat="40.60263" lon="15.0225733"><ele>86.0</ele><time>2026-05-02T12:57:49.825Z</time></trkpt><trkpt lat="40.6025117" lon="15.0218767"><ele>92.5</ele><time>2026-05-02T12:57:51.824Z</time></trkpt><trkpt lat="40.6024583" lon="15.0215283"><ele>99.0</ele><time>2026-05-02T12:57:52.824Z</time></trkpt><trkpt lat="40.6024017" lon="15.0211767"><ele>99.0</ele><time>2026-05-02T12:57:53.825Z</time></trkpt><trkpt lat="40.602345" lon="15.0208283"><ele>99.0</ele><time>2026-05-02T12:57:54.824Z</time></trkpt><trkpt lat="40.6022933" lon="15.020485"><ele>103.0</ele><time>2026-05-02T12:57:55.825Z</time></trkpt><trkpt lat="40.60223" lon="15.02013"><ele>107.0</ele><time>2026-05-02T12:57:56.824Z</time></trkpt><trkpt lat="40.602175" lon="15.0197767"><ele>110.5</ele><time>2026-05-02T12:57:57.824Z</time></trkpt><trkpt lat="40.6021217" lon="15.0194267"><ele>114.0</ele><time>2026-05-02T12:57:58.824Z</time></trkpt><trkpt lat="40.6020683" lon="15.0190767"><ele>117.0</ele><time>2026-05-02T12:57:59.825Z</time></trkpt><trkpt lat="40.6020133" lon="15.0187283"><ele>120.0</ele><time>2026-05-02T12:58:00.824Z</time></trkpt><trkpt lat="40.601955" lon="15.0183833"><ele>104.5</ele><time>2026-05-02T12:58:01.824Z</time></trkpt><trkpt lat="40.6018983" lon="15.01804"><ele>89.0</ele><time>2026-05-02T12:58:02.824Z</time></trkpt><trkpt lat="40.6018417" lon="15.0176917"><ele>90.5</ele><time>2026-05-02T12:58:03.825Z</time></trkpt><trkpt lat="40.6017833" lon="15.0173417"><ele>92.0</ele><time>2026-05-02T12:58:04.825Z</time></trkpt><trkpt lat="40.6017283" lon="15.0169917"><ele>93.0</ele><time>2026-05-02T12:58:05.825Z</time></trkpt><trkpt lat="40.6016733" lon="15.0166433"><ele>94.0</ele><time>2026-05-02T12:58:06.825Z</time></trkpt><trkpt lat="40.6016183" lon="15.0162933"><ele>94.0</ele><time>2026-05-02T12:58:07.825Z</time></trkpt><trkpt lat="40.60156" lon="15.0159467"><ele>94.0</ele><time>2026-05-02T12:58:08.824Z</time></trkpt><trkpt lat="40.6015017" lon="15.0155933"><ele>96.0</ele><time>2026-05-02T12:58:09.824Z</time></trkpt><trkpt lat="40.6014467" lon="15.015245"><ele>98.0</ele><time>2026-05-02T12:58:10.824Z</time></trkpt><trkpt lat="40.6013933" lon="15.0148917"><ele>98.0</ele><time>2026-05-02T12:58:11.825Z</time></trkpt><trkpt lat="40.6013417" lon="15.0145433"><ele>98.0</ele><time>2026-05-02T12:58:12.825Z</time></trkpt><trkpt lat="40.60129" lon="15.0141933"><ele>98.5</ele><time>2026-05-02T12:58:13.825Z</time></trkpt><trkpt lat="40.6012367" lon="15.01384"><ele>99.0</ele><time>2026-05-02T12:58:14.825Z</time></trkpt><trkpt lat="40.6011883" lon="15.0134883"><ele>91.5</ele><time>2026-05-02T12:58:15.825Z</time></trkpt><trkpt lat="40.60115" lon="15.0131367"><ele>84.0</ele><time>2026-05-02T12:58:16.824Z</time></trkpt><trkpt lat="40.60112" lon="15.012785"><ele>85.0</ele><time>2026-05-02T12:58:17.824Z</time></trkpt><trkpt lat="40.6010983" lon="15.0124317"><ele>86.0</ele><time>2026-05-02T12:58:18.824Z</time></trkpt><trkpt lat="40.6010783" lon="15.012075"><ele>86.0</ele><time>2026-05-02T12:58:19.825Z</time></trkpt><trkpt lat="40.60106" lon="15.0117167"><ele>86.0</ele><time>2026-05-02T12:58:20.825Z</time></trkpt><trkpt lat="40.6010383" lon="15.0113667"><ele>84.0</ele><time>2026-05-02T12:58:21.825Z</time></trkpt><trkpt lat="40.6010183" lon="15.01101"><ele>82.0</ele><time>2026-05-02T12:58:22.824Z</time></trkpt><trkpt lat="40.60099" lon="15.0106583"><ele>82.0</ele><time>2026-05-02T12:58:23.824Z</time></trkpt><trkpt lat="40.6009667" lon="15.0103017"><ele>82.0</ele><time>2026-05-02T12:58:24.824Z</time></trkpt><trkpt lat="40.6009433" lon="15.00995"><ele>82.0</ele><time>2026-05-02T12:58:25.825Z</time></trkpt><trkpt lat="40.6009383" lon="15.00959"><ele>82.0</ele><time>2026-05-02T12:58:26.825Z</time></trkpt><trkpt lat="40.60094" lon="15.0092317"><ele>81.5</ele><time>2026-05-02T12:58:27.824Z</time></trkpt><trkpt lat="40.600955" lon="15.008875"><ele>81.0</ele><time>2026-05-02T12:58:28.825Z</time></trkpt><trkpt lat="40.6009783" lon="15.0085233"><ele>79.5</ele><time>2026-05-02T12:58:29.825Z</time></trkpt><trkpt lat="40.6010133" lon="15.0081733"><ele>78.0</ele><time>2026-05-02T12:58:30.824Z</time></trkpt><trkpt lat="40.6010517" lon="15.0078233"><ele>76.5</ele><time>2026-05-02T12:58:31.825Z</time></trkpt><trkpt lat="40.6011017" lon="15.0074767"><ele>75.0</ele><time>2026-05-02T12:58:32.824Z</time></trkpt><trkpt lat="40.601165" lon="15.0071317"><ele>80.0</ele><time>2026-05-02T12:58:33.824Z</time></trkpt><trkpt lat="40.6012383" lon="15.0067883"><ele>85.0</ele><time>2026-05-02T12:58:34.825Z</time></trkpt><trkpt lat="40.6013217" lon="15.00645"><ele>85.0</ele><time>2026-05-02T12:58:35.825Z</time></trkpt><trkpt lat="40.6014183" lon="15.0061133"><ele>85.0</ele><time>2026-05-02T12:58:36.825Z</time></trkpt><trkpt lat="40.6015267" lon="15.0057833"><ele>80.5</ele><time>2026-05-02T12:58:37.825Z</time></trkpt><trkpt lat="40.601645" lon="15.0054633"><ele>76.0</ele><time>2026-05-02T12:58:38.824Z</time></trkpt><trkpt lat="40.6017733" lon="15.00515"><ele>77.0</ele><time>2026-05-02T12:58:39.825Z</time></trkpt><trkpt lat="40.6019167" lon="15.0048467"><ele>78.0</ele><time>2026-05-02T12:58:40.825Z</time></trkpt><trkpt lat="40.6020733" lon="15.0045567"><ele>78.0</ele><time>2026-05-02T12:58:41.825Z</time></trkpt><trkpt lat="40.602235" lon="15.00427"><ele>78.0</ele><time>2026-05-02T12:58:42.824Z</time></trkpt><trkpt lat="40.602405" lon="15.0039967"><ele>77.0</ele><time>2026-05-02T12:58:43.824Z</time></trkpt><trkpt lat="40.6025817" lon="15.0037267"><ele>76.0</ele><time>2026-05-02T12:58:44.825Z</time></trkpt><trkpt lat="40.6027683" lon="15.003465"><ele>76.5</ele><time>2026-05-02T12:58:45.825Z</time></trkpt><trkpt lat="40.6029633" lon="15.0032117"><ele>77.0</ele><time>2026-05-02T12:58:46.824Z</time></trkpt><trkpt lat="40.6031617" lon="15.0029733"><ele>77.0</ele><time>2026-05-02T12:58:47.824Z</time></trkpt><trkpt lat="40.60336" lon="15.0027383"><ele>77.0</ele><time>2026-05-02T12:58:48.825Z</time></trkpt><trkpt lat="40.6035633" lon="15.0025067"><ele>78.0</ele><time>2026-05-02T12:58:49.825Z</time></trkpt><trkpt lat="40.6037617" lon="15.0022733"><ele>79.0</ele><time>2026-05-02T12:58:50.825Z</time></trkpt><trkpt lat="40.6039633" lon="15.00204"><ele>79.0</ele><time>2026-05-02T12:58:51.824Z</time></trkpt><trkpt lat="40.6041667" lon="15.0018"><ele>79.0</ele><time>2026-05-02T12:58:52.825Z</time></trkpt><trkpt lat="40.6043683" lon="15.0015617"><ele>79.0</ele><time>2026-05-02T12:58:53.825Z</time></trkpt><trkpt lat="40.6045767" lon="15.0013333"><ele>79.0</ele><time>2026-05-02T12:58:54.825Z</time></trkpt><trkpt lat="40.6047833" lon="15.0011017"><ele>79.0</ele><time>2026-05-02T12:58:55.825Z</time></trkpt><trkpt lat="40.6049967" lon="15.000875"><ele>79.0</ele><time>2026-05-02T12:58:56.825Z</time></trkpt><trkpt lat="40.60521" lon="15.0006467"><ele>80.5</ele><time>2026-05-02T12:58:57.824Z</time></trkpt><trkpt lat="40.60542" lon="15.0004233"><ele>82.0</ele><time>2026-05-02T12:58:58.825Z</time></trkpt><trkpt lat="40.6056283" lon="15.0001967"><ele>82.0</ele><time>2026-05-02T12:58:59.825Z</time></trkpt><trkpt lat="40.6058417" lon="14.99997"><ele>82.0</ele><time>2026-05-02T12:59:00.824Z</time></trkpt><trkpt lat="40.60605" lon="14.999745"><ele>81.5</ele><time>2026-05-02T12:59:01.824Z</time></trkpt><trkpt lat="40.6062567" lon="14.9995217"><ele>81.0</ele><time>2026-05-02T12:59:02.825Z</time></trkpt><trkpt lat="40.6064633" lon="14.9992967"><ele>81.0</ele><time>2026-05-02T12:59:03.825Z</time></trkpt><trkpt lat="40.6066733" lon="14.99907"><ele>81.0</ele><time>2026-05-02T12:59:04.824Z</time></trkpt><trkpt lat="40.6068867" lon="14.9988467"><ele>81.0</ele><time>2026-05-02T12:59:05.824Z</time></trkpt><trkpt lat="40.6071" lon="14.9986267"><ele>81.0</ele><time>2026-05-02T12:59:06.824Z</time></trkpt><trkpt lat="40.60732" lon="14.99841"><ele>80.5</ele><time>2026-05-02T12:59:07.824Z</time></trkpt><trkpt lat="40.60754" lon="14.99821"><ele>80.0</ele><time>2026-05-02T12:59:08.825Z</time></trkpt><trkpt lat="40.6077717" lon="14.9980217"><ele>81.5</ele><time>2026-05-02T12:59:09.824Z</time></trkpt><trkpt lat="40.60801" lon="14.9978433"><ele>83.0</ele><time>2026-05-02T12:59:10.825Z</time></trkpt><trkpt lat="40.60825" lon="14.9976883"><ele>83.0</ele><time>2026-05-02T12:59:11.824Z</time></trkpt><trkpt lat="40.6084967" lon="14.9975367"><ele>83.0</ele><time>2026-05-02T12:59:12.825Z</time></trkpt><trkpt lat="40.6087417" lon="14.9973817"><ele>82.5</ele><time>2026-05-02T12:59:13.825Z</time></trkpt><trkpt lat="40.6089833" lon="14.99722"><ele>82.0</ele><time>2026-05-02T12:59:14.824Z</time></trkpt><trkpt lat="40.60922" lon="14.9970633"><ele>82.0</ele><time>2026-05-02T12:59:15.824Z</time></trkpt><trkpt lat="40.6094633" lon="14.9968967"><ele>82.0</ele><time>2026-05-02T12:59:16.825Z</time></trkpt><trkpt lat="40.6097033" lon="14.9967317"><ele>82.0</ele><time>2026-05-02T12:59:17.824Z</time></trkpt><trkpt lat="40.6099417" lon="14.9965667"><ele>82.0</ele><time>2026-05-02T12:59:18.825Z</time></trkpt><trkpt lat="40.6101783" lon="14.9964033"><ele>87.0</ele><time>2026-05-02T12:59:19.825Z</time></trkpt><trkpt lat="40.6104133" lon="14.9962333"><ele>92.0</ele><time>2026-05-02T12:59:20.824Z</time></trkpt><trkpt lat="40.6106467" lon="14.9960583"><ele>92.0</ele><time>2026-05-02T12:59:21.825Z</time></trkpt><trkpt lat="40.610875" lon="14.99587"><ele>92.0</ele><time>2026-05-02T12:59:22.824Z</time></trkpt><trkpt lat="40.6111033" lon="14.9956733"><ele>96.5</ele><time>2026-05-02T12:59:23.825Z</time></trkpt><trkpt lat="40.611325" lon="14.9954617"><ele>101.0</ele><time>2026-05-02T12:59:24.824Z</time></trkpt><trkpt lat="40.6115383" lon="14.995245"><ele>101.0</ele><time>2026-05-02T12:59:25.825Z</time></trkpt><trkpt lat="40.611745" lon="14.9950183"><ele>101.0</ele><time>2026-05-02T12:59:26.824Z</time></trkpt><trkpt lat="40.6119583" lon="14.9947717"><ele>104.5</ele><time>2026-05-02T12:59:27.825Z</time></trkpt><trkpt lat="40.61216" lon="14.9945383"><ele>108.0</ele><time>2026-05-02T12:59:28.825Z</time></trkpt><trkpt lat="40.6123617" lon="14.994305"><ele>101.5</ele><time>2026-05-02T12:59:29.824Z</time></trkpt><trkpt lat="40.6125717" lon="14.9940767"><ele>95.0</ele><time>2026-05-02T12:59:30.824Z</time></trkpt><trkpt lat="40.612775" lon="14.9938467"><ele>102.0</ele><time>2026-05-02T12:59:31.825Z</time></trkpt><trkpt lat="40.6129817" lon="14.99361"><ele>109.0</ele><time>2026-05-02T12:59:32.825Z</time></trkpt><trkpt lat="40.6131867" lon="14.9933817"><ele>103.5</ele><time>2026-05-02T12:59:33.825Z</time></trkpt><trkpt lat="40.6133933" lon="14.993155"><ele>98.0</ele><time>2026-05-02T12:59:34.824Z</time></trkpt><trkpt lat="40.613595" lon="14.9929233"><ele>100.5</ele><time>2026-05-02T12:59:35.825Z</time></trkpt><trkpt lat="40.6137933" lon="14.9926867"><ele>103.0</ele><time>2026-05-02T12:59:36.825Z</time></trkpt><trkpt lat="40.613985" lon="14.9924383"><ele>103.0</ele><time>2026-05-02T12:59:37.824Z</time></trkpt><trkpt lat="40.61417" lon="14.9921867"><ele>103.0</ele><time>2026-05-02T12:59:38.824Z</time></trkpt><trkpt lat="40.6143517" lon="14.9919233"><ele>105.5</ele><time>2026-05-02T12:59:39.825Z</time></trkpt><trkpt lat="40.61453" lon="14.9916517"><ele>108.0</ele><time>2026-05-02T12:59:40.825Z</time></trkpt><trkpt lat="40.6147" lon="14.9913767"><ele>108.0</ele><time>2026-05-02T12:59:41.825Z</time></trkpt><trkpt lat="40.614865" lon="14.9910967"><ele>108.0</ele><time>2026-05-02T12:59:42.824Z</time></trkpt><trkpt lat="40.6150267" lon="14.9908083"><ele>106.5</ele><time>2026-05-02T12:59:43.825Z</time></trkpt><trkpt lat="40.61519" lon="14.9905217"><ele>105.0</ele><time>2026-05-02T12:59:44.825Z</time></trkpt><trkpt lat="40.6153433" lon="14.9902333"><ele>99.0</ele><time>2026-05-02T12:59:45.825Z</time></trkpt><trkpt lat="40.6155067" lon="14.9899417"><ele>93.0</ele><time>2026-05-02T12:59:46.824Z</time></trkpt><trkpt lat="40.615655" lon="14.98965"><ele>93.0</ele><time>2026-05-02T12:59:47.825Z</time></trkpt><trkpt lat="40.6158083" lon="14.98936"><ele>93.0</ele><time>2026-05-02T12:59:48.825Z</time></trkpt><trkpt lat="40.6159733" lon="14.9890783"><ele>90.5</ele><time>2026-05-02T12:59:49.825Z</time></trkpt><trkpt lat="40.6161283" lon="14.9887883"><ele>88.0</ele><time>2026-05-02T12:59:50.824Z</time></trkpt><trkpt lat="40.61628" lon="14.9884917"><ele>84.0</ele><time>2026-05-02T12:59:51.825Z</time></trkpt><trkpt lat="40.6164283" lon="14.9881883"><ele>80.0</ele><time>2026-05-02T12:59:52.825Z</time></trkpt><trkpt lat="40.6165683" lon="14.9878817"><ele>80.0</ele><time>2026-05-02T12:59:53.824Z</time></trkpt><trkpt lat="40.6166967" lon="14.9875683"><ele>80.0</ele><time>2026-05-02T12:59:54.824Z</time></trkpt><trkpt lat="40.6168133" lon="14.9872483"><ele>77.0</ele><time>2026-05-02T12:59:55.824Z</time></trkpt><trkpt lat="40.6169233" lon="14.98692"><ele>74.0</ele><time>2026-05-02T12:59:56.824Z</time></trkpt><trkpt lat="40.6170167" lon="14.9865867"><ele>71.5</ele><time>2026-05-02T12:59:57.825Z</time></trkpt><trkpt lat="40.617105" lon="14.98625"><ele>69.0</ele><time>2026-05-02T12:59:58.824Z</time></trkpt><trkpt lat="40.61719" lon="14.9859083"><ele>67.5</ele><time>2026-05-02T12:59:59.825Z</time></trkpt><trkpt lat="40.61726" lon="14.9855633"><ele>66.0</ele><time>2026-05-02T13:00:00.824Z</time></trkpt><trkpt lat="40.6173267" lon="14.9852167"><ele>67.5</ele><time>2026-05-02T13:00:01.824Z</time></trkpt><trkpt lat="40.6173833" lon="14.9848733"><ele>69.0</ele><time>2026-05-02T13:00:02.824Z</time></trkpt><trkpt lat="40.6174333" lon="14.9845233"><ele>69.5</ele><time>2026-05-02T13:00:03.825Z</time></trkpt><trkpt lat="40.6174817" lon="14.9841717"><ele>70.0</ele><time>2026-05-02T13:00:04.824Z</time></trkpt><trkpt lat="40.6175217" lon="14.98382"><ele>70.0</ele><time>2026-05-02T13:00:05.824Z</time></trkpt><trkpt lat="40.617565" lon="14.983465"><ele>70.0</ele><time>2026-05-02T13:00:06.824Z</time></trkpt><trkpt lat="40.617605" lon="14.983115"><ele>71.0</ele><time>2026-05-02T13:00:07.824Z</time></trkpt><trkpt lat="40.61765" lon="14.982765"><ele>72.0</ele><time>2026-05-02T13:00:08.825Z</time></trkpt><trkpt lat="40.6177" lon="14.982415"><ele>72.0</ele><time>2026-05-02T13:00:09.824Z</time></trkpt><trkpt lat="40.6177533" lon="14.9820667"><ele>72.0</ele><time>2026-05-02T13:00:10.824Z</time></trkpt><trkpt lat="40.617825" lon="14.9817233"><ele>72.5</ele><time>2026-05-02T13:00:11.824Z</time></trkpt><trkpt lat="40.6179017" lon="14.9813883"><ele>73.0</ele><time>2026-05-02T13:00:12.824Z</time></trkpt><trkpt lat="40.617995" lon="14.98105"><ele>71.5</ele><time>2026-05-02T13:00:13.824Z</time></trkpt><trkpt lat="40.6181033" lon="14.9807267"><ele>70.0</ele><time>2026-05-02T13:00:14.825Z</time></trkpt><trkpt lat="40.61822" lon="14.9804067"><ele>70.0</ele><time>2026-05-02T13:00:15.824Z</time></trkpt><trkpt lat="40.6183433" lon="14.98009"><ele>70.0</ele><time>2026-05-02T13:00:16.825Z</time></trkpt><trkpt lat="40.61847" lon="14.9797783"><ele>70.5</ele><time>2026-05-02T13:00:17.824Z</time></trkpt><trkpt lat="40.618605" lon="14.97947"><ele>71.0</ele><time>2026-05-02T13:00:18.825Z</time></trkpt><trkpt lat="40.61875" lon="14.9791667"><ele>71.0</ele><time>2026-05-02T13:00:19.824Z</time></trkpt><trkpt lat="40.6188883" lon="14.9788617"><ele>71.0</ele><time>2026-05-02T13:00:20.825Z</time></trkpt><trkpt lat="40.6190267" lon="14.97856"><ele>71.0</ele><time>2026-05-02T13:00:21.825Z</time></trkpt><trkpt lat="40.6191633" lon="14.978255"><ele>71.0</ele><time>2026-05-02T13:00:22.824Z</time></trkpt><trkpt lat="40.6192983" lon="14.9779433"><ele>71.0</ele><time>2026-05-02T13:00:23.824Z</time></trkpt><trkpt lat="40.619425" lon="14.9776283"><ele>71.0</ele><time>2026-05-02T13:00:24.824Z</time></trkpt><trkpt lat="40.6195583" lon="14.977315"><ele>71.0</ele><time>2026-05-02T13:00:25.824Z</time></trkpt><trkpt lat="40.6196767" lon="14.97699"><ele>71.0</ele><time>2026-05-02T13:00:26.824Z</time></trkpt><trkpt lat="40.6197833" lon="14.9766633"><ele>71.0</ele><time>2026-05-02T13:00:27.824Z</time></trkpt><trkpt lat="40.6198867" lon="14.9763317"><ele>71.0</ele><time>2026-05-02T13:00:28.824Z</time></trkpt><trkpt lat="40.6199883" lon="14.9759983"><ele>71.0</ele><time>2026-05-02T13:00:29.825Z</time></trkpt><trkpt lat="40.6200817" lon="14.9756617"><ele>71.0</ele><time>2026-05-02T13:00:30.824Z</time></trkpt><trkpt lat="40.620165" lon="14.9753217"><ele>69.5</ele><time>2026-05-02T13:00:31.825Z</time></trkpt><trkpt lat="40.62024" lon="14.9749783"><ele>68.0</ele><time>2026-05-02T13:00:32.824Z</time></trkpt><trkpt lat="40.620305" lon="14.974635"><ele>67.5</ele><time>2026-05-02T13:00:33.824Z</time></trkpt><trkpt lat="40.62037" lon="14.9742883"><ele>67.0</ele><time>2026-05-02T13:00:34.824Z</time></trkpt><trkpt lat="40.6204233" lon="14.9739417"><ele>68.0</ele><time>2026-05-02T13:00:35.825Z</time></trkpt><trkpt lat="40.6204633" lon="14.9735917"><ele>69.0</ele><time>2026-05-02T13:00:36.825Z</time></trkpt><trkpt lat="40.62051" lon="14.97324"><ele>69.0</ele><time>2026-05-02T13:00:37.825Z</time></trkpt><trkpt lat="40.6205467" lon="14.9728833"><ele>69.0</ele><time>2026-05-02T13:00:38.824Z</time></trkpt><trkpt lat="40.6205717" lon="14.9725283"><ele>67.0</ele><time>2026-05-02T13:00:39.824Z</time></trkpt><trkpt lat="40.6205933" lon="14.97217"><ele>65.0</ele><time>2026-05-02T13:00:40.825Z</time></trkpt><trkpt lat="40.6206117" lon="14.9718133"><ele>64.5</ele><time>2026-05-02T13:00:41.825Z</time></trkpt><trkpt lat="40.620625" lon="14.971455"><ele>64.0</ele><time>2026-05-02T13:00:42.824Z</time></trkpt><trkpt lat="40.6206367" lon="14.9711"><ele>66.0</ele><time>2026-05-02T13:00:43.825Z</time></trkpt><trkpt lat="40.6206433" lon="14.970745"><ele>68.0</ele><time>2026-05-02T13:00:44.824Z</time></trkpt><trkpt lat="40.62065" lon="14.9703883"><ele>68.0</ele><time>2026-05-02T13:00:45.825Z</time></trkpt><trkpt lat="40.6206617" lon="14.97003"><ele>68.0</ele><time>2026-05-02T13:00:46.824Z</time></trkpt><trkpt lat="40.6206783" lon="14.9696683"><ele>67.5</ele><time>2026-05-02T13:00:47.825Z</time></trkpt><trkpt lat="40.6206967" lon="14.96931"><ele>67.0</ele><time>2026-05-02T13:00:48.825Z</time></trkpt><trkpt lat="40.62071" lon="14.9689533"><ele>66.5</ele><time>2026-05-02T13:00:49.825Z</time></trkpt><trkpt lat="40.620725" lon="14.9686"><ele>66.0</ele><time>2026-05-02T13:00:50.825Z</time></trkpt><trkpt lat="40.6207417" lon="14.968245"><ele>66.0</ele><time>2026-05-02T13:00:51.825Z</time></trkpt><trkpt lat="40.6207683" lon="14.9678867"><ele>66.0</ele><time>2026-05-02T13:00:52.824Z</time></trkpt><trkpt lat="40.6207933" lon="14.9675317"><ele>65.0</ele><time>2026-05-02T13:00:53.824Z</time></trkpt><trkpt lat="40.62082" lon="14.96718"><ele>64.0</ele><time>2026-05-02T13:00:54.824Z</time></trkpt><trkpt lat="40.6208517" lon="14.9668283"><ele>63.5</ele><time>2026-05-02T13:00:55.825Z</time></trkpt><trkpt lat="40.6208867" lon="14.9664817"><ele>63.0</ele><time>2026-05-02T13:00:56.825Z</time></trkpt><trkpt lat="40.6209233" lon="14.96613"><ele>62.0</ele><time>2026-05-02T13:00:57.824Z</time></trkpt><trkpt lat="40.6209617" lon="14.9657817"><ele>61.0</ele><time>2026-05-02T13:00:58.825Z</time></trkpt><trkpt lat="40.6210017" lon="14.9654333"><ele>61.0</ele><time>2026-05-02T13:00:59.824Z</time></trkpt><trkpt lat="40.6210483" lon="14.9650867"><ele>61.0</ele><time>2026-05-02T13:01:00.824Z</time></trkpt><trkpt lat="40.6211083" lon="14.9647417"><ele>61.0</ele><time>2026-05-02T13:01:01.825Z</time></trkpt><trkpt lat="40.6211783" lon="14.9643967"><ele>61.0</ele><time>2026-05-02T13:01:02.825Z</time></trkpt><trkpt lat="40.621255" lon="14.9640533"><ele>61.0</ele><time>2026-05-02T13:01:03.824Z</time></trkpt><trkpt lat="40.6213333" lon="14.9637117"><ele>61.0</ele><time>2026-05-02T13:01:04.824Z</time></trkpt><trkpt lat="40.6214183" lon="14.9633683"><ele>60.0</ele><time>2026-05-02T13:01:05.825Z</time></trkpt><trkpt lat="40.6215" lon="14.96303"><ele>59.0</ele><time>2026-05-02T13:01:06.825Z</time></trkpt><trkpt lat="40.6215833" lon="14.9626933"><ele>58.0</ele><time>2026-05-02T13:01:07.825Z</time></trkpt><trkpt lat="40.621665" lon="14.96236"><ele>57.0</ele><time>2026-05-02T13:01:08.825Z</time></trkpt><trkpt lat="40.6217483" lon="14.962025"><ele>57.5</ele><time>2026-05-02T13:01:09.824Z</time></trkpt><trkpt lat="40.6218333" lon="14.96169"><ele>58.0</ele><time>2026-05-02T13:01:10.824Z</time></trkpt><trkpt lat="40.6219217" lon="14.9613533"><ele>58.5</ele><time>2026-05-02T13:01:11.825Z</time></trkpt><trkpt lat="40.62201" lon="14.9610183"><ele>59.0</ele><time>2026-05-02T13:01:12.825Z</time></trkpt><trkpt lat="40.6221" lon="14.9606783"><ele>59.5</ele><time>2026-05-02T13:01:13.825Z</time></trkpt><trkpt lat="40.62219" lon="14.9603417"><ele>60.0</ele><time>2026-05-02T13:01:14.825Z</time></trkpt><trkpt lat="40.6222783" lon="14.960005"><ele>60.5</ele><time>2026-05-02T13:01:15.825Z</time></trkpt><trkpt lat="40.6223683" lon="14.9596717"><ele>61.0</ele><time>2026-05-02T13:01:16.824Z</time></trkpt><trkpt lat="40.62246" lon="14.959335"><ele>61.0</ele><time>2026-05-02T13:01:17.825Z</time></trkpt><trkpt lat="40.62255" lon="14.9590017"><ele>61.0</ele><time>2026-05-02T13:01:18.825Z</time></trkpt><trkpt lat="40.6226433" lon="14.95867"><ele>61.5</ele><time>2026-05-02T13:01:19.824Z</time></trkpt><trkpt lat="40.6227367" lon="14.9583367"><ele>62.0</ele><time>2026-05-02T13:01:20.825Z</time></trkpt><trkpt lat="40.62283" lon="14.958005"><ele>62.5</ele><time>2026-05-02T13:01:21.825Z</time></trkpt><trkpt lat="40.6229283" lon="14.9576717"><ele>63.0</ele><time>2026-05-02T13:01:22.825Z</time></trkpt><trkpt lat="40.62303" lon="14.957335"><ele>64.0</ele><time>2026-05-02T13:01:23.824Z</time></trkpt><trkpt lat="40.6231283" lon="14.9570017"><ele>65.0</ele><time>2026-05-02T13:01:24.824Z</time></trkpt><trkpt lat="40.6232217" lon="14.9566667"><ele>65.5</ele><time>2026-05-02T13:01:25.824Z</time></trkpt><trkpt lat="40.6233217" lon="14.956335"><ele>66.0</ele><time>2026-05-02T13:01:26.824Z</time></trkpt><trkpt lat="40.623425" lon="14.956005"><ele>65.5</ele><time>2026-05-02T13:01:27.825Z</time></trkpt><trkpt lat="40.6235317" lon="14.95568"><ele>65.0</ele><time>2026-05-02T13:01:28.825Z</time></trkpt><trkpt lat="40.62364" lon="14.9553567"><ele>66.5</ele><time>2026-05-02T13:01:29.824Z</time></trkpt><trkpt lat="40.6237717" lon="14.95504"><ele>68.0</ele><time>2026-05-02T13:01:30.825Z</time></trkpt><trkpt lat="40.6238783" lon="14.9547167"><ele>68.5</ele><time>2026-05-02T13:01:31.824Z</time></trkpt><trkpt lat="40.624" lon="14.9543933"><ele>69.0</ele><time>2026-05-02T13:01:32.825Z</time></trkpt><trkpt lat="40.62412" lon="14.9540717"><ele>67.5</ele><time>2026-05-02T13:01:33.824Z</time></trkpt><trkpt lat="40.62424" lon="14.9537517"><ele>66.0</ele><time>2026-05-02T13:01:34.825Z</time></trkpt><trkpt lat="40.62436" lon="14.95343"><ele>67.0</ele><time>2026-05-02T13:01:35.825Z</time></trkpt><trkpt lat="40.6244817" lon="14.9531133"><ele>68.0</ele><time>2026-05-02T13:01:36.824Z</time></trkpt><trkpt lat="40.6246117" lon="14.95279"><ele>67.0</ele><time>2026-05-02T13:01:37.824Z</time></trkpt><trkpt lat="40.6247317" lon="14.952475"><ele>66.0</ele><time>2026-05-02T13:01:38.825Z</time></trkpt><trkpt lat="40.6248583" lon="14.9521617"><ele>66.0</ele><time>2026-05-02T13:01:39.825Z</time></trkpt><trkpt lat="40.6249833" lon="14.9518433"><ele>66.0</ele><time>2026-05-02T13:01:40.824Z</time></trkpt><trkpt lat="40.6251067" lon="14.95153"><ele>64.5</ele><time>2026-05-02T13:01:41.824Z</time></trkpt><trkpt lat="40.6252317" lon="14.9512133"><ele>63.0</ele><time>2026-05-02T13:01:42.825Z</time></trkpt><trkpt lat="40.62535" lon="14.9508967"><ele>61.5</ele><time>2026-05-02T13:01:43.824Z</time></trkpt><trkpt lat="40.62547" lon="14.9505783"><ele>60.0</ele><time>2026-05-02T13:01:44.824Z</time></trkpt><trkpt lat="40.6255967" lon="14.9502633"><ele>60.0</ele><time>2026-05-02T13:01:45.824Z</time></trkpt><trkpt lat="40.625725" lon="14.9499467"><ele>60.0</ele><time>2026-05-02T13:01:46.825Z</time></trkpt><trkpt lat="40.6258533" lon="14.9496317"><ele>60.0</ele><time>2026-05-02T13:01:47.825Z</time></trkpt><trkpt lat="40.6259917" lon="14.9493167"><ele>60.0</ele><time>2026-05-02T13:01:48.825Z</time></trkpt><trkpt lat="40.6261217" lon="14.9490033"><ele>60.5</ele><time>2026-05-02T13:01:49.824Z</time></trkpt><trkpt lat="40.626245" lon="14.9486833"><ele>61.0</ele><time>2026-05-02T13:01:50.824Z</time></trkpt><trkpt lat="40.6263683" lon="14.9483617"><ele>61.0</ele><time>2026-05-02T13:01:51.825Z</time></trkpt><trkpt lat="40.6264917" lon="14.9480433"><ele>61.0</ele><time>2026-05-02T13:01:52.824Z</time></trkpt><trkpt lat="40.6266133" lon="14.947725"><ele>61.0</ele><time>2026-05-02T13:01:53.824Z</time></trkpt><trkpt lat="40.6267317" lon="14.9474083"><ele>61.0</ele><time>2026-05-02T13:01:54.824Z</time></trkpt><trkpt lat="40.6268533" lon="14.9470883"><ele>61.0</ele><time>2026-05-02T13:01:55.824Z</time></trkpt><trkpt lat="40.6269717" lon="14.94677"><ele>61.0</ele><time>2026-05-02T13:01:56.825Z</time></trkpt><trkpt lat="40.6270867" lon="14.94645"><ele>61.5</ele><time>2026-05-02T13:01:57.825Z</time></trkpt><trkpt lat="40.6272017" lon="14.946125"><ele>62.0</ele><time>2026-05-02T13:01:58.824Z</time></trkpt><trkpt lat="40.6273133" lon="14.9458"><ele>62.0</ele><time>2026-05-02T13:01:59.824Z</time></trkpt><trkpt lat="40.6274183" lon="14.9454767"><ele>62.0</ele><time>2026-05-02T13:02:00.824Z</time></trkpt><trkpt lat="40.6275133" lon="14.9451417"><ele>62.5</ele><time>2026-05-02T13:02:01.825Z</time></trkpt><trkpt lat="40.6276233" lon="14.944805"><ele>63.0</ele><time>2026-05-02T13:02:02.825Z</time></trkpt><trkpt lat="40.6277017" lon="14.944475"><ele>63.0</ele><time>2026-05-02T13:02:03.825Z</time></trkpt><trkpt lat="40.627785" lon="14.9441267"><ele>63.0</ele><time>2026-05-02T13:02:04.825Z</time></trkpt><trkpt lat="40.6278517" lon="14.9437917"><ele>64.0</ele><time>2026-05-02T13:02:05.825Z</time></trkpt><trkpt lat="40.6279167" lon="14.9434483"><ele>65.0</ele><time>2026-05-02T13:02:06.824Z</time></trkpt><trkpt lat="40.6279833" lon="14.9431"><ele>65.0</ele><time>2026-05-02T13:02:07.824Z</time></trkpt><trkpt lat="40.62804" lon="14.9427517"><ele>65.0</ele><time>2026-05-02T13:02:08.825Z</time></trkpt><trkpt lat="40.6280867" lon="14.9423967"><ele>65.0</ele><time>2026-05-02T13:02:09.825Z</time></trkpt><trkpt lat="40.62813" lon="14.9420433"><ele>65.0</ele><time>2026-05-02T13:02:10.825Z</time></trkpt><trkpt lat="40.6281733" lon="14.94169"><ele>65.0</ele><time>2026-05-02T13:02:11.824Z</time></trkpt><trkpt lat="40.6282067" lon="14.941335"><ele>65.0</ele><time>2026-05-02T13:02:12.825Z</time></trkpt><trkpt lat="40.6282317" lon="14.9409783"><ele>64.5</ele><time>2026-05-02T13:02:13.824Z</time></trkpt><trkpt lat="40.62825" lon="14.94062"><ele>64.0</ele><time>2026-05-02T13:02:14.825Z</time></trkpt><trkpt lat="40.6282633" lon="14.9402683"><ele>64.0</ele><time>2026-05-02T13:02:15.824Z</time></trkpt><trkpt lat="40.6282767" lon="14.9399117"><ele>64.0</ele><time>2026-05-02T13:02:16.824Z</time></trkpt><trkpt lat="40.628285" lon="14.939555"><ele>64.0</ele><time>2026-05-02T13:02:17.825Z</time></trkpt><trkpt lat="40.6283033" lon="14.9392017"><ele>64.0</ele><time>2026-05-02T13:02:18.824Z</time></trkpt><trkpt lat="40.62833" lon="14.93885"><ele>64.0</ele><time>2026-05-02T13:02:19.825Z</time></trkpt><trkpt lat="40.6283567" lon="14.9384967"><ele>64.0</ele><time>2026-05-02T13:02:20.825Z</time></trkpt><trkpt lat="40.6283817" lon="14.93814"><ele>63.5</ele><time>2026-05-02T13:02:21.824Z</time></trkpt><trkpt lat="40.6283983" lon="14.9377833"><ele>63.0</ele><time>2026-05-02T13:02:22.825Z</time></trkpt><trkpt lat="40.62842" lon="14.9374283"><ele>61.5</ele><time>2026-05-02T13:02:23.824Z</time></trkpt><trkpt lat="40.62844" lon="14.9370717"><ele>60.0</ele><time>2026-05-02T13:02:24.825Z</time></trkpt><trkpt lat="40.6284567" lon="14.9367117"><ele>60.0</ele><time>2026-05-02T13:02:25.825Z</time></trkpt><trkpt lat="40.62848" lon="14.9363533"><ele>60.0</ele><time>2026-05-02T13:02:26.824Z</time></trkpt><trkpt lat="40.6285133" lon="14.935995"><ele>59.0</ele><time>2026-05-02T13:02:27.825Z</time></trkpt><trkpt lat="40.6285633" lon="14.93565"><ele>58.0</ele><time>2026-05-02T13:02:28.824Z</time></trkpt><trkpt lat="40.6286117" lon="14.9353017"><ele>58.5</ele><time>2026-05-02T13:02:29.824Z</time></trkpt><trkpt lat="40.62866" lon="14.934955"><ele>59.0</ele><time>2026-05-02T13:02:30.825Z</time></trkpt><trkpt lat="40.6287083" lon="14.934605"><ele>59.0</ele><time>2026-05-02T13:02:31.825Z</time></trkpt><trkpt lat="40.6287683" lon="14.93426"><ele>59.0</ele><time>2026-05-02T13:02:32.825Z</time></trkpt><trkpt lat="40.6288283" lon="14.9339133"><ele>58.5</ele><time>2026-05-02T13:02:33.824Z</time></trkpt><trkpt lat="40.6288933" lon="14.9335667"><ele>58.0</ele><time>2026-05-02T13:02:34.824Z</time></trkpt><trkpt lat="40.62897" lon="14.9332233"><ele>58.0</ele><time>2026-05-02T13:02:35.825Z</time></trkpt><trkpt lat="40.6290467" lon="14.9328833"><ele>58.0</ele><time>2026-05-02T13:02:36.824Z</time></trkpt><trkpt lat="40.6291317" lon="14.9325433"><ele>58.5</ele><time>2026-05-02T13:02:37.825Z</time></trkpt><trkpt lat="40.6292183" lon="14.9322067"><ele>59.0</ele><time>2026-05-02T13:02:38.825Z</time></trkpt><trkpt lat="40.62931" lon="14.9318733"><ele>59.0</ele><time>2026-05-02T13:02:39.824Z</time></trkpt><trkpt lat="40.6294033" lon="14.93154"><ele>59.0</ele><time>2026-05-02T13:02:40.824Z</time></trkpt><trkpt lat="40.6295033" lon="14.9312017"><ele>59.0</ele><time>2026-05-02T13:02:41.824Z</time></trkpt><trkpt lat="40.629605" lon="14.9308717"><ele>59.0</ele><time>2026-05-02T13:02:42.825Z</time></trkpt><trkpt lat="40.6297083" lon="14.9305433"><ele>59.0</ele><time>2026-05-02T13:02:43.824Z</time></trkpt><trkpt lat="40.6298183" lon="14.930215"><ele>59.0</ele><time>2026-05-02T13:02:44.824Z</time></trkpt><trkpt lat="40.629925" lon="14.9298883"><ele>59.0</ele><time>2026-05-02T13:02:45.825Z</time></trkpt><trkpt lat="40.63003" lon="14.92956"><ele>59.0</ele><time>2026-05-02T13:02:46.824Z</time></trkpt><trkpt lat="40.6301417" lon="14.929235"><ele>59.5</ele><time>2026-05-02T13:02:47.824Z</time></trkpt><trkpt lat="40.630255" lon="14.9289083"><ele>60.0</ele><time>2026-05-02T13:02:48.825Z</time></trkpt><trkpt lat="40.6303733" lon="14.9285867"><ele>58.0</ele><time>2026-05-02T13:02:49.825Z</time></trkpt><trkpt lat="40.63049" lon="14.9282617"><ele>56.0</ele><time>2026-05-02T13:02:50.824Z</time></trkpt><trkpt lat="40.63061" lon="14.92794"><ele>56.0</ele><time>2026-05-02T13:02:51.824Z</time></trkpt><trkpt lat="40.6307233" lon="14.9276167"><ele>56.0</ele><time>2026-05-02T13:02:52.824Z</time></trkpt><trkpt lat="40.63084" lon="14.9272933"><ele>55.5</ele><time>2026-05-02T13:02:53.825Z</time></trkpt><trkpt lat="40.6309517" lon="14.9269683"><ele>55.0</ele><time>2026-05-02T13:02:54.825Z</time></trkpt><trkpt lat="40.6310633" lon="14.926645"><ele>55.0</ele><time>2026-05-02T13:02:55.825Z</time></trkpt><trkpt lat="40.6311733" lon="14.9263183"><ele>55.0</ele><time>2026-05-02T13:02:56.825Z</time></trkpt><trkpt lat="40.63128" lon="14.925995"><ele>54.0</ele><time>2026-05-02T13:02:57.825Z</time></trkpt><trkpt lat="40.6313883" lon="14.92567"><ele>53.0</ele><time>2026-05-02T13:02:58.825Z</time></trkpt><trkpt lat="40.6314967" lon="14.925345"><ele>52.0</ele><time>2026-05-02T13:02:59.824Z</time></trkpt><trkpt lat="40.6316067" lon="14.9250167"><ele>51.0</ele><time>2026-05-02T13:03:00.824Z</time></trkpt><trkpt lat="40.6317133" lon="14.9246917"><ele>51.0</ele><time>2026-05-02T13:03:01.824Z</time></trkpt><trkpt lat="40.6318183" lon="14.9243667"><ele>51.0</ele><time>2026-05-02T13:03:02.825Z</time></trkpt><trkpt lat="40.631925" lon="14.9240433"><ele>51.5</ele><time>2026-05-02T13:03:03.825Z</time></trkpt><trkpt lat="40.6320383" lon="14.9237183"><ele>52.0</ele><time>2026-05-02T13:03:04.825Z</time></trkpt><trkpt lat="40.63215" lon="14.923395"><ele>52.0</ele><time>2026-05-02T13:03:05.824Z</time></trkpt><trkpt lat="40.632255" lon="14.9230683"><ele>52.0</ele><time>2026-05-02T13:03:06.825Z</time></trkpt><trkpt lat="40.6323617" lon="14.9227417"><ele>51.0</ele><time>2026-05-02T13:03:07.825Z</time></trkpt><trkpt lat="40.6324683" lon="14.9224133"><ele>50.0</ele><time>2026-05-02T13:03:08.824Z</time></trkpt><trkpt lat="40.632575" lon="14.9220867"><ele>50.0</ele><time>2026-05-02T13:03:09.824Z</time></trkpt><trkpt lat="40.6326817" lon="14.9217583"><ele>50.0</ele><time>2026-05-02T13:03:10.825Z</time></trkpt><trkpt lat="40.6327883" lon="14.92143"><ele>50.5</ele><time>2026-05-02T13:03:11.825Z</time></trkpt><trkpt lat="40.6328933" lon="14.9211083"><ele>51.0</ele><time>2026-05-02T13:03:12.825Z</time></trkpt><trkpt lat="40.632995" lon="14.9207867"><ele>50.0</ele><time>2026-05-02T13:03:13.825Z</time></trkpt><trkpt lat="40.6331067" lon="14.9204633"><ele>49.0</ele><time>2026-05-02T13:03:14.825Z</time></trkpt><trkpt lat="40.6332233" lon="14.920135"><ele>48.0</ele><time>2026-05-02T13:03:15.825Z</time></trkpt><trkpt lat="40.6333367" lon="14.9198083"><ele>47.0</ele><time>2026-05-02T13:03:16.824Z</time></trkpt><trkpt lat="40.6334483" lon="14.9194783"><ele>47.0</ele><time>2026-05-02T13:03:17.824Z</time></trkpt><trkpt lat="40.63356" lon="14.9191483"><ele>47.0</ele><time>2026-05-02T13:03:18.825Z</time></trkpt><trkpt lat="40.6336733" lon="14.918825"><ele>47.0</ele><time>2026-05-02T13:03:19.825Z</time></trkpt><trkpt lat="40.6337767" lon="14.9185033"><ele>47.0</ele><time>2026-05-02T13:03:20.825Z</time></trkpt><trkpt lat="40.6338817" lon="14.9181783"><ele>46.0</ele><time>2026-05-02T13:03:21.825Z</time></trkpt><trkpt lat="40.6339883" lon="14.9178583"><ele>45.0</ele><time>2026-05-02T13:03:22.824Z</time></trkpt><trkpt lat="40.6340967" lon="14.9175367"><ele>44.5</ele><time>2026-05-02T13:03:23.825Z</time></trkpt><trkpt lat="40.634205" lon="14.91721"><ele>44.0</ele><time>2026-05-02T13:03:24.825Z</time></trkpt><trkpt lat="40.634315" lon="14.9168783"><ele>43.0</ele><time>2026-05-02T13:03:25.825Z</time></trkpt><trkpt lat="40.634425" lon="14.9165517"><ele>42.0</ele><time>2026-05-02T13:03:26.824Z</time></trkpt><trkpt lat="40.63453" lon="14.9162233"><ele>42.0</ele><time>2026-05-02T13:03:27.825Z</time></trkpt><trkpt lat="40.6346333" lon="14.915895"><ele>42.0</ele><time>2026-05-02T13:03:28.824Z</time></trkpt><trkpt lat="40.63474" lon="14.9155717"><ele>42.0</ele><time>2026-05-02T13:03:29.824Z</time></trkpt><trkpt lat="40.634845" lon="14.915245"><ele>42.0</ele><time>2026-05-02T13:03:30.825Z</time></trkpt><trkpt lat="40.6349483" lon="14.91491"><ele>42.0</ele><time>2026-05-02T13:03:31.824Z</time></trkpt><trkpt lat="40.6350617" lon="14.914585"><ele>42.0</ele><time>2026-05-02T13:03:32.825Z</time></trkpt><trkpt lat="40.6351733" lon="14.9142617"><ele>41.0</ele><time>2026-05-02T13:03:33.825Z</time></trkpt><trkpt lat="40.63528" lon="14.913935"><ele>40.0</ele><time>2026-05-02T13:03:34.824Z</time></trkpt><trkpt lat="40.63539" lon="14.9136067"><ele>39.0</ele><time>2026-05-02T13:03:35.824Z</time></trkpt><trkpt lat="40.6355" lon="14.9132817"><ele>38.0</ele><time>2026-05-02T13:03:36.824Z</time></trkpt><trkpt lat="40.6356083" lon="14.9129567"><ele>38.0</ele><time>2026-05-02T13:03:37.825Z</time></trkpt><trkpt lat="40.6357183" lon="14.91263"><ele>38.0</ele><time>2026-05-02T13:03:38.825Z</time></trkpt><trkpt lat="40.635825" lon="14.9123017"><ele>38.5</ele><time>2026-05-02T13:03:39.825Z</time></trkpt><trkpt lat="40.6359267" lon="14.9119767"><ele>39.0</ele><time>2026-05-02T13:03:40.824Z</time></trkpt><trkpt lat="40.636035" lon="14.9116517"><ele>39.0</ele><time>2026-05-02T13:03:41.825Z</time></trkpt><trkpt lat="40.6361483" lon="14.9113283"><ele>39.0</ele><time>2026-05-02T13:03:42.825Z</time></trkpt><trkpt lat="40.6362583" lon="14.9109983"><ele>38.0</ele><time>2026-05-02T13:03:43.824Z</time></trkpt><trkpt lat="40.6363683" lon="14.910675"><ele>37.0</ele><time>2026-05-02T13:03:44.824Z</time></trkpt><trkpt lat="40.6364817" lon="14.9103467"><ele>36.5</ele><time>2026-05-02T13:03:45.824Z</time></trkpt><trkpt lat="40.63659" lon="14.91002"><ele>36.0</ele><time>2026-05-02T13:03:46.824Z</time></trkpt><trkpt lat="40.6367" lon="14.90969"><ele>36.0</ele><time>2026-05-02T13:03:47.825Z</time></trkpt><trkpt lat="40.6368117" lon="14.9093667"><ele>36.0</ele><time>2026-05-02T13:03:48.825Z</time></trkpt><trkpt lat="40.636925" lon="14.909045"><ele>37.5</ele><time>2026-05-02T13:03:49.824Z</time></trkpt><trkpt lat="40.6370383" lon="14.90872"><ele>39.0</ele><time>2026-05-02T13:03:50.825Z</time></trkpt><trkpt lat="40.6371567" lon="14.9084017"><ele>39.5</ele><time>2026-05-02T13:03:51.825Z</time></trkpt><trkpt lat="40.6372783" lon="14.908085"><ele>40.0</ele><time>2026-05-02T13:03:52.824Z</time></trkpt><trkpt lat="40.6373967" lon="14.90777"><ele>40.0</ele><time>2026-05-02T13:03:53.825Z</time></trkpt><trkpt lat="40.6375217" lon="14.9074517"><ele>40.0</ele><time>2026-05-02T13:03:54.824Z</time></trkpt><trkpt lat="40.6376483" lon="14.9071333"><ele>40.0</ele><time>2026-05-02T13:03:55.824Z</time></trkpt><trkpt lat="40.6377767" lon="14.90682"><ele>40.0</ele><time>2026-05-02T13:03:56.824Z</time></trkpt><trkpt lat="40.6379133" lon="14.9065083"><ele>40.0</ele><time>2026-05-02T13:03:57.824Z</time></trkpt><trkpt lat="40.6380467" lon="14.9062017"><ele>40.0</ele><time>2026-05-02T13:03:58.825Z</time></trkpt><trkpt lat="40.6381833" lon="14.9058933"><ele>39.5</ele><time>2026-05-02T13:03:59.825Z</time></trkpt><trkpt lat="40.63832" lon="14.9055883"><ele>39.0</ele><time>2026-05-02T13:04:00.824Z</time></trkpt><trkpt lat="40.638455" lon="14.9052767"><ele>39.5</ele><time>2026-05-02T13:04:01.825Z</time></trkpt><trkpt lat="40.6385883" lon="14.90497"><ele>40.0</ele><time>2026-05-02T13:04:02.824Z</time></trkpt><trkpt lat="40.6387267" lon="14.9046617"><ele>40.0</ele><time>2026-05-02T13:04:03.825Z</time></trkpt><trkpt lat="40.6388617" lon="14.9043533"><ele>40.0</ele><time>2026-05-02T13:04:04.825Z</time></trkpt><trkpt lat="40.638995" lon="14.904045"><ele>39.5</ele><time>2026-05-02T13:04:05.824Z</time></trkpt><trkpt lat="40.639125" lon="14.90374"><ele>39.0</ele><time>2026-05-02T13:04:06.825Z</time></trkpt><trkpt lat="40.639265" lon="14.9034417"><ele>39.5</ele><time>2026-05-02T13:04:07.825Z</time></trkpt><trkpt lat="40.6393983" lon="14.9031333"><ele>40.0</ele><time>2026-05-02T13:04:08.824Z</time></trkpt><trkpt lat="40.639535" lon="14.9028283"><ele>40.0</ele><time>2026-05-02T13:04:09.825Z</time></trkpt><trkpt lat="40.6396767" lon="14.9025233"><ele>40.0</ele><time>2026-05-02T13:04:10.824Z</time></trkpt><trkpt lat="40.6398217" lon="14.902215"><ele>40.0</ele><time>2026-05-02T13:04:11.825Z</time></trkpt><trkpt lat="40.6399617" lon="14.9019067"><ele>40.0</ele><time>2026-05-02T13:04:12.824Z</time></trkpt><trkpt lat="40.6401067" lon="14.9016067"><ele>39.5</ele><time>2026-05-02T13:04:13.825Z</time></trkpt><trkpt lat="40.64025" lon="14.9013083"><ele>39.0</ele><time>2026-05-02T13:04:14.825Z</time></trkpt><trkpt lat="40.6403933" lon="14.90101"><ele>39.5</ele><time>2026-05-02T13:04:15.825Z</time></trkpt><trkpt lat="40.6405333" lon="14.9007083"><ele>40.0</ele><time>2026-05-02T13:04:16.824Z</time></trkpt><trkpt lat="40.6406817" lon="14.9004083"><ele>40.0</ele><time>2026-05-02T13:04:17.824Z</time></trkpt><trkpt lat="40.6408267" lon="14.9001033"><ele>40.0</ele><time>2026-05-02T13:04:18.824Z</time></trkpt><trkpt lat="40.6409717" lon="14.8997967"><ele>39.5</ele><time>2026-05-02T13:04:19.825Z</time></trkpt><trkpt lat="40.641115" lon="14.8994917"><ele>39.0</ele><time>2026-05-02T13:04:20.824Z</time></trkpt><trkpt lat="40.6412533" lon="14.8991867"><ele>38.5</ele><time>2026-05-02T13:04:21.824Z</time></trkpt><trkpt lat="40.6413883" lon="14.8988833"><ele>38.0</ele><time>2026-05-02T13:04:22.824Z</time></trkpt><trkpt lat="40.641525" lon="14.898575"><ele>37.5</ele><time>2026-05-02T13:04:23.825Z</time></trkpt><trkpt lat="40.6416633" lon="14.8982717"><ele>37.0</ele><time>2026-05-02T13:04:24.825Z</time></trkpt><trkpt lat="40.6418" lon="14.8979633"><ele>37.0</ele><time>2026-05-02T13:04:25.824Z</time></trkpt><trkpt lat="40.6419367" lon="14.8976617"><ele>37.0</ele><time>2026-05-02T13:04:26.824Z</time></trkpt><trkpt lat="40.6420767" lon="14.8973583"><ele>38.0</ele><time>2026-05-02T13:04:27.824Z</time></trkpt><trkpt lat="40.6422133" lon="14.8970533"><ele>39.0</ele><time>2026-05-02T13:04:28.825Z</time></trkpt><trkpt lat="40.64235" lon="14.8967467"><ele>39.0</ele><time>2026-05-02T13:04:29.825Z</time></trkpt><trkpt lat="40.6424917" lon="14.8964417"><ele>39.0</ele><time>2026-05-02T13:04:30.824Z</time></trkpt><trkpt lat="40.6426333" lon="14.896135"><ele>39.5</ele><time>2026-05-02T13:04:31.824Z</time></trkpt><trkpt lat="40.6427683" lon="14.89583"><ele>40.0</ele><time>2026-05-02T13:04:32.824Z</time></trkpt><trkpt lat="40.6429133" lon="14.8955333"><ele>40.5</ele><time>2026-05-02T13:04:33.824Z</time></trkpt><trkpt lat="40.643055" lon="14.8952283"><ele>41.0</ele><time>2026-05-02T13:04:34.824Z</time></trkpt><trkpt lat="40.6431983" lon="14.8949233"><ele>41.0</ele><time>2026-05-02T13:04:35.825Z</time></trkpt><trkpt lat="40.6433417" lon="14.8946167"><ele>41.0</ele><time>2026-05-02T13:04:36.825Z</time></trkpt><trkpt lat="40.64348" lon="14.8943117"><ele>41.0</ele><time>2026-05-02T13:04:37.824Z</time></trkpt><trkpt lat="40.6436183" lon="14.8940067"><ele>41.0</ele><time>2026-05-02T13:04:38.825Z</time></trkpt><trkpt lat="40.6437533" lon="14.8937017"><ele>42.0</ele><time>2026-05-02T13:04:39.824Z</time></trkpt><trkpt lat="40.64389" lon="14.8933983"><ele>43.0</ele><time>2026-05-02T13:04:40.825Z</time></trkpt><trkpt lat="40.6440283" lon="14.8930917"><ele>43.0</ele><time>2026-05-02T13:04:41.824Z</time></trkpt><trkpt lat="40.6441667" lon="14.8927867"><ele>43.0</ele><time>2026-05-02T13:04:42.825Z</time></trkpt><trkpt lat="40.6443033" lon="14.8924817"><ele>43.5</ele><time>2026-05-02T13:04:43.824Z</time></trkpt><trkpt lat="40.6444383" lon="14.8921733"><ele>44.0</ele><time>2026-05-02T13:04:44.824Z</time></trkpt><trkpt lat="40.6445733" lon="14.891865"><ele>45.0</ele><time>2026-05-02T13:04:45.824Z</time></trkpt><trkpt lat="40.6447117" lon="14.8915567"><ele>46.0</ele><time>2026-05-02T13:04:46.825Z</time></trkpt><trkpt lat="40.644845" lon="14.891245"><ele>46.0</ele><time>2026-05-02T13:04:47.825Z</time></trkpt><trkpt lat="40.6449867" lon="14.8909383"><ele>46.0</ele><time>2026-05-02T13:04:48.824Z</time></trkpt><trkpt lat="40.645125" lon="14.8906317"><ele>46.5</ele><time>2026-05-02T13:04:49.825Z</time></trkpt><trkpt lat="40.6452583" lon="14.8903267"><ele>47.0</ele><time>2026-05-02T13:04:50.825Z</time></trkpt><trkpt lat="40.645395" lon="14.8900217"><ele>47.0</ele><time>2026-05-02T13:04:51.824Z</time></trkpt><trkpt lat="40.6455317" lon="14.8897183"><ele>47.0</ele><time>2026-05-02T13:04:52.825Z</time></trkpt><trkpt lat="40.645665" lon="14.8894117"><ele>46.5</ele><time>2026-05-02T13:04:53.824Z</time></trkpt><trkpt lat="40.6457983" lon="14.8891033"><ele>46.0</ele><time>2026-05-02T13:04:54.825Z</time></trkpt><trkpt lat="40.6459317" lon="14.8887867"><ele>46.0</ele><time>2026-05-02T13:04:55.825Z</time></trkpt><trkpt lat="40.6460733" lon="14.8884667"><ele>46.0</ele><time>2026-05-02T13:04:56.825Z</time></trkpt><trkpt lat="40.64621" lon="14.8881617"><ele>45.5</ele><time>2026-05-02T13:04:57.825Z</time></trkpt><trkpt lat="40.646355" lon="14.887855"><ele>45.0</ele><time>2026-05-02T13:04:58.825Z</time></trkpt><trkpt lat="40.64649" lon="14.8875517"><ele>44.0</ele><time>2026-05-02T13:04:59.824Z</time></trkpt><trkpt lat="40.6466233" lon="14.8872483"><ele>43.0</ele><time>2026-05-02T13:05:00.824Z</time></trkpt><trkpt lat="40.6467567" lon="14.886945"><ele>43.0</ele><time>2026-05-02T13:05:01.824Z</time></trkpt><trkpt lat="40.6468917" lon="14.8866383"><ele>43.0</ele><time>2026-05-02T13:05:02.824Z</time></trkpt><trkpt lat="40.6470283" lon="14.8863317"><ele>43.5</ele><time>2026-05-02T13:05:03.824Z</time></trkpt><trkpt lat="40.6471667" lon="14.88602"><ele>44.0</ele><time>2026-05-02T13:05:04.825Z</time></trkpt><trkpt lat="40.6473" lon="14.8857067"><ele>44.0</ele><time>2026-05-02T13:05:05.825Z</time></trkpt><trkpt lat="40.6474317" lon="14.8853967"><ele>44.0</ele><time>2026-05-02T13:05:06.824Z</time></trkpt><trkpt lat="40.6475733" lon="14.8850883"><ele>43.5</ele><time>2026-05-02T13:05:07.825Z</time></trkpt><trkpt lat="40.6477133" lon="14.8847833"><ele>43.0</ele><time>2026-05-02T13:05:08.825Z</time></trkpt><trkpt lat="40.6478533" lon="14.8844783"><ele>42.5</ele><time>2026-05-02T13:05:09.825Z</time></trkpt><trkpt lat="40.6479883" lon="14.8841717"><ele>42.0</ele><time>2026-05-02T13:05:10.824Z</time></trkpt><trkpt lat="40.6481233" lon="14.8838683"><ele>42.0</ele><time>2026-05-02T13:05:11.824Z</time></trkpt><trkpt lat="40.648265" lon="14.88356"><ele>42.0</ele><time>2026-05-02T13:05:12.824Z</time></trkpt><trkpt lat="40.6484017" lon="14.8832533"><ele>41.5</ele><time>2026-05-02T13:05:13.825Z</time></trkpt><trkpt lat="40.6485333" lon="14.8829467"><ele>41.0</ele><time>2026-05-02T13:05:14.824Z</time></trkpt><trkpt lat="40.6486683" lon="14.882635"><ele>41.0</ele><time>2026-05-02T13:05:15.824Z</time></trkpt><trkpt lat="40.6488017" lon="14.882325"><ele>41.0</ele><time>2026-05-02T13:05:16.825Z</time></trkpt><trkpt lat="40.6489317" lon="14.8820167"><ele>40.5</ele><time>2026-05-02T13:05:17.824Z</time></trkpt><trkpt lat="40.6490717" lon="14.8817083"><ele>40.0</ele><time>2026-05-02T13:05:18.825Z</time></trkpt><trkpt lat="40.6492083" lon="14.8813983"><ele>40.0</ele><time>2026-05-02T13:05:19.824Z</time></trkpt><trkpt lat="40.6493483" lon="14.88109"><ele>40.0</ele><time>2026-05-02T13:05:20.825Z</time></trkpt><trkpt lat="40.6494867" lon="14.880775"><ele>40.0</ele><time>2026-05-02T13:05:21.825Z</time></trkpt><trkpt lat="40.6496217" lon="14.8804683"><ele>40.0</ele><time>2026-05-02T13:05:22.825Z</time></trkpt><trkpt lat="40.6497633" lon="14.8801583"><ele>39.0</ele><time>2026-05-02T13:05:23.824Z</time></trkpt><trkpt lat="40.6498983" lon="14.8798567"><ele>38.0</ele><time>2026-05-02T13:05:24.825Z</time></trkpt><trkpt lat="40.6500417" lon="14.8795533"><ele>38.0</ele><time>2026-05-02T13:05:25.825Z</time></trkpt><trkpt lat="40.6501767" lon="14.87924"><ele>38.0</ele><time>2026-05-02T13:05:26.824Z</time></trkpt><trkpt lat="40.6503133" lon="14.8789317"><ele>38.5</ele><time>2026-05-02T13:05:27.825Z</time></trkpt><trkpt lat="40.6504467" lon="14.8786233"><ele>39.0</ele><time>2026-05-02T13:05:28.825Z</time></trkpt><trkpt lat="40.65058" lon="14.878315"><ele>37.5</ele><time>2026-05-02T13:05:29.825Z</time></trkpt><trkpt lat="40.6507167" lon="14.8780083"><ele>36.0</ele><time>2026-05-02T13:05:30.824Z</time></trkpt><trkpt lat="40.6508533" lon="14.8777"><ele>36.0</ele><time>2026-05-02T13:05:31.825Z</time></trkpt><trkpt lat="40.6509883" lon="14.8773933"><ele>36.0</ele><time>2026-05-02T13:05:32.824Z</time></trkpt><trkpt lat="40.6511267" lon="14.8770883"><ele>36.0</ele><time>2026-05-02T13:05:33.825Z</time></trkpt><trkpt lat="40.651265" lon="14.87678"><ele>36.0</ele><time>2026-05-02T13:05:34.824Z</time></trkpt><trkpt lat="40.651415" lon="14.8764817"><ele>36.0</ele><time>2026-05-02T13:05:35.825Z</time></trkpt><trkpt lat="40.6515483" lon="14.876165"><ele>36.0</ele><time>2026-05-02T13:05:36.825Z</time></trkpt><trkpt lat="40.6516783" lon="14.8758583"><ele>36.0</ele><time>2026-05-02T13:05:37.824Z</time></trkpt><trkpt lat="40.6518133" lon="14.87555"><ele>36.0</ele><time>2026-05-02T13:05:38.824Z</time></trkpt><trkpt lat="40.6519483" lon="14.8752433"><ele>35.0</ele><time>2026-05-02T13:05:39.824Z</time></trkpt><trkpt lat="40.6520833" lon="14.8749367"><ele>34.0</ele><time>2026-05-02T13:05:40.824Z</time></trkpt><trkpt lat="40.652215" lon="14.8746317"><ele>34.0</ele><time>2026-05-02T13:05:41.825Z</time></trkpt><trkpt lat="40.6523483" lon="14.874325"><ele>34.0</ele><time>2026-05-02T13:05:42.825Z</time></trkpt><trkpt lat="40.6524833" lon="14.874015"><ele>32.5</ele><time>2026-05-02T13:05:43.824Z</time></trkpt><trkpt lat="40.6526167" lon="14.8737017"><ele>31.0</ele><time>2026-05-02T13:05:44.824Z</time></trkpt><trkpt lat="40.6527533" lon="14.8733917"><ele>32.0</ele><time>2026-05-02T13:05:45.824Z</time></trkpt><trkpt lat="40.6528833" lon="14.8730833"><ele>33.0</ele><time>2026-05-02T13:05:46.824Z</time></trkpt><trkpt lat="40.6530183" lon="14.8727717"><ele>32.0</ele><time>2026-05-02T13:05:47.825Z</time></trkpt><trkpt lat="40.6531533" lon="14.87246"><ele>31.0</ele><time>2026-05-02T13:05:48.824Z</time></trkpt><trkpt lat="40.65328" lon="14.8721467"><ele>31.0</ele><time>2026-05-02T13:05:49.825Z</time></trkpt><trkpt lat="40.653405" lon="14.8718267"><ele>31.0</ele><time>2026-05-02T13:05:50.824Z</time></trkpt><trkpt lat="40.6535317" lon="14.8715117"><ele>32.5</ele><time>2026-05-02T13:05:51.824Z</time></trkpt><trkpt lat="40.6536617" lon="14.8711967"><ele>34.0</ele><time>2026-05-02T13:05:52.825Z</time></trkpt><trkpt lat="40.6537917" lon="14.8708833"><ele>35.5</ele><time>2026-05-02T13:05:53.824Z</time></trkpt><trkpt lat="40.6539167" lon="14.8705717"><ele>37.0</ele><time>2026-05-02T13:05:54.824Z</time></trkpt><trkpt lat="40.654045" lon="14.87026"><ele>38.5</ele><time>2026-05-02T13:05:55.824Z</time></trkpt><trkpt lat="40.6541733" lon="14.8699467"><ele>40.0</ele><time>2026-05-02T13:05:56.825Z</time></trkpt><trkpt lat="40.6543" lon="14.869635"><ele>40.0</ele><time>2026-05-02T13:05:57.824Z</time></trkpt><trkpt lat="40.654425" lon="14.8693233"><ele>40.0</ele><time>2026-05-02T13:05:58.825Z</time></trkpt><trkpt lat="40.65455" lon="14.8690117"><ele>41.5</ele><time>2026-05-02T13:05:59.825Z</time></trkpt><trkpt lat="40.65468" lon="14.8686983"><ele>43.0</ele><time>2026-05-02T13:06:00.825Z</time></trkpt><trkpt lat="40.65481" lon="14.868385"><ele>43.0</ele><time>2026-05-02T13:06:01.825Z</time></trkpt><trkpt lat="40.65494" lon="14.8680733"><ele>43.0</ele><time>2026-05-02T13:06:02.824Z</time></trkpt><trkpt lat="40.655075" lon="14.8677583"><ele>43.0</ele><time>2026-05-02T13:06:03.824Z</time></trkpt><trkpt lat="40.6552017" lon="14.8674483"><ele>43.0</ele><time>2026-05-02T13:06:04.825Z</time></trkpt><trkpt lat="40.6553283" lon="14.867135"><ele>45.0</ele><time>2026-05-02T13:06:05.824Z</time></trkpt><trkpt lat="40.655455" lon="14.866825"><ele>47.0</ele><time>2026-05-02T13:06:06.825Z</time></trkpt><trkpt lat="40.65559" lon="14.8665117"><ele>47.5</ele><time>2026-05-02T13:06:07.824Z</time></trkpt><trkpt lat="40.655725" lon="14.8662017"><ele>48.0</ele><time>2026-05-02T13:06:08.825Z</time></trkpt><trkpt lat="40.6558583" lon="14.8658933"><ele>47.0</ele><time>2026-05-02T13:06:09.825Z</time></trkpt><trkpt lat="40.6559967" lon="14.8655883"><ele>46.0</ele><time>2026-05-02T13:06:10.824Z</time></trkpt><trkpt lat="40.6561417" lon="14.8652933"><ele>46.5</ele><time>2026-05-02T13:06:11.825Z</time></trkpt><trkpt lat="40.6562983" lon="14.8650017"><ele>47.0</ele><time>2026-05-02T13:06:12.825Z</time></trkpt><trkpt lat="40.6564667" lon="14.86472"><ele>47.0</ele><time>2026-05-02T13:06:13.825Z</time></trkpt><trkpt lat="40.6566383" lon="14.8644517"><ele>47.0</ele><time>2026-05-02T13:06:14.824Z</time></trkpt><trkpt lat="40.6568183" lon="14.8641867"><ele>46.5</ele><time>2026-05-02T13:06:15.824Z</time></trkpt><trkpt lat="40.6570017" lon="14.8639283"><ele>46.0</ele><time>2026-05-02T13:06:16.825Z</time></trkpt><trkpt lat="40.65719" lon="14.8636783"><ele>47.5</ele><time>2026-05-02T13:06:17.825Z</time></trkpt><trkpt lat="40.6573833" lon="14.8634317"><ele>49.0</ele><time>2026-05-02T13:06:18.825Z</time></trkpt><trkpt lat="40.6575833" lon="14.8631967"><ele>48.5</ele><time>2026-05-02T13:06:19.825Z</time></trkpt><trkpt lat="40.6577883" lon="14.862965"><ele>48.0</ele><time>2026-05-02T13:06:20.825Z</time></trkpt><trkpt lat="40.6580017" lon="14.8627417"><ele>50.0</ele><time>2026-05-02T13:06:21.824Z</time></trkpt><trkpt lat="40.6582183" lon="14.8625283"><ele>52.0</ele><time>2026-05-02T13:06:22.824Z</time></trkpt><trkpt lat="40.658435" lon="14.862325"><ele>54.5</ele><time>2026-05-02T13:06:23.824Z</time></trkpt><trkpt lat="40.65866" lon="14.8621317"><ele>57.0</ele><time>2026-05-02T13:06:24.824Z</time></trkpt><trkpt lat="40.6588883" lon="14.8619383"><ele>57.0</ele><time>2026-05-02T13:06:25.825Z</time></trkpt><trkpt lat="40.65912" lon="14.8617533"><ele>57.0</ele><time>2026-05-02T13:06:26.824Z</time></trkpt><trkpt lat="40.659355" lon="14.8615717"><ele>62.5</ele><time>2026-05-02T13:06:27.825Z</time></trkpt><trkpt lat="40.659585" lon="14.861385"><ele>68.0</ele><time>2026-05-02T13:06:28.825Z</time></trkpt><trkpt lat="40.65982" lon="14.8612017"><ele>68.0</ele><time>2026-05-02T13:06:29.824Z</time></trkpt><trkpt lat="40.6600533" lon="14.8610183"><ele>68.0</ele><time>2026-05-02T13:06:30.825Z</time></trkpt><trkpt lat="40.6602883" lon="14.8608317"><ele>69.0</ele><time>2026-05-02T13:06:31.825Z</time></trkpt><trkpt lat="40.6605167" lon="14.86065"><ele>70.0</ele><time>2026-05-02T13:06:32.824Z</time></trkpt><trkpt lat="40.660745" lon="14.8604767"><ele>70.0</ele><time>2026-05-02T13:06:33.825Z</time></trkpt><trkpt lat="40.6609783" lon="14.860305"><ele>70.0</ele><time>2026-05-02T13:06:34.824Z</time></trkpt><trkpt lat="40.6612217" lon="14.86014"><ele>70.0</ele><time>2026-05-02T13:06:35.825Z</time></trkpt><trkpt lat="40.6614667" lon="14.8599817"><ele>70.0</ele><time>2026-05-02T13:06:36.825Z</time></trkpt><trkpt lat="40.6617133" lon="14.85983"><ele>74.5</ele><time>2026-05-02T13:06:37.825Z</time></trkpt><trkpt lat="40.6619617" lon="14.8596933"><ele>79.0</ele><time>2026-05-02T13:06:38.825Z</time></trkpt><trkpt lat="40.662215" lon="14.8595617"><ele>79.0</ele><time>2026-05-02T13:06:39.825Z</time></trkpt><trkpt lat="40.6624683" lon="14.859445"><ele>79.0</ele><time>2026-05-02T13:06:40.825Z</time></trkpt><trkpt lat="40.6627217" lon="14.8593417"><ele>86.0</ele><time>2026-05-02T13:06:41.825Z</time></trkpt><trkpt lat="40.662985" lon="14.8592517"><ele>93.0</ele><time>2026-05-02T13:06:42.825Z</time></trkpt><trkpt lat="40.663255" lon="14.859165"><ele>93.0</ele><time>2026-05-02T13:06:43.824Z</time></trkpt><trkpt lat="40.6635183" lon="14.8591067"><ele>93.0</ele><time>2026-05-02T13:06:44.824Z</time></trkpt><trkpt lat="40.6637767" lon="14.8590417"><ele>112.0</ele><time>2026-05-02T13:06:45.824Z</time></trkpt><trkpt lat="40.6640367" lon="14.8589833"><ele>131.0</ele><time>2026-05-02T13:06:46.825Z</time></trkpt><trkpt lat="40.664295" lon="14.8589183"><ele>140.0</ele><time>2026-05-02T13:06:47.825Z</time></trkpt><trkpt lat="40.6703033" lon="14.8583883"><ele>140.0</ele><time>2026-05-02T13:07:09.881Z</time></trkpt><trkpt lat="40.670585" lon="14.858365"><ele>140.0</ele><time>2026-05-02T13:07:10.881Z</time></trkpt><trkpt lat="40.670865" lon="14.8583433"><ele>161.5</ele><time>2026-05-02T13:07:11.882Z</time></trkpt><trkpt lat="40.6711517" lon="14.85832"><ele>183.0</ele><time>2026-05-02T13:07:12.881Z</time></trkpt><trkpt lat="40.6714367" lon="14.8582983"><ele>117.0</ele><time>2026-05-02T13:07:13.882Z</time></trkpt><trkpt lat="40.67793" lon="14.8575717"><ele>117.0</ele><time>2026-05-02T13:07:37.881Z</time></trkpt><trkpt lat="40.6781533" lon="14.8575967"><ele>117.0</ele><time>2026-05-02T13:07:38.881Z</time></trkpt><trkpt lat="40.678405" lon="14.857605"><ele>115.5</ele><time>2026-05-02T13:07:39.881Z</time></trkpt><trkpt lat="40.6786667" lon="14.8575767"><ele>114.0</ele><time>2026-05-02T13:07:40.881Z</time></trkpt><trkpt lat="40.6789367" lon="14.857535"><ele>114.0</ele><time>2026-05-02T13:07:41.881Z</time></trkpt><trkpt lat="40.6792083" lon="14.857485"><ele>114.0</ele><time>2026-05-02T13:07:42.881Z</time></trkpt><trkpt lat="40.679475" lon="14.8574317"><ele>114.0</ele><time>2026-05-02T13:07:43.88Z</time></trkpt><trkpt lat="40.6797417" lon="14.857375"><ele>114.0</ele><time>2026-05-02T13:07:44.88Z</time></trkpt><trkpt lat="40.6800117" lon="14.8573067"><ele>114.0</ele><time>2026-05-02T13:07:45.881Z</time></trkpt><trkpt lat="40.6802817" lon="14.8572283"><ele>114.0</ele><time>2026-05-02T13:07:46.881Z</time></trkpt><trkpt lat="40.6805417" lon="14.8571467"><ele>114.0</ele><time>2026-05-02T13:07:47.881Z</time></trkpt><trkpt lat="40.6808017" lon="14.85705"><ele>114.0</ele><time>2026-05-02T13:07:48.88Z</time></trkpt><trkpt lat="40.6810583" lon="14.856945"><ele>114.5</ele><time>2026-05-02T13:07:49.881Z</time></trkpt><trkpt lat="40.6813117" lon="14.8568283"><ele>115.0</ele><time>2026-05-02T13:07:50.88Z</time></trkpt><trkpt lat="40.6815667" lon="14.856695"><ele>115.0</ele><time>2026-05-02T13:07:51.881Z</time></trkpt><trkpt lat="40.6818217" lon="14.8565383"><ele>115.0</ele><time>2026-05-02T13:07:52.881Z</time></trkpt><trkpt lat="40.6820617" lon="14.85639"><ele>115.5</ele><time>2026-05-02T13:07:53.881Z</time></trkpt><trkpt lat="40.6822983" lon="14.8562183"><ele>116.0</ele><time>2026-05-02T13:07:54.881Z</time></trkpt><trkpt lat="40.6825317" lon="14.8560383"><ele>114.5</ele><time>2026-05-02T13:07:55.88Z</time></trkpt><trkpt lat="40.6827633" lon="14.8558517"><ele>113.0</ele><time>2026-05-02T13:07:56.88Z</time></trkpt><trkpt lat="40.68299" lon="14.855655"><ele>113.0</ele><time>2026-05-02T13:07:57.881Z</time></trkpt><trkpt lat="40.6832133" lon="14.85545"><ele>113.0</ele><time>2026-05-02T13:07:58.881Z</time></trkpt><trkpt lat="40.6834267" lon="14.855235"><ele>113.0</ele><time>2026-05-02T13:07:59.881Z</time></trkpt><trkpt lat="40.6836367" lon="14.85501"><ele>113.0</ele><time>2026-05-02T13:08:00.881Z</time></trkpt><trkpt lat="40.6838433" lon="14.8547767"><ele>113.0</ele><time>2026-05-02T13:08:01.88Z</time></trkpt><trkpt lat="40.6840417" lon="14.8545383"><ele>113.0</ele><time>2026-05-02T13:08:02.881Z</time></trkpt><trkpt lat="40.6842283" lon="14.8542833"><ele>113.0</ele><time>2026-05-02T13:08:03.881Z</time></trkpt><trkpt lat="40.6844117" lon="14.8540217"><ele>113.0</ele><time>2026-05-02T13:08:04.881Z</time></trkpt><trkpt lat="40.6845917" lon="14.8537567"><ele>114.0</ele><time>2026-05-02T13:08:05.881Z</time></trkpt><trkpt lat="40.684765" lon="14.8534817"><ele>115.0</ele><time>2026-05-02T13:08:06.88Z</time></trkpt><trkpt lat="40.684925" lon="14.8531983"><ele>115.0</ele><time>2026-05-02T13:08:07.88Z</time></trkpt><trkpt lat="40.6850833" lon="14.8529083"><ele>115.0</ele><time>2026-05-02T13:08:08.88Z</time></trkpt><trkpt lat="40.6852333" lon="14.852605"><ele>115.5</ele><time>2026-05-02T13:08:09.881Z</time></trkpt><trkpt lat="40.6853683" lon="14.8522967"><ele>116.0</ele><time>2026-05-02T13:08:10.881Z</time></trkpt><trkpt lat="40.6854917" lon="14.85198"><ele>114.0</ele><time>2026-05-02T13:08:11.881Z</time></trkpt><trkpt lat="40.6856083" lon="14.8516617"><ele>112.0</ele><time>2026-05-02T13:08:12.88Z</time></trkpt><trkpt lat="40.6857233" lon="14.8513417"><ele>112.0</ele><time>2026-05-02T13:08:13.88Z</time></trkpt><trkpt lat="40.6858383" lon="14.851015"><ele>112.0</ele><time>2026-05-02T13:08:14.88Z</time></trkpt><trkpt lat="40.68595" lon="14.850695"><ele>112.0</ele><time>2026-05-02T13:08:15.88Z</time></trkpt><trkpt lat="40.6860567" lon="14.85037"><ele>112.0</ele><time>2026-05-02T13:08:16.881Z</time></trkpt><trkpt lat="40.6861517" lon="14.85004"><ele>112.0</ele><time>2026-05-02T13:08:17.881Z</time></trkpt><trkpt lat="40.68624" lon="14.8497083"><ele>112.0</ele><time>2026-05-02T13:08:18.88Z</time></trkpt><trkpt lat="40.6863283" lon="14.8493667"><ele>111.5</ele><time>2026-05-02T13:08:19.88Z</time></trkpt><trkpt lat="40.6864117" lon="14.8490233"><ele>111.0</ele><time>2026-05-02T13:08:20.88Z</time></trkpt><trkpt lat="40.6864967" lon="14.84868"><ele>111.5</ele><time>2026-05-02T13:08:21.88Z</time></trkpt><trkpt lat="40.68658" lon="14.84834"><ele>112.0</ele><time>2026-05-02T13:08:22.881Z</time></trkpt><trkpt lat="40.686665" lon="14.8480017"><ele>112.0</ele><time>2026-05-02T13:08:23.88Z</time></trkpt><trkpt lat="40.6867533" lon="14.847665"><ele>112.0</ele><time>2026-05-02T13:08:24.881Z</time></trkpt><trkpt lat="40.6868417" lon="14.8473283"><ele>117.0</ele><time>2026-05-02T13:08:25.88Z</time></trkpt><trkpt lat="40.68693" lon="14.8469917"><ele>122.0</ele><time>2026-05-02T13:08:26.88Z</time></trkpt><trkpt lat="40.6870183" lon="14.8466583"><ele>122.0</ele><time>2026-05-02T13:08:27.88Z</time></trkpt><trkpt lat="40.6871033" lon="14.8463183"><ele>122.0</ele><time>2026-05-02T13:08:28.88Z</time></trkpt><trkpt lat="40.68719" lon="14.8459833"><ele>123.0</ele><time>2026-05-02T13:08:29.881Z</time></trkpt><trkpt lat="40.687275" lon="14.8456483"><ele>124.0</ele><time>2026-05-02T13:08:30.88Z</time></trkpt><trkpt lat="40.6873633" lon="14.8453133"><ele>125.0</ele><time>2026-05-02T13:08:31.881Z</time></trkpt><trkpt lat="40.68745" lon="14.844975"><ele>126.0</ele><time>2026-05-02T13:08:32.88Z</time></trkpt><trkpt lat="40.68754" lon="14.8446433"><ele>126.0</ele><time>2026-05-02T13:08:33.88Z</time></trkpt><trkpt lat="40.687635" lon="14.844305"><ele>126.0</ele><time>2026-05-02T13:08:34.88Z</time></trkpt><trkpt lat="40.68773" lon="14.84397"><ele>127.0</ele><time>2026-05-02T13:08:35.881Z</time></trkpt><trkpt lat="40.6878283" lon="14.8436383"><ele>128.0</ele><time>2026-05-02T13:08:36.881Z</time></trkpt><trkpt lat="40.6879233" lon="14.843305"><ele>128.5</ele><time>2026-05-02T13:08:37.88Z</time></trkpt><trkpt lat="40.6880267" lon="14.8429767"><ele>129.0</ele><time>2026-05-02T13:08:38.88Z</time></trkpt><trkpt lat="40.6881317" lon="14.8426517"><ele>129.5</ele><time>2026-05-02T13:08:39.88Z</time></trkpt><trkpt lat="40.6882433" lon="14.8423283"><ele>130.0</ele><time>2026-05-02T13:08:40.88Z</time></trkpt><trkpt lat="40.6883633" lon="14.84201"><ele>130.5</ele><time>2026-05-02T13:08:41.881Z</time></trkpt><trkpt lat="40.68849" lon="14.8416917"><ele>131.0</ele><time>2026-05-02T13:08:42.88Z</time></trkpt><trkpt lat="40.68862" lon="14.84138"><ele>133.5</ele><time>2026-05-02T13:08:43.88Z</time></trkpt><trkpt lat="40.688755" lon="14.8410717"><ele>136.0</ele><time>2026-05-02T13:08:44.88Z</time></trkpt><trkpt lat="40.6888917" lon="14.8407617"><ele>136.5</ele><time>2026-05-02T13:08:45.881Z</time></trkpt><trkpt lat="40.68903" lon="14.840455"><ele>137.0</ele><time>2026-05-02T13:08:46.88Z</time></trkpt><trkpt lat="40.68917" lon="14.840155"><ele>137.5</ele><time>2026-05-02T13:08:47.881Z</time></trkpt><trkpt lat="40.6893167" lon="14.83984"><ele>138.0</ele><time>2026-05-02T13:08:48.881Z</time></trkpt><trkpt lat="40.6894617" lon="14.83955"><ele>140.0</ele><time>2026-05-02T13:08:49.881Z</time></trkpt><trkpt lat="40.6896117" lon="14.8392583"><ele>142.0</ele><time>2026-05-02T13:08:50.88Z</time></trkpt><trkpt lat="40.6897683" lon="14.83897"><ele>142.0</ele><time>2026-05-02T13:08:51.88Z</time></trkpt><trkpt lat="40.6899317" lon="14.8386883"><ele>142.0</ele><time>2026-05-02T13:08:52.881Z</time></trkpt><trkpt lat="40.6900983" lon="14.83841"><ele>144.5</ele><time>2026-05-02T13:08:53.881Z</time></trkpt><trkpt lat="40.6902683" lon="14.83813"><ele>147.0</ele><time>2026-05-02T13:08:54.881Z</time></trkpt><trkpt lat="40.6904383" lon="14.8378567"><ele>148.5</ele><time>2026-05-02T13:08:55.881Z</time></trkpt><trkpt lat="40.6906117" lon="14.8375867"><ele>150.0</ele><time>2026-05-02T13:08:56.881Z</time></trkpt><trkpt lat="40.69079" lon="14.8373183"><ele>150.0</ele><time>2026-05-02T13:08:57.881Z</time></trkpt><trkpt lat="40.6909717" lon="14.8370583"><ele>150.0</ele><time>2026-05-02T13:08:58.881Z</time></trkpt><trkpt lat="40.6911467" lon="14.8368167"><ele>150.5</ele><time>2026-05-02T13:08:59.881Z</time></trkpt><trkpt lat="40.6913167" lon="14.8365967"><ele>151.0</ele><time>2026-05-02T13:09:00.88Z</time></trkpt><trkpt lat="40.6914783" lon="14.8363933"><ele>151.0</ele><time>2026-05-02T13:09:01.88Z</time></trkpt><trkpt lat="40.6916317" lon="14.8362067"><ele>151.0</ele><time>2026-05-02T13:09:02.881Z</time></trkpt><trkpt lat="40.69178" lon="14.8360383"><ele>151.0</ele><time>2026-05-02T13:09:03.88Z</time></trkpt><trkpt lat="40.6919217" lon="14.83589"><ele>152.33333333333334</ele><time>2026-05-02T13:09:04.881Z</time></trkpt><trkpt lat="40.6920633" lon="14.8357583"><ele>153.66666666666666</ele><time>2026-05-02T13:09:05.881Z</time></trkpt><trkpt lat="40.692195" lon="14.8356467"><ele>155.0</ele><time>2026-05-02T13:09:06.881Z</time></trkpt><trkpt lat="40.69231" lon="14.83555"><ele>155.0</ele><time>2026-05-02T13:09:07.881Z</time></trkpt><trkpt lat="40.69241" lon="14.8354633"><ele>155.0</ele><time>2026-05-02T13:09:08.88Z</time></trkpt><trkpt lat="40.692495" lon="14.8353917"><ele>155.0</ele><time>2026-05-02T13:09:09.88Z</time></trkpt><trkpt lat="40.6925667" lon="14.8353267"><ele>155.0</ele><time>2026-05-02T13:09:10.881Z</time></trkpt><trkpt lat="40.6926167" lon="14.835265"><ele>155.0</ele><time>2026-05-02T13:09:11.881Z</time></trkpt><trkpt lat="40.6926667" lon="14.8351533"><ele>155.16666666666666</ele><time>2026-05-02T13:09:13.88Z</time></trkpt><trkpt lat="40.6927333" lon="14.8350383"><ele>155.33333333333331</ele><time>2026-05-02T13:11:04.879Z</time></trkpt><trkpt lat="40.692775" lon="14.8349317"><ele>155.5</ele><time>2026-05-02T13:11:06.88Z</time></trkpt><trkpt lat="40.6928433" lon="14.83481"><ele>155.66666666666666</ele><time>2026-05-02T13:11:08.879Z</time></trkpt><trkpt lat="40.69289" lon="14.83475"><ele>155.83333333333334</ele><time>2026-05-02T13:11:09.879Z</time></trkpt><trkpt lat="40.6929333" lon="14.83468"><ele>156.0</ele><time>2026-05-02T13:11:10.88Z</time></trkpt><trkpt lat="40.6929767" lon="14.8346167"><ele>156.2857142857143</ele><time>2026-05-02T13:11:11.879Z</time></trkpt><trkpt lat="40.69302" lon="14.834555"><ele>156.57142857142856</ele><time>2026-05-02T13:11:12.879Z</time></trkpt><trkpt lat="40.69307" lon="14.8344983"><ele>156.85714285714286</ele><time>2026-05-02T13:11:13.879Z</time></trkpt><trkpt lat="40.693115" lon="14.834435"><ele>157.14285714285717</ele><time>2026-05-02T13:11:14.88Z</time></trkpt><trkpt lat="40.6931633" lon="14.834375"><ele>157.42857142857144</ele><time>2026-05-02T13:11:15.88Z</time></trkpt><trkpt lat="40.693215" lon="14.83431"><ele>157.71428571428572</ele><time>2026-05-02T13:11:16.879Z</time></trkpt><trkpt lat="40.6932633" lon="14.834245"><ele>158.0</ele><time>2026-05-02T13:11:17.879Z</time></trkpt><trkpt lat="40.69331" lon="14.83417"><ele>158.0</ele><time>2026-05-02T13:11:18.88Z</time></trkpt><trkpt lat="40.693355" lon="14.8340867"><ele>158.0</ele><time>2026-05-02T13:11:19.88Z</time></trkpt><trkpt lat="40.69341" lon="14.83399"><ele>158.0</ele><time>2026-05-02T13:11:20.879Z</time></trkpt><trkpt lat="40.6934667" lon="14.8338767"><ele>158.0</ele><time>2026-05-02T13:11:21.879Z</time></trkpt><trkpt lat="40.69353" lon="14.8337483"><ele>158.0</ele><time>2026-05-02T13:11:22.88Z</time></trkpt><trkpt lat="40.6936067" lon="14.8336033"><ele>160.0</ele><time>2026-05-02T13:11:23.88Z</time></trkpt><trkpt lat="40.693725" lon="14.8334333"><ele>162.0</ele><time>2026-05-02T13:11:24.879Z</time></trkpt><trkpt lat="40.6938667" lon="14.833255"><ele>164.0</ele><time>2026-05-02T13:11:25.88Z</time></trkpt><trkpt lat="40.694015" lon="14.8330467"><ele>164.0</ele><time>2026-05-02T13:11:26.879Z</time></trkpt><trkpt lat="40.694175" lon="14.8328267"><ele>164.0</ele><time>2026-05-02T13:11:27.879Z</time></trkpt><trkpt lat="40.6943433" lon="14.8325933"><ele>165.0</ele><time>2026-05-02T13:11:28.88Z</time></trkpt><trkpt lat="40.6945217" lon="14.832345"><ele>166.0</ele><time>2026-05-02T13:11:29.88Z</time></trkpt><trkpt lat="40.694705" lon="14.832075"><ele>166.0</ele><time>2026-05-02T13:11:30.879Z</time></trkpt><trkpt lat="40.694895" lon="14.8317883"><ele>166.0</ele><time>2026-05-02T13:11:31.879Z</time></trkpt><trkpt lat="40.6950867" lon="14.8314883"><ele>168.5</ele><time>2026-05-02T13:11:32.879Z</time></trkpt><trkpt lat="40.69529" lon="14.8311817"><ele>171.0</ele><time>2026-05-02T13:11:33.88Z</time></trkpt><trkpt lat="40.695485" lon="14.8308767"><ele>172.5</ele><time>2026-05-02T13:11:34.88Z</time></trkpt><trkpt lat="40.69567" lon="14.8305783"><ele>174.0</ele><time>2026-05-02T13:11:35.879Z</time></trkpt><trkpt lat="40.6958383" lon="14.8302917"><ele>174.5</ele><time>2026-05-02T13:11:36.879Z</time></trkpt><trkpt lat="40.6959933" lon="14.8300167"><ele>175.0</ele><time>2026-05-02T13:11:37.879Z</time></trkpt><trkpt lat="40.696145" lon="14.82975"><ele>176.0</ele><time>2026-05-02T13:11:38.879Z</time></trkpt><trkpt lat="40.69628" lon="14.82948"><ele>177.0</ele><time>2026-05-02T13:11:39.879Z</time></trkpt><trkpt lat="40.6964233" lon="14.8292217"><ele>178.0</ele><time>2026-05-02T13:11:40.88Z</time></trkpt><trkpt lat="40.6965417" lon="14.8289483"><ele>179.0</ele><time>2026-05-02T13:11:41.88Z</time></trkpt><trkpt lat="40.6966633" lon="14.828675"><ele>178.0</ele><time>2026-05-02T13:11:42.88Z</time></trkpt><trkpt lat="40.6967933" lon="14.8283983"><ele>177.0</ele><time>2026-05-02T13:11:43.88Z</time></trkpt><trkpt lat="40.6969167" lon="14.8281083"><ele>178.0</ele><time>2026-05-02T13:11:44.88Z</time></trkpt><trkpt lat="40.6970383" lon="14.82782"><ele>179.0</ele><time>2026-05-02T13:11:45.879Z</time></trkpt><trkpt lat="40.6971633" lon="14.8275217"><ele>179.0</ele><time>2026-05-02T13:11:46.88Z</time></trkpt><trkpt lat="40.69728" lon="14.8272083"><ele>179.0</ele><time>2026-05-02T13:11:47.879Z</time></trkpt><trkpt lat="40.6973933" lon="14.826905"><ele>177.5</ele><time>2026-05-02T13:11:48.879Z</time></trkpt><trkpt lat="40.6975" lon="14.826595"><ele>176.0</ele><time>2026-05-02T13:11:49.88Z</time></trkpt><trkpt lat="40.697605" lon="14.826285"><ele>176.0</ele><time>2026-05-02T13:11:50.879Z</time></trkpt><trkpt lat="40.697705" lon="14.8259817"><ele>176.0</ele><time>2026-05-02T13:11:51.88Z</time></trkpt><trkpt lat="40.6978" lon="14.8256767"><ele>175.5</ele><time>2026-05-02T13:11:52.88Z</time></trkpt><trkpt lat="40.6978933" lon="14.8253617"><ele>175.0</ele><time>2026-05-02T13:11:53.88Z</time></trkpt><trkpt lat="40.697975" lon="14.825045"><ele>175.0</ele><time>2026-05-02T13:11:54.879Z</time></trkpt><trkpt lat="40.6980517" lon="14.8247183"><ele>175.0</ele><time>2026-05-02T13:11:55.88Z</time></trkpt><trkpt lat="40.6981283" lon="14.824395"><ele>175.0</ele><time>2026-05-02T13:11:56.879Z</time></trkpt><trkpt lat="40.6982" lon="14.8240717"><ele>175.0</ele><time>2026-05-02T13:11:57.88Z</time></trkpt><trkpt lat="40.6982717" lon="14.8237467"><ele>175.5</ele><time>2026-05-02T13:11:58.879Z</time></trkpt><trkpt lat="40.6983383" lon="14.82342"><ele>176.0</ele><time>2026-05-02T13:11:59.88Z</time></trkpt><trkpt lat="40.6984" lon="14.8230933"><ele>176.0</ele><time>2026-05-02T13:12:00.879Z</time></trkpt><trkpt lat="40.6984567" lon="14.8227633"><ele>176.0</ele><time>2026-05-02T13:12:01.879Z</time></trkpt><trkpt lat="40.69851" lon="14.822435"><ele>176.5</ele><time>2026-05-02T13:12:02.879Z</time></trkpt><trkpt lat="40.69856" lon="14.8221033"><ele>177.0</ele><time>2026-05-02T13:12:03.879Z</time></trkpt><trkpt lat="40.6986017" lon="14.8217683"><ele>177.5</ele><time>2026-05-02T13:12:04.88Z</time></trkpt><trkpt lat="40.6986467" lon="14.821435"><ele>178.0</ele><time>2026-05-02T13:12:05.879Z</time></trkpt><trkpt lat="40.6986867" lon="14.8211017"><ele>179.0</ele><time>2026-05-02T13:12:06.879Z</time></trkpt><trkpt lat="40.6987217" lon="14.8207717"><ele>180.0</ele><time>2026-05-02T13:12:07.88Z</time></trkpt><trkpt lat="40.698755" lon="14.8204367"><ele>180.5</ele><time>2026-05-02T13:12:08.88Z</time></trkpt><trkpt lat="40.6987933" lon="14.8201033"><ele>181.0</ele><time>2026-05-02T13:12:09.879Z</time></trkpt><trkpt lat="40.6988317" lon="14.8197683"><ele>181.0</ele><time>2026-05-02T13:12:10.88Z</time></trkpt><trkpt lat="40.6988667" lon="14.8194317"><ele>181.0</ele><time>2026-05-02T13:12:11.88Z</time></trkpt><trkpt lat="40.698895" lon="14.8191083"><ele>182.0</ele><time>2026-05-02T13:12:12.88Z</time></trkpt><trkpt lat="40.6989233" lon="14.81878"><ele>183.0</ele><time>2026-05-02T13:12:13.88Z</time></trkpt><trkpt lat="40.6989517" lon="14.8184483"><ele>184.5</ele><time>2026-05-02T13:12:14.879Z</time></trkpt><trkpt lat="40.698985" lon="14.8181133"><ele>186.0</ele><time>2026-05-02T13:12:15.88Z</time></trkpt><trkpt lat="40.6990267" lon="14.8177783"><ele>187.0</ele><time>2026-05-02T13:12:16.88Z</time></trkpt><trkpt lat="40.6990717" lon="14.81745"><ele>188.0</ele><time>2026-05-02T13:12:17.88Z</time></trkpt><trkpt lat="40.69911" lon="14.8171183"><ele>189.5</ele><time>2026-05-02T13:12:18.879Z</time></trkpt><trkpt lat="40.6991483" lon="14.8167867"><ele>191.0</ele><time>2026-05-02T13:12:19.88Z</time></trkpt><trkpt lat="40.6995617" lon="14.8110433"><ele>183.5</ele><time>2026-05-02T13:12:36.882Z</time></trkpt><trkpt lat="40.6995417" lon="14.8106883"><ele>176.0</ele><time>2026-05-02T13:12:37.882Z</time></trkpt><trkpt lat="40.6995217" lon="14.8103417"><ele>177.0</ele><time>2026-05-02T13:12:38.883Z</time></trkpt><trkpt lat="40.6995017" lon="14.81"><ele>178.0</ele><time>2026-05-02T13:12:39.883Z</time></trkpt><trkpt lat="40.6994783" lon="14.80966"><ele>178.0</ele><time>2026-05-02T13:12:40.882Z</time></trkpt><trkpt lat="40.6994533" lon="14.8093267"><ele>178.0</ele><time>2026-05-02T13:12:41.882Z</time></trkpt><trkpt lat="40.6994217" lon="14.80899"><ele>173.0</ele><time>2026-05-02T13:12:42.882Z</time></trkpt><trkpt lat="40.69939" lon="14.8086567"><ele>168.0</ele><time>2026-05-02T13:12:43.883Z</time></trkpt><trkpt lat="40.6993583" lon="14.808315"><ele>164.0</ele><time>2026-05-02T13:12:44.883Z</time></trkpt><trkpt lat="40.699315" lon="14.8079867"><ele>160.0</ele><time>2026-05-02T13:12:45.883Z</time></trkpt><trkpt lat="40.6992617" lon="14.8076583"><ele>156.5</ele><time>2026-05-02T13:12:46.882Z</time></trkpt><trkpt lat="40.6992" lon="14.8073267"><ele>153.0</ele><time>2026-05-02T13:12:47.882Z</time></trkpt><trkpt lat="40.6991367" lon="14.8070017"><ele>154.0</ele><time>2026-05-02T13:12:48.882Z</time></trkpt><trkpt lat="40.6990667" lon="14.806675"><ele>155.0</ele><time>2026-05-02T13:12:49.882Z</time></trkpt><trkpt lat="40.6990017" lon="14.80635"><ele>155.0</ele><time>2026-05-02T13:12:50.883Z</time></trkpt><trkpt lat="40.6989283" lon="14.8060233"><ele>155.0</ele><time>2026-05-02T13:12:51.883Z</time></trkpt><trkpt lat="40.6988583" lon="14.8057"><ele>156.0</ele><time>2026-05-02T13:12:52.882Z</time></trkpt><trkpt lat="40.6987833" lon="14.805375"><ele>157.0</ele><time>2026-05-02T13:12:53.883Z</time></trkpt><trkpt lat="40.6987133" lon="14.8050483"><ele>153.5</ele><time>2026-05-02T13:12:54.882Z</time></trkpt><trkpt lat="40.6986433" lon="14.8047217"><ele>150.0</ele><time>2026-05-02T13:12:55.882Z</time></trkpt><trkpt lat="40.698575" lon="14.804395"><ele>144.0</ele><time>2026-05-02T13:12:56.883Z</time></trkpt><trkpt lat="40.6985067" lon="14.80407"><ele>138.0</ele><time>2026-05-02T13:12:57.883Z</time></trkpt><trkpt lat="40.69843" lon="14.8037467"><ele>139.5</ele><time>2026-05-02T13:12:58.883Z</time></trkpt><trkpt lat="40.6983517" lon="14.8034217"><ele>141.0</ele><time>2026-05-02T13:12:59.883Z</time></trkpt><trkpt lat="40.698275" lon="14.8031033"><ele>141.0</ele><time>2026-05-02T13:13:00.882Z</time></trkpt><trkpt lat="40.6981967" lon="14.8027817"><ele>141.0</ele><time>2026-05-02T13:13:01.883Z</time></trkpt><trkpt lat="40.6981233" lon="14.8024583"><ele>142.0</ele><time>2026-05-02T13:13:02.882Z</time></trkpt><trkpt lat="40.698045" lon="14.8021367"><ele>143.0</ele><time>2026-05-02T13:13:03.882Z</time></trkpt><trkpt lat="40.6979733" lon="14.8018183"><ele>143.0</ele><time>2026-05-02T13:13:04.883Z</time></trkpt><trkpt lat="40.6979017" lon="14.801495"><ele>143.0</ele><time>2026-05-02T13:13:05.882Z</time></trkpt><trkpt lat="40.6978317" lon="14.80117"><ele>137.0</ele><time>2026-05-02T13:13:06.883Z</time></trkpt><trkpt lat="40.6977617" lon="14.8008433"><ele>131.0</ele><time>2026-05-02T13:13:07.882Z</time></trkpt><trkpt lat="40.6976967" lon="14.80052"><ele>128.0</ele><time>2026-05-02T13:13:08.883Z</time></trkpt><trkpt lat="40.69763" lon="14.8001933"><ele>125.0</ele><time>2026-05-02T13:13:09.882Z</time></trkpt><trkpt lat="40.6975667" lon="14.7998667"><ele>125.0</ele><time>2026-05-02T13:13:10.883Z</time></trkpt><trkpt lat="40.6975033" lon="14.7995383"><ele>125.0</ele><time>2026-05-02T13:13:11.882Z</time></trkpt><trkpt lat="40.6974433" lon="14.7992117"><ele>125.0</ele><time>2026-05-02T13:13:12.882Z</time></trkpt><trkpt lat="40.6973917" lon="14.79888"><ele>125.0</ele><time>2026-05-02T13:13:13.882Z</time></trkpt><trkpt lat="40.6973483" lon="14.7985517"><ele>122.5</ele><time>2026-05-02T13:13:14.883Z</time></trkpt><trkpt lat="40.6973133" lon="14.79822"><ele>120.0</ele><time>2026-05-02T13:13:15.883Z</time></trkpt><trkpt lat="40.6972833" lon="14.797885"><ele>118.0</ele><time>2026-05-02T13:13:16.883Z</time></trkpt><trkpt lat="40.6972517" lon="14.7975467"><ele>116.0</ele><time>2026-05-02T13:13:17.883Z</time></trkpt><trkpt lat="40.69722" lon="14.79721"><ele>116.0</ele><time>2026-05-02T13:13:18.882Z</time></trkpt><trkpt lat="40.6971967" lon="14.79687"><ele>116.0</ele><time>2026-05-02T13:13:19.882Z</time></trkpt><trkpt lat="40.69718" lon="14.7965317"><ele>114.0</ele><time>2026-05-02T13:13:20.882Z</time></trkpt><trkpt lat="40.6971683" lon="14.7961933"><ele>112.0</ele><time>2026-05-02T13:13:21.883Z</time></trkpt><trkpt lat="40.69716" lon="14.7958583"><ele>111.0</ele><time>2026-05-02T13:13:22.882Z</time></trkpt><trkpt lat="40.6971583" lon="14.7955217"><ele>110.0</ele><time>2026-05-02T13:13:23.882Z</time></trkpt><trkpt lat="40.6971633" lon="14.795185"><ele>111.5</ele><time>2026-05-02T13:13:24.882Z</time></trkpt><trkpt lat="40.6971717" lon="14.7948483"><ele>113.0</ele><time>2026-05-02T13:13:25.882Z</time></trkpt><trkpt lat="40.69718" lon="14.7945117"><ele>114.0</ele><time>2026-05-02T13:13:26.883Z</time></trkpt><trkpt lat="40.6971983" lon="14.7941717"><ele>115.0</ele><time>2026-05-02T13:13:27.882Z</time></trkpt><trkpt lat="40.6972183" lon="14.7938367"><ele>115.0</ele><time>2026-05-02T13:13:28.882Z</time></trkpt><trkpt lat="40.6972417" lon="14.7935"><ele>115.0</ele><time>2026-05-02T13:13:29.883Z</time></trkpt><trkpt lat="40.6972733" lon="14.7931667"><ele>115.0</ele><time>2026-05-02T13:13:30.882Z</time></trkpt><trkpt lat="40.6972983" lon="14.7928283"><ele>115.0</ele><time>2026-05-02T13:13:31.882Z</time></trkpt><trkpt lat="40.6973317" lon="14.7924933"><ele>112.5</ele><time>2026-05-02T13:13:32.882Z</time></trkpt><trkpt lat="40.6973583" lon="14.7921567"><ele>110.0</ele><time>2026-05-02T13:13:33.883Z</time></trkpt><trkpt lat="40.69739" lon="14.7918233"><ele>107.5</ele><time>2026-05-02T13:13:34.883Z</time></trkpt><trkpt lat="40.6974117" lon="14.79148"><ele>105.0</ele><time>2026-05-02T13:13:35.882Z</time></trkpt><trkpt lat="40.6974317" lon="14.7911417"><ele>103.0</ele><time>2026-05-02T13:13:36.882Z</time></trkpt><trkpt lat="40.6974483" lon="14.7908083"><ele>101.0</ele><time>2026-05-02T13:13:37.882Z</time></trkpt><trkpt lat="40.6974617" lon="14.7904717"><ele>99.0</ele><time>2026-05-02T13:13:38.883Z</time></trkpt><trkpt lat="40.69747" lon="14.79013"><ele>97.0</ele><time>2026-05-02T13:13:39.882Z</time></trkpt><trkpt lat="40.6974717" lon="14.789795"><ele>97.0</ele><time>2026-05-02T13:13:40.882Z</time></trkpt><trkpt lat="40.697465" lon="14.78945"><ele>97.0</ele><time>2026-05-02T13:13:41.883Z</time></trkpt><trkpt lat="40.6974517" lon="14.7891183"><ele>96.5</ele><time>2026-05-02T13:13:42.883Z</time></trkpt><trkpt lat="40.6974217" lon="14.7887817"><ele>96.0</ele><time>2026-05-02T13:13:43.883Z</time></trkpt><trkpt lat="40.6973867" lon="14.7884467"><ele>93.0</ele><time>2026-05-02T13:13:44.883Z</time></trkpt><trkpt lat="40.6973517" lon="14.7881167"><ele>90.0</ele><time>2026-05-02T13:13:45.882Z</time></trkpt><trkpt lat="40.6973083" lon="14.7877817"><ele>87.5</ele><time>2026-05-02T13:13:46.883Z</time></trkpt><trkpt lat="40.697255" lon="14.7874517"><ele>85.0</ele><time>2026-05-02T13:13:47.883Z</time></trkpt><trkpt lat="40.697195" lon="14.7871233"><ele>85.0</ele><time>2026-05-02T13:13:48.883Z</time></trkpt><trkpt lat="40.6971317" lon="14.7867933"><ele>85.0</ele><time>2026-05-02T13:13:49.883Z</time></trkpt><trkpt lat="40.6970683" lon="14.7864683"><ele>85.0</ele><time>2026-05-02T13:13:50.882Z</time></trkpt><trkpt lat="40.6970083" lon="14.7861467"><ele>85.0</ele><time>2026-05-02T13:13:51.883Z</time></trkpt><trkpt lat="40.6969433" lon="14.785825"><ele>79.0</ele><time>2026-05-02T13:13:52.882Z</time></trkpt><trkpt lat="40.69688" lon="14.7854917"><ele>73.0</ele><time>2026-05-02T13:13:53.883Z</time></trkpt><trkpt lat="40.696815" lon="14.78516"><ele>72.0</ele><time>2026-05-02T13:13:54.883Z</time></trkpt><trkpt lat="40.6967583" lon="14.7848333"><ele>71.0</ele><time>2026-05-02T13:13:55.883Z</time></trkpt><trkpt lat="40.6966983" lon="14.7845067"><ele>71.0</ele><time>2026-05-02T13:13:56.882Z</time></trkpt><trkpt lat="40.6966367" lon="14.7841767"><ele>71.0</ele><time>2026-05-02T13:13:57.883Z</time></trkpt><trkpt lat="40.696585" lon="14.78385"><ele>71.0</ele><time>2026-05-02T13:13:58.882Z</time></trkpt><trkpt lat="40.6965333" lon="14.7835183"><ele>71.0</ele><time>2026-05-02T13:13:59.883Z</time></trkpt><trkpt lat="40.6964917" lon="14.7831883"><ele>71.0</ele><time>2026-05-02T13:14:00.882Z</time></trkpt><trkpt lat="40.69647" lon="14.7828583"><ele>71.0</ele><time>2026-05-02T13:14:01.883Z</time></trkpt><trkpt lat="40.6964567" lon="14.782525"><ele>71.0</ele><time>2026-05-02T13:14:02.882Z</time></trkpt><trkpt lat="40.696485" lon="14.7821917"><ele>71.0</ele><time>2026-05-02T13:14:03.882Z</time></trkpt><trkpt lat="40.6965517" lon="14.78188"><ele>70.0</ele><time>2026-05-02T13:14:04.883Z</time></trkpt><trkpt lat="40.6966383" lon="14.7815783"><ele>69.0</ele><time>2026-05-02T13:14:05.882Z</time></trkpt><trkpt lat="40.69675" lon="14.781285"><ele>69.5</ele><time>2026-05-02T13:14:06.882Z</time></trkpt><trkpt lat="40.69688" lon="14.7810067"><ele>70.0</ele><time>2026-05-02T13:14:07.882Z</time></trkpt><trkpt lat="40.6970383" lon="14.78075"><ele>77.0</ele><time>2026-05-02T13:14:08.882Z</time></trkpt><trkpt lat="40.6972217" lon="14.7805083"><ele>84.0</ele><time>2026-05-02T13:14:09.883Z</time></trkpt><trkpt lat="40.6974233" lon="14.7803067"><ele>83.5</ele><time>2026-05-02T13:14:10.883Z</time></trkpt><trkpt lat="40.6976283" lon="14.7801117"><ele>83.0</ele><time>2026-05-02T13:14:11.882Z</time></trkpt><trkpt lat="40.6978367" lon="14.779925"><ele>83.0</ele><time>2026-05-02T13:14:12.882Z</time></trkpt><trkpt lat="40.6980533" lon="14.7797417"><ele>83.0</ele><time>2026-05-02T13:14:13.882Z</time></trkpt><trkpt lat="40.6982733" lon="14.7795733"><ele>83.0</ele><time>2026-05-02T13:14:14.883Z</time></trkpt><trkpt lat="40.6985067" lon="14.7794367"><ele>83.0</ele><time>2026-05-02T13:14:15.882Z</time></trkpt><trkpt lat="40.698745" lon="14.7793267"><ele>76.0</ele><time>2026-05-02T13:14:16.882Z</time></trkpt><trkpt lat="40.69898" lon="14.77923"><ele>69.0</ele><time>2026-05-02T13:14:17.882Z</time></trkpt><trkpt lat="40.6992167" lon="14.7791567"><ele>68.5</ele><time>2026-05-02T13:14:18.883Z</time></trkpt><trkpt lat="40.699465" lon="14.7790917"><ele>68.0</ele><time>2026-05-02T13:14:19.883Z</time></trkpt><trkpt lat="40.6997183" lon="14.7790417"><ele>68.0</ele><time>2026-05-02T13:14:20.882Z</time></trkpt><trkpt lat="40.6999717" lon="14.778995"><ele>68.0</ele><time>2026-05-02T13:14:21.882Z</time></trkpt><trkpt lat="40.7002217" lon="14.7789617"><ele>70.5</ele><time>2026-05-02T13:14:22.883Z</time></trkpt><trkpt lat="40.7004767" lon="14.7789217"><ele>73.0</ele><time>2026-05-02T13:14:23.882Z</time></trkpt><trkpt lat="40.7007283" lon="14.7788883"><ele>73.0</ele><time>2026-05-02T13:14:24.882Z</time></trkpt><trkpt lat="40.70098" lon="14.7788567"><ele>73.0</ele><time>2026-05-02T13:14:25.882Z</time></trkpt><trkpt lat="40.7012317" lon="14.7788233"><ele>76.0</ele><time>2026-05-02T13:14:26.882Z</time></trkpt><trkpt lat="40.7014883" lon="14.7787933"><ele>79.0</ele><time>2026-05-02T13:14:27.883Z</time></trkpt><trkpt lat="40.7017433" lon="14.7787633"><ele>81.5</ele><time>2026-05-02T13:14:28.883Z</time></trkpt><trkpt lat="40.7019967" lon="14.778735"><ele>84.0</ele><time>2026-05-02T13:14:29.883Z</time></trkpt><trkpt lat="40.7022517" lon="14.7787033"><ele>84.0</ele><time>2026-05-02T13:14:30.883Z</time></trkpt><trkpt lat="40.7025083" lon="14.7786733"><ele>84.0</ele><time>2026-05-02T13:14:31.882Z</time></trkpt><trkpt lat="40.7027683" lon="14.77864"><ele>86.0</ele><time>2026-05-02T13:14:32.882Z</time></trkpt><trkpt lat="40.7030233" lon="14.778615"><ele>88.0</ele><time>2026-05-02T13:14:33.882Z</time></trkpt><trkpt lat="40.70328" lon="14.77859"><ele>88.0</ele><time>2026-05-02T13:14:34.883Z</time></trkpt><trkpt lat="40.7035367" lon="14.7785617"><ele>88.0</ele><time>2026-05-02T13:14:35.882Z</time></trkpt><trkpt lat="40.7037883" lon="14.7785383"><ele>88.0</ele><time>2026-05-02T13:14:36.882Z</time></trkpt><trkpt lat="40.7040417" lon="14.7785183"><ele>88.0</ele><time>2026-05-02T13:14:37.883Z</time></trkpt><trkpt lat="40.704295" lon="14.7785"><ele>86.5</ele><time>2026-05-02T13:14:38.882Z</time></trkpt><trkpt lat="40.7045517" lon="14.7784883"><ele>85.0</ele><time>2026-05-02T13:14:39.882Z</time></trkpt><trkpt lat="40.7048067" lon="14.778495"><ele>87.0</ele><time>2026-05-02T13:14:40.883Z</time></trkpt><trkpt lat="40.705065" lon="14.7785217"><ele>89.0</ele><time>2026-05-02T13:14:41.882Z</time></trkpt><trkpt lat="40.7053167" lon="14.7785683"><ele>89.5</ele><time>2026-05-02T13:14:42.883Z</time></trkpt><trkpt lat="40.7055617" lon="14.7786333"><ele>90.0</ele><time>2026-05-02T13:14:43.883Z</time></trkpt><trkpt lat="40.7057967" lon="14.7787183"><ele>90.0</ele><time>2026-05-02T13:14:44.882Z</time></trkpt><trkpt lat="40.7060283" lon="14.77882"><ele>90.0</ele><time>2026-05-02T13:14:45.882Z</time></trkpt><trkpt lat="40.7062617" lon="14.7789333"><ele>91.0</ele><time>2026-05-02T13:14:46.882Z</time></trkpt><trkpt lat="40.7064917" lon="14.7790583"><ele>92.0</ele><time>2026-05-02T13:14:47.883Z</time></trkpt><trkpt lat="40.70671" lon="14.7791867"><ele>92.0</ele><time>2026-05-02T13:14:48.883Z</time></trkpt><trkpt lat="40.70692" lon="14.7793033"><ele>92.0</ele><time>2026-05-02T13:14:49.883Z</time></trkpt><trkpt lat="40.7071217" lon="14.7794133"><ele>92.0</ele><time>2026-05-02T13:14:50.882Z</time></trkpt><trkpt lat="40.707325" lon="14.7795233"><ele>96.0</ele><time>2026-05-02T13:14:51.882Z</time></trkpt><trkpt lat="40.7075283" lon="14.7796333"><ele>100.0</ele><time>2026-05-02T13:14:52.883Z</time></trkpt><trkpt lat="40.7077317" lon="14.7797483"><ele>104.0</ele><time>2026-05-02T13:14:53.883Z</time></trkpt><trkpt lat="40.70794" lon="14.7798633"><ele>104.0</ele><time>2026-05-02T13:14:54.882Z</time></trkpt><trkpt lat="40.7081633" lon="14.7799767"><ele>104.0</ele><time>2026-05-02T13:14:55.882Z</time></trkpt><trkpt lat="40.7084" lon="14.7800883"><ele>101.5</ele><time>2026-05-02T13:14:56.883Z</time></trkpt><trkpt lat="40.7086567" lon="14.78017"><ele>99.0</ele><time>2026-05-02T13:14:57.883Z</time></trkpt><trkpt lat="40.70892" lon="14.7802317"><ele>110.0</ele><time>2026-05-02T13:14:58.882Z</time></trkpt><trkpt lat="40.70919" lon="14.7802717"><ele>121.0</ele><time>2026-05-02T13:14:59.882Z</time></trkpt><trkpt lat="40.709465" lon="14.7802867"><ele>122.0</ele><time>2026-05-02T13:15:00.882Z</time></trkpt><trkpt lat="40.709745" lon="14.78028"><ele>123.0</ele><time>2026-05-02T13:15:01.882Z</time></trkpt><trkpt lat="40.71002" lon="14.7802633"><ele>126.0</ele><time>2026-05-02T13:15:02.882Z</time></trkpt><trkpt lat="40.710295" lon="14.780225"><ele>129.0</ele><time>2026-05-02T13:15:03.882Z</time></trkpt><trkpt lat="40.7105667" lon="14.78016"><ele>121.5</ele><time>2026-05-02T13:15:04.882Z</time></trkpt><trkpt lat="40.7108467" lon="14.7800683"><ele>114.0</ele><time>2026-05-02T13:15:05.882Z</time></trkpt><trkpt lat="40.7111217" lon="14.77996"><ele>114.0</ele><time>2026-05-02T13:15:06.882Z</time></trkpt><trkpt lat="40.7113967" lon="14.7798483"><ele>114.0</ele><time>2026-05-02T13:15:07.882Z</time></trkpt><trkpt lat="40.7116683" lon="14.77973"><ele>118.0</ele><time>2026-05-02T13:15:08.883Z</time></trkpt><trkpt lat="40.7119433" lon="14.7796117"><ele>122.0</ele><time>2026-05-02T13:15:09.882Z</time></trkpt><trkpt lat="40.712215" lon="14.779495"><ele>122.0</ele><time>2026-05-02T13:15:10.882Z</time></trkpt><trkpt lat="40.7124883" lon="14.7793917"><ele>122.0</ele><time>2026-05-02T13:15:11.882Z</time></trkpt><trkpt lat="40.7127633" lon="14.7793083"><ele>120.5</ele><time>2026-05-02T13:15:12.883Z</time></trkpt><trkpt lat="40.713045" lon="14.779245"><ele>119.0</ele><time>2026-05-02T13:15:13.882Z</time></trkpt><trkpt lat="40.71332" lon="14.77919"><ele>118.0</ele><time>2026-05-02T13:15:14.883Z</time></trkpt><trkpt lat="40.713595" lon="14.7791283"><ele>117.0</ele><time>2026-05-02T13:15:15.883Z</time></trkpt><trkpt lat="40.713865" lon="14.7790783"><ele>117.0</ele><time>2026-05-02T13:15:16.883Z</time></trkpt><trkpt lat="40.7141417" lon="14.7790283"><ele>117.0</ele><time>2026-05-02T13:15:17.883Z</time></trkpt><trkpt lat="40.71443" lon="14.77897"><ele>123.0</ele><time>2026-05-02T13:15:18.883Z</time></trkpt><trkpt lat="40.7147167" lon="14.778915"><ele>129.0</ele><time>2026-05-02T13:15:19.882Z</time></trkpt><trkpt lat="40.715005" lon="14.778865"><ele>134.5</ele><time>2026-05-02T13:15:20.883Z</time></trkpt><trkpt lat="40.7152917" lon="14.7788117"><ele>140.0</ele><time>2026-05-02T13:15:21.882Z</time></trkpt><trkpt lat="40.7155783" lon="14.7787567"><ele>140.0</ele><time>2026-05-02T13:15:22.883Z</time></trkpt><trkpt lat="40.7158683" lon="14.778705"><ele>140.0</ele><time>2026-05-02T13:15:23.883Z</time></trkpt><trkpt lat="40.7161567" lon="14.7786533"><ele>148.5</ele><time>2026-05-02T13:15:24.882Z</time></trkpt><trkpt lat="40.716445" lon="14.778605"><ele>157.0</ele><time>2026-05-02T13:15:25.882Z</time></trkpt><trkpt lat="40.716725" lon="14.7785533"><ele>147.5</ele><time>2026-05-02T13:15:26.882Z</time></trkpt><trkpt lat="40.7170083" lon="14.7785083"><ele>138.0</ele><time>2026-05-02T13:15:27.882Z</time></trkpt><trkpt lat="40.7173" lon="14.77847"><ele>138.0</ele><time>2026-05-02T13:15:28.882Z</time></trkpt><trkpt lat="40.71759" lon="14.7784367"><ele>138.0</ele><time>2026-05-02T13:15:29.883Z</time></trkpt><trkpt lat="40.71787" lon="14.778395"><ele>138.5</ele><time>2026-05-02T13:15:30.883Z</time></trkpt><trkpt lat="40.71814" lon="14.7783367"><ele>139.0</ele><time>2026-05-02T13:15:31.882Z</time></trkpt><trkpt lat="40.71841" lon="14.7782833"><ele>138.0</ele><time>2026-05-02T13:15:32.883Z</time></trkpt><trkpt lat="40.7186767" lon="14.7782417"><ele>137.0</ele><time>2026-05-02T13:15:33.882Z</time></trkpt><trkpt lat="40.7189517" lon="14.77819"><ele>137.0</ele><time>2026-05-02T13:15:34.882Z</time></trkpt><trkpt lat="40.719225" lon="14.77814"><ele>137.0</ele><time>2026-05-02T13:15:35.883Z</time></trkpt><trkpt lat="40.7194983" lon="14.7780917"><ele>139.0</ele><time>2026-05-02T13:15:36.883Z</time></trkpt><trkpt lat="40.7197733" lon="14.77804"><ele>141.0</ele><time>2026-05-02T13:15:37.883Z</time></trkpt><trkpt lat="40.7200483" lon="14.7779883"><ele>142.0</ele><time>2026-05-02T13:15:38.883Z</time></trkpt><trkpt lat="40.7203217" lon="14.77793"><ele>143.0</ele><time>2026-05-02T13:15:39.882Z</time></trkpt><trkpt lat="40.7205983" lon="14.7778517"><ele>143.0</ele><time>2026-05-02T13:15:40.883Z</time></trkpt><trkpt lat="40.7208683" lon="14.77775"><ele>143.0</ele><time>2026-05-02T13:15:41.882Z</time></trkpt><trkpt lat="40.7211367" lon="14.7776267"><ele>145.0</ele><time>2026-05-02T13:15:42.883Z</time></trkpt><trkpt lat="40.7214067" lon="14.7774867"><ele>147.0</ele><time>2026-05-02T13:15:43.883Z</time></trkpt><trkpt lat="40.721675" lon="14.7773317"><ele>161.0</ele><time>2026-05-02T13:15:44.883Z</time></trkpt><trkpt lat="40.72195" lon="14.7771667"><ele>175.0</ele><time>2026-05-02T13:15:45.883Z</time></trkpt><trkpt lat="40.72223" lon="14.7770017"><ele>169.0</ele><time>2026-05-02T13:15:46.883Z</time></trkpt><trkpt lat="40.7225067" lon="14.77685"><ele>163.0</ele><time>2026-05-02T13:15:47.883Z</time></trkpt><trkpt lat="40.72278" lon="14.776695"><ele>162.5</ele><time>2026-05-02T13:15:48.883Z</time></trkpt><trkpt lat="40.7230617" lon="14.7765167"><ele>162.0</ele><time>2026-05-02T13:15:49.882Z</time></trkpt><trkpt lat="40.7233483" lon="14.7763617"><ele>158.0</ele><time>2026-05-02T13:15:50.882Z</time></trkpt><trkpt lat="40.7236083" lon="14.7762117"><ele>154.0</ele><time>2026-05-02T13:15:51.883Z</time></trkpt><trkpt lat="40.7238517" lon="14.7760867"><ele>149.0</ele><time>2026-05-02T13:15:52.882Z</time></trkpt><trkpt lat="40.724115" lon="14.775975"><ele>144.0</ele><time>2026-05-02T13:15:53.882Z</time></trkpt><trkpt lat="40.7243917" lon="14.7758967"><ele>146.5</ele><time>2026-05-02T13:15:54.883Z</time></trkpt><trkpt lat="40.7246817" lon="14.7758417"><ele>149.0</ele><time>2026-05-02T13:15:55.882Z</time></trkpt><trkpt lat="40.724975" lon="14.775815"><ele>152.0</ele><time>2026-05-02T13:15:56.882Z</time></trkpt><trkpt lat="40.72527" lon="14.77579"><ele>155.0</ele><time>2026-05-02T13:15:57.883Z</time></trkpt><trkpt lat="40.72557" lon="14.775775"><ele>155.0</ele><time>2026-05-02T13:15:58.883Z</time></trkpt><trkpt lat="40.725865" lon="14.775755"><ele>155.0</ele><time>2026-05-02T13:15:59.883Z</time></trkpt><trkpt lat="40.7261533" lon="14.7757383"><ele>156.0</ele><time>2026-05-02T13:16:00.883Z</time></trkpt><trkpt lat="40.7264417" lon="14.7757217"><ele>157.0</ele><time>2026-05-02T13:16:01.883Z</time></trkpt><trkpt lat="40.7267317" lon="14.7756967"><ele>159.0</ele><time>2026-05-02T13:16:02.883Z</time></trkpt><trkpt lat="40.72702" lon="14.775675"><ele>161.0</ele><time>2026-05-02T13:16:03.883Z</time></trkpt><trkpt lat="40.727305" lon="14.77565"><ele>161.0</ele><time>2026-05-02T13:16:04.882Z</time></trkpt><trkpt lat="40.72759" lon="14.7756317"><ele>161.0</ele><time>2026-05-02T13:16:05.883Z</time></trkpt><trkpt lat="40.7278767" lon="14.7756133"><ele>162.0</ele><time>2026-05-02T13:16:06.882Z</time></trkpt><trkpt lat="40.72817" lon="14.7755933"><ele>163.0</ele><time>2026-05-02T13:16:07.882Z</time></trkpt><trkpt lat="40.7284583" lon="14.7755733"><ele>165.0</ele><time>2026-05-02T13:16:08.883Z</time></trkpt><trkpt lat="40.7287383" lon="14.7755517"><ele>167.0</ele><time>2026-05-02T13:16:09.882Z</time></trkpt><trkpt lat="40.729015" lon="14.7755317"><ele>167.0</ele><time>2026-05-02T13:16:10.883Z</time></trkpt><trkpt lat="40.72929" lon="14.7755033"><ele>167.0</ele><time>2026-05-02T13:16:11.883Z</time></trkpt><trkpt lat="40.7295583" lon="14.775485"><ele>169.5</ele><time>2026-05-02T13:16:12.883Z</time></trkpt><trkpt lat="40.729825" lon="14.7754667"><ele>172.0</ele><time>2026-05-02T13:16:13.883Z</time></trkpt><trkpt lat="40.730085" lon="14.7754567"><ele>172.5</ele><time>2026-05-02T13:16:14.882Z</time></trkpt><trkpt lat="40.7303483" lon="14.7754467"><ele>173.0</ele><time>2026-05-02T13:16:15.882Z</time></trkpt><trkpt lat="40.730605" lon="14.7754383"><ele>173.0</ele><time>2026-05-02T13:16:16.883Z</time></trkpt><trkpt lat="40.7308633" lon="14.7754217"><ele>173.0</ele><time>2026-05-02T13:16:17.883Z</time></trkpt><trkpt lat="40.731115" lon="14.77542"><ele>171.0</ele><time>2026-05-02T13:16:18.882Z</time></trkpt><trkpt lat="40.7313667" lon="14.7754133"><ele>169.0</ele><time>2026-05-02T13:16:19.882Z</time></trkpt><trkpt lat="40.731615" lon="14.775415"><ele>169.0</ele><time>2026-05-02T13:16:20.883Z</time></trkpt><trkpt lat="40.73186" lon="14.7754267"><ele>169.0</ele><time>2026-05-02T13:16:21.882Z</time></trkpt><trkpt lat="40.7321083" lon="14.7754433"><ele>168.5</ele><time>2026-05-02T13:16:22.883Z</time></trkpt><trkpt lat="40.732355" lon="14.77547"><ele>168.0</ele><time>2026-05-02T13:16:23.882Z</time></trkpt><trkpt lat="40.7325967" lon="14.7755033"><ele>170.0</ele><time>2026-05-02T13:16:24.882Z</time></trkpt><trkpt lat="40.7328383" lon="14.7755417"><ele>172.0</ele><time>2026-05-02T13:16:25.883Z</time></trkpt><trkpt lat="40.733075" lon="14.77559"><ele>172.0</ele><time>2026-05-02T13:16:26.883Z</time></trkpt><trkpt lat="40.7333117" lon="14.77565"><ele>172.0</ele><time>2026-05-02T13:16:27.882Z</time></trkpt><trkpt lat="40.733545" lon="14.77572"><ele>171.5</ele><time>2026-05-02T13:16:28.882Z</time></trkpt><trkpt lat="40.73378" lon="14.7758"><ele>171.0</ele><time>2026-05-02T13:16:29.883Z</time></trkpt><trkpt lat="40.7340117" lon="14.7758817"><ele>171.0</ele><time>2026-05-02T13:16:30.882Z</time></trkpt><trkpt lat="40.7342517" lon="14.7759783"><ele>171.0</ele><time>2026-05-02T13:16:31.883Z</time></trkpt><trkpt lat="40.7345083" lon="14.776075"><ele>173.5</ele><time>2026-05-02T13:16:32.882Z</time></trkpt><trkpt lat="40.7347733" lon="14.7761867"><ele>176.0</ele><time>2026-05-02T13:16:33.883Z</time></trkpt><trkpt lat="40.7350417" lon="14.77632"><ele>175.5</ele><time>2026-05-02T13:16:34.882Z</time></trkpt><trkpt lat="40.735305" lon="14.77647"><ele>175.0</ele><time>2026-05-02T13:16:35.882Z</time></trkpt><trkpt lat="40.7355567" lon="14.776635"><ele>175.0</ele><time>2026-05-02T13:16:36.882Z</time></trkpt><trkpt lat="40.7358067" lon="14.776815"><ele>175.0</ele><time>2026-05-02T13:16:37.883Z</time></trkpt><trkpt lat="40.736055" lon="14.777005"><ele>178.0</ele><time>2026-05-02T13:16:38.883Z</time></trkpt><trkpt lat="40.7363" lon="14.7772"><ele>181.0</ele><time>2026-05-02T13:16:39.883Z</time></trkpt><trkpt lat="40.7365283" lon="14.7774117"><ele>181.0</ele><time>2026-05-02T13:16:40.882Z</time></trkpt><trkpt lat="40.7367467" lon="14.77763"><ele>181.0</ele><time>2026-05-02T13:16:41.883Z</time></trkpt><trkpt lat="40.73696" lon="14.77785"><ele>184.0</ele><time>2026-05-02T13:16:42.882Z</time></trkpt><trkpt lat="40.7371733" lon="14.7780717"><ele>187.0</ele><time>2026-05-02T13:16:43.883Z</time></trkpt><trkpt lat="40.73738" lon="14.77828"><ele>187.0</ele><time>2026-05-02T13:16:44.882Z</time></trkpt><trkpt lat="40.7375667" lon="14.77849"><ele>187.0</ele><time>2026-05-02T13:16:45.883Z</time></trkpt><trkpt lat="40.737755" lon="14.7786933"><ele>189.5</ele><time>2026-05-02T13:16:46.882Z</time></trkpt><trkpt lat="40.7379433" lon="14.7788983"><ele>192.0</ele><time>2026-05-02T13:16:47.882Z</time></trkpt><trkpt lat="40.7381317" lon="14.7791117"><ele>192.0</ele><time>2026-05-02T13:16:48.882Z</time></trkpt><trkpt lat="40.7383217" lon="14.77933"><ele>192.0</ele><time>2026-05-02T13:16:49.882Z</time></trkpt><trkpt lat="40.7385117" lon="14.77956"><ele>195.0</ele><time>2026-05-02T13:16:50.883Z</time></trkpt><trkpt lat="40.7387" lon="14.7797983"><ele>198.0</ele><time>2026-05-02T13:16:51.883Z</time></trkpt><trkpt lat="40.7389" lon="14.7800367"><ele>201.0</ele><time>2026-05-02T13:16:52.883Z</time></trkpt><trkpt lat="40.7391117" lon="14.7802717"><ele>204.0</ele><time>2026-05-02T13:16:53.883Z</time></trkpt><trkpt lat="40.739325" lon="14.7805083"><ele>206.0</ele><time>2026-05-02T13:16:54.883Z</time></trkpt><trkpt lat="40.7395367" lon="14.7807317"><ele>208.0</ele><time>2026-05-02T13:16:55.883Z</time></trkpt><trkpt lat="40.7397333" lon="14.7809417"><ele>210.0</ele><time>2026-05-02T13:16:56.882Z</time></trkpt><trkpt lat="40.7399183" lon="14.781145"><ele>212.0</ele><time>2026-05-02T13:16:57.882Z</time></trkpt><trkpt lat="40.7401033" lon="14.7813533"><ele>211.0</ele><time>2026-05-02T13:16:58.883Z</time></trkpt><trkpt lat="40.7402883" lon="14.7815683"><ele>210.0</ele><time>2026-05-02T13:16:59.883Z</time></trkpt><trkpt lat="40.7404733" lon="14.7817883"><ele>213.0</ele><time>2026-05-02T13:17:00.883Z</time></trkpt><trkpt lat="40.7406667" lon="14.7820083"><ele>216.0</ele><time>2026-05-02T13:17:01.883Z</time></trkpt><trkpt lat="40.740875" lon="14.7822217"><ele>214.0</ele><time>2026-05-02T13:17:02.882Z</time></trkpt><trkpt lat="40.7411" lon="14.782445"><ele>212.0</ele><time>2026-05-02T13:17:03.883Z</time></trkpt><trkpt lat="40.7413367" lon="14.782675"><ele>216.5</ele><time>2026-05-02T13:17:04.883Z</time></trkpt><trkpt lat="40.741585" lon="14.7829033"><ele>221.0</ele><time>2026-05-02T13:17:05.882Z</time></trkpt><trkpt lat="40.7418467" lon="14.78313"><ele>221.5</ele><time>2026-05-02T13:17:06.883Z</time></trkpt><trkpt lat="40.742125" lon="14.78335"><ele>222.0</ele><time>2026-05-02T13:17:07.882Z</time></trkpt><trkpt lat="40.7424167" lon="14.7835617"><ele>220.5</ele><time>2026-05-02T13:17:08.883Z</time></trkpt><trkpt lat="40.7427117" lon="14.7837567"><ele>219.0</ele><time>2026-05-02T13:17:09.882Z</time></trkpt><trkpt lat="40.7430017" lon="14.783945"><ele>219.0</ele><time>2026-05-02T13:17:10.882Z</time></trkpt><trkpt lat="40.7432833" lon="14.784125"><ele>219.0</ele><time>2026-05-02T13:17:11.883Z</time></trkpt><trkpt lat="40.7435617" lon="14.7842933"><ele>221.0</ele><time>2026-05-02T13:17:12.883Z</time></trkpt><trkpt lat="40.7438433" lon="14.7844567"><ele>223.0</ele><time>2026-05-02T13:17:13.882Z</time></trkpt><trkpt lat="40.7441267" lon="14.7846133"><ele>221.5</ele><time>2026-05-02T13:17:14.882Z</time></trkpt><trkpt lat="40.74442" lon="14.7847683"><ele>220.0</ele><time>2026-05-02T13:17:15.883Z</time></trkpt><trkpt lat="40.7447117" lon="14.7849133"><ele>220.0</ele><time>2026-05-02T13:17:16.883Z</time></trkpt><trkpt lat="40.7450117" lon="14.78505"><ele>220.0</ele><time>2026-05-02T13:17:17.882Z</time></trkpt><trkpt lat="40.745315" lon="14.78518"><ele>223.5</ele><time>2026-05-02T13:17:18.882Z</time></trkpt><trkpt lat="40.745625" lon="14.7853"><ele>227.0</ele><time>2026-05-02T13:17:19.883Z</time></trkpt><trkpt lat="40.7459383" lon="14.7854067"><ele>230.0</ele><time>2026-05-02T13:17:20.882Z</time></trkpt><trkpt lat="40.7462533" lon="14.7855017"><ele>233.0</ele><time>2026-05-02T13:17:21.882Z</time></trkpt><trkpt lat="40.746565" lon="14.7855883"><ele>233.0</ele><time>2026-05-02T13:17:22.882Z</time></trkpt><trkpt lat="40.746875" lon="14.785665"><ele>233.0</ele><time>2026-05-02T13:17:23.883Z</time></trkpt><trkpt lat="40.7471867" lon="14.7857367"><ele>229.5</ele><time>2026-05-02T13:17:24.883Z</time></trkpt><trkpt lat="40.7474983" lon="14.78581"><ele>226.0</ele><time>2026-05-02T13:17:25.882Z</time></trkpt><trkpt lat="40.7478133" lon="14.7858833"><ele>226.5</ele><time>2026-05-02T13:17:26.882Z</time></trkpt><trkpt lat="40.748135" lon="14.7859533"><ele>227.0</ele><time>2026-05-02T13:17:27.883Z</time></trkpt><trkpt lat="40.7484633" lon="14.7860217"><ele>225.5</ele><time>2026-05-02T13:17:28.882Z</time></trkpt><trkpt lat="40.7487967" lon="14.7860917"><ele>224.0</ele><time>2026-05-02T13:17:29.882Z</time></trkpt><trkpt lat="40.7491383" lon="14.786165"><ele>223.5</ele><time>2026-05-02T13:17:30.882Z</time></trkpt><trkpt lat="40.7494783" lon="14.7862367"><ele>223.0</ele><time>2026-05-02T13:17:31.883Z</time></trkpt><trkpt lat="40.7498233" lon="14.78631"><ele>223.0</ele><time>2026-05-02T13:17:32.883Z</time></trkpt><trkpt lat="40.7501683" lon="14.7863883"><ele>223.0</ele><time>2026-05-02T13:17:33.882Z</time></trkpt><trkpt lat="40.7505167" lon="14.7864583"><ele>223.0</ele><time>2026-05-02T13:17:34.883Z</time></trkpt><trkpt lat="40.7508567" lon="14.7865233"><ele>223.0</ele><time>2026-05-02T13:17:35.883Z</time></trkpt><trkpt lat="40.75118" lon="14.7865917"><ele>223.0</ele><time>2026-05-02T13:17:36.883Z</time></trkpt><trkpt lat="40.7514967" lon="14.7866683"><ele>223.0</ele><time>2026-05-02T13:17:37.883Z</time></trkpt><trkpt lat="40.751815" lon="14.7867417"><ele>222.5</ele><time>2026-05-02T13:17:38.883Z</time></trkpt><trkpt lat="40.752135" lon="14.7868067"><ele>222.0</ele><time>2026-05-02T13:17:39.883Z</time></trkpt><trkpt lat="40.752465" lon="14.7868717"><ele>223.5</ele><time>2026-05-02T13:17:40.883Z</time></trkpt><trkpt lat="40.7527883" lon="14.7869433"><ele>225.0</ele><time>2026-05-02T13:17:41.882Z</time></trkpt><trkpt lat="40.7531017" lon="14.7870117"><ele>225.0</ele><time>2026-05-02T13:17:42.882Z</time></trkpt><trkpt lat="40.7534" lon="14.787075"><ele>225.0</ele><time>2026-05-02T13:17:43.883Z</time></trkpt><trkpt lat="40.75369" lon="14.78713"><ele>226.0</ele><time>2026-05-02T13:17:44.883Z</time></trkpt><trkpt lat="40.7539617" lon="14.7871917"><ele>227.0</ele><time>2026-05-02T13:17:45.883Z</time></trkpt><trkpt lat="40.7542267" lon="14.7872483"><ele>229.0</ele><time>2026-05-02T13:17:46.882Z</time></trkpt><trkpt lat="40.7544833" lon="14.7873033"><ele>231.0</ele><time>2026-05-02T13:17:47.883Z</time></trkpt><trkpt lat="40.75474" lon="14.787355"><ele>231.0</ele><time>2026-05-02T13:17:48.883Z</time></trkpt><trkpt lat="40.7549867" lon="14.7874"><ele>231.0</ele><time>2026-05-02T13:17:49.883Z</time></trkpt><trkpt lat="40.7552283" lon="14.7874467"><ele>233.0</ele><time>2026-05-02T13:17:50.882Z</time></trkpt><trkpt lat="40.7554583" lon="14.7874983"><ele>235.0</ele><time>2026-05-02T13:17:51.883Z</time></trkpt><trkpt lat="40.7556867" lon="14.787545"><ele>235.0</ele><time>2026-05-02T13:17:52.882Z</time></trkpt><trkpt lat="40.75591" lon="14.7875917"><ele>235.0</ele><time>2026-05-02T13:17:53.882Z</time></trkpt><trkpt lat="40.7561283" lon="14.787635"><ele>235.0</ele><time>2026-05-02T13:17:54.883Z</time></trkpt><trkpt lat="40.75635" lon="14.7876817"><ele>236.0</ele><time>2026-05-02T13:17:55.882Z</time></trkpt><trkpt lat="40.7565617" lon="14.7877267"><ele>237.0</ele><time>2026-05-02T13:17:56.883Z</time></trkpt><trkpt lat="40.75676" lon="14.7877633"><ele>238.0</ele><time>2026-05-02T13:17:57.883Z</time></trkpt><trkpt lat="40.7569367" lon="14.7878017"><ele>238.5</ele><time>2026-05-02T13:17:58.883Z</time></trkpt><trkpt lat="40.75709" lon="14.787835"><ele>239.0</ele><time>2026-05-02T13:17:59.883Z</time></trkpt><trkpt lat="40.7572233" lon="14.787865"><ele>239.5</ele><time>2026-05-02T13:18:00.882Z</time></trkpt><trkpt lat="40.7573317" lon="14.7878983"><ele>240.0</ele><time>2026-05-02T13:18:01.882Z</time></trkpt><trkpt lat="40.7574017" lon="14.7879533"><ele>240.0</ele><time>2026-05-02T13:18:02.882Z</time></trkpt><trkpt lat="40.7574567" lon="14.7880383"><ele>240.0</ele><time>2026-05-02T13:18:03.882Z</time></trkpt><trkpt lat="40.7574733" lon="14.7881467"><ele>240.0</ele><time>2026-05-02T13:18:04.883Z</time></trkpt><trkpt lat="40.7574417" lon="14.78827"><ele>240.0</ele><time>2026-05-02T13:18:05.882Z</time></trkpt><trkpt lat="40.757375" lon="14.7883633"><ele>240.0</ele><time>2026-05-02T13:18:06.883Z</time></trkpt><trkpt lat="40.757285" lon="14.7884167"><ele>240.0</ele><time>2026-05-02T13:18:07.882Z</time></trkpt><trkpt lat="40.7571633" lon="14.7884233"><ele>240.0</ele><time>2026-05-02T13:18:08.883Z</time></trkpt><trkpt lat="40.757035" lon="14.7883917"><ele>240.0</ele><time>2026-05-02T13:18:09.883Z</time></trkpt><trkpt lat="40.7569233" lon="14.788355"><ele>240.0</ele><time>2026-05-02T13:18:10.883Z</time></trkpt><trkpt lat="40.7568217" lon="14.7883383"><ele>239.5</ele><time>2026-05-02T13:18:11.882Z</time></trkpt><trkpt lat="40.7567117" lon="14.7883267"><ele>239.0</ele><time>2026-05-02T13:18:12.882Z</time></trkpt><trkpt lat="40.7565983" lon="14.788325"><ele>238.5</ele><time>2026-05-02T13:18:13.883Z</time></trkpt><trkpt lat="40.756485" lon="14.7883283"><ele>238.0</ele><time>2026-05-02T13:18:14.883Z</time></trkpt><trkpt lat="40.7563717" lon="14.7883233"><ele>238.0</ele><time>2026-05-02T13:18:15.883Z</time></trkpt><trkpt lat="40.756265" lon="14.7883133"><ele>238.0</ele><time>2026-05-02T13:18:16.882Z</time></trkpt><trkpt lat="40.756145" lon="14.7882933"><ele>238.0</ele><time>2026-05-02T13:18:17.882Z</time></trkpt><trkpt lat="40.7560067" lon="14.788255"><ele>238.0</ele><time>2026-05-02T13:18:18.882Z</time></trkpt><trkpt lat="40.75585" lon="14.7882"><ele>237.75</ele><time>2026-05-02T13:18:19.882Z</time></trkpt><trkpt lat="40.7557133" lon="14.788145"><ele>237.5</ele><time>2026-05-02T13:18:20.883Z</time></trkpt><trkpt lat="40.7556067" lon="14.7880867"><ele>237.25</ele><time>2026-05-02T13:18:21.882Z</time></trkpt><trkpt lat="40.75552" lon="14.787995"><ele>237.0</ele><time>2026-05-02T13:18:22.882Z</time></trkpt><trkpt lat="40.7554567" lon="14.78787"><ele>237.0</ele><time>2026-05-02T13:18:23.883Z</time></trkpt><trkpt lat="40.75543" lon="14.787735"><ele>237.0</ele><time>2026-05-02T13:18:24.883Z</time></trkpt><trkpt lat="40.7554283" lon="14.7875783"><ele>237.0</ele><time>2026-05-02T13:18:25.883Z</time></trkpt><trkpt lat="40.75545" lon="14.7874133"><ele>237.0</ele><time>2026-05-02T13:18:26.882Z</time></trkpt><trkpt lat="40.7554733" lon="14.7872117"><ele>236.33333333333331</ele><time>2026-05-02T13:18:27.883Z</time></trkpt><trkpt lat="40.755535" lon="14.7869617"><ele>235.66666666666666</ele><time>2026-05-02T13:18:28.883Z</time></trkpt><trkpt lat="40.7555933" lon="14.7867583"><ele>235.0</ele><time>2026-05-02T13:18:29.882Z</time></trkpt><trkpt lat="40.7556383" lon="14.7865733"><ele>234.25</ele><time>2026-05-02T13:18:30.883Z</time></trkpt><trkpt lat="40.7556683" lon="14.786395"><ele>233.5</ele><time>2026-05-02T13:18:31.882Z</time></trkpt><trkpt lat="40.755675" lon="14.786225"><ele>232.75</ele><time>2026-05-02T13:18:32.882Z</time></trkpt><trkpt lat="40.7556583" lon="14.7860417"><ele>232.0</ele><time>2026-05-02T13:18:33.883Z</time></trkpt><trkpt lat="40.7556117" lon="14.7858267"><ele>231.0</ele><time>2026-05-02T13:18:34.882Z</time></trkpt><trkpt lat="40.7555333" lon="14.7855717"><ele>230.0</ele><time>2026-05-02T13:18:35.883Z</time></trkpt><trkpt lat="40.7554433" lon="14.7853167"><ele>229.0</ele><time>2026-05-02T13:18:36.882Z</time></trkpt><trkpt lat="40.7553617" lon="14.7850767"><ele>228.0</ele><time>2026-05-02T13:18:37.883Z</time></trkpt><trkpt lat="40.7552883" lon="14.78485"><ele>227.0</ele><time>2026-05-02T13:18:38.883Z</time></trkpt><trkpt lat="40.7552233" lon="14.7846333"><ele>226.0</ele><time>2026-05-02T13:18:39.883Z</time></trkpt><trkpt lat="40.7551533" lon="14.7844217"><ele>225.0</ele><time>2026-05-02T13:18:40.882Z</time></trkpt><trkpt lat="40.75508" lon="14.784205"><ele>224.0</ele><time>2026-05-02T13:18:41.883Z</time></trkpt><trkpt lat="40.7550067" lon="14.7839983"><ele>223.0</ele><time>2026-05-02T13:18:42.883Z</time></trkpt><trkpt lat="40.75493" lon="14.78381"><ele>223.0</ele><time>2026-05-02T13:18:43.882Z</time></trkpt><trkpt lat="40.75485" lon="14.7836317"><ele>223.0</ele><time>2026-05-02T13:18:44.883Z</time></trkpt><trkpt lat="40.754765" lon="14.7834717"><ele>223.0</ele><time>2026-05-02T13:18:45.882Z</time></trkpt><trkpt lat="40.754695" lon="14.7833217"><ele>223.0</ele><time>2026-05-02T13:18:46.883Z</time></trkpt><trkpt lat="40.7546433" lon="14.78319"><ele>222.25</ele><time>2026-05-02T13:18:47.882Z</time></trkpt><trkpt lat="40.7546133" lon="14.7830633"><ele>221.5</ele><time>2026-05-02T13:18:48.882Z</time></trkpt><trkpt lat="40.7546" lon="14.78292"><ele>220.75</ele><time>2026-05-02T13:18:49.882Z</time></trkpt><trkpt lat="40.7545633" lon="14.7827783"><ele>220.0</ele><time>2026-05-02T13:18:50.883Z</time></trkpt><trkpt lat="40.7544833" lon="14.7826433"><ele>218.66666666666666</ele><time>2026-05-02T13:18:51.882Z</time></trkpt><trkpt lat="40.7543767" lon="14.78251"><ele>217.33333333333331</ele><time>2026-05-02T13:18:52.883Z</time></trkpt><trkpt lat="40.7542667" lon="14.7823417"><ele>216.0</ele><time>2026-05-02T13:18:53.882Z</time></trkpt><trkpt lat="40.75416" lon="14.78214"><ele>215.66666666666669</ele><time>2026-05-02T13:18:54.882Z</time></trkpt><trkpt lat="40.7540667" lon="14.7819083"><ele>215.33333333333334</ele><time>2026-05-02T13:18:55.883Z</time></trkpt><trkpt lat="40.7539817" lon="14.78168"><ele>215.0</ele><time>2026-05-02T13:18:56.882Z</time></trkpt><trkpt lat="40.7538917" lon="14.781485"><ele>214.5</ele><time>2026-05-02T13:18:57.883Z</time></trkpt><trkpt lat="40.7538267" lon="14.7813133"><ele>214.0</ele><time>2026-05-02T13:18:58.883Z</time></trkpt><trkpt lat="40.7537833" lon="14.781165"><ele>213.5</ele><time>2026-05-02T13:18:59.883Z</time></trkpt><trkpt lat="40.7537617" lon="14.781035"><ele>213.0</ele><time>2026-05-02T13:19:00.882Z</time></trkpt><trkpt lat="40.75376" lon="14.7809083"><ele>212.60000000000002</ele><time>2026-05-02T13:19:01.883Z</time></trkpt><trkpt lat="40.753745" lon="14.7808"><ele>212.20000000000002</ele><time>2026-05-02T13:19:02.882Z</time></trkpt><trkpt lat="40.7537117" lon="14.7807133"><ele>211.8</ele><time>2026-05-02T13:19:03.883Z</time></trkpt><trkpt lat="40.7535917" lon="14.7806433"><ele>211.4</ele><time>2026-05-02T13:19:05.882Z</time></trkpt><trkpt lat="40.75351" lon="14.780635"><ele>211.0</ele><time>2026-05-02T13:19:06.883Z</time></trkpt><trkpt lat="40.7534133" lon="14.7806167"><ele>211.0</ele><time>2026-05-02T13:19:07.882Z</time></trkpt><trkpt lat="40.7533117" lon="14.7805517"><ele>211.0</ele><time>2026-05-02T13:19:08.882Z</time></trkpt><trkpt lat="40.7531983" lon="14.780445"><ele>211.0</ele><time>2026-05-02T13:19:09.882Z</time></trkpt><trkpt lat="40.7530833" lon="14.78029"><ele>211.0</ele><time>2026-05-02T13:19:10.882Z</time></trkpt><trkpt lat="40.7529467" lon="14.7801017"><ele>210.66666666666666</ele><time>2026-05-02T13:19:11.883Z</time></trkpt><trkpt lat="40.7528" lon="14.7798867"><ele>210.33333333333331</ele><time>2026-05-02T13:19:12.883Z</time></trkpt><trkpt lat="40.7526483" lon="14.779665"><ele>210.0</ele><time>2026-05-02T13:19:13.882Z</time></trkpt><trkpt lat="40.7524967" lon="14.77946"><ele>208.0</ele><time>2026-05-02T13:19:14.883Z</time></trkpt><trkpt lat="40.7523533" lon="14.7792767"><ele>206.0</ele><time>2026-05-02T13:19:15.882Z</time></trkpt><trkpt lat="40.75222" lon="14.7790967"><ele>204.0</ele><time>2026-05-02T13:19:16.882Z</time></trkpt><trkpt lat="40.7520867" lon="14.7789083"><ele>204.0</ele><time>2026-05-02T13:19:17.882Z</time></trkpt><trkpt lat="40.75195" lon="14.7787"><ele>204.0</ele><time>2026-05-02T13:19:18.883Z</time></trkpt><trkpt lat="40.75181" lon="14.7784733"><ele>204.0</ele><time>2026-05-02T13:19:19.883Z</time></trkpt><trkpt lat="40.7516783" lon="14.7782533"><ele>203.0</ele><time>2026-05-02T13:19:20.883Z</time></trkpt><trkpt lat="40.751555" lon="14.7780367"><ele>202.0</ele><time>2026-05-02T13:19:21.883Z</time></trkpt><trkpt lat="40.7514467" lon="14.77782"><ele>201.0</ele><time>2026-05-02T13:19:22.882Z</time></trkpt><trkpt lat="40.7513617" lon="14.7776083"><ele>200.33333333333331</ele><time>2026-05-02T13:19:23.882Z</time></trkpt><trkpt lat="40.75129" lon="14.7773983"><ele>199.66666666666666</ele><time>2026-05-02T13:19:24.883Z</time></trkpt><trkpt lat="40.7512467" lon="14.7771833"><ele>199.0</ele><time>2026-05-02T13:19:25.882Z</time></trkpt><trkpt lat="40.7512117" lon="14.7769817"><ele>198.0</ele><time>2026-05-02T13:19:26.882Z</time></trkpt><trkpt lat="40.75118" lon="14.7767967"><ele>197.0</ele><time>2026-05-02T13:19:27.882Z</time></trkpt><trkpt lat="40.75118" lon="14.77662"><ele>196.0</ele><time>2026-05-02T13:19:28.883Z</time></trkpt><trkpt lat="40.751205" lon="14.7764733"><ele>195.0</ele><time>2026-05-02T13:19:29.882Z</time></trkpt><trkpt lat="40.75123" lon="14.77635"><ele>195.0</ele><time>2026-05-02T13:19:30.883Z</time></trkpt><trkpt lat="40.7512217" lon="14.7762533"><ele>195.0</ele><time>2026-05-02T13:19:31.882Z</time></trkpt><trkpt lat="40.7511817" lon="14.7761867"><ele>195.0</ele><time>2026-05-02T13:19:32.882Z</time></trkpt><trkpt lat="40.7511167" lon="14.7761533"><ele>195.0</ele><time>2026-05-02T13:19:33.882Z</time></trkpt><trkpt lat="40.751025" lon="14.7761517"><ele>195.0</ele><time>2026-05-02T13:19:34.882Z</time></trkpt><trkpt lat="40.7509267" lon="14.7761433"><ele>195.0</ele><time>2026-05-02T13:19:35.883Z</time></trkpt><trkpt lat="40.750825" lon="14.7760883"><ele>194.75</ele><time>2026-05-02T13:19:36.883Z</time></trkpt><trkpt lat="40.7507233" lon="14.776"><ele>194.5</ele><time>2026-05-02T13:19:37.883Z</time></trkpt><trkpt lat="40.750625" lon="14.7759017"><ele>194.25</ele><time>2026-05-02T13:19:38.882Z</time></trkpt><trkpt lat="40.750525" lon="14.7758033"><ele>194.0</ele><time>2026-05-02T13:19:39.882Z</time></trkpt><trkpt lat="40.750425" lon="14.775715"><ele>194.0</ele><time>2026-05-02T13:19:40.883Z</time></trkpt><trkpt lat="40.7503417" lon="14.7756317"><ele>194.0</ele><time>2026-05-02T13:19:41.882Z</time></trkpt><trkpt lat="40.750255" lon="14.7755317"><ele>194.0</ele><time>2026-05-02T13:19:42.883Z</time></trkpt><trkpt lat="40.7501567" lon="14.7754217"><ele>194.0</ele><time>2026-05-02T13:19:43.883Z</time></trkpt><trkpt lat="40.75007" lon="14.7753083"><ele>194.25</ele><time>2026-05-02T13:19:44.882Z</time></trkpt><trkpt lat="40.7500033" lon="14.7751817"><ele>194.5</ele><time>2026-05-02T13:19:45.883Z</time></trkpt><trkpt lat="40.7499633" lon="14.7750383"><ele>194.75</ele><time>2026-05-02T13:19:46.882Z</time></trkpt><trkpt lat="40.7499383" lon="14.7748833"><ele>195.0</ele><time>2026-05-02T13:19:47.882Z</time></trkpt><trkpt lat="40.7499267" lon="14.7747167"><ele>195.0</ele><time>2026-05-02T13:19:48.883Z</time></trkpt><trkpt lat="40.74993" lon="14.7745317"><ele>195.0</ele><time>2026-05-02T13:19:49.882Z</time></trkpt><trkpt lat="40.7499417" lon="14.7743317"><ele>195.0</ele><time>2026-05-02T13:19:50.882Z</time></trkpt><trkpt lat="40.7499517" lon="14.7741467"><ele>195.0</ele><time>2026-05-02T13:19:51.883Z</time></trkpt><trkpt lat="40.7499567" lon="14.7739783"><ele>194.8</ele><time>2026-05-02T13:19:52.882Z</time></trkpt><trkpt lat="40.7499517" lon="14.7738367"><ele>194.6</ele><time>2026-05-02T13:19:53.882Z</time></trkpt><trkpt lat="40.74995" lon="14.773705"><ele>194.39999999999998</ele><time>2026-05-02T13:19:54.882Z</time></trkpt><trkpt lat="40.7499517" lon="14.773575"><ele>194.2</ele><time>2026-05-02T13:19:55.883Z</time></trkpt><trkpt lat="40.7499617" lon="14.7734467"><ele>194.0</ele><time>2026-05-02T13:19:56.882Z</time></trkpt><trkpt lat="40.7499533" lon="14.7732867"><ele>195.66666666666669</ele><time>2026-05-02T13:19:57.883Z</time></trkpt><trkpt lat="40.74994" lon="14.7730817"><ele>197.33333333333331</ele><time>2026-05-02T13:19:58.882Z</time></trkpt><trkpt lat="40.7499417" lon="14.77285"><ele>199.0</ele><time>2026-05-02T13:19:59.883Z</time></trkpt><trkpt lat="40.749965" lon="14.772615"><ele>199.0</ele><time>2026-05-02T13:20:00.883Z</time></trkpt><trkpt lat="40.7499717" lon="14.77239"><ele>199.0</ele><time>2026-05-02T13:20:01.883Z</time></trkpt><trkpt lat="40.7499783" lon="14.7721917"><ele>199.0</ele><time>2026-05-02T13:20:02.882Z</time></trkpt><trkpt lat="40.7499833" lon="14.7720183"><ele>199.0</ele><time>2026-05-02T13:20:03.882Z</time></trkpt><trkpt lat="40.749995" lon="14.7718817"><ele>199.0</ele><time>2026-05-02T13:20:04.883Z</time></trkpt><trkpt lat="40.75" lon="14.77178"><ele>199.0</ele><time>2026-05-02T13:20:05.883Z</time></trkpt><trkpt lat="40.7499933" lon="14.7716867"><ele>199.0</ele><time>2026-05-02T13:20:07.883Z</time></trkpt><trkpt lat="40.74992" lon="14.7715733"><ele>199.0</ele><time>2026-05-02T13:20:09.883Z</time></trkpt><trkpt lat="40.7498433" lon="14.7715067"><ele>198.66666666666666</ele><time>2026-05-02T13:20:10.883Z</time></trkpt><trkpt lat="40.74977" lon="14.7714283"><ele>198.33333333333331</ele><time>2026-05-02T13:20:11.882Z</time></trkpt><trkpt lat="40.749725" lon="14.771335"><ele>198.0</ele><time>2026-05-02T13:20:12.883Z</time></trkpt><trkpt lat="40.749695" lon="14.7712417"><ele>197.66666666666669</ele><time>2026-05-02T13:20:13.882Z</time></trkpt><trkpt lat="40.74969" lon="14.771145"><ele>197.33333333333334</ele><time>2026-05-02T13:20:14.883Z</time></trkpt><trkpt lat="40.7497067" lon="14.771025"><ele>197.0</ele><time>2026-05-02T13:20:15.882Z</time></trkpt><trkpt lat="40.749745" lon="14.7708717"><ele>197.0</ele><time>2026-05-02T13:20:16.882Z</time></trkpt><trkpt lat="40.749775" lon="14.77068"><ele>197.0</ele><time>2026-05-02T13:20:17.882Z</time></trkpt><trkpt lat="40.74981" lon="14.7704883"><ele>197.0</ele><time>2026-05-02T13:20:18.883Z</time></trkpt><trkpt lat="40.7498383" lon="14.77032"><ele>197.0</ele><time>2026-05-02T13:20:19.882Z</time></trkpt><trkpt lat="40.7498517" lon="14.77017"><ele>197.39999999999998</ele><time>2026-05-02T13:20:20.883Z</time></trkpt><trkpt lat="40.7498683" lon="14.77005"><ele>197.79999999999998</ele><time>2026-05-02T13:20:21.882Z</time></trkpt><trkpt lat="40.7498833" lon="14.7699617"><ele>198.2</ele><time>2026-05-02T13:20:22.883Z</time></trkpt><trkpt lat="40.749895" lon="14.769875"><ele>198.6</ele><time>2026-05-02T13:20:23.883Z</time></trkpt><trkpt lat="40.7498433" lon="14.7697417"><ele>199.0</ele><time>2026-05-02T13:20:25.883Z</time></trkpt><trkpt lat="40.749725" lon="14.7697783"><ele>199.0</ele><time>2026-05-02T13:20:27.883Z</time></trkpt><trkpt lat="40.749655" lon="14.7698417"><ele>199.0</ele><time>2026-05-02T13:20:28.882Z</time></trkpt><trkpt lat="40.749575" lon="14.7698767"><ele>199.0</ele><time>2026-05-02T13:20:29.882Z</time></trkpt><trkpt lat="40.7494867" lon="14.7698517"><ele>199.0</ele><time>2026-05-02T13:20:30.883Z</time></trkpt><trkpt lat="40.7493833" lon="14.7697917"><ele>199.0</ele><time>2026-05-02T13:20:31.882Z</time></trkpt><trkpt lat="40.7492583" lon="14.7697383"><ele>198.39999999999998</ele><time>2026-05-02T13:20:32.883Z</time></trkpt><trkpt lat="40.7491467" lon="14.7696933"><ele>197.8</ele><time>2026-05-02T13:20:33.882Z</time></trkpt><trkpt lat="40.74905" lon="14.769655"><ele>197.2</ele><time>2026-05-02T13:20:34.883Z</time></trkpt><trkpt lat="40.7489833" lon="14.769625"><ele>196.60000000000002</ele><time>2026-05-02T13:20:35.882Z</time></trkpt><trkpt lat="40.74887" lon="14.7696217"><ele>196.0</ele><time>2026-05-02T13:20:58.882Z</time></trkpt><trkpt lat="40.7488" lon="14.769575"><ele>196.0</ele><time>2026-05-02T13:21:00.883Z</time></trkpt><trkpt lat="40.7488117" lon="14.7694817"><ele>196.0</ele><time>2026-05-02T13:21:02.883Z</time></trkpt><trkpt lat="40.74884" lon="14.7693933"><ele>196.0</ele><time>2026-05-02T13:21:04.882Z</time></trkpt><trkpt lat="40.7488767" lon="14.7692867"><ele>196.0</ele><time>2026-05-02T13:21:06.883Z</time></trkpt><trkpt lat="40.748905" lon="14.7691783"><ele>196.0</ele><time>2026-05-02T13:21:08.882Z</time></trkpt><trkpt lat="40.7487484" lon="14.7691877"><ele>196.0</ele><time>2026-05-02T13:23:54.289Z</time></trkpt><trkpt lat="40.7487573" lon="14.7692921"><ele>196.0</ele><time>2026-05-02T15:45:59.882Z</time></trkpt><trkpt lat="40.7487459" lon="14.7694504"><ele>196.0</ele><time>2026-05-02T15:46:01.933Z</time></trkpt><trkpt lat="40.7487287" lon="14.7696088"><ele>196.0</ele><time>2026-05-02T15:46:02.923Z</time></trkpt><trkpt lat="40.7486988" lon="14.7698138"><ele>196.0</ele><time>2026-05-02T15:46:03.913Z</time></trkpt><trkpt lat="40.7486652" lon="14.7700361"><ele>196.0</ele><time>2026-05-02T15:46:04.903Z</time></trkpt><trkpt lat="40.7486157" lon="14.7704933"><ele>195.60000000000002</ele><time>2026-05-02T15:46:05.892Z</time></trkpt><trkpt lat="40.7486088" lon="14.7706561"><ele>195.2</ele><time>2026-05-02T15:46:06.883Z</time></trkpt><trkpt lat="40.7486178" lon="14.770764"><ele>194.8</ele><time>2026-05-02T15:46:07.881Z</time></trkpt><trkpt lat="40.7486217" lon="14.7708634"><ele>194.39999999999998</ele><time>2026-05-02T15:46:08.971Z</time></trkpt><trkpt lat="40.7486317" lon="14.7709667"><ele>194.0</ele><time>2026-05-02T15:46:10.95Z</time></trkpt><trkpt lat="40.7486907" lon="14.7708727"><ele>194.0</ele><time>2026-05-02T15:46:13.92Z</time></trkpt><trkpt lat="40.7486266" lon="14.7708089"><ele>194.0</ele><time>2026-05-02T15:46:40.881Z</time></trkpt><trkpt lat="40.7486197" lon="14.7707035"><ele>194.0</ele><time>2026-05-02T15:46:42.948Z</time></trkpt><trkpt lat="40.7486205" lon="14.770612"><ele>194.0</ele><time>2026-05-02T15:46:44.928Z</time></trkpt><trkpt lat="40.7486465" lon="14.7703338"><ele>194.0</ele><time>2026-05-02T15:46:47.897Z</time></trkpt><trkpt lat="40.7486717" lon="14.7701213"><ele>196.0</ele><time>2026-05-02T15:46:48.887Z</time></trkpt><trkpt lat="40.7487384" lon="14.7694325"><ele>196.33333333333331</ele><time>2026-05-02T15:46:49.881Z</time></trkpt><trkpt lat="40.7487495" lon="14.7693217"><ele>196.66666666666666</ele><time>2026-05-02T15:46:50.881Z</time></trkpt><trkpt lat="40.7487686" lon="14.7692341"><ele>197.0</ele><time>2026-05-02T15:47:39.907Z</time></trkpt><trkpt lat="40.7488433" lon="14.7692248"><ele>197.33333333333331</ele><time>2026-05-02T15:48:00.91Z</time></trkpt><trkpt lat="40.7487829" lon="14.7692001"><ele>197.66666666666666</ele><time>2026-05-02T15:48:34.886Z</time></trkpt><trkpt lat="40.748801" lon="14.7690932"><ele>198.0</ele><time>2026-05-02T15:51:48.883Z</time></trkpt><trkpt lat="40.7487254" lon="14.7691021"><ele>198.0</ele><time>2026-05-02T15:54:18.398Z</time></trkpt><trkpt lat="40.7487523" lon="14.7690261"><ele>198.0</ele><time>2026-05-02T15:58:26.905Z</time></trkpt><trkpt lat="40.74873" lon="14.7688891"><ele>198.0</ele><time>2026-05-02T16:00:50.4Z</time></trkpt><trkpt lat="40.7487507" lon="14.7690698"><ele>198.0</ele><time>2026-05-02T16:01:12.173Z</time></trkpt><trkpt lat="40.7487603" lon="14.7691539"><ele>198.0</ele><time>2026-05-02T16:05:40.912Z</time></trkpt><trkpt lat="40.7487289" lon="14.7692261"><ele>198.0</ele><time>2026-05-02T16:05:49.929Z</time></trkpt><trkpt lat="40.7487446" lon="14.7693598"><ele>198.0</ele><time>2026-05-02T16:06:17.883Z</time></trkpt><trkpt lat="40.7487804" lon="14.7694415"><ele>198.0</ele><time>2026-05-02T16:06:22.916Z</time></trkpt><trkpt lat="40.7487378" lon="14.7693726"><ele>198.0</ele><time>2026-05-02T16:06:37.883Z</time></trkpt><trkpt lat="40.7487571" lon="14.7692857"><ele>198.0</ele><time>2026-05-02T16:06:57.883Z</time></trkpt><trkpt lat="40.7487434" lon="14.7692011"><ele>198.0</ele><time>2026-05-02T16:07:06.899Z</time></trkpt><trkpt lat="40.7486949" lon="14.769255"><ele>198.0</ele><time>2026-05-02T16:08:38.935Z</time></trkpt><trkpt lat="40.748649" lon="14.7693123"><ele>198.0</ele><time>2026-05-02T16:09:34.905Z</time></trkpt><trkpt lat="40.7485933" lon="14.7693528"><ele>198.0</ele><time>2026-05-02T16:18:42.938Z</time></trkpt><trkpt lat="40.7486077" lon="14.7692651"><ele>198.0</ele><time>2026-05-02T16:27:31.95Z</time></trkpt><trkpt lat="40.7486921" lon="14.7691712"><ele>198.0</ele><time>2026-05-02T16:27:34.918Z</time></trkpt><trkpt lat="40.748624" lon="14.7692666"><ele>198.0</ele><time>2026-05-02T16:27:35.908Z</time></trkpt><trkpt lat="40.7485525" lon="14.7692473"><ele>198.0</ele><time>2026-05-02T16:28:10.882Z</time></trkpt><trkpt lat="40.7486105" lon="14.7691664"><ele>198.0</ele><time>2026-05-02T16:35:27.08Z</time></trkpt><trkpt lat="40.7487811" lon="14.7691277"><ele>198.0</ele><time>2026-05-02T16:36:03.147Z</time></trkpt><trkpt lat="40.7487429" lon="14.7690569"><ele>198.0</ele><time>2026-05-02T16:38:19.934Z</time></trkpt><trkpt lat="40.7486894" lon="14.7690027"><ele>198.0</ele><time>2026-05-02T16:38:30.931Z</time></trkpt><trkpt lat="40.7486516" lon="14.7689217"><ele>198.0</ele><time>2026-05-02T16:38:41.927Z</time></trkpt><trkpt lat="40.7486309" lon="14.768836"><ele>198.0</ele><time>2026-05-02T16:38:53.912Z</time></trkpt><trkpt lat="40.7485996" lon="14.7687604"><ele>198.0</ele><time>2026-05-02T16:39:00.948Z</time></trkpt><trkpt lat="40.7487195" lon="14.7690658"><ele>198.0</ele><time>2026-05-02T16:39:55.818Z</time></trkpt><trkpt lat="40.7487736" lon="14.7691781"><ele>198.0</ele><time>2026-05-02T16:40:10.417Z</time></trkpt><trkpt lat="40.7487265" lon="14.7690749"><ele>198.0</ele><time>2026-05-02T16:40:22.977Z</time></trkpt><trkpt lat="40.7486764" lon="14.7689898"><ele>198.0</ele><time>2026-05-02T16:40:23.88Z</time></trkpt><trkpt lat="40.7486477" lon="14.7689155"><ele>198.0</ele><time>2026-05-02T16:41:04.88Z</time></trkpt><trkpt lat="40.7486288" lon="14.7688354"><ele>198.0</ele><time>2026-05-02T16:42:01.941Z</time></trkpt><trkpt lat="40.7486607" lon="14.7687629"><ele>198.0</ele><time>2026-05-02T16:43:13.963Z</time></trkpt><trkpt lat="40.7487224" lon="14.7687457"><ele>198.0</ele><time>2026-05-02T16:52:53.883Z</time></trkpt><trkpt lat="40.7487269" lon="14.7688341"><ele>198.0</ele><time>2026-05-02T16:56:34.129Z</time></trkpt><trkpt lat="40.7487895" lon="14.7691149"><ele>198.0</ele><time>2026-05-02T16:56:37.882Z</time></trkpt><trkpt lat="40.748717" lon="14.7690831"><ele>198.0</ele><time>2026-05-02T16:57:29.883Z</time></trkpt><trkpt lat="40.7486825" lon="14.7690057"><ele>198.0</ele><time>2026-05-02T16:57:33.946Z</time></trkpt><trkpt lat="40.7486416" lon="14.7689357"><ele>198.0</ele><time>2026-05-02T16:57:47.912Z</time></trkpt><trkpt lat="40.7485935" lon="14.7688732"><ele>198.0</ele><time>2026-05-02T16:57:59.896Z</time></trkpt><trkpt lat="40.7486558" lon="14.7690481"><ele>198.0</ele><time>2026-05-02T16:58:37.489Z</time></trkpt><trkpt lat="40.7487456" lon="14.769147"><ele>198.0</ele><time>2026-05-02T16:58:44.759Z</time></trkpt><trkpt lat="40.7487003" lon="14.7690852"><ele>198.0</ele><time>2026-05-02T16:58:50.918Z</time></trkpt><trkpt lat="40.7486444" lon="14.7690469"><ele>198.0</ele><time>2026-05-02T16:58:53.887Z</time></trkpt><trkpt lat="40.7485761" lon="14.7690075"><ele>198.0</ele><time>2026-05-02T16:59:15.884Z</time></trkpt><trkpt lat="40.7486442" lon="14.7690862"><ele>198.0</ele><time>2026-05-02T17:05:02.796Z</time></trkpt><trkpt lat="40.7487219" lon="14.7691243"><ele>198.0</ele><time>2026-05-02T17:05:17.31Z</time></trkpt><trkpt lat="40.7486518" lon="14.7690686"><ele>198.0</ele><time>2026-05-02T17:08:21.932Z</time></trkpt><trkpt lat="40.7485919" lon="14.7690999"><ele>198.0</ele><time>2026-05-02T17:13:41.914Z</time></trkpt><trkpt lat="40.7487488" lon="14.7692266"><ele>198.0</ele><time>2026-05-02T17:15:12.629Z</time></trkpt><trkpt lat="40.7487441" lon="14.7690882"><ele>198.0</ele><time>2026-05-02T17:15:58.923Z</time></trkpt><trkpt lat="40.7487316" lon="14.7689873"><ele>198.0</ele><time>2026-05-02T17:15:59.912Z</time></trkpt><trkpt lat="40.7487427" lon="14.7689023"><ele>198.0</ele><time>2026-05-02T17:16:53.902Z</time></trkpt><trkpt lat="40.748758" lon="14.7688161"><ele>198.0</ele><time>2026-05-02T17:16:59.886Z</time></trkpt><trkpt lat="40.7487605" lon="14.7689369"><ele>198.0</ele><time>2026-05-02T17:17:01.929Z</time></trkpt><trkpt lat="40.7487603" lon="14.7690212"><ele>198.0</ele><time>2026-05-02T17:17:02.918Z</time></trkpt><trkpt lat="40.7487619" lon="14.7691297"><ele>198.0</ele><time>2026-05-02T17:17:04.898Z</time></trkpt><trkpt lat="40.7487702" lon="14.7692588"><ele>198.0</ele><time>2026-05-02T17:17:07.977Z</time></trkpt><trkpt lat="40.748754" lon="14.7691287"><ele>198.0</ele><time>2026-05-02T17:17:08.883Z</time></trkpt><trkpt lat="40.7487511" lon="14.7688792"><ele>198.0</ele><time>2026-05-02T17:17:11.934Z</time></trkpt><trkpt lat="40.7488152" lon="14.7689163"><ele>198.0</ele><time>2026-05-02T17:17:19.883Z</time></trkpt><trkpt lat="40.7488436" lon="14.7690408"><ele>198.0</ele><time>2026-05-02T17:17:23.921Z</time></trkpt><trkpt lat="40.7488265" lon="14.7691464"><ele>198.0</ele><time>2026-05-02T17:17:25.9Z</time></trkpt><trkpt lat="40.7488373" lon="14.769256"><ele>198.0</ele><time>2026-05-02T17:17:28.883Z</time></trkpt><trkpt lat="40.7487894" lon="14.7693633"><ele>198.0</ele><time>2026-05-02T17:17:37.885Z</time></trkpt><trkpt lat="40.7487685" lon="14.7692224"><ele>198.0</ele><time>2026-05-02T17:17:38.884Z</time></trkpt><trkpt lat="40.7487339" lon="14.7691217"><ele>198.0</ele><time>2026-05-02T17:17:44.922Z</time></trkpt><trkpt lat="40.7487194" lon="14.7690201"><ele>198.0</ele><time>2026-05-02T17:17:57.897Z</time></trkpt><trkpt lat="40.748663" lon="14.768879"><ele>198.0</ele><time>2026-05-02T17:18:00.883Z</time></trkpt><trkpt lat="40.7486594" lon="14.7687749"><ele>198.0</ele><time>2026-05-02T17:18:04.934Z</time></trkpt><trkpt lat="40.7487291" lon="14.7688558"><ele>198.0</ele><time>2026-05-02T17:18:07.904Z</time></trkpt><trkpt lat="40.7487993" lon="14.7689101"><ele>198.0</ele><time>2026-05-02T17:18:09.884Z</time></trkpt><trkpt lat="40.7487995" lon="14.769016"><ele>198.0</ele><time>2026-05-02T17:18:21.539Z</time></trkpt><trkpt lat="40.7486929" lon="14.7689536"><ele>198.0</ele><time>2026-05-02T17:18:27.915Z</time></trkpt><trkpt lat="40.7486355" lon="14.7688961"><ele>198.0</ele><time>2026-05-02T17:18:47.928Z</time></trkpt><trkpt lat="40.7485684" lon="14.7688623"><ele>198.0</ele><time>2026-05-02T17:18:55.882Z</time></trkpt><trkpt lat="40.7485326" lon="14.7687926"><ele>198.0</ele><time>2026-05-02T17:19:09.919Z</time></trkpt><trkpt lat="40.7484786" lon="14.7687477"><ele>198.0</ele><time>2026-05-02T17:20:06.882Z</time></trkpt><trkpt lat="40.7486442" lon="14.7688769"><ele>198.0</ele><time>2026-05-02T17:27:32.869Z</time></trkpt><trkpt lat="40.7487438" lon="14.7691077"><ele>198.0</ele><time>2026-05-02T17:27:40.125Z</time></trkpt><trkpt lat="40.748572" lon="14.7689941"><ele>198.0</ele><time>2026-05-02T17:28:36.885Z</time></trkpt><trkpt lat="40.7484984" lon="14.7689395"><ele>198.0</ele><time>2026-05-02T17:28:44.891Z</time></trkpt><trkpt lat="40.7486059" lon="14.7689738"><ele>198.0</ele><time>2026-05-02T17:28:46.884Z</time></trkpt><trkpt lat="40.7486647" lon="14.7690105"><ele>198.0</ele><time>2026-05-02T17:28:48.959Z</time></trkpt><trkpt lat="40.7487453" lon="14.769115"><ele>198.0</ele><time>2026-05-02T17:28:52.918Z</time></trkpt><trkpt lat="40.7488063" lon="14.7692044"><ele>198.0</ele><time>2026-05-02T17:28:56.884Z</time></trkpt><trkpt lat="40.7488436" lon="14.7692746"><ele>198.0</ele><time>2026-05-02T17:28:59.956Z</time></trkpt><trkpt lat="40.7487842" lon="14.7692002"><ele>198.0</ele><time>2026-05-02T17:29:00.946Z</time></trkpt><trkpt lat="40.7487312" lon="14.7691525"><ele>198.0</ele><time>2026-05-02T17:30:23.883Z</time></trkpt><trkpt lat="40.7486789" lon="14.7690577"><ele>198.0</ele><time>2026-05-02T17:30:26.932Z</time></trkpt><trkpt lat="40.7487692" lon="14.7691373"><ele>198.0</ele><time>2026-05-02T17:30:56.531Z</time></trkpt><trkpt lat="40.7487106" lon="14.7691718"><ele>198.0</ele><time>2026-05-02T17:31:24.883Z</time></trkpt><trkpt lat="40.748695" lon="14.769088"><ele>198.0</ele><time>2026-05-02T17:34:54.9Z</time></trkpt><trkpt lat="40.7486431" lon="14.7690359"><ele>198.0</ele><time>2026-05-02T17:35:13.923Z</time></trkpt><trkpt lat="40.7485863" lon="14.7689765"><ele>198.0</ele><time>2026-05-02T17:35:28.886Z</time></trkpt><trkpt lat="40.7485202" lon="14.7689461"><ele>198.0</ele><time>2026-05-02T17:36:00.887Z</time></trkpt><trkpt lat="40.7484483" lon="14.768878"><ele>198.0</ele><time>2026-05-02T17:36:24.957Z</time></trkpt><trkpt lat="40.7483842" lon="14.7688634"><ele>198.0</ele><time>2026-05-02T17:36:28.914Z</time></trkpt><trkpt lat="40.7482098" lon="14.7688439"><ele>198.0</ele><time>2026-05-02T17:36:37.602Z</time></trkpt><trkpt lat="40.7488103" lon="14.7691917"><ele>198.0</ele><time>2026-05-02T17:36:44.806Z</time></trkpt><trkpt lat="40.748952" lon="14.7692482"><ele>198.0</ele><time>2026-05-02T17:36:52.006Z</time></trkpt><trkpt lat="40.748833" lon="14.7691753"><ele>198.0</ele><time>2026-05-02T17:36:59.228Z</time></trkpt><trkpt lat="40.7487941" lon="14.7692703"><ele>198.0</ele><time>2026-05-02T17:37:06.509Z</time></trkpt><trkpt lat="40.7486867" lon="14.7693084"><ele>198.0</ele><time>2026-05-02T17:37:21.035Z</time></trkpt><trkpt lat="40.7486696" lon="14.7691489"><ele>198.0</ele><time>2026-05-02T17:37:28.291Z</time></trkpt><trkpt lat="40.7487234" lon="14.7690294"><ele>198.0</ele><time>2026-05-02T17:37:35.55Z</time></trkpt><trkpt lat="40.7488022" lon="14.7691066"><ele>198.0</ele><time>2026-05-02T17:40:02.894Z</time></trkpt><trkpt lat="40.7486974" lon="14.7693207"><ele>198.0</ele><time>2026-05-02T17:40:06.962Z</time></trkpt><trkpt lat="40.7487697" lon="14.7692317"><ele>198.0</ele><time>2026-05-02T17:40:30.932Z</time></trkpt><trkpt lat="40.7488178" lon="14.769134"><ele>198.0</ele><time>2026-05-02T17:40:33.902Z</time></trkpt><trkpt lat="40.7488413" lon="14.769015"><ele>198.0</ele><time>2026-05-02T17:40:43.907Z</time></trkpt><trkpt lat="40.7487797" lon="14.7691228"><ele>198.0</ele><time>2026-05-02T17:40:58.791Z</time></trkpt><trkpt lat="40.7487231" lon="14.7691662"><ele>198.0</ele><time>2026-05-02T19:55:00.93Z</time></trkpt><trkpt lat="40.7486442" lon="14.7692265"><ele>198.0</ele><time>2026-05-02T19:55:03.899Z</time></trkpt><trkpt lat="40.7487341" lon="14.7691902"><ele>198.0</ele><time>2026-05-02T19:55:20.529Z</time></trkpt><trkpt lat="40.7487438" lon="14.7691064"><ele>198.0</ele><time>2026-05-02T19:58:14.894Z</time></trkpt><trkpt lat="40.7486981" lon="14.769048"><ele>198.0</ele><time>2026-05-02T19:58:33.918Z</time></trkpt><trkpt lat="40.7486806" lon="14.7689664"><ele>198.0</ele><time>2026-05-02T19:58:45.902Z</time></trkpt><trkpt lat="40.7486971" lon="14.7688807"><ele>198.0</ele><time>2026-05-02T19:59:00.883Z</time></trkpt><trkpt lat="40.748662" lon="14.7687974"><ele>198.0</ele><time>2026-05-02T19:59:10.882Z</time></trkpt><trkpt lat="40.7487259" lon="14.7688843"><ele>198.0</ele><time>2026-05-02T20:00:12Z</time></trkpt><trkpt lat="40.7487145" lon="14.768967"><ele>198.0</ele><time>2026-05-02T20:01:19.953Z</time></trkpt><trkpt lat="40.7487298" lon="14.7690695"><ele>198.0</ele><time>2026-05-02T20:01:39.307Z</time></trkpt><trkpt lat="40.7487807" lon="14.7691572"><ele>198.0</ele><time>2026-05-02T20:01:53.82Z</time></trkpt><trkpt lat="40.7487924" lon="14.769253"><ele>198.0</ele><time>2026-05-03T01:05:23.902Z</time></trkpt><trkpt lat="40.7487488" lon="14.7693233"><ele>198.0</ele><time>2026-05-03T01:05:37.882Z</time></trkpt><trkpt lat="40.7487616" lon="14.7692184"><ele>198.0</ele><time>2026-05-03T01:07:00.113Z</time></trkpt><trkpt lat="40.7487934" lon="14.7691379"><ele>220.0</ele><time>2026-05-03T01:33:26.904Z</time></trkpt><trkpt lat="40.7482965" lon="14.7658611"><ele>217.5</ele><time>2026-05-03T01:42:15.907Z</time></trkpt><trkpt lat="40.7484164" lon="14.7663411"><ele>215.0</ele><time>2026-05-03T01:42:28.333Z</time></trkpt><trkpt lat="40.748779" lon="14.7688432"><ele>206.5</ele><time>2026-05-03T01:42:35.489Z</time></trkpt><trkpt lat="40.7487257" lon="14.7693414"><ele>198.0</ele><time>2026-05-03T01:42:42.736Z</time></trkpt><trkpt lat="40.7488003" lon="14.7691282"><ele>198.0</ele><time>2026-05-03T01:43:11.874Z</time></trkpt><trkpt lat="40.748741" lon="14.7690974"><ele>198.0</ele><time>2026-05-03T01:45:34.929Z</time></trkpt><trkpt lat="40.7487884" lon="14.7691555"><ele>198.0</ele><time>2026-05-03T03:53:35.895Z</time></trkpt><trkpt lat="40.7487869" lon="14.7692465"><ele>198.0</ele><time>2026-05-03T03:53:40.953Z</time></trkpt><trkpt lat="40.7488094" lon="14.7693292"><ele>198.0</ele><time>2026-05-03T03:53:48.881Z</time></trkpt><trkpt lat="40.748845" lon="14.7694114"><ele>198.0</ele><time>2026-05-03T03:53:58.882Z</time></trkpt><trkpt lat="40.7488481" lon="14.7694948"><ele>198.0</ele><time>2026-05-03T03:54:07.893Z</time></trkpt><trkpt lat="40.7488645" lon="14.7695769"><ele>198.0</ele><time>2026-05-03T03:54:18.889Z</time></trkpt><trkpt lat="40.7488263" lon="14.769478"><ele>198.0</ele><time>2026-05-03T03:57:34.724Z</time></trkpt><trkpt lat="40.7488124" lon="14.7693788"><ele>198.0</ele><time>2026-05-03T03:57:42.09Z</time></trkpt><trkpt lat="40.7488095" lon="14.7692771"><ele>198.0</ele><time>2026-05-03T03:58:09.91Z</time></trkpt><trkpt lat="40.7488389" lon="14.7691848"><ele>198.0</ele><time>2026-05-03T03:58:32.891Z</time></trkpt><trkpt lat="40.748799" lon="14.7691077"><ele>198.0</ele><time>2026-05-03T04:09:34.945Z</time></trkpt><trkpt lat="40.7488158" lon="14.7690224"><ele>198.0</ele><time>2026-05-03T04:10:01.885Z</time></trkpt><trkpt lat="40.7488374" lon="14.769103"><ele>198.0</ele><time>2026-05-03T04:11:34.909Z</time></trkpt><trkpt lat="40.748775" lon="14.7691229"><ele>198.0</ele><time>2026-05-03T07:40:18.888Z</time></trkpt><trkpt lat="40.7487495" lon="14.7690314"><ele>198.0</ele><time>2026-05-03T07:40:22.957Z</time></trkpt><trkpt lat="40.748048" lon="14.7676908"><ele>204.5</ele><time>2026-05-03T07:40:30.884Z</time></trkpt><trkpt lat="40.7478381" lon="14.7673048"><ele>211.0</ele><time>2026-05-03T07:40:31.883Z</time></trkpt><trkpt lat="40.7477597" lon="14.7671523"><ele>211.0</ele><time>2026-05-03T07:40:32.884Z</time></trkpt><trkpt lat="40.7477183" lon="14.7670586"><ele>211.0</ele><time>2026-05-03T07:40:34.884Z</time></trkpt><trkpt lat="40.747742" lon="14.7671405"><ele>211.0</ele><time>2026-05-03T07:41:16.945Z</time></trkpt><trkpt lat="40.7478518" lon="14.7672235"><ele>211.0</ele><time>2026-05-03T07:41:20.904Z</time></trkpt><trkpt lat="40.7480158" lon="14.7672542"><ele>211.0</ele><time>2026-05-03T07:41:21.893Z</time></trkpt><trkpt lat="40.7482467" lon="14.7672975"><ele>211.0</ele><time>2026-05-03T07:41:22.885Z</time></trkpt><trkpt lat="40.7484051" lon="14.7673272"><ele>211.0</ele><time>2026-05-03T07:41:23.884Z</time></trkpt><trkpt lat="40.7489263" lon="14.7674895"><ele>198.0</ele><time>2026-05-03T07:41:30.197Z</time></trkpt><trkpt lat="40.749012" lon="14.7686066"><ele>198.0</ele><time>2026-05-03T07:41:39.267Z</time></trkpt><trkpt lat="40.7487971" lon="14.7691473"><ele>205.0</ele><time>2026-05-03T07:41:46.525Z</time></trkpt><trkpt lat="40.7487132" lon="14.7684172"><ele>205.0</ele><time>2026-05-03T08:02:54.884Z</time></trkpt><trkpt lat="40.7487512" lon="14.7683162"><ele>205.0</ele><time>2026-05-03T08:02:58.939Z</time></trkpt><trkpt lat="40.748766" lon="14.7680724"><ele>205.0</ele><time>2026-05-03T08:02:59.928Z</time></trkpt><trkpt lat="40.7487863" lon="14.7678286"><ele>206.66666666666666</ele><time>2026-05-03T08:03:00.918Z</time></trkpt><trkpt lat="40.7488074" lon="14.7675999"><ele>208.33333333333331</ele><time>2026-05-03T08:03:01.907Z</time></trkpt><trkpt lat="40.7488265" lon="14.7673848"><ele>210.0</ele><time>2026-05-03T08:03:02.897Z</time></trkpt><trkpt lat="40.7488454" lon="14.767186"><ele>211.66666666666669</ele><time>2026-05-03T08:03:03.887Z</time></trkpt><trkpt lat="40.7488674" lon="14.7668076"><ele>213.33333333333334</ele><time>2026-05-03T08:03:05.883Z</time></trkpt><trkpt lat="40.7488832" lon="14.7666848"><ele>215.0</ele><time>2026-05-03T08:03:06.883Z</time></trkpt><trkpt lat="40.7488971" lon="14.7665879"><ele>215.0</ele><time>2026-05-03T08:03:07.884Z</time></trkpt><trkpt lat="40.7489282" lon="14.7664535"><ele>215.0</ele><time>2026-05-03T08:03:09.934Z</time></trkpt><trkpt lat="40.7489581" lon="14.7663032"><ele>215.0</ele><time>2026-05-03T08:03:11.913Z</time></trkpt><trkpt lat="40.748927" lon="14.7662256"><ele>215.0</ele><time>2026-05-03T08:03:14.883Z</time></trkpt><trkpt lat="40.7489233" lon="14.7661118"><ele>215.0</ele><time>2026-05-03T08:03:18.95Z</time></trkpt><trkpt lat="40.7489852" lon="14.7660165"><ele>215.0</ele><time>2026-05-03T08:03:25.769Z</time></trkpt><trkpt lat="40.7486112" lon="14.7665699"><ele>215.0</ele><time>2026-05-03T08:03:30.882Z</time></trkpt><trkpt lat="40.7485927" lon="14.7664201"><ele>215.0</ele><time>2026-05-03T08:03:33.881Z</time></trkpt><trkpt lat="40.7485786" lon="14.7663125"><ele>215.0</ele><time>2026-05-03T08:03:35.881Z</time></trkpt><trkpt lat="40.7485601" lon="14.7662275"><ele>215.0</ele><time>2026-05-03T08:03:37.881Z</time></trkpt><trkpt lat="40.7488002" lon="14.7691467"><ele>210.75</ele><time>2026-05-03T08:04:16.898Z</time></trkpt><trkpt lat="40.7487689" lon="14.7692229"><ele>206.5</ele><time>2026-05-03T10:42:11.883Z</time></trkpt><trkpt lat="40.7487239" lon="14.7693825"><ele>202.25</ele><time>2026-05-03T10:42:13.95Z</time></trkpt><trkpt lat="40.7486994" lon="14.769476"><ele>198.0</ele><time>2026-05-03T10:42:14.939Z</time></trkpt><trkpt lat="40.7485744" lon="14.7699527"><ele>195.0</ele><time>2026-05-03T10:42:15.929Z</time></trkpt><trkpt lat="40.7484969" lon="14.7702114"><ele>192.0</ele><time>2026-05-03T10:42:16.919Z</time></trkpt><trkpt lat="40.7483905" lon="14.7706247"><ele>192.0</ele><time>2026-05-03T10:42:17.908Z</time></trkpt><trkpt lat="40.7483828" lon="14.7707427"><ele>192.0</ele><time>2026-05-03T10:42:18.898Z</time></trkpt><trkpt lat="40.7483835" lon="14.7708319"><ele>192.0</ele><time>2026-05-03T10:42:19.888Z</time></trkpt><trkpt lat="40.7483835" lon="14.7709601"><ele>192.0</ele><time>2026-05-03T10:42:24.506Z</time></trkpt><trkpt lat="40.7486823" lon="14.7699359"><ele>194.0</ele><time>2026-05-03T10:42:31.762Z</time></trkpt><trkpt lat="40.7488521" lon="14.7698983"><ele>196.0</ele><time>2026-05-03T10:42:39.13Z</time></trkpt><trkpt lat="40.7487974" lon="14.7691711"><ele>196.4</ele><time>2026-05-03T10:42:46.387Z</time></trkpt><trkpt lat="40.7487997" lon="14.769279"><ele>196.8</ele><time>2026-05-03T10:50:24.907Z</time></trkpt><trkpt lat="40.7486855" lon="14.7692617"><ele>197.20000000000002</ele><time>2026-05-03T10:50:26.885Z</time></trkpt><trkpt lat="40.7485895" lon="14.7693379"><ele>197.60000000000002</ele><time>2026-05-03T10:50:27.882Z</time></trkpt><trkpt lat="40.7484914" lon="14.7694253"><ele>198.0</ele><time>2026-05-03T10:50:28.882Z</time></trkpt><trkpt lat="40.7478672" lon="14.7699087"><ele>197.2</ele><time>2026-05-03T10:50:29.882Z</time></trkpt><trkpt lat="40.7477887" lon="14.7698354"><ele>196.4</ele><time>2026-05-03T10:50:31.881Z</time></trkpt><trkpt lat="40.7477188" lon="14.7698652"><ele>195.6</ele><time>2026-05-03T10:50:34.913Z</time></trkpt><trkpt lat="40.7477778" lon="14.7697655"><ele>194.79999999999998</ele><time>2026-05-03T10:50:36.892Z</time></trkpt><trkpt lat="40.7478295" lon="14.7696694"><ele>194.0</ele><time>2026-05-03T10:50:37.882Z</time></trkpt><trkpt lat="40.7478832" lon="14.769557"><ele>194.0</ele><time>2026-05-03T10:50:38.882Z</time></trkpt><trkpt lat="40.7479179" lon="14.7694642"><ele>194.0</ele><time>2026-05-03T10:50:39.882Z</time></trkpt><trkpt lat="40.7479414" lon="14.769338"><ele>194.0</ele><time>2026-05-03T10:50:41.951Z</time></trkpt><trkpt lat="40.7478223" lon="14.7693246"><ele>194.0</ele><time>2026-05-03T10:50:42.939Z</time></trkpt><trkpt lat="40.7477341" lon="14.7692501"><ele>194.0</ele><time>2026-05-03T10:50:44.919Z</time></trkpt><trkpt lat="40.7478276" lon="14.769215"><ele>195.5</ele><time>2026-05-03T10:50:47.887Z</time></trkpt><trkpt lat="40.7479121" lon="14.7689956"><ele>197.0</ele><time>2026-05-03T10:50:56.465Z</time></trkpt><trkpt lat="40.7483799" lon="14.768985"><ele>197.5</ele><time>2026-05-03T10:51:03.611Z</time></trkpt><trkpt lat="40.7487552" lon="14.7691531"><ele>198.0</ele><time>2026-05-03T10:51:10.868Z</time></trkpt><trkpt lat="40.7484748" lon="14.7671493"><ele>198.0</ele><time>2026-05-03T15:41:02.883Z</time></trkpt><trkpt lat="40.7484634" lon="14.76705"><ele>198.0</ele><time>2026-05-03T15:41:04.882Z</time></trkpt><trkpt lat="40.7487701" lon="14.7690158"><ele>198.0</ele><time>2026-05-03T15:41:27.432Z</time></trkpt><trkpt lat="40.748801" lon="14.7691408"><ele>198.0</ele><time>2026-05-03T15:41:32.836Z</time></trkpt><trkpt lat="40.7485307" lon="14.7671434"><ele>198.0</ele><time>2026-05-03T15:42:06.883Z</time></trkpt><trkpt lat="40.748511" lon="14.7670475"><ele>198.0</ele><time>2026-05-03T15:42:07.884Z</time></trkpt><trkpt lat="40.7487948" lon="14.7691324"><ele>205.0</ele><time>2026-05-03T15:42:28.849Z</time></trkpt><trkpt lat="40.748504" lon="14.7683335"><ele>204.99999999999997</ele><time>2026-05-03T15:51:07.883Z</time></trkpt><trkpt lat="40.7485169" lon="14.7682512"><ele>205.0</ele><time>2026-05-03T15:51:12.883Z</time></trkpt><trkpt lat="40.7485515" lon="14.7683227"><ele>205.0</ele><time>2026-05-03T15:51:23.883Z</time></trkpt><trkpt lat="40.7485645" lon="14.7684349"><ele>205.0</ele><time>2026-05-03T15:51:31.883Z</time></trkpt><trkpt lat="40.7485656" lon="14.7685651"><ele>204.99999999999997</ele><time>2026-05-03T15:51:35.883Z</time></trkpt><trkpt lat="40.7485849" lon="14.7686656"><ele>205.0</ele><time>2026-05-03T15:51:38.883Z</time></trkpt><trkpt lat="40.7486124" lon="14.7685865"><ele>204.99999999999997</ele><time>2026-05-03T15:51:53.882Z</time></trkpt><trkpt lat="40.7486362" lon="14.7686644"><ele>205.0</ele><time>2026-05-03T15:52:22.883Z</time></trkpt><trkpt lat="40.7486928" lon="14.7686073"><ele>205.0</ele><time>2026-05-03T15:52:38.883Z</time></trkpt><trkpt lat="40.7486371" lon="14.7685517"><ele>205.0</ele><time>2026-05-03T15:52:59.883Z</time></trkpt><trkpt lat="40.7485734" lon="14.7684817"><ele>204.99999999999997</ele><time>2026-05-03T15:53:01.883Z</time></trkpt><trkpt lat="40.7485107" lon="14.7684499"><ele>205.0</ele><time>2026-05-03T15:53:06.883Z</time></trkpt><trkpt lat="40.7487866" lon="14.76912"><ele>201.5</ele><time>2026-05-03T15:53:35.48Z</time></trkpt><trkpt lat="40.7489431" lon="14.7695878"><ele>198.0</ele><time>2026-05-03T16:20:32.885Z</time></trkpt><trkpt lat="40.7488343" lon="14.7691692"><ele>198.0</ele><time>2026-05-03T16:21:12.885Z</time></trkpt><trkpt lat="40.7487924" lon="14.7690568"><ele>198.0</ele><time>2026-05-03T16:21:13.886Z</time></trkpt><trkpt lat="40.7487637" lon="14.7688961"><ele>198.0</ele><time>2026-05-03T16:21:17.886Z</time></trkpt><trkpt lat="40.7487372" lon="14.7688163"><ele>198.0</ele><time>2026-05-03T16:21:21.885Z</time></trkpt><trkpt lat="40.74873" lon="14.7687101"><ele>198.0</ele><time>2026-05-03T16:21:26.885Z</time></trkpt><trkpt lat="40.7487172" lon="14.768558"><ele>198.0</ele><time>2026-05-03T16:21:29.885Z</time></trkpt><trkpt lat="40.7487979" lon="14.7691199"><ele>198.0</ele><time>2026-05-03T16:21:52.478Z</time></trkpt><trkpt lat="40.7487019" lon="14.7688874"><ele>198.0</ele><time>2026-05-03T16:22:51.883Z</time></trkpt><trkpt lat="40.7486767" lon="14.7688088"><ele>198.0</ele><time>2026-05-03T16:23:05.882Z</time></trkpt><trkpt lat="40.748643" lon="14.7687214"><ele>198.0</ele><time>2026-05-03T16:23:14.882Z</time></trkpt><trkpt lat="40.748637" lon="14.7686099"><ele>198.0</ele><time>2026-05-03T16:23:21.882Z</time></trkpt><trkpt lat="40.7486489" lon="14.7687626"><ele>198.0</ele><time>2026-05-03T16:23:27.882Z</time></trkpt><trkpt lat="40.7486703" lon="14.768869"><ele>198.0</ele><time>2026-05-03T16:23:35.883Z</time></trkpt><trkpt lat="40.7486864" lon="14.7689518"><ele>198.0</ele><time>2026-05-03T16:23:36.882Z</time></trkpt><trkpt lat="40.7487951" lon="14.7691308"><ele>198.0</ele><time>2026-05-03T16:23:47.466Z</time></trkpt><trkpt lat="40.7487018" lon="14.7693017"><ele>198.0</ele><time>2026-05-03T16:23:49.882Z</time></trkpt><trkpt lat="40.7487354" lon="14.7694027"><ele>198.0</ele><time>2026-05-03T16:24:00.883Z</time></trkpt><trkpt lat="40.7488001" lon="14.7694821"><ele>198.0</ele><time>2026-05-03T16:24:11.883Z</time></trkpt><trkpt lat="40.7487727" lon="14.7696448"><ele>198.0</ele><time>2026-05-03T16:24:15.882Z</time></trkpt><trkpt lat="40.7487623" lon="14.7691539"><ele>198.0</ele><time>2026-05-03T16:24:50.851Z</time></trkpt><trkpt lat="40.7487443" lon="14.7689335"><ele>198.0</ele><time>2026-05-03T16:25:15.88Z</time></trkpt><trkpt lat="40.7487205" lon="14.7688305"><ele>198.0</ele><time>2026-05-03T16:25:16.881Z</time></trkpt><trkpt lat="40.7487053" lon="14.7687482"><ele>198.0</ele><time>2026-05-03T16:25:17.881Z</time></trkpt><trkpt lat="40.7486939" lon="14.768662"><ele>198.0</ele><time>2026-05-03T16:25:18.881Z</time></trkpt><trkpt lat="40.7486976" lon="14.7687563"><ele>198.0</ele><time>2026-05-03T16:25:41.88Z</time></trkpt><trkpt lat="40.748707" lon="14.7688484"><ele>198.0</ele><time>2026-05-03T16:25:44.881Z</time></trkpt><trkpt lat="40.7487137" lon="14.7689539"><ele>198.0</ele><time>2026-05-03T16:25:47.881Z</time></trkpt><trkpt lat="40.748726" lon="14.7690558"><ele>198.0</ele><time>2026-05-03T16:25:52.881Z</time></trkpt><trkpt lat="40.748738" lon="14.7691498"><ele>198.0</ele><time>2026-05-03T16:25:55.881Z</time></trkpt><trkpt lat="40.7487181" lon="14.7692655"><ele>198.0</ele><time>2026-05-03T16:26:01.881Z</time></trkpt><trkpt lat="40.7487284" lon="14.7693855"><ele>198.0</ele><time>2026-05-03T16:26:06.881Z</time></trkpt><trkpt lat="40.7488028" lon="14.7691387"><ele>198.0</ele><time>2026-05-03T16:26:40.829Z</time></trkpt><trkpt lat="40.7488107" lon="14.7693187"><ele>198.0</ele><time>2026-05-03T16:27:06.884Z</time></trkpt><trkpt lat="40.7488067" lon="14.7692129"><ele>198.0</ele><time>2026-05-03T16:27:09.884Z</time></trkpt><trkpt lat="40.7488526" lon="14.7691503"><ele>198.0</ele><time>2026-05-03T16:27:16.884Z</time></trkpt><trkpt lat="40.748889" lon="14.7690711"><ele>198.0</ele><time>2026-05-03T16:27:21.883Z</time></trkpt><trkpt lat="40.7488537" lon="14.7689963"><ele>198.0</ele><time>2026-05-03T16:27:32.884Z</time></trkpt><trkpt lat="40.7488039" lon="14.7691268"><ele>198.0</ele><time>2026-05-03T16:27:41.452Z</time></trkpt><trkpt lat="40.7498222" lon="14.770217"><ele>197.0</ele><time>2026-05-03T16:44:11.878Z</time></trkpt></trkseg></trk></gpx>